<?xml version="1.0" encoding="UTF-8" standalone="no" ?>
<gpx xmlns="http://www.topografix.com/GPX/1/1" xmlns:xsi="http://www.w3.org/2001/XMLSchema-instance" xsi:schemaLocation="http://www.topografix.com/GPX/1/1 http://www.topografix.com/GPX/1/1/gpx.xsd" version="1.1" creator="VisuGPX - https://www.visugpx.com">
  <metadata>
    <name>BTTAlt800-ActivitéTerminée-PostCheck_J3#2</name>
  </metadata>
  <trk>
    <name><![CDATA[BTTAlt800-ActivitéTerminée-PostCheck_J3#2_1]]></name>
    <trkseg>
      <trkpt lat="46.20709" lon="4.53562">
        <ele>625.4</ele>
        <time>2025-09-20T11:08:30Z</time>
      </trkpt>
      <trkpt lat="46.2071" lon="4.53563">
        <ele>625.4</ele>
        <time>2025-09-20T11:08:31Z</time>
      </trkpt>
      <trkpt lat="46.20711" lon="4.53564">
        <ele>625.4</ele>
        <time>2025-09-20T11:08:32Z</time>
      </trkpt>
      <trkpt lat="46.20713" lon="4.53565">
        <ele>625.4</ele>
        <time>2025-09-20T11:08:33Z</time>
      </trkpt>
      <trkpt lat="46.20715" lon="4.53565">
        <ele>625.4</ele>
        <time>2025-09-20T11:08:34Z</time>
      </trkpt>
      <trkpt lat="46.20717" lon="4.53565">
        <ele>625</ele>
        <time>2025-09-20T11:08:35Z</time>
      </trkpt>
      <trkpt lat="46.20719" lon="4.53565">
        <ele>625</ele>
        <time>2025-09-20T11:08:36Z</time>
      </trkpt>
      <trkpt lat="46.20722" lon="4.53564">
        <ele>625</ele>
        <time>2025-09-20T11:08:37Z</time>
      </trkpt>
      <trkpt lat="46.20725" lon="4.53562">
        <ele>624.8</ele>
        <time>2025-09-20T11:08:38Z</time>
      </trkpt>
      <trkpt lat="46.20728" lon="4.53562">
        <ele>624.8</ele>
        <time>2025-09-20T11:08:39Z</time>
      </trkpt>
      <trkpt lat="46.20731" lon="4.53561">
        <ele>624.8</ele>
        <time>2025-09-20T11:08:40Z</time>
      </trkpt>
      <trkpt lat="46.20734" lon="4.53561">
        <ele>624.6</ele>
        <time>2025-09-20T11:08:41Z</time>
      </trkpt>
      <trkpt lat="46.20738" lon="4.5356">
        <ele>624.2</ele>
        <time>2025-09-20T11:08:42Z</time>
      </trkpt>
      <trkpt lat="46.20741" lon="4.53557">
        <ele>624.2</ele>
        <time>2025-09-20T11:08:43Z</time>
      </trkpt>
      <trkpt lat="46.20744" lon="4.53553">
        <ele>624.2</ele>
        <time>2025-09-20T11:08:44Z</time>
      </trkpt>
      <trkpt lat="46.20746" lon="4.53548">
        <ele>623.8</ele>
        <time>2025-09-20T11:08:45Z</time>
      </trkpt>
      <trkpt lat="46.20747" lon="4.5354">
        <ele>623.6</ele>
        <time>2025-09-20T11:08:46Z</time>
      </trkpt>
      <trkpt lat="46.20749" lon="4.53536">
        <ele>623.4</ele>
        <time>2025-09-20T11:08:47Z</time>
      </trkpt>
      <trkpt lat="46.20752" lon="4.5353">
        <ele>623.4</ele>
        <time>2025-09-20T11:08:48Z</time>
      </trkpt>
      <trkpt lat="46.20754" lon="4.53524">
        <ele>623</ele>
        <time>2025-09-20T11:08:49Z</time>
      </trkpt>
      <trkpt lat="46.20756" lon="4.53517">
        <ele>622.8</ele>
        <time>2025-09-20T11:08:50Z</time>
      </trkpt>
      <trkpt lat="46.20758" lon="4.53509">
        <ele>622.4</ele>
        <time>2025-09-20T11:08:51Z</time>
      </trkpt>
      <trkpt lat="46.20762" lon="4.53502">
        <ele>622.4</ele>
        <time>2025-09-20T11:08:52Z</time>
      </trkpt>
      <trkpt lat="46.20765" lon="4.53495">
        <ele>622</ele>
        <time>2025-09-20T11:08:53Z</time>
      </trkpt>
      <trkpt lat="46.20768" lon="4.53488">
        <ele>622</ele>
        <time>2025-09-20T11:08:54Z</time>
      </trkpt>
      <trkpt lat="46.20772" lon="4.53481">
        <ele>621.4</ele>
        <time>2025-09-20T11:08:55Z</time>
      </trkpt>
      <trkpt lat="46.20776" lon="4.53473">
        <ele>621.6</ele>
        <time>2025-09-20T11:08:56Z</time>
      </trkpt>
      <trkpt lat="46.2078" lon="4.53466">
        <ele>621.4</ele>
        <time>2025-09-20T11:08:57Z</time>
      </trkpt>
      <trkpt lat="46.20783" lon="4.53459">
        <ele>621.2</ele>
        <time>2025-09-20T11:08:58Z</time>
      </trkpt>
      <trkpt lat="46.20784" lon="4.53452">
        <ele>621.2</ele>
        <time>2025-09-20T11:08:59Z</time>
      </trkpt>
      <trkpt lat="46.20787" lon="4.53445">
        <ele>621.2</ele>
        <time>2025-09-20T11:09:00Z</time>
      </trkpt>
      <trkpt lat="46.20789" lon="4.53441">
        <ele>620.4</ele>
        <time>2025-09-20T11:09:01Z</time>
      </trkpt>
      <trkpt lat="46.20792" lon="4.53437">
        <ele>620.4</ele>
        <time>2025-09-20T11:09:02Z</time>
      </trkpt>
      <trkpt lat="46.20793" lon="4.53433">
        <ele>619.8</ele>
        <time>2025-09-20T11:09:03Z</time>
      </trkpt>
      <trkpt lat="46.20796" lon="4.53429">
        <ele>620</ele>
        <time>2025-09-20T11:09:04Z</time>
      </trkpt>
      <trkpt lat="46.20798" lon="4.53424">
        <ele>620.2</ele>
        <time>2025-09-20T11:09:05Z</time>
      </trkpt>
      <trkpt lat="46.20801" lon="4.53419">
        <ele>619.2</ele>
        <time>2025-09-20T11:09:06Z</time>
      </trkpt>
      <trkpt lat="46.20803" lon="4.53415">
        <ele>619.2</ele>
        <time>2025-09-20T11:09:07Z</time>
      </trkpt>
      <trkpt lat="46.20805" lon="4.53411">
        <ele>619.2</ele>
        <time>2025-09-20T11:09:08Z</time>
      </trkpt>
      <trkpt lat="46.20809" lon="4.53406">
        <ele>619.2</ele>
        <time>2025-09-20T11:09:09Z</time>
      </trkpt>
      <trkpt lat="46.20809" lon="4.53404">
        <ele>619.2</ele>
        <time>2025-09-20T11:09:10Z</time>
      </trkpt>
      <trkpt lat="46.20812" lon="4.53401">
        <ele>619.4</ele>
        <time>2025-09-20T11:09:11Z</time>
      </trkpt>
      <trkpt lat="46.20813" lon="4.53399">
        <ele>619.4</ele>
        <time>2025-09-20T11:09:12Z</time>
      </trkpt>
      <trkpt lat="46.20814" lon="4.53397">
        <ele>619.4</ele>
        <time>2025-09-20T11:09:13Z</time>
      </trkpt>
      <trkpt lat="46.20815" lon="4.53396">
        <ele>619.6</ele>
        <time>2025-09-20T11:09:14Z</time>
      </trkpt>
      <trkpt lat="46.20816" lon="4.53394">
        <ele>619.6</ele>
        <time>2025-09-20T11:09:15Z</time>
      </trkpt>
      <trkpt lat="46.20818" lon="4.53392">
        <ele>619.6</ele>
        <time>2025-09-20T11:09:16Z</time>
      </trkpt>
      <trkpt lat="46.20818" lon="4.53391">
        <ele>619.4</ele>
        <time>2025-09-20T11:09:17Z</time>
      </trkpt>
      <trkpt lat="46.20818" lon="4.5339">
        <ele>619.4</ele>
        <time>2025-09-20T11:09:18Z</time>
      </trkpt>
      <trkpt lat="46.20818" lon="4.5339">
        <ele>619.4</ele>
        <time>2025-09-20T11:09:19Z</time>
      </trkpt>
      <trkpt lat="46.20817" lon="4.53392">
        <ele>619</ele>
        <time>2025-09-20T11:10:02Z</time>
      </trkpt>
      <trkpt lat="46.20819" lon="4.53391">
        <ele>619</ele>
        <time>2025-09-20T11:10:03Z</time>
      </trkpt>
      <trkpt lat="46.2082" lon="4.5339">
        <ele>618.8</ele>
        <time>2025-09-20T11:10:04Z</time>
      </trkpt>
      <trkpt lat="46.20821" lon="4.53388">
        <ele>618.8</ele>
        <time>2025-09-20T11:10:05Z</time>
      </trkpt>
      <trkpt lat="46.20822" lon="4.53386">
        <ele>618.8</ele>
        <time>2025-09-20T11:10:06Z</time>
      </trkpt>
      <trkpt lat="46.20825" lon="4.53383">
        <ele>618.2</ele>
        <time>2025-09-20T11:10:07Z</time>
      </trkpt>
      <trkpt lat="46.20828" lon="4.53378">
        <ele>618.2</ele>
        <time>2025-09-20T11:10:08Z</time>
      </trkpt>
      <trkpt lat="46.20831" lon="4.53373">
        <ele>619.4</ele>
        <time>2025-09-20T11:10:09Z</time>
      </trkpt>
      <trkpt lat="46.20833" lon="4.53369">
        <ele>619.2</ele>
        <time>2025-09-20T11:10:10Z</time>
      </trkpt>
      <trkpt lat="46.20836" lon="4.53365">
        <ele>618.8</ele>
        <time>2025-09-20T11:10:11Z</time>
      </trkpt>
      <trkpt lat="46.20839" lon="4.53361">
        <ele>618.6</ele>
        <time>2025-09-20T11:10:12Z</time>
      </trkpt>
      <trkpt lat="46.20841" lon="4.53357">
        <ele>618</ele>
        <time>2025-09-20T11:10:13Z</time>
      </trkpt>
      <trkpt lat="46.20845" lon="4.53348">
        <ele>618</ele>
        <time>2025-09-20T11:10:14Z</time>
      </trkpt>
      <trkpt lat="46.20848" lon="4.53345">
        <ele>618.2</ele>
        <time>2025-09-20T11:10:15Z</time>
      </trkpt>
      <trkpt lat="46.2085" lon="4.53341">
        <ele>618.2</ele>
        <time>2025-09-20T11:10:16Z</time>
      </trkpt>
      <trkpt lat="46.20854" lon="4.53336">
        <ele>618.2</ele>
        <time>2025-09-20T11:10:17Z</time>
      </trkpt>
      <trkpt lat="46.20856" lon="4.5333">
        <ele>618</ele>
        <time>2025-09-20T11:10:18Z</time>
      </trkpt>
      <trkpt lat="46.20859" lon="4.53323">
        <ele>618</ele>
        <time>2025-09-20T11:10:19Z</time>
      </trkpt>
      <trkpt lat="46.20864" lon="4.53315">
        <ele>617.4</ele>
        <time>2025-09-20T11:10:20Z</time>
      </trkpt>
      <trkpt lat="46.20867" lon="4.53312">
        <ele>617.4</ele>
        <time>2025-09-20T11:10:21Z</time>
      </trkpt>
      <trkpt lat="46.2087" lon="4.53308">
        <ele>616.6</ele>
        <time>2025-09-20T11:10:22Z</time>
      </trkpt>
      <trkpt lat="46.20874" lon="4.53303">
        <ele>615.8</ele>
        <time>2025-09-20T11:10:23Z</time>
      </trkpt>
      <trkpt lat="46.20879" lon="4.53302">
        <ele>615.8</ele>
        <time>2025-09-20T11:10:24Z</time>
      </trkpt>
      <trkpt lat="46.2088" lon="4.53293">
        <ele>615.2</ele>
        <time>2025-09-20T11:10:25Z</time>
      </trkpt>
      <trkpt lat="46.20884" lon="4.53289">
        <ele>615.2</ele>
        <time>2025-09-20T11:10:26Z</time>
      </trkpt>
      <trkpt lat="46.20888" lon="4.53283">
        <ele>615.6</ele>
        <time>2025-09-20T11:10:27Z</time>
      </trkpt>
      <trkpt lat="46.20891" lon="4.53279">
        <ele>615</ele>
        <time>2025-09-20T11:10:28Z</time>
      </trkpt>
      <trkpt lat="46.20895" lon="4.53275">
        <ele>615</ele>
        <time>2025-09-20T11:10:29Z</time>
      </trkpt>
      <trkpt lat="46.20897" lon="4.5327">
        <ele>615.2</ele>
        <time>2025-09-20T11:10:30Z</time>
      </trkpt>
      <trkpt lat="46.209" lon="4.53265">
        <ele>615.2</ele>
        <time>2025-09-20T11:10:31Z</time>
      </trkpt>
      <trkpt lat="46.20903" lon="4.53258">
        <ele>615</ele>
        <time>2025-09-20T11:10:32Z</time>
      </trkpt>
      <trkpt lat="46.20909" lon="4.53254">
        <ele>615.2</ele>
        <time>2025-09-20T11:10:33Z</time>
      </trkpt>
      <trkpt lat="46.20911" lon="4.5325">
        <ele>614.8</ele>
        <time>2025-09-20T11:10:34Z</time>
      </trkpt>
      <trkpt lat="46.20916" lon="4.53244">
        <ele>615.2</ele>
        <time>2025-09-20T11:10:35Z</time>
      </trkpt>
      <trkpt lat="46.20918" lon="4.53241">
        <ele>613.8</ele>
        <time>2025-09-20T11:10:36Z</time>
      </trkpt>
      <trkpt lat="46.20921" lon="4.53236">
        <ele>613.8</ele>
        <time>2025-09-20T11:10:37Z</time>
      </trkpt>
      <trkpt lat="46.20926" lon="4.53233">
        <ele>613.8</ele>
        <time>2025-09-20T11:10:38Z</time>
      </trkpt>
      <trkpt lat="46.2093" lon="4.53229">
        <ele>613.8</ele>
        <time>2025-09-20T11:10:39Z</time>
      </trkpt>
      <trkpt lat="46.20934" lon="4.53224">
        <ele>613.6</ele>
        <time>2025-09-20T11:10:40Z</time>
      </trkpt>
      <trkpt lat="46.20938" lon="4.53219">
        <ele>613.2</ele>
        <time>2025-09-20T11:10:41Z</time>
      </trkpt>
      <trkpt lat="46.20943" lon="4.53214">
        <ele>612.8</ele>
        <time>2025-09-20T11:10:42Z</time>
      </trkpt>
      <trkpt lat="46.20947" lon="4.53209">
        <ele>611.2</ele>
        <time>2025-09-20T11:10:43Z</time>
      </trkpt>
      <trkpt lat="46.20952" lon="4.53205">
        <ele>611.2</ele>
        <time>2025-09-20T11:10:44Z</time>
      </trkpt>
      <trkpt lat="46.20958" lon="4.53201">
        <ele>611.6</ele>
        <time>2025-09-20T11:10:45Z</time>
      </trkpt>
      <trkpt lat="46.20962" lon="4.53198">
        <ele>611.8</ele>
        <time>2025-09-20T11:10:46Z</time>
      </trkpt>
      <trkpt lat="46.20969" lon="4.53195">
        <ele>612.2</ele>
        <time>2025-09-20T11:10:47Z</time>
      </trkpt>
      <trkpt lat="46.20975" lon="4.53194">
        <ele>612</ele>
        <time>2025-09-20T11:10:48Z</time>
      </trkpt>
      <trkpt lat="46.2098" lon="4.53191">
        <ele>611.6</ele>
        <time>2025-09-20T11:10:49Z</time>
      </trkpt>
      <trkpt lat="46.20985" lon="4.53187">
        <ele>611</ele>
        <time>2025-09-20T11:10:50Z</time>
      </trkpt>
      <trkpt lat="46.20988" lon="4.53183">
        <ele>612.2</ele>
        <time>2025-09-20T11:10:51Z</time>
      </trkpt>
      <trkpt lat="46.20995" lon="4.53182">
        <ele>611.2</ele>
        <time>2025-09-20T11:10:52Z</time>
      </trkpt>
      <trkpt lat="46.21" lon="4.53179">
        <ele>609.8</ele>
        <time>2025-09-20T11:10:53Z</time>
      </trkpt>
      <trkpt lat="46.21006" lon="4.53177">
        <ele>609.6</ele>
        <time>2025-09-20T11:10:54Z</time>
      </trkpt>
      <trkpt lat="46.21012" lon="4.53174">
        <ele>609.6</ele>
        <time>2025-09-20T11:10:55Z</time>
      </trkpt>
      <trkpt lat="46.21018" lon="4.53173">
        <ele>609.6</ele>
        <time>2025-09-20T11:10:56Z</time>
      </trkpt>
      <trkpt lat="46.21023" lon="4.53172">
        <ele>608.4</ele>
        <time>2025-09-20T11:10:57Z</time>
      </trkpt>
      <trkpt lat="46.21031" lon="4.5317">
        <ele>608.8</ele>
        <time>2025-09-20T11:10:58Z</time>
      </trkpt>
      <trkpt lat="46.21037" lon="4.53168">
        <ele>608.8</ele>
        <time>2025-09-20T11:10:59Z</time>
      </trkpt>
      <trkpt lat="46.21043" lon="4.53165">
        <ele>609</ele>
        <time>2025-09-20T11:11:00Z</time>
      </trkpt>
      <trkpt lat="46.21049" lon="4.53165">
        <ele>607.2</ele>
        <time>2025-09-20T11:11:01Z</time>
      </trkpt>
      <trkpt lat="46.21053" lon="4.5316">
        <ele>607.8</ele>
        <time>2025-09-20T11:11:02Z</time>
      </trkpt>
      <trkpt lat="46.21058" lon="4.53158">
        <ele>606.4</ele>
        <time>2025-09-20T11:11:03Z</time>
      </trkpt>
      <trkpt lat="46.21065" lon="4.53155">
        <ele>606.4</ele>
        <time>2025-09-20T11:11:04Z</time>
      </trkpt>
      <trkpt lat="46.2107" lon="4.53152">
        <ele>606.4</ele>
        <time>2025-09-20T11:11:05Z</time>
      </trkpt>
      <trkpt lat="46.21074" lon="4.53147">
        <ele>606.8</ele>
        <time>2025-09-20T11:11:06Z</time>
      </trkpt>
      <trkpt lat="46.21078" lon="4.53145">
        <ele>606.8</ele>
        <time>2025-09-20T11:11:07Z</time>
      </trkpt>
      <trkpt lat="46.21081" lon="4.5314">
        <ele>607</ele>
        <time>2025-09-20T11:11:08Z</time>
      </trkpt>
      <trkpt lat="46.21084" lon="4.53138">
        <ele>607.4</ele>
        <time>2025-09-20T11:11:09Z</time>
      </trkpt>
      <trkpt lat="46.21087" lon="4.53133">
        <ele>607.4</ele>
        <time>2025-09-20T11:11:10Z</time>
      </trkpt>
      <trkpt lat="46.21091" lon="4.5313">
        <ele>607.8</ele>
        <time>2025-09-20T11:11:11Z</time>
      </trkpt>
      <trkpt lat="46.21093" lon="4.53125">
        <ele>607.8</ele>
        <time>2025-09-20T11:11:12Z</time>
      </trkpt>
      <trkpt lat="46.21096" lon="4.5312">
        <ele>607.2</ele>
        <time>2025-09-20T11:11:13Z</time>
      </trkpt>
      <trkpt lat="46.21097" lon="4.53114">
        <ele>607.6</ele>
        <time>2025-09-20T11:11:14Z</time>
      </trkpt>
      <trkpt lat="46.21101" lon="4.53109">
        <ele>607.2</ele>
        <time>2025-09-20T11:11:15Z</time>
      </trkpt>
      <trkpt lat="46.21104" lon="4.53103">
        <ele>607.2</ele>
        <time>2025-09-20T11:11:16Z</time>
      </trkpt>
      <trkpt lat="46.21108" lon="4.53097">
        <ele>606.6</ele>
        <time>2025-09-20T11:11:17Z</time>
      </trkpt>
      <trkpt lat="46.21111" lon="4.53091">
        <ele>605.8</ele>
        <time>2025-09-20T11:11:18Z</time>
      </trkpt>
      <trkpt lat="46.21115" lon="4.53085">
        <ele>605.6</ele>
        <time>2025-09-20T11:11:19Z</time>
      </trkpt>
      <trkpt lat="46.21118" lon="4.5308">
        <ele>605.6</ele>
        <time>2025-09-20T11:11:20Z</time>
      </trkpt>
      <trkpt lat="46.21122" lon="4.53074">
        <ele>605.6</ele>
        <time>2025-09-20T11:11:21Z</time>
      </trkpt>
      <trkpt lat="46.21125" lon="4.53068">
        <ele>605.2</ele>
        <time>2025-09-20T11:11:22Z</time>
      </trkpt>
      <trkpt lat="46.2113" lon="4.53062">
        <ele>604.8</ele>
        <time>2025-09-20T11:11:23Z</time>
      </trkpt>
      <trkpt lat="46.21134" lon="4.53056">
        <ele>605.2</ele>
        <time>2025-09-20T11:11:24Z</time>
      </trkpt>
      <trkpt lat="46.21139" lon="4.53052">
        <ele>605.2</ele>
        <time>2025-09-20T11:11:25Z</time>
      </trkpt>
      <trkpt lat="46.21142" lon="4.53051">
        <ele>604.8</ele>
        <time>2025-09-20T11:11:26Z</time>
      </trkpt>
      <trkpt lat="46.21145" lon="4.53044">
        <ele>604.8</ele>
        <time>2025-09-20T11:11:27Z</time>
      </trkpt>
      <trkpt lat="46.21148" lon="4.53039">
        <ele>604</ele>
        <time>2025-09-20T11:11:28Z</time>
      </trkpt>
      <trkpt lat="46.21155" lon="4.53034">
        <ele>603.4</ele>
        <time>2025-09-20T11:11:29Z</time>
      </trkpt>
      <trkpt lat="46.21158" lon="4.53026">
        <ele>603</ele>
        <time>2025-09-20T11:11:30Z</time>
      </trkpt>
      <trkpt lat="46.21161" lon="4.53019">
        <ele>603.2</ele>
        <time>2025-09-20T11:11:31Z</time>
      </trkpt>
      <trkpt lat="46.21164" lon="4.53012">
        <ele>602.8</ele>
        <time>2025-09-20T11:11:32Z</time>
      </trkpt>
      <trkpt lat="46.21166" lon="4.53005">
        <ele>603</ele>
        <time>2025-09-20T11:11:33Z</time>
      </trkpt>
      <trkpt lat="46.2117" lon="4.52997">
        <ele>603</ele>
        <time>2025-09-20T11:11:34Z</time>
      </trkpt>
      <trkpt lat="46.21172" lon="4.5299">
        <ele>603.2</ele>
        <time>2025-09-20T11:11:35Z</time>
      </trkpt>
      <trkpt lat="46.21175" lon="4.52983">
        <ele>603.2</ele>
        <time>2025-09-20T11:11:36Z</time>
      </trkpt>
      <trkpt lat="46.21178" lon="4.52975">
        <ele>602</ele>
        <time>2025-09-20T11:11:37Z</time>
      </trkpt>
      <trkpt lat="46.21181" lon="4.52968">
        <ele>601.2</ele>
        <time>2025-09-20T11:11:38Z</time>
      </trkpt>
      <trkpt lat="46.21183" lon="4.5296">
        <ele>601.2</ele>
        <time>2025-09-20T11:11:39Z</time>
      </trkpt>
      <trkpt lat="46.21185" lon="4.52952">
        <ele>601.2</ele>
        <time>2025-09-20T11:11:40Z</time>
      </trkpt>
      <trkpt lat="46.21187" lon="4.52944">
        <ele>601.2</ele>
        <time>2025-09-20T11:11:41Z</time>
      </trkpt>
      <trkpt lat="46.2119" lon="4.52937">
        <ele>601</ele>
        <time>2025-09-20T11:11:42Z</time>
      </trkpt>
      <trkpt lat="46.21191" lon="4.52929">
        <ele>600.6</ele>
        <time>2025-09-20T11:11:43Z</time>
      </trkpt>
      <trkpt lat="46.21193" lon="4.52921">
        <ele>600.4</ele>
        <time>2025-09-20T11:11:44Z</time>
      </trkpt>
      <trkpt lat="46.21195" lon="4.52914">
        <ele>600.2</ele>
        <time>2025-09-20T11:11:45Z</time>
      </trkpt>
      <trkpt lat="46.21196" lon="4.52906">
        <ele>599.8</ele>
        <time>2025-09-20T11:11:46Z</time>
      </trkpt>
      <trkpt lat="46.21198" lon="4.52895">
        <ele>599.6</ele>
        <time>2025-09-20T11:11:47Z</time>
      </trkpt>
      <trkpt lat="46.21201" lon="4.52888">
        <ele>599.6</ele>
        <time>2025-09-20T11:11:48Z</time>
      </trkpt>
      <trkpt lat="46.21202" lon="4.52884">
        <ele>599.6</ele>
        <time>2025-09-20T11:11:49Z</time>
      </trkpt>
      <trkpt lat="46.21205" lon="4.52876">
        <ele>599.2</ele>
        <time>2025-09-20T11:11:50Z</time>
      </trkpt>
      <trkpt lat="46.21205" lon="4.5287">
        <ele>599.2</ele>
        <time>2025-09-20T11:11:51Z</time>
      </trkpt>
      <trkpt lat="46.21208" lon="4.52863">
        <ele>599.2</ele>
        <time>2025-09-20T11:11:52Z</time>
      </trkpt>
      <trkpt lat="46.21209" lon="4.52858">
        <ele>598.6</ele>
        <time>2025-09-20T11:11:53Z</time>
      </trkpt>
      <trkpt lat="46.21208" lon="4.52856">
        <ele>598.6</ele>
        <time>2025-09-20T11:11:54Z</time>
      </trkpt>
      <trkpt lat="46.21209" lon="4.52854">
        <ele>598.6</ele>
        <time>2025-09-20T11:11:55Z</time>
      </trkpt>
      <trkpt lat="46.21208" lon="4.52853">
        <ele>598.6</ele>
        <time>2025-09-20T11:11:56Z</time>
      </trkpt>
      <trkpt lat="46.21209" lon="4.52854">
        <ele>598.6</ele>
        <time>2025-09-20T11:11:57Z</time>
      </trkpt>
      <trkpt lat="46.21209" lon="4.52854">
        <ele>598.6</ele>
        <time>2025-09-20T11:11:58Z</time>
      </trkpt>
      <trkpt lat="46.21208" lon="4.52852">
        <ele>598.4</ele>
        <time>2025-09-20T11:12:17Z</time>
      </trkpt>
      <trkpt lat="46.21209" lon="4.52849">
        <ele>598</ele>
        <time>2025-09-20T11:12:18Z</time>
      </trkpt>
      <trkpt lat="46.21209" lon="4.52846">
        <ele>598.4</ele>
        <time>2025-09-20T11:12:19Z</time>
      </trkpt>
      <trkpt lat="46.2121" lon="4.52844">
        <ele>598.4</ele>
        <time>2025-09-20T11:12:20Z</time>
      </trkpt>
      <trkpt lat="46.21211" lon="4.52839">
        <ele>597.8</ele>
        <time>2025-09-20T11:12:21Z</time>
      </trkpt>
      <trkpt lat="46.21215" lon="4.52832">
        <ele>597.4</ele>
        <time>2025-09-20T11:12:22Z</time>
      </trkpt>
      <trkpt lat="46.21216" lon="4.52827">
        <ele>597.4</ele>
        <time>2025-09-20T11:12:23Z</time>
      </trkpt>
      <trkpt lat="46.21218" lon="4.52821">
        <ele>596.8</ele>
        <time>2025-09-20T11:12:24Z</time>
      </trkpt>
      <trkpt lat="46.2122" lon="4.52814">
        <ele>597.2</ele>
        <time>2025-09-20T11:12:25Z</time>
      </trkpt>
      <trkpt lat="46.21222" lon="4.52809">
        <ele>598</ele>
        <time>2025-09-20T11:12:26Z</time>
      </trkpt>
      <trkpt lat="46.21225" lon="4.52803">
        <ele>598</ele>
        <time>2025-09-20T11:12:27Z</time>
      </trkpt>
      <trkpt lat="46.21228" lon="4.52797">
        <ele>596.8</ele>
        <time>2025-09-20T11:12:28Z</time>
      </trkpt>
      <trkpt lat="46.2123" lon="4.52795">
        <ele>597</ele>
        <time>2025-09-20T11:12:29Z</time>
      </trkpt>
      <trkpt lat="46.21232" lon="4.52789">
        <ele>596.2</ele>
        <time>2025-09-20T11:12:30Z</time>
      </trkpt>
      <trkpt lat="46.21236" lon="4.52785">
        <ele>596.4</ele>
        <time>2025-09-20T11:12:31Z</time>
      </trkpt>
      <trkpt lat="46.2124" lon="4.52783">
        <ele>595.6</ele>
        <time>2025-09-20T11:12:32Z</time>
      </trkpt>
      <trkpt lat="46.21245" lon="4.52777">
        <ele>595.2</ele>
        <time>2025-09-20T11:12:33Z</time>
      </trkpt>
      <trkpt lat="46.21249" lon="4.52771">
        <ele>595.2</ele>
        <time>2025-09-20T11:12:34Z</time>
      </trkpt>
      <trkpt lat="46.21253" lon="4.52767">
        <ele>596</ele>
        <time>2025-09-20T11:12:35Z</time>
      </trkpt>
      <trkpt lat="46.21257" lon="4.52763">
        <ele>593.8</ele>
        <time>2025-09-20T11:12:36Z</time>
      </trkpt>
      <trkpt lat="46.21259" lon="4.52756">
        <ele>594.2</ele>
        <time>2025-09-20T11:12:37Z</time>
      </trkpt>
      <trkpt lat="46.21262" lon="4.5275">
        <ele>595</ele>
        <time>2025-09-20T11:12:38Z</time>
      </trkpt>
      <trkpt lat="46.21264" lon="4.52744">
        <ele>594.4</ele>
        <time>2025-09-20T11:12:39Z</time>
      </trkpt>
      <trkpt lat="46.21266" lon="4.52736">
        <ele>594.4</ele>
        <time>2025-09-20T11:12:40Z</time>
      </trkpt>
      <trkpt lat="46.21268" lon="4.52729">
        <ele>593.8</ele>
        <time>2025-09-20T11:12:41Z</time>
      </trkpt>
      <trkpt lat="46.21269" lon="4.52721">
        <ele>593.2</ele>
        <time>2025-09-20T11:12:42Z</time>
      </trkpt>
      <trkpt lat="46.21271" lon="4.52714">
        <ele>593.4</ele>
        <time>2025-09-20T11:12:43Z</time>
      </trkpt>
      <trkpt lat="46.21273" lon="4.52707">
        <ele>593.8</ele>
        <time>2025-09-20T11:12:44Z</time>
      </trkpt>
      <trkpt lat="46.21275" lon="4.527">
        <ele>593.2</ele>
        <time>2025-09-20T11:12:45Z</time>
      </trkpt>
      <trkpt lat="46.21279" lon="4.52693">
        <ele>592.8</ele>
        <time>2025-09-20T11:12:46Z</time>
      </trkpt>
      <trkpt lat="46.21282" lon="4.52684">
        <ele>592.8</ele>
        <time>2025-09-20T11:12:47Z</time>
      </trkpt>
      <trkpt lat="46.21285" lon="4.52678">
        <ele>593.4</ele>
        <time>2025-09-20T11:12:48Z</time>
      </trkpt>
      <trkpt lat="46.21288" lon="4.52671">
        <ele>594.4</ele>
        <time>2025-09-20T11:12:49Z</time>
      </trkpt>
      <trkpt lat="46.21292" lon="4.52666">
        <ele>594</ele>
        <time>2025-09-20T11:12:50Z</time>
      </trkpt>
      <trkpt lat="46.21294" lon="4.5266">
        <ele>593.6</ele>
        <time>2025-09-20T11:12:51Z</time>
      </trkpt>
      <trkpt lat="46.21296" lon="4.52652">
        <ele>594</ele>
        <time>2025-09-20T11:12:52Z</time>
      </trkpt>
      <trkpt lat="46.21299" lon="4.52645">
        <ele>593.6</ele>
        <time>2025-09-20T11:12:53Z</time>
      </trkpt>
      <trkpt lat="46.21303" lon="4.52638">
        <ele>593.2</ele>
        <time>2025-09-20T11:12:54Z</time>
      </trkpt>
      <trkpt lat="46.21305" lon="4.52632">
        <ele>592.8</ele>
        <time>2025-09-20T11:12:55Z</time>
      </trkpt>
      <trkpt lat="46.21309" lon="4.52625">
        <ele>592.4</ele>
        <time>2025-09-20T11:12:56Z</time>
      </trkpt>
      <trkpt lat="46.2131" lon="4.52619">
        <ele>591.2</ele>
        <time>2025-09-20T11:12:57Z</time>
      </trkpt>
      <trkpt lat="46.21315" lon="4.52613">
        <ele>591.4</ele>
        <time>2025-09-20T11:12:58Z</time>
      </trkpt>
      <trkpt lat="46.21319" lon="4.52606">
        <ele>591</ele>
        <time>2025-09-20T11:12:59Z</time>
      </trkpt>
      <trkpt lat="46.21321" lon="4.52599">
        <ele>590.8</ele>
        <time>2025-09-20T11:13:00Z</time>
      </trkpt>
      <trkpt lat="46.21326" lon="4.52592">
        <ele>590.8</ele>
        <time>2025-09-20T11:13:01Z</time>
      </trkpt>
      <trkpt lat="46.21328" lon="4.52585">
        <ele>590.8</ele>
        <time>2025-09-20T11:13:02Z</time>
      </trkpt>
      <trkpt lat="46.21331" lon="4.52578">
        <ele>590.8</ele>
        <time>2025-09-20T11:13:03Z</time>
      </trkpt>
      <trkpt lat="46.21334" lon="4.52571">
        <ele>590.8</ele>
        <time>2025-09-20T11:13:04Z</time>
      </trkpt>
      <trkpt lat="46.21336" lon="4.52564">
        <ele>590.8</ele>
        <time>2025-09-20T11:13:05Z</time>
      </trkpt>
      <trkpt lat="46.21338" lon="4.52558">
        <ele>590.2</ele>
        <time>2025-09-20T11:13:06Z</time>
      </trkpt>
      <trkpt lat="46.2134" lon="4.5255">
        <ele>590.2</ele>
        <time>2025-09-20T11:13:07Z</time>
      </trkpt>
      <trkpt lat="46.21342" lon="4.52542">
        <ele>589.8</ele>
        <time>2025-09-20T11:13:08Z</time>
      </trkpt>
      <trkpt lat="46.21344" lon="4.52534">
        <ele>589.6</ele>
        <time>2025-09-20T11:13:09Z</time>
      </trkpt>
      <trkpt lat="46.21346" lon="4.52518">
        <ele>589.6</ele>
        <time>2025-09-20T11:13:10Z</time>
      </trkpt>
      <trkpt lat="46.21347" lon="4.52509">
        <ele>589.2</ele>
        <time>2025-09-20T11:13:11Z</time>
      </trkpt>
      <trkpt lat="46.21349" lon="4.52501">
        <ele>588.6</ele>
        <time>2025-09-20T11:13:12Z</time>
      </trkpt>
      <trkpt lat="46.21351" lon="4.52492">
        <ele>588.2</ele>
        <time>2025-09-20T11:13:13Z</time>
      </trkpt>
      <trkpt lat="46.21352" lon="4.52484">
        <ele>588.2</ele>
        <time>2025-09-20T11:13:14Z</time>
      </trkpt>
      <trkpt lat="46.21354" lon="4.52474">
        <ele>588.6</ele>
        <time>2025-09-20T11:13:15Z</time>
      </trkpt>
      <trkpt lat="46.21355" lon="4.52465">
        <ele>588.2</ele>
        <time>2025-09-20T11:13:16Z</time>
      </trkpt>
      <trkpt lat="46.21357" lon="4.52457">
        <ele>587.8</ele>
        <time>2025-09-20T11:13:17Z</time>
      </trkpt>
      <trkpt lat="46.21358" lon="4.52447">
        <ele>587.6</ele>
        <time>2025-09-20T11:13:18Z</time>
      </trkpt>
      <trkpt lat="46.21359" lon="4.52438">
        <ele>587.2</ele>
        <time>2025-09-20T11:13:19Z</time>
      </trkpt>
      <trkpt lat="46.21361" lon="4.52427">
        <ele>587.2</ele>
        <time>2025-09-20T11:13:20Z</time>
      </trkpt>
      <trkpt lat="46.21364" lon="4.52417">
        <ele>586.8</ele>
        <time>2025-09-20T11:13:21Z</time>
      </trkpt>
      <trkpt lat="46.21366" lon="4.52407">
        <ele>586.4</ele>
        <time>2025-09-20T11:13:22Z</time>
      </trkpt>
      <trkpt lat="46.21369" lon="4.52396">
        <ele>586.4</ele>
        <time>2025-09-20T11:13:23Z</time>
      </trkpt>
      <trkpt lat="46.21372" lon="4.52387">
        <ele>586</ele>
        <time>2025-09-20T11:13:24Z</time>
      </trkpt>
      <trkpt lat="46.21375" lon="4.52377">
        <ele>586</ele>
        <time>2025-09-20T11:13:25Z</time>
      </trkpt>
      <trkpt lat="46.21377" lon="4.52368">
        <ele>585.4</ele>
        <time>2025-09-20T11:13:26Z</time>
      </trkpt>
      <trkpt lat="46.2138" lon="4.52359">
        <ele>585</ele>
        <time>2025-09-20T11:13:27Z</time>
      </trkpt>
      <trkpt lat="46.21383" lon="4.52349">
        <ele>584.6</ele>
        <time>2025-09-20T11:13:28Z</time>
      </trkpt>
      <trkpt lat="46.21385" lon="4.5234">
        <ele>584.4</ele>
        <time>2025-09-20T11:13:29Z</time>
      </trkpt>
      <trkpt lat="46.21388" lon="4.5233">
        <ele>584.4</ele>
        <time>2025-09-20T11:13:30Z</time>
      </trkpt>
      <trkpt lat="46.2139" lon="4.5232">
        <ele>583.8</ele>
        <time>2025-09-20T11:13:31Z</time>
      </trkpt>
      <trkpt lat="46.21392" lon="4.5231">
        <ele>583.4</ele>
        <time>2025-09-20T11:13:32Z</time>
      </trkpt>
      <trkpt lat="46.21395" lon="4.52299">
        <ele>583.4</ele>
        <time>2025-09-20T11:13:33Z</time>
      </trkpt>
      <trkpt lat="46.21397" lon="4.52289">
        <ele>582.8</ele>
        <time>2025-09-20T11:13:34Z</time>
      </trkpt>
      <trkpt lat="46.21399" lon="4.52278">
        <ele>582.4</ele>
        <time>2025-09-20T11:13:35Z</time>
      </trkpt>
      <trkpt lat="46.21402" lon="4.52267">
        <ele>582.2</ele>
        <time>2025-09-20T11:13:36Z</time>
      </trkpt>
      <trkpt lat="46.21404" lon="4.52256">
        <ele>581.8</ele>
        <time>2025-09-20T11:13:37Z</time>
      </trkpt>
      <trkpt lat="46.21405" lon="4.52245">
        <ele>581.4</ele>
        <time>2025-09-20T11:13:38Z</time>
      </trkpt>
      <trkpt lat="46.21407" lon="4.52233">
        <ele>581</ele>
        <time>2025-09-20T11:13:39Z</time>
      </trkpt>
      <trkpt lat="46.21409" lon="4.52222">
        <ele>580.6</ele>
        <time>2025-09-20T11:13:40Z</time>
      </trkpt>
      <trkpt lat="46.2141" lon="4.52211">
        <ele>580.4</ele>
        <time>2025-09-20T11:13:41Z</time>
      </trkpt>
      <trkpt lat="46.21412" lon="4.522">
        <ele>580</ele>
        <time>2025-09-20T11:13:42Z</time>
      </trkpt>
      <trkpt lat="46.21414" lon="4.52189">
        <ele>579.8</ele>
        <time>2025-09-20T11:13:43Z</time>
      </trkpt>
      <trkpt lat="46.21415" lon="4.52177">
        <ele>579.6</ele>
        <time>2025-09-20T11:13:44Z</time>
      </trkpt>
      <trkpt lat="46.21416" lon="4.52166">
        <ele>579.6</ele>
        <time>2025-09-20T11:13:45Z</time>
      </trkpt>
      <trkpt lat="46.21417" lon="4.52154">
        <ele>579</ele>
        <time>2025-09-20T11:13:46Z</time>
      </trkpt>
      <trkpt lat="46.21418" lon="4.52144">
        <ele>578.8</ele>
        <time>2025-09-20T11:13:47Z</time>
      </trkpt>
      <trkpt lat="46.21419" lon="4.52134">
        <ele>578.4</ele>
        <time>2025-09-20T11:13:48Z</time>
      </trkpt>
      <trkpt lat="46.2142" lon="4.52127">
        <ele>578.4</ele>
        <time>2025-09-20T11:13:49Z</time>
      </trkpt>
      <trkpt lat="46.21421" lon="4.52122">
        <ele>578.2</ele>
        <time>2025-09-20T11:13:50Z</time>
      </trkpt>
      <trkpt lat="46.21421" lon="4.5212">
        <ele>578.2</ele>
        <time>2025-09-20T11:13:51Z</time>
      </trkpt>
      <trkpt lat="46.2142" lon="4.52118">
        <ele>578.2</ele>
        <time>2025-09-20T11:13:52Z</time>
      </trkpt>
      <trkpt lat="46.2142" lon="4.52116">
        <ele>578.2</ele>
        <time>2025-09-20T11:13:53Z</time>
      </trkpt>
      <trkpt lat="46.2142" lon="4.52115">
        <ele>578.2</ele>
        <time>2025-09-20T11:13:54Z</time>
      </trkpt>
      <trkpt lat="46.21419" lon="4.52115">
        <ele>578.2</ele>
        <time>2025-09-20T11:13:55Z</time>
      </trkpt>
      <trkpt lat="46.21419" lon="4.52116">
        <ele>578.2</ele>
        <time>2025-09-20T11:13:56Z</time>
      </trkpt>
      <trkpt lat="46.21419" lon="4.52116">
        <ele>578.2</ele>
        <time>2025-09-20T11:13:57Z</time>
      </trkpt>
      <trkpt lat="46.21419" lon="4.52112">
        <ele>579</ele>
        <time>2025-09-20T11:15:21Z</time>
      </trkpt>
      <trkpt lat="46.21419" lon="4.5211">
        <ele>579</ele>
        <time>2025-09-20T11:15:22Z</time>
      </trkpt>
      <trkpt lat="46.21419" lon="4.52109">
        <ele>579.2</ele>
        <time>2025-09-20T11:15:23Z</time>
      </trkpt>
      <trkpt lat="46.21418" lon="4.52108">
        <ele>579.4</ele>
        <time>2025-09-20T11:15:24Z</time>
      </trkpt>
      <trkpt lat="46.21416" lon="4.52107">
        <ele>579.6</ele>
        <time>2025-09-20T11:15:25Z</time>
      </trkpt>
      <trkpt lat="46.21416" lon="4.52107">
        <ele>579.8</ele>
        <time>2025-09-20T11:15:26Z</time>
      </trkpt>
      <trkpt lat="46.21415" lon="4.52106">
        <ele>580</ele>
        <time>2025-09-20T11:15:27Z</time>
      </trkpt>
      <trkpt lat="46.21414" lon="4.52105">
        <ele>580</ele>
        <time>2025-09-20T11:15:28Z</time>
      </trkpt>
      <trkpt lat="46.21414" lon="4.52103">
        <ele>580.4</ele>
        <time>2025-09-20T11:15:29Z</time>
      </trkpt>
      <trkpt lat="46.21413" lon="4.52101">
        <ele>580.4</ele>
        <time>2025-09-20T11:15:30Z</time>
      </trkpt>
      <trkpt lat="46.21413" lon="4.52099">
        <ele>580.8</ele>
        <time>2025-09-20T11:15:31Z</time>
      </trkpt>
      <trkpt lat="46.21413" lon="4.52098">
        <ele>580.8</ele>
        <time>2025-09-20T11:15:32Z</time>
      </trkpt>
      <trkpt lat="46.21412" lon="4.52096">
        <ele>581</ele>
        <time>2025-09-20T11:15:33Z</time>
      </trkpt>
      <trkpt lat="46.21412" lon="4.52094">
        <ele>581</ele>
        <time>2025-09-20T11:15:34Z</time>
      </trkpt>
      <trkpt lat="46.21411" lon="4.52092">
        <ele>581.2</ele>
        <time>2025-09-20T11:15:35Z</time>
      </trkpt>
      <trkpt lat="46.21411" lon="4.52089">
        <ele>581.2</ele>
        <time>2025-09-20T11:15:36Z</time>
      </trkpt>
      <trkpt lat="46.2141" lon="4.52087">
        <ele>581.6</ele>
        <time>2025-09-20T11:15:37Z</time>
      </trkpt>
      <trkpt lat="46.2141" lon="4.52084">
        <ele>581.6</ele>
        <time>2025-09-20T11:15:38Z</time>
      </trkpt>
      <trkpt lat="46.21409" lon="4.52082">
        <ele>581.6</ele>
        <time>2025-09-20T11:15:39Z</time>
      </trkpt>
      <trkpt lat="46.21409" lon="4.52079">
        <ele>581.8</ele>
        <time>2025-09-20T11:15:40Z</time>
      </trkpt>
      <trkpt lat="46.21409" lon="4.52076">
        <ele>582.2</ele>
        <time>2025-09-20T11:15:41Z</time>
      </trkpt>
      <trkpt lat="46.21408" lon="4.52073">
        <ele>582.4</ele>
        <time>2025-09-20T11:15:42Z</time>
      </trkpt>
      <trkpt lat="46.21408" lon="4.52071">
        <ele>582.4</ele>
        <time>2025-09-20T11:15:43Z</time>
      </trkpt>
      <trkpt lat="46.21409" lon="4.52068">
        <ele>582.8</ele>
        <time>2025-09-20T11:15:44Z</time>
      </trkpt>
      <trkpt lat="46.21409" lon="4.52066">
        <ele>583.2</ele>
        <time>2025-09-20T11:15:45Z</time>
      </trkpt>
      <trkpt lat="46.21409" lon="4.52063">
        <ele>583.2</ele>
        <time>2025-09-20T11:15:46Z</time>
      </trkpt>
      <trkpt lat="46.21409" lon="4.52061">
        <ele>583.4</ele>
        <time>2025-09-20T11:15:47Z</time>
      </trkpt>
      <trkpt lat="46.21409" lon="4.52059">
        <ele>583.4</ele>
        <time>2025-09-20T11:15:48Z</time>
      </trkpt>
      <trkpt lat="46.21409" lon="4.52056">
        <ele>583.6</ele>
        <time>2025-09-20T11:15:49Z</time>
      </trkpt>
      <trkpt lat="46.21409" lon="4.52054">
        <ele>583.6</ele>
        <time>2025-09-20T11:15:50Z</time>
      </trkpt>
      <trkpt lat="46.21409" lon="4.52053">
        <ele>583.6</ele>
        <time>2025-09-20T11:15:51Z</time>
      </trkpt>
      <trkpt lat="46.21409" lon="4.52053">
        <ele>583.6</ele>
        <time>2025-09-20T11:15:52Z</time>
      </trkpt>
      <trkpt lat="46.2141" lon="4.5205">
        <ele>583.8</ele>
        <time>2025-09-20T11:17:01Z</time>
      </trkpt>
      <trkpt lat="46.2141" lon="4.52048">
        <ele>583.8</ele>
        <time>2025-09-20T11:17:02Z</time>
      </trkpt>
      <trkpt lat="46.2141" lon="4.52046">
        <ele>583.8</ele>
        <time>2025-09-20T11:17:03Z</time>
      </trkpt>
      <trkpt lat="46.2141" lon="4.52044">
        <ele>583.8</ele>
        <time>2025-09-20T11:17:04Z</time>
      </trkpt>
      <trkpt lat="46.21411" lon="4.52041">
        <ele>583.8</ele>
        <time>2025-09-20T11:17:05Z</time>
      </trkpt>
      <trkpt lat="46.21412" lon="4.52037">
        <ele>583.8</ele>
        <time>2025-09-20T11:17:06Z</time>
      </trkpt>
      <trkpt lat="46.21412" lon="4.52034">
        <ele>583.8</ele>
        <time>2025-09-20T11:17:07Z</time>
      </trkpt>
      <trkpt lat="46.21413" lon="4.52033">
        <ele>583.8</ele>
        <time>2025-09-20T11:17:08Z</time>
      </trkpt>
      <trkpt lat="46.21413" lon="4.5203">
        <ele>583.8</ele>
        <time>2025-09-20T11:17:09Z</time>
      </trkpt>
      <trkpt lat="46.21413" lon="4.52027">
        <ele>583.8</ele>
        <time>2025-09-20T11:17:10Z</time>
      </trkpt>
      <trkpt lat="46.21413" lon="4.52024">
        <ele>583.8</ele>
        <time>2025-09-20T11:17:11Z</time>
      </trkpt>
      <trkpt lat="46.21412" lon="4.5202">
        <ele>583.8</ele>
        <time>2025-09-20T11:17:12Z</time>
      </trkpt>
      <trkpt lat="46.21412" lon="4.52017">
        <ele>583.8</ele>
        <time>2025-09-20T11:17:13Z</time>
      </trkpt>
      <trkpt lat="46.21411" lon="4.52013">
        <ele>583.8</ele>
        <time>2025-09-20T11:17:14Z</time>
      </trkpt>
      <trkpt lat="46.21411" lon="4.52009">
        <ele>583.8</ele>
        <time>2025-09-20T11:17:15Z</time>
      </trkpt>
      <trkpt lat="46.21411" lon="4.52005">
        <ele>583.8</ele>
        <time>2025-09-20T11:17:16Z</time>
      </trkpt>
      <trkpt lat="46.2141" lon="4.52001">
        <ele>583.8</ele>
        <time>2025-09-20T11:17:17Z</time>
      </trkpt>
      <trkpt lat="46.2141" lon="4.51998">
        <ele>584</ele>
        <time>2025-09-20T11:17:18Z</time>
      </trkpt>
      <trkpt lat="46.21409" lon="4.51995">
        <ele>584</ele>
        <time>2025-09-20T11:17:19Z</time>
      </trkpt>
      <trkpt lat="46.21409" lon="4.51992">
        <ele>583.8</ele>
        <time>2025-09-20T11:17:20Z</time>
      </trkpt>
      <trkpt lat="46.21408" lon="4.51988">
        <ele>583.8</ele>
        <time>2025-09-20T11:17:21Z</time>
      </trkpt>
      <trkpt lat="46.21408" lon="4.51985">
        <ele>583.8</ele>
        <time>2025-09-20T11:17:22Z</time>
      </trkpt>
      <trkpt lat="46.21408" lon="4.51982">
        <ele>583.8</ele>
        <time>2025-09-20T11:17:23Z</time>
      </trkpt>
      <trkpt lat="46.21408" lon="4.51979">
        <ele>584</ele>
        <time>2025-09-20T11:17:24Z</time>
      </trkpt>
      <trkpt lat="46.21407" lon="4.51975">
        <ele>584</ele>
        <time>2025-09-20T11:17:25Z</time>
      </trkpt>
      <trkpt lat="46.21407" lon="4.51972">
        <ele>583.8</ele>
        <time>2025-09-20T11:17:26Z</time>
      </trkpt>
      <trkpt lat="46.21407" lon="4.51969">
        <ele>583.8</ele>
        <time>2025-09-20T11:17:27Z</time>
      </trkpt>
      <trkpt lat="46.21406" lon="4.51966">
        <ele>583.4</ele>
        <time>2025-09-20T11:17:28Z</time>
      </trkpt>
      <trkpt lat="46.21406" lon="4.51962">
        <ele>583.4</ele>
        <time>2025-09-20T11:17:29Z</time>
      </trkpt>
      <trkpt lat="46.21405" lon="4.51959">
        <ele>583.8</ele>
        <time>2025-09-20T11:17:30Z</time>
      </trkpt>
      <trkpt lat="46.21405" lon="4.51956">
        <ele>584</ele>
        <time>2025-09-20T11:17:31Z</time>
      </trkpt>
      <trkpt lat="46.21404" lon="4.51953">
        <ele>584</ele>
        <time>2025-09-20T11:17:32Z</time>
      </trkpt>
      <trkpt lat="46.21403" lon="4.51951">
        <ele>584.4</ele>
        <time>2025-09-20T11:17:33Z</time>
      </trkpt>
      <trkpt lat="46.21402" lon="4.51947">
        <ele>584.4</ele>
        <time>2025-09-20T11:17:34Z</time>
      </trkpt>
      <trkpt lat="46.214" lon="4.51944">
        <ele>584.4</ele>
        <time>2025-09-20T11:17:35Z</time>
      </trkpt>
      <trkpt lat="46.21399" lon="4.51941">
        <ele>584.6</ele>
        <time>2025-09-20T11:17:36Z</time>
      </trkpt>
      <trkpt lat="46.21398" lon="4.51936">
        <ele>585</ele>
        <time>2025-09-20T11:17:37Z</time>
      </trkpt>
      <trkpt lat="46.21396" lon="4.51932">
        <ele>585</ele>
        <time>2025-09-20T11:17:38Z</time>
      </trkpt>
      <trkpt lat="46.21396" lon="4.51929">
        <ele>585.2</ele>
        <time>2025-09-20T11:17:39Z</time>
      </trkpt>
      <trkpt lat="46.21395" lon="4.51927">
        <ele>585.4</ele>
        <time>2025-09-20T11:17:40Z</time>
      </trkpt>
      <trkpt lat="46.21394" lon="4.51925">
        <ele>585.8</ele>
        <time>2025-09-20T11:17:41Z</time>
      </trkpt>
      <trkpt lat="46.21394" lon="4.51923">
        <ele>585.8</ele>
        <time>2025-09-20T11:17:42Z</time>
      </trkpt>
      <trkpt lat="46.21393" lon="4.51921">
        <ele>586.2</ele>
        <time>2025-09-20T11:17:43Z</time>
      </trkpt>
      <trkpt lat="46.21392" lon="4.51918">
        <ele>586.4</ele>
        <time>2025-09-20T11:17:44Z</time>
      </trkpt>
      <trkpt lat="46.21391" lon="4.51915">
        <ele>586.4</ele>
        <time>2025-09-20T11:17:45Z</time>
      </trkpt>
      <trkpt lat="46.2139" lon="4.51913">
        <ele>587</ele>
        <time>2025-09-20T11:17:46Z</time>
      </trkpt>
      <trkpt lat="46.21389" lon="4.51911">
        <ele>587</ele>
        <time>2025-09-20T11:17:47Z</time>
      </trkpt>
      <trkpt lat="46.21387" lon="4.51909">
        <ele>587.2</ele>
        <time>2025-09-20T11:17:48Z</time>
      </trkpt>
      <trkpt lat="46.21386" lon="4.51906">
        <ele>587.6</ele>
        <time>2025-09-20T11:17:49Z</time>
      </trkpt>
      <trkpt lat="46.21385" lon="4.51904">
        <ele>587.6</ele>
        <time>2025-09-20T11:17:50Z</time>
      </trkpt>
      <trkpt lat="46.21383" lon="4.51903">
        <ele>587.6</ele>
        <time>2025-09-20T11:17:51Z</time>
      </trkpt>
      <trkpt lat="46.21382" lon="4.51901">
        <ele>587.6</ele>
        <time>2025-09-20T11:17:52Z</time>
      </trkpt>
      <trkpt lat="46.21381" lon="4.51899">
        <ele>588</ele>
        <time>2025-09-20T11:17:53Z</time>
      </trkpt>
      <trkpt lat="46.2138" lon="4.51897">
        <ele>588</ele>
        <time>2025-09-20T11:17:54Z</time>
      </trkpt>
      <trkpt lat="46.21379" lon="4.51896">
        <ele>588</ele>
        <time>2025-09-20T11:17:55Z</time>
      </trkpt>
      <trkpt lat="46.21378" lon="4.51895">
        <ele>588</ele>
        <time>2025-09-20T11:17:56Z</time>
      </trkpt>
      <trkpt lat="46.21376" lon="4.51894">
        <ele>588</ele>
        <time>2025-09-20T11:17:57Z</time>
      </trkpt>
      <trkpt lat="46.21375" lon="4.51892">
        <ele>588.4</ele>
        <time>2025-09-20T11:17:58Z</time>
      </trkpt>
      <trkpt lat="46.21373" lon="4.5189">
        <ele>588.4</ele>
        <time>2025-09-20T11:17:59Z</time>
      </trkpt>
      <trkpt lat="46.21372" lon="4.51888">
        <ele>588.4</ele>
        <time>2025-09-20T11:18:00Z</time>
      </trkpt>
      <trkpt lat="46.21371" lon="4.51886">
        <ele>588.6</ele>
        <time>2025-09-20T11:18:01Z</time>
      </trkpt>
      <trkpt lat="46.21369" lon="4.51884">
        <ele>589.2</ele>
        <time>2025-09-20T11:18:02Z</time>
      </trkpt>
      <trkpt lat="46.21368" lon="4.51883">
        <ele>589.4</ele>
        <time>2025-09-20T11:18:03Z</time>
      </trkpt>
      <trkpt lat="46.21367" lon="4.51882">
        <ele>589.8</ele>
        <time>2025-09-20T11:18:04Z</time>
      </trkpt>
      <trkpt lat="46.21366" lon="4.5188">
        <ele>590.4</ele>
        <time>2025-09-20T11:18:05Z</time>
      </trkpt>
      <trkpt lat="46.21365" lon="4.51879">
        <ele>590.8</ele>
        <time>2025-09-20T11:18:06Z</time>
      </trkpt>
      <trkpt lat="46.21364" lon="4.51877">
        <ele>591</ele>
        <time>2025-09-20T11:18:07Z</time>
      </trkpt>
      <trkpt lat="46.21362" lon="4.51876">
        <ele>591.4</ele>
        <time>2025-09-20T11:18:08Z</time>
      </trkpt>
      <trkpt lat="46.21361" lon="4.51873">
        <ele>591.4</ele>
        <time>2025-09-20T11:18:09Z</time>
      </trkpt>
      <trkpt lat="46.2136" lon="4.51871">
        <ele>591.8</ele>
        <time>2025-09-20T11:18:10Z</time>
      </trkpt>
      <trkpt lat="46.21359" lon="4.51869">
        <ele>592</ele>
        <time>2025-09-20T11:18:11Z</time>
      </trkpt>
      <trkpt lat="46.21358" lon="4.51866">
        <ele>592</ele>
        <time>2025-09-20T11:18:12Z</time>
      </trkpt>
      <trkpt lat="46.21357" lon="4.51864">
        <ele>590.8</ele>
        <time>2025-09-20T11:18:13Z</time>
      </trkpt>
      <trkpt lat="46.21356" lon="4.51863">
        <ele>591.4</ele>
        <time>2025-09-20T11:18:14Z</time>
      </trkpt>
      <trkpt lat="46.21356" lon="4.51861">
        <ele>591.8</ele>
        <time>2025-09-20T11:18:15Z</time>
      </trkpt>
      <trkpt lat="46.21355" lon="4.51859">
        <ele>592.2</ele>
        <time>2025-09-20T11:18:16Z</time>
      </trkpt>
      <trkpt lat="46.21355" lon="4.51857">
        <ele>592.6</ele>
        <time>2025-09-20T11:18:17Z</time>
      </trkpt>
      <trkpt lat="46.21354" lon="4.51856">
        <ele>592.8</ele>
        <time>2025-09-20T11:18:18Z</time>
      </trkpt>
      <trkpt lat="46.21353" lon="4.51855">
        <ele>592.8</ele>
        <time>2025-09-20T11:18:19Z</time>
      </trkpt>
      <trkpt lat="46.21352" lon="4.51853">
        <ele>593.4</ele>
        <time>2025-09-20T11:18:20Z</time>
      </trkpt>
      <trkpt lat="46.21352" lon="4.51852">
        <ele>593.6</ele>
        <time>2025-09-20T11:18:21Z</time>
      </trkpt>
      <trkpt lat="46.21352" lon="4.5185">
        <ele>593.6</ele>
        <time>2025-09-20T11:18:22Z</time>
      </trkpt>
      <trkpt lat="46.21352" lon="4.51849">
        <ele>594.2</ele>
        <time>2025-09-20T11:18:23Z</time>
      </trkpt>
      <trkpt lat="46.21353" lon="4.51846">
        <ele>594.6</ele>
        <time>2025-09-20T11:18:24Z</time>
      </trkpt>
      <trkpt lat="46.21354" lon="4.51844">
        <ele>594.6</ele>
        <time>2025-09-20T11:18:25Z</time>
      </trkpt>
      <trkpt lat="46.21354" lon="4.51842">
        <ele>595</ele>
        <time>2025-09-20T11:18:26Z</time>
      </trkpt>
      <trkpt lat="46.21354" lon="4.5184">
        <ele>595.2</ele>
        <time>2025-09-20T11:18:27Z</time>
      </trkpt>
      <trkpt lat="46.21353" lon="4.51837">
        <ele>595.4</ele>
        <time>2025-09-20T11:18:28Z</time>
      </trkpt>
      <trkpt lat="46.21352" lon="4.51835">
        <ele>595.4</ele>
        <time>2025-09-20T11:18:29Z</time>
      </trkpt>
      <trkpt lat="46.21352" lon="4.51832">
        <ele>595.6</ele>
        <time>2025-09-20T11:18:30Z</time>
      </trkpt>
      <trkpt lat="46.21352" lon="4.5183">
        <ele>595.6</ele>
        <time>2025-09-20T11:18:31Z</time>
      </trkpt>
      <trkpt lat="46.21351" lon="4.51828">
        <ele>595.6</ele>
        <time>2025-09-20T11:18:32Z</time>
      </trkpt>
      <trkpt lat="46.21351" lon="4.51825">
        <ele>595.6</ele>
        <time>2025-09-20T11:18:33Z</time>
      </trkpt>
      <trkpt lat="46.2135" lon="4.51822">
        <ele>596</ele>
        <time>2025-09-20T11:18:34Z</time>
      </trkpt>
      <trkpt lat="46.2135" lon="4.51821">
        <ele>596</ele>
        <time>2025-09-20T11:18:35Z</time>
      </trkpt>
      <trkpt lat="46.21349" lon="4.51818">
        <ele>596</ele>
        <time>2025-09-20T11:18:36Z</time>
      </trkpt>
      <trkpt lat="46.21349" lon="4.51816">
        <ele>596</ele>
        <time>2025-09-20T11:18:37Z</time>
      </trkpt>
      <trkpt lat="46.21348" lon="4.51814">
        <ele>596.2</ele>
        <time>2025-09-20T11:18:38Z</time>
      </trkpt>
      <trkpt lat="46.21348" lon="4.51812">
        <ele>596.2</ele>
        <time>2025-09-20T11:18:39Z</time>
      </trkpt>
      <trkpt lat="46.21347" lon="4.51809">
        <ele>596.2</ele>
        <time>2025-09-20T11:18:40Z</time>
      </trkpt>
      <trkpt lat="46.21346" lon="4.51806">
        <ele>596.2</ele>
        <time>2025-09-20T11:18:41Z</time>
      </trkpt>
      <trkpt lat="46.21346" lon="4.51803">
        <ele>596.2</ele>
        <time>2025-09-20T11:18:42Z</time>
      </trkpt>
      <trkpt lat="46.21345" lon="4.51801">
        <ele>596.2</ele>
        <time>2025-09-20T11:18:43Z</time>
      </trkpt>
      <trkpt lat="46.21345" lon="4.51799">
        <ele>596.2</ele>
        <time>2025-09-20T11:18:44Z</time>
      </trkpt>
      <trkpt lat="46.21344" lon="4.51797">
        <ele>596.6</ele>
        <time>2025-09-20T11:18:45Z</time>
      </trkpt>
      <trkpt lat="46.21343" lon="4.51794">
        <ele>596.6</ele>
        <time>2025-09-20T11:18:46Z</time>
      </trkpt>
      <trkpt lat="46.21343" lon="4.51791">
        <ele>596.6</ele>
        <time>2025-09-20T11:18:47Z</time>
      </trkpt>
      <trkpt lat="46.21343" lon="4.51789">
        <ele>596.6</ele>
        <time>2025-09-20T11:18:48Z</time>
      </trkpt>
      <trkpt lat="46.21342" lon="4.51787">
        <ele>596.4</ele>
        <time>2025-09-20T11:18:49Z</time>
      </trkpt>
      <trkpt lat="46.21342" lon="4.51786">
        <ele>596.8</ele>
        <time>2025-09-20T11:18:50Z</time>
      </trkpt>
      <trkpt lat="46.21342" lon="4.51784">
        <ele>596.8</ele>
        <time>2025-09-20T11:18:51Z</time>
      </trkpt>
      <trkpt lat="46.21341" lon="4.51783">
        <ele>597</ele>
        <time>2025-09-20T11:18:52Z</time>
      </trkpt>
      <trkpt lat="46.2134" lon="4.51781">
        <ele>597.4</ele>
        <time>2025-09-20T11:18:53Z</time>
      </trkpt>
      <trkpt lat="46.21339" lon="4.51778">
        <ele>597.4</ele>
        <time>2025-09-20T11:18:54Z</time>
      </trkpt>
      <trkpt lat="46.21339" lon="4.51776">
        <ele>597.6</ele>
        <time>2025-09-20T11:18:55Z</time>
      </trkpt>
      <trkpt lat="46.21338" lon="4.51774">
        <ele>597.6</ele>
        <time>2025-09-20T11:18:56Z</time>
      </trkpt>
      <trkpt lat="46.21338" lon="4.51771">
        <ele>597.8</ele>
        <time>2025-09-20T11:18:57Z</time>
      </trkpt>
      <trkpt lat="46.21338" lon="4.51768">
        <ele>597.8</ele>
        <time>2025-09-20T11:18:58Z</time>
      </trkpt>
      <trkpt lat="46.21337" lon="4.51765">
        <ele>597.8</ele>
        <time>2025-09-20T11:18:59Z</time>
      </trkpt>
      <trkpt lat="46.21337" lon="4.51762">
        <ele>597.8</ele>
        <time>2025-09-20T11:19:00Z</time>
      </trkpt>
      <trkpt lat="46.21337" lon="4.51759">
        <ele>597.8</ele>
        <time>2025-09-20T11:19:01Z</time>
      </trkpt>
      <trkpt lat="46.21337" lon="4.51756">
        <ele>597.8</ele>
        <time>2025-09-20T11:19:02Z</time>
      </trkpt>
      <trkpt lat="46.21337" lon="4.51753">
        <ele>598.4</ele>
        <time>2025-09-20T11:19:03Z</time>
      </trkpt>
      <trkpt lat="46.21336" lon="4.5175">
        <ele>598.4</ele>
        <time>2025-09-20T11:19:04Z</time>
      </trkpt>
      <trkpt lat="46.21335" lon="4.51748">
        <ele>598.4</ele>
        <time>2025-09-20T11:19:05Z</time>
      </trkpt>
      <trkpt lat="46.21334" lon="4.51746">
        <ele>598.6</ele>
        <time>2025-09-20T11:19:06Z</time>
      </trkpt>
      <trkpt lat="46.21334" lon="4.51743">
        <ele>598.6</ele>
        <time>2025-09-20T11:19:07Z</time>
      </trkpt>
      <trkpt lat="46.21333" lon="4.5174">
        <ele>598.6</ele>
        <time>2025-09-20T11:19:08Z</time>
      </trkpt>
      <trkpt lat="46.21333" lon="4.51737">
        <ele>598.6</ele>
        <time>2025-09-20T11:19:09Z</time>
      </trkpt>
      <trkpt lat="46.21333" lon="4.51737">
        <ele>598.6</ele>
        <time>2025-09-20T11:19:10Z</time>
      </trkpt>
      <trkpt lat="46.21332" lon="4.51734">
        <ele>598.6</ele>
        <time>2025-09-20T11:19:11Z</time>
      </trkpt>
      <trkpt lat="46.21331" lon="4.51731">
        <ele>598.6</ele>
        <time>2025-09-20T11:19:12Z</time>
      </trkpt>
      <trkpt lat="46.2133" lon="4.51728">
        <ele>598.6</ele>
        <time>2025-09-20T11:19:13Z</time>
      </trkpt>
      <trkpt lat="46.21329" lon="4.51725">
        <ele>598.8</ele>
        <time>2025-09-20T11:19:14Z</time>
      </trkpt>
      <trkpt lat="46.21328" lon="4.51723">
        <ele>598.8</ele>
        <time>2025-09-20T11:19:15Z</time>
      </trkpt>
      <trkpt lat="46.21328" lon="4.51721">
        <ele>598.2</ele>
        <time>2025-09-20T11:19:16Z</time>
      </trkpt>
      <trkpt lat="46.21327" lon="4.51718">
        <ele>598.4</ele>
        <time>2025-09-20T11:19:17Z</time>
      </trkpt>
      <trkpt lat="46.21326" lon="4.51714">
        <ele>598.4</ele>
        <time>2025-09-20T11:19:18Z</time>
      </trkpt>
      <trkpt lat="46.21325" lon="4.51711">
        <ele>598.4</ele>
        <time>2025-09-20T11:19:19Z</time>
      </trkpt>
      <trkpt lat="46.21324" lon="4.51708">
        <ele>598.2</ele>
        <time>2025-09-20T11:19:20Z</time>
      </trkpt>
      <trkpt lat="46.21323" lon="4.51705">
        <ele>598.2</ele>
        <time>2025-09-20T11:19:21Z</time>
      </trkpt>
      <trkpt lat="46.21323" lon="4.51702">
        <ele>598.2</ele>
        <time>2025-09-20T11:19:22Z</time>
      </trkpt>
      <trkpt lat="46.21322" lon="4.51699">
        <ele>598.2</ele>
        <time>2025-09-20T11:19:23Z</time>
      </trkpt>
      <trkpt lat="46.21322" lon="4.51695">
        <ele>598.2</ele>
        <time>2025-09-20T11:19:24Z</time>
      </trkpt>
      <trkpt lat="46.21321" lon="4.51693">
        <ele>598.2</ele>
        <time>2025-09-20T11:19:25Z</time>
      </trkpt>
      <trkpt lat="46.21321" lon="4.5169">
        <ele>598.2</ele>
        <time>2025-09-20T11:19:26Z</time>
      </trkpt>
      <trkpt lat="46.21321" lon="4.51687">
        <ele>598.6</ele>
        <time>2025-09-20T11:19:27Z</time>
      </trkpt>
      <trkpt lat="46.21321" lon="4.51685">
        <ele>598.6</ele>
        <time>2025-09-20T11:19:28Z</time>
      </trkpt>
      <trkpt lat="46.21321" lon="4.51682">
        <ele>598.6</ele>
        <time>2025-09-20T11:19:29Z</time>
      </trkpt>
      <trkpt lat="46.21321" lon="4.51679">
        <ele>598.6</ele>
        <time>2025-09-20T11:19:30Z</time>
      </trkpt>
      <trkpt lat="46.2132" lon="4.51677">
        <ele>598.6</ele>
        <time>2025-09-20T11:19:31Z</time>
      </trkpt>
      <trkpt lat="46.2132" lon="4.51674">
        <ele>598.4</ele>
        <time>2025-09-20T11:19:32Z</time>
      </trkpt>
      <trkpt lat="46.2132" lon="4.51671">
        <ele>598.4</ele>
        <time>2025-09-20T11:19:33Z</time>
      </trkpt>
      <trkpt lat="46.2132" lon="4.51668">
        <ele>598.4</ele>
        <time>2025-09-20T11:19:34Z</time>
      </trkpt>
      <trkpt lat="46.2132" lon="4.51665">
        <ele>598.6</ele>
        <time>2025-09-20T11:19:35Z</time>
      </trkpt>
      <trkpt lat="46.2132" lon="4.51662">
        <ele>598.6</ele>
        <time>2025-09-20T11:19:36Z</time>
      </trkpt>
      <trkpt lat="46.2132" lon="4.51659">
        <ele>598.6</ele>
        <time>2025-09-20T11:19:37Z</time>
      </trkpt>
      <trkpt lat="46.21319" lon="4.51656">
        <ele>598.6</ele>
        <time>2025-09-20T11:19:38Z</time>
      </trkpt>
      <trkpt lat="46.21319" lon="4.51653">
        <ele>598.6</ele>
        <time>2025-09-20T11:19:39Z</time>
      </trkpt>
      <trkpt lat="46.21319" lon="4.5165">
        <ele>598.6</ele>
        <time>2025-09-20T11:19:40Z</time>
      </trkpt>
      <trkpt lat="46.21319" lon="4.51647">
        <ele>598.6</ele>
        <time>2025-09-20T11:19:41Z</time>
      </trkpt>
      <trkpt lat="46.21319" lon="4.51642">
        <ele>598.6</ele>
        <time>2025-09-20T11:19:42Z</time>
      </trkpt>
      <trkpt lat="46.21319" lon="4.51638">
        <ele>598.8</ele>
        <time>2025-09-20T11:19:43Z</time>
      </trkpt>
      <trkpt lat="46.21319" lon="4.51635">
        <ele>598.8</ele>
        <time>2025-09-20T11:19:44Z</time>
      </trkpt>
      <trkpt lat="46.21319" lon="4.51631">
        <ele>598.8</ele>
        <time>2025-09-20T11:19:45Z</time>
      </trkpt>
      <trkpt lat="46.21318" lon="4.51627">
        <ele>599</ele>
        <time>2025-09-20T11:19:46Z</time>
      </trkpt>
      <trkpt lat="46.21318" lon="4.51624">
        <ele>599</ele>
        <time>2025-09-20T11:19:47Z</time>
      </trkpt>
      <trkpt lat="46.21317" lon="4.5162">
        <ele>599</ele>
        <time>2025-09-20T11:19:48Z</time>
      </trkpt>
      <trkpt lat="46.21316" lon="4.51618">
        <ele>598.8</ele>
        <time>2025-09-20T11:19:49Z</time>
      </trkpt>
      <trkpt lat="46.21316" lon="4.51615">
        <ele>598.6</ele>
        <time>2025-09-20T11:19:50Z</time>
      </trkpt>
      <trkpt lat="46.21316" lon="4.51611">
        <ele>598.6</ele>
        <time>2025-09-20T11:19:51Z</time>
      </trkpt>
      <trkpt lat="46.21315" lon="4.51607">
        <ele>598.6</ele>
        <time>2025-09-20T11:19:52Z</time>
      </trkpt>
      <trkpt lat="46.21315" lon="4.51604">
        <ele>598.6</ele>
        <time>2025-09-20T11:19:53Z</time>
      </trkpt>
      <trkpt lat="46.21314" lon="4.516">
        <ele>598.6</ele>
        <time>2025-09-20T11:19:54Z</time>
      </trkpt>
      <trkpt lat="46.21314" lon="4.51596">
        <ele>598.6</ele>
        <time>2025-09-20T11:19:55Z</time>
      </trkpt>
      <trkpt lat="46.21314" lon="4.51593">
        <ele>599.2</ele>
        <time>2025-09-20T11:19:56Z</time>
      </trkpt>
      <trkpt lat="46.21315" lon="4.5159">
        <ele>599.2</ele>
        <time>2025-09-20T11:19:57Z</time>
      </trkpt>
      <trkpt lat="46.21316" lon="4.51587">
        <ele>599.2</ele>
        <time>2025-09-20T11:19:58Z</time>
      </trkpt>
      <trkpt lat="46.21316" lon="4.51584">
        <ele>599.2</ele>
        <time>2025-09-20T11:19:59Z</time>
      </trkpt>
      <trkpt lat="46.21317" lon="4.5158">
        <ele>599.2</ele>
        <time>2025-09-20T11:20:00Z</time>
      </trkpt>
      <trkpt lat="46.21318" lon="4.51576">
        <ele>599.2</ele>
        <time>2025-09-20T11:20:01Z</time>
      </trkpt>
      <trkpt lat="46.21318" lon="4.51571">
        <ele>599.2</ele>
        <time>2025-09-20T11:20:02Z</time>
      </trkpt>
      <trkpt lat="46.21318" lon="4.51567">
        <ele>599.2</ele>
        <time>2025-09-20T11:20:03Z</time>
      </trkpt>
      <trkpt lat="46.21318" lon="4.51562">
        <ele>599</ele>
        <time>2025-09-20T11:20:04Z</time>
      </trkpt>
      <trkpt lat="46.21317" lon="4.51559">
        <ele>599</ele>
        <time>2025-09-20T11:20:05Z</time>
      </trkpt>
      <trkpt lat="46.21317" lon="4.51555">
        <ele>599</ele>
        <time>2025-09-20T11:20:06Z</time>
      </trkpt>
      <trkpt lat="46.21317" lon="4.51551">
        <ele>599.4</ele>
        <time>2025-09-20T11:20:07Z</time>
      </trkpt>
      <trkpt lat="46.21316" lon="4.51547">
        <ele>599.4</ele>
        <time>2025-09-20T11:20:08Z</time>
      </trkpt>
      <trkpt lat="46.21315" lon="4.51544">
        <ele>599.4</ele>
        <time>2025-09-20T11:20:09Z</time>
      </trkpt>
      <trkpt lat="46.21315" lon="4.51541">
        <ele>599.4</ele>
        <time>2025-09-20T11:20:10Z</time>
      </trkpt>
      <trkpt lat="46.21314" lon="4.51537">
        <ele>599.6</ele>
        <time>2025-09-20T11:20:11Z</time>
      </trkpt>
      <trkpt lat="46.21314" lon="4.51533">
        <ele>599.6</ele>
        <time>2025-09-20T11:20:12Z</time>
      </trkpt>
      <trkpt lat="46.21314" lon="4.5153">
        <ele>600.2</ele>
        <time>2025-09-20T11:20:13Z</time>
      </trkpt>
      <trkpt lat="46.21314" lon="4.51526">
        <ele>600.2</ele>
        <time>2025-09-20T11:20:14Z</time>
      </trkpt>
      <trkpt lat="46.21313" lon="4.51522">
        <ele>600.4</ele>
        <time>2025-09-20T11:20:15Z</time>
      </trkpt>
      <trkpt lat="46.21313" lon="4.51519">
        <ele>600.4</ele>
        <time>2025-09-20T11:20:16Z</time>
      </trkpt>
      <trkpt lat="46.21313" lon="4.51515">
        <ele>600.4</ele>
        <time>2025-09-20T11:20:17Z</time>
      </trkpt>
      <trkpt lat="46.21312" lon="4.51512">
        <ele>600.8</ele>
        <time>2025-09-20T11:20:18Z</time>
      </trkpt>
      <trkpt lat="46.21312" lon="4.51509">
        <ele>600.8</ele>
        <time>2025-09-20T11:20:19Z</time>
      </trkpt>
      <trkpt lat="46.21312" lon="4.51506">
        <ele>600.8</ele>
        <time>2025-09-20T11:20:20Z</time>
      </trkpt>
      <trkpt lat="46.21312" lon="4.51502">
        <ele>600.8</ele>
        <time>2025-09-20T11:20:21Z</time>
      </trkpt>
      <trkpt lat="46.21313" lon="4.51499">
        <ele>600.8</ele>
        <time>2025-09-20T11:20:22Z</time>
      </trkpt>
      <trkpt lat="46.21314" lon="4.51496">
        <ele>601.2</ele>
        <time>2025-09-20T11:20:23Z</time>
      </trkpt>
      <trkpt lat="46.21315" lon="4.51492">
        <ele>600.6</ele>
        <time>2025-09-20T11:20:24Z</time>
      </trkpt>
      <trkpt lat="46.21316" lon="4.51489">
        <ele>600.6</ele>
        <time>2025-09-20T11:20:25Z</time>
      </trkpt>
      <trkpt lat="46.21318" lon="4.51486">
        <ele>600</ele>
        <time>2025-09-20T11:20:26Z</time>
      </trkpt>
      <trkpt lat="46.2132" lon="4.51483">
        <ele>600</ele>
        <time>2025-09-20T11:20:27Z</time>
      </trkpt>
      <trkpt lat="46.2132" lon="4.51481">
        <ele>600</ele>
        <time>2025-09-20T11:20:28Z</time>
      </trkpt>
      <trkpt lat="46.21321" lon="4.51479">
        <ele>600</ele>
        <time>2025-09-20T11:20:29Z</time>
      </trkpt>
      <trkpt lat="46.21321" lon="4.51479">
        <ele>600</ele>
        <time>2025-09-20T11:20:30Z</time>
      </trkpt>
      <trkpt lat="46.21322" lon="4.51479">
        <ele>599.8</ele>
        <time>2025-09-20T11:20:31Z</time>
      </trkpt>
      <trkpt lat="46.21321" lon="4.51476">
        <ele>599.4</ele>
        <time>2025-09-20T11:20:49Z</time>
      </trkpt>
      <trkpt lat="46.21322" lon="4.51474">
        <ele>598.2</ele>
        <time>2025-09-20T11:20:50Z</time>
      </trkpt>
      <trkpt lat="46.21322" lon="4.51473">
        <ele>598.6</ele>
        <time>2025-09-20T11:20:51Z</time>
      </trkpt>
      <trkpt lat="46.21322" lon="4.5147">
        <ele>598.4</ele>
        <time>2025-09-20T11:20:52Z</time>
      </trkpt>
      <trkpt lat="46.21323" lon="4.51466">
        <ele>598</ele>
        <time>2025-09-20T11:20:53Z</time>
      </trkpt>
      <trkpt lat="46.21323" lon="4.51462">
        <ele>598</ele>
        <time>2025-09-20T11:20:54Z</time>
      </trkpt>
      <trkpt lat="46.21325" lon="4.51457">
        <ele>598.2</ele>
        <time>2025-09-20T11:20:55Z</time>
      </trkpt>
      <trkpt lat="46.21326" lon="4.51453">
        <ele>598.2</ele>
        <time>2025-09-20T11:20:56Z</time>
      </trkpt>
      <trkpt lat="46.21327" lon="4.5145">
        <ele>597.6</ele>
        <time>2025-09-20T11:20:57Z</time>
      </trkpt>
      <trkpt lat="46.21329" lon="4.51448">
        <ele>597.4</ele>
        <time>2025-09-20T11:20:58Z</time>
      </trkpt>
      <trkpt lat="46.2133" lon="4.51445">
        <ele>597.4</ele>
        <time>2025-09-20T11:20:59Z</time>
      </trkpt>
      <trkpt lat="46.21331" lon="4.51442">
        <ele>597</ele>
        <time>2025-09-20T11:21:00Z</time>
      </trkpt>
      <trkpt lat="46.21332" lon="4.51439">
        <ele>596.8</ele>
        <time>2025-09-20T11:21:01Z</time>
      </trkpt>
      <trkpt lat="46.21333" lon="4.51436">
        <ele>596.4</ele>
        <time>2025-09-20T11:21:02Z</time>
      </trkpt>
      <trkpt lat="46.21335" lon="4.51433">
        <ele>596</ele>
        <time>2025-09-20T11:21:03Z</time>
      </trkpt>
      <trkpt lat="46.21336" lon="4.51431">
        <ele>595.4</ele>
        <time>2025-09-20T11:21:04Z</time>
      </trkpt>
      <trkpt lat="46.21339" lon="4.51429">
        <ele>595.4</ele>
        <time>2025-09-20T11:21:05Z</time>
      </trkpt>
      <trkpt lat="46.21342" lon="4.51427">
        <ele>596</ele>
        <time>2025-09-20T11:21:06Z</time>
      </trkpt>
      <trkpt lat="46.21345" lon="4.51426">
        <ele>595.4</ele>
        <time>2025-09-20T11:21:07Z</time>
      </trkpt>
      <trkpt lat="46.21349" lon="4.51425">
        <ele>594.4</ele>
        <time>2025-09-20T11:21:08Z</time>
      </trkpt>
      <trkpt lat="46.21353" lon="4.51426">
        <ele>594.4</ele>
        <time>2025-09-20T11:21:09Z</time>
      </trkpt>
      <trkpt lat="46.21357" lon="4.51426">
        <ele>594</ele>
        <time>2025-09-20T11:21:10Z</time>
      </trkpt>
      <trkpt lat="46.21362" lon="4.51427">
        <ele>593.2</ele>
        <time>2025-09-20T11:21:11Z</time>
      </trkpt>
      <trkpt lat="46.21367" lon="4.51428">
        <ele>593.2</ele>
        <time>2025-09-20T11:21:12Z</time>
      </trkpt>
      <trkpt lat="46.21372" lon="4.51427">
        <ele>592.6</ele>
        <time>2025-09-20T11:21:13Z</time>
      </trkpt>
      <trkpt lat="46.21377" lon="4.51426">
        <ele>592</ele>
        <time>2025-09-20T11:21:14Z</time>
      </trkpt>
      <trkpt lat="46.21383" lon="4.51425">
        <ele>591.4</ele>
        <time>2025-09-20T11:21:15Z</time>
      </trkpt>
      <trkpt lat="46.21388" lon="4.51424">
        <ele>591</ele>
        <time>2025-09-20T11:21:16Z</time>
      </trkpt>
      <trkpt lat="46.21393" lon="4.51423">
        <ele>590.6</ele>
        <time>2025-09-20T11:21:17Z</time>
      </trkpt>
      <trkpt lat="46.21398" lon="4.51423">
        <ele>590.6</ele>
        <time>2025-09-20T11:21:18Z</time>
      </trkpt>
      <trkpt lat="46.21404" lon="4.51421">
        <ele>591</ele>
        <time>2025-09-20T11:21:19Z</time>
      </trkpt>
      <trkpt lat="46.2141" lon="4.5142">
        <ele>591</ele>
        <time>2025-09-20T11:21:20Z</time>
      </trkpt>
      <trkpt lat="46.21415" lon="4.51418">
        <ele>590</ele>
        <time>2025-09-20T11:21:21Z</time>
      </trkpt>
      <trkpt lat="46.21421" lon="4.51418">
        <ele>590</ele>
        <time>2025-09-20T11:21:22Z</time>
      </trkpt>
      <trkpt lat="46.21425" lon="4.51417">
        <ele>589.6</ele>
        <time>2025-09-20T11:21:23Z</time>
      </trkpt>
      <trkpt lat="46.21427" lon="4.51414">
        <ele>589.6</ele>
        <time>2025-09-20T11:21:24Z</time>
      </trkpt>
      <trkpt lat="46.21429" lon="4.51412">
        <ele>589.2</ele>
        <time>2025-09-20T11:21:25Z</time>
      </trkpt>
      <trkpt lat="46.21429" lon="4.51408">
        <ele>589.2</ele>
        <time>2025-09-20T11:21:26Z</time>
      </trkpt>
      <trkpt lat="46.21429" lon="4.51405">
        <ele>589.8</ele>
        <time>2025-09-20T11:21:27Z</time>
      </trkpt>
      <trkpt lat="46.21427" lon="4.51402">
        <ele>589.6</ele>
        <time>2025-09-20T11:21:28Z</time>
      </trkpt>
      <trkpt lat="46.21426" lon="4.51401">
        <ele>589.6</ele>
        <time>2025-09-20T11:21:29Z</time>
      </trkpt>
      <trkpt lat="46.21424" lon="4.514">
        <ele>589.6</ele>
        <time>2025-09-20T11:21:30Z</time>
      </trkpt>
      <trkpt lat="46.21421" lon="4.51398">
        <ele>589.6</ele>
        <time>2025-09-20T11:21:31Z</time>
      </trkpt>
      <trkpt lat="46.21419" lon="4.51396">
        <ele>589.6</ele>
        <time>2025-09-20T11:21:32Z</time>
      </trkpt>
      <trkpt lat="46.21417" lon="4.51394">
        <ele>589.6</ele>
        <time>2025-09-20T11:21:33Z</time>
      </trkpt>
      <trkpt lat="46.21415" lon="4.51392">
        <ele>589.6</ele>
        <time>2025-09-20T11:21:34Z</time>
      </trkpt>
      <trkpt lat="46.21412" lon="4.5139">
        <ele>590</ele>
        <time>2025-09-20T11:21:35Z</time>
      </trkpt>
      <trkpt lat="46.2141" lon="4.51389">
        <ele>590</ele>
        <time>2025-09-20T11:21:36Z</time>
      </trkpt>
      <trkpt lat="46.21407" lon="4.51387">
        <ele>590</ele>
        <time>2025-09-20T11:21:37Z</time>
      </trkpt>
      <trkpt lat="46.21405" lon="4.51385">
        <ele>590.6</ele>
        <time>2025-09-20T11:21:38Z</time>
      </trkpt>
      <trkpt lat="46.21403" lon="4.51383">
        <ele>590.6</ele>
        <time>2025-09-20T11:21:39Z</time>
      </trkpt>
      <trkpt lat="46.21401" lon="4.5138">
        <ele>590.6</ele>
        <time>2025-09-20T11:21:40Z</time>
      </trkpt>
      <trkpt lat="46.21399" lon="4.51377">
        <ele>591</ele>
        <time>2025-09-20T11:21:41Z</time>
      </trkpt>
      <trkpt lat="46.21397" lon="4.51375">
        <ele>591</ele>
        <time>2025-09-20T11:21:42Z</time>
      </trkpt>
      <trkpt lat="46.21395" lon="4.51372">
        <ele>590.8</ele>
        <time>2025-09-20T11:21:43Z</time>
      </trkpt>
      <trkpt lat="46.21393" lon="4.51369">
        <ele>590.8</ele>
        <time>2025-09-20T11:21:44Z</time>
      </trkpt>
      <trkpt lat="46.21391" lon="4.51366">
        <ele>590.8</ele>
        <time>2025-09-20T11:21:45Z</time>
      </trkpt>
      <trkpt lat="46.21389" lon="4.51363">
        <ele>591</ele>
        <time>2025-09-20T11:21:46Z</time>
      </trkpt>
      <trkpt lat="46.21388" lon="4.51359">
        <ele>591</ele>
        <time>2025-09-20T11:21:47Z</time>
      </trkpt>
      <trkpt lat="46.21386" lon="4.51355">
        <ele>591</ele>
        <time>2025-09-20T11:21:48Z</time>
      </trkpt>
      <trkpt lat="46.21384" lon="4.51351">
        <ele>591.6</ele>
        <time>2025-09-20T11:21:49Z</time>
      </trkpt>
      <trkpt lat="46.21382" lon="4.51348">
        <ele>591.6</ele>
        <time>2025-09-20T11:21:50Z</time>
      </trkpt>
      <trkpt lat="46.21377" lon="4.51342">
        <ele>591.6</ele>
        <time>2025-09-20T11:21:51Z</time>
      </trkpt>
      <trkpt lat="46.21375" lon="4.51338">
        <ele>591.4</ele>
        <time>2025-09-20T11:21:52Z</time>
      </trkpt>
      <trkpt lat="46.21372" lon="4.51333">
        <ele>591.4</ele>
        <time>2025-09-20T11:21:53Z</time>
      </trkpt>
      <trkpt lat="46.21369" lon="4.51329">
        <ele>591.4</ele>
        <time>2025-09-20T11:21:54Z</time>
      </trkpt>
      <trkpt lat="46.21367" lon="4.51324">
        <ele>591.4</ele>
        <time>2025-09-20T11:21:55Z</time>
      </trkpt>
      <trkpt lat="46.21363" lon="4.5132">
        <ele>591.4</ele>
        <time>2025-09-20T11:21:56Z</time>
      </trkpt>
      <trkpt lat="46.2136" lon="4.51316">
        <ele>591.2</ele>
        <time>2025-09-20T11:21:57Z</time>
      </trkpt>
      <trkpt lat="46.21357" lon="4.51312">
        <ele>590.6</ele>
        <time>2025-09-20T11:21:58Z</time>
      </trkpt>
      <trkpt lat="46.21354" lon="4.51309">
        <ele>590.6</ele>
        <time>2025-09-20T11:21:59Z</time>
      </trkpt>
      <trkpt lat="46.21352" lon="4.51307">
        <ele>590</ele>
        <time>2025-09-20T11:22:00Z</time>
      </trkpt>
      <trkpt lat="46.21351" lon="4.51307">
        <ele>590</ele>
        <time>2025-09-20T11:22:01Z</time>
      </trkpt>
      <trkpt lat="46.21351" lon="4.51307">
        <ele>590</ele>
        <time>2025-09-20T11:22:02Z</time>
      </trkpt>
      <trkpt lat="46.21352" lon="4.51308">
        <ele>590.2</ele>
        <time>2025-09-20T11:22:03Z</time>
      </trkpt>
      <trkpt lat="46.2135" lon="4.51307">
        <ele>591</ele>
        <time>2025-09-20T11:22:55Z</time>
      </trkpt>
      <trkpt lat="46.21348" lon="4.51306">
        <ele>591</ele>
        <time>2025-09-20T11:22:56Z</time>
      </trkpt>
      <trkpt lat="46.21346" lon="4.51306">
        <ele>590.8</ele>
        <time>2025-09-20T11:22:57Z</time>
      </trkpt>
      <trkpt lat="46.21343" lon="4.51305">
        <ele>590.8</ele>
        <time>2025-09-20T11:22:58Z</time>
      </trkpt>
      <trkpt lat="46.2134" lon="4.51304">
        <ele>590.8</ele>
        <time>2025-09-20T11:22:59Z</time>
      </trkpt>
      <trkpt lat="46.21337" lon="4.51302">
        <ele>590.8</ele>
        <time>2025-09-20T11:23:00Z</time>
      </trkpt>
      <trkpt lat="46.21333" lon="4.51301">
        <ele>590.8</ele>
        <time>2025-09-20T11:23:01Z</time>
      </trkpt>
      <trkpt lat="46.21329" lon="4.513">
        <ele>590.8</ele>
        <time>2025-09-20T11:23:02Z</time>
      </trkpt>
      <trkpt lat="46.21325" lon="4.51298">
        <ele>590.8</ele>
        <time>2025-09-20T11:23:03Z</time>
      </trkpt>
      <trkpt lat="46.21321" lon="4.51297">
        <ele>590.8</ele>
        <time>2025-09-20T11:23:04Z</time>
      </trkpt>
      <trkpt lat="46.21317" lon="4.51297">
        <ele>591.2</ele>
        <time>2025-09-20T11:23:05Z</time>
      </trkpt>
      <trkpt lat="46.21312" lon="4.51296">
        <ele>590.8</ele>
        <time>2025-09-20T11:23:06Z</time>
      </trkpt>
      <trkpt lat="46.21308" lon="4.51294">
        <ele>590.6</ele>
        <time>2025-09-20T11:23:07Z</time>
      </trkpt>
      <trkpt lat="46.21304" lon="4.51293">
        <ele>590.6</ele>
        <time>2025-09-20T11:23:08Z</time>
      </trkpt>
      <trkpt lat="46.21301" lon="4.51292">
        <ele>590.6</ele>
        <time>2025-09-20T11:23:09Z</time>
      </trkpt>
      <trkpt lat="46.21297" lon="4.5129">
        <ele>590.4</ele>
        <time>2025-09-20T11:23:10Z</time>
      </trkpt>
      <trkpt lat="46.21292" lon="4.51287">
        <ele>590</ele>
        <time>2025-09-20T11:23:11Z</time>
      </trkpt>
      <trkpt lat="46.21287" lon="4.51284">
        <ele>588.8</ele>
        <time>2025-09-20T11:23:12Z</time>
      </trkpt>
      <trkpt lat="46.21283" lon="4.51281">
        <ele>588.8</ele>
        <time>2025-09-20T11:23:13Z</time>
      </trkpt>
      <trkpt lat="46.21279" lon="4.51278">
        <ele>588.8</ele>
        <time>2025-09-20T11:23:14Z</time>
      </trkpt>
      <trkpt lat="46.21275" lon="4.51275">
        <ele>588.8</ele>
        <time>2025-09-20T11:23:15Z</time>
      </trkpt>
      <trkpt lat="46.21271" lon="4.51272">
        <ele>588.8</ele>
        <time>2025-09-20T11:23:16Z</time>
      </trkpt>
      <trkpt lat="46.21268" lon="4.51268">
        <ele>588.2</ele>
        <time>2025-09-20T11:23:17Z</time>
      </trkpt>
      <trkpt lat="46.21264" lon="4.51265">
        <ele>588.4</ele>
        <time>2025-09-20T11:23:18Z</time>
      </trkpt>
      <trkpt lat="46.21264" lon="4.51265">
        <ele>588.8</ele>
        <time>2025-09-20T11:23:19Z</time>
      </trkpt>
      <trkpt lat="46.21259" lon="4.51261">
        <ele>588.8</ele>
        <time>2025-09-20T11:23:20Z</time>
      </trkpt>
      <trkpt lat="46.21257" lon="4.5126">
        <ele>588.8</ele>
        <time>2025-09-20T11:23:21Z</time>
      </trkpt>
      <trkpt lat="46.21254" lon="4.51257">
        <ele>589</ele>
        <time>2025-09-20T11:23:22Z</time>
      </trkpt>
      <trkpt lat="46.21249" lon="4.51255">
        <ele>589</ele>
        <time>2025-09-20T11:23:23Z</time>
      </trkpt>
      <trkpt lat="46.21244" lon="4.51252">
        <ele>589.6</ele>
        <time>2025-09-20T11:23:24Z</time>
      </trkpt>
      <trkpt lat="46.2124" lon="4.51249">
        <ele>589.6</ele>
        <time>2025-09-20T11:23:25Z</time>
      </trkpt>
      <trkpt lat="46.21236" lon="4.51247">
        <ele>589.8</ele>
        <time>2025-09-20T11:23:26Z</time>
      </trkpt>
      <trkpt lat="46.21232" lon="4.51246">
        <ele>589.8</ele>
        <time>2025-09-20T11:23:27Z</time>
      </trkpt>
      <trkpt lat="46.21228" lon="4.51243">
        <ele>589.8</ele>
        <time>2025-09-20T11:23:28Z</time>
      </trkpt>
      <trkpt lat="46.21224" lon="4.5124">
        <ele>589.8</ele>
        <time>2025-09-20T11:23:29Z</time>
      </trkpt>
      <trkpt lat="46.21219" lon="4.51236">
        <ele>590.2</ele>
        <time>2025-09-20T11:23:30Z</time>
      </trkpt>
      <trkpt lat="46.21216" lon="4.51231">
        <ele>590.2</ele>
        <time>2025-09-20T11:23:31Z</time>
      </trkpt>
      <trkpt lat="46.21212" lon="4.51226">
        <ele>590.2</ele>
        <time>2025-09-20T11:23:32Z</time>
      </trkpt>
      <trkpt lat="46.21209" lon="4.5122">
        <ele>590.6</ele>
        <time>2025-09-20T11:23:33Z</time>
      </trkpt>
      <trkpt lat="46.21205" lon="4.51216">
        <ele>590.6</ele>
        <time>2025-09-20T11:23:34Z</time>
      </trkpt>
      <trkpt lat="46.21203" lon="4.5121">
        <ele>590.6</ele>
        <time>2025-09-20T11:23:35Z</time>
      </trkpt>
      <trkpt lat="46.212" lon="4.51204">
        <ele>591</ele>
        <time>2025-09-20T11:23:36Z</time>
      </trkpt>
      <trkpt lat="46.21198" lon="4.51198">
        <ele>591.2</ele>
        <time>2025-09-20T11:23:37Z</time>
      </trkpt>
      <trkpt lat="46.21195" lon="4.51193">
        <ele>591.2</ele>
        <time>2025-09-20T11:23:38Z</time>
      </trkpt>
      <trkpt lat="46.21193" lon="4.51187">
        <ele>591.2</ele>
        <time>2025-09-20T11:23:39Z</time>
      </trkpt>
      <trkpt lat="46.21192" lon="4.51182">
        <ele>591.6</ele>
        <time>2025-09-20T11:23:40Z</time>
      </trkpt>
      <trkpt lat="46.2119" lon="4.51176">
        <ele>590.6</ele>
        <time>2025-09-20T11:23:41Z</time>
      </trkpt>
      <trkpt lat="46.21189" lon="4.51171">
        <ele>590.6</ele>
        <time>2025-09-20T11:23:42Z</time>
      </trkpt>
      <trkpt lat="46.21188" lon="4.51165">
        <ele>591.2</ele>
        <time>2025-09-20T11:23:43Z</time>
      </trkpt>
      <trkpt lat="46.21187" lon="4.5116">
        <ele>591.4</ele>
        <time>2025-09-20T11:23:44Z</time>
      </trkpt>
      <trkpt lat="46.21186" lon="4.51155">
        <ele>591.6</ele>
        <time>2025-09-20T11:23:45Z</time>
      </trkpt>
      <trkpt lat="46.21185" lon="4.51149">
        <ele>591.6</ele>
        <time>2025-09-20T11:23:46Z</time>
      </trkpt>
      <trkpt lat="46.21185" lon="4.51143">
        <ele>591.6</ele>
        <time>2025-09-20T11:23:47Z</time>
      </trkpt>
      <trkpt lat="46.21185" lon="4.51136">
        <ele>592.2</ele>
        <time>2025-09-20T11:23:48Z</time>
      </trkpt>
      <trkpt lat="46.21185" lon="4.51131">
        <ele>592.8</ele>
        <time>2025-09-20T11:23:49Z</time>
      </trkpt>
      <trkpt lat="46.21185" lon="4.51125">
        <ele>592.8</ele>
        <time>2025-09-20T11:23:50Z</time>
      </trkpt>
      <trkpt lat="46.21185" lon="4.5112">
        <ele>592.8</ele>
        <time>2025-09-20T11:23:51Z</time>
      </trkpt>
      <trkpt lat="46.21184" lon="4.51114">
        <ele>593</ele>
        <time>2025-09-20T11:23:52Z</time>
      </trkpt>
      <trkpt lat="46.21184" lon="4.51109">
        <ele>593</ele>
        <time>2025-09-20T11:23:53Z</time>
      </trkpt>
      <trkpt lat="46.21185" lon="4.51104">
        <ele>593.4</ele>
        <time>2025-09-20T11:23:54Z</time>
      </trkpt>
      <trkpt lat="46.21186" lon="4.51099">
        <ele>593.4</ele>
        <time>2025-09-20T11:23:55Z</time>
      </trkpt>
      <trkpt lat="46.21187" lon="4.51095">
        <ele>593.6</ele>
        <time>2025-09-20T11:23:56Z</time>
      </trkpt>
      <trkpt lat="46.21188" lon="4.51091">
        <ele>593.8</ele>
        <time>2025-09-20T11:23:57Z</time>
      </trkpt>
      <trkpt lat="46.21189" lon="4.51086">
        <ele>594.2</ele>
        <time>2025-09-20T11:23:58Z</time>
      </trkpt>
      <trkpt lat="46.2119" lon="4.51081">
        <ele>594.2</ele>
        <time>2025-09-20T11:23:59Z</time>
      </trkpt>
      <trkpt lat="46.21191" lon="4.51076">
        <ele>594.4</ele>
        <time>2025-09-20T11:24:00Z</time>
      </trkpt>
      <trkpt lat="46.21192" lon="4.51071">
        <ele>594.4</ele>
        <time>2025-09-20T11:24:01Z</time>
      </trkpt>
      <trkpt lat="46.21193" lon="4.51066">
        <ele>594.4</ele>
        <time>2025-09-20T11:24:02Z</time>
      </trkpt>
      <trkpt lat="46.21193" lon="4.51062">
        <ele>594.6</ele>
        <time>2025-09-20T11:24:03Z</time>
      </trkpt>
      <trkpt lat="46.21194" lon="4.51058">
        <ele>595.2</ele>
        <time>2025-09-20T11:24:04Z</time>
      </trkpt>
      <trkpt lat="46.21194" lon="4.51051">
        <ele>595.2</ele>
        <time>2025-09-20T11:24:05Z</time>
      </trkpt>
      <trkpt lat="46.21194" lon="4.51047">
        <ele>595.2</ele>
        <time>2025-09-20T11:24:06Z</time>
      </trkpt>
      <trkpt lat="46.21196" lon="4.51042">
        <ele>595.2</ele>
        <time>2025-09-20T11:24:07Z</time>
      </trkpt>
      <trkpt lat="46.21198" lon="4.51038">
        <ele>594.8</ele>
        <time>2025-09-20T11:24:08Z</time>
      </trkpt>
      <trkpt lat="46.21199" lon="4.51034">
        <ele>594.8</ele>
        <time>2025-09-20T11:24:09Z</time>
      </trkpt>
      <trkpt lat="46.21199" lon="4.51028">
        <ele>595.2</ele>
        <time>2025-09-20T11:24:10Z</time>
      </trkpt>
      <trkpt lat="46.212" lon="4.51023">
        <ele>595.4</ele>
        <time>2025-09-20T11:24:11Z</time>
      </trkpt>
      <trkpt lat="46.212" lon="4.51018">
        <ele>595.6</ele>
        <time>2025-09-20T11:24:12Z</time>
      </trkpt>
      <trkpt lat="46.212" lon="4.51012">
        <ele>595.6</ele>
        <time>2025-09-20T11:24:13Z</time>
      </trkpt>
      <trkpt lat="46.21201" lon="4.51007">
        <ele>595.6</ele>
        <time>2025-09-20T11:24:14Z</time>
      </trkpt>
      <trkpt lat="46.21202" lon="4.51002">
        <ele>595.6</ele>
        <time>2025-09-20T11:24:15Z</time>
      </trkpt>
      <trkpt lat="46.21202" lon="4.50997">
        <ele>595.6</ele>
        <time>2025-09-20T11:24:16Z</time>
      </trkpt>
      <trkpt lat="46.21203" lon="4.50991">
        <ele>596.2</ele>
        <time>2025-09-20T11:24:17Z</time>
      </trkpt>
      <trkpt lat="46.21203" lon="4.50986">
        <ele>596</ele>
        <time>2025-09-20T11:24:18Z</time>
      </trkpt>
      <trkpt lat="46.21203" lon="4.5098">
        <ele>595.6</ele>
        <time>2025-09-20T11:24:19Z</time>
      </trkpt>
      <trkpt lat="46.21204" lon="4.50976">
        <ele>595.2</ele>
        <time>2025-09-20T11:24:20Z</time>
      </trkpt>
      <trkpt lat="46.21204" lon="4.50972">
        <ele>595.2</ele>
        <time>2025-09-20T11:24:21Z</time>
      </trkpt>
      <trkpt lat="46.21204" lon="4.50969">
        <ele>595.2</ele>
        <time>2025-09-20T11:24:22Z</time>
      </trkpt>
      <trkpt lat="46.21203" lon="4.50965">
        <ele>596</ele>
        <time>2025-09-20T11:24:23Z</time>
      </trkpt>
      <trkpt lat="46.21203" lon="4.50959">
        <ele>596.4</ele>
        <time>2025-09-20T11:24:24Z</time>
      </trkpt>
      <trkpt lat="46.21203" lon="4.50954">
        <ele>596.6</ele>
        <time>2025-09-20T11:24:25Z</time>
      </trkpt>
      <trkpt lat="46.21203" lon="4.50949">
        <ele>596.8</ele>
        <time>2025-09-20T11:24:26Z</time>
      </trkpt>
      <trkpt lat="46.21203" lon="4.50944">
        <ele>597.4</ele>
        <time>2025-09-20T11:24:27Z</time>
      </trkpt>
      <trkpt lat="46.21202" lon="4.50939">
        <ele>597.8</ele>
        <time>2025-09-20T11:24:28Z</time>
      </trkpt>
      <trkpt lat="46.21202" lon="4.50933">
        <ele>598</ele>
        <time>2025-09-20T11:24:29Z</time>
      </trkpt>
      <trkpt lat="46.21202" lon="4.50928">
        <ele>598</ele>
        <time>2025-09-20T11:24:30Z</time>
      </trkpt>
      <trkpt lat="46.21202" lon="4.50923">
        <ele>598</ele>
        <time>2025-09-20T11:24:31Z</time>
      </trkpt>
      <trkpt lat="46.21203" lon="4.50916">
        <ele>598</ele>
        <time>2025-09-20T11:24:32Z</time>
      </trkpt>
      <trkpt lat="46.21201" lon="4.50907">
        <ele>597.6</ele>
        <time>2025-09-20T11:24:33Z</time>
      </trkpt>
      <trkpt lat="46.21203" lon="4.50903">
        <ele>597.6</ele>
        <time>2025-09-20T11:24:34Z</time>
      </trkpt>
      <trkpt lat="46.21203" lon="4.50897">
        <ele>597.6</ele>
        <time>2025-09-20T11:24:35Z</time>
      </trkpt>
      <trkpt lat="46.21202" lon="4.50892">
        <ele>597.6</ele>
        <time>2025-09-20T11:24:36Z</time>
      </trkpt>
      <trkpt lat="46.21203" lon="4.50888">
        <ele>598</ele>
        <time>2025-09-20T11:24:37Z</time>
      </trkpt>
      <trkpt lat="46.21203" lon="4.50883">
        <ele>598</ele>
        <time>2025-09-20T11:24:38Z</time>
      </trkpt>
      <trkpt lat="46.21203" lon="4.50878">
        <ele>598</ele>
        <time>2025-09-20T11:24:39Z</time>
      </trkpt>
      <trkpt lat="46.21204" lon="4.50872">
        <ele>597.8</ele>
        <time>2025-09-20T11:24:40Z</time>
      </trkpt>
      <trkpt lat="46.21205" lon="4.50867">
        <ele>597.8</ele>
        <time>2025-09-20T11:24:41Z</time>
      </trkpt>
      <trkpt lat="46.21205" lon="4.50863">
        <ele>597.8</ele>
        <time>2025-09-20T11:24:42Z</time>
      </trkpt>
      <trkpt lat="46.21204" lon="4.50857">
        <ele>598.2</ele>
        <time>2025-09-20T11:24:43Z</time>
      </trkpt>
      <trkpt lat="46.21204" lon="4.50853">
        <ele>598.4</ele>
        <time>2025-09-20T11:24:44Z</time>
      </trkpt>
      <trkpt lat="46.21204" lon="4.5085">
        <ele>598.4</ele>
        <time>2025-09-20T11:24:45Z</time>
      </trkpt>
      <trkpt lat="46.21204" lon="4.50845">
        <ele>598.6</ele>
        <time>2025-09-20T11:24:46Z</time>
      </trkpt>
      <trkpt lat="46.21206" lon="4.50841">
        <ele>598.6</ele>
        <time>2025-09-20T11:24:47Z</time>
      </trkpt>
      <trkpt lat="46.21207" lon="4.50837">
        <ele>598.6</ele>
        <time>2025-09-20T11:24:48Z</time>
      </trkpt>
      <trkpt lat="46.21208" lon="4.50833">
        <ele>599</ele>
        <time>2025-09-20T11:24:49Z</time>
      </trkpt>
      <trkpt lat="46.2121" lon="4.50829">
        <ele>599</ele>
        <time>2025-09-20T11:24:50Z</time>
      </trkpt>
      <trkpt lat="46.21212" lon="4.50825">
        <ele>599</ele>
        <time>2025-09-20T11:24:51Z</time>
      </trkpt>
      <trkpt lat="46.21214" lon="4.5082">
        <ele>598.4</ele>
        <time>2025-09-20T11:24:52Z</time>
      </trkpt>
      <trkpt lat="46.21216" lon="4.50816">
        <ele>598.8</ele>
        <time>2025-09-20T11:24:53Z</time>
      </trkpt>
      <trkpt lat="46.21218" lon="4.50812">
        <ele>598.8</ele>
        <time>2025-09-20T11:24:54Z</time>
      </trkpt>
      <trkpt lat="46.2122" lon="4.50808">
        <ele>599</ele>
        <time>2025-09-20T11:24:55Z</time>
      </trkpt>
      <trkpt lat="46.21223" lon="4.50804">
        <ele>599</ele>
        <time>2025-09-20T11:24:56Z</time>
      </trkpt>
      <trkpt lat="46.21225" lon="4.508">
        <ele>599.6</ele>
        <time>2025-09-20T11:24:57Z</time>
      </trkpt>
      <trkpt lat="46.21228" lon="4.50797">
        <ele>599.8</ele>
        <time>2025-09-20T11:24:58Z</time>
      </trkpt>
      <trkpt lat="46.21231" lon="4.50794">
        <ele>599.8</ele>
        <time>2025-09-20T11:24:59Z</time>
      </trkpt>
      <trkpt lat="46.21234" lon="4.50791">
        <ele>600.2</ele>
        <time>2025-09-20T11:25:00Z</time>
      </trkpt>
      <trkpt lat="46.21236" lon="4.50788">
        <ele>600.2</ele>
        <time>2025-09-20T11:25:01Z</time>
      </trkpt>
      <trkpt lat="46.21238" lon="4.50786">
        <ele>600.2</ele>
        <time>2025-09-20T11:25:02Z</time>
      </trkpt>
      <trkpt lat="46.21241" lon="4.50783">
        <ele>600.6</ele>
        <time>2025-09-20T11:25:03Z</time>
      </trkpt>
      <trkpt lat="46.21244" lon="4.5078">
        <ele>600</ele>
        <time>2025-09-20T11:25:04Z</time>
      </trkpt>
      <trkpt lat="46.21246" lon="4.50777">
        <ele>600.2</ele>
        <time>2025-09-20T11:25:05Z</time>
      </trkpt>
      <trkpt lat="46.21248" lon="4.50776">
        <ele>600.2</ele>
        <time>2025-09-20T11:25:06Z</time>
      </trkpt>
      <trkpt lat="46.21251" lon="4.50774">
        <ele>600.2</ele>
        <time>2025-09-20T11:25:07Z</time>
      </trkpt>
      <trkpt lat="46.21253" lon="4.50772">
        <ele>600.4</ele>
        <time>2025-09-20T11:25:08Z</time>
      </trkpt>
      <trkpt lat="46.21255" lon="4.50769">
        <ele>600.4</ele>
        <time>2025-09-20T11:25:09Z</time>
      </trkpt>
      <trkpt lat="46.21257" lon="4.50767">
        <ele>600.6</ele>
        <time>2025-09-20T11:25:10Z</time>
      </trkpt>
      <trkpt lat="46.21259" lon="4.50766">
        <ele>600.6</ele>
        <time>2025-09-20T11:25:11Z</time>
      </trkpt>
      <trkpt lat="46.21261" lon="4.50764">
        <ele>601</ele>
        <time>2025-09-20T11:25:12Z</time>
      </trkpt>
      <trkpt lat="46.21263" lon="4.50762">
        <ele>601</ele>
        <time>2025-09-20T11:25:13Z</time>
      </trkpt>
      <trkpt lat="46.21265" lon="4.5076">
        <ele>600.8</ele>
        <time>2025-09-20T11:25:14Z</time>
      </trkpt>
      <trkpt lat="46.21268" lon="4.50757">
        <ele>600.8</ele>
        <time>2025-09-20T11:25:15Z</time>
      </trkpt>
      <trkpt lat="46.21271" lon="4.50756">
        <ele>601.2</ele>
        <time>2025-09-20T11:25:16Z</time>
      </trkpt>
      <trkpt lat="46.21274" lon="4.50756">
        <ele>601.2</ele>
        <time>2025-09-20T11:25:17Z</time>
      </trkpt>
      <trkpt lat="46.21277" lon="4.50756">
        <ele>601.2</ele>
        <time>2025-09-20T11:25:18Z</time>
      </trkpt>
      <trkpt lat="46.2128" lon="4.50756">
        <ele>601.6</ele>
        <time>2025-09-20T11:25:19Z</time>
      </trkpt>
      <trkpt lat="46.21284" lon="4.50756">
        <ele>601.6</ele>
        <time>2025-09-20T11:25:20Z</time>
      </trkpt>
      <trkpt lat="46.21287" lon="4.50755">
        <ele>602</ele>
        <time>2025-09-20T11:25:21Z</time>
      </trkpt>
      <trkpt lat="46.21291" lon="4.50755">
        <ele>602</ele>
        <time>2025-09-20T11:25:22Z</time>
      </trkpt>
      <trkpt lat="46.21294" lon="4.50754">
        <ele>602.2</ele>
        <time>2025-09-20T11:25:23Z</time>
      </trkpt>
      <trkpt lat="46.21297" lon="4.50753">
        <ele>602.6</ele>
        <time>2025-09-20T11:25:24Z</time>
      </trkpt>
      <trkpt lat="46.21301" lon="4.50753">
        <ele>602.6</ele>
        <time>2025-09-20T11:25:25Z</time>
      </trkpt>
      <trkpt lat="46.21304" lon="4.50751">
        <ele>602.6</ele>
        <time>2025-09-20T11:25:26Z</time>
      </trkpt>
      <trkpt lat="46.21307" lon="4.5075">
        <ele>602.6</ele>
        <time>2025-09-20T11:25:27Z</time>
      </trkpt>
      <trkpt lat="46.2131" lon="4.50749">
        <ele>603</ele>
        <time>2025-09-20T11:25:28Z</time>
      </trkpt>
      <trkpt lat="46.21314" lon="4.50749">
        <ele>603</ele>
        <time>2025-09-20T11:25:29Z</time>
      </trkpt>
      <trkpt lat="46.21317" lon="4.50748">
        <ele>603</ele>
        <time>2025-09-20T11:25:30Z</time>
      </trkpt>
      <trkpt lat="46.21321" lon="4.50748">
        <ele>603</ele>
        <time>2025-09-20T11:25:31Z</time>
      </trkpt>
      <trkpt lat="46.21325" lon="4.50747">
        <ele>603.2</ele>
        <time>2025-09-20T11:25:32Z</time>
      </trkpt>
      <trkpt lat="46.21328" lon="4.50745">
        <ele>603.2</ele>
        <time>2025-09-20T11:25:33Z</time>
      </trkpt>
      <trkpt lat="46.21331" lon="4.50744">
        <ele>603.2</ele>
        <time>2025-09-20T11:25:34Z</time>
      </trkpt>
      <trkpt lat="46.21334" lon="4.50743">
        <ele>603.6</ele>
        <time>2025-09-20T11:25:35Z</time>
      </trkpt>
      <trkpt lat="46.21338" lon="4.5074">
        <ele>603.6</ele>
        <time>2025-09-20T11:25:36Z</time>
      </trkpt>
      <trkpt lat="46.2134" lon="4.50738">
        <ele>604.2</ele>
        <time>2025-09-20T11:25:37Z</time>
      </trkpt>
      <trkpt lat="46.21343" lon="4.50735">
        <ele>604.2</ele>
        <time>2025-09-20T11:25:38Z</time>
      </trkpt>
      <trkpt lat="46.21345" lon="4.50733">
        <ele>604.2</ele>
        <time>2025-09-20T11:25:39Z</time>
      </trkpt>
      <trkpt lat="46.21348" lon="4.50731">
        <ele>604.2</ele>
        <time>2025-09-20T11:25:40Z</time>
      </trkpt>
      <trkpt lat="46.2135" lon="4.50728">
        <ele>604.2</ele>
        <time>2025-09-20T11:25:41Z</time>
      </trkpt>
      <trkpt lat="46.21352" lon="4.50725">
        <ele>604.2</ele>
        <time>2025-09-20T11:25:42Z</time>
      </trkpt>
      <trkpt lat="46.21355" lon="4.50723">
        <ele>604.4</ele>
        <time>2025-09-20T11:25:43Z</time>
      </trkpt>
      <trkpt lat="46.21358" lon="4.5072">
        <ele>604.4</ele>
        <time>2025-09-20T11:25:44Z</time>
      </trkpt>
      <trkpt lat="46.2136" lon="4.50718">
        <ele>604.8</ele>
        <time>2025-09-20T11:25:45Z</time>
      </trkpt>
      <trkpt lat="46.21362" lon="4.50715">
        <ele>604.8</ele>
        <time>2025-09-20T11:25:46Z</time>
      </trkpt>
      <trkpt lat="46.21364" lon="4.50712">
        <ele>605.6</ele>
        <time>2025-09-20T11:25:47Z</time>
      </trkpt>
      <trkpt lat="46.21365" lon="4.50708">
        <ele>605.6</ele>
        <time>2025-09-20T11:25:48Z</time>
      </trkpt>
      <trkpt lat="46.21367" lon="4.50705">
        <ele>605.4</ele>
        <time>2025-09-20T11:25:49Z</time>
      </trkpt>
      <trkpt lat="46.21369" lon="4.50701">
        <ele>605.6</ele>
        <time>2025-09-20T11:25:50Z</time>
      </trkpt>
      <trkpt lat="46.2137" lon="4.50697">
        <ele>605.6</ele>
        <time>2025-09-20T11:25:51Z</time>
      </trkpt>
      <trkpt lat="46.21372" lon="4.50694">
        <ele>605.6</ele>
        <time>2025-09-20T11:25:52Z</time>
      </trkpt>
      <trkpt lat="46.21373" lon="4.5069">
        <ele>605.6</ele>
        <time>2025-09-20T11:25:53Z</time>
      </trkpt>
      <trkpt lat="46.21374" lon="4.50686">
        <ele>605.8</ele>
        <time>2025-09-20T11:25:54Z</time>
      </trkpt>
      <trkpt lat="46.21375" lon="4.50683">
        <ele>605.8</ele>
        <time>2025-09-20T11:25:55Z</time>
      </trkpt>
      <trkpt lat="46.21377" lon="4.50679">
        <ele>606.2</ele>
        <time>2025-09-20T11:25:56Z</time>
      </trkpt>
      <trkpt lat="46.21379" lon="4.50675">
        <ele>606.4</ele>
        <time>2025-09-20T11:25:57Z</time>
      </trkpt>
      <trkpt lat="46.21381" lon="4.50672">
        <ele>606.4</ele>
        <time>2025-09-20T11:25:58Z</time>
      </trkpt>
      <trkpt lat="46.21383" lon="4.50669">
        <ele>606.4</ele>
        <time>2025-09-20T11:25:59Z</time>
      </trkpt>
      <trkpt lat="46.21385" lon="4.50666">
        <ele>606.4</ele>
        <time>2025-09-20T11:26:00Z</time>
      </trkpt>
      <trkpt lat="46.21387" lon="4.50663">
        <ele>606.8</ele>
        <time>2025-09-20T11:26:01Z</time>
      </trkpt>
      <trkpt lat="46.2139" lon="4.50659">
        <ele>607.2</ele>
        <time>2025-09-20T11:26:02Z</time>
      </trkpt>
      <trkpt lat="46.21392" lon="4.50656">
        <ele>607.2</ele>
        <time>2025-09-20T11:26:03Z</time>
      </trkpt>
      <trkpt lat="46.21394" lon="4.50652">
        <ele>607.2</ele>
        <time>2025-09-20T11:26:04Z</time>
      </trkpt>
      <trkpt lat="46.21396" lon="4.50649">
        <ele>607.2</ele>
        <time>2025-09-20T11:26:05Z</time>
      </trkpt>
      <trkpt lat="46.21398" lon="4.50646">
        <ele>607</ele>
        <time>2025-09-20T11:26:06Z</time>
      </trkpt>
      <trkpt lat="46.21399" lon="4.50643">
        <ele>607</ele>
        <time>2025-09-20T11:26:07Z</time>
      </trkpt>
      <trkpt lat="46.21399" lon="4.50641">
        <ele>607</ele>
        <time>2025-09-20T11:26:08Z</time>
      </trkpt>
      <trkpt lat="46.21401" lon="4.50638">
        <ele>607</ele>
        <time>2025-09-20T11:26:09Z</time>
      </trkpt>
      <trkpt lat="46.21403" lon="4.50636">
        <ele>607.4</ele>
        <time>2025-09-20T11:26:10Z</time>
      </trkpt>
      <trkpt lat="46.21405" lon="4.50633">
        <ele>607.4</ele>
        <time>2025-09-20T11:26:11Z</time>
      </trkpt>
      <trkpt lat="46.21405" lon="4.50633">
        <ele>607.6</ele>
        <time>2025-09-20T11:26:12Z</time>
      </trkpt>
      <trkpt lat="46.21405" lon="4.50633">
        <ele>607.8</ele>
        <time>2025-09-20T11:26:13Z</time>
      </trkpt>
      <trkpt lat="46.21412" lon="4.50624">
        <ele>607.8</ele>
        <time>2025-09-20T11:26:15Z</time>
      </trkpt>
      <trkpt lat="46.21414" lon="4.50622">
        <ele>608</ele>
        <time>2025-09-20T11:26:16Z</time>
      </trkpt>
      <trkpt lat="46.21416" lon="4.50619">
        <ele>608</ele>
        <time>2025-09-20T11:26:17Z</time>
      </trkpt>
      <trkpt lat="46.21418" lon="4.50617">
        <ele>608.4</ele>
        <time>2025-09-20T11:26:18Z</time>
      </trkpt>
      <trkpt lat="46.21418" lon="4.50616">
        <ele>608.4</ele>
        <time>2025-09-20T11:26:19Z</time>
      </trkpt>
      <trkpt lat="46.21419" lon="4.50615">
        <ele>608.2</ele>
        <time>2025-09-20T11:26:20Z</time>
      </trkpt>
      <trkpt lat="46.21422" lon="4.50614">
        <ele>608</ele>
        <time>2025-09-20T11:26:21Z</time>
      </trkpt>
      <trkpt lat="46.21425" lon="4.50612">
        <ele>608</ele>
        <time>2025-09-20T11:26:22Z</time>
      </trkpt>
      <trkpt lat="46.21428" lon="4.5061">
        <ele>608.6</ele>
        <time>2025-09-20T11:26:23Z</time>
      </trkpt>
      <trkpt lat="46.2143" lon="4.50608">
        <ele>608.6</ele>
        <time>2025-09-20T11:26:24Z</time>
      </trkpt>
      <trkpt lat="46.21431" lon="4.50606">
        <ele>609.2</ele>
        <time>2025-09-20T11:26:25Z</time>
      </trkpt>
      <trkpt lat="46.21433" lon="4.50605">
        <ele>609.2</ele>
        <time>2025-09-20T11:26:26Z</time>
      </trkpt>
      <trkpt lat="46.21434" lon="4.50603">
        <ele>609.2</ele>
        <time>2025-09-20T11:26:27Z</time>
      </trkpt>
      <trkpt lat="46.21435" lon="4.50602">
        <ele>609.4</ele>
        <time>2025-09-20T11:26:28Z</time>
      </trkpt>
      <trkpt lat="46.21436" lon="4.50601">
        <ele>609.4</ele>
        <time>2025-09-20T11:26:29Z</time>
      </trkpt>
      <trkpt lat="46.21436" lon="4.50599">
        <ele>609.6</ele>
        <time>2025-09-20T11:26:30Z</time>
      </trkpt>
      <trkpt lat="46.21436" lon="4.50599">
        <ele>609.6</ele>
        <time>2025-09-20T11:26:31Z</time>
      </trkpt>
      <trkpt lat="46.21437" lon="4.506">
        <ele>610.2</ele>
        <time>2025-09-20T11:27:02Z</time>
      </trkpt>
      <trkpt lat="46.21438" lon="4.50599">
        <ele>610.2</ele>
        <time>2025-09-20T11:27:03Z</time>
      </trkpt>
      <trkpt lat="46.2144" lon="4.50598">
        <ele>610.2</ele>
        <time>2025-09-20T11:27:04Z</time>
      </trkpt>
      <trkpt lat="46.21443" lon="4.50597">
        <ele>610</ele>
        <time>2025-09-20T11:27:05Z</time>
      </trkpt>
      <trkpt lat="46.21445" lon="4.50596">
        <ele>610</ele>
        <time>2025-09-20T11:27:06Z</time>
      </trkpt>
      <trkpt lat="46.21448" lon="4.50594">
        <ele>610</ele>
        <time>2025-09-20T11:27:07Z</time>
      </trkpt>
      <trkpt lat="46.21451" lon="4.50592">
        <ele>610</ele>
        <time>2025-09-20T11:27:08Z</time>
      </trkpt>
      <trkpt lat="46.21454" lon="4.5059">
        <ele>610</ele>
        <time>2025-09-20T11:27:09Z</time>
      </trkpt>
      <trkpt lat="46.21457" lon="4.50588">
        <ele>610</ele>
        <time>2025-09-20T11:27:10Z</time>
      </trkpt>
      <trkpt lat="46.21459" lon="4.50587">
        <ele>610</ele>
        <time>2025-09-20T11:27:11Z</time>
      </trkpt>
      <trkpt lat="46.21462" lon="4.50586">
        <ele>610</ele>
        <time>2025-09-20T11:27:12Z</time>
      </trkpt>
      <trkpt lat="46.21465" lon="4.50585">
        <ele>610</ele>
        <time>2025-09-20T11:27:13Z</time>
      </trkpt>
      <trkpt lat="46.21467" lon="4.50584">
        <ele>610</ele>
        <time>2025-09-20T11:27:14Z</time>
      </trkpt>
      <trkpt lat="46.2147" lon="4.50581">
        <ele>610</ele>
        <time>2025-09-20T11:27:15Z</time>
      </trkpt>
      <trkpt lat="46.21473" lon="4.50579">
        <ele>610.4</ele>
        <time>2025-09-20T11:27:16Z</time>
      </trkpt>
      <trkpt lat="46.21476" lon="4.50578">
        <ele>610.8</ele>
        <time>2025-09-20T11:27:17Z</time>
      </trkpt>
      <trkpt lat="46.2148" lon="4.50576">
        <ele>610.8</ele>
        <time>2025-09-20T11:27:18Z</time>
      </trkpt>
      <trkpt lat="46.21484" lon="4.50575">
        <ele>610.8</ele>
        <time>2025-09-20T11:27:19Z</time>
      </trkpt>
      <trkpt lat="46.21488" lon="4.50574">
        <ele>610.8</ele>
        <time>2025-09-20T11:27:20Z</time>
      </trkpt>
      <trkpt lat="46.21491" lon="4.50573">
        <ele>610.8</ele>
        <time>2025-09-20T11:27:21Z</time>
      </trkpt>
      <trkpt lat="46.21494" lon="4.50571">
        <ele>610.8</ele>
        <time>2025-09-20T11:27:22Z</time>
      </trkpt>
      <trkpt lat="46.21498" lon="4.5057">
        <ele>610.8</ele>
        <time>2025-09-20T11:27:23Z</time>
      </trkpt>
      <trkpt lat="46.21502" lon="4.50569">
        <ele>610.8</ele>
        <time>2025-09-20T11:27:24Z</time>
      </trkpt>
      <trkpt lat="46.21505" lon="4.50568">
        <ele>611</ele>
        <time>2025-09-20T11:27:25Z</time>
      </trkpt>
      <trkpt lat="46.21507" lon="4.50567">
        <ele>611</ele>
        <time>2025-09-20T11:27:26Z</time>
      </trkpt>
      <trkpt lat="46.2151" lon="4.50566">
        <ele>611</ele>
        <time>2025-09-20T11:27:27Z</time>
      </trkpt>
      <trkpt lat="46.21513" lon="4.50565">
        <ele>611.2</ele>
        <time>2025-09-20T11:27:28Z</time>
      </trkpt>
      <trkpt lat="46.21516" lon="4.50565">
        <ele>611.2</ele>
        <time>2025-09-20T11:27:29Z</time>
      </trkpt>
      <trkpt lat="46.21517" lon="4.50563">
        <ele>611.2</ele>
        <time>2025-09-20T11:27:30Z</time>
      </trkpt>
      <trkpt lat="46.21519" lon="4.5056">
        <ele>611.8</ele>
        <time>2025-09-20T11:27:31Z</time>
      </trkpt>
      <trkpt lat="46.21523" lon="4.50557">
        <ele>611.4</ele>
        <time>2025-09-20T11:27:32Z</time>
      </trkpt>
      <trkpt lat="46.21527" lon="4.50554">
        <ele>611.4</ele>
        <time>2025-09-20T11:27:33Z</time>
      </trkpt>
      <trkpt lat="46.21529" lon="4.50553">
        <ele>611.2</ele>
        <time>2025-09-20T11:27:34Z</time>
      </trkpt>
      <trkpt lat="46.21532" lon="4.50551">
        <ele>611.6</ele>
        <time>2025-09-20T11:27:35Z</time>
      </trkpt>
      <trkpt lat="46.21535" lon="4.50548">
        <ele>611.6</ele>
        <time>2025-09-20T11:27:36Z</time>
      </trkpt>
      <trkpt lat="46.21538" lon="4.50546">
        <ele>612.2</ele>
        <time>2025-09-20T11:27:37Z</time>
      </trkpt>
      <trkpt lat="46.21541" lon="4.50543">
        <ele>612.4</ele>
        <time>2025-09-20T11:27:38Z</time>
      </trkpt>
      <trkpt lat="46.21543" lon="4.5054">
        <ele>612.4</ele>
        <time>2025-09-20T11:27:39Z</time>
      </trkpt>
      <trkpt lat="46.21545" lon="4.50536">
        <ele>612</ele>
        <time>2025-09-20T11:27:40Z</time>
      </trkpt>
      <trkpt lat="46.21546" lon="4.50532">
        <ele>612</ele>
        <time>2025-09-20T11:27:41Z</time>
      </trkpt>
      <trkpt lat="46.21547" lon="4.50528">
        <ele>612.8</ele>
        <time>2025-09-20T11:27:42Z</time>
      </trkpt>
      <trkpt lat="46.21549" lon="4.50524">
        <ele>613.2</ele>
        <time>2025-09-20T11:27:43Z</time>
      </trkpt>
      <trkpt lat="46.2155" lon="4.50522">
        <ele>613.2</ele>
        <time>2025-09-20T11:27:44Z</time>
      </trkpt>
      <trkpt lat="46.21551" lon="4.50519">
        <ele>613.2</ele>
        <time>2025-09-20T11:27:45Z</time>
      </trkpt>
      <trkpt lat="46.21553" lon="4.50516">
        <ele>613.2</ele>
        <time>2025-09-20T11:27:46Z</time>
      </trkpt>
      <trkpt lat="46.21555" lon="4.50511">
        <ele>613.2</ele>
        <time>2025-09-20T11:27:47Z</time>
      </trkpt>
      <trkpt lat="46.21557" lon="4.50506">
        <ele>613.4</ele>
        <time>2025-09-20T11:27:48Z</time>
      </trkpt>
      <trkpt lat="46.2156" lon="4.50502">
        <ele>613.8</ele>
        <time>2025-09-20T11:27:49Z</time>
      </trkpt>
      <trkpt lat="46.21561" lon="4.50498">
        <ele>613.8</ele>
        <time>2025-09-20T11:27:50Z</time>
      </trkpt>
      <trkpt lat="46.21563" lon="4.50494">
        <ele>614.2</ele>
        <time>2025-09-20T11:27:51Z</time>
      </trkpt>
      <trkpt lat="46.21564" lon="4.5049">
        <ele>614.2</ele>
        <time>2025-09-20T11:27:52Z</time>
      </trkpt>
      <trkpt lat="46.21565" lon="4.50485">
        <ele>614.2</ele>
        <time>2025-09-20T11:27:53Z</time>
      </trkpt>
      <trkpt lat="46.21567" lon="4.5048">
        <ele>614.4</ele>
        <time>2025-09-20T11:27:54Z</time>
      </trkpt>
      <trkpt lat="46.21569" lon="4.50475">
        <ele>614.4</ele>
        <time>2025-09-20T11:27:55Z</time>
      </trkpt>
      <trkpt lat="46.21571" lon="4.50471">
        <ele>614.4</ele>
        <time>2025-09-20T11:27:56Z</time>
      </trkpt>
      <trkpt lat="46.21573" lon="4.50468">
        <ele>614.4</ele>
        <time>2025-09-20T11:27:57Z</time>
      </trkpt>
      <trkpt lat="46.21575" lon="4.50463">
        <ele>614.4</ele>
        <time>2025-09-20T11:27:58Z</time>
      </trkpt>
      <trkpt lat="46.21577" lon="4.50459">
        <ele>614.4</ele>
        <time>2025-09-20T11:27:59Z</time>
      </trkpt>
      <trkpt lat="46.21579" lon="4.50455">
        <ele>614.4</ele>
        <time>2025-09-20T11:28:00Z</time>
      </trkpt>
      <trkpt lat="46.21581" lon="4.50451">
        <ele>614.4</ele>
        <time>2025-09-20T11:28:01Z</time>
      </trkpt>
      <trkpt lat="46.21583" lon="4.50446">
        <ele>614.4</ele>
        <time>2025-09-20T11:28:02Z</time>
      </trkpt>
      <trkpt lat="46.21586" lon="4.50441">
        <ele>614.4</ele>
        <time>2025-09-20T11:28:03Z</time>
      </trkpt>
      <trkpt lat="46.21589" lon="4.50437">
        <ele>614.4</ele>
        <time>2025-09-20T11:28:04Z</time>
      </trkpt>
      <trkpt lat="46.21592" lon="4.50432">
        <ele>614.4</ele>
        <time>2025-09-20T11:28:05Z</time>
      </trkpt>
      <trkpt lat="46.21597" lon="4.50424">
        <ele>614.4</ele>
        <time>2025-09-20T11:28:06Z</time>
      </trkpt>
      <trkpt lat="46.216" lon="4.5042">
        <ele>614.4</ele>
        <time>2025-09-20T11:28:07Z</time>
      </trkpt>
      <trkpt lat="46.21604" lon="4.50415">
        <ele>614.4</ele>
        <time>2025-09-20T11:28:08Z</time>
      </trkpt>
      <trkpt lat="46.21607" lon="4.50411">
        <ele>614.4</ele>
        <time>2025-09-20T11:28:09Z</time>
      </trkpt>
      <trkpt lat="46.21611" lon="4.50406">
        <ele>614.4</ele>
        <time>2025-09-20T11:28:10Z</time>
      </trkpt>
      <trkpt lat="46.21614" lon="4.50404">
        <ele>614.4</ele>
        <time>2025-09-20T11:28:11Z</time>
      </trkpt>
      <trkpt lat="46.21617" lon="4.504">
        <ele>614.4</ele>
        <time>2025-09-20T11:28:12Z</time>
      </trkpt>
      <trkpt lat="46.2162" lon="4.50397">
        <ele>614.8</ele>
        <time>2025-09-20T11:28:13Z</time>
      </trkpt>
      <trkpt lat="46.21623" lon="4.50394">
        <ele>614.8</ele>
        <time>2025-09-20T11:28:14Z</time>
      </trkpt>
      <trkpt lat="46.21627" lon="4.50388">
        <ele>614.6</ele>
        <time>2025-09-20T11:28:15Z</time>
      </trkpt>
      <trkpt lat="46.21631" lon="4.50385">
        <ele>614.6</ele>
        <time>2025-09-20T11:28:16Z</time>
      </trkpt>
      <trkpt lat="46.21634" lon="4.50379">
        <ele>614.6</ele>
        <time>2025-09-20T11:28:17Z</time>
      </trkpt>
      <trkpt lat="46.21637" lon="4.50377">
        <ele>614.6</ele>
        <time>2025-09-20T11:28:18Z</time>
      </trkpt>
      <trkpt lat="46.21638" lon="4.50375">
        <ele>614.6</ele>
        <time>2025-09-20T11:28:19Z</time>
      </trkpt>
      <trkpt lat="46.21641" lon="4.50372">
        <ele>614.6</ele>
        <time>2025-09-20T11:28:20Z</time>
      </trkpt>
      <trkpt lat="46.21642" lon="4.5037">
        <ele>614.6</ele>
        <time>2025-09-20T11:28:21Z</time>
      </trkpt>
      <trkpt lat="46.21643" lon="4.50369">
        <ele>614.8</ele>
        <time>2025-09-20T11:28:22Z</time>
      </trkpt>
      <trkpt lat="46.21644" lon="4.50366">
        <ele>614.8</ele>
        <time>2025-09-20T11:28:23Z</time>
      </trkpt>
      <trkpt lat="46.21645" lon="4.50366">
        <ele>614.8</ele>
        <time>2025-09-20T11:28:24Z</time>
      </trkpt>
      <trkpt lat="46.21645" lon="4.50365">
        <ele>614.8</ele>
        <time>2025-09-20T11:28:25Z</time>
      </trkpt>
      <trkpt lat="46.21647" lon="4.50365">
        <ele>614.8</ele>
        <time>2025-09-20T11:28:26Z</time>
      </trkpt>
      <trkpt lat="46.21648" lon="4.50365">
        <ele>614.8</ele>
        <time>2025-09-20T11:28:27Z</time>
      </trkpt>
      <trkpt lat="46.2165" lon="4.50365">
        <ele>614.8</ele>
        <time>2025-09-20T11:28:28Z</time>
      </trkpt>
      <trkpt lat="46.21652" lon="4.50364">
        <ele>614.8</ele>
        <time>2025-09-20T11:28:29Z</time>
      </trkpt>
      <trkpt lat="46.21653" lon="4.50363">
        <ele>614.8</ele>
        <time>2025-09-20T11:28:30Z</time>
      </trkpt>
      <trkpt lat="46.21655" lon="4.50362">
        <ele>614.8</ele>
        <time>2025-09-20T11:28:31Z</time>
      </trkpt>
      <trkpt lat="46.21657" lon="4.5036">
        <ele>614.8</ele>
        <time>2025-09-20T11:28:32Z</time>
      </trkpt>
      <trkpt lat="46.21658" lon="4.5036">
        <ele>614.8</ele>
        <time>2025-09-20T11:28:33Z</time>
      </trkpt>
      <trkpt lat="46.21658" lon="4.50359">
        <ele>614.8</ele>
        <time>2025-09-20T11:28:34Z</time>
      </trkpt>
      <trkpt lat="46.21658" lon="4.50359">
        <ele>614.8</ele>
        <time>2025-09-20T11:28:35Z</time>
      </trkpt>
      <trkpt lat="46.21659" lon="4.50358">
        <ele>614.8</ele>
        <time>2025-09-20T11:28:36Z</time>
      </trkpt>
      <trkpt lat="46.21661" lon="4.50357">
        <ele>615</ele>
        <time>2025-09-20T11:28:37Z</time>
      </trkpt>
      <trkpt lat="46.21663" lon="4.50356">
        <ele>615</ele>
        <time>2025-09-20T11:28:38Z</time>
      </trkpt>
      <trkpt lat="46.21664" lon="4.50356">
        <ele>615</ele>
        <time>2025-09-20T11:28:39Z</time>
      </trkpt>
      <trkpt lat="46.21666" lon="4.50356">
        <ele>615</ele>
        <time>2025-09-20T11:28:40Z</time>
      </trkpt>
      <trkpt lat="46.21667" lon="4.50356">
        <ele>615</ele>
        <time>2025-09-20T11:28:41Z</time>
      </trkpt>
      <trkpt lat="46.21667" lon="4.50356">
        <ele>615</ele>
        <time>2025-09-20T11:28:42Z</time>
      </trkpt>
      <trkpt lat="46.21667" lon="4.50356">
        <ele>615</ele>
        <time>2025-09-20T11:28:43Z</time>
      </trkpt>
      <trkpt lat="46.21666" lon="4.50353">
        <ele>615.2</ele>
        <time>2025-09-20T11:31:20Z</time>
      </trkpt>
      <trkpt lat="46.21665" lon="4.50354">
        <ele>615.2</ele>
        <time>2025-09-20T11:31:21Z</time>
      </trkpt>
      <trkpt lat="46.21665" lon="4.50355">
        <ele>615.2</ele>
        <time>2025-09-20T11:31:22Z</time>
      </trkpt>
      <trkpt lat="46.21665" lon="4.50357">
        <ele>615.2</ele>
        <time>2025-09-20T11:31:23Z</time>
      </trkpt>
      <trkpt lat="46.21666" lon="4.50357">
        <ele>615</ele>
        <time>2025-09-20T11:31:24Z</time>
      </trkpt>
      <trkpt lat="46.21666" lon="4.50357">
        <ele>615</ele>
        <time>2025-09-20T11:31:25Z</time>
      </trkpt>
      <trkpt lat="46.21665" lon="4.50363">
        <ele>615.2</ele>
        <time>2025-09-20T11:31:30Z</time>
      </trkpt>
      <trkpt lat="46.21664" lon="4.50365">
        <ele>615.2</ele>
        <time>2025-09-20T11:31:31Z</time>
      </trkpt>
      <trkpt lat="46.21664" lon="4.50366">
        <ele>615.2</ele>
        <time>2025-09-20T11:31:32Z</time>
      </trkpt>
      <trkpt lat="46.21661" lon="4.50366">
        <ele>615.2</ele>
        <time>2025-09-20T11:31:33Z</time>
      </trkpt>
      <trkpt lat="46.21661" lon="4.50365">
        <ele>615.2</ele>
        <time>2025-09-20T11:31:34Z</time>
      </trkpt>
      <trkpt lat="46.2166" lon="4.50363">
        <ele>615.2</ele>
        <time>2025-09-20T11:31:35Z</time>
      </trkpt>
      <trkpt lat="46.21658" lon="4.50361">
        <ele>615.2</ele>
        <time>2025-09-20T11:31:36Z</time>
      </trkpt>
      <trkpt lat="46.21657" lon="4.5036">
        <ele>615.2</ele>
        <time>2025-09-20T11:31:37Z</time>
      </trkpt>
      <trkpt lat="46.21655" lon="4.50361">
        <ele>615.2</ele>
        <time>2025-09-20T11:31:38Z</time>
      </trkpt>
      <trkpt lat="46.21654" lon="4.50362">
        <ele>615.2</ele>
        <time>2025-09-20T11:31:39Z</time>
      </trkpt>
      <trkpt lat="46.21653" lon="4.50363">
        <ele>615.2</ele>
        <time>2025-09-20T11:31:40Z</time>
      </trkpt>
      <trkpt lat="46.21651" lon="4.50365">
        <ele>615.2</ele>
        <time>2025-09-20T11:31:41Z</time>
      </trkpt>
      <trkpt lat="46.21649" lon="4.50366">
        <ele>615.2</ele>
        <time>2025-09-20T11:31:42Z</time>
      </trkpt>
      <trkpt lat="46.21646" lon="4.50367">
        <ele>615.2</ele>
        <time>2025-09-20T11:31:43Z</time>
      </trkpt>
      <trkpt lat="46.21644" lon="4.50369">
        <ele>615.2</ele>
        <time>2025-09-20T11:31:44Z</time>
      </trkpt>
      <trkpt lat="46.21641" lon="4.50371">
        <ele>615.2</ele>
        <time>2025-09-20T11:31:45Z</time>
      </trkpt>
      <trkpt lat="46.21639" lon="4.50373">
        <ele>614.8</ele>
        <time>2025-09-20T11:31:46Z</time>
      </trkpt>
      <trkpt lat="46.21638" lon="4.50376">
        <ele>614.8</ele>
        <time>2025-09-20T11:31:47Z</time>
      </trkpt>
      <trkpt lat="46.21637" lon="4.50378">
        <ele>614.8</ele>
        <time>2025-09-20T11:31:48Z</time>
      </trkpt>
      <trkpt lat="46.21635" lon="4.5038">
        <ele>614.8</ele>
        <time>2025-09-20T11:31:49Z</time>
      </trkpt>
      <trkpt lat="46.21634" lon="4.50382">
        <ele>614.8</ele>
        <time>2025-09-20T11:31:50Z</time>
      </trkpt>
      <trkpt lat="46.21633" lon="4.50382">
        <ele>615.2</ele>
        <time>2025-09-20T11:31:51Z</time>
      </trkpt>
      <trkpt lat="46.21633" lon="4.50382">
        <ele>615.2</ele>
        <time>2025-09-20T11:31:52Z</time>
      </trkpt>
      <trkpt lat="46.21634" lon="4.5038">
        <ele>615.2</ele>
        <time>2025-09-20T11:31:53Z</time>
      </trkpt>
      <trkpt lat="46.21636" lon="4.50379">
        <ele>615.2</ele>
        <time>2025-09-20T11:31:54Z</time>
      </trkpt>
      <trkpt lat="46.21636" lon="4.50378">
        <ele>615.2</ele>
        <time>2025-09-20T11:31:55Z</time>
      </trkpt>
      <trkpt lat="46.21637" lon="4.50377">
        <ele>615.2</ele>
        <time>2025-09-20T11:31:56Z</time>
      </trkpt>
      <trkpt lat="46.21638" lon="4.50375">
        <ele>615.2</ele>
        <time>2025-09-20T11:31:57Z</time>
      </trkpt>
      <trkpt lat="46.21642" lon="4.50373">
        <ele>615.2</ele>
        <time>2025-09-20T11:31:58Z</time>
      </trkpt>
      <trkpt lat="46.21645" lon="4.50372">
        <ele>615.2</ele>
        <time>2025-09-20T11:31:59Z</time>
      </trkpt>
      <trkpt lat="46.21648" lon="4.5037">
        <ele>615.2</ele>
        <time>2025-09-20T11:32:00Z</time>
      </trkpt>
      <trkpt lat="46.2165" lon="4.50369">
        <ele>615.2</ele>
        <time>2025-09-20T11:32:01Z</time>
      </trkpt>
      <trkpt lat="46.21652" lon="4.50367">
        <ele>615.2</ele>
        <time>2025-09-20T11:32:02Z</time>
      </trkpt>
      <trkpt lat="46.21654" lon="4.50364">
        <ele>615.2</ele>
        <time>2025-09-20T11:32:03Z</time>
      </trkpt>
      <trkpt lat="46.21657" lon="4.50362">
        <ele>615.2</ele>
        <time>2025-09-20T11:32:04Z</time>
      </trkpt>
      <trkpt lat="46.21661" lon="4.5036">
        <ele>615.2</ele>
        <time>2025-09-20T11:32:05Z</time>
      </trkpt>
      <trkpt lat="46.21663" lon="4.5036">
        <ele>615.2</ele>
        <time>2025-09-20T11:32:06Z</time>
      </trkpt>
      <trkpt lat="46.21665" lon="4.50359">
        <ele>615.2</ele>
        <time>2025-09-20T11:32:07Z</time>
      </trkpt>
      <trkpt lat="46.21668" lon="4.50358">
        <ele>615.2</ele>
        <time>2025-09-20T11:32:08Z</time>
      </trkpt>
      <trkpt lat="46.21669" lon="4.50357">
        <ele>615.2</ele>
        <time>2025-09-20T11:32:09Z</time>
      </trkpt>
      <trkpt lat="46.21669" lon="4.50356">
        <ele>615.2</ele>
        <time>2025-09-20T11:32:10Z</time>
      </trkpt>
      <trkpt lat="46.21669" lon="4.50355">
        <ele>615.2</ele>
        <time>2025-09-20T11:32:11Z</time>
      </trkpt>
      <trkpt lat="46.21669" lon="4.50354">
        <ele>615.4</ele>
        <time>2025-09-20T11:32:12Z</time>
      </trkpt>
      <trkpt lat="46.21669" lon="4.50354">
        <ele>615.4</ele>
        <time>2025-09-20T11:32:13Z</time>
      </trkpt>
      <trkpt lat="46.21669" lon="4.50354">
        <ele>615.4</ele>
        <time>2025-09-20T11:32:14Z</time>
      </trkpt>
      <trkpt lat="46.2167" lon="4.50355">
        <ele>615.6</ele>
        <time>2025-09-20T11:32:30Z</time>
      </trkpt>
      <trkpt lat="46.21672" lon="4.50354">
        <ele>615.8</ele>
        <time>2025-09-20T11:32:31Z</time>
      </trkpt>
      <trkpt lat="46.21672" lon="4.50354">
        <ele>615.8</ele>
        <time>2025-09-20T11:32:32Z</time>
      </trkpt>
      <trkpt lat="46.21674" lon="4.50352">
        <ele>615.8</ele>
        <time>2025-09-20T11:32:33Z</time>
      </trkpt>
      <trkpt lat="46.21676" lon="4.50351">
        <ele>615.8</ele>
        <time>2025-09-20T11:32:34Z</time>
      </trkpt>
      <trkpt lat="46.21678" lon="4.5035">
        <ele>615.6</ele>
        <time>2025-09-20T11:32:35Z</time>
      </trkpt>
      <trkpt lat="46.21681" lon="4.5035">
        <ele>615.2</ele>
        <time>2025-09-20T11:32:36Z</time>
      </trkpt>
      <trkpt lat="46.21683" lon="4.5035">
        <ele>615.2</ele>
        <time>2025-09-20T11:32:37Z</time>
      </trkpt>
      <trkpt lat="46.21686" lon="4.5035">
        <ele>615</ele>
        <time>2025-09-20T11:32:38Z</time>
      </trkpt>
      <trkpt lat="46.2169" lon="4.50349">
        <ele>615</ele>
        <time>2025-09-20T11:32:39Z</time>
      </trkpt>
      <trkpt lat="46.21693" lon="4.5035">
        <ele>615</ele>
        <time>2025-09-20T11:32:40Z</time>
      </trkpt>
      <trkpt lat="46.21697" lon="4.50351">
        <ele>615</ele>
        <time>2025-09-20T11:32:41Z</time>
      </trkpt>
      <trkpt lat="46.21701" lon="4.50352">
        <ele>615</ele>
        <time>2025-09-20T11:32:42Z</time>
      </trkpt>
      <trkpt lat="46.21705" lon="4.50353">
        <ele>614.8</ele>
        <time>2025-09-20T11:32:43Z</time>
      </trkpt>
      <trkpt lat="46.21709" lon="4.50354">
        <ele>614.8</ele>
        <time>2025-09-20T11:32:44Z</time>
      </trkpt>
      <trkpt lat="46.21713" lon="4.50355">
        <ele>614.8</ele>
        <time>2025-09-20T11:32:45Z</time>
      </trkpt>
      <trkpt lat="46.21717" lon="4.50356">
        <ele>615</ele>
        <time>2025-09-20T11:32:46Z</time>
      </trkpt>
      <trkpt lat="46.21721" lon="4.50358">
        <ele>615</ele>
        <time>2025-09-20T11:32:47Z</time>
      </trkpt>
      <trkpt lat="46.21725" lon="4.5036">
        <ele>615</ele>
        <time>2025-09-20T11:32:48Z</time>
      </trkpt>
      <trkpt lat="46.21728" lon="4.50362">
        <ele>615</ele>
        <time>2025-09-20T11:32:49Z</time>
      </trkpt>
      <trkpt lat="46.21732" lon="4.50364">
        <ele>615</ele>
        <time>2025-09-20T11:32:50Z</time>
      </trkpt>
      <trkpt lat="46.21735" lon="4.50367">
        <ele>615</ele>
        <time>2025-09-20T11:32:51Z</time>
      </trkpt>
      <trkpt lat="46.21739" lon="4.5037">
        <ele>614.6</ele>
        <time>2025-09-20T11:32:52Z</time>
      </trkpt>
      <trkpt lat="46.21742" lon="4.50374">
        <ele>614.8</ele>
        <time>2025-09-20T11:32:53Z</time>
      </trkpt>
      <trkpt lat="46.21746" lon="4.50377">
        <ele>614.8</ele>
        <time>2025-09-20T11:32:54Z</time>
      </trkpt>
      <trkpt lat="46.21749" lon="4.5038">
        <ele>614.6</ele>
        <time>2025-09-20T11:32:55Z</time>
      </trkpt>
      <trkpt lat="46.21752" lon="4.50384">
        <ele>614.4</ele>
        <time>2025-09-20T11:32:56Z</time>
      </trkpt>
      <trkpt lat="46.21755" lon="4.50388">
        <ele>614.6</ele>
        <time>2025-09-20T11:32:57Z</time>
      </trkpt>
      <trkpt lat="46.21758" lon="4.50392">
        <ele>614.6</ele>
        <time>2025-09-20T11:32:58Z</time>
      </trkpt>
      <trkpt lat="46.2176" lon="4.50396">
        <ele>614.4</ele>
        <time>2025-09-20T11:32:59Z</time>
      </trkpt>
      <trkpt lat="46.21762" lon="4.504">
        <ele>614.6</ele>
        <time>2025-09-20T11:33:00Z</time>
      </trkpt>
      <trkpt lat="46.21765" lon="4.50405">
        <ele>614.2</ele>
        <time>2025-09-20T11:33:01Z</time>
      </trkpt>
      <trkpt lat="46.21767" lon="4.5041">
        <ele>614.6</ele>
        <time>2025-09-20T11:33:02Z</time>
      </trkpt>
      <trkpt lat="46.21769" lon="4.50415">
        <ele>614.6</ele>
        <time>2025-09-20T11:33:03Z</time>
      </trkpt>
      <trkpt lat="46.21771" lon="4.5042">
        <ele>614.8</ele>
        <time>2025-09-20T11:33:04Z</time>
      </trkpt>
      <trkpt lat="46.21773" lon="4.50426">
        <ele>614.8</ele>
        <time>2025-09-20T11:33:05Z</time>
      </trkpt>
      <trkpt lat="46.21775" lon="4.50431">
        <ele>614.8</ele>
        <time>2025-09-20T11:33:06Z</time>
      </trkpt>
      <trkpt lat="46.21777" lon="4.50436">
        <ele>614.8</ele>
        <time>2025-09-20T11:33:07Z</time>
      </trkpt>
      <trkpt lat="46.21778" lon="4.5044">
        <ele>615.2</ele>
        <time>2025-09-20T11:33:08Z</time>
      </trkpt>
      <trkpt lat="46.2178" lon="4.50445">
        <ele>615.4</ele>
        <time>2025-09-20T11:33:09Z</time>
      </trkpt>
      <trkpt lat="46.21781" lon="4.50449">
        <ele>615.6</ele>
        <time>2025-09-20T11:33:10Z</time>
      </trkpt>
      <trkpt lat="46.21783" lon="4.50452">
        <ele>615.6</ele>
        <time>2025-09-20T11:33:11Z</time>
      </trkpt>
      <trkpt lat="46.21784" lon="4.50455">
        <ele>616</ele>
        <time>2025-09-20T11:33:12Z</time>
      </trkpt>
      <trkpt lat="46.21785" lon="4.50457">
        <ele>616</ele>
        <time>2025-09-20T11:33:13Z</time>
      </trkpt>
      <trkpt lat="46.21785" lon="4.50457">
        <ele>616.2</ele>
        <time>2025-09-20T11:33:14Z</time>
      </trkpt>
      <trkpt lat="46.21786" lon="4.50457">
        <ele>616.2</ele>
        <time>2025-09-20T11:33:15Z</time>
      </trkpt>
      <trkpt lat="46.21787" lon="4.50455">
        <ele>615.8</ele>
        <time>2025-09-20T11:33:22Z</time>
      </trkpt>
      <trkpt lat="46.21787" lon="4.50455">
        <ele>615.8</ele>
        <time>2025-09-20T11:33:23Z</time>
      </trkpt>
      <trkpt lat="46.21788" lon="4.50455">
        <ele>615.8</ele>
        <time>2025-09-20T11:33:24Z</time>
      </trkpt>
      <trkpt lat="46.21789" lon="4.50455">
        <ele>615.8</ele>
        <time>2025-09-20T11:33:25Z</time>
      </trkpt>
      <trkpt lat="46.21789" lon="4.50456">
        <ele>615.8</ele>
        <time>2025-09-20T11:33:26Z</time>
      </trkpt>
      <trkpt lat="46.21789" lon="4.50458">
        <ele>616.2</ele>
        <time>2025-09-20T11:33:27Z</time>
      </trkpt>
      <trkpt lat="46.2179" lon="4.5046">
        <ele>616.2</ele>
        <time>2025-09-20T11:33:28Z</time>
      </trkpt>
      <trkpt lat="46.21791" lon="4.50462">
        <ele>616.2</ele>
        <time>2025-09-20T11:33:29Z</time>
      </trkpt>
      <trkpt lat="46.21792" lon="4.50464">
        <ele>616.2</ele>
        <time>2025-09-20T11:33:30Z</time>
      </trkpt>
      <trkpt lat="46.21792" lon="4.50466">
        <ele>616.2</ele>
        <time>2025-09-20T11:33:31Z</time>
      </trkpt>
      <trkpt lat="46.21794" lon="4.50469">
        <ele>616.2</ele>
        <time>2025-09-20T11:33:32Z</time>
      </trkpt>
      <trkpt lat="46.21795" lon="4.50472">
        <ele>616.2</ele>
        <time>2025-09-20T11:33:33Z</time>
      </trkpt>
      <trkpt lat="46.21795" lon="4.50474">
        <ele>616</ele>
        <time>2025-09-20T11:33:34Z</time>
      </trkpt>
      <trkpt lat="46.21797" lon="4.50477">
        <ele>616</ele>
        <time>2025-09-20T11:33:35Z</time>
      </trkpt>
      <trkpt lat="46.21798" lon="4.50481">
        <ele>616</ele>
        <time>2025-09-20T11:33:36Z</time>
      </trkpt>
      <trkpt lat="46.21799" lon="4.50484">
        <ele>616</ele>
        <time>2025-09-20T11:33:37Z</time>
      </trkpt>
      <trkpt lat="46.21801" lon="4.50486">
        <ele>616.6</ele>
        <time>2025-09-20T11:33:38Z</time>
      </trkpt>
      <trkpt lat="46.21802" lon="4.50489">
        <ele>616.8</ele>
        <time>2025-09-20T11:33:39Z</time>
      </trkpt>
      <trkpt lat="46.21803" lon="4.50491">
        <ele>616.4</ele>
        <time>2025-09-20T11:33:40Z</time>
      </trkpt>
      <trkpt lat="46.21804" lon="4.50493">
        <ele>617.2</ele>
        <time>2025-09-20T11:33:41Z</time>
      </trkpt>
      <trkpt lat="46.21805" lon="4.50496">
        <ele>617.2</ele>
        <time>2025-09-20T11:33:42Z</time>
      </trkpt>
      <trkpt lat="46.21805" lon="4.50498">
        <ele>617.4</ele>
        <time>2025-09-20T11:33:43Z</time>
      </trkpt>
      <trkpt lat="46.21806" lon="4.50501">
        <ele>618</ele>
        <time>2025-09-20T11:33:44Z</time>
      </trkpt>
      <trkpt lat="46.21809" lon="4.50504">
        <ele>618.2</ele>
        <time>2025-09-20T11:33:45Z</time>
      </trkpt>
      <trkpt lat="46.21811" lon="4.50505">
        <ele>618.2</ele>
        <time>2025-09-20T11:33:46Z</time>
      </trkpt>
      <trkpt lat="46.21814" lon="4.50506">
        <ele>618.2</ele>
        <time>2025-09-20T11:33:47Z</time>
      </trkpt>
      <trkpt lat="46.21816" lon="4.50508">
        <ele>618.2</ele>
        <time>2025-09-20T11:33:48Z</time>
      </trkpt>
      <trkpt lat="46.21818" lon="4.50509">
        <ele>618.6</ele>
        <time>2025-09-20T11:33:49Z</time>
      </trkpt>
      <trkpt lat="46.2182" lon="4.50511">
        <ele>618.2</ele>
        <time>2025-09-20T11:33:50Z</time>
      </trkpt>
      <trkpt lat="46.21824" lon="4.50512">
        <ele>618.2</ele>
        <time>2025-09-20T11:33:51Z</time>
      </trkpt>
      <trkpt lat="46.21826" lon="4.50512">
        <ele>618.6</ele>
        <time>2025-09-20T11:33:52Z</time>
      </trkpt>
      <trkpt lat="46.21829" lon="4.50513">
        <ele>618.6</ele>
        <time>2025-09-20T11:33:53Z</time>
      </trkpt>
      <trkpt lat="46.21833" lon="4.50515">
        <ele>618.8</ele>
        <time>2025-09-20T11:33:54Z</time>
      </trkpt>
      <trkpt lat="46.21836" lon="4.50517">
        <ele>618.8</ele>
        <time>2025-09-20T11:33:55Z</time>
      </trkpt>
      <trkpt lat="46.21839" lon="4.5052">
        <ele>618.8</ele>
        <time>2025-09-20T11:33:56Z</time>
      </trkpt>
      <trkpt lat="46.21841" lon="4.50522">
        <ele>619.2</ele>
        <time>2025-09-20T11:33:57Z</time>
      </trkpt>
      <trkpt lat="46.21844" lon="4.50524">
        <ele>619.2</ele>
        <time>2025-09-20T11:33:58Z</time>
      </trkpt>
      <trkpt lat="46.21847" lon="4.50525">
        <ele>619.6</ele>
        <time>2025-09-20T11:33:59Z</time>
      </trkpt>
      <trkpt lat="46.2185" lon="4.50526">
        <ele>619.6</ele>
        <time>2025-09-20T11:34:00Z</time>
      </trkpt>
      <trkpt lat="46.21853" lon="4.50528">
        <ele>619.6</ele>
        <time>2025-09-20T11:34:01Z</time>
      </trkpt>
      <trkpt lat="46.21856" lon="4.50529">
        <ele>619.6</ele>
        <time>2025-09-20T11:34:02Z</time>
      </trkpt>
      <trkpt lat="46.21859" lon="4.50529">
        <ele>619.6</ele>
        <time>2025-09-20T11:34:03Z</time>
      </trkpt>
      <trkpt lat="46.21862" lon="4.5053">
        <ele>619.2</ele>
        <time>2025-09-20T11:34:04Z</time>
      </trkpt>
      <trkpt lat="46.21866" lon="4.5053">
        <ele>619.6</ele>
        <time>2025-09-20T11:34:05Z</time>
      </trkpt>
      <trkpt lat="46.2187" lon="4.50529">
        <ele>619.6</ele>
        <time>2025-09-20T11:34:06Z</time>
      </trkpt>
      <trkpt lat="46.21873" lon="4.50528">
        <ele>619.8</ele>
        <time>2025-09-20T11:34:07Z</time>
      </trkpt>
      <trkpt lat="46.21876" lon="4.50527">
        <ele>619.8</ele>
        <time>2025-09-20T11:34:08Z</time>
      </trkpt>
      <trkpt lat="46.21879" lon="4.50526">
        <ele>620.2</ele>
        <time>2025-09-20T11:34:09Z</time>
      </trkpt>
      <trkpt lat="46.21883" lon="4.50525">
        <ele>620.2</ele>
        <time>2025-09-20T11:34:10Z</time>
      </trkpt>
      <trkpt lat="46.21886" lon="4.50524">
        <ele>620.6</ele>
        <time>2025-09-20T11:34:11Z</time>
      </trkpt>
      <trkpt lat="46.21889" lon="4.50523">
        <ele>621</ele>
        <time>2025-09-20T11:34:12Z</time>
      </trkpt>
      <trkpt lat="46.21892" lon="4.50522">
        <ele>621</ele>
        <time>2025-09-20T11:34:13Z</time>
      </trkpt>
      <trkpt lat="46.21894" lon="4.50521">
        <ele>620.8</ele>
        <time>2025-09-20T11:34:14Z</time>
      </trkpt>
      <trkpt lat="46.21897" lon="4.5052">
        <ele>621</ele>
        <time>2025-09-20T11:34:15Z</time>
      </trkpt>
      <trkpt lat="46.219" lon="4.50518">
        <ele>621.2</ele>
        <time>2025-09-20T11:34:16Z</time>
      </trkpt>
      <trkpt lat="46.21904" lon="4.50516">
        <ele>621.2</ele>
        <time>2025-09-20T11:34:17Z</time>
      </trkpt>
      <trkpt lat="46.21907" lon="4.50515">
        <ele>621.2</ele>
        <time>2025-09-20T11:34:18Z</time>
      </trkpt>
      <trkpt lat="46.21909" lon="4.50513">
        <ele>621.6</ele>
        <time>2025-09-20T11:34:19Z</time>
      </trkpt>
      <trkpt lat="46.21911" lon="4.50512">
        <ele>621.8</ele>
        <time>2025-09-20T11:34:20Z</time>
      </trkpt>
      <trkpt lat="46.21913" lon="4.50511">
        <ele>621.8</ele>
        <time>2025-09-20T11:34:21Z</time>
      </trkpt>
      <trkpt lat="46.21915" lon="4.50511">
        <ele>622.4</ele>
        <time>2025-09-20T11:34:22Z</time>
      </trkpt>
      <trkpt lat="46.21916" lon="4.5051">
        <ele>622.4</ele>
        <time>2025-09-20T11:34:23Z</time>
      </trkpt>
      <trkpt lat="46.21917" lon="4.5051">
        <ele>622.8</ele>
        <time>2025-09-20T11:34:24Z</time>
      </trkpt>
      <trkpt lat="46.21918" lon="4.50508">
        <ele>623</ele>
        <time>2025-09-20T11:34:25Z</time>
      </trkpt>
      <trkpt lat="46.2192" lon="4.50507">
        <ele>623</ele>
        <time>2025-09-20T11:34:26Z</time>
      </trkpt>
      <trkpt lat="46.21921" lon="4.50506">
        <ele>623</ele>
        <time>2025-09-20T11:34:27Z</time>
      </trkpt>
      <trkpt lat="46.21923" lon="4.50504">
        <ele>623.4</ele>
        <time>2025-09-20T11:34:28Z</time>
      </trkpt>
      <trkpt lat="46.21924" lon="4.50501">
        <ele>622</ele>
        <time>2025-09-20T11:34:29Z</time>
      </trkpt>
      <trkpt lat="46.21926" lon="4.50499">
        <ele>622.4</ele>
        <time>2025-09-20T11:34:30Z</time>
      </trkpt>
      <trkpt lat="46.21928" lon="4.50496">
        <ele>622.6</ele>
        <time>2025-09-20T11:34:31Z</time>
      </trkpt>
      <trkpt lat="46.2193" lon="4.50494">
        <ele>623</ele>
        <time>2025-09-20T11:34:32Z</time>
      </trkpt>
      <trkpt lat="46.21932" lon="4.50492">
        <ele>623</ele>
        <time>2025-09-20T11:34:33Z</time>
      </trkpt>
      <trkpt lat="46.21934" lon="4.5049">
        <ele>623.4</ele>
        <time>2025-09-20T11:34:34Z</time>
      </trkpt>
      <trkpt lat="46.21935" lon="4.50487">
        <ele>623.4</ele>
        <time>2025-09-20T11:34:35Z</time>
      </trkpt>
      <trkpt lat="46.21936" lon="4.50486">
        <ele>623</ele>
        <time>2025-09-20T11:34:36Z</time>
      </trkpt>
      <trkpt lat="46.21936" lon="4.50485">
        <ele>623</ele>
        <time>2025-09-20T11:34:37Z</time>
      </trkpt>
      <trkpt lat="46.21937" lon="4.50483">
        <ele>623</ele>
        <time>2025-09-20T11:34:38Z</time>
      </trkpt>
      <trkpt lat="46.21939" lon="4.50481">
        <ele>623</ele>
        <time>2025-09-20T11:34:39Z</time>
      </trkpt>
      <trkpt lat="46.2194" lon="4.5048">
        <ele>623</ele>
        <time>2025-09-20T11:34:40Z</time>
      </trkpt>
      <trkpt lat="46.21941" lon="4.50479">
        <ele>623.2</ele>
        <time>2025-09-20T11:34:41Z</time>
      </trkpt>
      <trkpt lat="46.21942" lon="4.50478">
        <ele>623.2</ele>
        <time>2025-09-20T11:34:42Z</time>
      </trkpt>
      <trkpt lat="46.21943" lon="4.50477">
        <ele>623.2</ele>
        <time>2025-09-20T11:34:43Z</time>
      </trkpt>
      <trkpt lat="46.21945" lon="4.50476">
        <ele>623.6</ele>
        <time>2025-09-20T11:34:44Z</time>
      </trkpt>
      <trkpt lat="46.21948" lon="4.50475">
        <ele>623.6</ele>
        <time>2025-09-20T11:34:45Z</time>
      </trkpt>
      <trkpt lat="46.21949" lon="4.50473">
        <ele>623.2</ele>
        <time>2025-09-20T11:34:46Z</time>
      </trkpt>
      <trkpt lat="46.21951" lon="4.5047">
        <ele>623.2</ele>
        <time>2025-09-20T11:34:47Z</time>
      </trkpt>
      <trkpt lat="46.21952" lon="4.50468">
        <ele>623.2</ele>
        <time>2025-09-20T11:34:48Z</time>
      </trkpt>
      <trkpt lat="46.21953" lon="4.50466">
        <ele>623.8</ele>
        <time>2025-09-20T11:34:49Z</time>
      </trkpt>
      <trkpt lat="46.21954" lon="4.50463">
        <ele>623.8</ele>
        <time>2025-09-20T11:34:50Z</time>
      </trkpt>
      <trkpt lat="46.21955" lon="4.5046">
        <ele>624</ele>
        <time>2025-09-20T11:34:51Z</time>
      </trkpt>
      <trkpt lat="46.21958" lon="4.50457">
        <ele>624</ele>
        <time>2025-09-20T11:34:52Z</time>
      </trkpt>
      <trkpt lat="46.2196" lon="4.50455">
        <ele>624</ele>
        <time>2025-09-20T11:34:53Z</time>
      </trkpt>
      <trkpt lat="46.21963" lon="4.50452">
        <ele>624.2</ele>
        <time>2025-09-20T11:34:54Z</time>
      </trkpt>
      <trkpt lat="46.21965" lon="4.50447">
        <ele>624.2</ele>
        <time>2025-09-20T11:34:55Z</time>
      </trkpt>
      <trkpt lat="46.21968" lon="4.50443">
        <ele>624.2</ele>
        <time>2025-09-20T11:34:56Z</time>
      </trkpt>
      <trkpt lat="46.2197" lon="4.50439">
        <ele>624.2</ele>
        <time>2025-09-20T11:34:57Z</time>
      </trkpt>
      <trkpt lat="46.21972" lon="4.50436">
        <ele>624.2</ele>
        <time>2025-09-20T11:34:58Z</time>
      </trkpt>
      <trkpt lat="46.21974" lon="4.50433">
        <ele>624.2</ele>
        <time>2025-09-20T11:34:59Z</time>
      </trkpt>
      <trkpt lat="46.21976" lon="4.50429">
        <ele>624.2</ele>
        <time>2025-09-20T11:35:00Z</time>
      </trkpt>
      <trkpt lat="46.21978" lon="4.50424">
        <ele>624.4</ele>
        <time>2025-09-20T11:35:01Z</time>
      </trkpt>
      <trkpt lat="46.21979" lon="4.5042">
        <ele>624.4</ele>
        <time>2025-09-20T11:35:02Z</time>
      </trkpt>
      <trkpt lat="46.21981" lon="4.50416">
        <ele>625.2</ele>
        <time>2025-09-20T11:35:03Z</time>
      </trkpt>
      <trkpt lat="46.21982" lon="4.50411">
        <ele>625.2</ele>
        <time>2025-09-20T11:35:04Z</time>
      </trkpt>
      <trkpt lat="46.21983" lon="4.50408">
        <ele>625.2</ele>
        <time>2025-09-20T11:35:05Z</time>
      </trkpt>
      <trkpt lat="46.21983" lon="4.50405">
        <ele>625.2</ele>
        <time>2025-09-20T11:35:06Z</time>
      </trkpt>
      <trkpt lat="46.21985" lon="4.50401">
        <ele>625.2</ele>
        <time>2025-09-20T11:35:07Z</time>
      </trkpt>
      <trkpt lat="46.21987" lon="4.50397">
        <ele>625.4</ele>
        <time>2025-09-20T11:35:08Z</time>
      </trkpt>
      <trkpt lat="46.2199" lon="4.50392">
        <ele>625.4</ele>
        <time>2025-09-20T11:35:09Z</time>
      </trkpt>
      <trkpt lat="46.21992" lon="4.50388">
        <ele>625.4</ele>
        <time>2025-09-20T11:35:10Z</time>
      </trkpt>
      <trkpt lat="46.21995" lon="4.50384">
        <ele>625.8</ele>
        <time>2025-09-20T11:35:11Z</time>
      </trkpt>
      <trkpt lat="46.21996" lon="4.50381">
        <ele>625.8</ele>
        <time>2025-09-20T11:35:12Z</time>
      </trkpt>
      <trkpt lat="46.21998" lon="4.50377">
        <ele>625.8</ele>
        <time>2025-09-20T11:35:13Z</time>
      </trkpt>
      <trkpt lat="46.22" lon="4.50373">
        <ele>625.8</ele>
        <time>2025-09-20T11:35:14Z</time>
      </trkpt>
      <trkpt lat="46.22001" lon="4.5037">
        <ele>625.8</ele>
        <time>2025-09-20T11:35:15Z</time>
      </trkpt>
      <trkpt lat="46.22003" lon="4.50368">
        <ele>625.8</ele>
        <time>2025-09-20T11:35:16Z</time>
      </trkpt>
      <trkpt lat="46.22006" lon="4.50365">
        <ele>625.8</ele>
        <time>2025-09-20T11:35:17Z</time>
      </trkpt>
      <trkpt lat="46.22012" lon="4.5036">
        <ele>626.2</ele>
        <time>2025-09-20T11:35:18Z</time>
      </trkpt>
      <trkpt lat="46.22014" lon="4.50357">
        <ele>626.2</ele>
        <time>2025-09-20T11:35:19Z</time>
      </trkpt>
      <trkpt lat="46.22016" lon="4.50354">
        <ele>626.2</ele>
        <time>2025-09-20T11:35:20Z</time>
      </trkpt>
      <trkpt lat="46.22018" lon="4.5035">
        <ele>626.2</ele>
        <time>2025-09-20T11:35:21Z</time>
      </trkpt>
      <trkpt lat="46.22021" lon="4.50347">
        <ele>626.2</ele>
        <time>2025-09-20T11:35:22Z</time>
      </trkpt>
      <trkpt lat="46.22023" lon="4.50345">
        <ele>626.6</ele>
        <time>2025-09-20T11:35:23Z</time>
      </trkpt>
      <trkpt lat="46.22025" lon="4.50342">
        <ele>626.8</ele>
        <time>2025-09-20T11:35:24Z</time>
      </trkpt>
      <trkpt lat="46.22027" lon="4.5034">
        <ele>626.8</ele>
        <time>2025-09-20T11:35:25Z</time>
      </trkpt>
      <trkpt lat="46.2203" lon="4.50337">
        <ele>627.2</ele>
        <time>2025-09-20T11:35:26Z</time>
      </trkpt>
      <trkpt lat="46.22033" lon="4.50334">
        <ele>627.2</ele>
        <time>2025-09-20T11:35:27Z</time>
      </trkpt>
      <trkpt lat="46.22036" lon="4.50332">
        <ele>627.4</ele>
        <time>2025-09-20T11:35:28Z</time>
      </trkpt>
      <trkpt lat="46.22038" lon="4.5033">
        <ele>627.4</ele>
        <time>2025-09-20T11:35:29Z</time>
      </trkpt>
      <trkpt lat="46.2204" lon="4.50329">
        <ele>627.4</ele>
        <time>2025-09-20T11:35:30Z</time>
      </trkpt>
      <trkpt lat="46.22043" lon="4.50327">
        <ele>627</ele>
        <time>2025-09-20T11:35:31Z</time>
      </trkpt>
      <trkpt lat="46.22046" lon="4.50326">
        <ele>627</ele>
        <time>2025-09-20T11:35:32Z</time>
      </trkpt>
      <trkpt lat="46.22048" lon="4.50325">
        <ele>627</ele>
        <time>2025-09-20T11:35:33Z</time>
      </trkpt>
      <trkpt lat="46.2205" lon="4.50323">
        <ele>627.4</ele>
        <time>2025-09-20T11:35:34Z</time>
      </trkpt>
      <trkpt lat="46.22053" lon="4.50321">
        <ele>628</ele>
        <time>2025-09-20T11:35:35Z</time>
      </trkpt>
      <trkpt lat="46.22056" lon="4.50319">
        <ele>628</ele>
        <time>2025-09-20T11:35:36Z</time>
      </trkpt>
      <trkpt lat="46.22059" lon="4.50317">
        <ele>628</ele>
        <time>2025-09-20T11:35:37Z</time>
      </trkpt>
      <trkpt lat="46.22062" lon="4.50315">
        <ele>628</ele>
        <time>2025-09-20T11:35:38Z</time>
      </trkpt>
      <trkpt lat="46.22065" lon="4.50314">
        <ele>628.2</ele>
        <time>2025-09-20T11:35:39Z</time>
      </trkpt>
      <trkpt lat="46.22068" lon="4.50312">
        <ele>628.2</ele>
        <time>2025-09-20T11:35:40Z</time>
      </trkpt>
      <trkpt lat="46.22072" lon="4.5031">
        <ele>628.2</ele>
        <time>2025-09-20T11:35:41Z</time>
      </trkpt>
      <trkpt lat="46.22076" lon="4.50308">
        <ele>628.4</ele>
        <time>2025-09-20T11:35:42Z</time>
      </trkpt>
      <trkpt lat="46.22079" lon="4.50306">
        <ele>628.4</ele>
        <time>2025-09-20T11:35:43Z</time>
      </trkpt>
      <trkpt lat="46.22082" lon="4.50303">
        <ele>629</ele>
        <time>2025-09-20T11:35:44Z</time>
      </trkpt>
      <trkpt lat="46.22085" lon="4.50301">
        <ele>629</ele>
        <time>2025-09-20T11:35:45Z</time>
      </trkpt>
      <trkpt lat="46.22088" lon="4.50299">
        <ele>629.2</ele>
        <time>2025-09-20T11:35:46Z</time>
      </trkpt>
      <trkpt lat="46.22091" lon="4.50296">
        <ele>629.2</ele>
        <time>2025-09-20T11:35:47Z</time>
      </trkpt>
      <trkpt lat="46.22094" lon="4.50293">
        <ele>629.6</ele>
        <time>2025-09-20T11:35:48Z</time>
      </trkpt>
      <trkpt lat="46.22097" lon="4.50291">
        <ele>629.6</ele>
        <time>2025-09-20T11:35:49Z</time>
      </trkpt>
      <trkpt lat="46.22099" lon="4.50288">
        <ele>629.6</ele>
        <time>2025-09-20T11:35:50Z</time>
      </trkpt>
      <trkpt lat="46.22102" lon="4.50285">
        <ele>629.8</ele>
        <time>2025-09-20T11:35:51Z</time>
      </trkpt>
      <trkpt lat="46.22104" lon="4.50283">
        <ele>630</ele>
        <time>2025-09-20T11:35:52Z</time>
      </trkpt>
      <trkpt lat="46.22106" lon="4.5028">
        <ele>630</ele>
        <time>2025-09-20T11:35:53Z</time>
      </trkpt>
      <trkpt lat="46.22108" lon="4.50276">
        <ele>630.4</ele>
        <time>2025-09-20T11:35:54Z</time>
      </trkpt>
      <trkpt lat="46.22111" lon="4.50273">
        <ele>630.4</ele>
        <time>2025-09-20T11:35:55Z</time>
      </trkpt>
      <trkpt lat="46.22113" lon="4.5027">
        <ele>630.8</ele>
        <time>2025-09-20T11:35:56Z</time>
      </trkpt>
      <trkpt lat="46.22115" lon="4.50267">
        <ele>630.6</ele>
        <time>2025-09-20T11:35:57Z</time>
      </trkpt>
      <trkpt lat="46.22117" lon="4.50263">
        <ele>630.8</ele>
        <time>2025-09-20T11:35:58Z</time>
      </trkpt>
      <trkpt lat="46.22119" lon="4.50259">
        <ele>630.8</ele>
        <time>2025-09-20T11:35:59Z</time>
      </trkpt>
      <trkpt lat="46.22121" lon="4.50256">
        <ele>630.8</ele>
        <time>2025-09-20T11:36:00Z</time>
      </trkpt>
      <trkpt lat="46.22123" lon="4.50252">
        <ele>630.8</ele>
        <time>2025-09-20T11:36:01Z</time>
      </trkpt>
      <trkpt lat="46.22126" lon="4.50249">
        <ele>631</ele>
        <time>2025-09-20T11:36:02Z</time>
      </trkpt>
      <trkpt lat="46.22128" lon="4.50244">
        <ele>631</ele>
        <time>2025-09-20T11:36:03Z</time>
      </trkpt>
      <trkpt lat="46.22131" lon="4.50241">
        <ele>631</ele>
        <time>2025-09-20T11:36:04Z</time>
      </trkpt>
      <trkpt lat="46.22132" lon="4.50238">
        <ele>631</ele>
        <time>2025-09-20T11:36:05Z</time>
      </trkpt>
      <trkpt lat="46.22134" lon="4.50234">
        <ele>631.2</ele>
        <time>2025-09-20T11:36:06Z</time>
      </trkpt>
      <trkpt lat="46.22135" lon="4.50229">
        <ele>631.4</ele>
        <time>2025-09-20T11:36:07Z</time>
      </trkpt>
      <trkpt lat="46.22136" lon="4.50225">
        <ele>631.4</ele>
        <time>2025-09-20T11:36:08Z</time>
      </trkpt>
      <trkpt lat="46.22137" lon="4.50222">
        <ele>631.8</ele>
        <time>2025-09-20T11:36:09Z</time>
      </trkpt>
      <trkpt lat="46.22139" lon="4.50218">
        <ele>631.4</ele>
        <time>2025-09-20T11:36:10Z</time>
      </trkpt>
      <trkpt lat="46.22142" lon="4.50214">
        <ele>631.4</ele>
        <time>2025-09-20T11:36:11Z</time>
      </trkpt>
      <trkpt lat="46.22144" lon="4.50211">
        <ele>631.4</ele>
        <time>2025-09-20T11:36:12Z</time>
      </trkpt>
      <trkpt lat="46.22146" lon="4.50209">
        <ele>631.4</ele>
        <time>2025-09-20T11:36:13Z</time>
      </trkpt>
      <trkpt lat="46.22147" lon="4.50207">
        <ele>631.6</ele>
        <time>2025-09-20T11:36:14Z</time>
      </trkpt>
      <trkpt lat="46.22149" lon="4.50205">
        <ele>632</ele>
        <time>2025-09-20T11:36:15Z</time>
      </trkpt>
      <trkpt lat="46.22152" lon="4.50203">
        <ele>632.4</ele>
        <time>2025-09-20T11:36:16Z</time>
      </trkpt>
      <trkpt lat="46.22155" lon="4.502">
        <ele>632.4</ele>
        <time>2025-09-20T11:36:17Z</time>
      </trkpt>
      <trkpt lat="46.22159" lon="4.50198">
        <ele>632.6</ele>
        <time>2025-09-20T11:36:18Z</time>
      </trkpt>
      <trkpt lat="46.22162" lon="4.50195">
        <ele>632.6</ele>
        <time>2025-09-20T11:36:19Z</time>
      </trkpt>
      <trkpt lat="46.22164" lon="4.50193">
        <ele>633.6</ele>
        <time>2025-09-20T11:36:20Z</time>
      </trkpt>
      <trkpt lat="46.22166" lon="4.50191">
        <ele>633.6</ele>
        <time>2025-09-20T11:36:21Z</time>
      </trkpt>
      <trkpt lat="46.22169" lon="4.50188">
        <ele>633.8</ele>
        <time>2025-09-20T11:36:22Z</time>
      </trkpt>
      <trkpt lat="46.22171" lon="4.50186">
        <ele>633.8</ele>
        <time>2025-09-20T11:36:23Z</time>
      </trkpt>
      <trkpt lat="46.22173" lon="4.50183">
        <ele>633.4</ele>
        <time>2025-09-20T11:36:24Z</time>
      </trkpt>
      <trkpt lat="46.22176" lon="4.50181">
        <ele>634</ele>
        <time>2025-09-20T11:36:25Z</time>
      </trkpt>
      <trkpt lat="46.22179" lon="4.50179">
        <ele>634.4</ele>
        <time>2025-09-20T11:36:26Z</time>
      </trkpt>
      <trkpt lat="46.22182" lon="4.50177">
        <ele>634.4</ele>
        <time>2025-09-20T11:36:27Z</time>
      </trkpt>
      <trkpt lat="46.22186" lon="4.50176">
        <ele>634.2</ele>
        <time>2025-09-20T11:36:28Z</time>
      </trkpt>
      <trkpt lat="46.22189" lon="4.50175">
        <ele>634.2</ele>
        <time>2025-09-20T11:36:29Z</time>
      </trkpt>
      <trkpt lat="46.22192" lon="4.50173">
        <ele>634.2</ele>
        <time>2025-09-20T11:36:30Z</time>
      </trkpt>
      <trkpt lat="46.22195" lon="4.50172">
        <ele>634.2</ele>
        <time>2025-09-20T11:36:31Z</time>
      </trkpt>
      <trkpt lat="46.22197" lon="4.5017">
        <ele>634.2</ele>
        <time>2025-09-20T11:36:32Z</time>
      </trkpt>
      <trkpt lat="46.222" lon="4.50168">
        <ele>634.2</ele>
        <time>2025-09-20T11:36:33Z</time>
      </trkpt>
      <trkpt lat="46.22203" lon="4.50167">
        <ele>634.2</ele>
        <time>2025-09-20T11:36:34Z</time>
      </trkpt>
      <trkpt lat="46.22206" lon="4.50165">
        <ele>634.6</ele>
        <time>2025-09-20T11:36:35Z</time>
      </trkpt>
      <trkpt lat="46.2221" lon="4.50162">
        <ele>634.8</ele>
        <time>2025-09-20T11:36:36Z</time>
      </trkpt>
      <trkpt lat="46.2221" lon="4.50162">
        <ele>635.2</ele>
        <time>2025-09-20T11:36:37Z</time>
      </trkpt>
      <trkpt lat="46.22213" lon="4.50159">
        <ele>634.8</ele>
        <time>2025-09-20T11:36:38Z</time>
      </trkpt>
      <trkpt lat="46.22216" lon="4.50157">
        <ele>635</ele>
        <time>2025-09-20T11:36:39Z</time>
      </trkpt>
      <trkpt lat="46.22219" lon="4.50155">
        <ele>635</ele>
        <time>2025-09-20T11:36:40Z</time>
      </trkpt>
      <trkpt lat="46.22221" lon="4.50154">
        <ele>635</ele>
        <time>2025-09-20T11:36:41Z</time>
      </trkpt>
      <trkpt lat="46.22224" lon="4.50152">
        <ele>635.6</ele>
        <time>2025-09-20T11:36:42Z</time>
      </trkpt>
      <trkpt lat="46.22227" lon="4.5015">
        <ele>635.4</ele>
        <time>2025-09-20T11:36:43Z</time>
      </trkpt>
      <trkpt lat="46.22229" lon="4.50149">
        <ele>635.8</ele>
        <time>2025-09-20T11:36:44Z</time>
      </trkpt>
      <trkpt lat="46.22231" lon="4.50146">
        <ele>635.4</ele>
        <time>2025-09-20T11:36:45Z</time>
      </trkpt>
      <trkpt lat="46.22233" lon="4.50143">
        <ele>635.4</ele>
        <time>2025-09-20T11:36:46Z</time>
      </trkpt>
      <trkpt lat="46.22235" lon="4.50141">
        <ele>635.4</ele>
        <time>2025-09-20T11:36:47Z</time>
      </trkpt>
      <trkpt lat="46.22236" lon="4.50141">
        <ele>635.8</ele>
        <time>2025-09-20T11:36:48Z</time>
      </trkpt>
      <trkpt lat="46.22236" lon="4.5014">
        <ele>636</ele>
        <time>2025-09-20T11:36:49Z</time>
      </trkpt>
      <trkpt lat="46.22238" lon="4.50138">
        <ele>636</ele>
        <time>2025-09-20T11:36:50Z</time>
      </trkpt>
      <trkpt lat="46.22241" lon="4.50134">
        <ele>636</ele>
        <time>2025-09-20T11:36:51Z</time>
      </trkpt>
      <trkpt lat="46.22243" lon="4.50131">
        <ele>636.4</ele>
        <time>2025-09-20T11:36:52Z</time>
      </trkpt>
      <trkpt lat="46.22246" lon="4.50128">
        <ele>636.4</ele>
        <time>2025-09-20T11:36:53Z</time>
      </trkpt>
      <trkpt lat="46.22248" lon="4.50125">
        <ele>637.4</ele>
        <time>2025-09-20T11:36:54Z</time>
      </trkpt>
      <trkpt lat="46.2225" lon="4.50122">
        <ele>637.4</ele>
        <time>2025-09-20T11:36:55Z</time>
      </trkpt>
      <trkpt lat="46.22252" lon="4.50118">
        <ele>637.4</ele>
        <time>2025-09-20T11:36:56Z</time>
      </trkpt>
      <trkpt lat="46.22255" lon="4.50115">
        <ele>637.4</ele>
        <time>2025-09-20T11:36:57Z</time>
      </trkpt>
      <trkpt lat="46.22257" lon="4.50112">
        <ele>637.4</ele>
        <time>2025-09-20T11:36:58Z</time>
      </trkpt>
      <trkpt lat="46.22259" lon="4.50109">
        <ele>637.4</ele>
        <time>2025-09-20T11:36:59Z</time>
      </trkpt>
      <trkpt lat="46.22262" lon="4.50106">
        <ele>637.4</ele>
        <time>2025-09-20T11:37:00Z</time>
      </trkpt>
      <trkpt lat="46.22265" lon="4.50103">
        <ele>637.4</ele>
        <time>2025-09-20T11:37:01Z</time>
      </trkpt>
      <trkpt lat="46.22268" lon="4.501">
        <ele>637.4</ele>
        <time>2025-09-20T11:37:02Z</time>
      </trkpt>
      <trkpt lat="46.22271" lon="4.50097">
        <ele>637.4</ele>
        <time>2025-09-20T11:37:03Z</time>
      </trkpt>
      <trkpt lat="46.22273" lon="4.50094">
        <ele>637.4</ele>
        <time>2025-09-20T11:37:04Z</time>
      </trkpt>
      <trkpt lat="46.22275" lon="4.50091">
        <ele>637.4</ele>
        <time>2025-09-20T11:37:05Z</time>
      </trkpt>
      <trkpt lat="46.22277" lon="4.50088">
        <ele>637.6</ele>
        <time>2025-09-20T11:37:06Z</time>
      </trkpt>
      <trkpt lat="46.2228" lon="4.50085">
        <ele>637.8</ele>
        <time>2025-09-20T11:37:07Z</time>
      </trkpt>
      <trkpt lat="46.22283" lon="4.50082">
        <ele>637.8</ele>
        <time>2025-09-20T11:37:08Z</time>
      </trkpt>
      <trkpt lat="46.22284" lon="4.50079">
        <ele>638.2</ele>
        <time>2025-09-20T11:37:09Z</time>
      </trkpt>
      <trkpt lat="46.22286" lon="4.50077">
        <ele>637.8</ele>
        <time>2025-09-20T11:37:10Z</time>
      </trkpt>
      <trkpt lat="46.22288" lon="4.50073">
        <ele>637.8</ele>
        <time>2025-09-20T11:37:11Z</time>
      </trkpt>
      <trkpt lat="46.22289" lon="4.5007">
        <ele>637.8</ele>
        <time>2025-09-20T11:37:12Z</time>
      </trkpt>
      <trkpt lat="46.22291" lon="4.50067">
        <ele>638.4</ele>
        <time>2025-09-20T11:37:13Z</time>
      </trkpt>
      <trkpt lat="46.22292" lon="4.50065">
        <ele>638.6</ele>
        <time>2025-09-20T11:37:14Z</time>
      </trkpt>
      <trkpt lat="46.22294" lon="4.50062">
        <ele>638.6</ele>
        <time>2025-09-20T11:37:15Z</time>
      </trkpt>
      <trkpt lat="46.22297" lon="4.50058">
        <ele>638.6</ele>
        <time>2025-09-20T11:37:16Z</time>
      </trkpt>
      <trkpt lat="46.22299" lon="4.50055">
        <ele>638.6</ele>
        <time>2025-09-20T11:37:17Z</time>
      </trkpt>
      <trkpt lat="46.22301" lon="4.50052">
        <ele>638.6</ele>
        <time>2025-09-20T11:37:18Z</time>
      </trkpt>
      <trkpt lat="46.22304" lon="4.50048">
        <ele>638.8</ele>
        <time>2025-09-20T11:37:19Z</time>
      </trkpt>
      <trkpt lat="46.22306" lon="4.50045">
        <ele>638.8</ele>
        <time>2025-09-20T11:37:20Z</time>
      </trkpt>
      <trkpt lat="46.22308" lon="4.50042">
        <ele>638.8</ele>
        <time>2025-09-20T11:37:21Z</time>
      </trkpt>
      <trkpt lat="46.22311" lon="4.50038">
        <ele>639.6</ele>
        <time>2025-09-20T11:37:22Z</time>
      </trkpt>
      <trkpt lat="46.22313" lon="4.50035">
        <ele>639.6</ele>
        <time>2025-09-20T11:37:23Z</time>
      </trkpt>
      <trkpt lat="46.22316" lon="4.50032">
        <ele>639.6</ele>
        <time>2025-09-20T11:37:24Z</time>
      </trkpt>
      <trkpt lat="46.22318" lon="4.50029">
        <ele>639.6</ele>
        <time>2025-09-20T11:37:25Z</time>
      </trkpt>
      <trkpt lat="46.22321" lon="4.50026">
        <ele>639.6</ele>
        <time>2025-09-20T11:37:26Z</time>
      </trkpt>
      <trkpt lat="46.22323" lon="4.50023">
        <ele>640</ele>
        <time>2025-09-20T11:37:27Z</time>
      </trkpt>
      <trkpt lat="46.22325" lon="4.50019">
        <ele>640</ele>
        <time>2025-09-20T11:37:28Z</time>
      </trkpt>
      <trkpt lat="46.22327" lon="4.50017">
        <ele>640.2</ele>
        <time>2025-09-20T11:37:29Z</time>
      </trkpt>
      <trkpt lat="46.22329" lon="4.50014">
        <ele>640.2</ele>
        <time>2025-09-20T11:37:30Z</time>
      </trkpt>
      <trkpt lat="46.22331" lon="4.50011">
        <ele>640.2</ele>
        <time>2025-09-20T11:37:31Z</time>
      </trkpt>
      <trkpt lat="46.22333" lon="4.50008">
        <ele>640.6</ele>
        <time>2025-09-20T11:37:32Z</time>
      </trkpt>
      <trkpt lat="46.22336" lon="4.50005">
        <ele>640.6</ele>
        <time>2025-09-20T11:37:33Z</time>
      </trkpt>
      <trkpt lat="46.22338" lon="4.50002">
        <ele>640.6</ele>
        <time>2025-09-20T11:37:34Z</time>
      </trkpt>
      <trkpt lat="46.22339" lon="4.49998">
        <ele>640.6</ele>
        <time>2025-09-20T11:37:35Z</time>
      </trkpt>
      <trkpt lat="46.22341" lon="4.49995">
        <ele>640.4</ele>
        <time>2025-09-20T11:37:36Z</time>
      </trkpt>
      <trkpt lat="46.22342" lon="4.49991">
        <ele>640.4</ele>
        <time>2025-09-20T11:37:37Z</time>
      </trkpt>
      <trkpt lat="46.22344" lon="4.49988">
        <ele>640.4</ele>
        <time>2025-09-20T11:37:38Z</time>
      </trkpt>
      <trkpt lat="46.22346" lon="4.49984">
        <ele>640.4</ele>
        <time>2025-09-20T11:37:39Z</time>
      </trkpt>
      <trkpt lat="46.22347" lon="4.49981">
        <ele>640.4</ele>
        <time>2025-09-20T11:37:40Z</time>
      </trkpt>
      <trkpt lat="46.22349" lon="4.49977">
        <ele>640.8</ele>
        <time>2025-09-20T11:37:41Z</time>
      </trkpt>
      <trkpt lat="46.2235" lon="4.49973">
        <ele>640.8</ele>
        <time>2025-09-20T11:37:42Z</time>
      </trkpt>
      <trkpt lat="46.22351" lon="4.49969">
        <ele>641.2</ele>
        <time>2025-09-20T11:37:43Z</time>
      </trkpt>
      <trkpt lat="46.22351" lon="4.49965">
        <ele>641.2</ele>
        <time>2025-09-20T11:37:44Z</time>
      </trkpt>
      <trkpt lat="46.22352" lon="4.4996">
        <ele>641.4</ele>
        <time>2025-09-20T11:37:45Z</time>
      </trkpt>
      <trkpt lat="46.22352" lon="4.49956">
        <ele>641.4</ele>
        <time>2025-09-20T11:37:46Z</time>
      </trkpt>
      <trkpt lat="46.22353" lon="4.49953">
        <ele>641.4</ele>
        <time>2025-09-20T11:37:47Z</time>
      </trkpt>
      <trkpt lat="46.22353" lon="4.49948">
        <ele>641.4</ele>
        <time>2025-09-20T11:37:48Z</time>
      </trkpt>
      <trkpt lat="46.22353" lon="4.49944">
        <ele>641.6</ele>
        <time>2025-09-20T11:37:49Z</time>
      </trkpt>
      <trkpt lat="46.22354" lon="4.4994">
        <ele>641.8</ele>
        <time>2025-09-20T11:37:50Z</time>
      </trkpt>
      <trkpt lat="46.22354" lon="4.49936">
        <ele>641.6</ele>
        <time>2025-09-20T11:37:51Z</time>
      </trkpt>
      <trkpt lat="46.22354" lon="4.49932">
        <ele>641.4</ele>
        <time>2025-09-20T11:37:52Z</time>
      </trkpt>
      <trkpt lat="46.22354" lon="4.49928">
        <ele>641.4</ele>
        <time>2025-09-20T11:37:53Z</time>
      </trkpt>
      <trkpt lat="46.22354" lon="4.49924">
        <ele>641.4</ele>
        <time>2025-09-20T11:37:54Z</time>
      </trkpt>
      <trkpt lat="46.22354" lon="4.4992">
        <ele>641.2</ele>
        <time>2025-09-20T11:37:55Z</time>
      </trkpt>
      <trkpt lat="46.22354" lon="4.49916">
        <ele>641.6</ele>
        <time>2025-09-20T11:37:56Z</time>
      </trkpt>
      <trkpt lat="46.22354" lon="4.49916">
        <ele>641.4</ele>
        <time>2025-09-20T11:37:57Z</time>
      </trkpt>
      <trkpt lat="46.22354" lon="4.49916">
        <ele>641.4</ele>
        <time>2025-09-20T11:37:58Z</time>
      </trkpt>
      <trkpt lat="46.22355" lon="4.49899">
        <ele>641.4</ele>
        <time>2025-09-20T11:38:00Z</time>
      </trkpt>
      <trkpt lat="46.22355" lon="4.49895">
        <ele>641.4</ele>
        <time>2025-09-20T11:38:01Z</time>
      </trkpt>
      <trkpt lat="46.22356" lon="4.4989">
        <ele>641.6</ele>
        <time>2025-09-20T11:38:02Z</time>
      </trkpt>
      <trkpt lat="46.22357" lon="4.49885">
        <ele>641.6</ele>
        <time>2025-09-20T11:38:03Z</time>
      </trkpt>
      <trkpt lat="46.22358" lon="4.49881">
        <ele>642</ele>
        <time>2025-09-20T11:38:04Z</time>
      </trkpt>
      <trkpt lat="46.22359" lon="4.49878">
        <ele>642.4</ele>
        <time>2025-09-20T11:38:05Z</time>
      </trkpt>
      <trkpt lat="46.22359" lon="4.49875">
        <ele>642.4</ele>
        <time>2025-09-20T11:38:06Z</time>
      </trkpt>
      <trkpt lat="46.2236" lon="4.49872">
        <ele>642.4</ele>
        <time>2025-09-20T11:38:07Z</time>
      </trkpt>
      <trkpt lat="46.2236" lon="4.49869">
        <ele>642.4</ele>
        <time>2025-09-20T11:38:08Z</time>
      </trkpt>
      <trkpt lat="46.22361" lon="4.49865">
        <ele>643</ele>
        <time>2025-09-20T11:38:09Z</time>
      </trkpt>
      <trkpt lat="46.22361" lon="4.49862">
        <ele>643.4</ele>
        <time>2025-09-20T11:38:10Z</time>
      </trkpt>
      <trkpt lat="46.22363" lon="4.49858">
        <ele>643.6</ele>
        <time>2025-09-20T11:38:11Z</time>
      </trkpt>
      <trkpt lat="46.22364" lon="4.49854">
        <ele>643.2</ele>
        <time>2025-09-20T11:38:12Z</time>
      </trkpt>
      <trkpt lat="46.22365" lon="4.4985">
        <ele>643.6</ele>
        <time>2025-09-20T11:38:13Z</time>
      </trkpt>
      <trkpt lat="46.22367" lon="4.49847">
        <ele>643.6</ele>
        <time>2025-09-20T11:38:14Z</time>
      </trkpt>
      <trkpt lat="46.22368" lon="4.49843">
        <ele>643.6</ele>
        <time>2025-09-20T11:38:15Z</time>
      </trkpt>
      <trkpt lat="46.2237" lon="4.49839">
        <ele>643.6</ele>
        <time>2025-09-20T11:38:16Z</time>
      </trkpt>
      <trkpt lat="46.22371" lon="4.49835">
        <ele>643.6</ele>
        <time>2025-09-20T11:38:17Z</time>
      </trkpt>
      <trkpt lat="46.22373" lon="4.49832">
        <ele>643.6</ele>
        <time>2025-09-20T11:38:18Z</time>
      </trkpt>
      <trkpt lat="46.22375" lon="4.49828">
        <ele>644</ele>
        <time>2025-09-20T11:38:19Z</time>
      </trkpt>
      <trkpt lat="46.22376" lon="4.49825">
        <ele>644.4</ele>
        <time>2025-09-20T11:38:20Z</time>
      </trkpt>
      <trkpt lat="46.22378" lon="4.49822">
        <ele>644.2</ele>
        <time>2025-09-20T11:38:21Z</time>
      </trkpt>
      <trkpt lat="46.22381" lon="4.4982">
        <ele>644.2</ele>
        <time>2025-09-20T11:38:22Z</time>
      </trkpt>
      <trkpt lat="46.22383" lon="4.49817">
        <ele>644.4</ele>
        <time>2025-09-20T11:38:23Z</time>
      </trkpt>
      <trkpt lat="46.22385" lon="4.49814">
        <ele>644.4</ele>
        <time>2025-09-20T11:38:24Z</time>
      </trkpt>
      <trkpt lat="46.22387" lon="4.49811">
        <ele>644.6</ele>
        <time>2025-09-20T11:38:25Z</time>
      </trkpt>
      <trkpt lat="46.22389" lon="4.49808">
        <ele>645.2</ele>
        <time>2025-09-20T11:38:26Z</time>
      </trkpt>
      <trkpt lat="46.22391" lon="4.49805">
        <ele>645</ele>
        <time>2025-09-20T11:38:27Z</time>
      </trkpt>
      <trkpt lat="46.22394" lon="4.49802">
        <ele>645.2</ele>
        <time>2025-09-20T11:38:28Z</time>
      </trkpt>
      <trkpt lat="46.22396" lon="4.498">
        <ele>644.8</ele>
        <time>2025-09-20T11:38:29Z</time>
      </trkpt>
      <trkpt lat="46.22399" lon="4.49798">
        <ele>645.2</ele>
        <time>2025-09-20T11:38:30Z</time>
      </trkpt>
      <trkpt lat="46.22401" lon="4.49796">
        <ele>645.2</ele>
        <time>2025-09-20T11:38:31Z</time>
      </trkpt>
      <trkpt lat="46.22403" lon="4.49794">
        <ele>645.4</ele>
        <time>2025-09-20T11:38:32Z</time>
      </trkpt>
      <trkpt lat="46.22406" lon="4.49792">
        <ele>645.8</ele>
        <time>2025-09-20T11:38:33Z</time>
      </trkpt>
      <trkpt lat="46.2241" lon="4.49791">
        <ele>645.8</ele>
        <time>2025-09-20T11:38:34Z</time>
      </trkpt>
      <trkpt lat="46.22413" lon="4.49789">
        <ele>645.8</ele>
        <time>2025-09-20T11:38:35Z</time>
      </trkpt>
      <trkpt lat="46.22416" lon="4.49787">
        <ele>645.8</ele>
        <time>2025-09-20T11:38:36Z</time>
      </trkpt>
      <trkpt lat="46.2242" lon="4.49786">
        <ele>645.6</ele>
        <time>2025-09-20T11:38:37Z</time>
      </trkpt>
      <trkpt lat="46.22423" lon="4.49785">
        <ele>645.6</ele>
        <time>2025-09-20T11:38:38Z</time>
      </trkpt>
      <trkpt lat="46.22429" lon="4.49786">
        <ele>645.8</ele>
        <time>2025-09-20T11:38:39Z</time>
      </trkpt>
      <trkpt lat="46.22431" lon="4.49784">
        <ele>645.8</ele>
        <time>2025-09-20T11:38:40Z</time>
      </trkpt>
      <trkpt lat="46.22435" lon="4.49784">
        <ele>645.4</ele>
        <time>2025-09-20T11:38:41Z</time>
      </trkpt>
      <trkpt lat="46.22439" lon="4.49782">
        <ele>645.4</ele>
        <time>2025-09-20T11:38:42Z</time>
      </trkpt>
      <trkpt lat="46.22442" lon="4.49782">
        <ele>645.8</ele>
        <time>2025-09-20T11:38:43Z</time>
      </trkpt>
      <trkpt lat="46.22446" lon="4.49781">
        <ele>645.8</ele>
        <time>2025-09-20T11:38:44Z</time>
      </trkpt>
      <trkpt lat="46.22449" lon="4.4978">
        <ele>646.2</ele>
        <time>2025-09-20T11:38:45Z</time>
      </trkpt>
      <trkpt lat="46.22452" lon="4.49779">
        <ele>646.6</ele>
        <time>2025-09-20T11:38:46Z</time>
      </trkpt>
      <trkpt lat="46.22455" lon="4.49777">
        <ele>646.6</ele>
        <time>2025-09-20T11:38:47Z</time>
      </trkpt>
      <trkpt lat="46.22458" lon="4.49775">
        <ele>647</ele>
        <time>2025-09-20T11:38:48Z</time>
      </trkpt>
      <trkpt lat="46.2246" lon="4.49774">
        <ele>647</ele>
        <time>2025-09-20T11:38:49Z</time>
      </trkpt>
      <trkpt lat="46.22463" lon="4.49774">
        <ele>647</ele>
        <time>2025-09-20T11:38:50Z</time>
      </trkpt>
      <trkpt lat="46.22465" lon="4.49774">
        <ele>647</ele>
        <time>2025-09-20T11:38:51Z</time>
      </trkpt>
      <trkpt lat="46.22468" lon="4.49773">
        <ele>647.2</ele>
        <time>2025-09-20T11:38:52Z</time>
      </trkpt>
      <trkpt lat="46.2247" lon="4.49772">
        <ele>647.2</ele>
        <time>2025-09-20T11:38:53Z</time>
      </trkpt>
      <trkpt lat="46.22474" lon="4.4977">
        <ele>647.4</ele>
        <time>2025-09-20T11:38:54Z</time>
      </trkpt>
      <trkpt lat="46.22477" lon="4.49767">
        <ele>647.4</ele>
        <time>2025-09-20T11:38:55Z</time>
      </trkpt>
      <trkpt lat="46.22481" lon="4.49766">
        <ele>647.4</ele>
        <time>2025-09-20T11:38:56Z</time>
      </trkpt>
      <trkpt lat="46.22484" lon="4.49764">
        <ele>647.4</ele>
        <time>2025-09-20T11:38:57Z</time>
      </trkpt>
      <trkpt lat="46.22487" lon="4.49761">
        <ele>647.4</ele>
        <time>2025-09-20T11:38:58Z</time>
      </trkpt>
      <trkpt lat="46.2249" lon="4.49759">
        <ele>647.4</ele>
        <time>2025-09-20T11:38:59Z</time>
      </trkpt>
      <trkpt lat="46.22492" lon="4.49756">
        <ele>647.4</ele>
        <time>2025-09-20T11:39:00Z</time>
      </trkpt>
      <trkpt lat="46.22495" lon="4.49753">
        <ele>647.4</ele>
        <time>2025-09-20T11:39:01Z</time>
      </trkpt>
      <trkpt lat="46.22497" lon="4.4975">
        <ele>647.4</ele>
        <time>2025-09-20T11:39:02Z</time>
      </trkpt>
      <trkpt lat="46.225" lon="4.49747">
        <ele>648</ele>
        <time>2025-09-20T11:39:03Z</time>
      </trkpt>
      <trkpt lat="46.22502" lon="4.49744">
        <ele>648.2</ele>
        <time>2025-09-20T11:39:04Z</time>
      </trkpt>
      <trkpt lat="46.22504" lon="4.49741">
        <ele>648.6</ele>
        <time>2025-09-20T11:39:05Z</time>
      </trkpt>
      <trkpt lat="46.22507" lon="4.49737">
        <ele>648.6</ele>
        <time>2025-09-20T11:39:06Z</time>
      </trkpt>
      <trkpt lat="46.22509" lon="4.49733">
        <ele>649</ele>
        <time>2025-09-20T11:39:07Z</time>
      </trkpt>
      <trkpt lat="46.22511" lon="4.49729">
        <ele>649.6</ele>
        <time>2025-09-20T11:39:08Z</time>
      </trkpt>
      <trkpt lat="46.22515" lon="4.49723">
        <ele>649.6</ele>
        <time>2025-09-20T11:39:09Z</time>
      </trkpt>
      <trkpt lat="46.22518" lon="4.49719">
        <ele>648.8</ele>
        <time>2025-09-20T11:39:10Z</time>
      </trkpt>
      <trkpt lat="46.2252" lon="4.49715">
        <ele>649</ele>
        <time>2025-09-20T11:39:11Z</time>
      </trkpt>
      <trkpt lat="46.22522" lon="4.4971">
        <ele>649.2</ele>
        <time>2025-09-20T11:39:12Z</time>
      </trkpt>
      <trkpt lat="46.22525" lon="4.49705">
        <ele>649.2</ele>
        <time>2025-09-20T11:39:13Z</time>
      </trkpt>
      <trkpt lat="46.22527" lon="4.497">
        <ele>649.2</ele>
        <time>2025-09-20T11:39:14Z</time>
      </trkpt>
      <trkpt lat="46.22529" lon="4.49695">
        <ele>649.2</ele>
        <time>2025-09-20T11:39:15Z</time>
      </trkpt>
      <trkpt lat="46.22531" lon="4.49691">
        <ele>649.2</ele>
        <time>2025-09-20T11:39:16Z</time>
      </trkpt>
      <trkpt lat="46.22532" lon="4.49688">
        <ele>649.2</ele>
        <time>2025-09-20T11:39:17Z</time>
      </trkpt>
      <trkpt lat="46.22535" lon="4.49682">
        <ele>649.4</ele>
        <time>2025-09-20T11:39:18Z</time>
      </trkpt>
      <trkpt lat="46.22537" lon="4.4968">
        <ele>649.2</ele>
        <time>2025-09-20T11:39:19Z</time>
      </trkpt>
      <trkpt lat="46.22539" lon="4.49676">
        <ele>649.2</ele>
        <time>2025-09-20T11:39:20Z</time>
      </trkpt>
      <trkpt lat="46.22541" lon="4.49672">
        <ele>649.4</ele>
        <time>2025-09-20T11:39:21Z</time>
      </trkpt>
      <trkpt lat="46.22543" lon="4.49669">
        <ele>649.6</ele>
        <time>2025-09-20T11:39:22Z</time>
      </trkpt>
      <trkpt lat="46.22545" lon="4.49667">
        <ele>649.6</ele>
        <time>2025-09-20T11:39:23Z</time>
      </trkpt>
      <trkpt lat="46.22548" lon="4.49663">
        <ele>648.8</ele>
        <time>2025-09-20T11:39:24Z</time>
      </trkpt>
      <trkpt lat="46.22551" lon="4.4966">
        <ele>649.6</ele>
        <time>2025-09-20T11:39:25Z</time>
      </trkpt>
      <trkpt lat="46.22553" lon="4.49657">
        <ele>649.6</ele>
        <time>2025-09-20T11:39:26Z</time>
      </trkpt>
      <trkpt lat="46.22555" lon="4.49654">
        <ele>650</ele>
        <time>2025-09-20T11:39:27Z</time>
      </trkpt>
      <trkpt lat="46.22557" lon="4.4965">
        <ele>650</ele>
        <time>2025-09-20T11:39:28Z</time>
      </trkpt>
      <trkpt lat="46.2256" lon="4.49646">
        <ele>650</ele>
        <time>2025-09-20T11:39:29Z</time>
      </trkpt>
      <trkpt lat="46.22563" lon="4.49642">
        <ele>650.2</ele>
        <time>2025-09-20T11:39:30Z</time>
      </trkpt>
      <trkpt lat="46.22565" lon="4.49638">
        <ele>650.2</ele>
        <time>2025-09-20T11:39:31Z</time>
      </trkpt>
      <trkpt lat="46.22571" lon="4.49632">
        <ele>650.2</ele>
        <time>2025-09-20T11:39:32Z</time>
      </trkpt>
      <trkpt lat="46.22574" lon="4.49631">
        <ele>650.2</ele>
        <time>2025-09-20T11:39:33Z</time>
      </trkpt>
      <trkpt lat="46.22577" lon="4.49625">
        <ele>650.4</ele>
        <time>2025-09-20T11:39:34Z</time>
      </trkpt>
      <trkpt lat="46.22579" lon="4.49621">
        <ele>650.4</ele>
        <time>2025-09-20T11:39:35Z</time>
      </trkpt>
      <trkpt lat="46.22583" lon="4.4962">
        <ele>650.4</ele>
        <time>2025-09-20T11:39:36Z</time>
      </trkpt>
      <trkpt lat="46.22586" lon="4.49618">
        <ele>651</ele>
        <time>2025-09-20T11:39:37Z</time>
      </trkpt>
      <trkpt lat="46.22588" lon="4.49615">
        <ele>650.8</ele>
        <time>2025-09-20T11:39:38Z</time>
      </trkpt>
      <trkpt lat="46.22593" lon="4.49611">
        <ele>650.8</ele>
        <time>2025-09-20T11:39:39Z</time>
      </trkpt>
      <trkpt lat="46.22596" lon="4.49608">
        <ele>651.2</ele>
        <time>2025-09-20T11:39:40Z</time>
      </trkpt>
      <trkpt lat="46.22601" lon="4.49604">
        <ele>651.4</ele>
        <time>2025-09-20T11:39:41Z</time>
      </trkpt>
      <trkpt lat="46.22604" lon="4.49601">
        <ele>651.6</ele>
        <time>2025-09-20T11:39:42Z</time>
      </trkpt>
      <trkpt lat="46.22607" lon="4.49598">
        <ele>651.6</ele>
        <time>2025-09-20T11:39:43Z</time>
      </trkpt>
      <trkpt lat="46.2261" lon="4.49595">
        <ele>651.6</ele>
        <time>2025-09-20T11:39:44Z</time>
      </trkpt>
      <trkpt lat="46.22613" lon="4.49592">
        <ele>651.6</ele>
        <time>2025-09-20T11:39:45Z</time>
      </trkpt>
      <trkpt lat="46.22617" lon="4.49588">
        <ele>651.6</ele>
        <time>2025-09-20T11:39:46Z</time>
      </trkpt>
      <trkpt lat="46.2262" lon="4.49585">
        <ele>652</ele>
        <time>2025-09-20T11:39:47Z</time>
      </trkpt>
      <trkpt lat="46.22623" lon="4.49583">
        <ele>652</ele>
        <time>2025-09-20T11:39:48Z</time>
      </trkpt>
      <trkpt lat="46.22626" lon="4.49579">
        <ele>651.6</ele>
        <time>2025-09-20T11:39:49Z</time>
      </trkpt>
      <trkpt lat="46.22629" lon="4.49576">
        <ele>651.6</ele>
        <time>2025-09-20T11:39:50Z</time>
      </trkpt>
      <trkpt lat="46.2263" lon="4.49573">
        <ele>651.8</ele>
        <time>2025-09-20T11:39:51Z</time>
      </trkpt>
      <trkpt lat="46.22632" lon="4.49571">
        <ele>651.8</ele>
        <time>2025-09-20T11:39:52Z</time>
      </trkpt>
      <trkpt lat="46.22635" lon="4.49569">
        <ele>651.8</ele>
        <time>2025-09-20T11:39:53Z</time>
      </trkpt>
      <trkpt lat="46.22638" lon="4.49567">
        <ele>651.8</ele>
        <time>2025-09-20T11:39:54Z</time>
      </trkpt>
      <trkpt lat="46.22641" lon="4.49564">
        <ele>651.8</ele>
        <time>2025-09-20T11:39:55Z</time>
      </trkpt>
      <trkpt lat="46.22645" lon="4.49561">
        <ele>651.8</ele>
        <time>2025-09-20T11:39:56Z</time>
      </trkpt>
      <trkpt lat="46.22648" lon="4.49557">
        <ele>651.8</ele>
        <time>2025-09-20T11:39:57Z</time>
      </trkpt>
      <trkpt lat="46.22655" lon="4.4955">
        <ele>651.8</ele>
        <time>2025-09-20T11:39:58Z</time>
      </trkpt>
      <trkpt lat="46.22657" lon="4.49549">
        <ele>652.6</ele>
        <time>2025-09-20T11:39:59Z</time>
      </trkpt>
      <trkpt lat="46.22661" lon="4.49546">
        <ele>653</ele>
        <time>2025-09-20T11:40:00Z</time>
      </trkpt>
      <trkpt lat="46.22663" lon="4.49545">
        <ele>653</ele>
        <time>2025-09-20T11:40:01Z</time>
      </trkpt>
      <trkpt lat="46.22668" lon="4.49544">
        <ele>653</ele>
        <time>2025-09-20T11:40:02Z</time>
      </trkpt>
      <trkpt lat="46.22671" lon="4.49544">
        <ele>653</ele>
        <time>2025-09-20T11:40:03Z</time>
      </trkpt>
      <trkpt lat="46.22675" lon="4.49543">
        <ele>652.6</ele>
        <time>2025-09-20T11:40:04Z</time>
      </trkpt>
      <trkpt lat="46.2268" lon="4.49545">
        <ele>652.8</ele>
        <time>2025-09-20T11:40:05Z</time>
      </trkpt>
      <trkpt lat="46.22683" lon="4.49543">
        <ele>652.8</ele>
        <time>2025-09-20T11:40:06Z</time>
      </trkpt>
      <trkpt lat="46.22693" lon="4.49542">
        <ele>652.8</ele>
        <time>2025-09-20T11:40:07Z</time>
      </trkpt>
      <trkpt lat="46.22697" lon="4.49541">
        <ele>652.8</ele>
        <time>2025-09-20T11:40:08Z</time>
      </trkpt>
      <trkpt lat="46.22701" lon="4.49541">
        <ele>651.2</ele>
        <time>2025-09-20T11:40:09Z</time>
      </trkpt>
      <trkpt lat="46.22705" lon="4.49541">
        <ele>651.6</ele>
        <time>2025-09-20T11:40:10Z</time>
      </trkpt>
      <trkpt lat="46.22709" lon="4.49542">
        <ele>652.2</ele>
        <time>2025-09-20T11:40:11Z</time>
      </trkpt>
      <trkpt lat="46.22713" lon="4.49542">
        <ele>652.2</ele>
        <time>2025-09-20T11:40:12Z</time>
      </trkpt>
      <trkpt lat="46.22717" lon="4.49543">
        <ele>652.6</ele>
        <time>2025-09-20T11:40:13Z</time>
      </trkpt>
      <trkpt lat="46.2272" lon="4.49544">
        <ele>653</ele>
        <time>2025-09-20T11:40:14Z</time>
      </trkpt>
      <trkpt lat="46.22724" lon="4.49546">
        <ele>653.2</ele>
        <time>2025-09-20T11:40:15Z</time>
      </trkpt>
      <trkpt lat="46.22727" lon="4.49547">
        <ele>653.2</ele>
        <time>2025-09-20T11:40:16Z</time>
      </trkpt>
      <trkpt lat="46.22731" lon="4.49549">
        <ele>653.2</ele>
        <time>2025-09-20T11:40:17Z</time>
      </trkpt>
      <trkpt lat="46.22734" lon="4.4955">
        <ele>653.4</ele>
        <time>2025-09-20T11:40:18Z</time>
      </trkpt>
      <trkpt lat="46.22737" lon="4.49551">
        <ele>654.2</ele>
        <time>2025-09-20T11:40:19Z</time>
      </trkpt>
      <trkpt lat="46.22739" lon="4.49552">
        <ele>654.2</ele>
        <time>2025-09-20T11:40:20Z</time>
      </trkpt>
      <trkpt lat="46.22741" lon="4.49554">
        <ele>654.6</ele>
        <time>2025-09-20T11:40:21Z</time>
      </trkpt>
      <trkpt lat="46.22743" lon="4.49556">
        <ele>654.4</ele>
        <time>2025-09-20T11:40:22Z</time>
      </trkpt>
      <trkpt lat="46.22746" lon="4.49558">
        <ele>654.4</ele>
        <time>2025-09-20T11:40:23Z</time>
      </trkpt>
      <trkpt lat="46.22749" lon="4.4956">
        <ele>653.8</ele>
        <time>2025-09-20T11:40:24Z</time>
      </trkpt>
      <trkpt lat="46.22752" lon="4.49562">
        <ele>653.6</ele>
        <time>2025-09-20T11:40:25Z</time>
      </trkpt>
      <trkpt lat="46.22755" lon="4.49564">
        <ele>653.8</ele>
        <time>2025-09-20T11:40:26Z</time>
      </trkpt>
      <trkpt lat="46.22758" lon="4.49566">
        <ele>654</ele>
        <time>2025-09-20T11:40:27Z</time>
      </trkpt>
      <trkpt lat="46.22762" lon="4.49568">
        <ele>654.6</ele>
        <time>2025-09-20T11:40:28Z</time>
      </trkpt>
      <trkpt lat="46.22765" lon="4.49569">
        <ele>654.6</ele>
        <time>2025-09-20T11:40:29Z</time>
      </trkpt>
      <trkpt lat="46.22768" lon="4.4957">
        <ele>654.6</ele>
        <time>2025-09-20T11:40:30Z</time>
      </trkpt>
      <trkpt lat="46.2277" lon="4.49571">
        <ele>654.6</ele>
        <time>2025-09-20T11:40:31Z</time>
      </trkpt>
      <trkpt lat="46.22773" lon="4.49573">
        <ele>654.2</ele>
        <time>2025-09-20T11:40:32Z</time>
      </trkpt>
      <trkpt lat="46.22777" lon="4.49574">
        <ele>654.2</ele>
        <time>2025-09-20T11:40:33Z</time>
      </trkpt>
      <trkpt lat="46.2278" lon="4.49574">
        <ele>654.6</ele>
        <time>2025-09-20T11:40:34Z</time>
      </trkpt>
      <trkpt lat="46.22783" lon="4.49574">
        <ele>654.6</ele>
        <time>2025-09-20T11:40:35Z</time>
      </trkpt>
      <trkpt lat="46.22786" lon="4.49574">
        <ele>654.6</ele>
        <time>2025-09-20T11:40:36Z</time>
      </trkpt>
      <trkpt lat="46.22789" lon="4.49574">
        <ele>654.6</ele>
        <time>2025-09-20T11:40:37Z</time>
      </trkpt>
      <trkpt lat="46.22792" lon="4.49574">
        <ele>655.2</ele>
        <time>2025-09-20T11:40:38Z</time>
      </trkpt>
      <trkpt lat="46.22794" lon="4.49574">
        <ele>655.2</ele>
        <time>2025-09-20T11:40:39Z</time>
      </trkpt>
      <trkpt lat="46.22796" lon="4.49573">
        <ele>655.2</ele>
        <time>2025-09-20T11:40:40Z</time>
      </trkpt>
      <trkpt lat="46.22799" lon="4.49572">
        <ele>655.2</ele>
        <time>2025-09-20T11:40:41Z</time>
      </trkpt>
      <trkpt lat="46.22802" lon="4.49571">
        <ele>655.4</ele>
        <time>2025-09-20T11:40:42Z</time>
      </trkpt>
      <trkpt lat="46.22805" lon="4.4957">
        <ele>655.4</ele>
        <time>2025-09-20T11:40:43Z</time>
      </trkpt>
      <trkpt lat="46.2281" lon="4.4957">
        <ele>655.8</ele>
        <time>2025-09-20T11:40:44Z</time>
      </trkpt>
      <trkpt lat="46.22813" lon="4.4957">
        <ele>655.8</ele>
        <time>2025-09-20T11:40:45Z</time>
      </trkpt>
      <trkpt lat="46.22817" lon="4.49569">
        <ele>656</ele>
        <time>2025-09-20T11:40:46Z</time>
      </trkpt>
      <trkpt lat="46.22821" lon="4.49567">
        <ele>656</ele>
        <time>2025-09-20T11:40:47Z</time>
      </trkpt>
      <trkpt lat="46.22825" lon="4.49566">
        <ele>656.4</ele>
        <time>2025-09-20T11:40:48Z</time>
      </trkpt>
      <trkpt lat="46.22829" lon="4.49564">
        <ele>656.4</ele>
        <time>2025-09-20T11:40:49Z</time>
      </trkpt>
      <trkpt lat="46.22833" lon="4.49562">
        <ele>656.4</ele>
        <time>2025-09-20T11:40:50Z</time>
      </trkpt>
      <trkpt lat="46.22837" lon="4.49559">
        <ele>656.4</ele>
        <time>2025-09-20T11:40:51Z</time>
      </trkpt>
      <trkpt lat="46.2284" lon="4.49555">
        <ele>656.6</ele>
        <time>2025-09-20T11:40:52Z</time>
      </trkpt>
      <trkpt lat="46.22844" lon="4.49551">
        <ele>656.6</ele>
        <time>2025-09-20T11:40:53Z</time>
      </trkpt>
      <trkpt lat="46.22847" lon="4.49548">
        <ele>656.6</ele>
        <time>2025-09-20T11:40:54Z</time>
      </trkpt>
      <trkpt lat="46.2285" lon="4.49545">
        <ele>656.6</ele>
        <time>2025-09-20T11:40:55Z</time>
      </trkpt>
      <trkpt lat="46.22853" lon="4.49541">
        <ele>656.8</ele>
        <time>2025-09-20T11:40:56Z</time>
      </trkpt>
      <trkpt lat="46.22855" lon="4.49537">
        <ele>657.2</ele>
        <time>2025-09-20T11:40:57Z</time>
      </trkpt>
      <trkpt lat="46.22858" lon="4.49532">
        <ele>657.2</ele>
        <time>2025-09-20T11:40:58Z</time>
      </trkpt>
      <trkpt lat="46.2286" lon="4.49528">
        <ele>657.2</ele>
        <time>2025-09-20T11:40:59Z</time>
      </trkpt>
      <trkpt lat="46.22862" lon="4.49523">
        <ele>657</ele>
        <time>2025-09-20T11:41:00Z</time>
      </trkpt>
      <trkpt lat="46.22865" lon="4.49519">
        <ele>657.2</ele>
        <time>2025-09-20T11:41:01Z</time>
      </trkpt>
      <trkpt lat="46.22868" lon="4.49514">
        <ele>657.2</ele>
        <time>2025-09-20T11:41:02Z</time>
      </trkpt>
      <trkpt lat="46.2287" lon="4.49509">
        <ele>657.6</ele>
        <time>2025-09-20T11:41:03Z</time>
      </trkpt>
      <trkpt lat="46.22872" lon="4.49504">
        <ele>657.6</ele>
        <time>2025-09-20T11:41:04Z</time>
      </trkpt>
      <trkpt lat="46.22874" lon="4.49499">
        <ele>657.2</ele>
        <time>2025-09-20T11:41:05Z</time>
      </trkpt>
      <trkpt lat="46.22876" lon="4.49494">
        <ele>657.2</ele>
        <time>2025-09-20T11:41:06Z</time>
      </trkpt>
      <trkpt lat="46.22878" lon="4.49489">
        <ele>657.6</ele>
        <time>2025-09-20T11:41:07Z</time>
      </trkpt>
      <trkpt lat="46.2288" lon="4.49485">
        <ele>657.6</ele>
        <time>2025-09-20T11:41:08Z</time>
      </trkpt>
      <trkpt lat="46.22882" lon="4.4948">
        <ele>658</ele>
        <time>2025-09-20T11:41:09Z</time>
      </trkpt>
      <trkpt lat="46.22884" lon="4.49475">
        <ele>658.2</ele>
        <time>2025-09-20T11:41:10Z</time>
      </trkpt>
      <trkpt lat="46.22886" lon="4.49471">
        <ele>658.2</ele>
        <time>2025-09-20T11:41:11Z</time>
      </trkpt>
      <trkpt lat="46.22888" lon="4.49466">
        <ele>658.4</ele>
        <time>2025-09-20T11:41:12Z</time>
      </trkpt>
      <trkpt lat="46.22889" lon="4.49461">
        <ele>658.4</ele>
        <time>2025-09-20T11:41:13Z</time>
      </trkpt>
      <trkpt lat="46.22891" lon="4.49457">
        <ele>658.4</ele>
        <time>2025-09-20T11:41:14Z</time>
      </trkpt>
      <trkpt lat="46.22893" lon="4.49453">
        <ele>658.8</ele>
        <time>2025-09-20T11:41:15Z</time>
      </trkpt>
      <trkpt lat="46.22895" lon="4.49448">
        <ele>658.6</ele>
        <time>2025-09-20T11:41:16Z</time>
      </trkpt>
      <trkpt lat="46.22897" lon="4.49444">
        <ele>658.6</ele>
        <time>2025-09-20T11:41:17Z</time>
      </trkpt>
      <trkpt lat="46.22899" lon="4.4944">
        <ele>658.4</ele>
        <time>2025-09-20T11:41:18Z</time>
      </trkpt>
      <trkpt lat="46.22901" lon="4.49437">
        <ele>658.4</ele>
        <time>2025-09-20T11:41:19Z</time>
      </trkpt>
      <trkpt lat="46.22903" lon="4.49433">
        <ele>658.4</ele>
        <time>2025-09-20T11:41:20Z</time>
      </trkpt>
      <trkpt lat="46.22906" lon="4.4943">
        <ele>658.4</ele>
        <time>2025-09-20T11:41:21Z</time>
      </trkpt>
      <trkpt lat="46.22908" lon="4.49426">
        <ele>658.6</ele>
        <time>2025-09-20T11:41:22Z</time>
      </trkpt>
      <trkpt lat="46.22911" lon="4.49422">
        <ele>658.6</ele>
        <time>2025-09-20T11:41:23Z</time>
      </trkpt>
      <trkpt lat="46.22913" lon="4.49419">
        <ele>658.6</ele>
        <time>2025-09-20T11:41:24Z</time>
      </trkpt>
      <trkpt lat="46.22914" lon="4.49416">
        <ele>659</ele>
        <time>2025-09-20T11:41:25Z</time>
      </trkpt>
      <trkpt lat="46.22916" lon="4.49413">
        <ele>659.2</ele>
        <time>2025-09-20T11:41:26Z</time>
      </trkpt>
      <trkpt lat="46.22919" lon="4.4941">
        <ele>659.2</ele>
        <time>2025-09-20T11:41:27Z</time>
      </trkpt>
      <trkpt lat="46.22922" lon="4.49407">
        <ele>659.2</ele>
        <time>2025-09-20T11:41:28Z</time>
      </trkpt>
      <trkpt lat="46.22925" lon="4.49403">
        <ele>659.2</ele>
        <time>2025-09-20T11:41:29Z</time>
      </trkpt>
      <trkpt lat="46.22927" lon="4.49401">
        <ele>659.6</ele>
        <time>2025-09-20T11:41:30Z</time>
      </trkpt>
      <trkpt lat="46.22928" lon="4.49399">
        <ele>659.8</ele>
        <time>2025-09-20T11:41:31Z</time>
      </trkpt>
      <trkpt lat="46.2293" lon="4.49397">
        <ele>659.8</ele>
        <time>2025-09-20T11:41:32Z</time>
      </trkpt>
      <trkpt lat="46.22931" lon="4.49396">
        <ele>659.8</ele>
        <time>2025-09-20T11:41:33Z</time>
      </trkpt>
      <trkpt lat="46.22932" lon="4.49394">
        <ele>659.8</ele>
        <time>2025-09-20T11:41:34Z</time>
      </trkpt>
      <trkpt lat="46.22934" lon="4.49392">
        <ele>659.8</ele>
        <time>2025-09-20T11:41:35Z</time>
      </trkpt>
      <trkpt lat="46.22936" lon="4.4939">
        <ele>660</ele>
        <time>2025-09-20T11:41:36Z</time>
      </trkpt>
      <trkpt lat="46.22939" lon="4.49389">
        <ele>660</ele>
        <time>2025-09-20T11:41:37Z</time>
      </trkpt>
      <trkpt lat="46.22942" lon="4.49387">
        <ele>660</ele>
        <time>2025-09-20T11:41:38Z</time>
      </trkpt>
      <trkpt lat="46.22942" lon="4.49387">
        <ele>659.8</ele>
        <time>2025-09-20T11:41:39Z</time>
      </trkpt>
      <trkpt lat="46.22945" lon="4.49385">
        <ele>659.8</ele>
        <time>2025-09-20T11:41:40Z</time>
      </trkpt>
      <trkpt lat="46.22948" lon="4.49384">
        <ele>660</ele>
        <time>2025-09-20T11:41:41Z</time>
      </trkpt>
      <trkpt lat="46.22951" lon="4.49382">
        <ele>660</ele>
        <time>2025-09-20T11:41:42Z</time>
      </trkpt>
      <trkpt lat="46.22954" lon="4.49381">
        <ele>660.4</ele>
        <time>2025-09-20T11:41:43Z</time>
      </trkpt>
      <trkpt lat="46.22957" lon="4.49379">
        <ele>660.4</ele>
        <time>2025-09-20T11:41:44Z</time>
      </trkpt>
      <trkpt lat="46.2296" lon="4.49378">
        <ele>660.4</ele>
        <time>2025-09-20T11:41:45Z</time>
      </trkpt>
      <trkpt lat="46.22964" lon="4.49376">
        <ele>660.2</ele>
        <time>2025-09-20T11:41:46Z</time>
      </trkpt>
      <trkpt lat="46.22967" lon="4.49374">
        <ele>660.2</ele>
        <time>2025-09-20T11:41:47Z</time>
      </trkpt>
      <trkpt lat="46.2297" lon="4.49372">
        <ele>660.4</ele>
        <time>2025-09-20T11:41:48Z</time>
      </trkpt>
      <trkpt lat="46.22973" lon="4.4937">
        <ele>660.4</ele>
        <time>2025-09-20T11:41:49Z</time>
      </trkpt>
      <trkpt lat="46.22976" lon="4.49369">
        <ele>660.4</ele>
        <time>2025-09-20T11:41:50Z</time>
      </trkpt>
      <trkpt lat="46.2298" lon="4.49367">
        <ele>660.4</ele>
        <time>2025-09-20T11:41:51Z</time>
      </trkpt>
      <trkpt lat="46.22983" lon="4.49365">
        <ele>660.4</ele>
        <time>2025-09-20T11:41:52Z</time>
      </trkpt>
      <trkpt lat="46.22986" lon="4.49364">
        <ele>660.4</ele>
        <time>2025-09-20T11:41:53Z</time>
      </trkpt>
      <trkpt lat="46.22989" lon="4.49363">
        <ele>660.4</ele>
        <time>2025-09-20T11:41:54Z</time>
      </trkpt>
      <trkpt lat="46.22991" lon="4.49364">
        <ele>660.6</ele>
        <time>2025-09-20T11:41:55Z</time>
      </trkpt>
      <trkpt lat="46.22994" lon="4.49364">
        <ele>660.6</ele>
        <time>2025-09-20T11:41:56Z</time>
      </trkpt>
      <trkpt lat="46.22996" lon="4.49365">
        <ele>660.6</ele>
        <time>2025-09-20T11:41:57Z</time>
      </trkpt>
      <trkpt lat="46.22999" lon="4.49366">
        <ele>660.6</ele>
        <time>2025-09-20T11:41:58Z</time>
      </trkpt>
      <trkpt lat="46.23001" lon="4.49367">
        <ele>660.6</ele>
        <time>2025-09-20T11:41:59Z</time>
      </trkpt>
      <trkpt lat="46.23005" lon="4.49369">
        <ele>660.6</ele>
        <time>2025-09-20T11:42:00Z</time>
      </trkpt>
      <trkpt lat="46.23008" lon="4.49372">
        <ele>660.6</ele>
        <time>2025-09-20T11:42:01Z</time>
      </trkpt>
      <trkpt lat="46.2301" lon="4.49373">
        <ele>660.8</ele>
        <time>2025-09-20T11:42:02Z</time>
      </trkpt>
      <trkpt lat="46.23013" lon="4.49376">
        <ele>660.6</ele>
        <time>2025-09-20T11:42:03Z</time>
      </trkpt>
      <trkpt lat="46.23016" lon="4.49378">
        <ele>660.6</ele>
        <time>2025-09-20T11:42:04Z</time>
      </trkpt>
      <trkpt lat="46.23021" lon="4.4938">
        <ele>660.6</ele>
        <time>2025-09-20T11:42:05Z</time>
      </trkpt>
      <trkpt lat="46.23024" lon="4.49383">
        <ele>658.2</ele>
        <time>2025-09-20T11:42:06Z</time>
      </trkpt>
      <trkpt lat="46.23027" lon="4.49385">
        <ele>658.8</ele>
        <time>2025-09-20T11:42:07Z</time>
      </trkpt>
      <trkpt lat="46.2303" lon="4.49387">
        <ele>659.4</ele>
        <time>2025-09-20T11:42:08Z</time>
      </trkpt>
      <trkpt lat="46.23033" lon="4.49391">
        <ele>659.8</ele>
        <time>2025-09-20T11:42:09Z</time>
      </trkpt>
      <trkpt lat="46.23036" lon="4.49393">
        <ele>659.8</ele>
        <time>2025-09-20T11:42:10Z</time>
      </trkpt>
      <trkpt lat="46.23039" lon="4.49395">
        <ele>660</ele>
        <time>2025-09-20T11:42:11Z</time>
      </trkpt>
      <trkpt lat="46.23041" lon="4.49398">
        <ele>660</ele>
        <time>2025-09-20T11:42:12Z</time>
      </trkpt>
      <trkpt lat="46.23042" lon="4.494">
        <ele>660.6</ele>
        <time>2025-09-20T11:42:13Z</time>
      </trkpt>
      <trkpt lat="46.23045" lon="4.49403">
        <ele>660.6</ele>
        <time>2025-09-20T11:42:14Z</time>
      </trkpt>
      <trkpt lat="46.23049" lon="4.49408">
        <ele>660.8</ele>
        <time>2025-09-20T11:42:15Z</time>
      </trkpt>
      <trkpt lat="46.23052" lon="4.4941">
        <ele>660.8</ele>
        <time>2025-09-20T11:42:16Z</time>
      </trkpt>
      <trkpt lat="46.23054" lon="4.49414">
        <ele>661.2</ele>
        <time>2025-09-20T11:42:17Z</time>
      </trkpt>
      <trkpt lat="46.23056" lon="4.49417">
        <ele>661.6</ele>
        <time>2025-09-20T11:42:18Z</time>
      </trkpt>
      <trkpt lat="46.23058" lon="4.4942">
        <ele>661.6</ele>
        <time>2025-09-20T11:42:19Z</time>
      </trkpt>
      <trkpt lat="46.23059" lon="4.49422">
        <ele>662</ele>
        <time>2025-09-20T11:42:20Z</time>
      </trkpt>
      <trkpt lat="46.2306" lon="4.49425">
        <ele>662</ele>
        <time>2025-09-20T11:42:21Z</time>
      </trkpt>
      <trkpt lat="46.23061" lon="4.49428">
        <ele>662</ele>
        <time>2025-09-20T11:42:22Z</time>
      </trkpt>
      <trkpt lat="46.23062" lon="4.4943">
        <ele>662</ele>
        <time>2025-09-20T11:42:23Z</time>
      </trkpt>
      <trkpt lat="46.23063" lon="4.49431">
        <ele>662.2</ele>
        <time>2025-09-20T11:42:24Z</time>
      </trkpt>
      <trkpt lat="46.23064" lon="4.49433">
        <ele>662.2</ele>
        <time>2025-09-20T11:42:25Z</time>
      </trkpt>
      <trkpt lat="46.23064" lon="4.49434">
        <ele>662.4</ele>
        <time>2025-09-20T11:42:26Z</time>
      </trkpt>
      <trkpt lat="46.23064" lon="4.49435">
        <ele>662.4</ele>
        <time>2025-09-20T11:42:27Z</time>
      </trkpt>
      <trkpt lat="46.23065" lon="4.49436">
        <ele>662.4</ele>
        <time>2025-09-20T11:42:28Z</time>
      </trkpt>
      <trkpt lat="46.23065" lon="4.49437">
        <ele>662.8</ele>
        <time>2025-09-20T11:42:29Z</time>
      </trkpt>
      <trkpt lat="46.23066" lon="4.49437">
        <ele>662.8</ele>
        <time>2025-09-20T11:42:30Z</time>
      </trkpt>
      <trkpt lat="46.23066" lon="4.49438">
        <ele>662.8</ele>
        <time>2025-09-20T11:42:31Z</time>
      </trkpt>
      <trkpt lat="46.23068" lon="4.49443">
        <ele>663.6</ele>
        <time>2025-09-20T11:46:08Z</time>
      </trkpt>
      <trkpt lat="46.23069" lon="4.49445">
        <ele>663.6</ele>
        <time>2025-09-20T11:46:09Z</time>
      </trkpt>
      <trkpt lat="46.2307" lon="4.49446">
        <ele>663.4</ele>
        <time>2025-09-20T11:46:10Z</time>
      </trkpt>
      <trkpt lat="46.23071" lon="4.49449">
        <ele>663.6</ele>
        <time>2025-09-20T11:46:11Z</time>
      </trkpt>
      <trkpt lat="46.23072" lon="4.49451">
        <ele>663.4</ele>
        <time>2025-09-20T11:46:12Z</time>
      </trkpt>
      <trkpt lat="46.23073" lon="4.49453">
        <ele>664.2</ele>
        <time>2025-09-20T11:46:13Z</time>
      </trkpt>
      <trkpt lat="46.23074" lon="4.49456">
        <ele>663.6</ele>
        <time>2025-09-20T11:46:14Z</time>
      </trkpt>
      <trkpt lat="46.23075" lon="4.49459">
        <ele>663.6</ele>
        <time>2025-09-20T11:46:15Z</time>
      </trkpt>
      <trkpt lat="46.23076" lon="4.49462">
        <ele>663.8</ele>
        <time>2025-09-20T11:46:16Z</time>
      </trkpt>
      <trkpt lat="46.23077" lon="4.49465">
        <ele>664.2</ele>
        <time>2025-09-20T11:46:17Z</time>
      </trkpt>
      <trkpt lat="46.23078" lon="4.49468">
        <ele>664.2</ele>
        <time>2025-09-20T11:46:18Z</time>
      </trkpt>
      <trkpt lat="46.23079" lon="4.49472">
        <ele>664.2</ele>
        <time>2025-09-20T11:46:19Z</time>
      </trkpt>
      <trkpt lat="46.23079" lon="4.49476">
        <ele>664.4</ele>
        <time>2025-09-20T11:46:20Z</time>
      </trkpt>
      <trkpt lat="46.23079" lon="4.4948">
        <ele>664.4</ele>
        <time>2025-09-20T11:46:21Z</time>
      </trkpt>
      <trkpt lat="46.23079" lon="4.49484">
        <ele>664.4</ele>
        <time>2025-09-20T11:46:22Z</time>
      </trkpt>
      <trkpt lat="46.23078" lon="4.49487">
        <ele>664.4</ele>
        <time>2025-09-20T11:46:23Z</time>
      </trkpt>
      <trkpt lat="46.23078" lon="4.49491">
        <ele>664.4</ele>
        <time>2025-09-20T11:46:24Z</time>
      </trkpt>
      <trkpt lat="46.23077" lon="4.49495">
        <ele>664.4</ele>
        <time>2025-09-20T11:46:25Z</time>
      </trkpt>
      <trkpt lat="46.23076" lon="4.49499">
        <ele>664.4</ele>
        <time>2025-09-20T11:46:26Z</time>
      </trkpt>
      <trkpt lat="46.23076" lon="4.49504">
        <ele>664.8</ele>
        <time>2025-09-20T11:46:27Z</time>
      </trkpt>
      <trkpt lat="46.23075" lon="4.49508">
        <ele>664.8</ele>
        <time>2025-09-20T11:46:28Z</time>
      </trkpt>
      <trkpt lat="46.23075" lon="4.49512">
        <ele>665.2</ele>
        <time>2025-09-20T11:46:29Z</time>
      </trkpt>
      <trkpt lat="46.23074" lon="4.49516">
        <ele>665.2</ele>
        <time>2025-09-20T11:46:30Z</time>
      </trkpt>
      <trkpt lat="46.23073" lon="4.49519">
        <ele>665.2</ele>
        <time>2025-09-20T11:46:31Z</time>
      </trkpt>
      <trkpt lat="46.23071" lon="4.49523">
        <ele>665.4</ele>
        <time>2025-09-20T11:46:32Z</time>
      </trkpt>
      <trkpt lat="46.2307" lon="4.49528">
        <ele>665.4</ele>
        <time>2025-09-20T11:46:33Z</time>
      </trkpt>
      <trkpt lat="46.2307" lon="4.49528">
        <ele>665.2</ele>
        <time>2025-09-20T11:46:34Z</time>
      </trkpt>
      <trkpt lat="46.23069" lon="4.49532">
        <ele>665.2</ele>
        <time>2025-09-20T11:46:35Z</time>
      </trkpt>
      <trkpt lat="46.23068" lon="4.49536">
        <ele>665.6</ele>
        <time>2025-09-20T11:46:36Z</time>
      </trkpt>
      <trkpt lat="46.23067" lon="4.49541">
        <ele>665.6</ele>
        <time>2025-09-20T11:46:37Z</time>
      </trkpt>
      <trkpt lat="46.23066" lon="4.49545">
        <ele>665.8</ele>
        <time>2025-09-20T11:46:38Z</time>
      </trkpt>
      <trkpt lat="46.23065" lon="4.49549">
        <ele>666.4</ele>
        <time>2025-09-20T11:46:39Z</time>
      </trkpt>
      <trkpt lat="46.23065" lon="4.49553">
        <ele>666.4</ele>
        <time>2025-09-20T11:46:40Z</time>
      </trkpt>
      <trkpt lat="46.23064" lon="4.49557">
        <ele>666.4</ele>
        <time>2025-09-20T11:46:41Z</time>
      </trkpt>
      <trkpt lat="46.23064" lon="4.49561">
        <ele>666.4</ele>
        <time>2025-09-20T11:46:42Z</time>
      </trkpt>
      <trkpt lat="46.23063" lon="4.49566">
        <ele>666.4</ele>
        <time>2025-09-20T11:46:43Z</time>
      </trkpt>
      <trkpt lat="46.23063" lon="4.49571">
        <ele>666.2</ele>
        <time>2025-09-20T11:46:44Z</time>
      </trkpt>
      <trkpt lat="46.23063" lon="4.49576">
        <ele>666.2</ele>
        <time>2025-09-20T11:46:45Z</time>
      </trkpt>
      <trkpt lat="46.23063" lon="4.4958">
        <ele>666.4</ele>
        <time>2025-09-20T11:46:46Z</time>
      </trkpt>
      <trkpt lat="46.23063" lon="4.49584">
        <ele>666.2</ele>
        <time>2025-09-20T11:46:47Z</time>
      </trkpt>
      <trkpt lat="46.23062" lon="4.49588">
        <ele>666.2</ele>
        <time>2025-09-20T11:46:48Z</time>
      </trkpt>
      <trkpt lat="46.23062" lon="4.49591">
        <ele>666.2</ele>
        <time>2025-09-20T11:46:49Z</time>
      </trkpt>
      <trkpt lat="46.23061" lon="4.49594">
        <ele>666.2</ele>
        <time>2025-09-20T11:46:50Z</time>
      </trkpt>
      <trkpt lat="46.23061" lon="4.49596">
        <ele>666.2</ele>
        <time>2025-09-20T11:46:51Z</time>
      </trkpt>
      <trkpt lat="46.2306" lon="4.49599">
        <ele>666.4</ele>
        <time>2025-09-20T11:46:52Z</time>
      </trkpt>
      <trkpt lat="46.23059" lon="4.49602">
        <ele>666.6</ele>
        <time>2025-09-20T11:46:53Z</time>
      </trkpt>
      <trkpt lat="46.23058" lon="4.49606">
        <ele>666.6</ele>
        <time>2025-09-20T11:46:54Z</time>
      </trkpt>
      <trkpt lat="46.23057" lon="4.4961">
        <ele>666.6</ele>
        <time>2025-09-20T11:46:55Z</time>
      </trkpt>
      <trkpt lat="46.23056" lon="4.49614">
        <ele>666.6</ele>
        <time>2025-09-20T11:46:56Z</time>
      </trkpt>
      <trkpt lat="46.23056" lon="4.49618">
        <ele>666.2</ele>
        <time>2025-09-20T11:46:57Z</time>
      </trkpt>
      <trkpt lat="46.23055" lon="4.49621">
        <ele>666.6</ele>
        <time>2025-09-20T11:46:58Z</time>
      </trkpt>
      <trkpt lat="46.23054" lon="4.49625">
        <ele>666.6</ele>
        <time>2025-09-20T11:46:59Z</time>
      </trkpt>
      <trkpt lat="46.23053" lon="4.49629">
        <ele>667.2</ele>
        <time>2025-09-20T11:47:00Z</time>
      </trkpt>
      <trkpt lat="46.23053" lon="4.49632">
        <ele>666.8</ele>
        <time>2025-09-20T11:47:01Z</time>
      </trkpt>
      <trkpt lat="46.23054" lon="4.49636">
        <ele>666.4</ele>
        <time>2025-09-20T11:47:02Z</time>
      </trkpt>
      <trkpt lat="46.23055" lon="4.4964">
        <ele>665.2</ele>
        <time>2025-09-20T11:47:03Z</time>
      </trkpt>
      <trkpt lat="46.23056" lon="4.49644">
        <ele>666.4</ele>
        <time>2025-09-20T11:47:04Z</time>
      </trkpt>
      <trkpt lat="46.23056" lon="4.49648">
        <ele>666.6</ele>
        <time>2025-09-20T11:47:05Z</time>
      </trkpt>
      <trkpt lat="46.23056" lon="4.49652">
        <ele>667.2</ele>
        <time>2025-09-20T11:47:06Z</time>
      </trkpt>
      <trkpt lat="46.23056" lon="4.49657">
        <ele>667.2</ele>
        <time>2025-09-20T11:47:07Z</time>
      </trkpt>
      <trkpt lat="46.23056" lon="4.49661">
        <ele>666.8</ele>
        <time>2025-09-20T11:47:08Z</time>
      </trkpt>
      <trkpt lat="46.23056" lon="4.49665">
        <ele>667.2</ele>
        <time>2025-09-20T11:47:09Z</time>
      </trkpt>
      <trkpt lat="46.23057" lon="4.49668">
        <ele>667.4</ele>
        <time>2025-09-20T11:47:10Z</time>
      </trkpt>
      <trkpt lat="46.23057" lon="4.49672">
        <ele>668</ele>
        <time>2025-09-20T11:47:11Z</time>
      </trkpt>
      <trkpt lat="46.23058" lon="4.49677">
        <ele>668</ele>
        <time>2025-09-20T11:47:12Z</time>
      </trkpt>
      <trkpt lat="46.23059" lon="4.49682">
        <ele>668</ele>
        <time>2025-09-20T11:47:13Z</time>
      </trkpt>
      <trkpt lat="46.23059" lon="4.49687">
        <ele>668.6</ele>
        <time>2025-09-20T11:47:14Z</time>
      </trkpt>
      <trkpt lat="46.2306" lon="4.49691">
        <ele>668.6</ele>
        <time>2025-09-20T11:47:15Z</time>
      </trkpt>
      <trkpt lat="46.23059" lon="4.49696">
        <ele>668.6</ele>
        <time>2025-09-20T11:47:16Z</time>
      </trkpt>
      <trkpt lat="46.23059" lon="4.497">
        <ele>668.6</ele>
        <time>2025-09-20T11:47:17Z</time>
      </trkpt>
      <trkpt lat="46.23059" lon="4.49705">
        <ele>668.6</ele>
        <time>2025-09-20T11:47:18Z</time>
      </trkpt>
      <trkpt lat="46.23059" lon="4.49709">
        <ele>668.2</ele>
        <time>2025-09-20T11:47:19Z</time>
      </trkpt>
      <trkpt lat="46.23059" lon="4.49713">
        <ele>667.8</ele>
        <time>2025-09-20T11:47:20Z</time>
      </trkpt>
      <trkpt lat="46.23059" lon="4.49717">
        <ele>667.8</ele>
        <time>2025-09-20T11:47:21Z</time>
      </trkpt>
      <trkpt lat="46.23059" lon="4.49722">
        <ele>668.2</ele>
        <time>2025-09-20T11:47:22Z</time>
      </trkpt>
      <trkpt lat="46.23059" lon="4.49726">
        <ele>668.2</ele>
        <time>2025-09-20T11:47:23Z</time>
      </trkpt>
      <trkpt lat="46.2306" lon="4.4973">
        <ele>668.2</ele>
        <time>2025-09-20T11:47:24Z</time>
      </trkpt>
      <trkpt lat="46.2306" lon="4.49734">
        <ele>668.2</ele>
        <time>2025-09-20T11:47:25Z</time>
      </trkpt>
      <trkpt lat="46.2306" lon="4.49738">
        <ele>668.6</ele>
        <time>2025-09-20T11:47:26Z</time>
      </trkpt>
      <trkpt lat="46.23061" lon="4.49743">
        <ele>668.6</ele>
        <time>2025-09-20T11:47:27Z</time>
      </trkpt>
      <trkpt lat="46.23061" lon="4.49747">
        <ele>667.6</ele>
        <time>2025-09-20T11:47:28Z</time>
      </trkpt>
      <trkpt lat="46.23062" lon="4.49751">
        <ele>668</ele>
        <time>2025-09-20T11:47:29Z</time>
      </trkpt>
      <trkpt lat="46.23063" lon="4.49755">
        <ele>668.4</ele>
        <time>2025-09-20T11:47:30Z</time>
      </trkpt>
      <trkpt lat="46.23064" lon="4.49759">
        <ele>668.6</ele>
        <time>2025-09-20T11:47:31Z</time>
      </trkpt>
      <trkpt lat="46.23065" lon="4.49763">
        <ele>668.2</ele>
        <time>2025-09-20T11:47:32Z</time>
      </trkpt>
      <trkpt lat="46.23065" lon="4.49767">
        <ele>668.8</ele>
        <time>2025-09-20T11:47:33Z</time>
      </trkpt>
      <trkpt lat="46.23066" lon="4.49771">
        <ele>669.4</ele>
        <time>2025-09-20T11:47:34Z</time>
      </trkpt>
      <trkpt lat="46.23067" lon="4.49774">
        <ele>669.4</ele>
        <time>2025-09-20T11:47:35Z</time>
      </trkpt>
      <trkpt lat="46.23069" lon="4.49778">
        <ele>669.4</ele>
        <time>2025-09-20T11:47:36Z</time>
      </trkpt>
      <trkpt lat="46.2307" lon="4.49782">
        <ele>669.4</ele>
        <time>2025-09-20T11:47:37Z</time>
      </trkpt>
      <trkpt lat="46.23072" lon="4.49786">
        <ele>669.4</ele>
        <time>2025-09-20T11:47:38Z</time>
      </trkpt>
      <trkpt lat="46.23073" lon="4.49788">
        <ele>669.4</ele>
        <time>2025-09-20T11:47:39Z</time>
      </trkpt>
      <trkpt lat="46.23074" lon="4.49791">
        <ele>669.6</ele>
        <time>2025-09-20T11:47:40Z</time>
      </trkpt>
      <trkpt lat="46.23076" lon="4.49794">
        <ele>670</ele>
        <time>2025-09-20T11:47:41Z</time>
      </trkpt>
      <trkpt lat="46.23077" lon="4.49797">
        <ele>670</ele>
        <time>2025-09-20T11:47:42Z</time>
      </trkpt>
      <trkpt lat="46.23078" lon="4.498">
        <ele>670.6</ele>
        <time>2025-09-20T11:47:43Z</time>
      </trkpt>
      <trkpt lat="46.2308" lon="4.49804">
        <ele>670.8</ele>
        <time>2025-09-20T11:47:44Z</time>
      </trkpt>
      <trkpt lat="46.23082" lon="4.49808">
        <ele>671</ele>
        <time>2025-09-20T11:47:45Z</time>
      </trkpt>
      <trkpt lat="46.23083" lon="4.49811">
        <ele>671</ele>
        <time>2025-09-20T11:47:46Z</time>
      </trkpt>
      <trkpt lat="46.23085" lon="4.49815">
        <ele>671</ele>
        <time>2025-09-20T11:47:47Z</time>
      </trkpt>
      <trkpt lat="46.23087" lon="4.49818">
        <ele>671.8</ele>
        <time>2025-09-20T11:47:48Z</time>
      </trkpt>
      <trkpt lat="46.23088" lon="4.49821">
        <ele>671.8</ele>
        <time>2025-09-20T11:47:49Z</time>
      </trkpt>
      <trkpt lat="46.2309" lon="4.49824">
        <ele>671.6</ele>
        <time>2025-09-20T11:47:50Z</time>
      </trkpt>
      <trkpt lat="46.23091" lon="4.49827">
        <ele>671.2</ele>
        <time>2025-09-20T11:47:51Z</time>
      </trkpt>
      <trkpt lat="46.23092" lon="4.49829">
        <ele>671.4</ele>
        <time>2025-09-20T11:47:52Z</time>
      </trkpt>
      <trkpt lat="46.23093" lon="4.49832">
        <ele>672</ele>
        <time>2025-09-20T11:47:53Z</time>
      </trkpt>
      <trkpt lat="46.23093" lon="4.49834">
        <ele>672</ele>
        <time>2025-09-20T11:47:54Z</time>
      </trkpt>
      <trkpt lat="46.23094" lon="4.49838">
        <ele>672</ele>
        <time>2025-09-20T11:47:55Z</time>
      </trkpt>
      <trkpt lat="46.23096" lon="4.49842">
        <ele>672.4</ele>
        <time>2025-09-20T11:47:56Z</time>
      </trkpt>
      <trkpt lat="46.23098" lon="4.49844">
        <ele>672.4</ele>
        <time>2025-09-20T11:47:57Z</time>
      </trkpt>
      <trkpt lat="46.231" lon="4.49847">
        <ele>673</ele>
        <time>2025-09-20T11:47:58Z</time>
      </trkpt>
      <trkpt lat="46.23101" lon="4.49849">
        <ele>673</ele>
        <time>2025-09-20T11:47:59Z</time>
      </trkpt>
      <trkpt lat="46.23101" lon="4.49851">
        <ele>672.6</ele>
        <time>2025-09-20T11:48:00Z</time>
      </trkpt>
      <trkpt lat="46.23103" lon="4.49854">
        <ele>672.6</ele>
        <time>2025-09-20T11:48:01Z</time>
      </trkpt>
      <trkpt lat="46.23104" lon="4.49856">
        <ele>672.6</ele>
        <time>2025-09-20T11:48:02Z</time>
      </trkpt>
      <trkpt lat="46.23107" lon="4.49859">
        <ele>672.6</ele>
        <time>2025-09-20T11:48:03Z</time>
      </trkpt>
      <trkpt lat="46.23109" lon="4.49862">
        <ele>673</ele>
        <time>2025-09-20T11:48:04Z</time>
      </trkpt>
      <trkpt lat="46.23111" lon="4.49865">
        <ele>673</ele>
        <time>2025-09-20T11:48:05Z</time>
      </trkpt>
      <trkpt lat="46.23113" lon="4.49867">
        <ele>673.4</ele>
        <time>2025-09-20T11:48:06Z</time>
      </trkpt>
      <trkpt lat="46.23114" lon="4.49869">
        <ele>673.4</ele>
        <time>2025-09-20T11:48:07Z</time>
      </trkpt>
      <trkpt lat="46.23116" lon="4.49872">
        <ele>673.4</ele>
        <time>2025-09-20T11:48:08Z</time>
      </trkpt>
      <trkpt lat="46.23118" lon="4.49875">
        <ele>673.4</ele>
        <time>2025-09-20T11:48:09Z</time>
      </trkpt>
      <trkpt lat="46.23121" lon="4.49878">
        <ele>673.6</ele>
        <time>2025-09-20T11:48:10Z</time>
      </trkpt>
      <trkpt lat="46.23123" lon="4.4988">
        <ele>673.6</ele>
        <time>2025-09-20T11:48:11Z</time>
      </trkpt>
      <trkpt lat="46.23126" lon="4.49883">
        <ele>674</ele>
        <time>2025-09-20T11:48:12Z</time>
      </trkpt>
      <trkpt lat="46.23128" lon="4.49885">
        <ele>674.4</ele>
        <time>2025-09-20T11:48:13Z</time>
      </trkpt>
      <trkpt lat="46.23131" lon="4.49887">
        <ele>674.4</ele>
        <time>2025-09-20T11:48:14Z</time>
      </trkpt>
      <trkpt lat="46.23134" lon="4.4989">
        <ele>674.4</ele>
        <time>2025-09-20T11:48:15Z</time>
      </trkpt>
      <trkpt lat="46.23136" lon="4.49892">
        <ele>674.4</ele>
        <time>2025-09-20T11:48:16Z</time>
      </trkpt>
      <trkpt lat="46.23138" lon="4.49894">
        <ele>674.4</ele>
        <time>2025-09-20T11:48:17Z</time>
      </trkpt>
      <trkpt lat="46.2314" lon="4.49896">
        <ele>674.4</ele>
        <time>2025-09-20T11:48:18Z</time>
      </trkpt>
      <trkpt lat="46.23142" lon="4.49898">
        <ele>674.6</ele>
        <time>2025-09-20T11:48:19Z</time>
      </trkpt>
      <trkpt lat="46.23145" lon="4.499">
        <ele>674.6</ele>
        <time>2025-09-20T11:48:20Z</time>
      </trkpt>
      <trkpt lat="46.23147" lon="4.49904">
        <ele>674.6</ele>
        <time>2025-09-20T11:48:21Z</time>
      </trkpt>
      <trkpt lat="46.23149" lon="4.49907">
        <ele>674.6</ele>
        <time>2025-09-20T11:48:22Z</time>
      </trkpt>
      <trkpt lat="46.23151" lon="4.49909">
        <ele>674.6</ele>
        <time>2025-09-20T11:48:23Z</time>
      </trkpt>
      <trkpt lat="46.23152" lon="4.49911">
        <ele>674.6</ele>
        <time>2025-09-20T11:48:24Z</time>
      </trkpt>
      <trkpt lat="46.23154" lon="4.49913">
        <ele>674</ele>
        <time>2025-09-20T11:48:25Z</time>
      </trkpt>
      <trkpt lat="46.23157" lon="4.49914">
        <ele>674.4</ele>
        <time>2025-09-20T11:48:26Z</time>
      </trkpt>
      <trkpt lat="46.2316" lon="4.49916">
        <ele>674.4</ele>
        <time>2025-09-20T11:48:27Z</time>
      </trkpt>
      <trkpt lat="46.23164" lon="4.49918">
        <ele>674.6</ele>
        <time>2025-09-20T11:48:28Z</time>
      </trkpt>
      <trkpt lat="46.23166" lon="4.49919">
        <ele>674.6</ele>
        <time>2025-09-20T11:48:29Z</time>
      </trkpt>
      <trkpt lat="46.23168" lon="4.4992">
        <ele>675</ele>
        <time>2025-09-20T11:48:30Z</time>
      </trkpt>
      <trkpt lat="46.2317" lon="4.49921">
        <ele>675.4</ele>
        <time>2025-09-20T11:48:31Z</time>
      </trkpt>
      <trkpt lat="46.23173" lon="4.49923">
        <ele>675.4</ele>
        <time>2025-09-20T11:48:32Z</time>
      </trkpt>
      <trkpt lat="46.23175" lon="4.49924">
        <ele>675.4</ele>
        <time>2025-09-20T11:48:33Z</time>
      </trkpt>
      <trkpt lat="46.23177" lon="4.49926">
        <ele>675.6</ele>
        <time>2025-09-20T11:48:34Z</time>
      </trkpt>
      <trkpt lat="46.23177" lon="4.49926">
        <ele>675.6</ele>
        <time>2025-09-20T11:48:35Z</time>
      </trkpt>
      <trkpt lat="46.23177" lon="4.49926">
        <ele>676</ele>
        <time>2025-09-20T11:48:36Z</time>
      </trkpt>
      <trkpt lat="46.23192" lon="4.49932">
        <ele>676</ele>
        <time>2025-09-20T11:48:38Z</time>
      </trkpt>
      <trkpt lat="46.23196" lon="4.49933">
        <ele>676</ele>
        <time>2025-09-20T11:48:39Z</time>
      </trkpt>
      <trkpt lat="46.23199" lon="4.49934">
        <ele>676.4</ele>
        <time>2025-09-20T11:48:40Z</time>
      </trkpt>
      <trkpt lat="46.23201" lon="4.49937">
        <ele>676.4</ele>
        <time>2025-09-20T11:48:41Z</time>
      </trkpt>
      <trkpt lat="46.23204" lon="4.4994">
        <ele>676.4</ele>
        <time>2025-09-20T11:48:42Z</time>
      </trkpt>
      <trkpt lat="46.23208" lon="4.49943">
        <ele>676.4</ele>
        <time>2025-09-20T11:48:43Z</time>
      </trkpt>
      <trkpt lat="46.23211" lon="4.49945">
        <ele>676.4</ele>
        <time>2025-09-20T11:48:44Z</time>
      </trkpt>
      <trkpt lat="46.23214" lon="4.49947">
        <ele>676.4</ele>
        <time>2025-09-20T11:48:45Z</time>
      </trkpt>
      <trkpt lat="46.23216" lon="4.49949">
        <ele>676.4</ele>
        <time>2025-09-20T11:48:46Z</time>
      </trkpt>
      <trkpt lat="46.23219" lon="4.49952">
        <ele>676.8</ele>
        <time>2025-09-20T11:48:47Z</time>
      </trkpt>
      <trkpt lat="46.23222" lon="4.49955">
        <ele>676.8</ele>
        <time>2025-09-20T11:48:48Z</time>
      </trkpt>
      <trkpt lat="46.23225" lon="4.49958">
        <ele>676.8</ele>
        <time>2025-09-20T11:48:49Z</time>
      </trkpt>
      <trkpt lat="46.23228" lon="4.4996">
        <ele>677</ele>
        <time>2025-09-20T11:48:50Z</time>
      </trkpt>
      <trkpt lat="46.23232" lon="4.49961">
        <ele>677</ele>
        <time>2025-09-20T11:48:51Z</time>
      </trkpt>
      <trkpt lat="46.23235" lon="4.49963">
        <ele>677</ele>
        <time>2025-09-20T11:48:52Z</time>
      </trkpt>
      <trkpt lat="46.23238" lon="4.49964">
        <ele>677</ele>
        <time>2025-09-20T11:48:53Z</time>
      </trkpt>
      <trkpt lat="46.23241" lon="4.49966">
        <ele>677</ele>
        <time>2025-09-20T11:48:54Z</time>
      </trkpt>
      <trkpt lat="46.23244" lon="4.49968">
        <ele>677.4</ele>
        <time>2025-09-20T11:48:55Z</time>
      </trkpt>
      <trkpt lat="46.23247" lon="4.4997">
        <ele>677.6</ele>
        <time>2025-09-20T11:48:56Z</time>
      </trkpt>
      <trkpt lat="46.2325" lon="4.49972">
        <ele>677.6</ele>
        <time>2025-09-20T11:48:57Z</time>
      </trkpt>
      <trkpt lat="46.23253" lon="4.49973">
        <ele>677.6</ele>
        <time>2025-09-20T11:48:58Z</time>
      </trkpt>
      <trkpt lat="46.23256" lon="4.49974">
        <ele>677.8</ele>
        <time>2025-09-20T11:48:59Z</time>
      </trkpt>
      <trkpt lat="46.23259" lon="4.49976">
        <ele>677.8</ele>
        <time>2025-09-20T11:49:00Z</time>
      </trkpt>
      <trkpt lat="46.23262" lon="4.49977">
        <ele>677.2</ele>
        <time>2025-09-20T11:49:01Z</time>
      </trkpt>
      <trkpt lat="46.23265" lon="4.49978">
        <ele>677.4</ele>
        <time>2025-09-20T11:49:02Z</time>
      </trkpt>
      <trkpt lat="46.23269" lon="4.49978">
        <ele>677.8</ele>
        <time>2025-09-20T11:49:03Z</time>
      </trkpt>
      <trkpt lat="46.23272" lon="4.49978">
        <ele>678</ele>
        <time>2025-09-20T11:49:04Z</time>
      </trkpt>
      <trkpt lat="46.23275" lon="4.49978">
        <ele>678</ele>
        <time>2025-09-20T11:49:05Z</time>
      </trkpt>
      <trkpt lat="46.23279" lon="4.49978">
        <ele>678.4</ele>
        <time>2025-09-20T11:49:06Z</time>
      </trkpt>
      <trkpt lat="46.23282" lon="4.49978">
        <ele>678.6</ele>
        <time>2025-09-20T11:49:07Z</time>
      </trkpt>
      <trkpt lat="46.23284" lon="4.49978">
        <ele>679</ele>
        <time>2025-09-20T11:49:08Z</time>
      </trkpt>
      <trkpt lat="46.23287" lon="4.49978">
        <ele>678.8</ele>
        <time>2025-09-20T11:49:09Z</time>
      </trkpt>
      <trkpt lat="46.2329" lon="4.49978">
        <ele>678.8</ele>
        <time>2025-09-20T11:49:10Z</time>
      </trkpt>
      <trkpt lat="46.23293" lon="4.49978">
        <ele>678.8</ele>
        <time>2025-09-20T11:49:11Z</time>
      </trkpt>
      <trkpt lat="46.23296" lon="4.49977">
        <ele>679.2</ele>
        <time>2025-09-20T11:49:12Z</time>
      </trkpt>
      <trkpt lat="46.23299" lon="4.49977">
        <ele>679.2</ele>
        <time>2025-09-20T11:49:13Z</time>
      </trkpt>
      <trkpt lat="46.23303" lon="4.49977">
        <ele>679.2</ele>
        <time>2025-09-20T11:49:14Z</time>
      </trkpt>
      <trkpt lat="46.23306" lon="4.49977">
        <ele>679.4</ele>
        <time>2025-09-20T11:49:15Z</time>
      </trkpt>
      <trkpt lat="46.23309" lon="4.49976">
        <ele>679.4</ele>
        <time>2025-09-20T11:49:16Z</time>
      </trkpt>
      <trkpt lat="46.23312" lon="4.49976">
        <ele>679.4</ele>
        <time>2025-09-20T11:49:17Z</time>
      </trkpt>
      <trkpt lat="46.23315" lon="4.49975">
        <ele>679.4</ele>
        <time>2025-09-20T11:49:18Z</time>
      </trkpt>
      <trkpt lat="46.23318" lon="4.49975">
        <ele>679.8</ele>
        <time>2025-09-20T11:49:19Z</time>
      </trkpt>
      <trkpt lat="46.23322" lon="4.49974">
        <ele>679.2</ele>
        <time>2025-09-20T11:49:20Z</time>
      </trkpt>
      <trkpt lat="46.23325" lon="4.49973">
        <ele>679.4</ele>
        <time>2025-09-20T11:49:21Z</time>
      </trkpt>
      <trkpt lat="46.23328" lon="4.49972">
        <ele>679.4</ele>
        <time>2025-09-20T11:49:22Z</time>
      </trkpt>
      <trkpt lat="46.23331" lon="4.49971">
        <ele>679.4</ele>
        <time>2025-09-20T11:49:23Z</time>
      </trkpt>
      <trkpt lat="46.23334" lon="4.4997">
        <ele>679.6</ele>
        <time>2025-09-20T11:49:24Z</time>
      </trkpt>
      <trkpt lat="46.23337" lon="4.49969">
        <ele>679.8</ele>
        <time>2025-09-20T11:49:25Z</time>
      </trkpt>
      <trkpt lat="46.2334" lon="4.49968">
        <ele>680.4</ele>
        <time>2025-09-20T11:49:26Z</time>
      </trkpt>
      <trkpt lat="46.23343" lon="4.49966">
        <ele>680.4</ele>
        <time>2025-09-20T11:49:27Z</time>
      </trkpt>
      <trkpt lat="46.23345" lon="4.49965">
        <ele>680.2</ele>
        <time>2025-09-20T11:49:28Z</time>
      </trkpt>
      <trkpt lat="46.23348" lon="4.49964">
        <ele>680.6</ele>
        <time>2025-09-20T11:49:29Z</time>
      </trkpt>
      <trkpt lat="46.23352" lon="4.49963">
        <ele>680.8</ele>
        <time>2025-09-20T11:49:30Z</time>
      </trkpt>
      <trkpt lat="46.23355" lon="4.49962">
        <ele>680.8</ele>
        <time>2025-09-20T11:49:31Z</time>
      </trkpt>
      <trkpt lat="46.23358" lon="4.49961">
        <ele>680.6</ele>
        <time>2025-09-20T11:49:32Z</time>
      </trkpt>
      <trkpt lat="46.23361" lon="4.49959">
        <ele>680.6</ele>
        <time>2025-09-20T11:49:33Z</time>
      </trkpt>
      <trkpt lat="46.23364" lon="4.49958">
        <ele>680.2</ele>
        <time>2025-09-20T11:49:34Z</time>
      </trkpt>
      <trkpt lat="46.23366" lon="4.49957">
        <ele>680.2</ele>
        <time>2025-09-20T11:49:35Z</time>
      </trkpt>
      <trkpt lat="46.23369" lon="4.49956">
        <ele>680.2</ele>
        <time>2025-09-20T11:49:36Z</time>
      </trkpt>
      <trkpt lat="46.23372" lon="4.49954">
        <ele>680.4</ele>
        <time>2025-09-20T11:49:37Z</time>
      </trkpt>
      <trkpt lat="46.23374" lon="4.49954">
        <ele>680.8</ele>
        <time>2025-09-20T11:49:38Z</time>
      </trkpt>
      <trkpt lat="46.23378" lon="4.49954">
        <ele>681.2</ele>
        <time>2025-09-20T11:49:39Z</time>
      </trkpt>
      <trkpt lat="46.23381" lon="4.49953">
        <ele>681</ele>
        <time>2025-09-20T11:49:40Z</time>
      </trkpt>
      <trkpt lat="46.23384" lon="4.49953">
        <ele>681</ele>
        <time>2025-09-20T11:49:41Z</time>
      </trkpt>
      <trkpt lat="46.23387" lon="4.49952">
        <ele>681</ele>
        <time>2025-09-20T11:49:42Z</time>
      </trkpt>
      <trkpt lat="46.2339" lon="4.49952">
        <ele>681.2</ele>
        <time>2025-09-20T11:49:43Z</time>
      </trkpt>
      <trkpt lat="46.23393" lon="4.49951">
        <ele>681.6</ele>
        <time>2025-09-20T11:49:44Z</time>
      </trkpt>
      <trkpt lat="46.23395" lon="4.49951">
        <ele>681.6</ele>
        <time>2025-09-20T11:49:45Z</time>
      </trkpt>
      <trkpt lat="46.23398" lon="4.4995">
        <ele>682</ele>
        <time>2025-09-20T11:49:46Z</time>
      </trkpt>
      <trkpt lat="46.23401" lon="4.49949">
        <ele>682.6</ele>
        <time>2025-09-20T11:49:47Z</time>
      </trkpt>
      <trkpt lat="46.23404" lon="4.49949">
        <ele>683</ele>
        <time>2025-09-20T11:49:48Z</time>
      </trkpt>
      <trkpt lat="46.23407" lon="4.49948">
        <ele>683.4</ele>
        <time>2025-09-20T11:49:49Z</time>
      </trkpt>
      <trkpt lat="46.23409" lon="4.49947">
        <ele>683.2</ele>
        <time>2025-09-20T11:49:50Z</time>
      </trkpt>
      <trkpt lat="46.23412" lon="4.49946">
        <ele>683.2</ele>
        <time>2025-09-20T11:49:51Z</time>
      </trkpt>
      <trkpt lat="46.23415" lon="4.49946">
        <ele>683.4</ele>
        <time>2025-09-20T11:49:52Z</time>
      </trkpt>
      <trkpt lat="46.23418" lon="4.49945">
        <ele>683.6</ele>
        <time>2025-09-20T11:49:53Z</time>
      </trkpt>
      <trkpt lat="46.23421" lon="4.49945">
        <ele>683.6</ele>
        <time>2025-09-20T11:49:54Z</time>
      </trkpt>
      <trkpt lat="46.23423" lon="4.49945">
        <ele>683.6</ele>
        <time>2025-09-20T11:49:55Z</time>
      </trkpt>
      <trkpt lat="46.23426" lon="4.49945">
        <ele>684</ele>
        <time>2025-09-20T11:49:56Z</time>
      </trkpt>
      <trkpt lat="46.23429" lon="4.49945">
        <ele>684</ele>
        <time>2025-09-20T11:49:57Z</time>
      </trkpt>
      <trkpt lat="46.23432" lon="4.49946">
        <ele>684.2</ele>
        <time>2025-09-20T11:49:58Z</time>
      </trkpt>
      <trkpt lat="46.23434" lon="4.49946">
        <ele>684.2</ele>
        <time>2025-09-20T11:49:59Z</time>
      </trkpt>
      <trkpt lat="46.23437" lon="4.49947">
        <ele>684.4</ele>
        <time>2025-09-20T11:50:00Z</time>
      </trkpt>
      <trkpt lat="46.2344" lon="4.49948">
        <ele>684.4</ele>
        <time>2025-09-20T11:50:01Z</time>
      </trkpt>
      <trkpt lat="46.23443" lon="4.4995">
        <ele>684.4</ele>
        <time>2025-09-20T11:50:02Z</time>
      </trkpt>
      <trkpt lat="46.23446" lon="4.49951">
        <ele>684.4</ele>
        <time>2025-09-20T11:50:03Z</time>
      </trkpt>
      <trkpt lat="46.23449" lon="4.49952">
        <ele>684.4</ele>
        <time>2025-09-20T11:50:04Z</time>
      </trkpt>
      <trkpt lat="46.23452" lon="4.49953">
        <ele>684.4</ele>
        <time>2025-09-20T11:50:05Z</time>
      </trkpt>
      <trkpt lat="46.23455" lon="4.49955">
        <ele>684.4</ele>
        <time>2025-09-20T11:50:06Z</time>
      </trkpt>
      <trkpt lat="46.23458" lon="4.49957">
        <ele>684.4</ele>
        <time>2025-09-20T11:50:07Z</time>
      </trkpt>
      <trkpt lat="46.23461" lon="4.49958">
        <ele>684.4</ele>
        <time>2025-09-20T11:50:08Z</time>
      </trkpt>
      <trkpt lat="46.23463" lon="4.4996">
        <ele>684.4</ele>
        <time>2025-09-20T11:50:09Z</time>
      </trkpt>
      <trkpt lat="46.23466" lon="4.49962">
        <ele>684.4</ele>
        <time>2025-09-20T11:50:10Z</time>
      </trkpt>
      <trkpt lat="46.23469" lon="4.49964">
        <ele>684.8</ele>
        <time>2025-09-20T11:50:11Z</time>
      </trkpt>
      <trkpt lat="46.23471" lon="4.49966">
        <ele>684.4</ele>
        <time>2025-09-20T11:50:12Z</time>
      </trkpt>
      <trkpt lat="46.23474" lon="4.49968">
        <ele>684.4</ele>
        <time>2025-09-20T11:50:13Z</time>
      </trkpt>
      <trkpt lat="46.23477" lon="4.4997">
        <ele>684.6</ele>
        <time>2025-09-20T11:50:14Z</time>
      </trkpt>
      <trkpt lat="46.23479" lon="4.49972">
        <ele>685</ele>
        <time>2025-09-20T11:50:15Z</time>
      </trkpt>
      <trkpt lat="46.23482" lon="4.49974">
        <ele>685</ele>
        <time>2025-09-20T11:50:16Z</time>
      </trkpt>
      <trkpt lat="46.23485" lon="4.49976">
        <ele>685</ele>
        <time>2025-09-20T11:50:17Z</time>
      </trkpt>
      <trkpt lat="46.23488" lon="4.49979">
        <ele>684.6</ele>
        <time>2025-09-20T11:50:18Z</time>
      </trkpt>
      <trkpt lat="46.2349" lon="4.49981">
        <ele>684.6</ele>
        <time>2025-09-20T11:50:19Z</time>
      </trkpt>
      <trkpt lat="46.23493" lon="4.49983">
        <ele>685</ele>
        <time>2025-09-20T11:50:20Z</time>
      </trkpt>
      <trkpt lat="46.23495" lon="4.49986">
        <ele>685</ele>
        <time>2025-09-20T11:50:21Z</time>
      </trkpt>
      <trkpt lat="46.23498" lon="4.49988">
        <ele>685.4</ele>
        <time>2025-09-20T11:50:22Z</time>
      </trkpt>
      <trkpt lat="46.235" lon="4.49989">
        <ele>685.8</ele>
        <time>2025-09-20T11:50:23Z</time>
      </trkpt>
      <trkpt lat="46.23502" lon="4.49991">
        <ele>686.4</ele>
        <time>2025-09-20T11:50:24Z</time>
      </trkpt>
      <trkpt lat="46.23504" lon="4.49993">
        <ele>686.4</ele>
        <time>2025-09-20T11:50:25Z</time>
      </trkpt>
      <trkpt lat="46.23506" lon="4.49995">
        <ele>686.6</ele>
        <time>2025-09-20T11:50:26Z</time>
      </trkpt>
      <trkpt lat="46.23508" lon="4.49996">
        <ele>687.4</ele>
        <time>2025-09-20T11:50:27Z</time>
      </trkpt>
      <trkpt lat="46.23511" lon="4.49998">
        <ele>687.4</ele>
        <time>2025-09-20T11:50:28Z</time>
      </trkpt>
      <trkpt lat="46.23514" lon="4.49999">
        <ele>686.2</ele>
        <time>2025-09-20T11:50:29Z</time>
      </trkpt>
      <trkpt lat="46.23516" lon="4.5">
        <ele>686.2</ele>
        <time>2025-09-20T11:50:30Z</time>
      </trkpt>
      <trkpt lat="46.23519" lon="4.5">
        <ele>686.2</ele>
        <time>2025-09-20T11:50:31Z</time>
      </trkpt>
      <trkpt lat="46.2352" lon="4.50001">
        <ele>686.8</ele>
        <time>2025-09-20T11:50:32Z</time>
      </trkpt>
      <trkpt lat="46.23522" lon="4.50001">
        <ele>687</ele>
        <time>2025-09-20T11:50:33Z</time>
      </trkpt>
      <trkpt lat="46.23525" lon="4.50001">
        <ele>687</ele>
        <time>2025-09-20T11:50:34Z</time>
      </trkpt>
      <trkpt lat="46.23529" lon="4.50003">
        <ele>687.4</ele>
        <time>2025-09-20T11:50:35Z</time>
      </trkpt>
      <trkpt lat="46.23533" lon="4.50006">
        <ele>687.4</ele>
        <time>2025-09-20T11:50:36Z</time>
      </trkpt>
      <trkpt lat="46.23537" lon="4.50009">
        <ele>687.4</ele>
        <time>2025-09-20T11:50:37Z</time>
      </trkpt>
      <trkpt lat="46.23541" lon="4.50012">
        <ele>687.4</ele>
        <time>2025-09-20T11:50:38Z</time>
      </trkpt>
      <trkpt lat="46.23544" lon="4.50014">
        <ele>687.6</ele>
        <time>2025-09-20T11:50:39Z</time>
      </trkpt>
      <trkpt lat="46.23547" lon="4.50015">
        <ele>687.6</ele>
        <time>2025-09-20T11:50:40Z</time>
      </trkpt>
      <trkpt lat="46.23551" lon="4.50017">
        <ele>687.6</ele>
        <time>2025-09-20T11:50:41Z</time>
      </trkpt>
      <trkpt lat="46.23555" lon="4.50018">
        <ele>687.6</ele>
        <time>2025-09-20T11:50:42Z</time>
      </trkpt>
      <trkpt lat="46.23557" lon="4.50018">
        <ele>687.6</ele>
        <time>2025-09-20T11:50:43Z</time>
      </trkpt>
      <trkpt lat="46.2356" lon="4.50019">
        <ele>687.6</ele>
        <time>2025-09-20T11:50:44Z</time>
      </trkpt>
      <trkpt lat="46.23563" lon="4.5002">
        <ele>687.6</ele>
        <time>2025-09-20T11:50:45Z</time>
      </trkpt>
      <trkpt lat="46.23566" lon="4.5002">
        <ele>687.8</ele>
        <time>2025-09-20T11:50:46Z</time>
      </trkpt>
      <trkpt lat="46.23569" lon="4.50021">
        <ele>687.8</ele>
        <time>2025-09-20T11:50:47Z</time>
      </trkpt>
      <trkpt lat="46.23572" lon="4.50021">
        <ele>688.4</ele>
        <time>2025-09-20T11:50:48Z</time>
      </trkpt>
      <trkpt lat="46.23575" lon="4.50021">
        <ele>688.4</ele>
        <time>2025-09-20T11:50:49Z</time>
      </trkpt>
      <trkpt lat="46.23578" lon="4.50021">
        <ele>688.4</ele>
        <time>2025-09-20T11:50:50Z</time>
      </trkpt>
      <trkpt lat="46.23581" lon="4.50021">
        <ele>688.6</ele>
        <time>2025-09-20T11:50:51Z</time>
      </trkpt>
      <trkpt lat="46.23583" lon="4.50021">
        <ele>688.6</ele>
        <time>2025-09-20T11:50:52Z</time>
      </trkpt>
      <trkpt lat="46.23586" lon="4.50021">
        <ele>688.8</ele>
        <time>2025-09-20T11:50:53Z</time>
      </trkpt>
      <trkpt lat="46.23589" lon="4.50021">
        <ele>688.8</ele>
        <time>2025-09-20T11:50:54Z</time>
      </trkpt>
      <trkpt lat="46.23592" lon="4.50021">
        <ele>688.8</ele>
        <time>2025-09-20T11:50:55Z</time>
      </trkpt>
      <trkpt lat="46.23594" lon="4.5002">
        <ele>687.8</ele>
        <time>2025-09-20T11:50:56Z</time>
      </trkpt>
      <trkpt lat="46.23597" lon="4.5002">
        <ele>688.4</ele>
        <time>2025-09-20T11:50:57Z</time>
      </trkpt>
      <trkpt lat="46.236" lon="4.5002">
        <ele>688.8</ele>
        <time>2025-09-20T11:50:58Z</time>
      </trkpt>
      <trkpt lat="46.23602" lon="4.5002">
        <ele>688.8</ele>
        <time>2025-09-20T11:50:59Z</time>
      </trkpt>
      <trkpt lat="46.23604" lon="4.5002">
        <ele>689.2</ele>
        <time>2025-09-20T11:51:00Z</time>
      </trkpt>
      <trkpt lat="46.23606" lon="4.5002">
        <ele>689.4</ele>
        <time>2025-09-20T11:51:01Z</time>
      </trkpt>
      <trkpt lat="46.23608" lon="4.50019">
        <ele>689.4</ele>
        <time>2025-09-20T11:51:02Z</time>
      </trkpt>
      <trkpt lat="46.2361" lon="4.50019">
        <ele>689.8</ele>
        <time>2025-09-20T11:51:03Z</time>
      </trkpt>
      <trkpt lat="46.23612" lon="4.50019">
        <ele>689.8</ele>
        <time>2025-09-20T11:51:04Z</time>
      </trkpt>
      <trkpt lat="46.23614" lon="4.50018">
        <ele>689.4</ele>
        <time>2025-09-20T11:51:05Z</time>
      </trkpt>
      <trkpt lat="46.23616" lon="4.50018">
        <ele>689.4</ele>
        <time>2025-09-20T11:51:06Z</time>
      </trkpt>
      <trkpt lat="46.23618" lon="4.50018">
        <ele>689.6</ele>
        <time>2025-09-20T11:51:07Z</time>
      </trkpt>
      <trkpt lat="46.2362" lon="4.50018">
        <ele>689.6</ele>
        <time>2025-09-20T11:51:08Z</time>
      </trkpt>
      <trkpt lat="46.23622" lon="4.50018">
        <ele>689.6</ele>
        <time>2025-09-20T11:51:09Z</time>
      </trkpt>
      <trkpt lat="46.23623" lon="4.50018">
        <ele>689.6</ele>
        <time>2025-09-20T11:51:10Z</time>
      </trkpt>
      <trkpt lat="46.23625" lon="4.50017">
        <ele>689.6</ele>
        <time>2025-09-20T11:51:11Z</time>
      </trkpt>
      <trkpt lat="46.23627" lon="4.50017">
        <ele>690.2</ele>
        <time>2025-09-20T11:51:12Z</time>
      </trkpt>
      <trkpt lat="46.23629" lon="4.50017">
        <ele>690.4</ele>
        <time>2025-09-20T11:51:13Z</time>
      </trkpt>
      <trkpt lat="46.23631" lon="4.50017">
        <ele>690.2</ele>
        <time>2025-09-20T11:51:14Z</time>
      </trkpt>
      <trkpt lat="46.23632" lon="4.50016">
        <ele>690.4</ele>
        <time>2025-09-20T11:51:15Z</time>
      </trkpt>
      <trkpt lat="46.23633" lon="4.50015">
        <ele>690.4</ele>
        <time>2025-09-20T11:51:16Z</time>
      </trkpt>
      <trkpt lat="46.23634" lon="4.50014">
        <ele>690.4</ele>
        <time>2025-09-20T11:51:17Z</time>
      </trkpt>
      <trkpt lat="46.23635" lon="4.50014">
        <ele>690.4</ele>
        <time>2025-09-20T11:51:18Z</time>
      </trkpt>
      <trkpt lat="46.23637" lon="4.50014">
        <ele>690.8</ele>
        <time>2025-09-20T11:51:19Z</time>
      </trkpt>
      <trkpt lat="46.23638" lon="4.50015">
        <ele>690.8</ele>
        <time>2025-09-20T11:51:20Z</time>
      </trkpt>
      <trkpt lat="46.23639" lon="4.50015">
        <ele>690.8</ele>
        <time>2025-09-20T11:51:21Z</time>
      </trkpt>
      <trkpt lat="46.2364" lon="4.50015">
        <ele>691</ele>
        <time>2025-09-20T11:51:22Z</time>
      </trkpt>
      <trkpt lat="46.23638" lon="4.50012">
        <ele>691.4</ele>
        <time>2025-09-20T11:52:50Z</time>
      </trkpt>
      <trkpt lat="46.23639" lon="4.5001">
        <ele>691.4</ele>
        <time>2025-09-20T11:52:51Z</time>
      </trkpt>
      <trkpt lat="46.23639" lon="4.50008">
        <ele>691.6</ele>
        <time>2025-09-20T11:52:52Z</time>
      </trkpt>
      <trkpt lat="46.23639" lon="4.50006">
        <ele>691.6</ele>
        <time>2025-09-20T11:52:53Z</time>
      </trkpt>
      <trkpt lat="46.23639" lon="4.50005">
        <ele>692</ele>
        <time>2025-09-20T11:52:54Z</time>
      </trkpt>
      <trkpt lat="46.2364" lon="4.50004">
        <ele>692.2</ele>
        <time>2025-09-20T11:52:55Z</time>
      </trkpt>
      <trkpt lat="46.2364" lon="4.50003">
        <ele>692.4</ele>
        <time>2025-09-20T11:52:56Z</time>
      </trkpt>
      <trkpt lat="46.2364" lon="4.50002">
        <ele>692.4</ele>
        <time>2025-09-20T11:52:57Z</time>
      </trkpt>
      <trkpt lat="46.23641" lon="4.50001">
        <ele>692.8</ele>
        <time>2025-09-20T11:52:58Z</time>
      </trkpt>
      <trkpt lat="46.23641" lon="4.5">
        <ele>692.8</ele>
        <time>2025-09-20T11:52:59Z</time>
      </trkpt>
      <trkpt lat="46.23641" lon="4.49999">
        <ele>693</ele>
        <time>2025-09-20T11:53:00Z</time>
      </trkpt>
      <trkpt lat="46.23642" lon="4.49999">
        <ele>693</ele>
        <time>2025-09-20T11:53:01Z</time>
      </trkpt>
      <trkpt lat="46.23642" lon="4.49999">
        <ele>693</ele>
        <time>2025-09-20T11:53:02Z</time>
      </trkpt>
      <trkpt lat="46.23642" lon="4.5">
        <ele>693.2</ele>
        <time>2025-09-20T11:53:03Z</time>
      </trkpt>
      <trkpt lat="46.23644" lon="4.50001">
        <ele>693.6</ele>
        <time>2025-09-20T11:53:15Z</time>
      </trkpt>
      <trkpt lat="46.23645" lon="4.50001">
        <ele>693.6</ele>
        <time>2025-09-20T11:53:16Z</time>
      </trkpt>
      <trkpt lat="46.23646" lon="4.5">
        <ele>693.6</ele>
        <time>2025-09-20T11:53:17Z</time>
      </trkpt>
      <trkpt lat="46.23647" lon="4.5">
        <ele>693.4</ele>
        <time>2025-09-20T11:53:18Z</time>
      </trkpt>
      <trkpt lat="46.23647" lon="4.50001">
        <ele>693.4</ele>
        <time>2025-09-20T11:53:19Z</time>
      </trkpt>
      <trkpt lat="46.23647" lon="4.50001">
        <ele>693.4</ele>
        <time>2025-09-20T11:53:20Z</time>
      </trkpt>
      <trkpt lat="46.23647" lon="4.50001">
        <ele>693.4</ele>
        <time>2025-09-20T11:53:21Z</time>
      </trkpt>
      <trkpt lat="46.23648" lon="4.50001">
        <ele>693.6</ele>
        <time>2025-09-20T11:53:22Z</time>
      </trkpt>
      <trkpt lat="46.23649" lon="4.50001">
        <ele>693.6</ele>
        <time>2025-09-20T11:53:23Z</time>
      </trkpt>
      <trkpt lat="46.2365" lon="4.50001">
        <ele>693.6</ele>
        <time>2025-09-20T11:53:24Z</time>
      </trkpt>
      <trkpt lat="46.23651" lon="4.50001">
        <ele>693.6</ele>
        <time>2025-09-20T11:53:25Z</time>
      </trkpt>
      <trkpt lat="46.23652" lon="4.50001">
        <ele>693.8</ele>
        <time>2025-09-20T11:53:26Z</time>
      </trkpt>
      <trkpt lat="46.23652" lon="4.50001">
        <ele>693.8</ele>
        <time>2025-09-20T11:53:27Z</time>
      </trkpt>
      <trkpt lat="46.23653" lon="4.50002">
        <ele>693.8</ele>
        <time>2025-09-20T11:53:28Z</time>
      </trkpt>
      <trkpt lat="46.23654" lon="4.50002">
        <ele>693.8</ele>
        <time>2025-09-20T11:53:29Z</time>
      </trkpt>
      <trkpt lat="46.23656" lon="4.50001">
        <ele>693.8</ele>
        <time>2025-09-20T11:53:30Z</time>
      </trkpt>
      <trkpt lat="46.23657" lon="4.50001">
        <ele>693.8</ele>
        <time>2025-09-20T11:53:31Z</time>
      </trkpt>
      <trkpt lat="46.23658" lon="4.50001">
        <ele>693.8</ele>
        <time>2025-09-20T11:53:32Z</time>
      </trkpt>
      <trkpt lat="46.23658" lon="4.50001">
        <ele>693.6</ele>
        <time>2025-09-20T11:53:33Z</time>
      </trkpt>
      <trkpt lat="46.23659" lon="4.5">
        <ele>693.6</ele>
        <time>2025-09-20T11:53:34Z</time>
      </trkpt>
      <trkpt lat="46.23659" lon="4.50001">
        <ele>693.6</ele>
        <time>2025-09-20T11:53:35Z</time>
      </trkpt>
      <trkpt lat="46.23659" lon="4.50001">
        <ele>693.8</ele>
        <time>2025-09-20T11:53:36Z</time>
      </trkpt>
      <trkpt lat="46.23658" lon="4.50008">
        <ele>694.6</ele>
        <time>2025-09-20T11:55:12Z</time>
      </trkpt>
      <trkpt lat="46.23657" lon="4.50008">
        <ele>694.6</ele>
        <time>2025-09-20T11:55:13Z</time>
      </trkpt>
      <trkpt lat="46.23656" lon="4.50009">
        <ele>694.6</ele>
        <time>2025-09-20T11:55:14Z</time>
      </trkpt>
      <trkpt lat="46.23655" lon="4.50009">
        <ele>694.6</ele>
        <time>2025-09-20T11:55:15Z</time>
      </trkpt>
      <trkpt lat="46.23653" lon="4.50009">
        <ele>694.6</ele>
        <time>2025-09-20T11:55:16Z</time>
      </trkpt>
      <trkpt lat="46.23652" lon="4.50009">
        <ele>694.4</ele>
        <time>2025-09-20T11:55:17Z</time>
      </trkpt>
      <trkpt lat="46.23652" lon="4.50009">
        <ele>694.4</ele>
        <time>2025-09-20T11:55:18Z</time>
      </trkpt>
      <trkpt lat="46.23651" lon="4.50008">
        <ele>694.4</ele>
        <time>2025-09-20T11:55:19Z</time>
      </trkpt>
      <trkpt lat="46.23649" lon="4.50007">
        <ele>694</ele>
        <time>2025-09-20T11:55:20Z</time>
      </trkpt>
      <trkpt lat="46.23648" lon="4.50007">
        <ele>693.8</ele>
        <time>2025-09-20T11:55:21Z</time>
      </trkpt>
      <trkpt lat="46.23647" lon="4.50007">
        <ele>694</ele>
        <time>2025-09-20T11:55:22Z</time>
      </trkpt>
      <trkpt lat="46.23646" lon="4.50007">
        <ele>693.6</ele>
        <time>2025-09-20T11:55:23Z</time>
      </trkpt>
      <trkpt lat="46.23646" lon="4.50007">
        <ele>693.6</ele>
        <time>2025-09-20T11:55:24Z</time>
      </trkpt>
      <trkpt lat="46.23645" lon="4.50007">
        <ele>693.6</ele>
        <time>2025-09-20T11:55:25Z</time>
      </trkpt>
      <trkpt lat="46.23644" lon="4.50008">
        <ele>693.6</ele>
        <time>2025-09-20T11:55:26Z</time>
      </trkpt>
      <trkpt lat="46.23644" lon="4.50008">
        <ele>693.6</ele>
        <time>2025-09-20T11:55:27Z</time>
      </trkpt>
      <trkpt lat="46.23645" lon="4.50008">
        <ele>693.6</ele>
        <time>2025-09-20T11:55:28Z</time>
      </trkpt>
      <trkpt lat="46.23644" lon="4.50008">
        <ele>693.6</ele>
        <time>2025-09-20T11:55:29Z</time>
      </trkpt>
      <trkpt lat="46.23642" lon="4.50009">
        <ele>693.6</ele>
        <time>2025-09-20T11:55:30Z</time>
      </trkpt>
      <trkpt lat="46.23641" lon="4.50011">
        <ele>693.6</ele>
        <time>2025-09-20T11:55:31Z</time>
      </trkpt>
      <trkpt lat="46.23641" lon="4.50012">
        <ele>693.6</ele>
        <time>2025-09-20T11:55:32Z</time>
      </trkpt>
      <trkpt lat="46.2364" lon="4.50015">
        <ele>693.2</ele>
        <time>2025-09-20T11:55:33Z</time>
      </trkpt>
      <trkpt lat="46.23639" lon="4.50018">
        <ele>693</ele>
        <time>2025-09-20T11:55:34Z</time>
      </trkpt>
      <trkpt lat="46.23638" lon="4.5002">
        <ele>692.8</ele>
        <time>2025-09-20T11:55:35Z</time>
      </trkpt>
      <trkpt lat="46.23638" lon="4.50023">
        <ele>692.4</ele>
        <time>2025-09-20T11:55:36Z</time>
      </trkpt>
      <trkpt lat="46.2364" lon="4.50026">
        <ele>692.2</ele>
        <time>2025-09-20T11:55:37Z</time>
      </trkpt>
      <trkpt lat="46.23643" lon="4.50027">
        <ele>692</ele>
        <time>2025-09-20T11:55:38Z</time>
      </trkpt>
      <trkpt lat="46.23646" lon="4.50027">
        <ele>692</ele>
        <time>2025-09-20T11:55:39Z</time>
      </trkpt>
      <trkpt lat="46.2365" lon="4.50026">
        <ele>692</ele>
        <time>2025-09-20T11:55:40Z</time>
      </trkpt>
      <trkpt lat="46.23653" lon="4.50025">
        <ele>692.2</ele>
        <time>2025-09-20T11:55:41Z</time>
      </trkpt>
      <trkpt lat="46.23657" lon="4.50024">
        <ele>692.2</ele>
        <time>2025-09-20T11:55:42Z</time>
      </trkpt>
      <trkpt lat="46.23661" lon="4.50023">
        <ele>691.8</ele>
        <time>2025-09-20T11:55:43Z</time>
      </trkpt>
      <trkpt lat="46.23665" lon="4.50022">
        <ele>691.8</ele>
        <time>2025-09-20T11:55:44Z</time>
      </trkpt>
      <trkpt lat="46.23669" lon="4.50022">
        <ele>691.8</ele>
        <time>2025-09-20T11:55:45Z</time>
      </trkpt>
      <trkpt lat="46.23673" lon="4.50021">
        <ele>691.8</ele>
        <time>2025-09-20T11:55:46Z</time>
      </trkpt>
      <trkpt lat="46.23677" lon="4.50021">
        <ele>691.8</ele>
        <time>2025-09-20T11:55:47Z</time>
      </trkpt>
      <trkpt lat="46.23681" lon="4.50021">
        <ele>691.4</ele>
        <time>2025-09-20T11:55:48Z</time>
      </trkpt>
      <trkpt lat="46.23685" lon="4.5002">
        <ele>691.4</ele>
        <time>2025-09-20T11:55:49Z</time>
      </trkpt>
      <trkpt lat="46.23688" lon="4.50019">
        <ele>692.6</ele>
        <time>2025-09-20T11:55:50Z</time>
      </trkpt>
      <trkpt lat="46.23692" lon="4.50018">
        <ele>693</ele>
        <time>2025-09-20T11:55:51Z</time>
      </trkpt>
      <trkpt lat="46.23696" lon="4.50018">
        <ele>693.6</ele>
        <time>2025-09-20T11:55:52Z</time>
      </trkpt>
      <trkpt lat="46.237" lon="4.50017">
        <ele>693</ele>
        <time>2025-09-20T11:55:53Z</time>
      </trkpt>
      <trkpt lat="46.23703" lon="4.50017">
        <ele>693</ele>
        <time>2025-09-20T11:55:54Z</time>
      </trkpt>
      <trkpt lat="46.23707" lon="4.50016">
        <ele>693</ele>
        <time>2025-09-20T11:55:55Z</time>
      </trkpt>
      <trkpt lat="46.23711" lon="4.50015">
        <ele>693</ele>
        <time>2025-09-20T11:55:56Z</time>
      </trkpt>
      <trkpt lat="46.23713" lon="4.50016">
        <ele>693</ele>
        <time>2025-09-20T11:55:57Z</time>
      </trkpt>
      <trkpt lat="46.23717" lon="4.50016">
        <ele>693.2</ele>
        <time>2025-09-20T11:55:58Z</time>
      </trkpt>
      <trkpt lat="46.23721" lon="4.50015">
        <ele>693.2</ele>
        <time>2025-09-20T11:55:59Z</time>
      </trkpt>
      <trkpt lat="46.23724" lon="4.50014">
        <ele>693.2</ele>
        <time>2025-09-20T11:56:00Z</time>
      </trkpt>
      <trkpt lat="46.23727" lon="4.50014">
        <ele>693.2</ele>
        <time>2025-09-20T11:56:01Z</time>
      </trkpt>
      <trkpt lat="46.2373" lon="4.50013">
        <ele>693.8</ele>
        <time>2025-09-20T11:56:02Z</time>
      </trkpt>
      <trkpt lat="46.23734" lon="4.50013">
        <ele>693.6</ele>
        <time>2025-09-20T11:56:03Z</time>
      </trkpt>
      <trkpt lat="46.23737" lon="4.50013">
        <ele>693.2</ele>
        <time>2025-09-20T11:56:04Z</time>
      </trkpt>
      <trkpt lat="46.23739" lon="4.50012">
        <ele>693.2</ele>
        <time>2025-09-20T11:56:05Z</time>
      </trkpt>
      <trkpt lat="46.23742" lon="4.50011">
        <ele>693.6</ele>
        <time>2025-09-20T11:56:06Z</time>
      </trkpt>
      <trkpt lat="46.23748" lon="4.50008">
        <ele>693.6</ele>
        <time>2025-09-20T11:56:07Z</time>
      </trkpt>
      <trkpt lat="46.2375" lon="4.50007">
        <ele>694.4</ele>
        <time>2025-09-20T11:56:08Z</time>
      </trkpt>
      <trkpt lat="46.23752" lon="4.50007">
        <ele>693.6</ele>
        <time>2025-09-20T11:56:09Z</time>
      </trkpt>
      <trkpt lat="46.23756" lon="4.50006">
        <ele>694.2</ele>
        <time>2025-09-20T11:56:10Z</time>
      </trkpt>
      <trkpt lat="46.23759" lon="4.50006">
        <ele>694.2</ele>
        <time>2025-09-20T11:56:11Z</time>
      </trkpt>
      <trkpt lat="46.23762" lon="4.50006">
        <ele>694.4</ele>
        <time>2025-09-20T11:56:12Z</time>
      </trkpt>
      <trkpt lat="46.23765" lon="4.50006">
        <ele>694.8</ele>
        <time>2025-09-20T11:56:13Z</time>
      </trkpt>
      <trkpt lat="46.23768" lon="4.50005">
        <ele>694.8</ele>
        <time>2025-09-20T11:56:14Z</time>
      </trkpt>
      <trkpt lat="46.23771" lon="4.50005">
        <ele>695</ele>
        <time>2025-09-20T11:56:15Z</time>
      </trkpt>
      <trkpt lat="46.23774" lon="4.50007">
        <ele>695.6</ele>
        <time>2025-09-20T11:56:16Z</time>
      </trkpt>
      <trkpt lat="46.23776" lon="4.50006">
        <ele>695.2</ele>
        <time>2025-09-20T11:56:17Z</time>
      </trkpt>
      <trkpt lat="46.23778" lon="4.50005">
        <ele>695.2</ele>
        <time>2025-09-20T11:56:18Z</time>
      </trkpt>
      <trkpt lat="46.23781" lon="4.50003">
        <ele>695.2</ele>
        <time>2025-09-20T11:56:19Z</time>
      </trkpt>
      <trkpt lat="46.23784" lon="4.50002">
        <ele>695.2</ele>
        <time>2025-09-20T11:56:20Z</time>
      </trkpt>
      <trkpt lat="46.23787" lon="4.50001">
        <ele>695.6</ele>
        <time>2025-09-20T11:56:21Z</time>
      </trkpt>
      <trkpt lat="46.2379" lon="4.5">
        <ele>695.6</ele>
        <time>2025-09-20T11:56:22Z</time>
      </trkpt>
      <trkpt lat="46.23794" lon="4.49999">
        <ele>695.6</ele>
        <time>2025-09-20T11:56:23Z</time>
      </trkpt>
      <trkpt lat="46.23797" lon="4.49998">
        <ele>695.4</ele>
        <time>2025-09-20T11:56:24Z</time>
      </trkpt>
      <trkpt lat="46.238" lon="4.49997">
        <ele>695.4</ele>
        <time>2025-09-20T11:56:25Z</time>
      </trkpt>
      <trkpt lat="46.23803" lon="4.49995">
        <ele>695.4</ele>
        <time>2025-09-20T11:56:26Z</time>
      </trkpt>
      <trkpt lat="46.23806" lon="4.49994">
        <ele>695.8</ele>
        <time>2025-09-20T11:56:27Z</time>
      </trkpt>
      <trkpt lat="46.23806" lon="4.49994">
        <ele>696</ele>
        <time>2025-09-20T11:56:28Z</time>
      </trkpt>
      <trkpt lat="46.23809" lon="4.49992">
        <ele>696</ele>
        <time>2025-09-20T11:56:29Z</time>
      </trkpt>
      <trkpt lat="46.23812" lon="4.4999">
        <ele>696.4</ele>
        <time>2025-09-20T11:56:30Z</time>
      </trkpt>
      <trkpt lat="46.23815" lon="4.49989">
        <ele>696.4</ele>
        <time>2025-09-20T11:56:31Z</time>
      </trkpt>
      <trkpt lat="46.23817" lon="4.49987">
        <ele>696.6</ele>
        <time>2025-09-20T11:56:32Z</time>
      </trkpt>
      <trkpt lat="46.2382" lon="4.49985">
        <ele>696.6</ele>
        <time>2025-09-20T11:56:33Z</time>
      </trkpt>
      <trkpt lat="46.23823" lon="4.49983">
        <ele>697</ele>
        <time>2025-09-20T11:56:34Z</time>
      </trkpt>
      <trkpt lat="46.23825" lon="4.49981">
        <ele>697.4</ele>
        <time>2025-09-20T11:56:35Z</time>
      </trkpt>
      <trkpt lat="46.23827" lon="4.49978">
        <ele>697.4</ele>
        <time>2025-09-20T11:56:36Z</time>
      </trkpt>
      <trkpt lat="46.2383" lon="4.49976">
        <ele>697.4</ele>
        <time>2025-09-20T11:56:37Z</time>
      </trkpt>
      <trkpt lat="46.23832" lon="4.49973">
        <ele>697</ele>
        <time>2025-09-20T11:56:38Z</time>
      </trkpt>
      <trkpt lat="46.23834" lon="4.49971">
        <ele>697.4</ele>
        <time>2025-09-20T11:56:39Z</time>
      </trkpt>
      <trkpt lat="46.23838" lon="4.49968">
        <ele>697.4</ele>
        <time>2025-09-20T11:56:40Z</time>
      </trkpt>
      <trkpt lat="46.23841" lon="4.49965">
        <ele>697.6</ele>
        <time>2025-09-20T11:56:41Z</time>
      </trkpt>
      <trkpt lat="46.23843" lon="4.49962">
        <ele>697.4</ele>
        <time>2025-09-20T11:56:42Z</time>
      </trkpt>
      <trkpt lat="46.23845" lon="4.4996">
        <ele>698</ele>
        <time>2025-09-20T11:56:43Z</time>
      </trkpt>
      <trkpt lat="46.23848" lon="4.49956">
        <ele>698.2</ele>
        <time>2025-09-20T11:56:44Z</time>
      </trkpt>
      <trkpt lat="46.23849" lon="4.49953">
        <ele>698.2</ele>
        <time>2025-09-20T11:56:45Z</time>
      </trkpt>
      <trkpt lat="46.23851" lon="4.4995">
        <ele>698.6</ele>
        <time>2025-09-20T11:56:46Z</time>
      </trkpt>
      <trkpt lat="46.23853" lon="4.49947">
        <ele>698.6</ele>
        <time>2025-09-20T11:56:47Z</time>
      </trkpt>
      <trkpt lat="46.23856" lon="4.49943">
        <ele>699.2</ele>
        <time>2025-09-20T11:56:48Z</time>
      </trkpt>
      <trkpt lat="46.23859" lon="4.4994">
        <ele>699.6</ele>
        <time>2025-09-20T11:56:49Z</time>
      </trkpt>
      <trkpt lat="46.23861" lon="4.49936">
        <ele>699.2</ele>
        <time>2025-09-20T11:56:50Z</time>
      </trkpt>
      <trkpt lat="46.23863" lon="4.49933">
        <ele>699.2</ele>
        <time>2025-09-20T11:56:51Z</time>
      </trkpt>
      <trkpt lat="46.23866" lon="4.4993">
        <ele>699.2</ele>
        <time>2025-09-20T11:56:52Z</time>
      </trkpt>
      <trkpt lat="46.23868" lon="4.49927">
        <ele>699.6</ele>
        <time>2025-09-20T11:56:53Z</time>
      </trkpt>
      <trkpt lat="46.2387" lon="4.49923">
        <ele>699.6</ele>
        <time>2025-09-20T11:56:54Z</time>
      </trkpt>
      <trkpt lat="46.23872" lon="4.4992">
        <ele>699.6</ele>
        <time>2025-09-20T11:56:55Z</time>
      </trkpt>
      <trkpt lat="46.23874" lon="4.49916">
        <ele>699.8</ele>
        <time>2025-09-20T11:56:56Z</time>
      </trkpt>
      <trkpt lat="46.23876" lon="4.49912">
        <ele>699.8</ele>
        <time>2025-09-20T11:56:57Z</time>
      </trkpt>
      <trkpt lat="46.23877" lon="4.49908">
        <ele>697.8</ele>
        <time>2025-09-20T11:56:58Z</time>
      </trkpt>
      <trkpt lat="46.23877" lon="4.49905">
        <ele>697.8</ele>
        <time>2025-09-20T11:56:59Z</time>
      </trkpt>
      <trkpt lat="46.23878" lon="4.49902">
        <ele>698.8</ele>
        <time>2025-09-20T11:57:00Z</time>
      </trkpt>
      <trkpt lat="46.23879" lon="4.49898">
        <ele>699.4</ele>
        <time>2025-09-20T11:57:01Z</time>
      </trkpt>
      <trkpt lat="46.23881" lon="4.49895">
        <ele>699.4</ele>
        <time>2025-09-20T11:57:02Z</time>
      </trkpt>
      <trkpt lat="46.23882" lon="4.49891">
        <ele>699.8</ele>
        <time>2025-09-20T11:57:03Z</time>
      </trkpt>
      <trkpt lat="46.23884" lon="4.49887">
        <ele>700.2</ele>
        <time>2025-09-20T11:57:04Z</time>
      </trkpt>
      <trkpt lat="46.23885" lon="4.49883">
        <ele>700.6</ele>
        <time>2025-09-20T11:57:05Z</time>
      </trkpt>
      <trkpt lat="46.23886" lon="4.4988">
        <ele>700</ele>
        <time>2025-09-20T11:57:06Z</time>
      </trkpt>
      <trkpt lat="46.23888" lon="4.49877">
        <ele>700.4</ele>
        <time>2025-09-20T11:57:07Z</time>
      </trkpt>
      <trkpt lat="46.2389" lon="4.49874">
        <ele>700.6</ele>
        <time>2025-09-20T11:57:08Z</time>
      </trkpt>
      <trkpt lat="46.23892" lon="4.49872">
        <ele>700.2</ele>
        <time>2025-09-20T11:57:09Z</time>
      </trkpt>
      <trkpt lat="46.23894" lon="4.49869">
        <ele>699.6</ele>
        <time>2025-09-20T11:57:10Z</time>
      </trkpt>
      <trkpt lat="46.23896" lon="4.49866">
        <ele>699.6</ele>
        <time>2025-09-20T11:57:11Z</time>
      </trkpt>
      <trkpt lat="46.23899" lon="4.49862">
        <ele>700</ele>
        <time>2025-09-20T11:57:12Z</time>
      </trkpt>
      <trkpt lat="46.23902" lon="4.49858">
        <ele>699.6</ele>
        <time>2025-09-20T11:57:13Z</time>
      </trkpt>
      <trkpt lat="46.23904" lon="4.49855">
        <ele>700</ele>
        <time>2025-09-20T11:57:14Z</time>
      </trkpt>
      <trkpt lat="46.23907" lon="4.49851">
        <ele>700.4</ele>
        <time>2025-09-20T11:57:15Z</time>
      </trkpt>
      <trkpt lat="46.23909" lon="4.49847">
        <ele>700.6</ele>
        <time>2025-09-20T11:57:16Z</time>
      </trkpt>
      <trkpt lat="46.23911" lon="4.49843">
        <ele>701</ele>
        <time>2025-09-20T11:57:17Z</time>
      </trkpt>
      <trkpt lat="46.23912" lon="4.49839">
        <ele>701.2</ele>
        <time>2025-09-20T11:57:18Z</time>
      </trkpt>
      <trkpt lat="46.23913" lon="4.49835">
        <ele>701.6</ele>
        <time>2025-09-20T11:57:19Z</time>
      </trkpt>
      <trkpt lat="46.23915" lon="4.49831">
        <ele>701.6</ele>
        <time>2025-09-20T11:57:20Z</time>
      </trkpt>
      <trkpt lat="46.23917" lon="4.49827">
        <ele>701.6</ele>
        <time>2025-09-20T11:57:21Z</time>
      </trkpt>
      <trkpt lat="46.23919" lon="4.49824">
        <ele>701.6</ele>
        <time>2025-09-20T11:57:22Z</time>
      </trkpt>
      <trkpt lat="46.2392" lon="4.4982">
        <ele>702</ele>
        <time>2025-09-20T11:57:23Z</time>
      </trkpt>
      <trkpt lat="46.23922" lon="4.49816">
        <ele>702</ele>
        <time>2025-09-20T11:57:24Z</time>
      </trkpt>
      <trkpt lat="46.23924" lon="4.49811">
        <ele>702.4</ele>
        <time>2025-09-20T11:57:25Z</time>
      </trkpt>
      <trkpt lat="46.23926" lon="4.49807">
        <ele>702.4</ele>
        <time>2025-09-20T11:57:26Z</time>
      </trkpt>
      <trkpt lat="46.23928" lon="4.49805">
        <ele>702.4</ele>
        <time>2025-09-20T11:57:27Z</time>
      </trkpt>
      <trkpt lat="46.23929" lon="4.49804">
        <ele>702.4</ele>
        <time>2025-09-20T11:57:28Z</time>
      </trkpt>
      <trkpt lat="46.2393" lon="4.49803">
        <ele>702.4</ele>
        <time>2025-09-20T11:57:29Z</time>
      </trkpt>
      <trkpt lat="46.23931" lon="4.49801">
        <ele>701.8</ele>
        <time>2025-09-20T11:57:30Z</time>
      </trkpt>
      <trkpt lat="46.23932" lon="4.498">
        <ele>701.8</ele>
        <time>2025-09-20T11:57:31Z</time>
      </trkpt>
      <trkpt lat="46.23933" lon="4.49799">
        <ele>701.8</ele>
        <time>2025-09-20T11:57:32Z</time>
      </trkpt>
      <trkpt lat="46.23934" lon="4.49799">
        <ele>701.8</ele>
        <time>2025-09-20T11:57:33Z</time>
      </trkpt>
      <trkpt lat="46.23935" lon="4.49799">
        <ele>701.8</ele>
        <time>2025-09-20T11:57:34Z</time>
      </trkpt>
      <trkpt lat="46.23936" lon="4.49798">
        <ele>701.8</ele>
        <time>2025-09-20T11:57:35Z</time>
      </trkpt>
      <trkpt lat="46.23938" lon="4.49797">
        <ele>701.8</ele>
        <time>2025-09-20T11:57:36Z</time>
      </trkpt>
      <trkpt lat="46.23939" lon="4.49795">
        <ele>701.8</ele>
        <time>2025-09-20T11:57:37Z</time>
      </trkpt>
      <trkpt lat="46.23941" lon="4.49792">
        <ele>702.2</ele>
        <time>2025-09-20T11:57:38Z</time>
      </trkpt>
      <trkpt lat="46.23944" lon="4.4979">
        <ele>702.2</ele>
        <time>2025-09-20T11:57:39Z</time>
      </trkpt>
      <trkpt lat="46.23947" lon="4.49788">
        <ele>702.2</ele>
        <time>2025-09-20T11:57:40Z</time>
      </trkpt>
      <trkpt lat="46.23949" lon="4.49786">
        <ele>702.2</ele>
        <time>2025-09-20T11:57:41Z</time>
      </trkpt>
      <trkpt lat="46.23951" lon="4.49784">
        <ele>702.2</ele>
        <time>2025-09-20T11:57:42Z</time>
      </trkpt>
      <trkpt lat="46.23954" lon="4.49783">
        <ele>702.4</ele>
        <time>2025-09-20T11:57:43Z</time>
      </trkpt>
      <trkpt lat="46.23957" lon="4.49781">
        <ele>702.4</ele>
        <time>2025-09-20T11:57:44Z</time>
      </trkpt>
      <trkpt lat="46.2396" lon="4.4978">
        <ele>702.4</ele>
        <time>2025-09-20T11:57:45Z</time>
      </trkpt>
      <trkpt lat="46.23962" lon="4.49779">
        <ele>702.4</ele>
        <time>2025-09-20T11:57:46Z</time>
      </trkpt>
      <trkpt lat="46.23965" lon="4.49778">
        <ele>702.4</ele>
        <time>2025-09-20T11:57:47Z</time>
      </trkpt>
      <trkpt lat="46.23969" lon="4.49777">
        <ele>702.8</ele>
        <time>2025-09-20T11:57:48Z</time>
      </trkpt>
      <trkpt lat="46.23971" lon="4.49776">
        <ele>703.2</ele>
        <time>2025-09-20T11:57:49Z</time>
      </trkpt>
      <trkpt lat="46.23972" lon="4.49775">
        <ele>703.2</ele>
        <time>2025-09-20T11:57:50Z</time>
      </trkpt>
      <trkpt lat="46.23975" lon="4.49774">
        <ele>702.8</ele>
        <time>2025-09-20T11:57:51Z</time>
      </trkpt>
      <trkpt lat="46.23978" lon="4.49774">
        <ele>703.4</ele>
        <time>2025-09-20T11:57:52Z</time>
      </trkpt>
      <trkpt lat="46.23982" lon="4.49773">
        <ele>703.4</ele>
        <time>2025-09-20T11:57:53Z</time>
      </trkpt>
      <trkpt lat="46.23985" lon="4.49773">
        <ele>703.6</ele>
        <time>2025-09-20T11:57:54Z</time>
      </trkpt>
      <trkpt lat="46.23989" lon="4.49773">
        <ele>704</ele>
        <time>2025-09-20T11:57:55Z</time>
      </trkpt>
      <trkpt lat="46.23993" lon="4.49773">
        <ele>704.4</ele>
        <time>2025-09-20T11:57:56Z</time>
      </trkpt>
      <trkpt lat="46.23997" lon="4.49774">
        <ele>704.6</ele>
        <time>2025-09-20T11:57:57Z</time>
      </trkpt>
      <trkpt lat="46.24001" lon="4.49775">
        <ele>704.6</ele>
        <time>2025-09-20T11:57:58Z</time>
      </trkpt>
      <trkpt lat="46.24004" lon="4.49775">
        <ele>704.6</ele>
        <time>2025-09-20T11:57:59Z</time>
      </trkpt>
      <trkpt lat="46.24008" lon="4.49776">
        <ele>704.2</ele>
        <time>2025-09-20T11:58:00Z</time>
      </trkpt>
      <trkpt lat="46.24011" lon="4.49778">
        <ele>704.2</ele>
        <time>2025-09-20T11:58:01Z</time>
      </trkpt>
      <trkpt lat="46.24015" lon="4.49779">
        <ele>704.2</ele>
        <time>2025-09-20T11:58:02Z</time>
      </trkpt>
      <trkpt lat="46.24018" lon="4.4978">
        <ele>704.2</ele>
        <time>2025-09-20T11:58:03Z</time>
      </trkpt>
      <trkpt lat="46.24021" lon="4.49782">
        <ele>704.2</ele>
        <time>2025-09-20T11:58:04Z</time>
      </trkpt>
      <trkpt lat="46.24025" lon="4.49783">
        <ele>704.2</ele>
        <time>2025-09-20T11:58:05Z</time>
      </trkpt>
      <trkpt lat="46.24028" lon="4.49785">
        <ele>703.8</ele>
        <time>2025-09-20T11:58:06Z</time>
      </trkpt>
      <trkpt lat="46.24031" lon="4.49788">
        <ele>703.8</ele>
        <time>2025-09-20T11:58:07Z</time>
      </trkpt>
      <trkpt lat="46.24034" lon="4.49791">
        <ele>703.8</ele>
        <time>2025-09-20T11:58:08Z</time>
      </trkpt>
      <trkpt lat="46.24037" lon="4.49793">
        <ele>704.2</ele>
        <time>2025-09-20T11:58:09Z</time>
      </trkpt>
      <trkpt lat="46.24039" lon="4.49795">
        <ele>704.8</ele>
        <time>2025-09-20T11:58:10Z</time>
      </trkpt>
      <trkpt lat="46.24042" lon="4.49796">
        <ele>704.8</ele>
        <time>2025-09-20T11:58:11Z</time>
      </trkpt>
      <trkpt lat="46.24045" lon="4.49797">
        <ele>705</ele>
        <time>2025-09-20T11:58:12Z</time>
      </trkpt>
      <trkpt lat="46.24048" lon="4.49798">
        <ele>705.4</ele>
        <time>2025-09-20T11:58:13Z</time>
      </trkpt>
      <trkpt lat="46.24051" lon="4.498">
        <ele>705.4</ele>
        <time>2025-09-20T11:58:14Z</time>
      </trkpt>
      <trkpt lat="46.24055" lon="4.49802">
        <ele>705.8</ele>
        <time>2025-09-20T11:58:15Z</time>
      </trkpt>
      <trkpt lat="46.24057" lon="4.49804">
        <ele>706.2</ele>
        <time>2025-09-20T11:58:16Z</time>
      </trkpt>
      <trkpt lat="46.2406" lon="4.49806">
        <ele>706.2</ele>
        <time>2025-09-20T11:58:17Z</time>
      </trkpt>
      <trkpt lat="46.24063" lon="4.49807">
        <ele>706.2</ele>
        <time>2025-09-20T11:58:18Z</time>
      </trkpt>
      <trkpt lat="46.24066" lon="4.49809">
        <ele>706.2</ele>
        <time>2025-09-20T11:58:19Z</time>
      </trkpt>
      <trkpt lat="46.24068" lon="4.49811">
        <ele>706</ele>
        <time>2025-09-20T11:58:20Z</time>
      </trkpt>
      <trkpt lat="46.24071" lon="4.49813">
        <ele>706</ele>
        <time>2025-09-20T11:58:21Z</time>
      </trkpt>
      <trkpt lat="46.24073" lon="4.49816">
        <ele>706.2</ele>
        <time>2025-09-20T11:58:22Z</time>
      </trkpt>
      <trkpt lat="46.24076" lon="4.49818">
        <ele>706.2</ele>
        <time>2025-09-20T11:58:23Z</time>
      </trkpt>
      <trkpt lat="46.24077" lon="4.4982">
        <ele>706.2</ele>
        <time>2025-09-20T11:58:24Z</time>
      </trkpt>
      <trkpt lat="46.2408" lon="4.49821">
        <ele>706.4</ele>
        <time>2025-09-20T11:58:25Z</time>
      </trkpt>
      <trkpt lat="46.24082" lon="4.49822">
        <ele>706.4</ele>
        <time>2025-09-20T11:58:26Z</time>
      </trkpt>
      <trkpt lat="46.24084" lon="4.49822">
        <ele>706.6</ele>
        <time>2025-09-20T11:58:27Z</time>
      </trkpt>
      <trkpt lat="46.24088" lon="4.49823">
        <ele>707</ele>
        <time>2025-09-20T11:58:28Z</time>
      </trkpt>
      <trkpt lat="46.24091" lon="4.49824">
        <ele>707</ele>
        <time>2025-09-20T11:58:29Z</time>
      </trkpt>
      <trkpt lat="46.24093" lon="4.49825">
        <ele>707.2</ele>
        <time>2025-09-20T11:58:30Z</time>
      </trkpt>
      <trkpt lat="46.24096" lon="4.49827">
        <ele>707.2</ele>
        <time>2025-09-20T11:58:31Z</time>
      </trkpt>
      <trkpt lat="46.24099" lon="4.49829">
        <ele>707.6</ele>
        <time>2025-09-20T11:58:32Z</time>
      </trkpt>
      <trkpt lat="46.24102" lon="4.4983">
        <ele>707.6</ele>
        <time>2025-09-20T11:58:33Z</time>
      </trkpt>
      <trkpt lat="46.24105" lon="4.4983">
        <ele>708</ele>
        <time>2025-09-20T11:58:34Z</time>
      </trkpt>
      <trkpt lat="46.24108" lon="4.49831">
        <ele>707.8</ele>
        <time>2025-09-20T11:58:35Z</time>
      </trkpt>
      <trkpt lat="46.24112" lon="4.49831">
        <ele>707.8</ele>
        <time>2025-09-20T11:58:36Z</time>
      </trkpt>
      <trkpt lat="46.24115" lon="4.49831">
        <ele>707</ele>
        <time>2025-09-20T11:58:37Z</time>
      </trkpt>
      <trkpt lat="46.24118" lon="4.4983">
        <ele>708</ele>
        <time>2025-09-20T11:58:38Z</time>
      </trkpt>
      <trkpt lat="46.24121" lon="4.4983">
        <ele>707.6</ele>
        <time>2025-09-20T11:58:39Z</time>
      </trkpt>
      <trkpt lat="46.24124" lon="4.49829">
        <ele>707.6</ele>
        <time>2025-09-20T11:58:40Z</time>
      </trkpt>
      <trkpt lat="46.24128" lon="4.49829">
        <ele>708</ele>
        <time>2025-09-20T11:58:41Z</time>
      </trkpt>
      <trkpt lat="46.24132" lon="4.49828">
        <ele>708.4</ele>
        <time>2025-09-20T11:58:42Z</time>
      </trkpt>
      <trkpt lat="46.24135" lon="4.49827">
        <ele>708.4</ele>
        <time>2025-09-20T11:58:43Z</time>
      </trkpt>
      <trkpt lat="46.24139" lon="4.49826">
        <ele>708.2</ele>
        <time>2025-09-20T11:58:44Z</time>
      </trkpt>
      <trkpt lat="46.24142" lon="4.49825">
        <ele>708.4</ele>
        <time>2025-09-20T11:58:45Z</time>
      </trkpt>
      <trkpt lat="46.24145" lon="4.49823">
        <ele>708.4</ele>
        <time>2025-09-20T11:58:46Z</time>
      </trkpt>
      <trkpt lat="46.24149" lon="4.49821">
        <ele>708.4</ele>
        <time>2025-09-20T11:58:47Z</time>
      </trkpt>
      <trkpt lat="46.24152" lon="4.4982">
        <ele>708.4</ele>
        <time>2025-09-20T11:58:48Z</time>
      </trkpt>
      <trkpt lat="46.24155" lon="4.49818">
        <ele>708.4</ele>
        <time>2025-09-20T11:58:49Z</time>
      </trkpt>
      <trkpt lat="46.24158" lon="4.49816">
        <ele>708.4</ele>
        <time>2025-09-20T11:58:50Z</time>
      </trkpt>
      <trkpt lat="46.24162" lon="4.49814">
        <ele>708.6</ele>
        <time>2025-09-20T11:58:51Z</time>
      </trkpt>
      <trkpt lat="46.24166" lon="4.49812">
        <ele>709</ele>
        <time>2025-09-20T11:58:52Z</time>
      </trkpt>
      <trkpt lat="46.24169" lon="4.4981">
        <ele>709</ele>
        <time>2025-09-20T11:58:53Z</time>
      </trkpt>
      <trkpt lat="46.24172" lon="4.49808">
        <ele>708.6</ele>
        <time>2025-09-20T11:58:54Z</time>
      </trkpt>
      <trkpt lat="46.24176" lon="4.49805">
        <ele>708.6</ele>
        <time>2025-09-20T11:58:55Z</time>
      </trkpt>
      <trkpt lat="46.2418" lon="4.49802">
        <ele>708.8</ele>
        <time>2025-09-20T11:58:56Z</time>
      </trkpt>
      <trkpt lat="46.24183" lon="4.498">
        <ele>708.8</ele>
        <time>2025-09-20T11:58:57Z</time>
      </trkpt>
      <trkpt lat="46.24186" lon="4.49797">
        <ele>708.8</ele>
        <time>2025-09-20T11:58:58Z</time>
      </trkpt>
      <trkpt lat="46.24189" lon="4.49795">
        <ele>708.8</ele>
        <time>2025-09-20T11:58:59Z</time>
      </trkpt>
      <trkpt lat="46.24192" lon="4.49792">
        <ele>708</ele>
        <time>2025-09-20T11:59:00Z</time>
      </trkpt>
      <trkpt lat="46.24195" lon="4.49789">
        <ele>708</ele>
        <time>2025-09-20T11:59:01Z</time>
      </trkpt>
      <trkpt lat="46.24199" lon="4.49787">
        <ele>708</ele>
        <time>2025-09-20T11:59:02Z</time>
      </trkpt>
      <trkpt lat="46.24203" lon="4.49785">
        <ele>708.2</ele>
        <time>2025-09-20T11:59:03Z</time>
      </trkpt>
      <trkpt lat="46.24206" lon="4.49784">
        <ele>708.2</ele>
        <time>2025-09-20T11:59:04Z</time>
      </trkpt>
      <trkpt lat="46.24209" lon="4.49782">
        <ele>708.2</ele>
        <time>2025-09-20T11:59:05Z</time>
      </trkpt>
      <trkpt lat="46.24213" lon="4.49779">
        <ele>708.8</ele>
        <time>2025-09-20T11:59:06Z</time>
      </trkpt>
      <trkpt lat="46.24217" lon="4.49776">
        <ele>708.8</ele>
        <time>2025-09-20T11:59:07Z</time>
      </trkpt>
      <trkpt lat="46.2422" lon="4.49773">
        <ele>709</ele>
        <time>2025-09-20T11:59:08Z</time>
      </trkpt>
      <trkpt lat="46.24223" lon="4.49771">
        <ele>709</ele>
        <time>2025-09-20T11:59:09Z</time>
      </trkpt>
      <trkpt lat="46.24226" lon="4.49771">
        <ele>709</ele>
        <time>2025-09-20T11:59:10Z</time>
      </trkpt>
      <trkpt lat="46.24229" lon="4.4977">
        <ele>709</ele>
        <time>2025-09-20T11:59:11Z</time>
      </trkpt>
      <trkpt lat="46.24234" lon="4.49767">
        <ele>709.2</ele>
        <time>2025-09-20T11:59:12Z</time>
      </trkpt>
      <trkpt lat="46.24238" lon="4.49766">
        <ele>709.2</ele>
        <time>2025-09-20T11:59:13Z</time>
      </trkpt>
      <trkpt lat="46.24242" lon="4.49764">
        <ele>708.8</ele>
        <time>2025-09-20T11:59:14Z</time>
      </trkpt>
      <trkpt lat="46.24246" lon="4.49762">
        <ele>708.8</ele>
        <time>2025-09-20T11:59:15Z</time>
      </trkpt>
      <trkpt lat="46.24249" lon="4.4976">
        <ele>708.8</ele>
        <time>2025-09-20T11:59:16Z</time>
      </trkpt>
      <trkpt lat="46.24253" lon="4.49758">
        <ele>708.8</ele>
        <time>2025-09-20T11:59:17Z</time>
      </trkpt>
      <trkpt lat="46.24257" lon="4.49755">
        <ele>708.8</ele>
        <time>2025-09-20T11:59:18Z</time>
      </trkpt>
      <trkpt lat="46.24261" lon="4.49753">
        <ele>709</ele>
        <time>2025-09-20T11:59:19Z</time>
      </trkpt>
      <trkpt lat="46.24267" lon="4.49751">
        <ele>708.8</ele>
        <time>2025-09-20T11:59:20Z</time>
      </trkpt>
      <trkpt lat="46.24271" lon="4.4975">
        <ele>709.2</ele>
        <time>2025-09-20T11:59:21Z</time>
      </trkpt>
      <trkpt lat="46.24274" lon="4.49751">
        <ele>709.2</ele>
        <time>2025-09-20T11:59:22Z</time>
      </trkpt>
      <trkpt lat="46.24278" lon="4.4975">
        <ele>709.6</ele>
        <time>2025-09-20T11:59:23Z</time>
      </trkpt>
      <trkpt lat="46.24282" lon="4.49751">
        <ele>709.2</ele>
        <time>2025-09-20T11:59:24Z</time>
      </trkpt>
      <trkpt lat="46.24286" lon="4.49751">
        <ele>709.2</ele>
        <time>2025-09-20T11:59:25Z</time>
      </trkpt>
      <trkpt lat="46.24289" lon="4.49751">
        <ele>709.6</ele>
        <time>2025-09-20T11:59:26Z</time>
      </trkpt>
      <trkpt lat="46.24291" lon="4.49751">
        <ele>709.6</ele>
        <time>2025-09-20T11:59:27Z</time>
      </trkpt>
      <trkpt lat="46.24294" lon="4.49751">
        <ele>709.8</ele>
        <time>2025-09-20T11:59:28Z</time>
      </trkpt>
      <trkpt lat="46.24295" lon="4.49751">
        <ele>709.8</ele>
        <time>2025-09-20T11:59:29Z</time>
      </trkpt>
      <trkpt lat="46.24297" lon="4.49752">
        <ele>709.8</ele>
        <time>2025-09-20T11:59:30Z</time>
      </trkpt>
      <trkpt lat="46.24298" lon="4.49751">
        <ele>709.4</ele>
        <time>2025-09-20T11:59:31Z</time>
      </trkpt>
      <trkpt lat="46.24298" lon="4.49751">
        <ele>709.4</ele>
        <time>2025-09-20T11:59:32Z</time>
      </trkpt>
      <trkpt lat="46.24298" lon="4.49751">
        <ele>709.4</ele>
        <time>2025-09-20T11:59:33Z</time>
      </trkpt>
      <trkpt lat="46.24303" lon="4.49753">
        <ele>709.2</ele>
        <time>2025-09-20T11:59:35Z</time>
      </trkpt>
      <trkpt lat="46.24304" lon="4.49754">
        <ele>709.2</ele>
        <time>2025-09-20T11:59:36Z</time>
      </trkpt>
      <trkpt lat="46.24306" lon="4.49755">
        <ele>709.6</ele>
        <time>2025-09-20T11:59:37Z</time>
      </trkpt>
      <trkpt lat="46.24308" lon="4.49756">
        <ele>710</ele>
        <time>2025-09-20T11:59:38Z</time>
      </trkpt>
      <trkpt lat="46.2431" lon="4.49756">
        <ele>710.2</ele>
        <time>2025-09-20T11:59:39Z</time>
      </trkpt>
      <trkpt lat="46.24313" lon="4.49758">
        <ele>710.2</ele>
        <time>2025-09-20T11:59:40Z</time>
      </trkpt>
      <trkpt lat="46.24316" lon="4.49759">
        <ele>710.2</ele>
        <time>2025-09-20T11:59:41Z</time>
      </trkpt>
      <trkpt lat="46.24319" lon="4.49761">
        <ele>710.2</ele>
        <time>2025-09-20T11:59:42Z</time>
      </trkpt>
      <trkpt lat="46.24322" lon="4.49763">
        <ele>710.2</ele>
        <time>2025-09-20T11:59:43Z</time>
      </trkpt>
      <trkpt lat="46.24325" lon="4.49765">
        <ele>710.2</ele>
        <time>2025-09-20T11:59:44Z</time>
      </trkpt>
      <trkpt lat="46.24328" lon="4.49768">
        <ele>710.2</ele>
        <time>2025-09-20T11:59:45Z</time>
      </trkpt>
      <trkpt lat="46.24332" lon="4.4977">
        <ele>710.4</ele>
        <time>2025-09-20T11:59:46Z</time>
      </trkpt>
      <trkpt lat="46.24335" lon="4.49773">
        <ele>710.4</ele>
        <time>2025-09-20T11:59:47Z</time>
      </trkpt>
      <trkpt lat="46.24338" lon="4.49776">
        <ele>710.6</ele>
        <time>2025-09-20T11:59:48Z</time>
      </trkpt>
      <trkpt lat="46.2434" lon="4.4978">
        <ele>710.6</ele>
        <time>2025-09-20T11:59:49Z</time>
      </trkpt>
      <trkpt lat="46.24343" lon="4.49783">
        <ele>710.6</ele>
        <time>2025-09-20T11:59:50Z</time>
      </trkpt>
      <trkpt lat="46.24345" lon="4.49785">
        <ele>710.8</ele>
        <time>2025-09-20T11:59:51Z</time>
      </trkpt>
      <trkpt lat="46.24348" lon="4.49788">
        <ele>710.8</ele>
        <time>2025-09-20T11:59:52Z</time>
      </trkpt>
      <trkpt lat="46.24351" lon="4.49791">
        <ele>710.8</ele>
        <time>2025-09-20T11:59:53Z</time>
      </trkpt>
      <trkpt lat="46.24353" lon="4.49794">
        <ele>710.8</ele>
        <time>2025-09-20T11:59:54Z</time>
      </trkpt>
      <trkpt lat="46.24355" lon="4.49797">
        <ele>710.8</ele>
        <time>2025-09-20T11:59:55Z</time>
      </trkpt>
      <trkpt lat="46.24358" lon="4.498">
        <ele>711.2</ele>
        <time>2025-09-20T11:59:56Z</time>
      </trkpt>
      <trkpt lat="46.2436" lon="4.49804">
        <ele>711.2</ele>
        <time>2025-09-20T11:59:57Z</time>
      </trkpt>
      <trkpt lat="46.24362" lon="4.49807">
        <ele>711.8</ele>
        <time>2025-09-20T11:59:58Z</time>
      </trkpt>
      <trkpt lat="46.24365" lon="4.4981">
        <ele>712</ele>
        <time>2025-09-20T11:59:59Z</time>
      </trkpt>
      <trkpt lat="46.24368" lon="4.49812">
        <ele>712</ele>
        <time>2025-09-20T12:00:00Z</time>
      </trkpt>
      <trkpt lat="46.2437" lon="4.49815">
        <ele>712</ele>
        <time>2025-09-20T12:00:01Z</time>
      </trkpt>
      <trkpt lat="46.24373" lon="4.49819">
        <ele>712</ele>
        <time>2025-09-20T12:00:02Z</time>
      </trkpt>
      <trkpt lat="46.24375" lon="4.49823">
        <ele>712.6</ele>
        <time>2025-09-20T12:00:03Z</time>
      </trkpt>
      <trkpt lat="46.24377" lon="4.49827">
        <ele>712.6</ele>
        <time>2025-09-20T12:00:04Z</time>
      </trkpt>
      <trkpt lat="46.24378" lon="4.49833">
        <ele>712.6</ele>
        <time>2025-09-20T12:00:05Z</time>
      </trkpt>
      <trkpt lat="46.24379" lon="4.49837">
        <ele>712.6</ele>
        <time>2025-09-20T12:00:06Z</time>
      </trkpt>
      <trkpt lat="46.24379" lon="4.49842">
        <ele>712.6</ele>
        <time>2025-09-20T12:00:07Z</time>
      </trkpt>
      <trkpt lat="46.2438" lon="4.49847">
        <ele>712.2</ele>
        <time>2025-09-20T12:00:08Z</time>
      </trkpt>
      <trkpt lat="46.24381" lon="4.49851">
        <ele>712.4</ele>
        <time>2025-09-20T12:00:09Z</time>
      </trkpt>
      <trkpt lat="46.2438" lon="4.49857">
        <ele>712.4</ele>
        <time>2025-09-20T12:00:10Z</time>
      </trkpt>
      <trkpt lat="46.24378" lon="4.49862">
        <ele>712.4</ele>
        <time>2025-09-20T12:00:11Z</time>
      </trkpt>
      <trkpt lat="46.24377" lon="4.49868">
        <ele>712.4</ele>
        <time>2025-09-20T12:00:12Z</time>
      </trkpt>
      <trkpt lat="46.24376" lon="4.49874">
        <ele>712.4</ele>
        <time>2025-09-20T12:00:13Z</time>
      </trkpt>
      <trkpt lat="46.24376" lon="4.49879">
        <ele>712.4</ele>
        <time>2025-09-20T12:00:14Z</time>
      </trkpt>
      <trkpt lat="46.24378" lon="4.49891">
        <ele>712.6</ele>
        <time>2025-09-20T12:00:15Z</time>
      </trkpt>
      <trkpt lat="46.24378" lon="4.49897">
        <ele>712.8</ele>
        <time>2025-09-20T12:00:16Z</time>
      </trkpt>
      <trkpt lat="46.24379" lon="4.49903">
        <ele>712.8</ele>
        <time>2025-09-20T12:00:17Z</time>
      </trkpt>
      <trkpt lat="46.24379" lon="4.49909">
        <ele>713.2</ele>
        <time>2025-09-20T12:00:18Z</time>
      </trkpt>
      <trkpt lat="46.2438" lon="4.49915">
        <ele>714.2</ele>
        <time>2025-09-20T12:00:19Z</time>
      </trkpt>
      <trkpt lat="46.2438" lon="4.49921">
        <ele>714.2</ele>
        <time>2025-09-20T12:00:20Z</time>
      </trkpt>
      <trkpt lat="46.24381" lon="4.49926">
        <ele>714</ele>
        <time>2025-09-20T12:00:21Z</time>
      </trkpt>
      <trkpt lat="46.2438" lon="4.49931">
        <ele>714</ele>
        <time>2025-09-20T12:00:22Z</time>
      </trkpt>
      <trkpt lat="46.2438" lon="4.49938">
        <ele>713.4</ele>
        <time>2025-09-20T12:00:23Z</time>
      </trkpt>
      <trkpt lat="46.2438" lon="4.49943">
        <ele>714.4</ele>
        <time>2025-09-20T12:00:24Z</time>
      </trkpt>
      <trkpt lat="46.24382" lon="4.49948">
        <ele>714.6</ele>
        <time>2025-09-20T12:00:25Z</time>
      </trkpt>
      <trkpt lat="46.24383" lon="4.49953">
        <ele>714.2</ele>
        <time>2025-09-20T12:00:26Z</time>
      </trkpt>
      <trkpt lat="46.24383" lon="4.49958">
        <ele>713.8</ele>
        <time>2025-09-20T12:00:27Z</time>
      </trkpt>
      <trkpt lat="46.24383" lon="4.49963">
        <ele>713.6</ele>
        <time>2025-09-20T12:00:28Z</time>
      </trkpt>
      <trkpt lat="46.24383" lon="4.49968">
        <ele>713.6</ele>
        <time>2025-09-20T12:00:29Z</time>
      </trkpt>
      <trkpt lat="46.24383" lon="4.49972">
        <ele>714</ele>
        <time>2025-09-20T12:00:30Z</time>
      </trkpt>
      <trkpt lat="46.24384" lon="4.49977">
        <ele>714.8</ele>
        <time>2025-09-20T12:00:31Z</time>
      </trkpt>
      <trkpt lat="46.24385" lon="4.49983">
        <ele>714.6</ele>
        <time>2025-09-20T12:00:32Z</time>
      </trkpt>
      <trkpt lat="46.24386" lon="4.49988">
        <ele>714.6</ele>
        <time>2025-09-20T12:00:33Z</time>
      </trkpt>
      <trkpt lat="46.24387" lon="4.49993">
        <ele>714.6</ele>
        <time>2025-09-20T12:00:34Z</time>
      </trkpt>
      <trkpt lat="46.24387" lon="4.49998">
        <ele>714.6</ele>
        <time>2025-09-20T12:00:35Z</time>
      </trkpt>
      <trkpt lat="46.24388" lon="4.50003">
        <ele>714.6</ele>
        <time>2025-09-20T12:00:36Z</time>
      </trkpt>
      <trkpt lat="46.24389" lon="4.5001">
        <ele>714.6</ele>
        <time>2025-09-20T12:00:37Z</time>
      </trkpt>
      <trkpt lat="46.24389" lon="4.50015">
        <ele>714.8</ele>
        <time>2025-09-20T12:00:38Z</time>
      </trkpt>
      <trkpt lat="46.2439" lon="4.50026">
        <ele>714.8</ele>
        <time>2025-09-20T12:00:39Z</time>
      </trkpt>
      <trkpt lat="46.2439" lon="4.50032">
        <ele>714.8</ele>
        <time>2025-09-20T12:00:40Z</time>
      </trkpt>
      <trkpt lat="46.24391" lon="4.50037">
        <ele>714.2</ele>
        <time>2025-09-20T12:00:41Z</time>
      </trkpt>
      <trkpt lat="46.24391" lon="4.50042">
        <ele>714.2</ele>
        <time>2025-09-20T12:00:42Z</time>
      </trkpt>
      <trkpt lat="46.24391" lon="4.50046">
        <ele>714.2</ele>
        <time>2025-09-20T12:00:43Z</time>
      </trkpt>
      <trkpt lat="46.24391" lon="4.50051">
        <ele>714.2</ele>
        <time>2025-09-20T12:00:44Z</time>
      </trkpt>
      <trkpt lat="46.24391" lon="4.50055">
        <ele>714.4</ele>
        <time>2025-09-20T12:00:45Z</time>
      </trkpt>
      <trkpt lat="46.24392" lon="4.5006">
        <ele>714.6</ele>
        <time>2025-09-20T12:00:46Z</time>
      </trkpt>
      <trkpt lat="46.24392" lon="4.50065">
        <ele>714.6</ele>
        <time>2025-09-20T12:00:47Z</time>
      </trkpt>
      <trkpt lat="46.24393" lon="4.5007">
        <ele>714.8</ele>
        <time>2025-09-20T12:00:48Z</time>
      </trkpt>
      <trkpt lat="46.24393" lon="4.50074">
        <ele>714.8</ele>
        <time>2025-09-20T12:00:49Z</time>
      </trkpt>
      <trkpt lat="46.24394" lon="4.50079">
        <ele>715.2</ele>
        <time>2025-09-20T12:00:50Z</time>
      </trkpt>
      <trkpt lat="46.24395" lon="4.50082">
        <ele>715.8</ele>
        <time>2025-09-20T12:00:51Z</time>
      </trkpt>
      <trkpt lat="46.24396" lon="4.50086">
        <ele>716</ele>
        <time>2025-09-20T12:00:52Z</time>
      </trkpt>
      <trkpt lat="46.24397" lon="4.5009">
        <ele>716</ele>
        <time>2025-09-20T12:00:53Z</time>
      </trkpt>
      <trkpt lat="46.24399" lon="4.50095">
        <ele>716.4</ele>
        <time>2025-09-20T12:00:54Z</time>
      </trkpt>
      <trkpt lat="46.244" lon="4.501">
        <ele>716.8</ele>
        <time>2025-09-20T12:00:55Z</time>
      </trkpt>
      <trkpt lat="46.24402" lon="4.50104">
        <ele>717</ele>
        <time>2025-09-20T12:00:56Z</time>
      </trkpt>
      <trkpt lat="46.24403" lon="4.50107">
        <ele>717.4</ele>
        <time>2025-09-20T12:00:57Z</time>
      </trkpt>
      <trkpt lat="46.24405" lon="4.5011">
        <ele>717.4</ele>
        <time>2025-09-20T12:00:58Z</time>
      </trkpt>
      <trkpt lat="46.24407" lon="4.50113">
        <ele>717.4</ele>
        <time>2025-09-20T12:00:59Z</time>
      </trkpt>
      <trkpt lat="46.24409" lon="4.50116">
        <ele>717.4</ele>
        <time>2025-09-20T12:01:00Z</time>
      </trkpt>
      <trkpt lat="46.24412" lon="4.5012">
        <ele>716.8</ele>
        <time>2025-09-20T12:01:01Z</time>
      </trkpt>
      <trkpt lat="46.24414" lon="4.50123">
        <ele>717.2</ele>
        <time>2025-09-20T12:01:02Z</time>
      </trkpt>
      <trkpt lat="46.24416" lon="4.50124">
        <ele>717.2</ele>
        <time>2025-09-20T12:01:03Z</time>
      </trkpt>
      <trkpt lat="46.24419" lon="4.50126">
        <ele>717.6</ele>
        <time>2025-09-20T12:01:04Z</time>
      </trkpt>
      <trkpt lat="46.24421" lon="4.50128">
        <ele>717.6</ele>
        <time>2025-09-20T12:01:05Z</time>
      </trkpt>
      <trkpt lat="46.24422" lon="4.5013">
        <ele>717.8</ele>
        <time>2025-09-20T12:01:06Z</time>
      </trkpt>
      <trkpt lat="46.24423" lon="4.50132">
        <ele>718.2</ele>
        <time>2025-09-20T12:01:07Z</time>
      </trkpt>
      <trkpt lat="46.24424" lon="4.50133">
        <ele>718.4</ele>
        <time>2025-09-20T12:01:08Z</time>
      </trkpt>
      <trkpt lat="46.24425" lon="4.50133">
        <ele>718.4</ele>
        <time>2025-09-20T12:01:09Z</time>
      </trkpt>
      <trkpt lat="46.24425" lon="4.50133">
        <ele>718.8</ele>
        <time>2025-09-20T12:01:10Z</time>
      </trkpt>
      <trkpt lat="46.24424" lon="4.50136">
        <ele>720</ele>
        <time>2025-09-20T12:03:28Z</time>
      </trkpt>
      <trkpt lat="46.24424" lon="4.50138">
        <ele>720</ele>
        <time>2025-09-20T12:03:29Z</time>
      </trkpt>
      <trkpt lat="46.24424" lon="4.50139">
        <ele>720</ele>
        <time>2025-09-20T12:03:30Z</time>
      </trkpt>
      <trkpt lat="46.24425" lon="4.5014">
        <ele>720</ele>
        <time>2025-09-20T12:03:31Z</time>
      </trkpt>
      <trkpt lat="46.24426" lon="4.50142">
        <ele>720</ele>
        <time>2025-09-20T12:03:32Z</time>
      </trkpt>
      <trkpt lat="46.24429" lon="4.50144">
        <ele>720</ele>
        <time>2025-09-20T12:03:33Z</time>
      </trkpt>
      <trkpt lat="46.24432" lon="4.50146">
        <ele>720.2</ele>
        <time>2025-09-20T12:03:34Z</time>
      </trkpt>
      <trkpt lat="46.24435" lon="4.50147">
        <ele>720.2</ele>
        <time>2025-09-20T12:03:35Z</time>
      </trkpt>
      <trkpt lat="46.24438" lon="4.50149">
        <ele>720.2</ele>
        <time>2025-09-20T12:03:36Z</time>
      </trkpt>
      <trkpt lat="46.24442" lon="4.5015">
        <ele>719.8</ele>
        <time>2025-09-20T12:03:37Z</time>
      </trkpt>
      <trkpt lat="46.24445" lon="4.50151">
        <ele>720</ele>
        <time>2025-09-20T12:03:38Z</time>
      </trkpt>
      <trkpt lat="46.24447" lon="4.50151">
        <ele>720.6</ele>
        <time>2025-09-20T12:03:39Z</time>
      </trkpt>
      <trkpt lat="46.2445" lon="4.50152">
        <ele>720.6</ele>
        <time>2025-09-20T12:03:40Z</time>
      </trkpt>
      <trkpt lat="46.24454" lon="4.50154">
        <ele>720.6</ele>
        <time>2025-09-20T12:03:41Z</time>
      </trkpt>
      <trkpt lat="46.24457" lon="4.50155">
        <ele>720.6</ele>
        <time>2025-09-20T12:03:42Z</time>
      </trkpt>
      <trkpt lat="46.2446" lon="4.50157">
        <ele>720.6</ele>
        <time>2025-09-20T12:03:43Z</time>
      </trkpt>
      <trkpt lat="46.24463" lon="4.50158">
        <ele>719.6</ele>
        <time>2025-09-20T12:03:44Z</time>
      </trkpt>
      <trkpt lat="46.24466" lon="4.50158">
        <ele>719.6</ele>
        <time>2025-09-20T12:03:45Z</time>
      </trkpt>
      <trkpt lat="46.2447" lon="4.50159">
        <ele>719.2</ele>
        <time>2025-09-20T12:03:46Z</time>
      </trkpt>
      <trkpt lat="46.24474" lon="4.50159">
        <ele>719.2</ele>
        <time>2025-09-20T12:03:47Z</time>
      </trkpt>
      <trkpt lat="46.24478" lon="4.5016">
        <ele>719.2</ele>
        <time>2025-09-20T12:03:48Z</time>
      </trkpt>
      <trkpt lat="46.24482" lon="4.50161">
        <ele>720</ele>
        <time>2025-09-20T12:03:49Z</time>
      </trkpt>
      <trkpt lat="46.24487" lon="4.5016">
        <ele>720</ele>
        <time>2025-09-20T12:03:50Z</time>
      </trkpt>
      <trkpt lat="46.24491" lon="4.50159">
        <ele>719</ele>
        <time>2025-09-20T12:03:51Z</time>
      </trkpt>
      <trkpt lat="46.24495" lon="4.50157">
        <ele>719</ele>
        <time>2025-09-20T12:03:52Z</time>
      </trkpt>
      <trkpt lat="46.245" lon="4.50152">
        <ele>718.6</ele>
        <time>2025-09-20T12:03:53Z</time>
      </trkpt>
      <trkpt lat="46.24505" lon="4.50151">
        <ele>718.6</ele>
        <time>2025-09-20T12:03:54Z</time>
      </trkpt>
      <trkpt lat="46.2451" lon="4.5015">
        <ele>718.4</ele>
        <time>2025-09-20T12:03:55Z</time>
      </trkpt>
      <trkpt lat="46.24516" lon="4.50149">
        <ele>718.4</ele>
        <time>2025-09-20T12:03:56Z</time>
      </trkpt>
      <trkpt lat="46.24521" lon="4.5015">
        <ele>717.6</ele>
        <time>2025-09-20T12:03:57Z</time>
      </trkpt>
      <trkpt lat="46.24525" lon="4.50145">
        <ele>717</ele>
        <time>2025-09-20T12:03:58Z</time>
      </trkpt>
      <trkpt lat="46.24531" lon="4.50143">
        <ele>717</ele>
        <time>2025-09-20T12:03:59Z</time>
      </trkpt>
      <trkpt lat="46.24535" lon="4.5014">
        <ele>717</ele>
        <time>2025-09-20T12:04:00Z</time>
      </trkpt>
      <trkpt lat="46.24539" lon="4.50139">
        <ele>716.8</ele>
        <time>2025-09-20T12:04:01Z</time>
      </trkpt>
      <trkpt lat="46.24544" lon="4.50135">
        <ele>716.4</ele>
        <time>2025-09-20T12:04:02Z</time>
      </trkpt>
      <trkpt lat="46.24548" lon="4.50131">
        <ele>716.4</ele>
        <time>2025-09-20T12:04:03Z</time>
      </trkpt>
      <trkpt lat="46.24552" lon="4.50125">
        <ele>716.4</ele>
        <time>2025-09-20T12:04:04Z</time>
      </trkpt>
      <trkpt lat="46.24556" lon="4.50117">
        <ele>717</ele>
        <time>2025-09-20T12:04:05Z</time>
      </trkpt>
      <trkpt lat="46.24558" lon="4.50111">
        <ele>716.4</ele>
        <time>2025-09-20T12:04:06Z</time>
      </trkpt>
      <trkpt lat="46.24561" lon="4.50102">
        <ele>716.8</ele>
        <time>2025-09-20T12:04:07Z</time>
      </trkpt>
      <trkpt lat="46.24564" lon="4.50097">
        <ele>716.4</ele>
        <time>2025-09-20T12:04:08Z</time>
      </trkpt>
      <trkpt lat="46.24567" lon="4.50092">
        <ele>716.2</ele>
        <time>2025-09-20T12:04:09Z</time>
      </trkpt>
      <trkpt lat="46.2457" lon="4.50089">
        <ele>714.8</ele>
        <time>2025-09-20T12:04:10Z</time>
      </trkpt>
      <trkpt lat="46.24571" lon="4.5008">
        <ele>713.4</ele>
        <time>2025-09-20T12:04:11Z</time>
      </trkpt>
      <trkpt lat="46.24573" lon="4.50073">
        <ele>713.4</ele>
        <time>2025-09-20T12:04:12Z</time>
      </trkpt>
      <trkpt lat="46.24573" lon="4.50065">
        <ele>713.4</ele>
        <time>2025-09-20T12:04:13Z</time>
      </trkpt>
      <trkpt lat="46.24575" lon="4.50056">
        <ele>713.4</ele>
        <time>2025-09-20T12:04:14Z</time>
      </trkpt>
      <trkpt lat="46.24576" lon="4.50047">
        <ele>712.8</ele>
        <time>2025-09-20T12:04:15Z</time>
      </trkpt>
      <trkpt lat="46.24578" lon="4.50038">
        <ele>713.2</ele>
        <time>2025-09-20T12:04:16Z</time>
      </trkpt>
      <trkpt lat="46.24581" lon="4.50031">
        <ele>712.6</ele>
        <time>2025-09-20T12:04:17Z</time>
      </trkpt>
      <trkpt lat="46.24583" lon="4.50023">
        <ele>712.6</ele>
        <time>2025-09-20T12:04:18Z</time>
      </trkpt>
      <trkpt lat="46.24584" lon="4.50015">
        <ele>712.2</ele>
        <time>2025-09-20T12:04:19Z</time>
      </trkpt>
      <trkpt lat="46.24585" lon="4.5001">
        <ele>712.6</ele>
        <time>2025-09-20T12:04:20Z</time>
      </trkpt>
      <trkpt lat="46.24587" lon="4.50002">
        <ele>711.6</ele>
        <time>2025-09-20T12:04:21Z</time>
      </trkpt>
      <trkpt lat="46.2459" lon="4.49995">
        <ele>711.6</ele>
        <time>2025-09-20T12:04:22Z</time>
      </trkpt>
      <trkpt lat="46.24592" lon="4.49988">
        <ele>711.8</ele>
        <time>2025-09-20T12:04:23Z</time>
      </trkpt>
      <trkpt lat="46.24595" lon="4.49984">
        <ele>712.4</ele>
        <time>2025-09-20T12:04:24Z</time>
      </trkpt>
      <trkpt lat="46.24598" lon="4.49979">
        <ele>712.6</ele>
        <time>2025-09-20T12:04:25Z</time>
      </trkpt>
      <trkpt lat="46.24601" lon="4.49973">
        <ele>712.6</ele>
        <time>2025-09-20T12:04:26Z</time>
      </trkpt>
      <trkpt lat="46.24605" lon="4.49968">
        <ele>713.4</ele>
        <time>2025-09-20T12:04:27Z</time>
      </trkpt>
      <trkpt lat="46.24609" lon="4.49963">
        <ele>713</ele>
        <time>2025-09-20T12:04:28Z</time>
      </trkpt>
      <trkpt lat="46.24613" lon="4.49958">
        <ele>712.6</ele>
        <time>2025-09-20T12:04:29Z</time>
      </trkpt>
      <trkpt lat="46.24616" lon="4.49954">
        <ele>712.2</ele>
        <time>2025-09-20T12:04:30Z</time>
      </trkpt>
      <trkpt lat="46.24619" lon="4.49949">
        <ele>712.2</ele>
        <time>2025-09-20T12:04:31Z</time>
      </trkpt>
      <trkpt lat="46.24622" lon="4.49945">
        <ele>711.8</ele>
        <time>2025-09-20T12:04:32Z</time>
      </trkpt>
      <trkpt lat="46.24625" lon="4.49942">
        <ele>711.8</ele>
        <time>2025-09-20T12:04:33Z</time>
      </trkpt>
      <trkpt lat="46.24633" lon="4.49936">
        <ele>711.4</ele>
        <time>2025-09-20T12:04:34Z</time>
      </trkpt>
      <trkpt lat="46.24637" lon="4.49935">
        <ele>711.4</ele>
        <time>2025-09-20T12:04:35Z</time>
      </trkpt>
      <trkpt lat="46.24643" lon="4.49932">
        <ele>711</ele>
        <time>2025-09-20T12:04:36Z</time>
      </trkpt>
      <trkpt lat="46.24649" lon="4.49932">
        <ele>710.6</ele>
        <time>2025-09-20T12:04:37Z</time>
      </trkpt>
      <trkpt lat="46.24654" lon="4.49931">
        <ele>711.4</ele>
        <time>2025-09-20T12:04:38Z</time>
      </trkpt>
      <trkpt lat="46.24659" lon="4.49931">
        <ele>711.4</ele>
        <time>2025-09-20T12:04:39Z</time>
      </trkpt>
      <trkpt lat="46.24664" lon="4.49929">
        <ele>710.8</ele>
        <time>2025-09-20T12:04:40Z</time>
      </trkpt>
      <trkpt lat="46.24669" lon="4.49927">
        <ele>710</ele>
        <time>2025-09-20T12:04:41Z</time>
      </trkpt>
      <trkpt lat="46.24676" lon="4.49925">
        <ele>710.8</ele>
        <time>2025-09-20T12:04:42Z</time>
      </trkpt>
      <trkpt lat="46.24681" lon="4.49924">
        <ele>710.4</ele>
        <time>2025-09-20T12:04:43Z</time>
      </trkpt>
      <trkpt lat="46.24687" lon="4.49921">
        <ele>710</ele>
        <time>2025-09-20T12:04:44Z</time>
      </trkpt>
      <trkpt lat="46.24691" lon="4.49917">
        <ele>710</ele>
        <time>2025-09-20T12:04:45Z</time>
      </trkpt>
      <trkpt lat="46.24696" lon="4.49915">
        <ele>709.4</ele>
        <time>2025-09-20T12:04:46Z</time>
      </trkpt>
      <trkpt lat="46.24702" lon="4.49913">
        <ele>710</ele>
        <time>2025-09-20T12:04:47Z</time>
      </trkpt>
      <trkpt lat="46.24707" lon="4.49912">
        <ele>710.4</ele>
        <time>2025-09-20T12:04:48Z</time>
      </trkpt>
      <trkpt lat="46.24712" lon="4.4991">
        <ele>710</ele>
        <time>2025-09-20T12:04:49Z</time>
      </trkpt>
      <trkpt lat="46.24718" lon="4.49908">
        <ele>710</ele>
        <time>2025-09-20T12:04:50Z</time>
      </trkpt>
      <trkpt lat="46.24724" lon="4.49907">
        <ele>709.2</ele>
        <time>2025-09-20T12:04:51Z</time>
      </trkpt>
      <trkpt lat="46.24729" lon="4.49909">
        <ele>708.8</ele>
        <time>2025-09-20T12:04:52Z</time>
      </trkpt>
      <trkpt lat="46.24733" lon="4.49906">
        <ele>709.4</ele>
        <time>2025-09-20T12:04:53Z</time>
      </trkpt>
      <trkpt lat="46.24739" lon="4.49906">
        <ele>709</ele>
        <time>2025-09-20T12:04:54Z</time>
      </trkpt>
      <trkpt lat="46.24744" lon="4.49903">
        <ele>709</ele>
        <time>2025-09-20T12:04:55Z</time>
      </trkpt>
      <trkpt lat="46.24748" lon="4.49901">
        <ele>708.6</ele>
        <time>2025-09-20T12:04:56Z</time>
      </trkpt>
      <trkpt lat="46.24753" lon="4.49901">
        <ele>707</ele>
        <time>2025-09-20T12:04:57Z</time>
      </trkpt>
      <trkpt lat="46.24758" lon="4.49899">
        <ele>707.4</ele>
        <time>2025-09-20T12:04:58Z</time>
      </trkpt>
      <trkpt lat="46.24763" lon="4.49899">
        <ele>707.6</ele>
        <time>2025-09-20T12:04:59Z</time>
      </trkpt>
      <trkpt lat="46.24768" lon="4.49896">
        <ele>707.8</ele>
        <time>2025-09-20T12:05:00Z</time>
      </trkpt>
      <trkpt lat="46.24772" lon="4.49894">
        <ele>706.4</ele>
        <time>2025-09-20T12:05:01Z</time>
      </trkpt>
      <trkpt lat="46.24777" lon="4.49893">
        <ele>707.4</ele>
        <time>2025-09-20T12:05:02Z</time>
      </trkpt>
      <trkpt lat="46.24782" lon="4.4989">
        <ele>707</ele>
        <time>2025-09-20T12:05:03Z</time>
      </trkpt>
      <trkpt lat="46.24786" lon="4.49889">
        <ele>705.4</ele>
        <time>2025-09-20T12:05:04Z</time>
      </trkpt>
      <trkpt lat="46.24789" lon="4.49888">
        <ele>705.4</ele>
        <time>2025-09-20T12:05:05Z</time>
      </trkpt>
      <trkpt lat="46.24795" lon="4.49888">
        <ele>705.8</ele>
        <time>2025-09-20T12:05:06Z</time>
      </trkpt>
      <trkpt lat="46.24799" lon="4.49889">
        <ele>706</ele>
        <time>2025-09-20T12:05:07Z</time>
      </trkpt>
      <trkpt lat="46.24803" lon="4.49887">
        <ele>705.2</ele>
        <time>2025-09-20T12:05:08Z</time>
      </trkpt>
      <trkpt lat="46.24808" lon="4.49887">
        <ele>705.6</ele>
        <time>2025-09-20T12:05:09Z</time>
      </trkpt>
      <trkpt lat="46.24812" lon="4.49885">
        <ele>705.2</ele>
        <time>2025-09-20T12:05:10Z</time>
      </trkpt>
      <trkpt lat="46.24815" lon="4.49881">
        <ele>705.4</ele>
        <time>2025-09-20T12:05:11Z</time>
      </trkpt>
      <trkpt lat="46.24819" lon="4.4988">
        <ele>705</ele>
        <time>2025-09-20T12:05:12Z</time>
      </trkpt>
      <trkpt lat="46.24823" lon="4.49878">
        <ele>704.6</ele>
        <time>2025-09-20T12:05:13Z</time>
      </trkpt>
      <trkpt lat="46.24828" lon="4.49877">
        <ele>704.4</ele>
        <time>2025-09-20T12:05:14Z</time>
      </trkpt>
      <trkpt lat="46.24832" lon="4.49874">
        <ele>704.4</ele>
        <time>2025-09-20T12:05:15Z</time>
      </trkpt>
      <trkpt lat="46.24836" lon="4.49872">
        <ele>704.4</ele>
        <time>2025-09-20T12:05:16Z</time>
      </trkpt>
      <trkpt lat="46.24841" lon="4.49871">
        <ele>705</ele>
        <time>2025-09-20T12:05:17Z</time>
      </trkpt>
      <trkpt lat="46.24846" lon="4.49867">
        <ele>703.8</ele>
        <time>2025-09-20T12:05:18Z</time>
      </trkpt>
      <trkpt lat="46.24851" lon="4.49865">
        <ele>703</ele>
        <time>2025-09-20T12:05:19Z</time>
      </trkpt>
      <trkpt lat="46.24856" lon="4.49863">
        <ele>703</ele>
        <time>2025-09-20T12:05:20Z</time>
      </trkpt>
      <trkpt lat="46.24861" lon="4.49861">
        <ele>703</ele>
        <time>2025-09-20T12:05:21Z</time>
      </trkpt>
      <trkpt lat="46.24869" lon="4.49862">
        <ele>703</ele>
        <time>2025-09-20T12:05:22Z</time>
      </trkpt>
      <trkpt lat="46.24874" lon="4.49861">
        <ele>703</ele>
        <time>2025-09-20T12:05:23Z</time>
      </trkpt>
      <trkpt lat="46.2488" lon="4.4986">
        <ele>703</ele>
        <time>2025-09-20T12:05:24Z</time>
      </trkpt>
      <trkpt lat="46.24886" lon="4.49858">
        <ele>703</ele>
        <time>2025-09-20T12:05:25Z</time>
      </trkpt>
      <trkpt lat="46.24892" lon="4.49856">
        <ele>703.2</ele>
        <time>2025-09-20T12:05:26Z</time>
      </trkpt>
      <trkpt lat="46.24897" lon="4.49852">
        <ele>702.8</ele>
        <time>2025-09-20T12:05:27Z</time>
      </trkpt>
      <trkpt lat="46.24903" lon="4.49853">
        <ele>703.2</ele>
        <time>2025-09-20T12:05:28Z</time>
      </trkpt>
      <trkpt lat="46.24905" lon="4.49853">
        <ele>703.4</ele>
        <time>2025-09-20T12:05:29Z</time>
      </trkpt>
      <trkpt lat="46.24911" lon="4.49848">
        <ele>702.8</ele>
        <time>2025-09-20T12:05:30Z</time>
      </trkpt>
      <trkpt lat="46.24916" lon="4.49847">
        <ele>702.8</ele>
        <time>2025-09-20T12:05:31Z</time>
      </trkpt>
      <trkpt lat="46.24918" lon="4.49843">
        <ele>702.8</ele>
        <time>2025-09-20T12:05:32Z</time>
      </trkpt>
      <trkpt lat="46.24922" lon="4.49839">
        <ele>702.8</ele>
        <time>2025-09-20T12:05:33Z</time>
      </trkpt>
      <trkpt lat="46.24926" lon="4.49836">
        <ele>702.6</ele>
        <time>2025-09-20T12:05:34Z</time>
      </trkpt>
      <trkpt lat="46.24928" lon="4.49832">
        <ele>702.6</ele>
        <time>2025-09-20T12:05:35Z</time>
      </trkpt>
      <trkpt lat="46.2493" lon="4.49831">
        <ele>702.6</ele>
        <time>2025-09-20T12:05:36Z</time>
      </trkpt>
      <trkpt lat="46.24931" lon="4.49829">
        <ele>702.6</ele>
        <time>2025-09-20T12:05:37Z</time>
      </trkpt>
      <trkpt lat="46.24933" lon="4.49827">
        <ele>702.8</ele>
        <time>2025-09-20T12:05:38Z</time>
      </trkpt>
      <trkpt lat="46.24933" lon="4.49824">
        <ele>702.8</ele>
        <time>2025-09-20T12:05:39Z</time>
      </trkpt>
      <trkpt lat="46.24934" lon="4.49822">
        <ele>702.8</ele>
        <time>2025-09-20T12:05:40Z</time>
      </trkpt>
      <trkpt lat="46.24934" lon="4.49821">
        <ele>702.8</ele>
        <time>2025-09-20T12:05:41Z</time>
      </trkpt>
      <trkpt lat="46.24934" lon="4.4982">
        <ele>702.8</ele>
        <time>2025-09-20T12:05:42Z</time>
      </trkpt>
      <trkpt lat="46.24934" lon="4.49818">
        <ele>702.8</ele>
        <time>2025-09-20T12:05:43Z</time>
      </trkpt>
      <trkpt lat="46.24933" lon="4.49816">
        <ele>702.8</ele>
        <time>2025-09-20T12:05:44Z</time>
      </trkpt>
      <trkpt lat="46.24932" lon="4.49815">
        <ele>702.8</ele>
        <time>2025-09-20T12:05:45Z</time>
      </trkpt>
      <trkpt lat="46.2493" lon="4.49813">
        <ele>702.8</ele>
        <time>2025-09-20T12:05:46Z</time>
      </trkpt>
      <trkpt lat="46.24928" lon="4.49812">
        <ele>702.8</ele>
        <time>2025-09-20T12:05:47Z</time>
      </trkpt>
      <trkpt lat="46.24926" lon="4.49811">
        <ele>702.8</ele>
        <time>2025-09-20T12:05:48Z</time>
      </trkpt>
      <trkpt lat="46.24925" lon="4.49811">
        <ele>702.8</ele>
        <time>2025-09-20T12:05:49Z</time>
      </trkpt>
      <trkpt lat="46.24923" lon="4.49812">
        <ele>702.8</ele>
        <time>2025-09-20T12:05:50Z</time>
      </trkpt>
      <trkpt lat="46.24923" lon="4.49814">
        <ele>702.8</ele>
        <time>2025-09-20T12:05:51Z</time>
      </trkpt>
      <trkpt lat="46.24923" lon="4.49815">
        <ele>702.8</ele>
        <time>2025-09-20T12:05:52Z</time>
      </trkpt>
      <trkpt lat="46.24923" lon="4.49815">
        <ele>701.6</ele>
        <time>2025-09-20T12:05:53Z</time>
      </trkpt>
      <trkpt lat="46.24924" lon="4.49818">
        <ele>703.4</ele>
        <time>2025-09-20T12:06:32Z</time>
      </trkpt>
      <trkpt lat="46.24924" lon="4.49819">
        <ele>703.2</ele>
        <time>2025-09-20T12:06:33Z</time>
      </trkpt>
      <trkpt lat="46.24925" lon="4.4982">
        <ele>703.2</ele>
        <time>2025-09-20T12:06:34Z</time>
      </trkpt>
      <trkpt lat="46.24926" lon="4.49821">
        <ele>703.2</ele>
        <time>2025-09-20T12:06:35Z</time>
      </trkpt>
      <trkpt lat="46.24928" lon="4.49822">
        <ele>703.2</ele>
        <time>2025-09-20T12:06:36Z</time>
      </trkpt>
      <trkpt lat="46.2493" lon="4.49822">
        <ele>703.2</ele>
        <time>2025-09-20T12:06:37Z</time>
      </trkpt>
      <trkpt lat="46.24931" lon="4.49821">
        <ele>703.2</ele>
        <time>2025-09-20T12:06:38Z</time>
      </trkpt>
      <trkpt lat="46.24934" lon="4.4982">
        <ele>703.2</ele>
        <time>2025-09-20T12:06:39Z</time>
      </trkpt>
      <trkpt lat="46.24935" lon="4.49817">
        <ele>703.2</ele>
        <time>2025-09-20T12:06:40Z</time>
      </trkpt>
      <trkpt lat="46.24936" lon="4.49814">
        <ele>703.2</ele>
        <time>2025-09-20T12:06:41Z</time>
      </trkpt>
      <trkpt lat="46.24936" lon="4.4981">
        <ele>703.2</ele>
        <time>2025-09-20T12:06:42Z</time>
      </trkpt>
      <trkpt lat="46.24935" lon="4.49806">
        <ele>703.2</ele>
        <time>2025-09-20T12:06:43Z</time>
      </trkpt>
      <trkpt lat="46.24935" lon="4.49801">
        <ele>703.2</ele>
        <time>2025-09-20T12:06:44Z</time>
      </trkpt>
      <trkpt lat="46.24935" lon="4.49799">
        <ele>703.2</ele>
        <time>2025-09-20T12:06:45Z</time>
      </trkpt>
      <trkpt lat="46.24934" lon="4.49798">
        <ele>703.4</ele>
        <time>2025-09-20T12:06:46Z</time>
      </trkpt>
      <trkpt lat="46.24933" lon="4.49796">
        <ele>703.4</ele>
        <time>2025-09-20T12:06:47Z</time>
      </trkpt>
      <trkpt lat="46.24932" lon="4.49796">
        <ele>703.6</ele>
        <time>2025-09-20T12:06:48Z</time>
      </trkpt>
      <trkpt lat="46.24931" lon="4.49796">
        <ele>703.6</ele>
        <time>2025-09-20T12:06:49Z</time>
      </trkpt>
      <trkpt lat="46.2493" lon="4.49796">
        <ele>704</ele>
        <time>2025-09-20T12:06:50Z</time>
      </trkpt>
      <trkpt lat="46.2493" lon="4.49796">
        <ele>704</ele>
        <time>2025-09-20T12:06:51Z</time>
      </trkpt>
      <trkpt lat="46.2493" lon="4.49797">
        <ele>704</ele>
        <time>2025-09-20T12:06:52Z</time>
      </trkpt>
      <trkpt lat="46.24929" lon="4.49798">
        <ele>704</ele>
        <time>2025-09-20T12:06:53Z</time>
      </trkpt>
      <trkpt lat="46.2493" lon="4.49798">
        <ele>704</ele>
        <time>2025-09-20T12:06:54Z</time>
      </trkpt>
      <trkpt lat="46.2493" lon="4.498">
        <ele>704</ele>
        <time>2025-09-20T12:06:55Z</time>
      </trkpt>
      <trkpt lat="46.24931" lon="4.49802">
        <ele>703.4</ele>
        <time>2025-09-20T12:06:56Z</time>
      </trkpt>
      <trkpt lat="46.24932" lon="4.49805">
        <ele>703.4</ele>
        <time>2025-09-20T12:06:57Z</time>
      </trkpt>
      <trkpt lat="46.24933" lon="4.49807">
        <ele>703.4</ele>
        <time>2025-09-20T12:06:58Z</time>
      </trkpt>
      <trkpt lat="46.24933" lon="4.49809">
        <ele>703.4</ele>
        <time>2025-09-20T12:06:59Z</time>
      </trkpt>
      <trkpt lat="46.24933" lon="4.49812">
        <ele>703.6</ele>
        <time>2025-09-20T12:07:00Z</time>
      </trkpt>
      <trkpt lat="46.24933" lon="4.49816">
        <ele>703</ele>
        <time>2025-09-20T12:07:01Z</time>
      </trkpt>
      <trkpt lat="46.24932" lon="4.49819">
        <ele>703</ele>
        <time>2025-09-20T12:07:02Z</time>
      </trkpt>
      <trkpt lat="46.24931" lon="4.4982">
        <ele>702.8</ele>
        <time>2025-09-20T12:07:03Z</time>
      </trkpt>
      <trkpt lat="46.24929" lon="4.4982">
        <ele>702.8</ele>
        <time>2025-09-20T12:07:04Z</time>
      </trkpt>
      <trkpt lat="46.24926" lon="4.49819">
        <ele>702.8</ele>
        <time>2025-09-20T12:07:05Z</time>
      </trkpt>
      <trkpt lat="46.24923" lon="4.49819">
        <ele>703.2</ele>
        <time>2025-09-20T12:07:06Z</time>
      </trkpt>
      <trkpt lat="46.2492" lon="4.49817">
        <ele>702.8</ele>
        <time>2025-09-20T12:07:07Z</time>
      </trkpt>
      <trkpt lat="46.24918" lon="4.49816">
        <ele>702.8</ele>
        <time>2025-09-20T12:07:08Z</time>
      </trkpt>
      <trkpt lat="46.24915" lon="4.49815">
        <ele>703</ele>
        <time>2025-09-20T12:07:09Z</time>
      </trkpt>
      <trkpt lat="46.24913" lon="4.49814">
        <ele>703.4</ele>
        <time>2025-09-20T12:07:10Z</time>
      </trkpt>
      <trkpt lat="46.24911" lon="4.49814">
        <ele>703.4</ele>
        <time>2025-09-20T12:07:11Z</time>
      </trkpt>
      <trkpt lat="46.24908" lon="4.49814">
        <ele>703.4</ele>
        <time>2025-09-20T12:07:12Z</time>
      </trkpt>
      <trkpt lat="46.24904" lon="4.49815">
        <ele>703.4</ele>
        <time>2025-09-20T12:07:13Z</time>
      </trkpt>
      <trkpt lat="46.24901" lon="4.49816">
        <ele>703.4</ele>
        <time>2025-09-20T12:07:14Z</time>
      </trkpt>
      <trkpt lat="46.24899" lon="4.49817">
        <ele>702.8</ele>
        <time>2025-09-20T12:07:15Z</time>
      </trkpt>
      <trkpt lat="46.24897" lon="4.49817">
        <ele>703.2</ele>
        <time>2025-09-20T12:07:16Z</time>
      </trkpt>
      <trkpt lat="46.24894" lon="4.49818">
        <ele>703.4</ele>
        <time>2025-09-20T12:07:17Z</time>
      </trkpt>
      <trkpt lat="46.24891" lon="4.49819">
        <ele>703.8</ele>
        <time>2025-09-20T12:07:18Z</time>
      </trkpt>
      <trkpt lat="46.24888" lon="4.49819">
        <ele>703.8</ele>
        <time>2025-09-20T12:07:19Z</time>
      </trkpt>
      <trkpt lat="46.24885" lon="4.4982">
        <ele>703.2</ele>
        <time>2025-09-20T12:07:20Z</time>
      </trkpt>
      <trkpt lat="46.24882" lon="4.4982">
        <ele>703.6</ele>
        <time>2025-09-20T12:07:21Z</time>
      </trkpt>
      <trkpt lat="46.24879" lon="4.49821">
        <ele>704</ele>
        <time>2025-09-20T12:07:22Z</time>
      </trkpt>
      <trkpt lat="46.24876" lon="4.49822">
        <ele>704.2</ele>
        <time>2025-09-20T12:07:23Z</time>
      </trkpt>
      <trkpt lat="46.24873" lon="4.49822">
        <ele>702.8</ele>
        <time>2025-09-20T12:07:24Z</time>
      </trkpt>
      <trkpt lat="46.2487" lon="4.49823">
        <ele>703.4</ele>
        <time>2025-09-20T12:07:25Z</time>
      </trkpt>
      <trkpt lat="46.24868" lon="4.49823">
        <ele>703.4</ele>
        <time>2025-09-20T12:07:26Z</time>
      </trkpt>
      <trkpt lat="46.24865" lon="4.49824">
        <ele>703.8</ele>
        <time>2025-09-20T12:07:27Z</time>
      </trkpt>
      <trkpt lat="46.24863" lon="4.49826">
        <ele>704.6</ele>
        <time>2025-09-20T12:07:28Z</time>
      </trkpt>
      <trkpt lat="46.2486" lon="4.49827">
        <ele>705</ele>
        <time>2025-09-20T12:07:29Z</time>
      </trkpt>
      <trkpt lat="46.24858" lon="4.49828">
        <ele>705</ele>
        <time>2025-09-20T12:07:30Z</time>
      </trkpt>
      <trkpt lat="46.24855" lon="4.49829">
        <ele>705.2</ele>
        <time>2025-09-20T12:07:31Z</time>
      </trkpt>
      <trkpt lat="46.24853" lon="4.4983">
        <ele>705.2</ele>
        <time>2025-09-20T12:07:32Z</time>
      </trkpt>
      <trkpt lat="46.24851" lon="4.4983">
        <ele>705.2</ele>
        <time>2025-09-20T12:07:33Z</time>
      </trkpt>
      <trkpt lat="46.24849" lon="4.49831">
        <ele>705.6</ele>
        <time>2025-09-20T12:07:34Z</time>
      </trkpt>
      <trkpt lat="46.24846" lon="4.49831">
        <ele>705.6</ele>
        <time>2025-09-20T12:07:35Z</time>
      </trkpt>
      <trkpt lat="46.24844" lon="4.49831">
        <ele>706</ele>
        <time>2025-09-20T12:07:36Z</time>
      </trkpt>
      <trkpt lat="46.24841" lon="4.49832">
        <ele>706.4</ele>
        <time>2025-09-20T12:07:37Z</time>
      </trkpt>
      <trkpt lat="46.2484" lon="4.49831">
        <ele>706.6</ele>
        <time>2025-09-20T12:07:38Z</time>
      </trkpt>
      <trkpt lat="46.24839" lon="4.49831">
        <ele>706.6</ele>
        <time>2025-09-20T12:07:39Z</time>
      </trkpt>
      <trkpt lat="46.24836" lon="4.49831">
        <ele>707</ele>
        <time>2025-09-20T12:07:40Z</time>
      </trkpt>
      <trkpt lat="46.24834" lon="4.49831">
        <ele>707.2</ele>
        <time>2025-09-20T12:07:41Z</time>
      </trkpt>
      <trkpt lat="46.24832" lon="4.49832">
        <ele>707.4</ele>
        <time>2025-09-20T12:07:42Z</time>
      </trkpt>
      <trkpt lat="46.2483" lon="4.49832">
        <ele>707.4</ele>
        <time>2025-09-20T12:07:43Z</time>
      </trkpt>
      <trkpt lat="46.24828" lon="4.49833">
        <ele>707.4</ele>
        <time>2025-09-20T12:07:44Z</time>
      </trkpt>
      <trkpt lat="46.24826" lon="4.49834">
        <ele>707.8</ele>
        <time>2025-09-20T12:07:45Z</time>
      </trkpt>
      <trkpt lat="46.24824" lon="4.49835">
        <ele>707.8</ele>
        <time>2025-09-20T12:07:46Z</time>
      </trkpt>
      <trkpt lat="46.24822" lon="4.49836">
        <ele>707.8</ele>
        <time>2025-09-20T12:07:47Z</time>
      </trkpt>
      <trkpt lat="46.2482" lon="4.49837">
        <ele>707.8</ele>
        <time>2025-09-20T12:07:48Z</time>
      </trkpt>
      <trkpt lat="46.24818" lon="4.49838">
        <ele>707.8</ele>
        <time>2025-09-20T12:07:49Z</time>
      </trkpt>
      <trkpt lat="46.24816" lon="4.4984">
        <ele>708.2</ele>
        <time>2025-09-20T12:07:50Z</time>
      </trkpt>
      <trkpt lat="46.24814" lon="4.49841">
        <ele>708.6</ele>
        <time>2025-09-20T12:07:51Z</time>
      </trkpt>
      <trkpt lat="46.24812" lon="4.49842">
        <ele>708.6</ele>
        <time>2025-09-20T12:07:52Z</time>
      </trkpt>
      <trkpt lat="46.2481" lon="4.49843">
        <ele>708.8</ele>
        <time>2025-09-20T12:07:53Z</time>
      </trkpt>
      <trkpt lat="46.24807" lon="4.49843">
        <ele>708.8</ele>
        <time>2025-09-20T12:07:54Z</time>
      </trkpt>
      <trkpt lat="46.24804" lon="4.49843">
        <ele>708.8</ele>
        <time>2025-09-20T12:07:55Z</time>
      </trkpt>
      <trkpt lat="46.24802" lon="4.49845">
        <ele>708.8</ele>
        <time>2025-09-20T12:07:56Z</time>
      </trkpt>
      <trkpt lat="46.248" lon="4.49847">
        <ele>709.2</ele>
        <time>2025-09-20T12:07:57Z</time>
      </trkpt>
      <trkpt lat="46.24797" lon="4.49849">
        <ele>709.8</ele>
        <time>2025-09-20T12:07:58Z</time>
      </trkpt>
      <trkpt lat="46.24795" lon="4.4985">
        <ele>709.8</ele>
        <time>2025-09-20T12:07:59Z</time>
      </trkpt>
      <trkpt lat="46.24793" lon="4.4985">
        <ele>709.8</ele>
        <time>2025-09-20T12:08:00Z</time>
      </trkpt>
      <trkpt lat="46.24791" lon="4.49851">
        <ele>709.8</ele>
        <time>2025-09-20T12:08:01Z</time>
      </trkpt>
      <trkpt lat="46.2479" lon="4.49851">
        <ele>710.2</ele>
        <time>2025-09-20T12:08:02Z</time>
      </trkpt>
      <trkpt lat="46.24788" lon="4.49852">
        <ele>710.6</ele>
        <time>2025-09-20T12:08:03Z</time>
      </trkpt>
      <trkpt lat="46.24786" lon="4.49853">
        <ele>710.8</ele>
        <time>2025-09-20T12:08:04Z</time>
      </trkpt>
      <trkpt lat="46.24784" lon="4.49853">
        <ele>711.2</ele>
        <time>2025-09-20T12:08:05Z</time>
      </trkpt>
      <trkpt lat="46.24782" lon="4.49854">
        <ele>711.2</ele>
        <time>2025-09-20T12:08:06Z</time>
      </trkpt>
      <trkpt lat="46.2478" lon="4.49855">
        <ele>711.2</ele>
        <time>2025-09-20T12:08:07Z</time>
      </trkpt>
      <trkpt lat="46.24778" lon="4.49856">
        <ele>711.2</ele>
        <time>2025-09-20T12:08:08Z</time>
      </trkpt>
      <trkpt lat="46.24776" lon="4.49856">
        <ele>711.6</ele>
        <time>2025-09-20T12:08:09Z</time>
      </trkpt>
      <trkpt lat="46.24773" lon="4.49857">
        <ele>712</ele>
        <time>2025-09-20T12:08:10Z</time>
      </trkpt>
      <trkpt lat="46.24771" lon="4.49857">
        <ele>712.2</ele>
        <time>2025-09-20T12:08:11Z</time>
      </trkpt>
      <trkpt lat="46.24769" lon="4.49857">
        <ele>712.2</ele>
        <time>2025-09-20T12:08:12Z</time>
      </trkpt>
      <trkpt lat="46.24767" lon="4.49857">
        <ele>712.4</ele>
        <time>2025-09-20T12:08:13Z</time>
      </trkpt>
      <trkpt lat="46.24765" lon="4.49857">
        <ele>712.6</ele>
        <time>2025-09-20T12:08:14Z</time>
      </trkpt>
      <trkpt lat="46.24763" lon="4.49857">
        <ele>712.6</ele>
        <time>2025-09-20T12:08:15Z</time>
      </trkpt>
      <trkpt lat="46.24762" lon="4.49858">
        <ele>712.6</ele>
        <time>2025-09-20T12:08:16Z</time>
      </trkpt>
      <trkpt lat="46.24759" lon="4.49859">
        <ele>713</ele>
        <time>2025-09-20T12:08:17Z</time>
      </trkpt>
      <trkpt lat="46.24756" lon="4.4986">
        <ele>713</ele>
        <time>2025-09-20T12:08:18Z</time>
      </trkpt>
      <trkpt lat="46.24753" lon="4.49861">
        <ele>713</ele>
        <time>2025-09-20T12:08:19Z</time>
      </trkpt>
      <trkpt lat="46.24751" lon="4.49861">
        <ele>713.2</ele>
        <time>2025-09-20T12:08:20Z</time>
      </trkpt>
      <trkpt lat="46.24747" lon="4.49862">
        <ele>713.4</ele>
        <time>2025-09-20T12:08:21Z</time>
      </trkpt>
      <trkpt lat="46.24745" lon="4.49862">
        <ele>713.4</ele>
        <time>2025-09-20T12:08:22Z</time>
      </trkpt>
      <trkpt lat="46.24743" lon="4.49862">
        <ele>713.4</ele>
        <time>2025-09-20T12:08:23Z</time>
      </trkpt>
      <trkpt lat="46.24741" lon="4.49863">
        <ele>713.6</ele>
        <time>2025-09-20T12:08:24Z</time>
      </trkpt>
      <trkpt lat="46.24739" lon="4.49864">
        <ele>713.6</ele>
        <time>2025-09-20T12:08:25Z</time>
      </trkpt>
      <trkpt lat="46.24736" lon="4.49864">
        <ele>714</ele>
        <time>2025-09-20T12:08:26Z</time>
      </trkpt>
      <trkpt lat="46.24732" lon="4.49865">
        <ele>714</ele>
        <time>2025-09-20T12:08:27Z</time>
      </trkpt>
      <trkpt lat="46.2473" lon="4.49865">
        <ele>714.2</ele>
        <time>2025-09-20T12:08:28Z</time>
      </trkpt>
      <trkpt lat="46.24727" lon="4.49867">
        <ele>714.2</ele>
        <time>2025-09-20T12:08:29Z</time>
      </trkpt>
      <trkpt lat="46.24723" lon="4.49868">
        <ele>714.2</ele>
        <time>2025-09-20T12:08:30Z</time>
      </trkpt>
      <trkpt lat="46.24721" lon="4.49869">
        <ele>714.2</ele>
        <time>2025-09-20T12:08:31Z</time>
      </trkpt>
      <trkpt lat="46.24719" lon="4.49869">
        <ele>714.2</ele>
        <time>2025-09-20T12:08:32Z</time>
      </trkpt>
      <trkpt lat="46.24717" lon="4.49869">
        <ele>714.2</ele>
        <time>2025-09-20T12:08:33Z</time>
      </trkpt>
      <trkpt lat="46.24714" lon="4.4987">
        <ele>714.2</ele>
        <time>2025-09-20T12:08:34Z</time>
      </trkpt>
      <trkpt lat="46.24711" lon="4.4987">
        <ele>714.4</ele>
        <time>2025-09-20T12:08:35Z</time>
      </trkpt>
      <trkpt lat="46.24706" lon="4.4987">
        <ele>714.4</ele>
        <time>2025-09-20T12:08:36Z</time>
      </trkpt>
      <trkpt lat="46.24705" lon="4.49871">
        <ele>714.6</ele>
        <time>2025-09-20T12:08:37Z</time>
      </trkpt>
      <trkpt lat="46.24702" lon="4.4987">
        <ele>714.2</ele>
        <time>2025-09-20T12:08:38Z</time>
      </trkpt>
      <trkpt lat="46.24699" lon="4.4987">
        <ele>713.2</ele>
        <time>2025-09-20T12:08:39Z</time>
      </trkpt>
      <trkpt lat="46.24697" lon="4.4987">
        <ele>713.6</ele>
        <time>2025-09-20T12:08:40Z</time>
      </trkpt>
      <trkpt lat="46.24694" lon="4.49871">
        <ele>714</ele>
        <time>2025-09-20T12:08:41Z</time>
      </trkpt>
      <trkpt lat="46.2469" lon="4.49877">
        <ele>714.4</ele>
        <time>2025-09-20T12:08:42Z</time>
      </trkpt>
      <trkpt lat="46.24689" lon="4.49874">
        <ele>714.8</ele>
        <time>2025-09-20T12:08:43Z</time>
      </trkpt>
      <trkpt lat="46.24685" lon="4.49875">
        <ele>714.8</ele>
        <time>2025-09-20T12:08:44Z</time>
      </trkpt>
      <trkpt lat="46.24682" lon="4.49875">
        <ele>715</ele>
        <time>2025-09-20T12:08:45Z</time>
      </trkpt>
      <trkpt lat="46.24683" lon="4.49873">
        <ele>715</ele>
        <time>2025-09-20T12:08:46Z</time>
      </trkpt>
      <trkpt lat="46.24681" lon="4.49873">
        <ele>715.4</ele>
        <time>2025-09-20T12:08:47Z</time>
      </trkpt>
      <trkpt lat="46.24677" lon="4.49874">
        <ele>715.4</ele>
        <time>2025-09-20T12:08:48Z</time>
      </trkpt>
      <trkpt lat="46.24674" lon="4.49875">
        <ele>715.4</ele>
        <time>2025-09-20T12:08:49Z</time>
      </trkpt>
      <trkpt lat="46.24672" lon="4.49874">
        <ele>715.8</ele>
        <time>2025-09-20T12:08:50Z</time>
      </trkpt>
      <trkpt lat="46.2467" lon="4.49873">
        <ele>715.8</ele>
        <time>2025-09-20T12:08:51Z</time>
      </trkpt>
      <trkpt lat="46.24667" lon="4.49872">
        <ele>715.8</ele>
        <time>2025-09-20T12:08:52Z</time>
      </trkpt>
      <trkpt lat="46.24664" lon="4.49872">
        <ele>716.2</ele>
        <time>2025-09-20T12:08:53Z</time>
      </trkpt>
      <trkpt lat="46.24661" lon="4.49871">
        <ele>716.2</ele>
        <time>2025-09-20T12:08:54Z</time>
      </trkpt>
      <trkpt lat="46.24659" lon="4.49871">
        <ele>716.2</ele>
        <time>2025-09-20T12:08:55Z</time>
      </trkpt>
      <trkpt lat="46.24657" lon="4.49869">
        <ele>716.4</ele>
        <time>2025-09-20T12:08:56Z</time>
      </trkpt>
      <trkpt lat="46.24655" lon="4.49868">
        <ele>716.4</ele>
        <time>2025-09-20T12:08:57Z</time>
      </trkpt>
      <trkpt lat="46.24653" lon="4.49868">
        <ele>716.4</ele>
        <time>2025-09-20T12:08:58Z</time>
      </trkpt>
      <trkpt lat="46.24651" lon="4.49867">
        <ele>716.4</ele>
        <time>2025-09-20T12:08:59Z</time>
      </trkpt>
      <trkpt lat="46.24649" lon="4.49867">
        <ele>716.8</ele>
        <time>2025-09-20T12:09:00Z</time>
      </trkpt>
      <trkpt lat="46.24646" lon="4.49867">
        <ele>717</ele>
        <time>2025-09-20T12:09:01Z</time>
      </trkpt>
      <trkpt lat="46.24644" lon="4.49866">
        <ele>717</ele>
        <time>2025-09-20T12:09:02Z</time>
      </trkpt>
      <trkpt lat="46.24641" lon="4.49866">
        <ele>717.2</ele>
        <time>2025-09-20T12:09:03Z</time>
      </trkpt>
      <trkpt lat="46.24639" lon="4.49864">
        <ele>717.2</ele>
        <time>2025-09-20T12:09:04Z</time>
      </trkpt>
      <trkpt lat="46.24637" lon="4.49864">
        <ele>717.2</ele>
        <time>2025-09-20T12:09:05Z</time>
      </trkpt>
      <trkpt lat="46.24635" lon="4.49863">
        <ele>717.6</ele>
        <time>2025-09-20T12:09:06Z</time>
      </trkpt>
      <trkpt lat="46.24632" lon="4.49861">
        <ele>717.8</ele>
        <time>2025-09-20T12:09:07Z</time>
      </trkpt>
      <trkpt lat="46.2463" lon="4.4986">
        <ele>718</ele>
        <time>2025-09-20T12:09:08Z</time>
      </trkpt>
      <trkpt lat="46.24629" lon="4.49859">
        <ele>718</ele>
        <time>2025-09-20T12:09:09Z</time>
      </trkpt>
      <trkpt lat="46.24627" lon="4.49857">
        <ele>718.4</ele>
        <time>2025-09-20T12:09:10Z</time>
      </trkpt>
      <trkpt lat="46.24625" lon="4.49856">
        <ele>718.4</ele>
        <time>2025-09-20T12:09:11Z</time>
      </trkpt>
      <trkpt lat="46.24623" lon="4.49857">
        <ele>718.4</ele>
        <time>2025-09-20T12:09:12Z</time>
      </trkpt>
      <trkpt lat="46.24621" lon="4.49857">
        <ele>718.6</ele>
        <time>2025-09-20T12:09:13Z</time>
      </trkpt>
      <trkpt lat="46.24619" lon="4.49859">
        <ele>718.6</ele>
        <time>2025-09-20T12:09:14Z</time>
      </trkpt>
      <trkpt lat="46.24617" lon="4.4986">
        <ele>718.6</ele>
        <time>2025-09-20T12:09:15Z</time>
      </trkpt>
      <trkpt lat="46.24615" lon="4.49861">
        <ele>719.2</ele>
        <time>2025-09-20T12:09:16Z</time>
      </trkpt>
      <trkpt lat="46.24612" lon="4.49862">
        <ele>719.4</ele>
        <time>2025-09-20T12:09:17Z</time>
      </trkpt>
      <trkpt lat="46.2461" lon="4.49862">
        <ele>719.4</ele>
        <time>2025-09-20T12:09:18Z</time>
      </trkpt>
      <trkpt lat="46.24607" lon="4.49862">
        <ele>719.4</ele>
        <time>2025-09-20T12:09:19Z</time>
      </trkpt>
      <trkpt lat="46.24606" lon="4.49861">
        <ele>719.8</ele>
        <time>2025-09-20T12:09:20Z</time>
      </trkpt>
      <trkpt lat="46.24603" lon="4.49862">
        <ele>719.8</ele>
        <time>2025-09-20T12:09:21Z</time>
      </trkpt>
      <trkpt lat="46.24602" lon="4.49863">
        <ele>720</ele>
        <time>2025-09-20T12:09:22Z</time>
      </trkpt>
      <trkpt lat="46.246" lon="4.49862">
        <ele>720.4</ele>
        <time>2025-09-20T12:09:23Z</time>
      </trkpt>
      <trkpt lat="46.24598" lon="4.49861">
        <ele>720.6</ele>
        <time>2025-09-20T12:09:24Z</time>
      </trkpt>
      <trkpt lat="46.24596" lon="4.4986">
        <ele>720.8</ele>
        <time>2025-09-20T12:09:25Z</time>
      </trkpt>
      <trkpt lat="46.24594" lon="4.4986">
        <ele>721</ele>
        <time>2025-09-20T12:09:26Z</time>
      </trkpt>
      <trkpt lat="46.24593" lon="4.4986">
        <ele>721.2</ele>
        <time>2025-09-20T12:09:27Z</time>
      </trkpt>
      <trkpt lat="46.24592" lon="4.4986">
        <ele>721.2</ele>
        <time>2025-09-20T12:09:28Z</time>
      </trkpt>
      <trkpt lat="46.24591" lon="4.4986">
        <ele>721.6</ele>
        <time>2025-09-20T12:09:29Z</time>
      </trkpt>
      <trkpt lat="46.24592" lon="4.4986">
        <ele>721.6</ele>
        <time>2025-09-20T12:09:30Z</time>
      </trkpt>
      <trkpt lat="46.24592" lon="4.4986">
        <ele>721.8</ele>
        <time>2025-09-20T12:09:31Z</time>
      </trkpt>
      <trkpt lat="46.24593" lon="4.4986">
        <ele>721.8</ele>
        <time>2025-09-20T12:09:32Z</time>
      </trkpt>
      <trkpt lat="46.24591" lon="4.4986">
        <ele>721.8</ele>
        <time>2025-09-20T12:10:16Z</time>
      </trkpt>
      <trkpt lat="46.2459" lon="4.49859">
        <ele>721.8</ele>
        <time>2025-09-20T12:10:17Z</time>
      </trkpt>
      <trkpt lat="46.24589" lon="4.49859">
        <ele>721.8</ele>
        <time>2025-09-20T12:10:18Z</time>
      </trkpt>
      <trkpt lat="46.24587" lon="4.49858">
        <ele>722</ele>
        <time>2025-09-20T12:10:19Z</time>
      </trkpt>
      <trkpt lat="46.24586" lon="4.49858">
        <ele>722</ele>
        <time>2025-09-20T12:10:20Z</time>
      </trkpt>
      <trkpt lat="46.24584" lon="4.49857">
        <ele>722</ele>
        <time>2025-09-20T12:10:21Z</time>
      </trkpt>
      <trkpt lat="46.24582" lon="4.49857">
        <ele>722</ele>
        <time>2025-09-20T12:10:22Z</time>
      </trkpt>
      <trkpt lat="46.2458" lon="4.49856">
        <ele>722.2</ele>
        <time>2025-09-20T12:10:23Z</time>
      </trkpt>
      <trkpt lat="46.24578" lon="4.49855">
        <ele>722.6</ele>
        <time>2025-09-20T12:10:24Z</time>
      </trkpt>
      <trkpt lat="46.24576" lon="4.49855">
        <ele>723</ele>
        <time>2025-09-20T12:10:25Z</time>
      </trkpt>
      <trkpt lat="46.24574" lon="4.49854">
        <ele>723.2</ele>
        <time>2025-09-20T12:10:26Z</time>
      </trkpt>
      <trkpt lat="46.24573" lon="4.49852">
        <ele>723.2</ele>
        <time>2025-09-20T12:10:27Z</time>
      </trkpt>
      <trkpt lat="46.24572" lon="4.4985">
        <ele>723.6</ele>
        <time>2025-09-20T12:10:28Z</time>
      </trkpt>
      <trkpt lat="46.24571" lon="4.4985">
        <ele>723.6</ele>
        <time>2025-09-20T12:10:29Z</time>
      </trkpt>
      <trkpt lat="46.24569" lon="4.49849">
        <ele>724</ele>
        <time>2025-09-20T12:10:30Z</time>
      </trkpt>
      <trkpt lat="46.24567" lon="4.49849">
        <ele>724</ele>
        <time>2025-09-20T12:10:31Z</time>
      </trkpt>
      <trkpt lat="46.24565" lon="4.49849">
        <ele>724.2</ele>
        <time>2025-09-20T12:10:32Z</time>
      </trkpt>
      <trkpt lat="46.24563" lon="4.4985">
        <ele>724.2</ele>
        <time>2025-09-20T12:10:33Z</time>
      </trkpt>
      <trkpt lat="46.24561" lon="4.4985">
        <ele>724.2</ele>
        <time>2025-09-20T12:10:34Z</time>
      </trkpt>
      <trkpt lat="46.2456" lon="4.49849">
        <ele>725</ele>
        <time>2025-09-20T12:10:35Z</time>
      </trkpt>
      <trkpt lat="46.24558" lon="4.49849">
        <ele>725.2</ele>
        <time>2025-09-20T12:10:36Z</time>
      </trkpt>
      <trkpt lat="46.24556" lon="4.49848">
        <ele>725.2</ele>
        <time>2025-09-20T12:10:37Z</time>
      </trkpt>
      <trkpt lat="46.24554" lon="4.49846">
        <ele>725.6</ele>
        <time>2025-09-20T12:10:38Z</time>
      </trkpt>
      <trkpt lat="46.24553" lon="4.49845">
        <ele>726</ele>
        <time>2025-09-20T12:10:39Z</time>
      </trkpt>
      <trkpt lat="46.24552" lon="4.49844">
        <ele>726</ele>
        <time>2025-09-20T12:10:40Z</time>
      </trkpt>
      <trkpt lat="46.2455" lon="4.49843">
        <ele>726</ele>
        <time>2025-09-20T12:10:41Z</time>
      </trkpt>
      <trkpt lat="46.24548" lon="4.49842">
        <ele>726.2</ele>
        <time>2025-09-20T12:10:42Z</time>
      </trkpt>
      <trkpt lat="46.24546" lon="4.49842">
        <ele>726.8</ele>
        <time>2025-09-20T12:10:43Z</time>
      </trkpt>
      <trkpt lat="46.24542" lon="4.49842">
        <ele>727.2</ele>
        <time>2025-09-20T12:10:44Z</time>
      </trkpt>
      <trkpt lat="46.24538" lon="4.49843">
        <ele>727.2</ele>
        <time>2025-09-20T12:10:45Z</time>
      </trkpt>
      <trkpt lat="46.24535" lon="4.49844">
        <ele>727.2</ele>
        <time>2025-09-20T12:10:46Z</time>
      </trkpt>
      <trkpt lat="46.24534" lon="4.49843">
        <ele>727.6</ele>
        <time>2025-09-20T12:10:47Z</time>
      </trkpt>
      <trkpt lat="46.24531" lon="4.49843">
        <ele>727.6</ele>
        <time>2025-09-20T12:10:48Z</time>
      </trkpt>
      <trkpt lat="46.24529" lon="4.49841">
        <ele>727.6</ele>
        <time>2025-09-20T12:10:49Z</time>
      </trkpt>
      <trkpt lat="46.24526" lon="4.49839">
        <ele>728.2</ele>
        <time>2025-09-20T12:10:50Z</time>
      </trkpt>
      <trkpt lat="46.24524" lon="4.49838">
        <ele>728.4</ele>
        <time>2025-09-20T12:10:51Z</time>
      </trkpt>
      <trkpt lat="46.24522" lon="4.49836">
        <ele>728.8</ele>
        <time>2025-09-20T12:10:52Z</time>
      </trkpt>
      <trkpt lat="46.2452" lon="4.49835">
        <ele>729.2</ele>
        <time>2025-09-20T12:10:53Z</time>
      </trkpt>
      <trkpt lat="46.24518" lon="4.49834">
        <ele>729.2</ele>
        <time>2025-09-20T12:10:54Z</time>
      </trkpt>
      <trkpt lat="46.24517" lon="4.49832">
        <ele>729.6</ele>
        <time>2025-09-20T12:10:55Z</time>
      </trkpt>
      <trkpt lat="46.24516" lon="4.4983">
        <ele>729.6</ele>
        <time>2025-09-20T12:10:56Z</time>
      </trkpt>
      <trkpt lat="46.24514" lon="4.49828">
        <ele>729.6</ele>
        <time>2025-09-20T12:10:57Z</time>
      </trkpt>
      <trkpt lat="46.24512" lon="4.49826">
        <ele>729.6</ele>
        <time>2025-09-20T12:10:58Z</time>
      </trkpt>
      <trkpt lat="46.2451" lon="4.49825">
        <ele>729.6</ele>
        <time>2025-09-20T12:10:59Z</time>
      </trkpt>
      <trkpt lat="46.24508" lon="4.49824">
        <ele>729.6</ele>
        <time>2025-09-20T12:11:00Z</time>
      </trkpt>
      <trkpt lat="46.24507" lon="4.49822">
        <ele>730</ele>
        <time>2025-09-20T12:11:01Z</time>
      </trkpt>
      <trkpt lat="46.24507" lon="4.4982">
        <ele>730.4</ele>
        <time>2025-09-20T12:11:02Z</time>
      </trkpt>
      <trkpt lat="46.24505" lon="4.49819">
        <ele>730.4</ele>
        <time>2025-09-20T12:11:03Z</time>
      </trkpt>
      <trkpt lat="46.24503" lon="4.49818">
        <ele>730.6</ele>
        <time>2025-09-20T12:11:04Z</time>
      </trkpt>
      <trkpt lat="46.24502" lon="4.49818">
        <ele>730.6</ele>
        <time>2025-09-20T12:11:05Z</time>
      </trkpt>
      <trkpt lat="46.24501" lon="4.49818">
        <ele>730.6</ele>
        <time>2025-09-20T12:11:06Z</time>
      </trkpt>
      <trkpt lat="46.24499" lon="4.49817">
        <ele>731.2</ele>
        <time>2025-09-20T12:11:07Z</time>
      </trkpt>
      <trkpt lat="46.24498" lon="4.49814">
        <ele>731.4</ele>
        <time>2025-09-20T12:11:08Z</time>
      </trkpt>
      <trkpt lat="46.24497" lon="4.49811">
        <ele>731.4</ele>
        <time>2025-09-20T12:11:09Z</time>
      </trkpt>
      <trkpt lat="46.24496" lon="4.49809">
        <ele>731.4</ele>
        <time>2025-09-20T12:11:10Z</time>
      </trkpt>
      <trkpt lat="46.24493" lon="4.49809">
        <ele>732</ele>
        <time>2025-09-20T12:11:11Z</time>
      </trkpt>
      <trkpt lat="46.24491" lon="4.49809">
        <ele>732.2</ele>
        <time>2025-09-20T12:11:12Z</time>
      </trkpt>
      <trkpt lat="46.24489" lon="4.49809">
        <ele>732.6</ele>
        <time>2025-09-20T12:11:13Z</time>
      </trkpt>
      <trkpt lat="46.24487" lon="4.49808">
        <ele>732.6</ele>
        <time>2025-09-20T12:11:14Z</time>
      </trkpt>
      <trkpt lat="46.24486" lon="4.49808">
        <ele>732.6</ele>
        <time>2025-09-20T12:11:15Z</time>
      </trkpt>
      <trkpt lat="46.24484" lon="4.49806">
        <ele>732.8</ele>
        <time>2025-09-20T12:11:16Z</time>
      </trkpt>
      <trkpt lat="46.24483" lon="4.49805">
        <ele>732.8</ele>
        <time>2025-09-20T12:11:17Z</time>
      </trkpt>
      <trkpt lat="46.24482" lon="4.49804">
        <ele>732.8</ele>
        <time>2025-09-20T12:11:18Z</time>
      </trkpt>
      <trkpt lat="46.2448" lon="4.49802">
        <ele>733</ele>
        <time>2025-09-20T12:11:19Z</time>
      </trkpt>
      <trkpt lat="46.24477" lon="4.49801">
        <ele>733.2</ele>
        <time>2025-09-20T12:11:20Z</time>
      </trkpt>
      <trkpt lat="46.24475" lon="4.498">
        <ele>733.2</ele>
        <time>2025-09-20T12:11:21Z</time>
      </trkpt>
      <trkpt lat="46.24474" lon="4.49799">
        <ele>733.6</ele>
        <time>2025-09-20T12:11:22Z</time>
      </trkpt>
      <trkpt lat="46.24472" lon="4.49798">
        <ele>733.8</ele>
        <time>2025-09-20T12:11:23Z</time>
      </trkpt>
      <trkpt lat="46.24471" lon="4.49796">
        <ele>734</ele>
        <time>2025-09-20T12:11:24Z</time>
      </trkpt>
      <trkpt lat="46.24469" lon="4.49795">
        <ele>734</ele>
        <time>2025-09-20T12:11:25Z</time>
      </trkpt>
      <trkpt lat="46.24467" lon="4.49794">
        <ele>734</ele>
        <time>2025-09-20T12:11:26Z</time>
      </trkpt>
      <trkpt lat="46.24465" lon="4.49793">
        <ele>734</ele>
        <time>2025-09-20T12:11:27Z</time>
      </trkpt>
      <trkpt lat="46.24463" lon="4.49792">
        <ele>734</ele>
        <time>2025-09-20T12:11:28Z</time>
      </trkpt>
      <trkpt lat="46.24462" lon="4.4979">
        <ele>734</ele>
        <time>2025-09-20T12:11:29Z</time>
      </trkpt>
      <trkpt lat="46.2446" lon="4.49786">
        <ele>734</ele>
        <time>2025-09-20T12:11:30Z</time>
      </trkpt>
      <trkpt lat="46.24459" lon="4.49784">
        <ele>734.2</ele>
        <time>2025-09-20T12:11:31Z</time>
      </trkpt>
      <trkpt lat="46.24457" lon="4.49782">
        <ele>734.4</ele>
        <time>2025-09-20T12:11:32Z</time>
      </trkpt>
      <trkpt lat="46.24456" lon="4.49781">
        <ele>734.4</ele>
        <time>2025-09-20T12:11:33Z</time>
      </trkpt>
      <trkpt lat="46.24454" lon="4.49779">
        <ele>734.4</ele>
        <time>2025-09-20T12:11:34Z</time>
      </trkpt>
      <trkpt lat="46.24453" lon="4.49776">
        <ele>734.8</ele>
        <time>2025-09-20T12:11:35Z</time>
      </trkpt>
      <trkpt lat="46.24452" lon="4.49774">
        <ele>735.2</ele>
        <time>2025-09-20T12:11:36Z</time>
      </trkpt>
      <trkpt lat="46.24451" lon="4.49771">
        <ele>735.2</ele>
        <time>2025-09-20T12:11:37Z</time>
      </trkpt>
      <trkpt lat="46.2445" lon="4.49769">
        <ele>735.2</ele>
        <time>2025-09-20T12:11:38Z</time>
      </trkpt>
      <trkpt lat="46.24449" lon="4.49768">
        <ele>735.2</ele>
        <time>2025-09-20T12:11:39Z</time>
      </trkpt>
      <trkpt lat="46.24448" lon="4.49766">
        <ele>735.2</ele>
        <time>2025-09-20T12:11:40Z</time>
      </trkpt>
      <trkpt lat="46.24446" lon="4.49765">
        <ele>735.6</ele>
        <time>2025-09-20T12:11:41Z</time>
      </trkpt>
      <trkpt lat="46.24444" lon="4.49765">
        <ele>735.6</ele>
        <time>2025-09-20T12:11:42Z</time>
      </trkpt>
      <trkpt lat="46.24443" lon="4.49766">
        <ele>736</ele>
        <time>2025-09-20T12:11:43Z</time>
      </trkpt>
      <trkpt lat="46.24442" lon="4.49765">
        <ele>735.8</ele>
        <time>2025-09-20T12:11:44Z</time>
      </trkpt>
      <trkpt lat="46.2444" lon="4.49763">
        <ele>736.2</ele>
        <time>2025-09-20T12:11:45Z</time>
      </trkpt>
      <trkpt lat="46.2444" lon="4.4976">
        <ele>736.2</ele>
        <time>2025-09-20T12:11:46Z</time>
      </trkpt>
      <trkpt lat="46.24439" lon="4.49757">
        <ele>736.2</ele>
        <time>2025-09-20T12:11:47Z</time>
      </trkpt>
      <trkpt lat="46.24439" lon="4.49755">
        <ele>736.2</ele>
        <time>2025-09-20T12:11:48Z</time>
      </trkpt>
      <trkpt lat="46.24437" lon="4.49753">
        <ele>736.4</ele>
        <time>2025-09-20T12:11:49Z</time>
      </trkpt>
      <trkpt lat="46.24436" lon="4.49752">
        <ele>736.4</ele>
        <time>2025-09-20T12:11:50Z</time>
      </trkpt>
      <trkpt lat="46.24435" lon="4.49751">
        <ele>736.8</ele>
        <time>2025-09-20T12:11:51Z</time>
      </trkpt>
      <trkpt lat="46.24434" lon="4.49748">
        <ele>737</ele>
        <time>2025-09-20T12:11:52Z</time>
      </trkpt>
      <trkpt lat="46.24434" lon="4.49744">
        <ele>737.4</ele>
        <time>2025-09-20T12:11:53Z</time>
      </trkpt>
      <trkpt lat="46.24435" lon="4.49741">
        <ele>737.4</ele>
        <time>2025-09-20T12:11:54Z</time>
      </trkpt>
      <trkpt lat="46.24434" lon="4.49739">
        <ele>737.6</ele>
        <time>2025-09-20T12:11:55Z</time>
      </trkpt>
      <trkpt lat="46.24435" lon="4.49736">
        <ele>737.6</ele>
        <time>2025-09-20T12:11:56Z</time>
      </trkpt>
      <trkpt lat="46.24436" lon="4.49734">
        <ele>738</ele>
        <time>2025-09-20T12:11:57Z</time>
      </trkpt>
      <trkpt lat="46.24436" lon="4.49731">
        <ele>738</ele>
        <time>2025-09-20T12:11:58Z</time>
      </trkpt>
      <trkpt lat="46.24436" lon="4.49728">
        <ele>738</ele>
        <time>2025-09-20T12:11:59Z</time>
      </trkpt>
      <trkpt lat="46.24435" lon="4.49725">
        <ele>738</ele>
        <time>2025-09-20T12:12:00Z</time>
      </trkpt>
      <trkpt lat="46.24434" lon="4.49722">
        <ele>738</ele>
        <time>2025-09-20T12:12:01Z</time>
      </trkpt>
      <trkpt lat="46.24432" lon="4.49718">
        <ele>738.4</ele>
        <time>2025-09-20T12:12:02Z</time>
      </trkpt>
      <trkpt lat="46.24431" lon="4.49715">
        <ele>738.4</ele>
        <time>2025-09-20T12:12:03Z</time>
      </trkpt>
      <trkpt lat="46.24431" lon="4.49712">
        <ele>738.4</ele>
        <time>2025-09-20T12:12:04Z</time>
      </trkpt>
      <trkpt lat="46.24431" lon="4.4971">
        <ele>738.4</ele>
        <time>2025-09-20T12:12:05Z</time>
      </trkpt>
      <trkpt lat="46.2443" lon="4.49708">
        <ele>738.4</ele>
        <time>2025-09-20T12:12:06Z</time>
      </trkpt>
      <trkpt lat="46.2443" lon="4.49705">
        <ele>738.4</ele>
        <time>2025-09-20T12:12:07Z</time>
      </trkpt>
      <trkpt lat="46.24429" lon="4.49703">
        <ele>738.6</ele>
        <time>2025-09-20T12:12:08Z</time>
      </trkpt>
      <trkpt lat="46.24429" lon="4.497">
        <ele>738.8</ele>
        <time>2025-09-20T12:12:09Z</time>
      </trkpt>
      <trkpt lat="46.24428" lon="4.49697">
        <ele>738.8</ele>
        <time>2025-09-20T12:12:10Z</time>
      </trkpt>
      <trkpt lat="46.24427" lon="4.49695">
        <ele>738.8</ele>
        <time>2025-09-20T12:12:11Z</time>
      </trkpt>
      <trkpt lat="46.24425" lon="4.49692">
        <ele>739.2</ele>
        <time>2025-09-20T12:12:12Z</time>
      </trkpt>
      <trkpt lat="46.24425" lon="4.49689">
        <ele>739.4</ele>
        <time>2025-09-20T12:12:13Z</time>
      </trkpt>
      <trkpt lat="46.24425" lon="4.49686">
        <ele>739.4</ele>
        <time>2025-09-20T12:12:14Z</time>
      </trkpt>
      <trkpt lat="46.24425" lon="4.49683">
        <ele>739.6</ele>
        <time>2025-09-20T12:12:15Z</time>
      </trkpt>
      <trkpt lat="46.24424" lon="4.4968">
        <ele>739.4</ele>
        <time>2025-09-20T12:12:16Z</time>
      </trkpt>
      <trkpt lat="46.24424" lon="4.49677">
        <ele>739.6</ele>
        <time>2025-09-20T12:12:17Z</time>
      </trkpt>
      <trkpt lat="46.24424" lon="4.49674">
        <ele>740</ele>
        <time>2025-09-20T12:12:18Z</time>
      </trkpt>
      <trkpt lat="46.24423" lon="4.49671">
        <ele>740.2</ele>
        <time>2025-09-20T12:12:19Z</time>
      </trkpt>
      <trkpt lat="46.24423" lon="4.49668">
        <ele>740.2</ele>
        <time>2025-09-20T12:12:20Z</time>
      </trkpt>
      <trkpt lat="46.24423" lon="4.49666">
        <ele>741</ele>
        <time>2025-09-20T12:12:21Z</time>
      </trkpt>
      <trkpt lat="46.24424" lon="4.49663">
        <ele>741</ele>
        <time>2025-09-20T12:12:22Z</time>
      </trkpt>
      <trkpt lat="46.24424" lon="4.4966">
        <ele>741</ele>
        <time>2025-09-20T12:12:23Z</time>
      </trkpt>
      <trkpt lat="46.24424" lon="4.49658">
        <ele>741</ele>
        <time>2025-09-20T12:12:24Z</time>
      </trkpt>
      <trkpt lat="46.24425" lon="4.49656">
        <ele>741</ele>
        <time>2025-09-20T12:12:25Z</time>
      </trkpt>
      <trkpt lat="46.24425" lon="4.49652">
        <ele>741.4</ele>
        <time>2025-09-20T12:12:26Z</time>
      </trkpt>
      <trkpt lat="46.24425" lon="4.49649">
        <ele>741</ele>
        <time>2025-09-20T12:12:27Z</time>
      </trkpt>
      <trkpt lat="46.24425" lon="4.49646">
        <ele>741</ele>
        <time>2025-09-20T12:12:28Z</time>
      </trkpt>
      <trkpt lat="46.24424" lon="4.49644">
        <ele>741</ele>
        <time>2025-09-20T12:12:29Z</time>
      </trkpt>
      <trkpt lat="46.24424" lon="4.49641">
        <ele>741.4</ele>
        <time>2025-09-20T12:12:30Z</time>
      </trkpt>
      <trkpt lat="46.24423" lon="4.49638">
        <ele>741.4</ele>
        <time>2025-09-20T12:12:31Z</time>
      </trkpt>
      <trkpt lat="46.24423" lon="4.49635">
        <ele>741.4</ele>
        <time>2025-09-20T12:12:32Z</time>
      </trkpt>
      <trkpt lat="46.24422" lon="4.49632">
        <ele>741.4</ele>
        <time>2025-09-20T12:12:33Z</time>
      </trkpt>
      <trkpt lat="46.24422" lon="4.49629">
        <ele>741.8</ele>
        <time>2025-09-20T12:12:34Z</time>
      </trkpt>
      <trkpt lat="46.24421" lon="4.49626">
        <ele>741.2</ele>
        <time>2025-09-20T12:12:35Z</time>
      </trkpt>
      <trkpt lat="46.2442" lon="4.49623">
        <ele>741.8</ele>
        <time>2025-09-20T12:12:36Z</time>
      </trkpt>
      <trkpt lat="46.24419" lon="4.49621">
        <ele>742.6</ele>
        <time>2025-09-20T12:12:37Z</time>
      </trkpt>
      <trkpt lat="46.24418" lon="4.49618">
        <ele>742.6</ele>
        <time>2025-09-20T12:12:38Z</time>
      </trkpt>
      <trkpt lat="46.24417" lon="4.49615">
        <ele>742.6</ele>
        <time>2025-09-20T12:12:39Z</time>
      </trkpt>
      <trkpt lat="46.24416" lon="4.49613">
        <ele>742.4</ele>
        <time>2025-09-20T12:12:40Z</time>
      </trkpt>
      <trkpt lat="46.24415" lon="4.49611">
        <ele>742.6</ele>
        <time>2025-09-20T12:12:41Z</time>
      </trkpt>
      <trkpt lat="46.24414" lon="4.4961">
        <ele>742.6</ele>
        <time>2025-09-20T12:12:42Z</time>
      </trkpt>
      <trkpt lat="46.24413" lon="4.49609">
        <ele>742.6</ele>
        <time>2025-09-20T12:12:43Z</time>
      </trkpt>
      <trkpt lat="46.24411" lon="4.49607">
        <ele>742.8</ele>
        <time>2025-09-20T12:12:44Z</time>
      </trkpt>
      <trkpt lat="46.24411" lon="4.49605">
        <ele>742.8</ele>
        <time>2025-09-20T12:12:45Z</time>
      </trkpt>
      <trkpt lat="46.2441" lon="4.49602">
        <ele>743</ele>
        <time>2025-09-20T12:12:46Z</time>
      </trkpt>
      <trkpt lat="46.2441" lon="4.49599">
        <ele>743.4</ele>
        <time>2025-09-20T12:12:47Z</time>
      </trkpt>
      <trkpt lat="46.24411" lon="4.49596">
        <ele>743.4</ele>
        <time>2025-09-20T12:12:48Z</time>
      </trkpt>
      <trkpt lat="46.2441" lon="4.49594">
        <ele>743.8</ele>
        <time>2025-09-20T12:12:49Z</time>
      </trkpt>
      <trkpt lat="46.2441" lon="4.49592">
        <ele>743.8</ele>
        <time>2025-09-20T12:12:50Z</time>
      </trkpt>
      <trkpt lat="46.2441" lon="4.49589">
        <ele>744</ele>
        <time>2025-09-20T12:12:51Z</time>
      </trkpt>
      <trkpt lat="46.2441" lon="4.49586">
        <ele>744</ele>
        <time>2025-09-20T12:12:52Z</time>
      </trkpt>
      <trkpt lat="46.2441" lon="4.49583">
        <ele>744.6</ele>
        <time>2025-09-20T12:12:53Z</time>
      </trkpt>
      <trkpt lat="46.2441" lon="4.49581">
        <ele>744.8</ele>
        <time>2025-09-20T12:12:54Z</time>
      </trkpt>
      <trkpt lat="46.2441" lon="4.49579">
        <ele>745.2</ele>
        <time>2025-09-20T12:12:55Z</time>
      </trkpt>
      <trkpt lat="46.24409" lon="4.49577">
        <ele>745.2</ele>
        <time>2025-09-20T12:12:56Z</time>
      </trkpt>
      <trkpt lat="46.24409" lon="4.49575">
        <ele>745.4</ele>
        <time>2025-09-20T12:12:57Z</time>
      </trkpt>
      <trkpt lat="46.24408" lon="4.49573">
        <ele>745.8</ele>
        <time>2025-09-20T12:12:58Z</time>
      </trkpt>
      <trkpt lat="46.24407" lon="4.49571">
        <ele>745.8</ele>
        <time>2025-09-20T12:12:59Z</time>
      </trkpt>
      <trkpt lat="46.24406" lon="4.49569">
        <ele>746</ele>
        <time>2025-09-20T12:13:00Z</time>
      </trkpt>
      <trkpt lat="46.24405" lon="4.49566">
        <ele>746.2</ele>
        <time>2025-09-20T12:13:01Z</time>
      </trkpt>
      <trkpt lat="46.24405" lon="4.49564">
        <ele>746.4</ele>
        <time>2025-09-20T12:13:02Z</time>
      </trkpt>
      <trkpt lat="46.24404" lon="4.49563">
        <ele>746.4</ele>
        <time>2025-09-20T12:13:03Z</time>
      </trkpt>
      <trkpt lat="46.24403" lon="4.49561">
        <ele>746.8</ele>
        <time>2025-09-20T12:13:04Z</time>
      </trkpt>
      <trkpt lat="46.24401" lon="4.49559">
        <ele>746.8</ele>
        <time>2025-09-20T12:13:05Z</time>
      </trkpt>
      <trkpt lat="46.244" lon="4.49556">
        <ele>747.2</ele>
        <time>2025-09-20T12:13:06Z</time>
      </trkpt>
      <trkpt lat="46.244" lon="4.49555">
        <ele>747.2</ele>
        <time>2025-09-20T12:13:07Z</time>
      </trkpt>
      <trkpt lat="46.24399" lon="4.49553">
        <ele>747.6</ele>
        <time>2025-09-20T12:13:08Z</time>
      </trkpt>
      <trkpt lat="46.24397" lon="4.49552">
        <ele>747.6</ele>
        <time>2025-09-20T12:13:09Z</time>
      </trkpt>
      <trkpt lat="46.24396" lon="4.49551">
        <ele>748</ele>
        <time>2025-09-20T12:13:10Z</time>
      </trkpt>
      <trkpt lat="46.24395" lon="4.49549">
        <ele>748</ele>
        <time>2025-09-20T12:13:11Z</time>
      </trkpt>
      <trkpt lat="46.24395" lon="4.49549">
        <ele>748.2</ele>
        <time>2025-09-20T12:13:12Z</time>
      </trkpt>
      <trkpt lat="46.24395" lon="4.49548">
        <ele>748.2</ele>
        <time>2025-09-20T12:13:13Z</time>
      </trkpt>
      <trkpt lat="46.24395" lon="4.49546">
        <ele>748.2</ele>
        <time>2025-09-20T12:13:14Z</time>
      </trkpt>
      <trkpt lat="46.24395" lon="4.49545">
        <ele>748.2</ele>
        <time>2025-09-20T12:13:15Z</time>
      </trkpt>
      <trkpt lat="46.24395" lon="4.49544">
        <ele>748.4</ele>
        <time>2025-09-20T12:13:16Z</time>
      </trkpt>
      <trkpt lat="46.24395" lon="4.49544">
        <ele>748.4</ele>
        <time>2025-09-20T12:13:17Z</time>
      </trkpt>
      <trkpt lat="46.24395" lon="4.49544">
        <ele>748.4</ele>
        <time>2025-09-20T12:13:18Z</time>
      </trkpt>
      <trkpt lat="46.24395" lon="4.49544">
        <ele>748.4</ele>
        <time>2025-09-20T12:13:19Z</time>
      </trkpt>
      <trkpt lat="46.24399" lon="4.49539">
        <ele>747.6</ele>
        <time>2025-09-20T12:17:24Z</time>
      </trkpt>
      <trkpt lat="46.24398" lon="4.49537">
        <ele>747.6</ele>
        <time>2025-09-20T12:17:25Z</time>
      </trkpt>
      <trkpt lat="46.24397" lon="4.49535">
        <ele>748.2</ele>
        <time>2025-09-20T12:17:26Z</time>
      </trkpt>
      <trkpt lat="46.24397" lon="4.49533">
        <ele>748.2</ele>
        <time>2025-09-20T12:17:27Z</time>
      </trkpt>
      <trkpt lat="46.24396" lon="4.49531">
        <ele>748.4</ele>
        <time>2025-09-20T12:17:28Z</time>
      </trkpt>
      <trkpt lat="46.24396" lon="4.4953">
        <ele>748.4</ele>
        <time>2025-09-20T12:17:29Z</time>
      </trkpt>
      <trkpt lat="46.24395" lon="4.49527">
        <ele>748.4</ele>
        <time>2025-09-20T12:17:30Z</time>
      </trkpt>
      <trkpt lat="46.24395" lon="4.49525">
        <ele>748.8</ele>
        <time>2025-09-20T12:17:31Z</time>
      </trkpt>
      <trkpt lat="46.24395" lon="4.49524">
        <ele>748.8</ele>
        <time>2025-09-20T12:17:32Z</time>
      </trkpt>
      <trkpt lat="46.24394" lon="4.49523">
        <ele>749</ele>
        <time>2025-09-20T12:17:33Z</time>
      </trkpt>
      <trkpt lat="46.24392" lon="4.4952">
        <ele>749.6</ele>
        <time>2025-09-20T12:17:34Z</time>
      </trkpt>
      <trkpt lat="46.24391" lon="4.49518">
        <ele>749.6</ele>
        <time>2025-09-20T12:17:35Z</time>
      </trkpt>
      <trkpt lat="46.24391" lon="4.49516">
        <ele>749.6</ele>
        <time>2025-09-20T12:17:36Z</time>
      </trkpt>
      <trkpt lat="46.2439" lon="4.49514">
        <ele>749.6</ele>
        <time>2025-09-20T12:17:37Z</time>
      </trkpt>
      <trkpt lat="46.24389" lon="4.49512">
        <ele>750</ele>
        <time>2025-09-20T12:17:38Z</time>
      </trkpt>
      <trkpt lat="46.24388" lon="4.4951">
        <ele>750</ele>
        <time>2025-09-20T12:17:39Z</time>
      </trkpt>
      <trkpt lat="46.24387" lon="4.49507">
        <ele>750</ele>
        <time>2025-09-20T12:17:40Z</time>
      </trkpt>
      <trkpt lat="46.24386" lon="4.49505">
        <ele>750</ele>
        <time>2025-09-20T12:17:41Z</time>
      </trkpt>
      <trkpt lat="46.24386" lon="4.49503">
        <ele>750</ele>
        <time>2025-09-20T12:17:42Z</time>
      </trkpt>
      <trkpt lat="46.24385" lon="4.49502">
        <ele>750</ele>
        <time>2025-09-20T12:17:43Z</time>
      </trkpt>
      <trkpt lat="46.24385" lon="4.49499">
        <ele>750</ele>
        <time>2025-09-20T12:17:44Z</time>
      </trkpt>
      <trkpt lat="46.24384" lon="4.49498">
        <ele>750.6</ele>
        <time>2025-09-20T12:17:45Z</time>
      </trkpt>
      <trkpt lat="46.24384" lon="4.49497">
        <ele>750.6</ele>
        <time>2025-09-20T12:17:46Z</time>
      </trkpt>
      <trkpt lat="46.24382" lon="4.49494">
        <ele>750.2</ele>
        <time>2025-09-20T12:17:47Z</time>
      </trkpt>
      <trkpt lat="46.24381" lon="4.49492">
        <ele>750.2</ele>
        <time>2025-09-20T12:17:48Z</time>
      </trkpt>
      <trkpt lat="46.2438" lon="4.4949">
        <ele>750.2</ele>
        <time>2025-09-20T12:17:49Z</time>
      </trkpt>
      <trkpt lat="46.2438" lon="4.49488">
        <ele>750.8</ele>
        <time>2025-09-20T12:17:50Z</time>
      </trkpt>
      <trkpt lat="46.2438" lon="4.49486">
        <ele>750.8</ele>
        <time>2025-09-20T12:17:51Z</time>
      </trkpt>
      <trkpt lat="46.24379" lon="4.49483">
        <ele>751.2</ele>
        <time>2025-09-20T12:17:52Z</time>
      </trkpt>
      <trkpt lat="46.24378" lon="4.49481">
        <ele>751.6</ele>
        <time>2025-09-20T12:17:53Z</time>
      </trkpt>
      <trkpt lat="46.24378" lon="4.49479">
        <ele>751.8</ele>
        <time>2025-09-20T12:17:54Z</time>
      </trkpt>
      <trkpt lat="46.24378" lon="4.49477">
        <ele>752.2</ele>
        <time>2025-09-20T12:17:55Z</time>
      </trkpt>
      <trkpt lat="46.24377" lon="4.49474">
        <ele>752.4</ele>
        <time>2025-09-20T12:17:56Z</time>
      </trkpt>
      <trkpt lat="46.24377" lon="4.49472">
        <ele>753</ele>
        <time>2025-09-20T12:17:57Z</time>
      </trkpt>
      <trkpt lat="46.24376" lon="4.49469">
        <ele>753</ele>
        <time>2025-09-20T12:17:58Z</time>
      </trkpt>
      <trkpt lat="46.24376" lon="4.49467">
        <ele>753.2</ele>
        <time>2025-09-20T12:17:59Z</time>
      </trkpt>
      <trkpt lat="46.24375" lon="4.49465">
        <ele>753.4</ele>
        <time>2025-09-20T12:18:00Z</time>
      </trkpt>
      <trkpt lat="46.24375" lon="4.49463">
        <ele>754</ele>
        <time>2025-09-20T12:18:01Z</time>
      </trkpt>
      <trkpt lat="46.24375" lon="4.49462">
        <ele>754.2</ele>
        <time>2025-09-20T12:18:02Z</time>
      </trkpt>
      <trkpt lat="46.24375" lon="4.49461">
        <ele>754.2</ele>
        <time>2025-09-20T12:18:03Z</time>
      </trkpt>
      <trkpt lat="46.24375" lon="4.4946">
        <ele>754.2</ele>
        <time>2025-09-20T12:18:04Z</time>
      </trkpt>
      <trkpt lat="46.24377" lon="4.4946">
        <ele>754.4</ele>
        <time>2025-09-20T12:18:08Z</time>
      </trkpt>
      <trkpt lat="46.24377" lon="4.4946">
        <ele>754.8</ele>
        <time>2025-09-20T12:18:09Z</time>
      </trkpt>
      <trkpt lat="46.24378" lon="4.4946">
        <ele>754.8</ele>
        <time>2025-09-20T12:18:10Z</time>
      </trkpt>
      <trkpt lat="46.24379" lon="4.4946">
        <ele>755</ele>
        <time>2025-09-20T12:18:11Z</time>
      </trkpt>
      <trkpt lat="46.24379" lon="4.49459">
        <ele>755</ele>
        <time>2025-09-20T12:18:12Z</time>
      </trkpt>
      <trkpt lat="46.24379" lon="4.49458">
        <ele>755.6</ele>
        <time>2025-09-20T12:18:13Z</time>
      </trkpt>
      <trkpt lat="46.24379" lon="4.49457">
        <ele>755.8</ele>
        <time>2025-09-20T12:18:14Z</time>
      </trkpt>
      <trkpt lat="46.24378" lon="4.49455">
        <ele>755.8</ele>
        <time>2025-09-20T12:18:15Z</time>
      </trkpt>
      <trkpt lat="46.24378" lon="4.49453">
        <ele>756</ele>
        <time>2025-09-20T12:18:16Z</time>
      </trkpt>
      <trkpt lat="46.24377" lon="4.49452">
        <ele>756.4</ele>
        <time>2025-09-20T12:18:17Z</time>
      </trkpt>
      <trkpt lat="46.24377" lon="4.49451">
        <ele>756.4</ele>
        <time>2025-09-20T12:18:18Z</time>
      </trkpt>
      <trkpt lat="46.24376" lon="4.4945">
        <ele>756.6</ele>
        <time>2025-09-20T12:18:19Z</time>
      </trkpt>
      <trkpt lat="46.24376" lon="4.49449">
        <ele>756.6</ele>
        <time>2025-09-20T12:18:20Z</time>
      </trkpt>
      <trkpt lat="46.24376" lon="4.49448">
        <ele>757</ele>
        <time>2025-09-20T12:18:21Z</time>
      </trkpt>
      <trkpt lat="46.24375" lon="4.49447">
        <ele>757.2</ele>
        <time>2025-09-20T12:18:22Z</time>
      </trkpt>
      <trkpt lat="46.24375" lon="4.49447">
        <ele>757.2</ele>
        <time>2025-09-20T12:18:23Z</time>
      </trkpt>
      <trkpt lat="46.24373" lon="4.49445">
        <ele>757.6</ele>
        <time>2025-09-20T12:18:39Z</time>
      </trkpt>
      <trkpt lat="46.24373" lon="4.49444">
        <ele>757.6</ele>
        <time>2025-09-20T12:18:40Z</time>
      </trkpt>
      <trkpt lat="46.24374" lon="4.49443">
        <ele>757.6</ele>
        <time>2025-09-20T12:18:41Z</time>
      </trkpt>
      <trkpt lat="46.24375" lon="4.4944">
        <ele>757.6</ele>
        <time>2025-09-20T12:18:42Z</time>
      </trkpt>
      <trkpt lat="46.24375" lon="4.49439">
        <ele>757.6</ele>
        <time>2025-09-20T12:18:43Z</time>
      </trkpt>
      <trkpt lat="46.24374" lon="4.49437">
        <ele>757.8</ele>
        <time>2025-09-20T12:18:44Z</time>
      </trkpt>
      <trkpt lat="46.24374" lon="4.49436">
        <ele>757.8</ele>
        <time>2025-09-20T12:18:45Z</time>
      </trkpt>
      <trkpt lat="46.24374" lon="4.49434">
        <ele>758</ele>
        <time>2025-09-20T12:18:46Z</time>
      </trkpt>
      <trkpt lat="46.24374" lon="4.49432">
        <ele>758.2</ele>
        <time>2025-09-20T12:18:47Z</time>
      </trkpt>
      <trkpt lat="46.24374" lon="4.4943">
        <ele>758.2</ele>
        <time>2025-09-20T12:18:48Z</time>
      </trkpt>
      <trkpt lat="46.24374" lon="4.49429">
        <ele>758.6</ele>
        <time>2025-09-20T12:18:49Z</time>
      </trkpt>
      <trkpt lat="46.24374" lon="4.49428">
        <ele>758.6</ele>
        <time>2025-09-20T12:18:50Z</time>
      </trkpt>
      <trkpt lat="46.24374" lon="4.49428">
        <ele>758.6</ele>
        <time>2025-09-20T12:18:51Z</time>
      </trkpt>
      <trkpt lat="46.24374" lon="4.49426">
        <ele>759</ele>
        <time>2025-09-20T12:18:52Z</time>
      </trkpt>
      <trkpt lat="46.24374" lon="4.49425">
        <ele>759</ele>
        <time>2025-09-20T12:18:53Z</time>
      </trkpt>
      <trkpt lat="46.24374" lon="4.49424">
        <ele>759</ele>
        <time>2025-09-20T12:18:54Z</time>
      </trkpt>
      <trkpt lat="46.24373" lon="4.49423">
        <ele>759.4</ele>
        <time>2025-09-20T12:18:55Z</time>
      </trkpt>
      <trkpt lat="46.24373" lon="4.49422">
        <ele>759.6</ele>
        <time>2025-09-20T12:18:56Z</time>
      </trkpt>
      <trkpt lat="46.24372" lon="4.49421">
        <ele>759.8</ele>
        <time>2025-09-20T12:18:57Z</time>
      </trkpt>
      <trkpt lat="46.24372" lon="4.49421">
        <ele>759.8</ele>
        <time>2025-09-20T12:18:58Z</time>
      </trkpt>
      <trkpt lat="46.24372" lon="4.49421">
        <ele>760</ele>
        <time>2025-09-20T12:18:59Z</time>
      </trkpt>
      <trkpt lat="46.24372" lon="4.49419">
        <ele>760</ele>
        <time>2025-09-20T12:19:00Z</time>
      </trkpt>
      <trkpt lat="46.24371" lon="4.49418">
        <ele>760</ele>
        <time>2025-09-20T12:19:01Z</time>
      </trkpt>
      <trkpt lat="46.24371" lon="4.49416">
        <ele>760</ele>
        <time>2025-09-20T12:19:02Z</time>
      </trkpt>
      <trkpt lat="46.2437" lon="4.49414">
        <ele>760.4</ele>
        <time>2025-09-20T12:19:03Z</time>
      </trkpt>
      <trkpt lat="46.2437" lon="4.49412">
        <ele>760.4</ele>
        <time>2025-09-20T12:19:04Z</time>
      </trkpt>
      <trkpt lat="46.24369" lon="4.49411">
        <ele>760.6</ele>
        <time>2025-09-20T12:19:05Z</time>
      </trkpt>
      <trkpt lat="46.24369" lon="4.49409">
        <ele>760.6</ele>
        <time>2025-09-20T12:19:06Z</time>
      </trkpt>
      <trkpt lat="46.24369" lon="4.49407">
        <ele>761</ele>
        <time>2025-09-20T12:19:07Z</time>
      </trkpt>
      <trkpt lat="46.24368" lon="4.49405">
        <ele>761</ele>
        <time>2025-09-20T12:19:08Z</time>
      </trkpt>
      <trkpt lat="46.24368" lon="4.49403">
        <ele>761.4</ele>
        <time>2025-09-20T12:19:09Z</time>
      </trkpt>
      <trkpt lat="46.24367" lon="4.49402">
        <ele>761.4</ele>
        <time>2025-09-20T12:19:10Z</time>
      </trkpt>
      <trkpt lat="46.24367" lon="4.49401">
        <ele>761.4</ele>
        <time>2025-09-20T12:19:11Z</time>
      </trkpt>
      <trkpt lat="46.24367" lon="4.494">
        <ele>761.6</ele>
        <time>2025-09-20T12:19:12Z</time>
      </trkpt>
      <trkpt lat="46.24366" lon="4.49399">
        <ele>761.6</ele>
        <time>2025-09-20T12:19:13Z</time>
      </trkpt>
      <trkpt lat="46.24365" lon="4.49397">
        <ele>761.6</ele>
        <time>2025-09-20T12:19:14Z</time>
      </trkpt>
      <trkpt lat="46.24365" lon="4.49396">
        <ele>762</ele>
        <time>2025-09-20T12:19:15Z</time>
      </trkpt>
      <trkpt lat="46.24365" lon="4.49394">
        <ele>762</ele>
        <time>2025-09-20T12:19:16Z</time>
      </trkpt>
      <trkpt lat="46.24365" lon="4.49392">
        <ele>762.4</ele>
        <time>2025-09-20T12:19:17Z</time>
      </trkpt>
      <trkpt lat="46.24365" lon="4.49391">
        <ele>762.4</ele>
        <time>2025-09-20T12:19:18Z</time>
      </trkpt>
      <trkpt lat="46.24364" lon="4.49389">
        <ele>762.8</ele>
        <time>2025-09-20T12:19:19Z</time>
      </trkpt>
      <trkpt lat="46.24364" lon="4.49388">
        <ele>762.8</ele>
        <time>2025-09-20T12:19:20Z</time>
      </trkpt>
      <trkpt lat="46.24364" lon="4.49386">
        <ele>763.4</ele>
        <time>2025-09-20T12:19:21Z</time>
      </trkpt>
      <trkpt lat="46.24364" lon="4.49384">
        <ele>763.6</ele>
        <time>2025-09-20T12:19:22Z</time>
      </trkpt>
      <trkpt lat="46.24364" lon="4.49383">
        <ele>763.6</ele>
        <time>2025-09-20T12:19:23Z</time>
      </trkpt>
      <trkpt lat="46.24364" lon="4.49381">
        <ele>763.8</ele>
        <time>2025-09-20T12:19:24Z</time>
      </trkpt>
      <trkpt lat="46.24364" lon="4.4938">
        <ele>763.8</ele>
        <time>2025-09-20T12:19:25Z</time>
      </trkpt>
      <trkpt lat="46.24364" lon="4.49377">
        <ele>764</ele>
        <time>2025-09-20T12:19:26Z</time>
      </trkpt>
      <trkpt lat="46.24363" lon="4.49376">
        <ele>764</ele>
        <time>2025-09-20T12:19:27Z</time>
      </trkpt>
      <trkpt lat="46.24362" lon="4.49374">
        <ele>764</ele>
        <time>2025-09-20T12:19:28Z</time>
      </trkpt>
      <trkpt lat="46.24361" lon="4.49373">
        <ele>764</ele>
        <time>2025-09-20T12:19:29Z</time>
      </trkpt>
      <trkpt lat="46.24361" lon="4.49372">
        <ele>764.4</ele>
        <time>2025-09-20T12:19:30Z</time>
      </trkpt>
      <trkpt lat="46.24361" lon="4.49371">
        <ele>764.8</ele>
        <time>2025-09-20T12:19:31Z</time>
      </trkpt>
      <trkpt lat="46.24361" lon="4.49369">
        <ele>764.8</ele>
        <time>2025-09-20T12:19:32Z</time>
      </trkpt>
      <trkpt lat="46.24361" lon="4.49367">
        <ele>765</ele>
        <time>2025-09-20T12:19:33Z</time>
      </trkpt>
      <trkpt lat="46.2436" lon="4.49366">
        <ele>765.4</ele>
        <time>2025-09-20T12:19:34Z</time>
      </trkpt>
      <trkpt lat="46.2436" lon="4.49365">
        <ele>765.4</ele>
        <time>2025-09-20T12:19:35Z</time>
      </trkpt>
      <trkpt lat="46.2436" lon="4.49363">
        <ele>765.6</ele>
        <time>2025-09-20T12:19:36Z</time>
      </trkpt>
      <trkpt lat="46.2436" lon="4.49362">
        <ele>765.8</ele>
        <time>2025-09-20T12:19:37Z</time>
      </trkpt>
      <trkpt lat="46.2436" lon="4.49361">
        <ele>766</ele>
        <time>2025-09-20T12:19:38Z</time>
      </trkpt>
      <trkpt lat="46.2436" lon="4.4936">
        <ele>766.2</ele>
        <time>2025-09-20T12:19:39Z</time>
      </trkpt>
      <trkpt lat="46.24359" lon="4.49359">
        <ele>766.2</ele>
        <time>2025-09-20T12:19:40Z</time>
      </trkpt>
      <trkpt lat="46.24359" lon="4.49359">
        <ele>766.2</ele>
        <time>2025-09-20T12:19:41Z</time>
      </trkpt>
      <trkpt lat="46.24359" lon="4.49357">
        <ele>766.4</ele>
        <time>2025-09-20T12:19:42Z</time>
      </trkpt>
      <trkpt lat="46.24359" lon="4.49356">
        <ele>766.4</ele>
        <time>2025-09-20T12:19:43Z</time>
      </trkpt>
      <trkpt lat="46.2436" lon="4.49353">
        <ele>766.8</ele>
        <time>2025-09-20T12:19:44Z</time>
      </trkpt>
      <trkpt lat="46.2436" lon="4.49352">
        <ele>767</ele>
        <time>2025-09-20T12:19:45Z</time>
      </trkpt>
      <trkpt lat="46.2436" lon="4.49351">
        <ele>767.4</ele>
        <time>2025-09-20T12:19:46Z</time>
      </trkpt>
      <trkpt lat="46.2436" lon="4.49351">
        <ele>767.8</ele>
        <time>2025-09-20T12:19:47Z</time>
      </trkpt>
      <trkpt lat="46.2436" lon="4.4935">
        <ele>768</ele>
        <time>2025-09-20T12:19:48Z</time>
      </trkpt>
      <trkpt lat="46.2436" lon="4.49348">
        <ele>768</ele>
        <time>2025-09-20T12:19:49Z</time>
      </trkpt>
      <trkpt lat="46.2436" lon="4.49347">
        <ele>768</ele>
        <time>2025-09-20T12:19:50Z</time>
      </trkpt>
      <trkpt lat="46.2436" lon="4.49346">
        <ele>768.4</ele>
        <time>2025-09-20T12:19:51Z</time>
      </trkpt>
      <trkpt lat="46.24359" lon="4.49345">
        <ele>768.4</ele>
        <time>2025-09-20T12:19:52Z</time>
      </trkpt>
      <trkpt lat="46.24359" lon="4.49344">
        <ele>768.8</ele>
        <time>2025-09-20T12:19:53Z</time>
      </trkpt>
      <trkpt lat="46.24359" lon="4.49343">
        <ele>769</ele>
        <time>2025-09-20T12:19:54Z</time>
      </trkpt>
      <trkpt lat="46.24359" lon="4.49342">
        <ele>769</ele>
        <time>2025-09-20T12:19:55Z</time>
      </trkpt>
      <trkpt lat="46.24359" lon="4.49341">
        <ele>769.4</ele>
        <time>2025-09-20T12:19:56Z</time>
      </trkpt>
      <trkpt lat="46.24359" lon="4.4934">
        <ele>769.4</ele>
        <time>2025-09-20T12:19:57Z</time>
      </trkpt>
      <trkpt lat="46.24358" lon="4.49339">
        <ele>769.6</ele>
        <time>2025-09-20T12:19:58Z</time>
      </trkpt>
      <trkpt lat="46.24358" lon="4.49339">
        <ele>769.6</ele>
        <time>2025-09-20T12:19:59Z</time>
      </trkpt>
      <trkpt lat="46.24358" lon="4.49339">
        <ele>769.8</ele>
        <time>2025-09-20T12:20:00Z</time>
      </trkpt>
      <trkpt lat="46.24358" lon="4.49338">
        <ele>769.8</ele>
        <time>2025-09-20T12:20:01Z</time>
      </trkpt>
      <trkpt lat="46.24357" lon="4.49337">
        <ele>769.8</ele>
        <time>2025-09-20T12:20:02Z</time>
      </trkpt>
      <trkpt lat="46.24357" lon="4.49335">
        <ele>770.4</ele>
        <time>2025-09-20T12:20:03Z</time>
      </trkpt>
      <trkpt lat="46.24357" lon="4.49333">
        <ele>770.4</ele>
        <time>2025-09-20T12:20:04Z</time>
      </trkpt>
      <trkpt lat="46.24357" lon="4.49331">
        <ele>770.8</ele>
        <time>2025-09-20T12:20:05Z</time>
      </trkpt>
      <trkpt lat="46.24357" lon="4.4933">
        <ele>770.8</ele>
        <time>2025-09-20T12:20:06Z</time>
      </trkpt>
      <trkpt lat="46.24356" lon="4.49328">
        <ele>771</ele>
        <time>2025-09-20T12:20:07Z</time>
      </trkpt>
      <trkpt lat="46.24356" lon="4.49327">
        <ele>771.2</ele>
        <time>2025-09-20T12:20:08Z</time>
      </trkpt>
      <trkpt lat="46.24355" lon="4.49326">
        <ele>771.2</ele>
        <time>2025-09-20T12:20:09Z</time>
      </trkpt>
      <trkpt lat="46.24354" lon="4.49324">
        <ele>771.6</ele>
        <time>2025-09-20T12:20:10Z</time>
      </trkpt>
      <trkpt lat="46.24353" lon="4.49323">
        <ele>771.6</ele>
        <time>2025-09-20T12:20:11Z</time>
      </trkpt>
      <trkpt lat="46.24353" lon="4.49323">
        <ele>771.6</ele>
        <time>2025-09-20T12:20:12Z</time>
      </trkpt>
      <trkpt lat="46.24353" lon="4.49322">
        <ele>771.8</ele>
        <time>2025-09-20T12:20:13Z</time>
      </trkpt>
      <trkpt lat="46.24354" lon="4.4932">
        <ele>771.8</ele>
        <time>2025-09-20T12:20:14Z</time>
      </trkpt>
      <trkpt lat="46.24354" lon="4.49319">
        <ele>772.2</ele>
        <time>2025-09-20T12:20:15Z</time>
      </trkpt>
      <trkpt lat="46.24354" lon="4.49318">
        <ele>772.2</ele>
        <time>2025-09-20T12:20:16Z</time>
      </trkpt>
      <trkpt lat="46.24354" lon="4.49317">
        <ele>772.4</ele>
        <time>2025-09-20T12:20:17Z</time>
      </trkpt>
      <trkpt lat="46.24354" lon="4.49316">
        <ele>772.4</ele>
        <time>2025-09-20T12:20:18Z</time>
      </trkpt>
      <trkpt lat="46.24354" lon="4.49315">
        <ele>772.4</ele>
        <time>2025-09-20T12:20:19Z</time>
      </trkpt>
      <trkpt lat="46.24354" lon="4.49315">
        <ele>772.8</ele>
        <time>2025-09-20T12:20:20Z</time>
      </trkpt>
      <trkpt lat="46.24354" lon="4.49314">
        <ele>773.4</ele>
        <time>2025-09-20T12:20:21Z</time>
      </trkpt>
      <trkpt lat="46.24353" lon="4.49313">
        <ele>773.4</ele>
        <time>2025-09-20T12:20:22Z</time>
      </trkpt>
      <trkpt lat="46.24352" lon="4.49312">
        <ele>773.6</ele>
        <time>2025-09-20T12:20:23Z</time>
      </trkpt>
      <trkpt lat="46.24352" lon="4.49312">
        <ele>773.6</ele>
        <time>2025-09-20T12:20:24Z</time>
      </trkpt>
      <trkpt lat="46.24351" lon="4.49311">
        <ele>774</ele>
        <time>2025-09-20T12:20:25Z</time>
      </trkpt>
      <trkpt lat="46.2435" lon="4.4931">
        <ele>774.4</ele>
        <time>2025-09-20T12:20:26Z</time>
      </trkpt>
      <trkpt lat="46.2435" lon="4.49309">
        <ele>774.4</ele>
        <time>2025-09-20T12:20:27Z</time>
      </trkpt>
      <trkpt lat="46.2435" lon="4.49309">
        <ele>774.6</ele>
        <time>2025-09-20T12:20:28Z</time>
      </trkpt>
      <trkpt lat="46.2435" lon="4.49308">
        <ele>775</ele>
        <time>2025-09-20T12:20:29Z</time>
      </trkpt>
      <trkpt lat="46.2435" lon="4.49306">
        <ele>775</ele>
        <time>2025-09-20T12:20:30Z</time>
      </trkpt>
      <trkpt lat="46.2435" lon="4.49306">
        <ele>775.2</ele>
        <time>2025-09-20T12:20:31Z</time>
      </trkpt>
      <trkpt lat="46.2435" lon="4.49305">
        <ele>775.2</ele>
        <time>2025-09-20T12:20:32Z</time>
      </trkpt>
      <trkpt lat="46.2435" lon="4.49304">
        <ele>775.2</ele>
        <time>2025-09-20T12:20:33Z</time>
      </trkpt>
      <trkpt lat="46.2435" lon="4.49303">
        <ele>775.4</ele>
        <time>2025-09-20T12:20:34Z</time>
      </trkpt>
      <trkpt lat="46.2435" lon="4.49302">
        <ele>775.8</ele>
        <time>2025-09-20T12:20:35Z</time>
      </trkpt>
      <trkpt lat="46.24351" lon="4.493">
        <ele>776</ele>
        <time>2025-09-20T12:20:36Z</time>
      </trkpt>
      <trkpt lat="46.24351" lon="4.49299">
        <ele>776</ele>
        <time>2025-09-20T12:20:37Z</time>
      </trkpt>
      <trkpt lat="46.24351" lon="4.49298">
        <ele>776.2</ele>
        <time>2025-09-20T12:20:38Z</time>
      </trkpt>
      <trkpt lat="46.24351" lon="4.49296">
        <ele>776.2</ele>
        <time>2025-09-20T12:20:39Z</time>
      </trkpt>
      <trkpt lat="46.24351" lon="4.49294">
        <ele>776.6</ele>
        <time>2025-09-20T12:20:40Z</time>
      </trkpt>
      <trkpt lat="46.24351" lon="4.49293">
        <ele>776.6</ele>
        <time>2025-09-20T12:20:41Z</time>
      </trkpt>
      <trkpt lat="46.24351" lon="4.49292">
        <ele>777</ele>
        <time>2025-09-20T12:20:42Z</time>
      </trkpt>
      <trkpt lat="46.2435" lon="4.49291">
        <ele>777</ele>
        <time>2025-09-20T12:20:43Z</time>
      </trkpt>
      <trkpt lat="46.2435" lon="4.4929">
        <ele>777</ele>
        <time>2025-09-20T12:20:44Z</time>
      </trkpt>
      <trkpt lat="46.2435" lon="4.49288">
        <ele>777.2</ele>
        <time>2025-09-20T12:20:45Z</time>
      </trkpt>
      <trkpt lat="46.2435" lon="4.49288">
        <ele>777.6</ele>
        <time>2025-09-20T12:20:46Z</time>
      </trkpt>
      <trkpt lat="46.24349" lon="4.49286">
        <ele>777.6</ele>
        <time>2025-09-20T12:20:47Z</time>
      </trkpt>
      <trkpt lat="46.24349" lon="4.49285">
        <ele>777.6</ele>
        <time>2025-09-20T12:20:48Z</time>
      </trkpt>
      <trkpt lat="46.24349" lon="4.49283">
        <ele>778.2</ele>
        <time>2025-09-20T12:20:49Z</time>
      </trkpt>
      <trkpt lat="46.24349" lon="4.49282">
        <ele>778.2</ele>
        <time>2025-09-20T12:20:50Z</time>
      </trkpt>
      <trkpt lat="46.24349" lon="4.49281">
        <ele>778.4</ele>
        <time>2025-09-20T12:20:51Z</time>
      </trkpt>
      <trkpt lat="46.24348" lon="4.49279">
        <ele>778.4</ele>
        <time>2025-09-20T12:20:52Z</time>
      </trkpt>
      <trkpt lat="46.24348" lon="4.49278">
        <ele>778.6</ele>
        <time>2025-09-20T12:20:53Z</time>
      </trkpt>
      <trkpt lat="46.24348" lon="4.49277">
        <ele>778.8</ele>
        <time>2025-09-20T12:20:54Z</time>
      </trkpt>
      <trkpt lat="46.24348" lon="4.49276">
        <ele>779</ele>
        <time>2025-09-20T12:20:55Z</time>
      </trkpt>
      <trkpt lat="46.24348" lon="4.49275">
        <ele>779</ele>
        <time>2025-09-20T12:20:56Z</time>
      </trkpt>
      <trkpt lat="46.24347" lon="4.49274">
        <ele>779.4</ele>
        <time>2025-09-20T12:20:57Z</time>
      </trkpt>
      <trkpt lat="46.24347" lon="4.49272">
        <ele>779.8</ele>
        <time>2025-09-20T12:20:58Z</time>
      </trkpt>
      <trkpt lat="46.24348" lon="4.49271">
        <ele>780</ele>
        <time>2025-09-20T12:20:59Z</time>
      </trkpt>
      <trkpt lat="46.24348" lon="4.4927">
        <ele>780</ele>
        <time>2025-09-20T12:21:00Z</time>
      </trkpt>
      <trkpt lat="46.24348" lon="4.49268">
        <ele>780</ele>
        <time>2025-09-20T12:21:01Z</time>
      </trkpt>
      <trkpt lat="46.24348" lon="4.49267">
        <ele>780.2</ele>
        <time>2025-09-20T12:21:02Z</time>
      </trkpt>
      <trkpt lat="46.24347" lon="4.49266">
        <ele>780.2</ele>
        <time>2025-09-20T12:21:03Z</time>
      </trkpt>
      <trkpt lat="46.24347" lon="4.49265">
        <ele>780.6</ele>
        <time>2025-09-20T12:21:04Z</time>
      </trkpt>
      <trkpt lat="46.24347" lon="4.49264">
        <ele>780.6</ele>
        <time>2025-09-20T12:21:05Z</time>
      </trkpt>
      <trkpt lat="46.24346" lon="4.49263">
        <ele>781</ele>
        <time>2025-09-20T12:21:06Z</time>
      </trkpt>
      <trkpt lat="46.24346" lon="4.49262">
        <ele>781</ele>
        <time>2025-09-20T12:21:07Z</time>
      </trkpt>
      <trkpt lat="46.24345" lon="4.49261">
        <ele>781.4</ele>
        <time>2025-09-20T12:21:08Z</time>
      </trkpt>
      <trkpt lat="46.24345" lon="4.4926">
        <ele>781.4</ele>
        <time>2025-09-20T12:21:09Z</time>
      </trkpt>
      <trkpt lat="46.24345" lon="4.4926">
        <ele>782</ele>
        <time>2025-09-20T12:21:10Z</time>
      </trkpt>
      <trkpt lat="46.24345" lon="4.49259">
        <ele>782</ele>
        <time>2025-09-20T12:21:11Z</time>
      </trkpt>
      <trkpt lat="46.24345" lon="4.49258">
        <ele>782.4</ele>
        <time>2025-09-20T12:21:12Z</time>
      </trkpt>
      <trkpt lat="46.24345" lon="4.49257">
        <ele>782.6</ele>
        <time>2025-09-20T12:21:13Z</time>
      </trkpt>
      <trkpt lat="46.24345" lon="4.49257">
        <ele>782.6</ele>
        <time>2025-09-20T12:21:14Z</time>
      </trkpt>
      <trkpt lat="46.24345" lon="4.49257">
        <ele>782.6</ele>
        <time>2025-09-20T12:21:15Z</time>
      </trkpt>
      <trkpt lat="46.24346" lon="4.49258">
        <ele>782.6</ele>
        <time>2025-09-20T12:21:16Z</time>
      </trkpt>
      <trkpt lat="46.24346" lon="4.49257">
        <ele>782.8</ele>
        <time>2025-09-20T12:21:17Z</time>
      </trkpt>
      <trkpt lat="46.24346" lon="4.49255">
        <ele>782.6</ele>
        <time>2025-09-20T12:21:23Z</time>
      </trkpt>
      <trkpt lat="46.24346" lon="4.49253">
        <ele>782.6</ele>
        <time>2025-09-20T12:21:24Z</time>
      </trkpt>
      <trkpt lat="46.24346" lon="4.49251">
        <ele>782.6</ele>
        <time>2025-09-20T12:21:25Z</time>
      </trkpt>
      <trkpt lat="46.24345" lon="4.4925">
        <ele>782.8</ele>
        <time>2025-09-20T12:21:26Z</time>
      </trkpt>
      <trkpt lat="46.24345" lon="4.4925">
        <ele>782.8</ele>
        <time>2025-09-20T12:21:27Z</time>
      </trkpt>
      <trkpt lat="46.24345" lon="4.49249">
        <ele>782.8</ele>
        <time>2025-09-20T12:21:28Z</time>
      </trkpt>
      <trkpt lat="46.24344" lon="4.49249">
        <ele>783</ele>
        <time>2025-09-20T12:21:29Z</time>
      </trkpt>
      <trkpt lat="46.24344" lon="4.49248">
        <ele>783</ele>
        <time>2025-09-20T12:21:30Z</time>
      </trkpt>
      <trkpt lat="46.24344" lon="4.49247">
        <ele>783</ele>
        <time>2025-09-20T12:21:31Z</time>
      </trkpt>
      <trkpt lat="46.24345" lon="4.49246">
        <ele>783</ele>
        <time>2025-09-20T12:21:32Z</time>
      </trkpt>
      <trkpt lat="46.24346" lon="4.49245">
        <ele>783.4</ele>
        <time>2025-09-20T12:21:33Z</time>
      </trkpt>
      <trkpt lat="46.24346" lon="4.49244">
        <ele>783.4</ele>
        <time>2025-09-20T12:21:34Z</time>
      </trkpt>
      <trkpt lat="46.24346" lon="4.49243">
        <ele>783.4</ele>
        <time>2025-09-20T12:21:35Z</time>
      </trkpt>
      <trkpt lat="46.24345" lon="4.49242">
        <ele>783.8</ele>
        <time>2025-09-20T12:21:36Z</time>
      </trkpt>
      <trkpt lat="46.24345" lon="4.4924">
        <ele>783.8</ele>
        <time>2025-09-20T12:21:37Z</time>
      </trkpt>
      <trkpt lat="46.24345" lon="4.49238">
        <ele>784</ele>
        <time>2025-09-20T12:21:38Z</time>
      </trkpt>
      <trkpt lat="46.24344" lon="4.49237">
        <ele>784</ele>
        <time>2025-09-20T12:21:39Z</time>
      </trkpt>
      <trkpt lat="46.24344" lon="4.49236">
        <ele>784.6</ele>
        <time>2025-09-20T12:21:40Z</time>
      </trkpt>
      <trkpt lat="46.24344" lon="4.49236">
        <ele>784</ele>
        <time>2025-09-20T12:21:41Z</time>
      </trkpt>
      <trkpt lat="46.24344" lon="4.49235">
        <ele>784.6</ele>
        <time>2025-09-20T12:21:42Z</time>
      </trkpt>
      <trkpt lat="46.24343" lon="4.49234">
        <ele>785</ele>
        <time>2025-09-20T12:21:43Z</time>
      </trkpt>
      <trkpt lat="46.24343" lon="4.49232">
        <ele>785.4</ele>
        <time>2025-09-20T12:21:44Z</time>
      </trkpt>
      <trkpt lat="46.24342" lon="4.4923">
        <ele>785.8</ele>
        <time>2025-09-20T12:21:45Z</time>
      </trkpt>
      <trkpt lat="46.24341" lon="4.49228">
        <ele>785.8</ele>
        <time>2025-09-20T12:21:46Z</time>
      </trkpt>
      <trkpt lat="46.24341" lon="4.49226">
        <ele>786</ele>
        <time>2025-09-20T12:21:47Z</time>
      </trkpt>
      <trkpt lat="46.2434" lon="4.49224">
        <ele>786</ele>
        <time>2025-09-20T12:21:48Z</time>
      </trkpt>
      <trkpt lat="46.24339" lon="4.49223">
        <ele>786.4</ele>
        <time>2025-09-20T12:21:49Z</time>
      </trkpt>
      <trkpt lat="46.24339" lon="4.49222">
        <ele>786.4</ele>
        <time>2025-09-20T12:21:50Z</time>
      </trkpt>
      <trkpt lat="46.24339" lon="4.49221">
        <ele>786.6</ele>
        <time>2025-09-20T12:21:51Z</time>
      </trkpt>
      <trkpt lat="46.24339" lon="4.49219">
        <ele>786.6</ele>
        <time>2025-09-20T12:21:52Z</time>
      </trkpt>
      <trkpt lat="46.24339" lon="4.49217">
        <ele>787</ele>
        <time>2025-09-20T12:21:53Z</time>
      </trkpt>
      <trkpt lat="46.2434" lon="4.49216">
        <ele>787</ele>
        <time>2025-09-20T12:21:54Z</time>
      </trkpt>
      <trkpt lat="46.24339" lon="4.49216">
        <ele>787.2</ele>
        <time>2025-09-20T12:21:55Z</time>
      </trkpt>
      <trkpt lat="46.24337" lon="4.49213">
        <ele>787.2</ele>
        <time>2025-09-20T12:22:01Z</time>
      </trkpt>
      <trkpt lat="46.24337" lon="4.49212">
        <ele>787.6</ele>
        <time>2025-09-20T12:22:02Z</time>
      </trkpt>
      <trkpt lat="46.24336" lon="4.4921">
        <ele>787.8</ele>
        <time>2025-09-20T12:22:03Z</time>
      </trkpt>
      <trkpt lat="46.24335" lon="4.49209">
        <ele>787.8</ele>
        <time>2025-09-20T12:22:04Z</time>
      </trkpt>
      <trkpt lat="46.24335" lon="4.49206">
        <ele>788</ele>
        <time>2025-09-20T12:22:05Z</time>
      </trkpt>
      <trkpt lat="46.24335" lon="4.49204">
        <ele>788.2</ele>
        <time>2025-09-20T12:22:06Z</time>
      </trkpt>
      <trkpt lat="46.24335" lon="4.49203">
        <ele>788.2</ele>
        <time>2025-09-20T12:22:07Z</time>
      </trkpt>
      <trkpt lat="46.24335" lon="4.49201">
        <ele>788.2</ele>
        <time>2025-09-20T12:22:08Z</time>
      </trkpt>
      <trkpt lat="46.24334" lon="4.492">
        <ele>788.2</ele>
        <time>2025-09-20T12:22:09Z</time>
      </trkpt>
      <trkpt lat="46.24334" lon="4.49199">
        <ele>788.2</ele>
        <time>2025-09-20T12:22:10Z</time>
      </trkpt>
      <trkpt lat="46.24333" lon="4.49198">
        <ele>788.2</ele>
        <time>2025-09-20T12:22:11Z</time>
      </trkpt>
      <trkpt lat="46.24332" lon="4.49198">
        <ele>788.6</ele>
        <time>2025-09-20T12:22:12Z</time>
      </trkpt>
      <trkpt lat="46.24331" lon="4.49197">
        <ele>788.6</ele>
        <time>2025-09-20T12:22:13Z</time>
      </trkpt>
      <trkpt lat="46.24331" lon="4.49197">
        <ele>788.8</ele>
        <time>2025-09-20T12:22:14Z</time>
      </trkpt>
      <trkpt lat="46.24331" lon="4.49196">
        <ele>788.8</ele>
        <time>2025-09-20T12:22:15Z</time>
      </trkpt>
      <trkpt lat="46.24331" lon="4.49197">
        <ele>788.8</ele>
        <time>2025-09-20T12:22:16Z</time>
      </trkpt>
      <trkpt lat="46.24331" lon="4.49195">
        <ele>789.4</ele>
        <time>2025-09-20T12:22:26Z</time>
      </trkpt>
      <trkpt lat="46.2433" lon="4.49193">
        <ele>789.8</ele>
        <time>2025-09-20T12:22:27Z</time>
      </trkpt>
      <trkpt lat="46.24329" lon="4.49191">
        <ele>789.8</ele>
        <time>2025-09-20T12:22:28Z</time>
      </trkpt>
      <trkpt lat="46.24329" lon="4.49189">
        <ele>790</ele>
        <time>2025-09-20T12:22:29Z</time>
      </trkpt>
      <trkpt lat="46.24328" lon="4.49186">
        <ele>789</ele>
        <time>2025-09-20T12:22:30Z</time>
      </trkpt>
      <trkpt lat="46.24327" lon="4.49184">
        <ele>789.2</ele>
        <time>2025-09-20T12:22:31Z</time>
      </trkpt>
      <trkpt lat="46.24326" lon="4.49182">
        <ele>789.4</ele>
        <time>2025-09-20T12:22:32Z</time>
      </trkpt>
      <trkpt lat="46.24325" lon="4.49181">
        <ele>789.8</ele>
        <time>2025-09-20T12:22:33Z</time>
      </trkpt>
      <trkpt lat="46.24324" lon="4.49179">
        <ele>790.2</ele>
        <time>2025-09-20T12:22:34Z</time>
      </trkpt>
      <trkpt lat="46.24322" lon="4.49178">
        <ele>790.2</ele>
        <time>2025-09-20T12:22:35Z</time>
      </trkpt>
      <trkpt lat="46.24321" lon="4.49176">
        <ele>790.6</ele>
        <time>2025-09-20T12:22:36Z</time>
      </trkpt>
      <trkpt lat="46.24319" lon="4.49175">
        <ele>790.6</ele>
        <time>2025-09-20T12:22:37Z</time>
      </trkpt>
      <trkpt lat="46.24318" lon="4.49173">
        <ele>791</ele>
        <time>2025-09-20T12:22:38Z</time>
      </trkpt>
      <trkpt lat="46.24317" lon="4.49171">
        <ele>790.6</ele>
        <time>2025-09-20T12:22:39Z</time>
      </trkpt>
      <trkpt lat="46.24316" lon="4.49168">
        <ele>790.6</ele>
        <time>2025-09-20T12:22:40Z</time>
      </trkpt>
      <trkpt lat="46.24315" lon="4.49166">
        <ele>791.2</ele>
        <time>2025-09-20T12:22:41Z</time>
      </trkpt>
      <trkpt lat="46.24314" lon="4.49164">
        <ele>791.2</ele>
        <time>2025-09-20T12:22:42Z</time>
      </trkpt>
      <trkpt lat="46.24313" lon="4.49162">
        <ele>791.2</ele>
        <time>2025-09-20T12:22:43Z</time>
      </trkpt>
      <trkpt lat="46.24313" lon="4.49161">
        <ele>791.2</ele>
        <time>2025-09-20T12:22:44Z</time>
      </trkpt>
      <trkpt lat="46.24313" lon="4.49159">
        <ele>791.4</ele>
        <time>2025-09-20T12:22:45Z</time>
      </trkpt>
      <trkpt lat="46.24312" lon="4.49156">
        <ele>791.8</ele>
        <time>2025-09-20T12:22:46Z</time>
      </trkpt>
      <trkpt lat="46.24312" lon="4.49153">
        <ele>791.8</ele>
        <time>2025-09-20T12:22:47Z</time>
      </trkpt>
      <trkpt lat="46.24312" lon="4.4915">
        <ele>792.2</ele>
        <time>2025-09-20T12:22:48Z</time>
      </trkpt>
      <trkpt lat="46.24311" lon="4.49147">
        <ele>792.6</ele>
        <time>2025-09-20T12:22:49Z</time>
      </trkpt>
      <trkpt lat="46.24311" lon="4.49144">
        <ele>792.4</ele>
        <time>2025-09-20T12:22:50Z</time>
      </trkpt>
      <trkpt lat="46.2431" lon="4.49142">
        <ele>792.6</ele>
        <time>2025-09-20T12:22:51Z</time>
      </trkpt>
      <trkpt lat="46.24309" lon="4.4914">
        <ele>792.8</ele>
        <time>2025-09-20T12:22:52Z</time>
      </trkpt>
      <trkpt lat="46.24309" lon="4.49137">
        <ele>792.6</ele>
        <time>2025-09-20T12:22:53Z</time>
      </trkpt>
      <trkpt lat="46.24308" lon="4.49135">
        <ele>792.6</ele>
        <time>2025-09-20T12:22:54Z</time>
      </trkpt>
      <trkpt lat="46.24308" lon="4.49133">
        <ele>793</ele>
        <time>2025-09-20T12:22:55Z</time>
      </trkpt>
      <trkpt lat="46.24308" lon="4.4913">
        <ele>793.2</ele>
        <time>2025-09-20T12:22:56Z</time>
      </trkpt>
      <trkpt lat="46.24309" lon="4.49127">
        <ele>793.2</ele>
        <time>2025-09-20T12:22:57Z</time>
      </trkpt>
      <trkpt lat="46.24309" lon="4.49125">
        <ele>793.6</ele>
        <time>2025-09-20T12:22:58Z</time>
      </trkpt>
      <trkpt lat="46.24309" lon="4.49121">
        <ele>793.8</ele>
        <time>2025-09-20T12:22:59Z</time>
      </trkpt>
      <trkpt lat="46.24309" lon="4.49118">
        <ele>793.8</ele>
        <time>2025-09-20T12:23:00Z</time>
      </trkpt>
      <trkpt lat="46.24309" lon="4.49115">
        <ele>793.8</ele>
        <time>2025-09-20T12:23:01Z</time>
      </trkpt>
      <trkpt lat="46.24309" lon="4.49112">
        <ele>793.8</ele>
        <time>2025-09-20T12:23:02Z</time>
      </trkpt>
      <trkpt lat="46.2431" lon="4.4911">
        <ele>793.8</ele>
        <time>2025-09-20T12:23:03Z</time>
      </trkpt>
      <trkpt lat="46.2431" lon="4.49107">
        <ele>794.4</ele>
        <time>2025-09-20T12:23:04Z</time>
      </trkpt>
      <trkpt lat="46.2431" lon="4.49105">
        <ele>794.4</ele>
        <time>2025-09-20T12:23:05Z</time>
      </trkpt>
      <trkpt lat="46.24311" lon="4.49102">
        <ele>794.4</ele>
        <time>2025-09-20T12:23:06Z</time>
      </trkpt>
      <trkpt lat="46.24312" lon="4.491">
        <ele>794.6</ele>
        <time>2025-09-20T12:23:07Z</time>
      </trkpt>
      <trkpt lat="46.24312" lon="4.49097">
        <ele>794.6</ele>
        <time>2025-09-20T12:23:08Z</time>
      </trkpt>
      <trkpt lat="46.24312" lon="4.49095">
        <ele>794</ele>
        <time>2025-09-20T12:23:09Z</time>
      </trkpt>
      <trkpt lat="46.24311" lon="4.49092">
        <ele>794</ele>
        <time>2025-09-20T12:23:10Z</time>
      </trkpt>
      <trkpt lat="46.24311" lon="4.4909">
        <ele>795.2</ele>
        <time>2025-09-20T12:23:11Z</time>
      </trkpt>
      <trkpt lat="46.2431" lon="4.49088">
        <ele>795.2</ele>
        <time>2025-09-20T12:23:12Z</time>
      </trkpt>
      <trkpt lat="46.2431" lon="4.49086">
        <ele>795.2</ele>
        <time>2025-09-20T12:23:13Z</time>
      </trkpt>
      <trkpt lat="46.2431" lon="4.49084">
        <ele>795.2</ele>
        <time>2025-09-20T12:23:14Z</time>
      </trkpt>
      <trkpt lat="46.24309" lon="4.49082">
        <ele>795.2</ele>
        <time>2025-09-20T12:23:15Z</time>
      </trkpt>
      <trkpt lat="46.24309" lon="4.49079">
        <ele>795.2</ele>
        <time>2025-09-20T12:23:16Z</time>
      </trkpt>
      <trkpt lat="46.24308" lon="4.49078">
        <ele>795.2</ele>
        <time>2025-09-20T12:23:17Z</time>
      </trkpt>
      <trkpt lat="46.24309" lon="4.49076">
        <ele>795.2</ele>
        <time>2025-09-20T12:23:18Z</time>
      </trkpt>
      <trkpt lat="46.24309" lon="4.49074">
        <ele>795.2</ele>
        <time>2025-09-20T12:23:19Z</time>
      </trkpt>
      <trkpt lat="46.24309" lon="4.49072">
        <ele>795.2</ele>
        <time>2025-09-20T12:23:20Z</time>
      </trkpt>
      <trkpt lat="46.24308" lon="4.49071">
        <ele>795.2</ele>
        <time>2025-09-20T12:23:21Z</time>
      </trkpt>
      <trkpt lat="46.24308" lon="4.49071">
        <ele>795.2</ele>
        <time>2025-09-20T12:23:22Z</time>
      </trkpt>
      <trkpt lat="46.24307" lon="4.49067">
        <ele>795.4</ele>
        <time>2025-09-20T12:24:21Z</time>
      </trkpt>
      <trkpt lat="46.24308" lon="4.49063">
        <ele>795.4</ele>
        <time>2025-09-20T12:24:22Z</time>
      </trkpt>
      <trkpt lat="46.24308" lon="4.49061">
        <ele>795.4</ele>
        <time>2025-09-20T12:24:23Z</time>
      </trkpt>
      <trkpt lat="46.24308" lon="4.49059">
        <ele>795</ele>
        <time>2025-09-20T12:24:24Z</time>
      </trkpt>
      <trkpt lat="46.24309" lon="4.49056">
        <ele>795</ele>
        <time>2025-09-20T12:24:25Z</time>
      </trkpt>
      <trkpt lat="46.24308" lon="4.49053">
        <ele>795</ele>
        <time>2025-09-20T12:24:26Z</time>
      </trkpt>
      <trkpt lat="46.24307" lon="4.49049">
        <ele>794.8</ele>
        <time>2025-09-20T12:24:27Z</time>
      </trkpt>
      <trkpt lat="46.24306" lon="4.49047">
        <ele>794.4</ele>
        <time>2025-09-20T12:24:28Z</time>
      </trkpt>
      <trkpt lat="46.24304" lon="4.49045">
        <ele>794.4</ele>
        <time>2025-09-20T12:24:29Z</time>
      </trkpt>
      <trkpt lat="46.24303" lon="4.49042">
        <ele>794</ele>
        <time>2025-09-20T12:24:30Z</time>
      </trkpt>
      <trkpt lat="46.24302" lon="4.49039">
        <ele>794</ele>
        <time>2025-09-20T12:24:31Z</time>
      </trkpt>
      <trkpt lat="46.24302" lon="4.49037">
        <ele>793.6</ele>
        <time>2025-09-20T12:24:32Z</time>
      </trkpt>
      <trkpt lat="46.24302" lon="4.49036">
        <ele>793.6</ele>
        <time>2025-09-20T12:24:33Z</time>
      </trkpt>
      <trkpt lat="46.24302" lon="4.49035">
        <ele>793.6</ele>
        <time>2025-09-20T12:24:34Z</time>
      </trkpt>
      <trkpt lat="46.24302" lon="4.49034">
        <ele>794</ele>
        <time>2025-09-20T12:24:35Z</time>
      </trkpt>
      <trkpt lat="46.24301" lon="4.49033">
        <ele>794</ele>
        <time>2025-09-20T12:24:36Z</time>
      </trkpt>
      <trkpt lat="46.243" lon="4.4903">
        <ele>793.6</ele>
        <time>2025-09-20T12:24:37Z</time>
      </trkpt>
      <trkpt lat="46.24299" lon="4.49027">
        <ele>793.2</ele>
        <time>2025-09-20T12:24:38Z</time>
      </trkpt>
      <trkpt lat="46.24298" lon="4.49025">
        <ele>792.4</ele>
        <time>2025-09-20T12:24:39Z</time>
      </trkpt>
      <trkpt lat="46.24296" lon="4.49022">
        <ele>792.4</ele>
        <time>2025-09-20T12:24:40Z</time>
      </trkpt>
      <trkpt lat="46.24295" lon="4.49019">
        <ele>792.6</ele>
        <time>2025-09-20T12:24:41Z</time>
      </trkpt>
      <trkpt lat="46.24293" lon="4.49017">
        <ele>792.6</ele>
        <time>2025-09-20T12:24:42Z</time>
      </trkpt>
      <trkpt lat="46.24292" lon="4.49014">
        <ele>792.6</ele>
        <time>2025-09-20T12:24:43Z</time>
      </trkpt>
      <trkpt lat="46.24291" lon="4.49012">
        <ele>792.4</ele>
        <time>2025-09-20T12:24:44Z</time>
      </trkpt>
      <trkpt lat="46.2429" lon="4.49009">
        <ele>792.2</ele>
        <time>2025-09-20T12:24:45Z</time>
      </trkpt>
      <trkpt lat="46.2429" lon="4.49006">
        <ele>792.2</ele>
        <time>2025-09-20T12:24:46Z</time>
      </trkpt>
      <trkpt lat="46.24289" lon="4.49004">
        <ele>792</ele>
        <time>2025-09-20T12:24:47Z</time>
      </trkpt>
      <trkpt lat="46.24289" lon="4.49002">
        <ele>792</ele>
        <time>2025-09-20T12:24:48Z</time>
      </trkpt>
      <trkpt lat="46.24289" lon="4.48999">
        <ele>792</ele>
        <time>2025-09-20T12:24:49Z</time>
      </trkpt>
      <trkpt lat="46.24289" lon="4.48997">
        <ele>791.6</ele>
        <time>2025-09-20T12:24:50Z</time>
      </trkpt>
      <trkpt lat="46.24289" lon="4.48995">
        <ele>791.6</ele>
        <time>2025-09-20T12:24:51Z</time>
      </trkpt>
      <trkpt lat="46.24289" lon="4.48993">
        <ele>791.6</ele>
        <time>2025-09-20T12:24:52Z</time>
      </trkpt>
      <trkpt lat="46.24288" lon="4.48992">
        <ele>791.6</ele>
        <time>2025-09-20T12:24:53Z</time>
      </trkpt>
      <trkpt lat="46.24287" lon="4.48991">
        <ele>791.4</ele>
        <time>2025-09-20T12:24:54Z</time>
      </trkpt>
      <trkpt lat="46.24287" lon="4.4899">
        <ele>791</ele>
        <time>2025-09-20T12:24:55Z</time>
      </trkpt>
      <trkpt lat="46.24286" lon="4.48989">
        <ele>791</ele>
        <time>2025-09-20T12:24:56Z</time>
      </trkpt>
      <trkpt lat="46.24285" lon="4.48988">
        <ele>791</ele>
        <time>2025-09-20T12:24:57Z</time>
      </trkpt>
      <trkpt lat="46.24285" lon="4.48986">
        <ele>790.8</ele>
        <time>2025-09-20T12:24:58Z</time>
      </trkpt>
      <trkpt lat="46.24284" lon="4.48984">
        <ele>790.8</ele>
        <time>2025-09-20T12:24:59Z</time>
      </trkpt>
      <trkpt lat="46.24284" lon="4.48981">
        <ele>790.8</ele>
        <time>2025-09-20T12:25:00Z</time>
      </trkpt>
      <trkpt lat="46.24283" lon="4.48979">
        <ele>790.6</ele>
        <time>2025-09-20T12:25:01Z</time>
      </trkpt>
      <trkpt lat="46.24282" lon="4.48975">
        <ele>789.6</ele>
        <time>2025-09-20T12:25:02Z</time>
      </trkpt>
      <trkpt lat="46.24281" lon="4.48971">
        <ele>789.4</ele>
        <time>2025-09-20T12:25:03Z</time>
      </trkpt>
      <trkpt lat="46.24279" lon="4.48967">
        <ele>789</ele>
        <time>2025-09-20T12:25:04Z</time>
      </trkpt>
      <trkpt lat="46.24277" lon="4.48964">
        <ele>788.4</ele>
        <time>2025-09-20T12:25:05Z</time>
      </trkpt>
      <trkpt lat="46.24275" lon="4.4896">
        <ele>788.4</ele>
        <time>2025-09-20T12:25:06Z</time>
      </trkpt>
      <trkpt lat="46.24273" lon="4.48957">
        <ele>788.4</ele>
        <time>2025-09-20T12:25:07Z</time>
      </trkpt>
      <trkpt lat="46.24271" lon="4.48953">
        <ele>788.4</ele>
        <time>2025-09-20T12:25:08Z</time>
      </trkpt>
      <trkpt lat="46.24269" lon="4.4895">
        <ele>787.8</ele>
        <time>2025-09-20T12:25:09Z</time>
      </trkpt>
      <trkpt lat="46.24267" lon="4.48946">
        <ele>787.8</ele>
        <time>2025-09-20T12:25:10Z</time>
      </trkpt>
      <trkpt lat="46.24266" lon="4.48944">
        <ele>788</ele>
        <time>2025-09-20T12:25:11Z</time>
      </trkpt>
      <trkpt lat="46.24265" lon="4.4894">
        <ele>787.4</ele>
        <time>2025-09-20T12:25:12Z</time>
      </trkpt>
      <trkpt lat="46.24263" lon="4.48935">
        <ele>787.4</ele>
        <time>2025-09-20T12:25:13Z</time>
      </trkpt>
      <trkpt lat="46.2426" lon="4.4893">
        <ele>787.4</ele>
        <time>2025-09-20T12:25:14Z</time>
      </trkpt>
      <trkpt lat="46.24258" lon="4.48926">
        <ele>787.4</ele>
        <time>2025-09-20T12:25:15Z</time>
      </trkpt>
      <trkpt lat="46.24255" lon="4.48922">
        <ele>787.4</ele>
        <time>2025-09-20T12:25:16Z</time>
      </trkpt>
      <trkpt lat="46.24253" lon="4.48917">
        <ele>787.2</ele>
        <time>2025-09-20T12:25:17Z</time>
      </trkpt>
      <trkpt lat="46.2425" lon="4.48912">
        <ele>787.4</ele>
        <time>2025-09-20T12:25:18Z</time>
      </trkpt>
      <trkpt lat="46.24248" lon="4.48908">
        <ele>787</ele>
        <time>2025-09-20T12:25:19Z</time>
      </trkpt>
      <trkpt lat="46.24244" lon="4.48904">
        <ele>787</ele>
        <time>2025-09-20T12:25:20Z</time>
      </trkpt>
      <trkpt lat="46.2424" lon="4.489">
        <ele>787</ele>
        <time>2025-09-20T12:25:21Z</time>
      </trkpt>
      <trkpt lat="46.24237" lon="4.48897">
        <ele>786.6</ele>
        <time>2025-09-20T12:25:22Z</time>
      </trkpt>
      <trkpt lat="46.24234" lon="4.48894">
        <ele>786.6</ele>
        <time>2025-09-20T12:25:23Z</time>
      </trkpt>
      <trkpt lat="46.24231" lon="4.4889">
        <ele>786.6</ele>
        <time>2025-09-20T12:25:24Z</time>
      </trkpt>
      <trkpt lat="46.24228" lon="4.48885">
        <ele>786.6</ele>
        <time>2025-09-20T12:25:25Z</time>
      </trkpt>
      <trkpt lat="46.24226" lon="4.4888">
        <ele>787</ele>
        <time>2025-09-20T12:25:26Z</time>
      </trkpt>
      <trkpt lat="46.24224" lon="4.48877">
        <ele>787</ele>
        <time>2025-09-20T12:25:27Z</time>
      </trkpt>
      <trkpt lat="46.24223" lon="4.48874">
        <ele>787</ele>
        <time>2025-09-20T12:25:28Z</time>
      </trkpt>
      <trkpt lat="46.24221" lon="4.4887">
        <ele>786.4</ele>
        <time>2025-09-20T12:25:29Z</time>
      </trkpt>
      <trkpt lat="46.24218" lon="4.48864">
        <ele>786.8</ele>
        <time>2025-09-20T12:25:30Z</time>
      </trkpt>
      <trkpt lat="46.24216" lon="4.48859">
        <ele>786.8</ele>
        <time>2025-09-20T12:25:31Z</time>
      </trkpt>
      <trkpt lat="46.24213" lon="4.48854">
        <ele>786.8</ele>
        <time>2025-09-20T12:25:32Z</time>
      </trkpt>
      <trkpt lat="46.24211" lon="4.4885">
        <ele>786.8</ele>
        <time>2025-09-20T12:25:33Z</time>
      </trkpt>
      <trkpt lat="46.24209" lon="4.48847">
        <ele>786.8</ele>
        <time>2025-09-20T12:25:34Z</time>
      </trkpt>
      <trkpt lat="46.24207" lon="4.48844">
        <ele>786.6</ele>
        <time>2025-09-20T12:25:35Z</time>
      </trkpt>
      <trkpt lat="46.24205" lon="4.4884">
        <ele>786.6</ele>
        <time>2025-09-20T12:25:36Z</time>
      </trkpt>
      <trkpt lat="46.24202" lon="4.48835">
        <ele>786.2</ele>
        <time>2025-09-20T12:25:37Z</time>
      </trkpt>
      <trkpt lat="46.24199" lon="4.48831">
        <ele>785.8</ele>
        <time>2025-09-20T12:25:38Z</time>
      </trkpt>
      <trkpt lat="46.24197" lon="4.48826">
        <ele>785.8</ele>
        <time>2025-09-20T12:25:39Z</time>
      </trkpt>
      <trkpt lat="46.24195" lon="4.48821">
        <ele>785.4</ele>
        <time>2025-09-20T12:25:40Z</time>
      </trkpt>
      <trkpt lat="46.24193" lon="4.48817">
        <ele>785.6</ele>
        <time>2025-09-20T12:25:41Z</time>
      </trkpt>
      <trkpt lat="46.2419" lon="4.48813">
        <ele>785.6</ele>
        <time>2025-09-20T12:25:42Z</time>
      </trkpt>
      <trkpt lat="46.24188" lon="4.4881">
        <ele>785.6</ele>
        <time>2025-09-20T12:25:43Z</time>
      </trkpt>
      <trkpt lat="46.24186" lon="4.48807">
        <ele>786.2</ele>
        <time>2025-09-20T12:25:44Z</time>
      </trkpt>
      <trkpt lat="46.24183" lon="4.48803">
        <ele>786.6</ele>
        <time>2025-09-20T12:25:45Z</time>
      </trkpt>
      <trkpt lat="46.24181" lon="4.48799">
        <ele>786.6</ele>
        <time>2025-09-20T12:25:46Z</time>
      </trkpt>
      <trkpt lat="46.2418" lon="4.48796">
        <ele>786.8</ele>
        <time>2025-09-20T12:25:47Z</time>
      </trkpt>
      <trkpt lat="46.24178" lon="4.48793">
        <ele>786.8</ele>
        <time>2025-09-20T12:25:48Z</time>
      </trkpt>
      <trkpt lat="46.24176" lon="4.48789">
        <ele>787</ele>
        <time>2025-09-20T12:25:49Z</time>
      </trkpt>
      <trkpt lat="46.24174" lon="4.48786">
        <ele>787.8</ele>
        <time>2025-09-20T12:25:50Z</time>
      </trkpt>
      <trkpt lat="46.24172" lon="4.48781">
        <ele>788.2</ele>
        <time>2025-09-20T12:25:51Z</time>
      </trkpt>
      <trkpt lat="46.2417" lon="4.48777">
        <ele>788.2</ele>
        <time>2025-09-20T12:25:52Z</time>
      </trkpt>
      <trkpt lat="46.24169" lon="4.48773">
        <ele>788.2</ele>
        <time>2025-09-20T12:25:53Z</time>
      </trkpt>
      <trkpt lat="46.24166" lon="4.48767">
        <ele>788.2</ele>
        <time>2025-09-20T12:25:54Z</time>
      </trkpt>
      <trkpt lat="46.24164" lon="4.48763">
        <ele>788.8</ele>
        <time>2025-09-20T12:25:55Z</time>
      </trkpt>
      <trkpt lat="46.24162" lon="4.4876">
        <ele>788.8</ele>
        <time>2025-09-20T12:25:56Z</time>
      </trkpt>
      <trkpt lat="46.24159" lon="4.48757">
        <ele>788.8</ele>
        <time>2025-09-20T12:25:57Z</time>
      </trkpt>
      <trkpt lat="46.24156" lon="4.48755">
        <ele>788.8</ele>
        <time>2025-09-20T12:25:58Z</time>
      </trkpt>
      <trkpt lat="46.24153" lon="4.48751">
        <ele>789.2</ele>
        <time>2025-09-20T12:25:59Z</time>
      </trkpt>
      <trkpt lat="46.24149" lon="4.48744">
        <ele>789.2</ele>
        <time>2025-09-20T12:26:00Z</time>
      </trkpt>
      <trkpt lat="46.24146" lon="4.48741">
        <ele>788.8</ele>
        <time>2025-09-20T12:26:01Z</time>
      </trkpt>
      <trkpt lat="46.24144" lon="4.48738">
        <ele>788.8</ele>
        <time>2025-09-20T12:26:02Z</time>
      </trkpt>
      <trkpt lat="46.24142" lon="4.48736">
        <ele>789.4</ele>
        <time>2025-09-20T12:26:03Z</time>
      </trkpt>
      <trkpt lat="46.24139" lon="4.48734">
        <ele>789</ele>
        <time>2025-09-20T12:26:04Z</time>
      </trkpt>
      <trkpt lat="46.24137" lon="4.48732">
        <ele>789.4</ele>
        <time>2025-09-20T12:26:05Z</time>
      </trkpt>
      <trkpt lat="46.24135" lon="4.4873">
        <ele>789.8</ele>
        <time>2025-09-20T12:26:06Z</time>
      </trkpt>
      <trkpt lat="46.24134" lon="4.48729">
        <ele>789.8</ele>
        <time>2025-09-20T12:26:07Z</time>
      </trkpt>
      <trkpt lat="46.24133" lon="4.48726">
        <ele>789.8</ele>
        <time>2025-09-20T12:26:08Z</time>
      </trkpt>
      <trkpt lat="46.2413" lon="4.48722">
        <ele>789.8</ele>
        <time>2025-09-20T12:26:09Z</time>
      </trkpt>
      <trkpt lat="46.24128" lon="4.4872">
        <ele>790.2</ele>
        <time>2025-09-20T12:26:10Z</time>
      </trkpt>
      <trkpt lat="46.24125" lon="4.48718">
        <ele>790.2</ele>
        <time>2025-09-20T12:26:11Z</time>
      </trkpt>
      <trkpt lat="46.24123" lon="4.48716">
        <ele>790.2</ele>
        <time>2025-09-20T12:26:12Z</time>
      </trkpt>
      <trkpt lat="46.2412" lon="4.48714">
        <ele>790.2</ele>
        <time>2025-09-20T12:26:13Z</time>
      </trkpt>
      <trkpt lat="46.24117" lon="4.48712">
        <ele>789.8</ele>
        <time>2025-09-20T12:26:14Z</time>
      </trkpt>
      <trkpt lat="46.24115" lon="4.48709">
        <ele>789.6</ele>
        <time>2025-09-20T12:26:15Z</time>
      </trkpt>
      <trkpt lat="46.24112" lon="4.48707">
        <ele>790</ele>
        <time>2025-09-20T12:26:16Z</time>
      </trkpt>
      <trkpt lat="46.24108" lon="4.48704">
        <ele>789.2</ele>
        <time>2025-09-20T12:26:17Z</time>
      </trkpt>
      <trkpt lat="46.24106" lon="4.48702">
        <ele>789.2</ele>
        <time>2025-09-20T12:26:18Z</time>
      </trkpt>
      <trkpt lat="46.24103" lon="4.48699">
        <ele>789.2</ele>
        <time>2025-09-20T12:26:19Z</time>
      </trkpt>
      <trkpt lat="46.241" lon="4.48696">
        <ele>789.2</ele>
        <time>2025-09-20T12:26:20Z</time>
      </trkpt>
      <trkpt lat="46.24097" lon="4.48695">
        <ele>789.2</ele>
        <time>2025-09-20T12:26:21Z</time>
      </trkpt>
      <trkpt lat="46.24095" lon="4.48693">
        <ele>789.2</ele>
        <time>2025-09-20T12:26:22Z</time>
      </trkpt>
      <trkpt lat="46.24092" lon="4.4869">
        <ele>789</ele>
        <time>2025-09-20T12:26:23Z</time>
      </trkpt>
      <trkpt lat="46.24089" lon="4.48689">
        <ele>788.6</ele>
        <time>2025-09-20T12:26:24Z</time>
      </trkpt>
      <trkpt lat="46.24086" lon="4.48687">
        <ele>788</ele>
        <time>2025-09-20T12:26:25Z</time>
      </trkpt>
      <trkpt lat="46.24084" lon="4.48685">
        <ele>788.4</ele>
        <time>2025-09-20T12:26:26Z</time>
      </trkpt>
      <trkpt lat="46.2408" lon="4.48683">
        <ele>788.4</ele>
        <time>2025-09-20T12:26:27Z</time>
      </trkpt>
      <trkpt lat="46.24078" lon="4.48682">
        <ele>788.2</ele>
        <time>2025-09-20T12:26:28Z</time>
      </trkpt>
      <trkpt lat="46.24076" lon="4.48681">
        <ele>788.2</ele>
        <time>2025-09-20T12:26:29Z</time>
      </trkpt>
      <trkpt lat="46.24074" lon="4.4868">
        <ele>788.2</ele>
        <time>2025-09-20T12:26:30Z</time>
      </trkpt>
      <trkpt lat="46.24071" lon="4.48678">
        <ele>788.4</ele>
        <time>2025-09-20T12:26:31Z</time>
      </trkpt>
      <trkpt lat="46.24068" lon="4.48676">
        <ele>788.4</ele>
        <time>2025-09-20T12:26:32Z</time>
      </trkpt>
      <trkpt lat="46.24065" lon="4.48674">
        <ele>788.4</ele>
        <time>2025-09-20T12:26:33Z</time>
      </trkpt>
      <trkpt lat="46.24061" lon="4.48671">
        <ele>788.2</ele>
        <time>2025-09-20T12:26:34Z</time>
      </trkpt>
      <trkpt lat="46.24056" lon="4.48668">
        <ele>787.8</ele>
        <time>2025-09-20T12:26:35Z</time>
      </trkpt>
      <trkpt lat="46.24051" lon="4.48665">
        <ele>787.8</ele>
        <time>2025-09-20T12:26:36Z</time>
      </trkpt>
      <trkpt lat="46.24047" lon="4.48663">
        <ele>787.8</ele>
        <time>2025-09-20T12:26:37Z</time>
      </trkpt>
      <trkpt lat="46.24044" lon="4.4866">
        <ele>787.8</ele>
        <time>2025-09-20T12:26:38Z</time>
      </trkpt>
      <trkpt lat="46.2404" lon="4.48658">
        <ele>786.4</ele>
        <time>2025-09-20T12:26:39Z</time>
      </trkpt>
      <trkpt lat="46.24035" lon="4.48656">
        <ele>786</ele>
        <time>2025-09-20T12:26:40Z</time>
      </trkpt>
      <trkpt lat="46.24031" lon="4.48655">
        <ele>786.4</ele>
        <time>2025-09-20T12:26:41Z</time>
      </trkpt>
      <trkpt lat="46.24026" lon="4.48652">
        <ele>786</ele>
        <time>2025-09-20T12:26:42Z</time>
      </trkpt>
      <trkpt lat="46.24021" lon="4.4865">
        <ele>785.4</ele>
        <time>2025-09-20T12:26:43Z</time>
      </trkpt>
      <trkpt lat="46.24017" lon="4.48649">
        <ele>784.6</ele>
        <time>2025-09-20T12:26:44Z</time>
      </trkpt>
      <trkpt lat="46.24014" lon="4.48651">
        <ele>784.6</ele>
        <time>2025-09-20T12:26:45Z</time>
      </trkpt>
      <trkpt lat="46.24011" lon="4.48649">
        <ele>784.4</ele>
        <time>2025-09-20T12:26:46Z</time>
      </trkpt>
      <trkpt lat="46.24008" lon="4.48647">
        <ele>784</ele>
        <time>2025-09-20T12:26:47Z</time>
      </trkpt>
      <trkpt lat="46.24006" lon="4.48646">
        <ele>783.6</ele>
        <time>2025-09-20T12:26:48Z</time>
      </trkpt>
      <trkpt lat="46.24006" lon="4.48645">
        <ele>783.6</ele>
        <time>2025-09-20T12:26:49Z</time>
      </trkpt>
      <trkpt lat="46.24003" lon="4.48646">
        <ele>783.2</ele>
        <time>2025-09-20T12:26:50Z</time>
      </trkpt>
      <trkpt lat="46.24001" lon="4.48644">
        <ele>783</ele>
        <time>2025-09-20T12:26:51Z</time>
      </trkpt>
      <trkpt lat="46.23999" lon="4.48642">
        <ele>783</ele>
        <time>2025-09-20T12:26:52Z</time>
      </trkpt>
      <trkpt lat="46.23999" lon="4.48641">
        <ele>783</ele>
        <time>2025-09-20T12:26:53Z</time>
      </trkpt>
      <trkpt lat="46.23999" lon="4.4864">
        <ele>783</ele>
        <time>2025-09-20T12:26:54Z</time>
      </trkpt>
      <trkpt lat="46.24" lon="4.4864">
        <ele>783</ele>
        <time>2025-09-20T12:26:55Z</time>
      </trkpt>
      <trkpt lat="46.24" lon="4.48634">
        <ele>783.4</ele>
        <time>2025-09-20T12:27:27Z</time>
      </trkpt>
      <trkpt lat="46.23999" lon="4.48634">
        <ele>783.4</ele>
        <time>2025-09-20T12:27:28Z</time>
      </trkpt>
      <trkpt lat="46.23998" lon="4.48633">
        <ele>783.4</ele>
        <time>2025-09-20T12:27:29Z</time>
      </trkpt>
      <trkpt lat="46.23996" lon="4.48633">
        <ele>783</ele>
        <time>2025-09-20T12:27:30Z</time>
      </trkpt>
      <trkpt lat="46.23995" lon="4.48632">
        <ele>783</ele>
        <time>2025-09-20T12:27:31Z</time>
      </trkpt>
      <trkpt lat="46.23994" lon="4.48632">
        <ele>782.8</ele>
        <time>2025-09-20T12:27:32Z</time>
      </trkpt>
      <trkpt lat="46.23992" lon="4.48633">
        <ele>782.8</ele>
        <time>2025-09-20T12:27:33Z</time>
      </trkpt>
      <trkpt lat="46.23992" lon="4.48633">
        <ele>782.6</ele>
        <time>2025-09-20T12:27:34Z</time>
      </trkpt>
      <trkpt lat="46.23991" lon="4.48632">
        <ele>782.6</ele>
        <time>2025-09-20T12:27:35Z</time>
      </trkpt>
      <trkpt lat="46.23987" lon="4.48627">
        <ele>782.2</ele>
        <time>2025-09-20T12:27:42Z</time>
      </trkpt>
      <trkpt lat="46.23986" lon="4.48627">
        <ele>782</ele>
        <time>2025-09-20T12:27:43Z</time>
      </trkpt>
      <trkpt lat="46.23985" lon="4.48626">
        <ele>782</ele>
        <time>2025-09-20T12:27:44Z</time>
      </trkpt>
      <trkpt lat="46.23983" lon="4.48625">
        <ele>781.6</ele>
        <time>2025-09-20T12:27:45Z</time>
      </trkpt>
      <trkpt lat="46.23982" lon="4.48625">
        <ele>781.2</ele>
        <time>2025-09-20T12:27:46Z</time>
      </trkpt>
      <trkpt lat="46.23981" lon="4.48625">
        <ele>781</ele>
        <time>2025-09-20T12:27:47Z</time>
      </trkpt>
      <trkpt lat="46.2398" lon="4.48626">
        <ele>780.6</ele>
        <time>2025-09-20T12:27:48Z</time>
      </trkpt>
      <trkpt lat="46.23979" lon="4.48626">
        <ele>780.8</ele>
        <time>2025-09-20T12:27:49Z</time>
      </trkpt>
      <trkpt lat="46.23978" lon="4.48626">
        <ele>780.8</ele>
        <time>2025-09-20T12:27:50Z</time>
      </trkpt>
      <trkpt lat="46.23976" lon="4.48625">
        <ele>780</ele>
        <time>2025-09-20T12:27:51Z</time>
      </trkpt>
      <trkpt lat="46.23972" lon="4.48623">
        <ele>779.8</ele>
        <time>2025-09-20T12:27:52Z</time>
      </trkpt>
      <trkpt lat="46.23969" lon="4.48623">
        <ele>779.2</ele>
        <time>2025-09-20T12:27:53Z</time>
      </trkpt>
      <trkpt lat="46.23965" lon="4.48622">
        <ele>779</ele>
        <time>2025-09-20T12:27:54Z</time>
      </trkpt>
      <trkpt lat="46.23962" lon="4.48622">
        <ele>778.6</ele>
        <time>2025-09-20T12:27:55Z</time>
      </trkpt>
      <trkpt lat="46.23959" lon="4.48621">
        <ele>778.2</ele>
        <time>2025-09-20T12:27:56Z</time>
      </trkpt>
      <trkpt lat="46.23956" lon="4.4862">
        <ele>778</ele>
        <time>2025-09-20T12:27:57Z</time>
      </trkpt>
      <trkpt lat="46.23952" lon="4.48619">
        <ele>777.6</ele>
        <time>2025-09-20T12:27:58Z</time>
      </trkpt>
      <trkpt lat="46.2395" lon="4.48618">
        <ele>777.2</ele>
        <time>2025-09-20T12:27:59Z</time>
      </trkpt>
      <trkpt lat="46.23947" lon="4.48617">
        <ele>776.6</ele>
        <time>2025-09-20T12:28:00Z</time>
      </trkpt>
      <trkpt lat="46.23944" lon="4.48616">
        <ele>776.6</ele>
        <time>2025-09-20T12:28:01Z</time>
      </trkpt>
      <trkpt lat="46.23941" lon="4.48615">
        <ele>776.6</ele>
        <time>2025-09-20T12:28:02Z</time>
      </trkpt>
      <trkpt lat="46.23934" lon="4.48613">
        <ele>776</ele>
        <time>2025-09-20T12:28:03Z</time>
      </trkpt>
      <trkpt lat="46.2393" lon="4.48613">
        <ele>775.6</ele>
        <time>2025-09-20T12:28:04Z</time>
      </trkpt>
      <trkpt lat="46.23926" lon="4.48612">
        <ele>774.8</ele>
        <time>2025-09-20T12:28:05Z</time>
      </trkpt>
      <trkpt lat="46.23923" lon="4.48612">
        <ele>774</ele>
        <time>2025-09-20T12:28:06Z</time>
      </trkpt>
      <trkpt lat="46.2392" lon="4.48611">
        <ele>773.6</ele>
        <time>2025-09-20T12:28:07Z</time>
      </trkpt>
      <trkpt lat="46.23917" lon="4.48613">
        <ele>772.8</ele>
        <time>2025-09-20T12:28:08Z</time>
      </trkpt>
      <trkpt lat="46.23913" lon="4.48614">
        <ele>772</ele>
        <time>2025-09-20T12:28:09Z</time>
      </trkpt>
      <trkpt lat="46.23911" lon="4.48614">
        <ele>772</ele>
        <time>2025-09-20T12:28:10Z</time>
      </trkpt>
      <trkpt lat="46.23908" lon="4.48614">
        <ele>771.8</ele>
        <time>2025-09-20T12:28:11Z</time>
      </trkpt>
      <trkpt lat="46.23905" lon="4.48615">
        <ele>771</ele>
        <time>2025-09-20T12:28:12Z</time>
      </trkpt>
      <trkpt lat="46.239" lon="4.48617">
        <ele>770.4</ele>
        <time>2025-09-20T12:28:13Z</time>
      </trkpt>
      <trkpt lat="46.23895" lon="4.48619">
        <ele>769.6</ele>
        <time>2025-09-20T12:28:14Z</time>
      </trkpt>
      <trkpt lat="46.23891" lon="4.48622">
        <ele>769.4</ele>
        <time>2025-09-20T12:28:15Z</time>
      </trkpt>
      <trkpt lat="46.23886" lon="4.48623">
        <ele>769</ele>
        <time>2025-09-20T12:28:16Z</time>
      </trkpt>
      <trkpt lat="46.23881" lon="4.48623">
        <ele>769.4</ele>
        <time>2025-09-20T12:28:17Z</time>
      </trkpt>
      <trkpt lat="46.23878" lon="4.48625">
        <ele>768.6</ele>
        <time>2025-09-20T12:28:18Z</time>
      </trkpt>
      <trkpt lat="46.23875" lon="4.48628">
        <ele>768</ele>
        <time>2025-09-20T12:28:19Z</time>
      </trkpt>
      <trkpt lat="46.23871" lon="4.4863">
        <ele>767.4</ele>
        <time>2025-09-20T12:28:20Z</time>
      </trkpt>
      <trkpt lat="46.23867" lon="4.48634">
        <ele>766.8</ele>
        <time>2025-09-20T12:28:21Z</time>
      </trkpt>
      <trkpt lat="46.23864" lon="4.48635">
        <ele>766.2</ele>
        <time>2025-09-20T12:28:22Z</time>
      </trkpt>
      <trkpt lat="46.23859" lon="4.48637">
        <ele>766</ele>
        <time>2025-09-20T12:28:23Z</time>
      </trkpt>
      <trkpt lat="46.23856" lon="4.48637">
        <ele>765.6</ele>
        <time>2025-09-20T12:28:24Z</time>
      </trkpt>
      <trkpt lat="46.23852" lon="4.48637">
        <ele>765.4</ele>
        <time>2025-09-20T12:28:25Z</time>
      </trkpt>
      <trkpt lat="46.23847" lon="4.48638">
        <ele>765.6</ele>
        <time>2025-09-20T12:28:26Z</time>
      </trkpt>
      <trkpt lat="46.23842" lon="4.4864">
        <ele>765</ele>
        <time>2025-09-20T12:28:27Z</time>
      </trkpt>
      <trkpt lat="46.23837" lon="4.48641">
        <ele>764</ele>
        <time>2025-09-20T12:28:28Z</time>
      </trkpt>
      <trkpt lat="46.23833" lon="4.48644">
        <ele>764</ele>
        <time>2025-09-20T12:28:29Z</time>
      </trkpt>
      <trkpt lat="46.23828" lon="4.48646">
        <ele>763.2</ele>
        <time>2025-09-20T12:28:30Z</time>
      </trkpt>
      <trkpt lat="46.23824" lon="4.48648">
        <ele>762.4</ele>
        <time>2025-09-20T12:28:31Z</time>
      </trkpt>
      <trkpt lat="46.2382" lon="4.48649">
        <ele>761.8</ele>
        <time>2025-09-20T12:28:32Z</time>
      </trkpt>
      <trkpt lat="46.23816" lon="4.48651">
        <ele>761</ele>
        <time>2025-09-20T12:28:33Z</time>
      </trkpt>
      <trkpt lat="46.23812" lon="4.48653">
        <ele>760.4</ele>
        <time>2025-09-20T12:28:34Z</time>
      </trkpt>
      <trkpt lat="46.23808" lon="4.48656">
        <ele>759.4</ele>
        <time>2025-09-20T12:28:35Z</time>
      </trkpt>
      <trkpt lat="46.23805" lon="4.48658">
        <ele>759.4</ele>
        <time>2025-09-20T12:28:36Z</time>
      </trkpt>
      <trkpt lat="46.23801" lon="4.48659">
        <ele>759.2</ele>
        <time>2025-09-20T12:28:37Z</time>
      </trkpt>
      <trkpt lat="46.23797" lon="4.48662">
        <ele>758.6</ele>
        <time>2025-09-20T12:28:38Z</time>
      </trkpt>
      <trkpt lat="46.23794" lon="4.48665">
        <ele>758.2</ele>
        <time>2025-09-20T12:28:39Z</time>
      </trkpt>
      <trkpt lat="46.2379" lon="4.48666">
        <ele>757.8</ele>
        <time>2025-09-20T12:28:40Z</time>
      </trkpt>
      <trkpt lat="46.23788" lon="4.48667">
        <ele>757</ele>
        <time>2025-09-20T12:28:41Z</time>
      </trkpt>
      <trkpt lat="46.23785" lon="4.48668">
        <ele>756.6</ele>
        <time>2025-09-20T12:28:42Z</time>
      </trkpt>
      <trkpt lat="46.23783" lon="4.48667">
        <ele>756.2</ele>
        <time>2025-09-20T12:28:43Z</time>
      </trkpt>
      <trkpt lat="46.23783" lon="4.48669">
        <ele>755.8</ele>
        <time>2025-09-20T12:28:44Z</time>
      </trkpt>
      <trkpt lat="46.23783" lon="4.48669">
        <ele>755.6</ele>
        <time>2025-09-20T12:28:45Z</time>
      </trkpt>
      <trkpt lat="46.23783" lon="4.48669">
        <ele>755.2</ele>
        <time>2025-09-20T12:28:46Z</time>
      </trkpt>
      <trkpt lat="46.2378" lon="4.48669">
        <ele>754</ele>
        <time>2025-09-20T12:28:58Z</time>
      </trkpt>
      <trkpt lat="46.23779" lon="4.4867">
        <ele>753.8</ele>
        <time>2025-09-20T12:28:59Z</time>
      </trkpt>
      <trkpt lat="46.23777" lon="4.48671">
        <ele>753.8</ele>
        <time>2025-09-20T12:29:00Z</time>
      </trkpt>
      <trkpt lat="46.23773" lon="4.48672">
        <ele>753.4</ele>
        <time>2025-09-20T12:29:01Z</time>
      </trkpt>
      <trkpt lat="46.2377" lon="4.48672">
        <ele>753</ele>
        <time>2025-09-20T12:29:02Z</time>
      </trkpt>
      <trkpt lat="46.23767" lon="4.48673">
        <ele>751</ele>
        <time>2025-09-20T12:29:03Z</time>
      </trkpt>
      <trkpt lat="46.23763" lon="4.48675">
        <ele>751.2</ele>
        <time>2025-09-20T12:29:04Z</time>
      </trkpt>
      <trkpt lat="46.2376" lon="4.48677">
        <ele>751.2</ele>
        <time>2025-09-20T12:29:05Z</time>
      </trkpt>
      <trkpt lat="46.23757" lon="4.48678">
        <ele>750.8</ele>
        <time>2025-09-20T12:29:06Z</time>
      </trkpt>
      <trkpt lat="46.23753" lon="4.48678">
        <ele>750</ele>
        <time>2025-09-20T12:29:07Z</time>
      </trkpt>
      <trkpt lat="46.23751" lon="4.48678">
        <ele>750.2</ele>
        <time>2025-09-20T12:29:08Z</time>
      </trkpt>
      <trkpt lat="46.23748" lon="4.48676">
        <ele>749.6</ele>
        <time>2025-09-20T12:29:09Z</time>
      </trkpt>
      <trkpt lat="46.23744" lon="4.48675">
        <ele>749.2</ele>
        <time>2025-09-20T12:29:10Z</time>
      </trkpt>
      <trkpt lat="46.23741" lon="4.48674">
        <ele>748.8</ele>
        <time>2025-09-20T12:29:11Z</time>
      </trkpt>
      <trkpt lat="46.23735" lon="4.48676">
        <ele>748.6</ele>
        <time>2025-09-20T12:29:12Z</time>
      </trkpt>
      <trkpt lat="46.23732" lon="4.48676">
        <ele>748.6</ele>
        <time>2025-09-20T12:29:13Z</time>
      </trkpt>
      <trkpt lat="46.23728" lon="4.48675">
        <ele>748.6</ele>
        <time>2025-09-20T12:29:14Z</time>
      </trkpt>
      <trkpt lat="46.23725" lon="4.48676">
        <ele>747.8</ele>
        <time>2025-09-20T12:29:15Z</time>
      </trkpt>
      <trkpt lat="46.23721" lon="4.48677">
        <ele>747.4</ele>
        <time>2025-09-20T12:29:16Z</time>
      </trkpt>
      <trkpt lat="46.23715" lon="4.48677">
        <ele>747.4</ele>
        <time>2025-09-20T12:29:17Z</time>
      </trkpt>
      <trkpt lat="46.2371" lon="4.48676">
        <ele>746.8</ele>
        <time>2025-09-20T12:29:18Z</time>
      </trkpt>
      <trkpt lat="46.23704" lon="4.48678">
        <ele>745.8</ele>
        <time>2025-09-20T12:29:19Z</time>
      </trkpt>
      <trkpt lat="46.23699" lon="4.48677">
        <ele>745.4</ele>
        <time>2025-09-20T12:29:20Z</time>
      </trkpt>
      <trkpt lat="46.23695" lon="4.48678">
        <ele>745</ele>
        <time>2025-09-20T12:29:21Z</time>
      </trkpt>
      <trkpt lat="46.23693" lon="4.48679">
        <ele>744.6</ele>
        <time>2025-09-20T12:29:22Z</time>
      </trkpt>
      <trkpt lat="46.23689" lon="4.48681">
        <ele>744.2</ele>
        <time>2025-09-20T12:29:23Z</time>
      </trkpt>
      <trkpt lat="46.23685" lon="4.48681">
        <ele>744</ele>
        <time>2025-09-20T12:29:24Z</time>
      </trkpt>
      <trkpt lat="46.23682" lon="4.48681">
        <ele>744</ele>
        <time>2025-09-20T12:29:25Z</time>
      </trkpt>
      <trkpt lat="46.2368" lon="4.48679">
        <ele>743.8</ele>
        <time>2025-09-20T12:29:26Z</time>
      </trkpt>
      <trkpt lat="46.23675" lon="4.48681">
        <ele>743.4</ele>
        <time>2025-09-20T12:29:27Z</time>
      </trkpt>
      <trkpt lat="46.2367" lon="4.48682">
        <ele>743.4</ele>
        <time>2025-09-20T12:29:28Z</time>
      </trkpt>
      <trkpt lat="46.23664" lon="4.48681">
        <ele>742.2</ele>
        <time>2025-09-20T12:29:29Z</time>
      </trkpt>
      <trkpt lat="46.23658" lon="4.48677">
        <ele>741.8</ele>
        <time>2025-09-20T12:29:30Z</time>
      </trkpt>
      <trkpt lat="46.23652" lon="4.48678">
        <ele>741</ele>
        <time>2025-09-20T12:29:31Z</time>
      </trkpt>
      <trkpt lat="46.23646" lon="4.48678">
        <ele>740.4</ele>
        <time>2025-09-20T12:29:32Z</time>
      </trkpt>
      <trkpt lat="46.23642" lon="4.48678">
        <ele>739.2</ele>
        <time>2025-09-20T12:29:33Z</time>
      </trkpt>
      <trkpt lat="46.23636" lon="4.48677">
        <ele>738.4</ele>
        <time>2025-09-20T12:29:34Z</time>
      </trkpt>
      <trkpt lat="46.23633" lon="4.48679">
        <ele>737.4</ele>
        <time>2025-09-20T12:29:35Z</time>
      </trkpt>
      <trkpt lat="46.23627" lon="4.48679">
        <ele>737</ele>
        <time>2025-09-20T12:29:36Z</time>
      </trkpt>
      <trkpt lat="46.23622" lon="4.48677">
        <ele>736.2</ele>
        <time>2025-09-20T12:29:37Z</time>
      </trkpt>
      <trkpt lat="46.23616" lon="4.48671">
        <ele>735.4</ele>
        <time>2025-09-20T12:29:38Z</time>
      </trkpt>
      <trkpt lat="46.23611" lon="4.48666">
        <ele>734.6</ele>
        <time>2025-09-20T12:29:39Z</time>
      </trkpt>
      <trkpt lat="46.23607" lon="4.48665">
        <ele>734</ele>
        <time>2025-09-20T12:29:40Z</time>
      </trkpt>
      <trkpt lat="46.23605" lon="4.48665">
        <ele>733.6</ele>
        <time>2025-09-20T12:29:41Z</time>
      </trkpt>
      <trkpt lat="46.23603" lon="4.48662">
        <ele>733</ele>
        <time>2025-09-20T12:29:42Z</time>
      </trkpt>
      <trkpt lat="46.23601" lon="4.48659">
        <ele>732.6</ele>
        <time>2025-09-20T12:29:43Z</time>
      </trkpt>
      <trkpt lat="46.23597" lon="4.48657">
        <ele>731.6</ele>
        <time>2025-09-20T12:29:44Z</time>
      </trkpt>
      <trkpt lat="46.23594" lon="4.48655">
        <ele>730.2</ele>
        <time>2025-09-20T12:29:45Z</time>
      </trkpt>
      <trkpt lat="46.23589" lon="4.48651">
        <ele>730.2</ele>
        <time>2025-09-20T12:29:46Z</time>
      </trkpt>
      <trkpt lat="46.23585" lon="4.48649">
        <ele>729</ele>
        <time>2025-09-20T12:29:47Z</time>
      </trkpt>
      <trkpt lat="46.23582" lon="4.48648">
        <ele>728.6</ele>
        <time>2025-09-20T12:29:48Z</time>
      </trkpt>
      <trkpt lat="46.23578" lon="4.48641">
        <ele>728.2</ele>
        <time>2025-09-20T12:29:49Z</time>
      </trkpt>
      <trkpt lat="46.23576" lon="4.48639">
        <ele>727.8</ele>
        <time>2025-09-20T12:29:50Z</time>
      </trkpt>
      <trkpt lat="46.23574" lon="4.48636">
        <ele>727.6</ele>
        <time>2025-09-20T12:29:51Z</time>
      </trkpt>
      <trkpt lat="46.23572" lon="4.48633">
        <ele>727.2</ele>
        <time>2025-09-20T12:29:52Z</time>
      </trkpt>
      <trkpt lat="46.2357" lon="4.48631">
        <ele>726.4</ele>
        <time>2025-09-20T12:29:53Z</time>
      </trkpt>
      <trkpt lat="46.23568" lon="4.4863">
        <ele>726.4</ele>
        <time>2025-09-20T12:29:54Z</time>
      </trkpt>
      <trkpt lat="46.23566" lon="4.48629">
        <ele>726.2</ele>
        <time>2025-09-20T12:29:55Z</time>
      </trkpt>
      <trkpt lat="46.23564" lon="4.48628">
        <ele>726.2</ele>
        <time>2025-09-20T12:29:56Z</time>
      </trkpt>
      <trkpt lat="46.23561" lon="4.48629">
        <ele>725.8</ele>
        <time>2025-09-20T12:29:57Z</time>
      </trkpt>
      <trkpt lat="46.23559" lon="4.4863">
        <ele>725.6</ele>
        <time>2025-09-20T12:29:58Z</time>
      </trkpt>
      <trkpt lat="46.23557" lon="4.48632">
        <ele>725.4</ele>
        <time>2025-09-20T12:29:59Z</time>
      </trkpt>
      <trkpt lat="46.23554" lon="4.48634">
        <ele>725.4</ele>
        <time>2025-09-20T12:30:00Z</time>
      </trkpt>
      <trkpt lat="46.23551" lon="4.48637">
        <ele>724.6</ele>
        <time>2025-09-20T12:30:01Z</time>
      </trkpt>
      <trkpt lat="46.23549" lon="4.48639">
        <ele>724.2</ele>
        <time>2025-09-20T12:30:02Z</time>
      </trkpt>
      <trkpt lat="46.23547" lon="4.48642">
        <ele>724.6</ele>
        <time>2025-09-20T12:30:03Z</time>
      </trkpt>
      <trkpt lat="46.23544" lon="4.48645">
        <ele>724.2</ele>
        <time>2025-09-20T12:30:04Z</time>
      </trkpt>
      <trkpt lat="46.23542" lon="4.48647">
        <ele>724.2</ele>
        <time>2025-09-20T12:30:05Z</time>
      </trkpt>
      <trkpt lat="46.23539" lon="4.4865">
        <ele>724.4</ele>
        <time>2025-09-20T12:30:06Z</time>
      </trkpt>
      <trkpt lat="46.23536" lon="4.48652">
        <ele>724.4</ele>
        <time>2025-09-20T12:30:07Z</time>
      </trkpt>
      <trkpt lat="46.23533" lon="4.48654">
        <ele>724.4</ele>
        <time>2025-09-20T12:30:08Z</time>
      </trkpt>
      <trkpt lat="46.2353" lon="4.48655">
        <ele>724.4</ele>
        <time>2025-09-20T12:30:09Z</time>
      </trkpt>
      <trkpt lat="46.23527" lon="4.48657">
        <ele>724.6</ele>
        <time>2025-09-20T12:30:10Z</time>
      </trkpt>
      <trkpt lat="46.23524" lon="4.48658">
        <ele>724.6</ele>
        <time>2025-09-20T12:30:11Z</time>
      </trkpt>
      <trkpt lat="46.23521" lon="4.48659">
        <ele>724.8</ele>
        <time>2025-09-20T12:30:12Z</time>
      </trkpt>
      <trkpt lat="46.23518" lon="4.48661">
        <ele>724.8</ele>
        <time>2025-09-20T12:30:13Z</time>
      </trkpt>
      <trkpt lat="46.23516" lon="4.48663">
        <ele>724.8</ele>
        <time>2025-09-20T12:30:14Z</time>
      </trkpt>
      <trkpt lat="46.23513" lon="4.48665">
        <ele>724.8</ele>
        <time>2025-09-20T12:30:15Z</time>
      </trkpt>
      <trkpt lat="46.2351" lon="4.48666">
        <ele>725.2</ele>
        <time>2025-09-20T12:30:16Z</time>
      </trkpt>
      <trkpt lat="46.23507" lon="4.48667">
        <ele>725.2</ele>
        <time>2025-09-20T12:30:17Z</time>
      </trkpt>
      <trkpt lat="46.23504" lon="4.48668">
        <ele>724.8</ele>
        <time>2025-09-20T12:30:18Z</time>
      </trkpt>
      <trkpt lat="46.235" lon="4.4867">
        <ele>726</ele>
        <time>2025-09-20T12:30:19Z</time>
      </trkpt>
      <trkpt lat="46.23498" lon="4.48672">
        <ele>726</ele>
        <time>2025-09-20T12:30:20Z</time>
      </trkpt>
      <trkpt lat="46.23495" lon="4.48674">
        <ele>725.8</ele>
        <time>2025-09-20T12:30:21Z</time>
      </trkpt>
      <trkpt lat="46.23493" lon="4.48675">
        <ele>725.8</ele>
        <time>2025-09-20T12:30:22Z</time>
      </trkpt>
      <trkpt lat="46.23491" lon="4.48677">
        <ele>726.4</ele>
        <time>2025-09-20T12:30:23Z</time>
      </trkpt>
      <trkpt lat="46.23488" lon="4.48679">
        <ele>726.4</ele>
        <time>2025-09-20T12:30:24Z</time>
      </trkpt>
      <trkpt lat="46.23486" lon="4.4868">
        <ele>726.4</ele>
        <time>2025-09-20T12:30:25Z</time>
      </trkpt>
      <trkpt lat="46.23483" lon="4.48682">
        <ele>726</ele>
        <time>2025-09-20T12:30:26Z</time>
      </trkpt>
      <trkpt lat="46.2348" lon="4.48683">
        <ele>726.4</ele>
        <time>2025-09-20T12:30:27Z</time>
      </trkpt>
      <trkpt lat="46.23478" lon="4.48685">
        <ele>726.4</ele>
        <time>2025-09-20T12:30:28Z</time>
      </trkpt>
      <trkpt lat="46.23476" lon="4.48686">
        <ele>726.4</ele>
        <time>2025-09-20T12:30:29Z</time>
      </trkpt>
      <trkpt lat="46.23474" lon="4.48688">
        <ele>726.8</ele>
        <time>2025-09-20T12:30:30Z</time>
      </trkpt>
      <trkpt lat="46.23472" lon="4.48689">
        <ele>726.8</ele>
        <time>2025-09-20T12:30:31Z</time>
      </trkpt>
      <trkpt lat="46.2347" lon="4.4869">
        <ele>727</ele>
        <time>2025-09-20T12:30:32Z</time>
      </trkpt>
      <trkpt lat="46.23468" lon="4.48692">
        <ele>727</ele>
        <time>2025-09-20T12:30:33Z</time>
      </trkpt>
      <trkpt lat="46.23466" lon="4.48694">
        <ele>727.4</ele>
        <time>2025-09-20T12:30:34Z</time>
      </trkpt>
      <trkpt lat="46.23464" lon="4.48695">
        <ele>727.4</ele>
        <time>2025-09-20T12:30:35Z</time>
      </trkpt>
      <trkpt lat="46.23461" lon="4.48696">
        <ele>727.6</ele>
        <time>2025-09-20T12:30:36Z</time>
      </trkpt>
      <trkpt lat="46.23459" lon="4.48697">
        <ele>727.6</ele>
        <time>2025-09-20T12:30:37Z</time>
      </trkpt>
      <trkpt lat="46.23457" lon="4.48698">
        <ele>727.6</ele>
        <time>2025-09-20T12:30:38Z</time>
      </trkpt>
      <trkpt lat="46.23454" lon="4.487">
        <ele>727.6</ele>
        <time>2025-09-20T12:30:39Z</time>
      </trkpt>
      <trkpt lat="46.23452" lon="4.48701">
        <ele>728</ele>
        <time>2025-09-20T12:30:40Z</time>
      </trkpt>
      <trkpt lat="46.23449" lon="4.48703">
        <ele>728</ele>
        <time>2025-09-20T12:30:41Z</time>
      </trkpt>
      <trkpt lat="46.23447" lon="4.48704">
        <ele>728.4</ele>
        <time>2025-09-20T12:30:42Z</time>
      </trkpt>
      <trkpt lat="46.23445" lon="4.48706">
        <ele>728.4</ele>
        <time>2025-09-20T12:30:43Z</time>
      </trkpt>
      <trkpt lat="46.23443" lon="4.48707">
        <ele>728.4</ele>
        <time>2025-09-20T12:30:44Z</time>
      </trkpt>
      <trkpt lat="46.2344" lon="4.4871">
        <ele>728.4</ele>
        <time>2025-09-20T12:30:45Z</time>
      </trkpt>
      <trkpt lat="46.23438" lon="4.48711">
        <ele>728.6</ele>
        <time>2025-09-20T12:30:46Z</time>
      </trkpt>
      <trkpt lat="46.23436" lon="4.48713">
        <ele>728.6</ele>
        <time>2025-09-20T12:30:47Z</time>
      </trkpt>
      <trkpt lat="46.23433" lon="4.48715">
        <ele>728.8</ele>
        <time>2025-09-20T12:30:48Z</time>
      </trkpt>
      <trkpt lat="46.23432" lon="4.48716">
        <ele>728.8</ele>
        <time>2025-09-20T12:30:49Z</time>
      </trkpt>
      <trkpt lat="46.2343" lon="4.48717">
        <ele>729.2</ele>
        <time>2025-09-20T12:30:50Z</time>
      </trkpt>
      <trkpt lat="46.23427" lon="4.48718">
        <ele>729.2</ele>
        <time>2025-09-20T12:30:51Z</time>
      </trkpt>
      <trkpt lat="46.23424" lon="4.48719">
        <ele>729.2</ele>
        <time>2025-09-20T12:30:52Z</time>
      </trkpt>
      <trkpt lat="46.2342" lon="4.48719">
        <ele>728.6</ele>
        <time>2025-09-20T12:30:53Z</time>
      </trkpt>
      <trkpt lat="46.23416" lon="4.48719">
        <ele>728.6</ele>
        <time>2025-09-20T12:30:54Z</time>
      </trkpt>
      <trkpt lat="46.23412" lon="4.4872">
        <ele>728.6</ele>
        <time>2025-09-20T12:30:55Z</time>
      </trkpt>
      <trkpt lat="46.23408" lon="4.48722">
        <ele>728.6</ele>
        <time>2025-09-20T12:30:56Z</time>
      </trkpt>
      <trkpt lat="46.23405" lon="4.48724">
        <ele>728.8</ele>
        <time>2025-09-20T12:30:57Z</time>
      </trkpt>
      <trkpt lat="46.23402" lon="4.48726">
        <ele>729.2</ele>
        <time>2025-09-20T12:30:58Z</time>
      </trkpt>
      <trkpt lat="46.23399" lon="4.48729">
        <ele>729.2</ele>
        <time>2025-09-20T12:30:59Z</time>
      </trkpt>
      <trkpt lat="46.23396" lon="4.48731">
        <ele>729.6</ele>
        <time>2025-09-20T12:31:00Z</time>
      </trkpt>
      <trkpt lat="46.23393" lon="4.48732">
        <ele>729.6</ele>
        <time>2025-09-20T12:31:01Z</time>
      </trkpt>
      <trkpt lat="46.2339" lon="4.48734">
        <ele>729.4</ele>
        <time>2025-09-20T12:31:02Z</time>
      </trkpt>
      <trkpt lat="46.23388" lon="4.48735">
        <ele>729.4</ele>
        <time>2025-09-20T12:31:03Z</time>
      </trkpt>
      <trkpt lat="46.23385" lon="4.48737">
        <ele>729.4</ele>
        <time>2025-09-20T12:31:04Z</time>
      </trkpt>
      <trkpt lat="46.23383" lon="4.48737">
        <ele>729.4</ele>
        <time>2025-09-20T12:31:05Z</time>
      </trkpt>
      <trkpt lat="46.23381" lon="4.48738">
        <ele>729.2</ele>
        <time>2025-09-20T12:31:06Z</time>
      </trkpt>
      <trkpt lat="46.23379" lon="4.48739">
        <ele>729.2</ele>
        <time>2025-09-20T12:31:07Z</time>
      </trkpt>
      <trkpt lat="46.23377" lon="4.4874">
        <ele>729.2</ele>
        <time>2025-09-20T12:31:08Z</time>
      </trkpt>
      <trkpt lat="46.23375" lon="4.48742">
        <ele>729.2</ele>
        <time>2025-09-20T12:31:09Z</time>
      </trkpt>
      <trkpt lat="46.23375" lon="4.48742">
        <ele>729.2</ele>
        <time>2025-09-20T12:31:10Z</time>
      </trkpt>
      <trkpt lat="46.23375" lon="4.48743">
        <ele>729.2</ele>
        <time>2025-09-20T12:31:11Z</time>
      </trkpt>
      <trkpt lat="46.23376" lon="4.48743">
        <ele>730.4</ele>
        <time>2025-09-20T12:32:07Z</time>
      </trkpt>
      <trkpt lat="46.23375" lon="4.48742">
        <ele>730.4</ele>
        <time>2025-09-20T12:32:08Z</time>
      </trkpt>
      <trkpt lat="46.23375" lon="4.48742">
        <ele>730.4</ele>
        <time>2025-09-20T12:32:09Z</time>
      </trkpt>
      <trkpt lat="46.23371" lon="4.4874">
        <ele>730</ele>
        <time>2025-09-20T12:32:23Z</time>
      </trkpt>
      <trkpt lat="46.23368" lon="4.4874">
        <ele>730</ele>
        <time>2025-09-20T12:32:24Z</time>
      </trkpt>
      <trkpt lat="46.23365" lon="4.4874">
        <ele>730</ele>
        <time>2025-09-20T12:32:25Z</time>
      </trkpt>
      <trkpt lat="46.23361" lon="4.48741">
        <ele>730</ele>
        <time>2025-09-20T12:32:26Z</time>
      </trkpt>
      <trkpt lat="46.23358" lon="4.48743">
        <ele>729.6</ele>
        <time>2025-09-20T12:32:27Z</time>
      </trkpt>
      <trkpt lat="46.23356" lon="4.48746">
        <ele>729.2</ele>
        <time>2025-09-20T12:32:28Z</time>
      </trkpt>
      <trkpt lat="46.23353" lon="4.48749">
        <ele>730</ele>
        <time>2025-09-20T12:32:29Z</time>
      </trkpt>
      <trkpt lat="46.2335" lon="4.48752">
        <ele>731</ele>
        <time>2025-09-20T12:32:30Z</time>
      </trkpt>
      <trkpt lat="46.23348" lon="4.48755">
        <ele>731.4</ele>
        <time>2025-09-20T12:32:31Z</time>
      </trkpt>
      <trkpt lat="46.23346" lon="4.48758">
        <ele>731.4</ele>
        <time>2025-09-20T12:32:32Z</time>
      </trkpt>
      <trkpt lat="46.23343" lon="4.48761">
        <ele>731.4</ele>
        <time>2025-09-20T12:32:33Z</time>
      </trkpt>
      <trkpt lat="46.23341" lon="4.48764">
        <ele>731.2</ele>
        <time>2025-09-20T12:32:34Z</time>
      </trkpt>
      <trkpt lat="46.23338" lon="4.48765">
        <ele>731.2</ele>
        <time>2025-09-20T12:32:35Z</time>
      </trkpt>
      <trkpt lat="46.23336" lon="4.48767">
        <ele>731.2</ele>
        <time>2025-09-20T12:32:36Z</time>
      </trkpt>
      <trkpt lat="46.23334" lon="4.48769">
        <ele>730.8</ele>
        <time>2025-09-20T12:32:37Z</time>
      </trkpt>
      <trkpt lat="46.23333" lon="4.4877">
        <ele>731.4</ele>
        <time>2025-09-20T12:32:38Z</time>
      </trkpt>
      <trkpt lat="46.23332" lon="4.48771">
        <ele>731.4</ele>
        <time>2025-09-20T12:32:39Z</time>
      </trkpt>
      <trkpt lat="46.2333" lon="4.48771">
        <ele>731.4</ele>
        <time>2025-09-20T12:32:40Z</time>
      </trkpt>
      <trkpt lat="46.23329" lon="4.48772">
        <ele>731.2</ele>
        <time>2025-09-20T12:32:41Z</time>
      </trkpt>
      <trkpt lat="46.23327" lon="4.48772">
        <ele>731.2</ele>
        <time>2025-09-20T12:32:42Z</time>
      </trkpt>
      <trkpt lat="46.23326" lon="4.48771">
        <ele>731.2</ele>
        <time>2025-09-20T12:32:43Z</time>
      </trkpt>
      <trkpt lat="46.23324" lon="4.48771">
        <ele>731.2</ele>
        <time>2025-09-20T12:32:44Z</time>
      </trkpt>
      <trkpt lat="46.23323" lon="4.48772">
        <ele>730.8</ele>
        <time>2025-09-20T12:32:45Z</time>
      </trkpt>
      <trkpt lat="46.23323" lon="4.48772">
        <ele>730.8</ele>
        <time>2025-09-20T12:32:46Z</time>
      </trkpt>
      <trkpt lat="46.23323" lon="4.48773">
        <ele>730.8</ele>
        <time>2025-09-20T12:32:47Z</time>
      </trkpt>
      <trkpt lat="46.23324" lon="4.48773">
        <ele>730.8</ele>
        <time>2025-09-20T12:32:48Z</time>
      </trkpt>
      <trkpt lat="46.23323" lon="4.48772">
        <ele>730.8</ele>
        <time>2025-09-20T12:33:33Z</time>
      </trkpt>
      <trkpt lat="46.23322" lon="4.4877">
        <ele>730.8</ele>
        <time>2025-09-20T12:33:34Z</time>
      </trkpt>
      <trkpt lat="46.23322" lon="4.48769">
        <ele>731</ele>
        <time>2025-09-20T12:33:35Z</time>
      </trkpt>
      <trkpt lat="46.23321" lon="4.48766">
        <ele>731</ele>
        <time>2025-09-20T12:33:36Z</time>
      </trkpt>
      <trkpt lat="46.2332" lon="4.48762">
        <ele>731</ele>
        <time>2025-09-20T12:33:37Z</time>
      </trkpt>
      <trkpt lat="46.23319" lon="4.48758">
        <ele>731</ele>
        <time>2025-09-20T12:33:38Z</time>
      </trkpt>
      <trkpt lat="46.23317" lon="4.48756">
        <ele>731</ele>
        <time>2025-09-20T12:33:39Z</time>
      </trkpt>
      <trkpt lat="46.23316" lon="4.48753">
        <ele>731</ele>
        <time>2025-09-20T12:33:40Z</time>
      </trkpt>
      <trkpt lat="46.23315" lon="4.4875">
        <ele>731</ele>
        <time>2025-09-20T12:33:41Z</time>
      </trkpt>
      <trkpt lat="46.23314" lon="4.48747">
        <ele>731</ele>
        <time>2025-09-20T12:33:42Z</time>
      </trkpt>
      <trkpt lat="46.23314" lon="4.48742">
        <ele>731</ele>
        <time>2025-09-20T12:33:43Z</time>
      </trkpt>
      <trkpt lat="46.23313" lon="4.48738">
        <ele>731.4</ele>
        <time>2025-09-20T12:33:44Z</time>
      </trkpt>
      <trkpt lat="46.23312" lon="4.48734">
        <ele>731.4</ele>
        <time>2025-09-20T12:33:45Z</time>
      </trkpt>
      <trkpt lat="46.23311" lon="4.48731">
        <ele>731.6</ele>
        <time>2025-09-20T12:33:46Z</time>
      </trkpt>
      <trkpt lat="46.23311" lon="4.48727">
        <ele>731.6</ele>
        <time>2025-09-20T12:33:47Z</time>
      </trkpt>
      <trkpt lat="46.2331" lon="4.48724">
        <ele>731.6</ele>
        <time>2025-09-20T12:33:48Z</time>
      </trkpt>
      <trkpt lat="46.23309" lon="4.48722">
        <ele>731.8</ele>
        <time>2025-09-20T12:33:49Z</time>
      </trkpt>
      <trkpt lat="46.23308" lon="4.48721">
        <ele>731.8</ele>
        <time>2025-09-20T12:33:50Z</time>
      </trkpt>
      <trkpt lat="46.23308" lon="4.48721">
        <ele>731.8</ele>
        <time>2025-09-20T12:33:51Z</time>
      </trkpt>
      <trkpt lat="46.23307" lon="4.48721">
        <ele>731.8</ele>
        <time>2025-09-20T12:33:52Z</time>
      </trkpt>
      <trkpt lat="46.23306" lon="4.4872">
        <ele>731.8</ele>
        <time>2025-09-20T12:33:53Z</time>
      </trkpt>
      <trkpt lat="46.23305" lon="4.4872">
        <ele>732.8</ele>
        <time>2025-09-20T12:33:54Z</time>
      </trkpt>
      <trkpt lat="46.23304" lon="4.4872">
        <ele>732.8</ele>
        <time>2025-09-20T12:33:55Z</time>
      </trkpt>
      <trkpt lat="46.23302" lon="4.4872">
        <ele>732.8</ele>
        <time>2025-09-20T12:33:56Z</time>
      </trkpt>
      <trkpt lat="46.23301" lon="4.4872">
        <ele>732.8</ele>
        <time>2025-09-20T12:33:57Z</time>
      </trkpt>
      <trkpt lat="46.23299" lon="4.48721">
        <ele>732.6</ele>
        <time>2025-09-20T12:33:58Z</time>
      </trkpt>
      <trkpt lat="46.23297" lon="4.48721">
        <ele>732.6</ele>
        <time>2025-09-20T12:33:59Z</time>
      </trkpt>
      <trkpt lat="46.23295" lon="4.48721">
        <ele>732.4</ele>
        <time>2025-09-20T12:34:00Z</time>
      </trkpt>
      <trkpt lat="46.23292" lon="4.48722">
        <ele>732.4</ele>
        <time>2025-09-20T12:34:01Z</time>
      </trkpt>
      <trkpt lat="46.2329" lon="4.48721">
        <ele>732.4</ele>
        <time>2025-09-20T12:34:02Z</time>
      </trkpt>
      <trkpt lat="46.23288" lon="4.48721">
        <ele>732.4</ele>
        <time>2025-09-20T12:34:03Z</time>
      </trkpt>
      <trkpt lat="46.23285" lon="4.4872">
        <ele>732.6</ele>
        <time>2025-09-20T12:34:04Z</time>
      </trkpt>
      <trkpt lat="46.23283" lon="4.4872">
        <ele>732.6</ele>
        <time>2025-09-20T12:34:05Z</time>
      </trkpt>
      <trkpt lat="46.23282" lon="4.48719">
        <ele>732.6</ele>
        <time>2025-09-20T12:34:06Z</time>
      </trkpt>
      <trkpt lat="46.23279" lon="4.48719">
        <ele>733</ele>
        <time>2025-09-20T12:34:07Z</time>
      </trkpt>
      <trkpt lat="46.23277" lon="4.48719">
        <ele>733</ele>
        <time>2025-09-20T12:34:08Z</time>
      </trkpt>
      <trkpt lat="46.23274" lon="4.48719">
        <ele>733</ele>
        <time>2025-09-20T12:34:09Z</time>
      </trkpt>
      <trkpt lat="46.23272" lon="4.48719">
        <ele>733.4</ele>
        <time>2025-09-20T12:34:10Z</time>
      </trkpt>
      <trkpt lat="46.2327" lon="4.48718">
        <ele>733.4</ele>
        <time>2025-09-20T12:34:11Z</time>
      </trkpt>
      <trkpt lat="46.23267" lon="4.48718">
        <ele>734</ele>
        <time>2025-09-20T12:34:12Z</time>
      </trkpt>
      <trkpt lat="46.23265" lon="4.48717">
        <ele>734.2</ele>
        <time>2025-09-20T12:34:13Z</time>
      </trkpt>
      <trkpt lat="46.23264" lon="4.48717">
        <ele>734.6</ele>
        <time>2025-09-20T12:34:14Z</time>
      </trkpt>
      <trkpt lat="46.23263" lon="4.48717">
        <ele>734.8</ele>
        <time>2025-09-20T12:34:15Z</time>
      </trkpt>
      <trkpt lat="46.23262" lon="4.48716">
        <ele>734.6</ele>
        <time>2025-09-20T12:34:16Z</time>
      </trkpt>
      <trkpt lat="46.2326" lon="4.48715">
        <ele>734.6</ele>
        <time>2025-09-20T12:34:17Z</time>
      </trkpt>
      <trkpt lat="46.23258" lon="4.48713">
        <ele>734.6</ele>
        <time>2025-09-20T12:34:18Z</time>
      </trkpt>
      <trkpt lat="46.23256" lon="4.48712">
        <ele>734.6</ele>
        <time>2025-09-20T12:34:19Z</time>
      </trkpt>
      <trkpt lat="46.23254" lon="4.48711">
        <ele>734.8</ele>
        <time>2025-09-20T12:34:20Z</time>
      </trkpt>
      <trkpt lat="46.23252" lon="4.48709">
        <ele>735.2</ele>
        <time>2025-09-20T12:34:21Z</time>
      </trkpt>
      <trkpt lat="46.23249" lon="4.48707">
        <ele>734.8</ele>
        <time>2025-09-20T12:34:22Z</time>
      </trkpt>
      <trkpt lat="46.23246" lon="4.48706">
        <ele>735</ele>
        <time>2025-09-20T12:34:23Z</time>
      </trkpt>
      <trkpt lat="46.23244" lon="4.48705">
        <ele>735</ele>
        <time>2025-09-20T12:34:24Z</time>
      </trkpt>
      <trkpt lat="46.23242" lon="4.48704">
        <ele>735.2</ele>
        <time>2025-09-20T12:34:25Z</time>
      </trkpt>
      <trkpt lat="46.23239" lon="4.48704">
        <ele>735.2</ele>
        <time>2025-09-20T12:34:26Z</time>
      </trkpt>
      <trkpt lat="46.23238" lon="4.48703">
        <ele>735.2</ele>
        <time>2025-09-20T12:34:27Z</time>
      </trkpt>
      <trkpt lat="46.23236" lon="4.48703">
        <ele>735.6</ele>
        <time>2025-09-20T12:34:28Z</time>
      </trkpt>
      <trkpt lat="46.23233" lon="4.48702">
        <ele>735.6</ele>
        <time>2025-09-20T12:34:29Z</time>
      </trkpt>
      <trkpt lat="46.2323" lon="4.487">
        <ele>735.6</ele>
        <time>2025-09-20T12:34:30Z</time>
      </trkpt>
      <trkpt lat="46.23227" lon="4.48699">
        <ele>735.8</ele>
        <time>2025-09-20T12:34:31Z</time>
      </trkpt>
      <trkpt lat="46.23225" lon="4.48698">
        <ele>735.8</ele>
        <time>2025-09-20T12:34:32Z</time>
      </trkpt>
      <trkpt lat="46.23225" lon="4.48698">
        <ele>735.8</ele>
        <time>2025-09-20T12:34:33Z</time>
      </trkpt>
      <trkpt lat="46.23225" lon="4.48698">
        <ele>736</ele>
        <time>2025-09-20T12:34:34Z</time>
      </trkpt>
      <trkpt lat="46.23215" lon="4.48697">
        <ele>736.2</ele>
        <time>2025-09-20T12:34:35Z</time>
      </trkpt>
      <trkpt lat="46.23212" lon="4.48696">
        <ele>736.2</ele>
        <time>2025-09-20T12:34:36Z</time>
      </trkpt>
      <trkpt lat="46.2321" lon="4.48695">
        <ele>736.6</ele>
        <time>2025-09-20T12:34:37Z</time>
      </trkpt>
      <trkpt lat="46.23209" lon="4.48693">
        <ele>736.8</ele>
        <time>2025-09-20T12:34:38Z</time>
      </trkpt>
      <trkpt lat="46.23207" lon="4.48691">
        <ele>737</ele>
        <time>2025-09-20T12:34:39Z</time>
      </trkpt>
      <trkpt lat="46.23206" lon="4.48688">
        <ele>737</ele>
        <time>2025-09-20T12:34:40Z</time>
      </trkpt>
      <trkpt lat="46.23204" lon="4.48686">
        <ele>737</ele>
        <time>2025-09-20T12:34:41Z</time>
      </trkpt>
      <trkpt lat="46.23203" lon="4.48683">
        <ele>737.4</ele>
        <time>2025-09-20T12:34:42Z</time>
      </trkpt>
      <trkpt lat="46.23202" lon="4.4868">
        <ele>737.4</ele>
        <time>2025-09-20T12:34:43Z</time>
      </trkpt>
      <trkpt lat="46.23201" lon="4.48677">
        <ele>737.6</ele>
        <time>2025-09-20T12:34:44Z</time>
      </trkpt>
      <trkpt lat="46.232" lon="4.48675">
        <ele>737.6</ele>
        <time>2025-09-20T12:34:45Z</time>
      </trkpt>
      <trkpt lat="46.23198" lon="4.48673">
        <ele>738.2</ele>
        <time>2025-09-20T12:34:46Z</time>
      </trkpt>
      <trkpt lat="46.23197" lon="4.48671">
        <ele>738.2</ele>
        <time>2025-09-20T12:34:47Z</time>
      </trkpt>
      <trkpt lat="46.23196" lon="4.48669">
        <ele>738.4</ele>
        <time>2025-09-20T12:34:48Z</time>
      </trkpt>
      <trkpt lat="46.23195" lon="4.48667">
        <ele>738.4</ele>
        <time>2025-09-20T12:34:49Z</time>
      </trkpt>
      <trkpt lat="46.23193" lon="4.48666">
        <ele>738.4</ele>
        <time>2025-09-20T12:34:50Z</time>
      </trkpt>
      <trkpt lat="46.23192" lon="4.48664">
        <ele>738.8</ele>
        <time>2025-09-20T12:34:51Z</time>
      </trkpt>
      <trkpt lat="46.23191" lon="4.48662">
        <ele>739.2</ele>
        <time>2025-09-20T12:34:52Z</time>
      </trkpt>
      <trkpt lat="46.2319" lon="4.4866">
        <ele>739.2</ele>
        <time>2025-09-20T12:34:53Z</time>
      </trkpt>
      <trkpt lat="46.23189" lon="4.48658">
        <ele>739.4</ele>
        <time>2025-09-20T12:34:54Z</time>
      </trkpt>
      <trkpt lat="46.23189" lon="4.48656">
        <ele>739.4</ele>
        <time>2025-09-20T12:34:55Z</time>
      </trkpt>
      <trkpt lat="46.23188" lon="4.48655">
        <ele>740</ele>
        <time>2025-09-20T12:34:56Z</time>
      </trkpt>
      <trkpt lat="46.23188" lon="4.48653">
        <ele>740</ele>
        <time>2025-09-20T12:34:57Z</time>
      </trkpt>
      <trkpt lat="46.23187" lon="4.48651">
        <ele>740.2</ele>
        <time>2025-09-20T12:34:58Z</time>
      </trkpt>
      <trkpt lat="46.23187" lon="4.48651">
        <ele>740.2</ele>
        <time>2025-09-20T12:34:59Z</time>
      </trkpt>
      <trkpt lat="46.23186" lon="4.48647">
        <ele>740.6</ele>
        <time>2025-09-20T12:35:00Z</time>
      </trkpt>
      <trkpt lat="46.23185" lon="4.48645">
        <ele>740.8</ele>
        <time>2025-09-20T12:35:01Z</time>
      </trkpt>
      <trkpt lat="46.23184" lon="4.48643">
        <ele>741.2</ele>
        <time>2025-09-20T12:35:02Z</time>
      </trkpt>
      <trkpt lat="46.23184" lon="4.48642">
        <ele>741.4</ele>
        <time>2025-09-20T12:35:03Z</time>
      </trkpt>
      <trkpt lat="46.23183" lon="4.4864">
        <ele>741.8</ele>
        <time>2025-09-20T12:35:04Z</time>
      </trkpt>
      <trkpt lat="46.23183" lon="4.48638">
        <ele>742</ele>
        <time>2025-09-20T12:35:05Z</time>
      </trkpt>
      <trkpt lat="46.23182" lon="4.48636">
        <ele>742</ele>
        <time>2025-09-20T12:35:06Z</time>
      </trkpt>
      <trkpt lat="46.23181" lon="4.48635">
        <ele>742.4</ele>
        <time>2025-09-20T12:35:07Z</time>
      </trkpt>
      <trkpt lat="46.23181" lon="4.48633">
        <ele>742.6</ele>
        <time>2025-09-20T12:35:08Z</time>
      </trkpt>
      <trkpt lat="46.23181" lon="4.48631">
        <ele>742.6</ele>
        <time>2025-09-20T12:35:09Z</time>
      </trkpt>
      <trkpt lat="46.2318" lon="4.48628">
        <ele>743</ele>
        <time>2025-09-20T12:35:10Z</time>
      </trkpt>
      <trkpt lat="46.2318" lon="4.48626">
        <ele>743</ele>
        <time>2025-09-20T12:35:11Z</time>
      </trkpt>
      <trkpt lat="46.2318" lon="4.48624">
        <ele>743.4</ele>
        <time>2025-09-20T12:35:12Z</time>
      </trkpt>
      <trkpt lat="46.2318" lon="4.48622">
        <ele>743.4</ele>
        <time>2025-09-20T12:35:13Z</time>
      </trkpt>
      <trkpt lat="46.2318" lon="4.4862">
        <ele>743.8</ele>
        <time>2025-09-20T12:35:14Z</time>
      </trkpt>
      <trkpt lat="46.2318" lon="4.48618">
        <ele>743.8</ele>
        <time>2025-09-20T12:35:15Z</time>
      </trkpt>
      <trkpt lat="46.23181" lon="4.48616">
        <ele>744.2</ele>
        <time>2025-09-20T12:35:16Z</time>
      </trkpt>
      <trkpt lat="46.23181" lon="4.48613">
        <ele>744.6</ele>
        <time>2025-09-20T12:35:17Z</time>
      </trkpt>
      <trkpt lat="46.23181" lon="4.48611">
        <ele>744.6</ele>
        <time>2025-09-20T12:35:18Z</time>
      </trkpt>
      <trkpt lat="46.23181" lon="4.48609">
        <ele>744.8</ele>
        <time>2025-09-20T12:35:19Z</time>
      </trkpt>
      <trkpt lat="46.23181" lon="4.48607">
        <ele>745.2</ele>
        <time>2025-09-20T12:35:20Z</time>
      </trkpt>
      <trkpt lat="46.23181" lon="4.48605">
        <ele>745.2</ele>
        <time>2025-09-20T12:35:21Z</time>
      </trkpt>
      <trkpt lat="46.23181" lon="4.48603">
        <ele>745.2</ele>
        <time>2025-09-20T12:35:22Z</time>
      </trkpt>
      <trkpt lat="46.23182" lon="4.48601">
        <ele>745.4</ele>
        <time>2025-09-20T12:35:23Z</time>
      </trkpt>
      <trkpt lat="46.23182" lon="4.48599">
        <ele>745.4</ele>
        <time>2025-09-20T12:35:24Z</time>
      </trkpt>
      <trkpt lat="46.23182" lon="4.48597">
        <ele>745.8</ele>
        <time>2025-09-20T12:35:25Z</time>
      </trkpt>
      <trkpt lat="46.23183" lon="4.48595">
        <ele>746</ele>
        <time>2025-09-20T12:35:26Z</time>
      </trkpt>
      <trkpt lat="46.23183" lon="4.48593">
        <ele>746.4</ele>
        <time>2025-09-20T12:35:27Z</time>
      </trkpt>
      <trkpt lat="46.23183" lon="4.48591">
        <ele>746.4</ele>
        <time>2025-09-20T12:35:28Z</time>
      </trkpt>
      <trkpt lat="46.23183" lon="4.48589">
        <ele>746.6</ele>
        <time>2025-09-20T12:35:29Z</time>
      </trkpt>
      <trkpt lat="46.23183" lon="4.48587">
        <ele>746.6</ele>
        <time>2025-09-20T12:35:30Z</time>
      </trkpt>
      <trkpt lat="46.23183" lon="4.48585">
        <ele>747</ele>
        <time>2025-09-20T12:35:31Z</time>
      </trkpt>
      <trkpt lat="46.23184" lon="4.48583">
        <ele>747.2</ele>
        <time>2025-09-20T12:35:32Z</time>
      </trkpt>
      <trkpt lat="46.23184" lon="4.48581">
        <ele>747.2</ele>
        <time>2025-09-20T12:35:33Z</time>
      </trkpt>
      <trkpt lat="46.23185" lon="4.4858">
        <ele>747.2</ele>
        <time>2025-09-20T12:35:34Z</time>
      </trkpt>
      <trkpt lat="46.23185" lon="4.48578">
        <ele>747.2</ele>
        <time>2025-09-20T12:35:35Z</time>
      </trkpt>
      <trkpt lat="46.23185" lon="4.48576">
        <ele>747.6</ele>
        <time>2025-09-20T12:35:36Z</time>
      </trkpt>
      <trkpt lat="46.23186" lon="4.48574">
        <ele>747.6</ele>
        <time>2025-09-20T12:35:37Z</time>
      </trkpt>
      <trkpt lat="46.23186" lon="4.48572">
        <ele>747.8</ele>
        <time>2025-09-20T12:35:38Z</time>
      </trkpt>
      <trkpt lat="46.23186" lon="4.48569">
        <ele>747.8</ele>
        <time>2025-09-20T12:35:39Z</time>
      </trkpt>
      <trkpt lat="46.23186" lon="4.48567">
        <ele>748</ele>
        <time>2025-09-20T12:35:40Z</time>
      </trkpt>
      <trkpt lat="46.23187" lon="4.48565">
        <ele>748</ele>
        <time>2025-09-20T12:35:41Z</time>
      </trkpt>
      <trkpt lat="46.23187" lon="4.48563">
        <ele>748.6</ele>
        <time>2025-09-20T12:35:42Z</time>
      </trkpt>
      <trkpt lat="46.23188" lon="4.48562">
        <ele>748.6</ele>
        <time>2025-09-20T12:35:43Z</time>
      </trkpt>
      <trkpt lat="46.23188" lon="4.48559">
        <ele>748.6</ele>
        <time>2025-09-20T12:35:44Z</time>
      </trkpt>
      <trkpt lat="46.23188" lon="4.48557">
        <ele>748.8</ele>
        <time>2025-09-20T12:35:45Z</time>
      </trkpt>
      <trkpt lat="46.23188" lon="4.48554">
        <ele>748.8</ele>
        <time>2025-09-20T12:35:46Z</time>
      </trkpt>
      <trkpt lat="46.23188" lon="4.48553">
        <ele>749.2</ele>
        <time>2025-09-20T12:35:47Z</time>
      </trkpt>
      <trkpt lat="46.23189" lon="4.48551">
        <ele>749.4</ele>
        <time>2025-09-20T12:35:48Z</time>
      </trkpt>
      <trkpt lat="46.23189" lon="4.48549">
        <ele>749.4</ele>
        <time>2025-09-20T12:35:49Z</time>
      </trkpt>
      <trkpt lat="46.23189" lon="4.48547">
        <ele>750</ele>
        <time>2025-09-20T12:35:50Z</time>
      </trkpt>
      <trkpt lat="46.23189" lon="4.48545">
        <ele>750.2</ele>
        <time>2025-09-20T12:35:51Z</time>
      </trkpt>
      <trkpt lat="46.2319" lon="4.48543">
        <ele>750.2</ele>
        <time>2025-09-20T12:35:52Z</time>
      </trkpt>
      <trkpt lat="46.2319" lon="4.4854">
        <ele>750.8</ele>
        <time>2025-09-20T12:35:53Z</time>
      </trkpt>
      <trkpt lat="46.23189" lon="4.48538">
        <ele>750.8</ele>
        <time>2025-09-20T12:35:54Z</time>
      </trkpt>
      <trkpt lat="46.23189" lon="4.48536">
        <ele>751</ele>
        <time>2025-09-20T12:35:55Z</time>
      </trkpt>
      <trkpt lat="46.23189" lon="4.48534">
        <ele>751.2</ele>
        <time>2025-09-20T12:35:56Z</time>
      </trkpt>
      <trkpt lat="46.2319" lon="4.48531">
        <ele>751.4</ele>
        <time>2025-09-20T12:35:57Z</time>
      </trkpt>
      <trkpt lat="46.2319" lon="4.48529">
        <ele>751.8</ele>
        <time>2025-09-20T12:35:58Z</time>
      </trkpt>
      <trkpt lat="46.2319" lon="4.48527">
        <ele>751.8</ele>
        <time>2025-09-20T12:35:59Z</time>
      </trkpt>
      <trkpt lat="46.2319" lon="4.48525">
        <ele>752</ele>
        <time>2025-09-20T12:36:00Z</time>
      </trkpt>
      <trkpt lat="46.2319" lon="4.48523">
        <ele>752</ele>
        <time>2025-09-20T12:36:01Z</time>
      </trkpt>
      <trkpt lat="46.2319" lon="4.48521">
        <ele>752.2</ele>
        <time>2025-09-20T12:36:02Z</time>
      </trkpt>
      <trkpt lat="46.2319" lon="4.48519">
        <ele>752.6</ele>
        <time>2025-09-20T12:36:03Z</time>
      </trkpt>
      <trkpt lat="46.2319" lon="4.48517">
        <ele>752.6</ele>
        <time>2025-09-20T12:36:04Z</time>
      </trkpt>
      <trkpt lat="46.2319" lon="4.48515">
        <ele>752.8</ele>
        <time>2025-09-20T12:36:05Z</time>
      </trkpt>
      <trkpt lat="46.23189" lon="4.48513">
        <ele>752.8</ele>
        <time>2025-09-20T12:36:06Z</time>
      </trkpt>
      <trkpt lat="46.23189" lon="4.48511">
        <ele>753.2</ele>
        <time>2025-09-20T12:36:07Z</time>
      </trkpt>
      <trkpt lat="46.23188" lon="4.48509">
        <ele>753.2</ele>
        <time>2025-09-20T12:36:08Z</time>
      </trkpt>
      <trkpt lat="46.23188" lon="4.48507">
        <ele>753.6</ele>
        <time>2025-09-20T12:36:09Z</time>
      </trkpt>
      <trkpt lat="46.23188" lon="4.48505">
        <ele>753.6</ele>
        <time>2025-09-20T12:36:10Z</time>
      </trkpt>
      <trkpt lat="46.23187" lon="4.48503">
        <ele>753.8</ele>
        <time>2025-09-20T12:36:11Z</time>
      </trkpt>
      <trkpt lat="46.23187" lon="4.48502">
        <ele>753.8</ele>
        <time>2025-09-20T12:36:12Z</time>
      </trkpt>
      <trkpt lat="46.23187" lon="4.485">
        <ele>754.2</ele>
        <time>2025-09-20T12:36:13Z</time>
      </trkpt>
      <trkpt lat="46.23187" lon="4.48498">
        <ele>754.6</ele>
        <time>2025-09-20T12:36:14Z</time>
      </trkpt>
      <trkpt lat="46.23186" lon="4.48496">
        <ele>754.8</ele>
        <time>2025-09-20T12:36:15Z</time>
      </trkpt>
      <trkpt lat="46.23186" lon="4.48494">
        <ele>754.8</ele>
        <time>2025-09-20T12:36:16Z</time>
      </trkpt>
      <trkpt lat="46.23185" lon="4.48493">
        <ele>755.2</ele>
        <time>2025-09-20T12:36:17Z</time>
      </trkpt>
      <trkpt lat="46.23184" lon="4.48491">
        <ele>755.6</ele>
        <time>2025-09-20T12:36:18Z</time>
      </trkpt>
      <trkpt lat="46.23184" lon="4.48491">
        <ele>755.8</ele>
        <time>2025-09-20T12:36:19Z</time>
      </trkpt>
      <trkpt lat="46.23184" lon="4.48489">
        <ele>755.8</ele>
        <time>2025-09-20T12:36:20Z</time>
      </trkpt>
      <trkpt lat="46.23183" lon="4.48488">
        <ele>755.8</ele>
        <time>2025-09-20T12:36:21Z</time>
      </trkpt>
      <trkpt lat="46.23182" lon="4.48486">
        <ele>756</ele>
        <time>2025-09-20T12:36:22Z</time>
      </trkpt>
      <trkpt lat="46.23182" lon="4.48484">
        <ele>756</ele>
        <time>2025-09-20T12:36:23Z</time>
      </trkpt>
      <trkpt lat="46.23181" lon="4.48482">
        <ele>756</ele>
        <time>2025-09-20T12:36:24Z</time>
      </trkpt>
      <trkpt lat="46.23181" lon="4.4848">
        <ele>756.4</ele>
        <time>2025-09-20T12:36:25Z</time>
      </trkpt>
      <trkpt lat="46.23181" lon="4.48479">
        <ele>756.4</ele>
        <time>2025-09-20T12:36:26Z</time>
      </trkpt>
      <trkpt lat="46.23181" lon="4.48477">
        <ele>756.4</ele>
        <time>2025-09-20T12:36:27Z</time>
      </trkpt>
      <trkpt lat="46.23181" lon="4.48475">
        <ele>756.8</ele>
        <time>2025-09-20T12:36:28Z</time>
      </trkpt>
      <trkpt lat="46.23181" lon="4.48473">
        <ele>756.8</ele>
        <time>2025-09-20T12:36:29Z</time>
      </trkpt>
      <trkpt lat="46.2318" lon="4.48471">
        <ele>757</ele>
        <time>2025-09-20T12:36:30Z</time>
      </trkpt>
      <trkpt lat="46.23178" lon="4.4847">
        <ele>757</ele>
        <time>2025-09-20T12:36:31Z</time>
      </trkpt>
      <trkpt lat="46.23177" lon="4.48469">
        <ele>757</ele>
        <time>2025-09-20T12:36:32Z</time>
      </trkpt>
      <trkpt lat="46.23175" lon="4.48468">
        <ele>757.2</ele>
        <time>2025-09-20T12:36:33Z</time>
      </trkpt>
      <trkpt lat="46.23174" lon="4.48467">
        <ele>757.4</ele>
        <time>2025-09-20T12:36:34Z</time>
      </trkpt>
      <trkpt lat="46.23173" lon="4.48466">
        <ele>757.4</ele>
        <time>2025-09-20T12:36:35Z</time>
      </trkpt>
      <trkpt lat="46.23172" lon="4.48465">
        <ele>757.8</ele>
        <time>2025-09-20T12:36:36Z</time>
      </trkpt>
      <trkpt lat="46.23171" lon="4.48463">
        <ele>757.8</ele>
        <time>2025-09-20T12:36:37Z</time>
      </trkpt>
      <trkpt lat="46.2317" lon="4.48461">
        <ele>758</ele>
        <time>2025-09-20T12:36:38Z</time>
      </trkpt>
      <trkpt lat="46.23169" lon="4.48459">
        <ele>758</ele>
        <time>2025-09-20T12:36:39Z</time>
      </trkpt>
      <trkpt lat="46.23168" lon="4.48458">
        <ele>758.4</ele>
        <time>2025-09-20T12:36:40Z</time>
      </trkpt>
      <trkpt lat="46.23167" lon="4.48456">
        <ele>758.4</ele>
        <time>2025-09-20T12:36:41Z</time>
      </trkpt>
      <trkpt lat="46.23165" lon="4.48455">
        <ele>758.8</ele>
        <time>2025-09-20T12:36:42Z</time>
      </trkpt>
      <trkpt lat="46.23164" lon="4.48454">
        <ele>759</ele>
        <time>2025-09-20T12:36:43Z</time>
      </trkpt>
      <trkpt lat="46.23163" lon="4.48453">
        <ele>759.4</ele>
        <time>2025-09-20T12:36:44Z</time>
      </trkpt>
      <trkpt lat="46.23162" lon="4.48451">
        <ele>759.4</ele>
        <time>2025-09-20T12:36:45Z</time>
      </trkpt>
      <trkpt lat="46.23161" lon="4.48449">
        <ele>759.6</ele>
        <time>2025-09-20T12:36:46Z</time>
      </trkpt>
      <trkpt lat="46.2316" lon="4.48447">
        <ele>759.8</ele>
        <time>2025-09-20T12:36:47Z</time>
      </trkpt>
      <trkpt lat="46.23159" lon="4.48445">
        <ele>759.8</ele>
        <time>2025-09-20T12:36:48Z</time>
      </trkpt>
      <trkpt lat="46.23159" lon="4.48443">
        <ele>760.2</ele>
        <time>2025-09-20T12:36:49Z</time>
      </trkpt>
      <trkpt lat="46.23158" lon="4.48442">
        <ele>760.2</ele>
        <time>2025-09-20T12:36:50Z</time>
      </trkpt>
      <trkpt lat="46.23157" lon="4.4844">
        <ele>760.4</ele>
        <time>2025-09-20T12:36:51Z</time>
      </trkpt>
      <trkpt lat="46.23156" lon="4.48439">
        <ele>760.6</ele>
        <time>2025-09-20T12:36:52Z</time>
      </trkpt>
      <trkpt lat="46.23155" lon="4.48438">
        <ele>760.6</ele>
        <time>2025-09-20T12:36:53Z</time>
      </trkpt>
      <trkpt lat="46.23153" lon="4.48437">
        <ele>761</ele>
        <time>2025-09-20T12:36:54Z</time>
      </trkpt>
      <trkpt lat="46.23152" lon="4.48436">
        <ele>761</ele>
        <time>2025-09-20T12:36:55Z</time>
      </trkpt>
      <trkpt lat="46.23151" lon="4.48434">
        <ele>761.4</ele>
        <time>2025-09-20T12:36:56Z</time>
      </trkpt>
      <trkpt lat="46.23151" lon="4.48433">
        <ele>761.4</ele>
        <time>2025-09-20T12:36:57Z</time>
      </trkpt>
      <trkpt lat="46.2315" lon="4.48431">
        <ele>761.8</ele>
        <time>2025-09-20T12:36:58Z</time>
      </trkpt>
      <trkpt lat="46.23149" lon="4.48429">
        <ele>761.8</ele>
        <time>2025-09-20T12:36:59Z</time>
      </trkpt>
      <trkpt lat="46.23148" lon="4.48428">
        <ele>762.2</ele>
        <time>2025-09-20T12:37:00Z</time>
      </trkpt>
      <trkpt lat="46.23147" lon="4.48427">
        <ele>762.2</ele>
        <time>2025-09-20T12:37:01Z</time>
      </trkpt>
      <trkpt lat="46.23146" lon="4.48426">
        <ele>762.4</ele>
        <time>2025-09-20T12:37:02Z</time>
      </trkpt>
      <trkpt lat="46.23145" lon="4.48425">
        <ele>762.4</ele>
        <time>2025-09-20T12:37:03Z</time>
      </trkpt>
      <trkpt lat="46.23144" lon="4.48424">
        <ele>762.6</ele>
        <time>2025-09-20T12:37:04Z</time>
      </trkpt>
      <trkpt lat="46.23143" lon="4.48422">
        <ele>763</ele>
        <time>2025-09-20T12:37:05Z</time>
      </trkpt>
      <trkpt lat="46.23142" lon="4.4842">
        <ele>763</ele>
        <time>2025-09-20T12:37:06Z</time>
      </trkpt>
      <trkpt lat="46.23141" lon="4.48418">
        <ele>763.4</ele>
        <time>2025-09-20T12:37:07Z</time>
      </trkpt>
      <trkpt lat="46.2314" lon="4.48417">
        <ele>763.4</ele>
        <time>2025-09-20T12:37:08Z</time>
      </trkpt>
      <trkpt lat="46.23139" lon="4.48416">
        <ele>763.4</ele>
        <time>2025-09-20T12:37:09Z</time>
      </trkpt>
      <trkpt lat="46.23138" lon="4.48414">
        <ele>763.8</ele>
        <time>2025-09-20T12:37:10Z</time>
      </trkpt>
      <trkpt lat="46.23137" lon="4.48413">
        <ele>764</ele>
        <time>2025-09-20T12:37:11Z</time>
      </trkpt>
      <trkpt lat="46.23136" lon="4.48412">
        <ele>764.2</ele>
        <time>2025-09-20T12:37:12Z</time>
      </trkpt>
      <trkpt lat="46.23135" lon="4.4841">
        <ele>764.4</ele>
        <time>2025-09-20T12:37:13Z</time>
      </trkpt>
      <trkpt lat="46.23133" lon="4.48409">
        <ele>764.4</ele>
        <time>2025-09-20T12:37:14Z</time>
      </trkpt>
      <trkpt lat="46.23132" lon="4.48408">
        <ele>764.4</ele>
        <time>2025-09-20T12:37:15Z</time>
      </trkpt>
      <trkpt lat="46.23131" lon="4.48407">
        <ele>764.6</ele>
        <time>2025-09-20T12:37:16Z</time>
      </trkpt>
      <trkpt lat="46.2313" lon="4.48405">
        <ele>764.8</ele>
        <time>2025-09-20T12:37:17Z</time>
      </trkpt>
      <trkpt lat="46.23128" lon="4.48404">
        <ele>764.8</ele>
        <time>2025-09-20T12:37:18Z</time>
      </trkpt>
      <trkpt lat="46.23127" lon="4.48404">
        <ele>765.2</ele>
        <time>2025-09-20T12:37:19Z</time>
      </trkpt>
      <trkpt lat="46.23125" lon="4.48402">
        <ele>765.4</ele>
        <time>2025-09-20T12:37:20Z</time>
      </trkpt>
      <trkpt lat="46.23124" lon="4.48401">
        <ele>765.4</ele>
        <time>2025-09-20T12:37:21Z</time>
      </trkpt>
      <trkpt lat="46.23122" lon="4.48399">
        <ele>765.4</ele>
        <time>2025-09-20T12:37:22Z</time>
      </trkpt>
      <trkpt lat="46.23121" lon="4.48398">
        <ele>765.4</ele>
        <time>2025-09-20T12:37:23Z</time>
      </trkpt>
      <trkpt lat="46.2312" lon="4.48396">
        <ele>765.8</ele>
        <time>2025-09-20T12:37:24Z</time>
      </trkpt>
      <trkpt lat="46.23118" lon="4.48395">
        <ele>765.8</ele>
        <time>2025-09-20T12:37:25Z</time>
      </trkpt>
      <trkpt lat="46.23116" lon="4.48394">
        <ele>765.8</ele>
        <time>2025-09-20T12:37:26Z</time>
      </trkpt>
      <trkpt lat="46.23114" lon="4.48393">
        <ele>765.8</ele>
        <time>2025-09-20T12:37:27Z</time>
      </trkpt>
      <trkpt lat="46.23112" lon="4.48393">
        <ele>766</ele>
        <time>2025-09-20T12:37:28Z</time>
      </trkpt>
      <trkpt lat="46.2311" lon="4.48391">
        <ele>766</ele>
        <time>2025-09-20T12:37:29Z</time>
      </trkpt>
      <trkpt lat="46.23109" lon="4.4839">
        <ele>766.4</ele>
        <time>2025-09-20T12:37:30Z</time>
      </trkpt>
      <trkpt lat="46.23107" lon="4.48389">
        <ele>766.4</ele>
        <time>2025-09-20T12:37:31Z</time>
      </trkpt>
      <trkpt lat="46.23105" lon="4.48387">
        <ele>766.6</ele>
        <time>2025-09-20T12:37:32Z</time>
      </trkpt>
      <trkpt lat="46.23103" lon="4.48387">
        <ele>766.6</ele>
        <time>2025-09-20T12:37:33Z</time>
      </trkpt>
      <trkpt lat="46.23101" lon="4.48386">
        <ele>766.8</ele>
        <time>2025-09-20T12:37:34Z</time>
      </trkpt>
      <trkpt lat="46.231" lon="4.48386">
        <ele>766.8</ele>
        <time>2025-09-20T12:37:35Z</time>
      </trkpt>
      <trkpt lat="46.23098" lon="4.48386">
        <ele>766.8</ele>
        <time>2025-09-20T12:37:36Z</time>
      </trkpt>
      <trkpt lat="46.23096" lon="4.48386">
        <ele>766.8</ele>
        <time>2025-09-20T12:37:37Z</time>
      </trkpt>
      <trkpt lat="46.23094" lon="4.48387">
        <ele>766.8</ele>
        <time>2025-09-20T12:37:38Z</time>
      </trkpt>
      <trkpt lat="46.23093" lon="4.48387">
        <ele>766.8</ele>
        <time>2025-09-20T12:37:39Z</time>
      </trkpt>
      <trkpt lat="46.2309" lon="4.48386">
        <ele>767.2</ele>
        <time>2025-09-20T12:37:40Z</time>
      </trkpt>
      <trkpt lat="46.23087" lon="4.48386">
        <ele>767.6</ele>
        <time>2025-09-20T12:37:41Z</time>
      </trkpt>
      <trkpt lat="46.23085" lon="4.48385">
        <ele>767.6</ele>
        <time>2025-09-20T12:37:42Z</time>
      </trkpt>
      <trkpt lat="46.23083" lon="4.48384">
        <ele>767.8</ele>
        <time>2025-09-20T12:37:43Z</time>
      </trkpt>
      <trkpt lat="46.2308" lon="4.48383">
        <ele>768.2</ele>
        <time>2025-09-20T12:37:44Z</time>
      </trkpt>
      <trkpt lat="46.23077" lon="4.48382">
        <ele>768.4</ele>
        <time>2025-09-20T12:37:45Z</time>
      </trkpt>
      <trkpt lat="46.23075" lon="4.48381">
        <ele>768.4</ele>
        <time>2025-09-20T12:37:46Z</time>
      </trkpt>
      <trkpt lat="46.23072" lon="4.4838">
        <ele>768.6</ele>
        <time>2025-09-20T12:37:47Z</time>
      </trkpt>
      <trkpt lat="46.23069" lon="4.48379">
        <ele>768.6</ele>
        <time>2025-09-20T12:37:48Z</time>
      </trkpt>
      <trkpt lat="46.23067" lon="4.48378">
        <ele>768.8</ele>
        <time>2025-09-20T12:37:49Z</time>
      </trkpt>
      <trkpt lat="46.23065" lon="4.48377">
        <ele>768.8</ele>
        <time>2025-09-20T12:37:50Z</time>
      </trkpt>
      <trkpt lat="46.23063" lon="4.48376">
        <ele>769.2</ele>
        <time>2025-09-20T12:37:51Z</time>
      </trkpt>
      <trkpt lat="46.2306" lon="4.48375">
        <ele>769.6</ele>
        <time>2025-09-20T12:37:52Z</time>
      </trkpt>
      <trkpt lat="46.23058" lon="4.48374">
        <ele>769.6</ele>
        <time>2025-09-20T12:37:53Z</time>
      </trkpt>
      <trkpt lat="46.23056" lon="4.48374">
        <ele>769.6</ele>
        <time>2025-09-20T12:37:54Z</time>
      </trkpt>
      <trkpt lat="46.23054" lon="4.48373">
        <ele>769.8</ele>
        <time>2025-09-20T12:37:55Z</time>
      </trkpt>
      <trkpt lat="46.23052" lon="4.48373">
        <ele>770</ele>
        <time>2025-09-20T12:37:56Z</time>
      </trkpt>
      <trkpt lat="46.2305" lon="4.48373">
        <ele>770.4</ele>
        <time>2025-09-20T12:37:57Z</time>
      </trkpt>
      <trkpt lat="46.23048" lon="4.48373">
        <ele>770.4</ele>
        <time>2025-09-20T12:37:58Z</time>
      </trkpt>
      <trkpt lat="46.23046" lon="4.48373">
        <ele>770.4</ele>
        <time>2025-09-20T12:37:59Z</time>
      </trkpt>
      <trkpt lat="46.23045" lon="4.48373">
        <ele>770.4</ele>
        <time>2025-09-20T12:38:00Z</time>
      </trkpt>
      <trkpt lat="46.23042" lon="4.48372">
        <ele>770.6</ele>
        <time>2025-09-20T12:38:01Z</time>
      </trkpt>
      <trkpt lat="46.2304" lon="4.48372">
        <ele>770.6</ele>
        <time>2025-09-20T12:38:02Z</time>
      </trkpt>
      <trkpt lat="46.23038" lon="4.48372">
        <ele>771</ele>
        <time>2025-09-20T12:38:03Z</time>
      </trkpt>
      <trkpt lat="46.23036" lon="4.48371">
        <ele>771</ele>
        <time>2025-09-20T12:38:04Z</time>
      </trkpt>
      <trkpt lat="46.23034" lon="4.48371">
        <ele>771.4</ele>
        <time>2025-09-20T12:38:05Z</time>
      </trkpt>
      <trkpt lat="46.23031" lon="4.4837">
        <ele>771.4</ele>
        <time>2025-09-20T12:38:06Z</time>
      </trkpt>
      <trkpt lat="46.23029" lon="4.4837">
        <ele>771.4</ele>
        <time>2025-09-20T12:38:07Z</time>
      </trkpt>
      <trkpt lat="46.23027" lon="4.4837">
        <ele>771.8</ele>
        <time>2025-09-20T12:38:08Z</time>
      </trkpt>
      <trkpt lat="46.23024" lon="4.48369">
        <ele>771.8</ele>
        <time>2025-09-20T12:38:09Z</time>
      </trkpt>
      <trkpt lat="46.23022" lon="4.48369">
        <ele>771.8</ele>
        <time>2025-09-20T12:38:10Z</time>
      </trkpt>
      <trkpt lat="46.2302" lon="4.4837">
        <ele>772</ele>
        <time>2025-09-20T12:38:11Z</time>
      </trkpt>
      <trkpt lat="46.23018" lon="4.4837">
        <ele>772</ele>
        <time>2025-09-20T12:38:12Z</time>
      </trkpt>
      <trkpt lat="46.23015" lon="4.48371">
        <ele>772</ele>
        <time>2025-09-20T12:38:13Z</time>
      </trkpt>
      <trkpt lat="46.23014" lon="4.48371">
        <ele>772.4</ele>
        <time>2025-09-20T12:38:14Z</time>
      </trkpt>
      <trkpt lat="46.23012" lon="4.4837">
        <ele>772.4</ele>
        <time>2025-09-20T12:38:15Z</time>
      </trkpt>
      <trkpt lat="46.23011" lon="4.48369">
        <ele>772.8</ele>
        <time>2025-09-20T12:38:16Z</time>
      </trkpt>
      <trkpt lat="46.23009" lon="4.48368">
        <ele>772.8</ele>
        <time>2025-09-20T12:38:17Z</time>
      </trkpt>
      <trkpt lat="46.23008" lon="4.48368">
        <ele>772.8</ele>
        <time>2025-09-20T12:38:18Z</time>
      </trkpt>
      <trkpt lat="46.23005" lon="4.48368">
        <ele>772.8</ele>
        <time>2025-09-20T12:38:19Z</time>
      </trkpt>
      <trkpt lat="46.23003" lon="4.48367">
        <ele>773.2</ele>
        <time>2025-09-20T12:38:20Z</time>
      </trkpt>
      <trkpt lat="46.23001" lon="4.48367">
        <ele>773.2</ele>
        <time>2025-09-20T12:38:21Z</time>
      </trkpt>
      <trkpt lat="46.22998" lon="4.48367">
        <ele>773.2</ele>
        <time>2025-09-20T12:38:22Z</time>
      </trkpt>
      <trkpt lat="46.22996" lon="4.48367">
        <ele>773.4</ele>
        <time>2025-09-20T12:38:23Z</time>
      </trkpt>
      <trkpt lat="46.22993" lon="4.48366">
        <ele>773.4</ele>
        <time>2025-09-20T12:38:24Z</time>
      </trkpt>
      <trkpt lat="46.22991" lon="4.48365">
        <ele>773.6</ele>
        <time>2025-09-20T12:38:25Z</time>
      </trkpt>
      <trkpt lat="46.22988" lon="4.48364">
        <ele>773.6</ele>
        <time>2025-09-20T12:38:26Z</time>
      </trkpt>
      <trkpt lat="46.22986" lon="4.48362">
        <ele>773.6</ele>
        <time>2025-09-20T12:38:27Z</time>
      </trkpt>
      <trkpt lat="46.22984" lon="4.48361">
        <ele>773.6</ele>
        <time>2025-09-20T12:38:28Z</time>
      </trkpt>
      <trkpt lat="46.22982" lon="4.4836">
        <ele>773.6</ele>
        <time>2025-09-20T12:38:29Z</time>
      </trkpt>
      <trkpt lat="46.22979" lon="4.48358">
        <ele>774</ele>
        <time>2025-09-20T12:38:30Z</time>
      </trkpt>
      <trkpt lat="46.22976" lon="4.48356">
        <ele>774</ele>
        <time>2025-09-20T12:38:31Z</time>
      </trkpt>
      <trkpt lat="46.22973" lon="4.48355">
        <ele>774.2</ele>
        <time>2025-09-20T12:38:32Z</time>
      </trkpt>
      <trkpt lat="46.2297" lon="4.48353">
        <ele>774.2</ele>
        <time>2025-09-20T12:38:33Z</time>
      </trkpt>
      <trkpt lat="46.22967" lon="4.48351">
        <ele>774.4</ele>
        <time>2025-09-20T12:38:34Z</time>
      </trkpt>
      <trkpt lat="46.22964" lon="4.48349">
        <ele>774.4</ele>
        <time>2025-09-20T12:38:35Z</time>
      </trkpt>
      <trkpt lat="46.22961" lon="4.48347">
        <ele>774.4</ele>
        <time>2025-09-20T12:38:36Z</time>
      </trkpt>
      <trkpt lat="46.22958" lon="4.48345">
        <ele>774.4</ele>
        <time>2025-09-20T12:38:37Z</time>
      </trkpt>
      <trkpt lat="46.22956" lon="4.48343">
        <ele>774.4</ele>
        <time>2025-09-20T12:38:38Z</time>
      </trkpt>
      <trkpt lat="46.22954" lon="4.48342">
        <ele>774.8</ele>
        <time>2025-09-20T12:38:39Z</time>
      </trkpt>
      <trkpt lat="46.22952" lon="4.48341">
        <ele>774.8</ele>
        <time>2025-09-20T12:38:40Z</time>
      </trkpt>
      <trkpt lat="46.2295" lon="4.48341">
        <ele>775.4</ele>
        <time>2025-09-20T12:38:41Z</time>
      </trkpt>
      <trkpt lat="46.22948" lon="4.48341">
        <ele>775.4</ele>
        <time>2025-09-20T12:38:42Z</time>
      </trkpt>
      <trkpt lat="46.22945" lon="4.48341">
        <ele>775.8</ele>
        <time>2025-09-20T12:38:43Z</time>
      </trkpt>
      <trkpt lat="46.22942" lon="4.48341">
        <ele>776</ele>
        <time>2025-09-20T12:38:44Z</time>
      </trkpt>
      <trkpt lat="46.2294" lon="4.48341">
        <ele>776.4</ele>
        <time>2025-09-20T12:38:45Z</time>
      </trkpt>
      <trkpt lat="46.22937" lon="4.4834">
        <ele>776.6</ele>
        <time>2025-09-20T12:38:46Z</time>
      </trkpt>
      <trkpt lat="46.22935" lon="4.4834">
        <ele>777</ele>
        <time>2025-09-20T12:38:47Z</time>
      </trkpt>
      <trkpt lat="46.22933" lon="4.48339">
        <ele>777.2</ele>
        <time>2025-09-20T12:38:48Z</time>
      </trkpt>
      <trkpt lat="46.22931" lon="4.48338">
        <ele>777.4</ele>
        <time>2025-09-20T12:38:49Z</time>
      </trkpt>
      <trkpt lat="46.22929" lon="4.48337">
        <ele>777.6</ele>
        <time>2025-09-20T12:38:50Z</time>
      </trkpt>
      <trkpt lat="46.22928" lon="4.48336">
        <ele>778</ele>
        <time>2025-09-20T12:38:51Z</time>
      </trkpt>
      <trkpt lat="46.22927" lon="4.48335">
        <ele>778</ele>
        <time>2025-09-20T12:38:52Z</time>
      </trkpt>
      <trkpt lat="46.22926" lon="4.48334">
        <ele>778</ele>
        <time>2025-09-20T12:38:53Z</time>
      </trkpt>
      <trkpt lat="46.22924" lon="4.48334">
        <ele>778.4</ele>
        <time>2025-09-20T12:38:54Z</time>
      </trkpt>
      <trkpt lat="46.22922" lon="4.48334">
        <ele>778.4</ele>
        <time>2025-09-20T12:38:55Z</time>
      </trkpt>
      <trkpt lat="46.22919" lon="4.48334">
        <ele>779</ele>
        <time>2025-09-20T12:38:56Z</time>
      </trkpt>
      <trkpt lat="46.22916" lon="4.48334">
        <ele>779.2</ele>
        <time>2025-09-20T12:38:57Z</time>
      </trkpt>
      <trkpt lat="46.22914" lon="4.48334">
        <ele>779.2</ele>
        <time>2025-09-20T12:38:58Z</time>
      </trkpt>
      <trkpt lat="46.22912" lon="4.48335">
        <ele>779.6</ele>
        <time>2025-09-20T12:38:59Z</time>
      </trkpt>
      <trkpt lat="46.22911" lon="4.48334">
        <ele>779.8</ele>
        <time>2025-09-20T12:39:00Z</time>
      </trkpt>
      <trkpt lat="46.22909" lon="4.48333">
        <ele>780.2</ele>
        <time>2025-09-20T12:39:01Z</time>
      </trkpt>
      <trkpt lat="46.22908" lon="4.48332">
        <ele>780.4</ele>
        <time>2025-09-20T12:39:02Z</time>
      </trkpt>
      <trkpt lat="46.22907" lon="4.48332">
        <ele>780.8</ele>
        <time>2025-09-20T12:39:03Z</time>
      </trkpt>
      <trkpt lat="46.22907" lon="4.48333">
        <ele>781</ele>
        <time>2025-09-20T12:39:04Z</time>
      </trkpt>
      <trkpt lat="46.22906" lon="4.48332">
        <ele>781.2</ele>
        <time>2025-09-20T12:39:05Z</time>
      </trkpt>
      <trkpt lat="46.22904" lon="4.48333">
        <ele>781.4</ele>
        <time>2025-09-20T12:39:06Z</time>
      </trkpt>
      <trkpt lat="46.22902" lon="4.48332">
        <ele>781.8</ele>
        <time>2025-09-20T12:39:07Z</time>
      </trkpt>
      <trkpt lat="46.229" lon="4.48331">
        <ele>781.8</ele>
        <time>2025-09-20T12:39:08Z</time>
      </trkpt>
      <trkpt lat="46.22898" lon="4.4833">
        <ele>781.8</ele>
        <time>2025-09-20T12:39:09Z</time>
      </trkpt>
      <trkpt lat="46.22896" lon="4.48328">
        <ele>782.2</ele>
        <time>2025-09-20T12:39:10Z</time>
      </trkpt>
      <trkpt lat="46.22894" lon="4.48327">
        <ele>782.2</ele>
        <time>2025-09-20T12:39:11Z</time>
      </trkpt>
      <trkpt lat="46.22893" lon="4.48326">
        <ele>782.4</ele>
        <time>2025-09-20T12:39:12Z</time>
      </trkpt>
      <trkpt lat="46.22892" lon="4.48325">
        <ele>782.4</ele>
        <time>2025-09-20T12:39:13Z</time>
      </trkpt>
      <trkpt lat="46.2289" lon="4.48325">
        <ele>782.6</ele>
        <time>2025-09-20T12:39:14Z</time>
      </trkpt>
      <trkpt lat="46.22888" lon="4.48324">
        <ele>782.6</ele>
        <time>2025-09-20T12:39:15Z</time>
      </trkpt>
      <trkpt lat="46.22887" lon="4.48323">
        <ele>783</ele>
        <time>2025-09-20T12:39:16Z</time>
      </trkpt>
      <trkpt lat="46.22886" lon="4.48322">
        <ele>783</ele>
        <time>2025-09-20T12:39:17Z</time>
      </trkpt>
      <trkpt lat="46.22883" lon="4.4832">
        <ele>783</ele>
        <time>2025-09-20T12:39:18Z</time>
      </trkpt>
      <trkpt lat="46.22881" lon="4.48319">
        <ele>783.2</ele>
        <time>2025-09-20T12:39:19Z</time>
      </trkpt>
      <trkpt lat="46.2288" lon="4.48318">
        <ele>783.2</ele>
        <time>2025-09-20T12:39:20Z</time>
      </trkpt>
      <trkpt lat="46.22879" lon="4.48318">
        <ele>783.6</ele>
        <time>2025-09-20T12:39:21Z</time>
      </trkpt>
      <trkpt lat="46.22877" lon="4.48318">
        <ele>783.6</ele>
        <time>2025-09-20T12:39:22Z</time>
      </trkpt>
      <trkpt lat="46.22876" lon="4.48317">
        <ele>783.8</ele>
        <time>2025-09-20T12:39:23Z</time>
      </trkpt>
      <trkpt lat="46.22874" lon="4.48317">
        <ele>783.8</ele>
        <time>2025-09-20T12:39:24Z</time>
      </trkpt>
      <trkpt lat="46.22873" lon="4.48316">
        <ele>784.2</ele>
        <time>2025-09-20T12:39:25Z</time>
      </trkpt>
      <trkpt lat="46.22871" lon="4.48316">
        <ele>784.2</ele>
        <time>2025-09-20T12:39:26Z</time>
      </trkpt>
      <trkpt lat="46.2287" lon="4.48315">
        <ele>784.2</ele>
        <time>2025-09-20T12:39:27Z</time>
      </trkpt>
      <trkpt lat="46.2287" lon="4.48316">
        <ele>784.4</ele>
        <time>2025-09-20T12:39:28Z</time>
      </trkpt>
      <trkpt lat="46.22869" lon="4.48317">
        <ele>784.4</ele>
        <time>2025-09-20T12:39:29Z</time>
      </trkpt>
      <trkpt lat="46.22868" lon="4.48318">
        <ele>784.6</ele>
        <time>2025-09-20T12:39:30Z</time>
      </trkpt>
      <trkpt lat="46.22867" lon="4.48318">
        <ele>784.6</ele>
        <time>2025-09-20T12:39:31Z</time>
      </trkpt>
      <trkpt lat="46.22865" lon="4.48318">
        <ele>785</ele>
        <time>2025-09-20T12:39:32Z</time>
      </trkpt>
      <trkpt lat="46.22863" lon="4.48319">
        <ele>785.2</ele>
        <time>2025-09-20T12:39:33Z</time>
      </trkpt>
      <trkpt lat="46.22861" lon="4.48319">
        <ele>785.2</ele>
        <time>2025-09-20T12:39:34Z</time>
      </trkpt>
      <trkpt lat="46.2286" lon="4.4832">
        <ele>785.2</ele>
        <time>2025-09-20T12:39:35Z</time>
      </trkpt>
      <trkpt lat="46.22859" lon="4.48321">
        <ele>785.4</ele>
        <time>2025-09-20T12:39:36Z</time>
      </trkpt>
      <trkpt lat="46.22857" lon="4.48321">
        <ele>785.4</ele>
        <time>2025-09-20T12:39:37Z</time>
      </trkpt>
      <trkpt lat="46.22855" lon="4.48322">
        <ele>785.8</ele>
        <time>2025-09-20T12:39:38Z</time>
      </trkpt>
      <trkpt lat="46.22854" lon="4.48322">
        <ele>785.8</ele>
        <time>2025-09-20T12:39:39Z</time>
      </trkpt>
      <trkpt lat="46.22853" lon="4.48323">
        <ele>786.2</ele>
        <time>2025-09-20T12:39:40Z</time>
      </trkpt>
      <trkpt lat="46.22851" lon="4.48323">
        <ele>786.6</ele>
        <time>2025-09-20T12:39:41Z</time>
      </trkpt>
      <trkpt lat="46.2285" lon="4.48323">
        <ele>786.8</ele>
        <time>2025-09-20T12:39:42Z</time>
      </trkpt>
      <trkpt lat="46.22849" lon="4.48325">
        <ele>787.2</ele>
        <time>2025-09-20T12:39:43Z</time>
      </trkpt>
      <trkpt lat="46.22848" lon="4.48325">
        <ele>787.6</ele>
        <time>2025-09-20T12:39:44Z</time>
      </trkpt>
      <trkpt lat="46.22847" lon="4.48327">
        <ele>788</ele>
        <time>2025-09-20T12:39:45Z</time>
      </trkpt>
      <trkpt lat="46.22846" lon="4.48328">
        <ele>788.2</ele>
        <time>2025-09-20T12:39:46Z</time>
      </trkpt>
      <trkpt lat="46.22845" lon="4.48329">
        <ele>788.4</ele>
        <time>2025-09-20T12:39:47Z</time>
      </trkpt>
      <trkpt lat="46.22844" lon="4.4833">
        <ele>788.8</ele>
        <time>2025-09-20T12:39:48Z</time>
      </trkpt>
      <trkpt lat="46.22843" lon="4.4833">
        <ele>789</ele>
        <time>2025-09-20T12:39:49Z</time>
      </trkpt>
      <trkpt lat="46.22842" lon="4.48331">
        <ele>789</ele>
        <time>2025-09-20T12:39:50Z</time>
      </trkpt>
      <trkpt lat="46.2284" lon="4.4833">
        <ele>789</ele>
        <time>2025-09-20T12:39:51Z</time>
      </trkpt>
      <trkpt lat="46.2284" lon="4.4833">
        <ele>789.4</ele>
        <time>2025-09-20T12:39:52Z</time>
      </trkpt>
      <trkpt lat="46.22839" lon="4.4833">
        <ele>789.6</ele>
        <time>2025-09-20T12:39:53Z</time>
      </trkpt>
      <trkpt lat="46.22837" lon="4.4833">
        <ele>789.8</ele>
        <time>2025-09-20T12:39:54Z</time>
      </trkpt>
      <trkpt lat="46.22836" lon="4.4833">
        <ele>789.8</ele>
        <time>2025-09-20T12:39:55Z</time>
      </trkpt>
      <trkpt lat="46.22835" lon="4.48329">
        <ele>790.2</ele>
        <time>2025-09-20T12:39:56Z</time>
      </trkpt>
      <trkpt lat="46.22834" lon="4.4833">
        <ele>790.2</ele>
        <time>2025-09-20T12:39:57Z</time>
      </trkpt>
      <trkpt lat="46.22832" lon="4.48331">
        <ele>790.4</ele>
        <time>2025-09-20T12:39:58Z</time>
      </trkpt>
      <trkpt lat="46.2283" lon="4.48332">
        <ele>790.6</ele>
        <time>2025-09-20T12:39:59Z</time>
      </trkpt>
      <trkpt lat="46.22829" lon="4.48332">
        <ele>790.6</ele>
        <time>2025-09-20T12:40:00Z</time>
      </trkpt>
      <trkpt lat="46.22828" lon="4.48334">
        <ele>791</ele>
        <time>2025-09-20T12:40:01Z</time>
      </trkpt>
      <trkpt lat="46.22827" lon="4.48335">
        <ele>791.2</ele>
        <time>2025-09-20T12:40:02Z</time>
      </trkpt>
      <trkpt lat="46.22826" lon="4.48337">
        <ele>791.2</ele>
        <time>2025-09-20T12:40:03Z</time>
      </trkpt>
      <trkpt lat="46.22826" lon="4.48338">
        <ele>791.6</ele>
        <time>2025-09-20T12:40:04Z</time>
      </trkpt>
      <trkpt lat="46.22826" lon="4.4834">
        <ele>791.6</ele>
        <time>2025-09-20T12:40:05Z</time>
      </trkpt>
      <trkpt lat="46.22825" lon="4.48341">
        <ele>792</ele>
        <time>2025-09-20T12:40:06Z</time>
      </trkpt>
      <trkpt lat="46.22824" lon="4.48342">
        <ele>792.4</ele>
        <time>2025-09-20T12:40:07Z</time>
      </trkpt>
      <trkpt lat="46.22823" lon="4.48342">
        <ele>792.6</ele>
        <time>2025-09-20T12:40:08Z</time>
      </trkpt>
      <trkpt lat="46.22822" lon="4.48342">
        <ele>792.6</ele>
        <time>2025-09-20T12:40:09Z</time>
      </trkpt>
      <trkpt lat="46.22821" lon="4.48343">
        <ele>793</ele>
        <time>2025-09-20T12:40:10Z</time>
      </trkpt>
      <trkpt lat="46.2282" lon="4.48343">
        <ele>793.2</ele>
        <time>2025-09-20T12:40:11Z</time>
      </trkpt>
      <trkpt lat="46.22819" lon="4.48344">
        <ele>793.2</ele>
        <time>2025-09-20T12:40:12Z</time>
      </trkpt>
      <trkpt lat="46.22819" lon="4.48345">
        <ele>793.4</ele>
        <time>2025-09-20T12:40:13Z</time>
      </trkpt>
      <trkpt lat="46.22818" lon="4.48346">
        <ele>793.4</ele>
        <time>2025-09-20T12:40:14Z</time>
      </trkpt>
      <trkpt lat="46.22818" lon="4.48346">
        <ele>793.8</ele>
        <time>2025-09-20T12:40:15Z</time>
      </trkpt>
      <trkpt lat="46.22817" lon="4.48346">
        <ele>793.8</ele>
        <time>2025-09-20T12:40:16Z</time>
      </trkpt>
      <trkpt lat="46.22816" lon="4.48346">
        <ele>794</ele>
        <time>2025-09-20T12:40:17Z</time>
      </trkpt>
      <trkpt lat="46.22815" lon="4.48346">
        <ele>794.2</ele>
        <time>2025-09-20T12:40:18Z</time>
      </trkpt>
      <trkpt lat="46.22814" lon="4.48346">
        <ele>794.4</ele>
        <time>2025-09-20T12:40:19Z</time>
      </trkpt>
      <trkpt lat="46.22814" lon="4.48347">
        <ele>794.8</ele>
        <time>2025-09-20T12:40:20Z</time>
      </trkpt>
      <trkpt lat="46.22813" lon="4.48349">
        <ele>794.8</ele>
        <time>2025-09-20T12:40:21Z</time>
      </trkpt>
      <trkpt lat="46.22812" lon="4.4835">
        <ele>795.2</ele>
        <time>2025-09-20T12:40:22Z</time>
      </trkpt>
      <trkpt lat="46.22812" lon="4.48351">
        <ele>795.4</ele>
        <time>2025-09-20T12:40:23Z</time>
      </trkpt>
      <trkpt lat="46.22811" lon="4.48352">
        <ele>795.6</ele>
        <time>2025-09-20T12:40:24Z</time>
      </trkpt>
      <trkpt lat="46.2281" lon="4.48352">
        <ele>795.6</ele>
        <time>2025-09-20T12:40:25Z</time>
      </trkpt>
      <trkpt lat="46.22808" lon="4.48352">
        <ele>796.2</ele>
        <time>2025-09-20T12:40:26Z</time>
      </trkpt>
      <trkpt lat="46.22807" lon="4.48352">
        <ele>796.4</ele>
        <time>2025-09-20T12:40:27Z</time>
      </trkpt>
      <trkpt lat="46.22806" lon="4.48353">
        <ele>796.4</ele>
        <time>2025-09-20T12:40:28Z</time>
      </trkpt>
      <trkpt lat="46.22804" lon="4.48354">
        <ele>797</ele>
        <time>2025-09-20T12:40:29Z</time>
      </trkpt>
      <trkpt lat="46.22803" lon="4.48354">
        <ele>797</ele>
        <time>2025-09-20T12:40:30Z</time>
      </trkpt>
      <trkpt lat="46.22802" lon="4.48355">
        <ele>797.2</ele>
        <time>2025-09-20T12:40:31Z</time>
      </trkpt>
      <trkpt lat="46.228" lon="4.48355">
        <ele>797.2</ele>
        <time>2025-09-20T12:40:32Z</time>
      </trkpt>
      <trkpt lat="46.22799" lon="4.48355">
        <ele>797.6</ele>
        <time>2025-09-20T12:40:33Z</time>
      </trkpt>
      <trkpt lat="46.22798" lon="4.48356">
        <ele>797.6</ele>
        <time>2025-09-20T12:40:34Z</time>
      </trkpt>
      <trkpt lat="46.22797" lon="4.48356">
        <ele>797.8</ele>
        <time>2025-09-20T12:40:35Z</time>
      </trkpt>
      <trkpt lat="46.22795" lon="4.48357">
        <ele>798</ele>
        <time>2025-09-20T12:40:36Z</time>
      </trkpt>
      <trkpt lat="46.22793" lon="4.48357">
        <ele>798</ele>
        <time>2025-09-20T12:40:37Z</time>
      </trkpt>
      <trkpt lat="46.22792" lon="4.48358">
        <ele>798.6</ele>
        <time>2025-09-20T12:40:38Z</time>
      </trkpt>
      <trkpt lat="46.22791" lon="4.48358">
        <ele>798.6</ele>
        <time>2025-09-20T12:40:39Z</time>
      </trkpt>
      <trkpt lat="46.22789" lon="4.48359">
        <ele>799</ele>
        <time>2025-09-20T12:40:40Z</time>
      </trkpt>
      <trkpt lat="46.22788" lon="4.4836">
        <ele>799.2</ele>
        <time>2025-09-20T12:40:41Z</time>
      </trkpt>
      <trkpt lat="46.22786" lon="4.4836">
        <ele>799.4</ele>
        <time>2025-09-20T12:40:42Z</time>
      </trkpt>
      <trkpt lat="46.22785" lon="4.48361">
        <ele>799.4</ele>
        <time>2025-09-20T12:40:43Z</time>
      </trkpt>
      <trkpt lat="46.22784" lon="4.48361">
        <ele>799.8</ele>
        <time>2025-09-20T12:40:44Z</time>
      </trkpt>
      <trkpt lat="46.22783" lon="4.48361">
        <ele>799.8</ele>
        <time>2025-09-20T12:40:45Z</time>
      </trkpt>
      <trkpt lat="46.22782" lon="4.48361">
        <ele>800.2</ele>
        <time>2025-09-20T12:40:46Z</time>
      </trkpt>
      <trkpt lat="46.2278" lon="4.48361">
        <ele>800.2</ele>
        <time>2025-09-20T12:40:47Z</time>
      </trkpt>
      <trkpt lat="46.22779" lon="4.48362">
        <ele>800.4</ele>
        <time>2025-09-20T12:40:48Z</time>
      </trkpt>
      <trkpt lat="46.22777" lon="4.48362">
        <ele>800.4</ele>
        <time>2025-09-20T12:40:49Z</time>
      </trkpt>
      <trkpt lat="46.22776" lon="4.48363">
        <ele>800.8</ele>
        <time>2025-09-20T12:40:50Z</time>
      </trkpt>
      <trkpt lat="46.22774" lon="4.48363">
        <ele>800.8</ele>
        <time>2025-09-20T12:40:51Z</time>
      </trkpt>
      <trkpt lat="46.22772" lon="4.48364">
        <ele>800.8</ele>
        <time>2025-09-20T12:40:52Z</time>
      </trkpt>
      <trkpt lat="46.2277" lon="4.48365">
        <ele>800.8</ele>
        <time>2025-09-20T12:40:53Z</time>
      </trkpt>
      <trkpt lat="46.22768" lon="4.48366">
        <ele>801.2</ele>
        <time>2025-09-20T12:40:54Z</time>
      </trkpt>
      <trkpt lat="46.22766" lon="4.48367">
        <ele>801.2</ele>
        <time>2025-09-20T12:40:55Z</time>
      </trkpt>
      <trkpt lat="46.22764" lon="4.48369">
        <ele>801.4</ele>
        <time>2025-09-20T12:40:56Z</time>
      </trkpt>
      <trkpt lat="46.22763" lon="4.4837">
        <ele>801.4</ele>
        <time>2025-09-20T12:40:57Z</time>
      </trkpt>
      <trkpt lat="46.22762" lon="4.48371">
        <ele>801.8</ele>
        <time>2025-09-20T12:40:58Z</time>
      </trkpt>
      <trkpt lat="46.22761" lon="4.48373">
        <ele>801.8</ele>
        <time>2025-09-20T12:40:59Z</time>
      </trkpt>
      <trkpt lat="46.2276" lon="4.48375">
        <ele>802.2</ele>
        <time>2025-09-20T12:41:00Z</time>
      </trkpt>
      <trkpt lat="46.22759" lon="4.48376">
        <ele>802.2</ele>
        <time>2025-09-20T12:41:01Z</time>
      </trkpt>
      <trkpt lat="46.22758" lon="4.48377">
        <ele>802.4</ele>
        <time>2025-09-20T12:41:02Z</time>
      </trkpt>
      <trkpt lat="46.22756" lon="4.48378">
        <ele>802.6</ele>
        <time>2025-09-20T12:41:03Z</time>
      </trkpt>
      <trkpt lat="46.22755" lon="4.48379">
        <ele>802.6</ele>
        <time>2025-09-20T12:41:04Z</time>
      </trkpt>
      <trkpt lat="46.22753" lon="4.48379">
        <ele>803</ele>
        <time>2025-09-20T12:41:05Z</time>
      </trkpt>
      <trkpt lat="46.22752" lon="4.48379">
        <ele>803</ele>
        <time>2025-09-20T12:41:06Z</time>
      </trkpt>
      <trkpt lat="46.2275" lon="4.48379">
        <ele>803.2</ele>
        <time>2025-09-20T12:41:07Z</time>
      </trkpt>
      <trkpt lat="46.22748" lon="4.48379">
        <ele>803.2</ele>
        <time>2025-09-20T12:41:08Z</time>
      </trkpt>
      <trkpt lat="46.22747" lon="4.4838">
        <ele>803.6</ele>
        <time>2025-09-20T12:41:09Z</time>
      </trkpt>
      <trkpt lat="46.22746" lon="4.4838">
        <ele>803.6</ele>
        <time>2025-09-20T12:41:10Z</time>
      </trkpt>
      <trkpt lat="46.22745" lon="4.4838">
        <ele>803.6</ele>
        <time>2025-09-20T12:41:11Z</time>
      </trkpt>
      <trkpt lat="46.22743" lon="4.4838">
        <ele>803.8</ele>
        <time>2025-09-20T12:41:12Z</time>
      </trkpt>
      <trkpt lat="46.22741" lon="4.4838">
        <ele>803.8</ele>
        <time>2025-09-20T12:41:13Z</time>
      </trkpt>
      <trkpt lat="46.2274" lon="4.4838">
        <ele>803.8</ele>
        <time>2025-09-20T12:41:14Z</time>
      </trkpt>
      <trkpt lat="46.22739" lon="4.4838">
        <ele>804.2</ele>
        <time>2025-09-20T12:41:15Z</time>
      </trkpt>
      <trkpt lat="46.22737" lon="4.48382">
        <ele>804.6</ele>
        <time>2025-09-20T12:41:16Z</time>
      </trkpt>
      <trkpt lat="46.22736" lon="4.48383">
        <ele>804.6</ele>
        <time>2025-09-20T12:41:17Z</time>
      </trkpt>
      <trkpt lat="46.22735" lon="4.48383">
        <ele>804.8</ele>
        <time>2025-09-20T12:41:18Z</time>
      </trkpt>
      <trkpt lat="46.22734" lon="4.48383">
        <ele>804.8</ele>
        <time>2025-09-20T12:41:19Z</time>
      </trkpt>
      <trkpt lat="46.22732" lon="4.48383">
        <ele>805</ele>
        <time>2025-09-20T12:41:20Z</time>
      </trkpt>
      <trkpt lat="46.22731" lon="4.48383">
        <ele>805.4</ele>
        <time>2025-09-20T12:41:21Z</time>
      </trkpt>
      <trkpt lat="46.22729" lon="4.48383">
        <ele>805.4</ele>
        <time>2025-09-20T12:41:22Z</time>
      </trkpt>
      <trkpt lat="46.22727" lon="4.48383">
        <ele>805.6</ele>
        <time>2025-09-20T12:41:23Z</time>
      </trkpt>
      <trkpt lat="46.22725" lon="4.48383">
        <ele>806</ele>
        <time>2025-09-20T12:41:24Z</time>
      </trkpt>
      <trkpt lat="46.22723" lon="4.48384">
        <ele>806.2</ele>
        <time>2025-09-20T12:41:25Z</time>
      </trkpt>
      <trkpt lat="46.22722" lon="4.48384">
        <ele>806.6</ele>
        <time>2025-09-20T12:41:26Z</time>
      </trkpt>
      <trkpt lat="46.2272" lon="4.48385">
        <ele>806.6</ele>
        <time>2025-09-20T12:41:27Z</time>
      </trkpt>
      <trkpt lat="46.22719" lon="4.48385">
        <ele>806.8</ele>
        <time>2025-09-20T12:41:28Z</time>
      </trkpt>
      <trkpt lat="46.22717" lon="4.48386">
        <ele>807.2</ele>
        <time>2025-09-20T12:41:29Z</time>
      </trkpt>
      <trkpt lat="46.22715" lon="4.48386">
        <ele>807.2</ele>
        <time>2025-09-20T12:41:30Z</time>
      </trkpt>
      <trkpt lat="46.22713" lon="4.48386">
        <ele>807.6</ele>
        <time>2025-09-20T12:41:31Z</time>
      </trkpt>
      <trkpt lat="46.22711" lon="4.48386">
        <ele>807.8</ele>
        <time>2025-09-20T12:41:32Z</time>
      </trkpt>
      <trkpt lat="46.22709" lon="4.48387">
        <ele>807.8</ele>
        <time>2025-09-20T12:41:33Z</time>
      </trkpt>
      <trkpt lat="46.22707" lon="4.48387">
        <ele>807.8</ele>
        <time>2025-09-20T12:41:34Z</time>
      </trkpt>
      <trkpt lat="46.22706" lon="4.48387">
        <ele>808.2</ele>
        <time>2025-09-20T12:41:35Z</time>
      </trkpt>
      <trkpt lat="46.22705" lon="4.48387">
        <ele>808.2</ele>
        <time>2025-09-20T12:41:36Z</time>
      </trkpt>
      <trkpt lat="46.22703" lon="4.48387">
        <ele>808.6</ele>
        <time>2025-09-20T12:41:37Z</time>
      </trkpt>
      <trkpt lat="46.22701" lon="4.48387">
        <ele>808.6</ele>
        <time>2025-09-20T12:41:38Z</time>
      </trkpt>
      <trkpt lat="46.227" lon="4.48386">
        <ele>808.8</ele>
        <time>2025-09-20T12:41:39Z</time>
      </trkpt>
      <trkpt lat="46.22699" lon="4.48386">
        <ele>808.8</ele>
        <time>2025-09-20T12:41:40Z</time>
      </trkpt>
      <trkpt lat="46.22696" lon="4.48386">
        <ele>808.8</ele>
        <time>2025-09-20T12:41:41Z</time>
      </trkpt>
      <trkpt lat="46.22695" lon="4.48385">
        <ele>809</ele>
        <time>2025-09-20T12:41:42Z</time>
      </trkpt>
      <trkpt lat="46.22695" lon="4.48385">
        <ele>809</ele>
        <time>2025-09-20T12:41:43Z</time>
      </trkpt>
      <trkpt lat="46.22694" lon="4.48384">
        <ele>809.2</ele>
        <time>2025-09-20T12:41:44Z</time>
      </trkpt>
      <trkpt lat="46.22692" lon="4.48384">
        <ele>809.2</ele>
        <time>2025-09-20T12:41:45Z</time>
      </trkpt>
      <trkpt lat="46.2269" lon="4.48384">
        <ele>809.6</ele>
        <time>2025-09-20T12:41:46Z</time>
      </trkpt>
      <trkpt lat="46.22688" lon="4.48384">
        <ele>809.6</ele>
        <time>2025-09-20T12:41:47Z</time>
      </trkpt>
      <trkpt lat="46.22686" lon="4.48384">
        <ele>809.8</ele>
        <time>2025-09-20T12:41:48Z</time>
      </trkpt>
      <trkpt lat="46.22684" lon="4.48384">
        <ele>809.8</ele>
        <time>2025-09-20T12:41:49Z</time>
      </trkpt>
      <trkpt lat="46.22683" lon="4.48384">
        <ele>810.2</ele>
        <time>2025-09-20T12:41:50Z</time>
      </trkpt>
      <trkpt lat="46.22681" lon="4.48384">
        <ele>810.6</ele>
        <time>2025-09-20T12:41:51Z</time>
      </trkpt>
      <trkpt lat="46.2268" lon="4.48384">
        <ele>810.6</ele>
        <time>2025-09-20T12:41:52Z</time>
      </trkpt>
      <trkpt lat="46.22678" lon="4.48384">
        <ele>810.8</ele>
        <time>2025-09-20T12:41:53Z</time>
      </trkpt>
      <trkpt lat="46.22677" lon="4.48384">
        <ele>810.8</ele>
        <time>2025-09-20T12:41:54Z</time>
      </trkpt>
      <trkpt lat="46.22675" lon="4.48385">
        <ele>811.2</ele>
        <time>2025-09-20T12:41:55Z</time>
      </trkpt>
      <trkpt lat="46.22674" lon="4.48385">
        <ele>811.2</ele>
        <time>2025-09-20T12:41:56Z</time>
      </trkpt>
      <trkpt lat="46.22673" lon="4.48385">
        <ele>811.8</ele>
        <time>2025-09-20T12:41:57Z</time>
      </trkpt>
      <trkpt lat="46.22672" lon="4.48385">
        <ele>811.8</ele>
        <time>2025-09-20T12:41:58Z</time>
      </trkpt>
      <trkpt lat="46.22671" lon="4.48385">
        <ele>812</ele>
        <time>2025-09-20T12:41:59Z</time>
      </trkpt>
      <trkpt lat="46.2267" lon="4.48385">
        <ele>812.2</ele>
        <time>2025-09-20T12:42:00Z</time>
      </trkpt>
      <trkpt lat="46.22669" lon="4.48386">
        <ele>812.2</ele>
        <time>2025-09-20T12:42:01Z</time>
      </trkpt>
      <trkpt lat="46.22668" lon="4.48386">
        <ele>812.4</ele>
        <time>2025-09-20T12:42:02Z</time>
      </trkpt>
      <trkpt lat="46.22667" lon="4.48386">
        <ele>812.4</ele>
        <time>2025-09-20T12:42:03Z</time>
      </trkpt>
      <trkpt lat="46.22664" lon="4.48386">
        <ele>812.6</ele>
        <time>2025-09-20T12:42:04Z</time>
      </trkpt>
      <trkpt lat="46.22662" lon="4.48386">
        <ele>812.6</ele>
        <time>2025-09-20T12:42:05Z</time>
      </trkpt>
      <trkpt lat="46.22659" lon="4.48386">
        <ele>812.6</ele>
        <time>2025-09-20T12:42:06Z</time>
      </trkpt>
      <trkpt lat="46.22656" lon="4.48387">
        <ele>812.8</ele>
        <time>2025-09-20T12:42:07Z</time>
      </trkpt>
      <trkpt lat="46.22654" lon="4.48387">
        <ele>813.2</ele>
        <time>2025-09-20T12:42:08Z</time>
      </trkpt>
      <trkpt lat="46.22652" lon="4.48388">
        <ele>813.2</ele>
        <time>2025-09-20T12:42:09Z</time>
      </trkpt>
      <trkpt lat="46.2265" lon="4.48389">
        <ele>813.4</ele>
        <time>2025-09-20T12:42:10Z</time>
      </trkpt>
      <trkpt lat="46.22648" lon="4.4839">
        <ele>813.4</ele>
        <time>2025-09-20T12:42:11Z</time>
      </trkpt>
      <trkpt lat="46.22646" lon="4.48391">
        <ele>813.4</ele>
        <time>2025-09-20T12:42:12Z</time>
      </trkpt>
      <trkpt lat="46.22644" lon="4.48393">
        <ele>813.4</ele>
        <time>2025-09-20T12:42:13Z</time>
      </trkpt>
      <trkpt lat="46.22642" lon="4.48394">
        <ele>813.8</ele>
        <time>2025-09-20T12:42:14Z</time>
      </trkpt>
      <trkpt lat="46.2264" lon="4.48395">
        <ele>814</ele>
        <time>2025-09-20T12:42:15Z</time>
      </trkpt>
      <trkpt lat="46.22639" lon="4.48396">
        <ele>814</ele>
        <time>2025-09-20T12:42:16Z</time>
      </trkpt>
      <trkpt lat="46.22638" lon="4.48396">
        <ele>814.2</ele>
        <time>2025-09-20T12:42:17Z</time>
      </trkpt>
      <trkpt lat="46.22636" lon="4.48395">
        <ele>814.2</ele>
        <time>2025-09-20T12:42:18Z</time>
      </trkpt>
      <trkpt lat="46.22634" lon="4.48395">
        <ele>814.2</ele>
        <time>2025-09-20T12:42:19Z</time>
      </trkpt>
      <trkpt lat="46.22632" lon="4.48394">
        <ele>814.2</ele>
        <time>2025-09-20T12:42:20Z</time>
      </trkpt>
      <trkpt lat="46.2263" lon="4.48393">
        <ele>814.6</ele>
        <time>2025-09-20T12:42:21Z</time>
      </trkpt>
      <trkpt lat="46.22628" lon="4.48393">
        <ele>814.6</ele>
        <time>2025-09-20T12:42:22Z</time>
      </trkpt>
      <trkpt lat="46.22625" lon="4.48393">
        <ele>814.8</ele>
        <time>2025-09-20T12:42:23Z</time>
      </trkpt>
      <trkpt lat="46.22623" lon="4.48393">
        <ele>814.8</ele>
        <time>2025-09-20T12:42:24Z</time>
      </trkpt>
      <trkpt lat="46.22621" lon="4.48393">
        <ele>814.8</ele>
        <time>2025-09-20T12:42:25Z</time>
      </trkpt>
      <trkpt lat="46.22619" lon="4.48393">
        <ele>814.8</ele>
        <time>2025-09-20T12:42:26Z</time>
      </trkpt>
      <trkpt lat="46.22617" lon="4.48393">
        <ele>814.8</ele>
        <time>2025-09-20T12:42:27Z</time>
      </trkpt>
      <trkpt lat="46.22615" lon="4.48393">
        <ele>815.2</ele>
        <time>2025-09-20T12:42:28Z</time>
      </trkpt>
      <trkpt lat="46.22613" lon="4.48394">
        <ele>815.2</ele>
        <time>2025-09-20T12:42:29Z</time>
      </trkpt>
      <trkpt lat="46.2261" lon="4.48394">
        <ele>815.2</ele>
        <time>2025-09-20T12:42:30Z</time>
      </trkpt>
      <trkpt lat="46.22608" lon="4.48395">
        <ele>815.2</ele>
        <time>2025-09-20T12:42:31Z</time>
      </trkpt>
      <trkpt lat="46.22606" lon="4.48396">
        <ele>815.4</ele>
        <time>2025-09-20T12:42:32Z</time>
      </trkpt>
      <trkpt lat="46.22604" lon="4.48398">
        <ele>815.6</ele>
        <time>2025-09-20T12:42:33Z</time>
      </trkpt>
      <trkpt lat="46.22601" lon="4.48399">
        <ele>815.6</ele>
        <time>2025-09-20T12:42:34Z</time>
      </trkpt>
      <trkpt lat="46.22599" lon="4.48399">
        <ele>815.6</ele>
        <time>2025-09-20T12:42:35Z</time>
      </trkpt>
      <trkpt lat="46.22596" lon="4.484">
        <ele>816</ele>
        <time>2025-09-20T12:42:36Z</time>
      </trkpt>
      <trkpt lat="46.22594" lon="4.48401">
        <ele>816</ele>
        <time>2025-09-20T12:42:37Z</time>
      </trkpt>
      <trkpt lat="46.22591" lon="4.48401">
        <ele>816</ele>
        <time>2025-09-20T12:42:38Z</time>
      </trkpt>
      <trkpt lat="46.22588" lon="4.48402">
        <ele>816.2</ele>
        <time>2025-09-20T12:42:39Z</time>
      </trkpt>
      <trkpt lat="46.22585" lon="4.48403">
        <ele>816.2</ele>
        <time>2025-09-20T12:42:40Z</time>
      </trkpt>
      <trkpt lat="46.22582" lon="4.48404">
        <ele>816.2</ele>
        <time>2025-09-20T12:42:41Z</time>
      </trkpt>
      <trkpt lat="46.22579" lon="4.48404">
        <ele>816.4</ele>
        <time>2025-09-20T12:42:42Z</time>
      </trkpt>
      <trkpt lat="46.22577" lon="4.48405">
        <ele>816.4</ele>
        <time>2025-09-20T12:42:43Z</time>
      </trkpt>
      <trkpt lat="46.22574" lon="4.48405">
        <ele>816.4</ele>
        <time>2025-09-20T12:42:44Z</time>
      </trkpt>
      <trkpt lat="46.22572" lon="4.48406">
        <ele>816.8</ele>
        <time>2025-09-20T12:42:45Z</time>
      </trkpt>
      <trkpt lat="46.22569" lon="4.48406">
        <ele>816.8</ele>
        <time>2025-09-20T12:42:46Z</time>
      </trkpt>
      <trkpt lat="46.22566" lon="4.48407">
        <ele>816.8</ele>
        <time>2025-09-20T12:42:47Z</time>
      </trkpt>
      <trkpt lat="46.22564" lon="4.48409">
        <ele>816.8</ele>
        <time>2025-09-20T12:42:48Z</time>
      </trkpt>
      <trkpt lat="46.22563" lon="4.4841">
        <ele>817</ele>
        <time>2025-09-20T12:42:49Z</time>
      </trkpt>
      <trkpt lat="46.22562" lon="4.48412">
        <ele>817</ele>
        <time>2025-09-20T12:42:50Z</time>
      </trkpt>
      <trkpt lat="46.22561" lon="4.48413">
        <ele>817</ele>
        <time>2025-09-20T12:42:51Z</time>
      </trkpt>
      <trkpt lat="46.2256" lon="4.48415">
        <ele>817.4</ele>
        <time>2025-09-20T12:42:52Z</time>
      </trkpt>
      <trkpt lat="46.22561" lon="4.48415">
        <ele>817.4</ele>
        <time>2025-09-20T12:42:53Z</time>
      </trkpt>
      <trkpt lat="46.22561" lon="4.48415">
        <ele>817.4</ele>
        <time>2025-09-20T12:42:54Z</time>
      </trkpt>
      <trkpt lat="46.22559" lon="4.48417">
        <ele>817.6</ele>
        <time>2025-09-20T12:42:55Z</time>
      </trkpt>
      <trkpt lat="46.22557" lon="4.48418">
        <ele>817.6</ele>
        <time>2025-09-20T12:42:56Z</time>
      </trkpt>
      <trkpt lat="46.22555" lon="4.48419">
        <ele>817.6</ele>
        <time>2025-09-20T12:42:57Z</time>
      </trkpt>
      <trkpt lat="46.22553" lon="4.48419">
        <ele>817.6</ele>
        <time>2025-09-20T12:42:58Z</time>
      </trkpt>
      <trkpt lat="46.22552" lon="4.48419">
        <ele>817.8</ele>
        <time>2025-09-20T12:42:59Z</time>
      </trkpt>
      <trkpt lat="46.22551" lon="4.48419">
        <ele>817.8</ele>
        <time>2025-09-20T12:43:00Z</time>
      </trkpt>
      <trkpt lat="46.22551" lon="4.4842">
        <ele>817.8</ele>
        <time>2025-09-20T12:43:01Z</time>
      </trkpt>
      <trkpt lat="46.2255" lon="4.48422">
        <ele>817.8</ele>
        <time>2025-09-20T12:43:02Z</time>
      </trkpt>
      <trkpt lat="46.22549" lon="4.48424">
        <ele>817.6</ele>
        <time>2025-09-20T12:43:03Z</time>
      </trkpt>
      <trkpt lat="46.2255" lon="4.48427">
        <ele>817.6</ele>
        <time>2025-09-20T12:43:04Z</time>
      </trkpt>
      <trkpt lat="46.22552" lon="4.48429">
        <ele>817.6</ele>
        <time>2025-09-20T12:43:05Z</time>
      </trkpt>
      <trkpt lat="46.22554" lon="4.48428">
        <ele>817.2</ele>
        <time>2025-09-20T12:43:06Z</time>
      </trkpt>
      <trkpt lat="46.22554" lon="4.48428">
        <ele>817.2</ele>
        <time>2025-09-20T12:43:07Z</time>
      </trkpt>
      <trkpt lat="46.22556" lon="4.48427">
        <ele>817.2</ele>
        <time>2025-09-20T12:43:08Z</time>
      </trkpt>
      <trkpt lat="46.22558" lon="4.48424">
        <ele>817.2</ele>
        <time>2025-09-20T12:43:09Z</time>
      </trkpt>
      <trkpt lat="46.22559" lon="4.48421">
        <ele>817.2</ele>
        <time>2025-09-20T12:43:10Z</time>
      </trkpt>
      <trkpt lat="46.2256" lon="4.48419">
        <ele>817.4</ele>
        <time>2025-09-20T12:43:11Z</time>
      </trkpt>
      <trkpt lat="46.2256" lon="4.48416">
        <ele>817.4</ele>
        <time>2025-09-20T12:43:12Z</time>
      </trkpt>
      <trkpt lat="46.2256" lon="4.48413">
        <ele>817.4</ele>
        <time>2025-09-20T12:43:13Z</time>
      </trkpt>
      <trkpt lat="46.22559" lon="4.4841">
        <ele>817.4</ele>
        <time>2025-09-20T12:43:14Z</time>
      </trkpt>
      <trkpt lat="46.22557" lon="4.48407">
        <ele>818</ele>
        <time>2025-09-20T12:43:15Z</time>
      </trkpt>
      <trkpt lat="46.22555" lon="4.48405">
        <ele>818</ele>
        <time>2025-09-20T12:43:16Z</time>
      </trkpt>
      <trkpt lat="46.22553" lon="4.48403">
        <ele>818</ele>
        <time>2025-09-20T12:43:17Z</time>
      </trkpt>
      <trkpt lat="46.22551" lon="4.48402">
        <ele>818</ele>
        <time>2025-09-20T12:43:18Z</time>
      </trkpt>
      <trkpt lat="46.22549" lon="4.48401">
        <ele>818.2</ele>
        <time>2025-09-20T12:43:19Z</time>
      </trkpt>
      <trkpt lat="46.22548" lon="4.484">
        <ele>818.2</ele>
        <time>2025-09-20T12:43:20Z</time>
      </trkpt>
      <trkpt lat="46.22546" lon="4.48399">
        <ele>818.6</ele>
        <time>2025-09-20T12:43:21Z</time>
      </trkpt>
      <trkpt lat="46.22544" lon="4.48399">
        <ele>818.6</ele>
        <time>2025-09-20T12:43:22Z</time>
      </trkpt>
      <trkpt lat="46.22541" lon="4.48398">
        <ele>819</ele>
        <time>2025-09-20T12:43:23Z</time>
      </trkpt>
      <trkpt lat="46.22539" lon="4.48397">
        <ele>819.2</ele>
        <time>2025-09-20T12:43:24Z</time>
      </trkpt>
      <trkpt lat="46.22537" lon="4.48395">
        <ele>819.4</ele>
        <time>2025-09-20T12:43:25Z</time>
      </trkpt>
      <trkpt lat="46.22536" lon="4.48393">
        <ele>819.4</ele>
        <time>2025-09-20T12:43:26Z</time>
      </trkpt>
      <trkpt lat="46.22535" lon="4.48391">
        <ele>819.4</ele>
        <time>2025-09-20T12:43:27Z</time>
      </trkpt>
      <trkpt lat="46.22533" lon="4.48389">
        <ele>819.8</ele>
        <time>2025-09-20T12:43:28Z</time>
      </trkpt>
      <trkpt lat="46.22532" lon="4.48388">
        <ele>820.2</ele>
        <time>2025-09-20T12:43:29Z</time>
      </trkpt>
      <trkpt lat="46.22531" lon="4.48387">
        <ele>820.2</ele>
        <time>2025-09-20T12:43:30Z</time>
      </trkpt>
      <trkpt lat="46.2253" lon="4.48385">
        <ele>820.2</ele>
        <time>2025-09-20T12:43:31Z</time>
      </trkpt>
      <trkpt lat="46.22528" lon="4.48383">
        <ele>820.2</ele>
        <time>2025-09-20T12:43:32Z</time>
      </trkpt>
      <trkpt lat="46.22526" lon="4.48382">
        <ele>820.4</ele>
        <time>2025-09-20T12:43:33Z</time>
      </trkpt>
      <trkpt lat="46.22525" lon="4.48381">
        <ele>820.4</ele>
        <time>2025-09-20T12:43:34Z</time>
      </trkpt>
      <trkpt lat="46.22523" lon="4.4838">
        <ele>820.4</ele>
        <time>2025-09-20T12:43:35Z</time>
      </trkpt>
      <trkpt lat="46.22522" lon="4.48378">
        <ele>820.8</ele>
        <time>2025-09-20T12:43:36Z</time>
      </trkpt>
      <trkpt lat="46.22521" lon="4.48377">
        <ele>820.8</ele>
        <time>2025-09-20T12:43:37Z</time>
      </trkpt>
      <trkpt lat="46.22519" lon="4.48376">
        <ele>821</ele>
        <time>2025-09-20T12:43:38Z</time>
      </trkpt>
      <trkpt lat="46.22518" lon="4.48374">
        <ele>821.4</ele>
        <time>2025-09-20T12:43:39Z</time>
      </trkpt>
      <trkpt lat="46.22517" lon="4.48373">
        <ele>821.8</ele>
        <time>2025-09-20T12:43:40Z</time>
      </trkpt>
      <trkpt lat="46.22516" lon="4.48371">
        <ele>822</ele>
        <time>2025-09-20T12:43:41Z</time>
      </trkpt>
      <trkpt lat="46.22515" lon="4.48369">
        <ele>822.2</ele>
        <time>2025-09-20T12:43:42Z</time>
      </trkpt>
      <trkpt lat="46.22514" lon="4.48367">
        <ele>822.6</ele>
        <time>2025-09-20T12:43:43Z</time>
      </trkpt>
      <trkpt lat="46.22513" lon="4.48365">
        <ele>822.6</ele>
        <time>2025-09-20T12:43:44Z</time>
      </trkpt>
      <trkpt lat="46.22511" lon="4.48363">
        <ele>823</ele>
        <time>2025-09-20T12:43:45Z</time>
      </trkpt>
      <trkpt lat="46.2251" lon="4.48362">
        <ele>823.6</ele>
        <time>2025-09-20T12:43:46Z</time>
      </trkpt>
      <trkpt lat="46.22508" lon="4.4836">
        <ele>823.6</ele>
        <time>2025-09-20T12:43:47Z</time>
      </trkpt>
      <trkpt lat="46.22506" lon="4.48358">
        <ele>823.8</ele>
        <time>2025-09-20T12:43:48Z</time>
      </trkpt>
      <trkpt lat="46.22505" lon="4.48356">
        <ele>823.8</ele>
        <time>2025-09-20T12:43:49Z</time>
      </trkpt>
      <trkpt lat="46.22504" lon="4.48354">
        <ele>824</ele>
        <time>2025-09-20T12:43:50Z</time>
      </trkpt>
      <trkpt lat="46.22502" lon="4.48352">
        <ele>824</ele>
        <time>2025-09-20T12:43:51Z</time>
      </trkpt>
      <trkpt lat="46.22501" lon="4.4835">
        <ele>824</ele>
        <time>2025-09-20T12:43:52Z</time>
      </trkpt>
      <trkpt lat="46.225" lon="4.48349">
        <ele>824.4</ele>
        <time>2025-09-20T12:43:53Z</time>
      </trkpt>
      <trkpt lat="46.22498" lon="4.48348">
        <ele>824.6</ele>
        <time>2025-09-20T12:43:54Z</time>
      </trkpt>
      <trkpt lat="46.22496" lon="4.48347">
        <ele>824.6</ele>
        <time>2025-09-20T12:43:55Z</time>
      </trkpt>
      <trkpt lat="46.22494" lon="4.48346">
        <ele>824.6</ele>
        <time>2025-09-20T12:43:56Z</time>
      </trkpt>
      <trkpt lat="46.22492" lon="4.48346">
        <ele>824.6</ele>
        <time>2025-09-20T12:43:57Z</time>
      </trkpt>
      <trkpt lat="46.2249" lon="4.48345">
        <ele>825</ele>
        <time>2025-09-20T12:43:58Z</time>
      </trkpt>
      <trkpt lat="46.22489" lon="4.48344">
        <ele>825</ele>
        <time>2025-09-20T12:43:59Z</time>
      </trkpt>
      <trkpt lat="46.22488" lon="4.48343">
        <ele>825.2</ele>
        <time>2025-09-20T12:44:00Z</time>
      </trkpt>
      <trkpt lat="46.22486" lon="4.48342">
        <ele>825.6</ele>
        <time>2025-09-20T12:44:01Z</time>
      </trkpt>
      <trkpt lat="46.22485" lon="4.48341">
        <ele>825.8</ele>
        <time>2025-09-20T12:44:02Z</time>
      </trkpt>
      <trkpt lat="46.22483" lon="4.4834">
        <ele>826</ele>
        <time>2025-09-20T12:44:03Z</time>
      </trkpt>
      <trkpt lat="46.22481" lon="4.48338">
        <ele>826</ele>
        <time>2025-09-20T12:44:04Z</time>
      </trkpt>
      <trkpt lat="46.2248" lon="4.48337">
        <ele>826.4</ele>
        <time>2025-09-20T12:44:05Z</time>
      </trkpt>
      <trkpt lat="46.22479" lon="4.48337">
        <ele>826.4</ele>
        <time>2025-09-20T12:44:06Z</time>
      </trkpt>
      <trkpt lat="46.22477" lon="4.48337">
        <ele>826.8</ele>
        <time>2025-09-20T12:44:07Z</time>
      </trkpt>
      <trkpt lat="46.22475" lon="4.48336">
        <ele>827</ele>
        <time>2025-09-20T12:44:08Z</time>
      </trkpt>
      <trkpt lat="46.22473" lon="4.48335">
        <ele>827</ele>
        <time>2025-09-20T12:44:09Z</time>
      </trkpt>
      <trkpt lat="46.22471" lon="4.48333">
        <ele>827.4</ele>
        <time>2025-09-20T12:44:10Z</time>
      </trkpt>
      <trkpt lat="46.2247" lon="4.48331">
        <ele>827.4</ele>
        <time>2025-09-20T12:44:11Z</time>
      </trkpt>
      <trkpt lat="46.22468" lon="4.4833">
        <ele>827.6</ele>
        <time>2025-09-20T12:44:12Z</time>
      </trkpt>
      <trkpt lat="46.22467" lon="4.48328">
        <ele>827.6</ele>
        <time>2025-09-20T12:44:13Z</time>
      </trkpt>
      <trkpt lat="46.22464" lon="4.48326">
        <ele>827.6</ele>
        <time>2025-09-20T12:44:14Z</time>
      </trkpt>
      <trkpt lat="46.22462" lon="4.48325">
        <ele>827.8</ele>
        <time>2025-09-20T12:44:15Z</time>
      </trkpt>
      <trkpt lat="46.22461" lon="4.48323">
        <ele>828.2</ele>
        <time>2025-09-20T12:44:16Z</time>
      </trkpt>
      <trkpt lat="46.22459" lon="4.48321">
        <ele>828.2</ele>
        <time>2025-09-20T12:44:17Z</time>
      </trkpt>
      <trkpt lat="46.22458" lon="4.48319">
        <ele>828.2</ele>
        <time>2025-09-20T12:44:18Z</time>
      </trkpt>
      <trkpt lat="46.22457" lon="4.48318">
        <ele>828.2</ele>
        <time>2025-09-20T12:44:19Z</time>
      </trkpt>
      <trkpt lat="46.22457" lon="4.48317">
        <ele>828.4</ele>
        <time>2025-09-20T12:44:20Z</time>
      </trkpt>
      <trkpt lat="46.22456" lon="4.48315">
        <ele>828.4</ele>
        <time>2025-09-20T12:44:21Z</time>
      </trkpt>
      <trkpt lat="46.22455" lon="4.48313">
        <ele>828.6</ele>
        <time>2025-09-20T12:44:22Z</time>
      </trkpt>
      <trkpt lat="46.22454" lon="4.48311">
        <ele>828.6</ele>
        <time>2025-09-20T12:44:23Z</time>
      </trkpt>
      <trkpt lat="46.22454" lon="4.48309">
        <ele>828.8</ele>
        <time>2025-09-20T12:44:24Z</time>
      </trkpt>
      <trkpt lat="46.22453" lon="4.48307">
        <ele>828.8</ele>
        <time>2025-09-20T12:44:25Z</time>
      </trkpt>
      <trkpt lat="46.22452" lon="4.48305">
        <ele>828.8</ele>
        <time>2025-09-20T12:44:26Z</time>
      </trkpt>
      <trkpt lat="46.22451" lon="4.48303">
        <ele>829</ele>
        <time>2025-09-20T12:44:27Z</time>
      </trkpt>
      <trkpt lat="46.2245" lon="4.48301">
        <ele>829</ele>
        <time>2025-09-20T12:44:28Z</time>
      </trkpt>
      <trkpt lat="46.2245" lon="4.48298">
        <ele>829.4</ele>
        <time>2025-09-20T12:44:29Z</time>
      </trkpt>
      <trkpt lat="46.22449" lon="4.48296">
        <ele>829.4</ele>
        <time>2025-09-20T12:44:30Z</time>
      </trkpt>
      <trkpt lat="46.22448" lon="4.48294">
        <ele>829.6</ele>
        <time>2025-09-20T12:44:31Z</time>
      </trkpt>
      <trkpt lat="46.22446" lon="4.48293">
        <ele>829.6</ele>
        <time>2025-09-20T12:44:32Z</time>
      </trkpt>
      <trkpt lat="46.22444" lon="4.48291">
        <ele>829.6</ele>
        <time>2025-09-20T12:44:33Z</time>
      </trkpt>
      <trkpt lat="46.22443" lon="4.48289">
        <ele>829.6</ele>
        <time>2025-09-20T12:44:34Z</time>
      </trkpt>
      <trkpt lat="46.22442" lon="4.48287">
        <ele>829.8</ele>
        <time>2025-09-20T12:44:35Z</time>
      </trkpt>
      <trkpt lat="46.2244" lon="4.48285">
        <ele>829.8</ele>
        <time>2025-09-20T12:44:36Z</time>
      </trkpt>
      <trkpt lat="46.22439" lon="4.48283">
        <ele>829.8</ele>
        <time>2025-09-20T12:44:37Z</time>
      </trkpt>
      <trkpt lat="46.22437" lon="4.48281">
        <ele>829.8</ele>
        <time>2025-09-20T12:44:38Z</time>
      </trkpt>
      <trkpt lat="46.22436" lon="4.48279">
        <ele>830</ele>
        <time>2025-09-20T12:44:39Z</time>
      </trkpt>
      <trkpt lat="46.22435" lon="4.48276">
        <ele>830</ele>
        <time>2025-09-20T12:44:40Z</time>
      </trkpt>
      <trkpt lat="46.22434" lon="4.48273">
        <ele>830</ele>
        <time>2025-09-20T12:44:41Z</time>
      </trkpt>
      <trkpt lat="46.22432" lon="4.4827">
        <ele>830</ele>
        <time>2025-09-20T12:44:42Z</time>
      </trkpt>
      <trkpt lat="46.22431" lon="4.48268">
        <ele>830</ele>
        <time>2025-09-20T12:44:43Z</time>
      </trkpt>
      <trkpt lat="46.22429" lon="4.48266">
        <ele>830.2</ele>
        <time>2025-09-20T12:44:44Z</time>
      </trkpt>
      <trkpt lat="46.22428" lon="4.48265">
        <ele>830.2</ele>
        <time>2025-09-20T12:44:45Z</time>
      </trkpt>
      <trkpt lat="46.22427" lon="4.48262">
        <ele>830.2</ele>
        <time>2025-09-20T12:44:46Z</time>
      </trkpt>
      <trkpt lat="46.22426" lon="4.4826">
        <ele>830.2</ele>
        <time>2025-09-20T12:44:47Z</time>
      </trkpt>
      <trkpt lat="46.22425" lon="4.48257">
        <ele>830.2</ele>
        <time>2025-09-20T12:44:48Z</time>
      </trkpt>
      <trkpt lat="46.22424" lon="4.48254">
        <ele>830.6</ele>
        <time>2025-09-20T12:44:49Z</time>
      </trkpt>
      <trkpt lat="46.22423" lon="4.48252">
        <ele>830.6</ele>
        <time>2025-09-20T12:44:50Z</time>
      </trkpt>
      <trkpt lat="46.22421" lon="4.4825">
        <ele>830.6</ele>
        <time>2025-09-20T12:44:51Z</time>
      </trkpt>
      <trkpt lat="46.2242" lon="4.48248">
        <ele>830.6</ele>
        <time>2025-09-20T12:44:52Z</time>
      </trkpt>
      <trkpt lat="46.22419" lon="4.48247">
        <ele>830.6</ele>
        <time>2025-09-20T12:44:53Z</time>
      </trkpt>
      <trkpt lat="46.22418" lon="4.48245">
        <ele>830.6</ele>
        <time>2025-09-20T12:44:54Z</time>
      </trkpt>
      <trkpt lat="46.22417" lon="4.48242">
        <ele>830.6</ele>
        <time>2025-09-20T12:44:55Z</time>
      </trkpt>
      <trkpt lat="46.22417" lon="4.4824">
        <ele>830.8</ele>
        <time>2025-09-20T12:44:56Z</time>
      </trkpt>
      <trkpt lat="46.22416" lon="4.48237">
        <ele>830.8</ele>
        <time>2025-09-20T12:44:57Z</time>
      </trkpt>
      <trkpt lat="46.22414" lon="4.48235">
        <ele>830.8</ele>
        <time>2025-09-20T12:44:58Z</time>
      </trkpt>
      <trkpt lat="46.22412" lon="4.48234">
        <ele>830.8</ele>
        <time>2025-09-20T12:44:59Z</time>
      </trkpt>
      <trkpt lat="46.2241" lon="4.48233">
        <ele>830.8</ele>
        <time>2025-09-20T12:45:00Z</time>
      </trkpt>
      <trkpt lat="46.22409" lon="4.48232">
        <ele>830.8</ele>
        <time>2025-09-20T12:45:01Z</time>
      </trkpt>
      <trkpt lat="46.22408" lon="4.48232">
        <ele>830.8</ele>
        <time>2025-09-20T12:45:02Z</time>
      </trkpt>
      <trkpt lat="46.22409" lon="4.48232">
        <ele>830.8</ele>
        <time>2025-09-20T12:45:03Z</time>
      </trkpt>
      <trkpt lat="46.22409" lon="4.48232">
        <ele>830.8</ele>
        <time>2025-09-20T12:45:04Z</time>
      </trkpt>
      <trkpt lat="46.22411" lon="4.48231">
        <ele>830.8</ele>
        <time>2025-09-20T12:45:07Z</time>
      </trkpt>
      <trkpt lat="46.2241" lon="4.4823">
        <ele>830.8</ele>
        <time>2025-09-20T12:45:08Z</time>
      </trkpt>
      <trkpt lat="46.2241" lon="4.48229">
        <ele>830.8</ele>
        <time>2025-09-20T12:45:09Z</time>
      </trkpt>
      <trkpt lat="46.2241" lon="4.48228">
        <ele>830.8</ele>
        <time>2025-09-20T12:45:10Z</time>
      </trkpt>
      <trkpt lat="46.22409" lon="4.48227">
        <ele>830.8</ele>
        <time>2025-09-20T12:45:11Z</time>
      </trkpt>
      <trkpt lat="46.22409" lon="4.48226">
        <ele>830.8</ele>
        <time>2025-09-20T12:45:12Z</time>
      </trkpt>
      <trkpt lat="46.22409" lon="4.48226">
        <ele>830.8</ele>
        <time>2025-09-20T12:45:13Z</time>
      </trkpt>
      <trkpt lat="46.22405" lon="4.48221">
        <ele>831.4</ele>
        <time>2025-09-20T12:46:50Z</time>
      </trkpt>
      <trkpt lat="46.22404" lon="4.48218">
        <ele>831.4</ele>
        <time>2025-09-20T12:46:51Z</time>
      </trkpt>
      <trkpt lat="46.22403" lon="4.48216">
        <ele>831.4</ele>
        <time>2025-09-20T12:46:52Z</time>
      </trkpt>
      <trkpt lat="46.22402" lon="4.48212">
        <ele>831</ele>
        <time>2025-09-20T12:46:53Z</time>
      </trkpt>
      <trkpt lat="46.22401" lon="4.48208">
        <ele>831</ele>
        <time>2025-09-20T12:46:54Z</time>
      </trkpt>
      <trkpt lat="46.224" lon="4.48205">
        <ele>831</ele>
        <time>2025-09-20T12:46:55Z</time>
      </trkpt>
      <trkpt lat="46.22397" lon="4.48201">
        <ele>830.6</ele>
        <time>2025-09-20T12:46:56Z</time>
      </trkpt>
      <trkpt lat="46.22395" lon="4.48196">
        <ele>830.2</ele>
        <time>2025-09-20T12:46:57Z</time>
      </trkpt>
      <trkpt lat="46.22392" lon="4.48192">
        <ele>829.6</ele>
        <time>2025-09-20T12:46:58Z</time>
      </trkpt>
      <trkpt lat="46.2239" lon="4.48188">
        <ele>830.2</ele>
        <time>2025-09-20T12:46:59Z</time>
      </trkpt>
      <trkpt lat="46.22387" lon="4.48185">
        <ele>830.2</ele>
        <time>2025-09-20T12:47:00Z</time>
      </trkpt>
      <trkpt lat="46.22384" lon="4.48181">
        <ele>830.2</ele>
        <time>2025-09-20T12:47:01Z</time>
      </trkpt>
      <trkpt lat="46.22381" lon="4.48177">
        <ele>830.2</ele>
        <time>2025-09-20T12:47:02Z</time>
      </trkpt>
      <trkpt lat="46.22379" lon="4.48174">
        <ele>829.8</ele>
        <time>2025-09-20T12:47:03Z</time>
      </trkpt>
      <trkpt lat="46.22376" lon="4.48171">
        <ele>829.8</ele>
        <time>2025-09-20T12:47:04Z</time>
      </trkpt>
      <trkpt lat="46.22373" lon="4.48168">
        <ele>829.6</ele>
        <time>2025-09-20T12:47:05Z</time>
      </trkpt>
      <trkpt lat="46.22371" lon="4.48165">
        <ele>829.6</ele>
        <time>2025-09-20T12:47:06Z</time>
      </trkpt>
      <trkpt lat="46.22368" lon="4.48161">
        <ele>829.2</ele>
        <time>2025-09-20T12:47:07Z</time>
      </trkpt>
      <trkpt lat="46.22365" lon="4.48158">
        <ele>829.2</ele>
        <time>2025-09-20T12:47:08Z</time>
      </trkpt>
      <trkpt lat="46.22362" lon="4.48154">
        <ele>828.8</ele>
        <time>2025-09-20T12:47:09Z</time>
      </trkpt>
      <trkpt lat="46.22358" lon="4.48151">
        <ele>828.8</ele>
        <time>2025-09-20T12:47:10Z</time>
      </trkpt>
      <trkpt lat="46.22355" lon="4.48148">
        <ele>828.6</ele>
        <time>2025-09-20T12:47:11Z</time>
      </trkpt>
      <trkpt lat="46.22351" lon="4.48145">
        <ele>828.2</ele>
        <time>2025-09-20T12:47:12Z</time>
      </trkpt>
      <trkpt lat="46.22347" lon="4.48141">
        <ele>828.2</ele>
        <time>2025-09-20T12:47:13Z</time>
      </trkpt>
      <trkpt lat="46.22343" lon="4.48137">
        <ele>828</ele>
        <time>2025-09-20T12:47:14Z</time>
      </trkpt>
      <trkpt lat="46.22338" lon="4.48134">
        <ele>827.6</ele>
        <time>2025-09-20T12:47:15Z</time>
      </trkpt>
      <trkpt lat="46.22334" lon="4.48131">
        <ele>827.6</ele>
        <time>2025-09-20T12:47:16Z</time>
      </trkpt>
      <trkpt lat="46.2233" lon="4.48127">
        <ele>827.4</ele>
        <time>2025-09-20T12:47:17Z</time>
      </trkpt>
      <trkpt lat="46.22326" lon="4.48123">
        <ele>827.4</ele>
        <time>2025-09-20T12:47:18Z</time>
      </trkpt>
      <trkpt lat="46.22322" lon="4.48121">
        <ele>827.4</ele>
        <time>2025-09-20T12:47:19Z</time>
      </trkpt>
      <trkpt lat="46.22318" lon="4.48117">
        <ele>827.4</ele>
        <time>2025-09-20T12:47:20Z</time>
      </trkpt>
      <trkpt lat="46.22313" lon="4.48114">
        <ele>827.4</ele>
        <time>2025-09-20T12:47:21Z</time>
      </trkpt>
      <trkpt lat="46.22308" lon="4.48113">
        <ele>827.4</ele>
        <time>2025-09-20T12:47:22Z</time>
      </trkpt>
      <trkpt lat="46.22303" lon="4.48107">
        <ele>827.4</ele>
        <time>2025-09-20T12:47:23Z</time>
      </trkpt>
      <trkpt lat="46.22299" lon="4.48105">
        <ele>827.4</ele>
        <time>2025-09-20T12:47:24Z</time>
      </trkpt>
      <trkpt lat="46.22293" lon="4.48105">
        <ele>827.4</ele>
        <time>2025-09-20T12:47:25Z</time>
      </trkpt>
      <trkpt lat="46.22288" lon="4.48102">
        <ele>827.4</ele>
        <time>2025-09-20T12:47:26Z</time>
      </trkpt>
      <trkpt lat="46.22284" lon="4.481">
        <ele>827.6</ele>
        <time>2025-09-20T12:47:27Z</time>
      </trkpt>
      <trkpt lat="46.22279" lon="4.48099">
        <ele>827.8</ele>
        <time>2025-09-20T12:47:28Z</time>
      </trkpt>
      <trkpt lat="46.22275" lon="4.48098">
        <ele>827.8</ele>
        <time>2025-09-20T12:47:29Z</time>
      </trkpt>
      <trkpt lat="46.22271" lon="4.48097">
        <ele>828.2</ele>
        <time>2025-09-20T12:47:30Z</time>
      </trkpt>
      <trkpt lat="46.22267" lon="4.48095">
        <ele>828.2</ele>
        <time>2025-09-20T12:47:31Z</time>
      </trkpt>
      <trkpt lat="46.22264" lon="4.48094">
        <ele>828.4</ele>
        <time>2025-09-20T12:47:32Z</time>
      </trkpt>
      <trkpt lat="46.22261" lon="4.48093">
        <ele>828.4</ele>
        <time>2025-09-20T12:47:33Z</time>
      </trkpt>
      <trkpt lat="46.22258" lon="4.48093">
        <ele>828.4</ele>
        <time>2025-09-20T12:47:34Z</time>
      </trkpt>
      <trkpt lat="46.22256" lon="4.48092">
        <ele>828.6</ele>
        <time>2025-09-20T12:47:35Z</time>
      </trkpt>
      <trkpt lat="46.22254" lon="4.48091">
        <ele>829</ele>
        <time>2025-09-20T12:47:36Z</time>
      </trkpt>
      <trkpt lat="46.22251" lon="4.4809">
        <ele>829</ele>
        <time>2025-09-20T12:47:37Z</time>
      </trkpt>
      <trkpt lat="46.22249" lon="4.4809">
        <ele>829.2</ele>
        <time>2025-09-20T12:47:38Z</time>
      </trkpt>
      <trkpt lat="46.22246" lon="4.4809">
        <ele>829.2</ele>
        <time>2025-09-20T12:47:39Z</time>
      </trkpt>
      <trkpt lat="46.22244" lon="4.4809">
        <ele>829.6</ele>
        <time>2025-09-20T12:47:40Z</time>
      </trkpt>
      <trkpt lat="46.22241" lon="4.4809">
        <ele>829.6</ele>
        <time>2025-09-20T12:47:41Z</time>
      </trkpt>
      <trkpt lat="46.22239" lon="4.48089">
        <ele>830</ele>
        <time>2025-09-20T12:47:42Z</time>
      </trkpt>
      <trkpt lat="46.22236" lon="4.48089">
        <ele>830</ele>
        <time>2025-09-20T12:47:43Z</time>
      </trkpt>
      <trkpt lat="46.22234" lon="4.48088">
        <ele>830.2</ele>
        <time>2025-09-20T12:47:44Z</time>
      </trkpt>
      <trkpt lat="46.22232" lon="4.48087">
        <ele>830.6</ele>
        <time>2025-09-20T12:47:45Z</time>
      </trkpt>
      <trkpt lat="46.2223" lon="4.48087">
        <ele>830.6</ele>
        <time>2025-09-20T12:47:46Z</time>
      </trkpt>
      <trkpt lat="46.22228" lon="4.48087">
        <ele>830.8</ele>
        <time>2025-09-20T12:47:47Z</time>
      </trkpt>
      <trkpt lat="46.22226" lon="4.48086">
        <ele>831.2</ele>
        <time>2025-09-20T12:47:48Z</time>
      </trkpt>
      <trkpt lat="46.22225" lon="4.48087">
        <ele>831.6</ele>
        <time>2025-09-20T12:47:49Z</time>
      </trkpt>
      <trkpt lat="46.22223" lon="4.48087">
        <ele>830.6</ele>
        <time>2025-09-20T12:47:50Z</time>
      </trkpt>
      <trkpt lat="46.22222" lon="4.48087">
        <ele>830.6</ele>
        <time>2025-09-20T12:47:51Z</time>
      </trkpt>
      <trkpt lat="46.2222" lon="4.48088">
        <ele>831.8</ele>
        <time>2025-09-20T12:47:52Z</time>
      </trkpt>
      <trkpt lat="46.22218" lon="4.48088">
        <ele>832.2</ele>
        <time>2025-09-20T12:47:53Z</time>
      </trkpt>
      <trkpt lat="46.22217" lon="4.48088">
        <ele>832.4</ele>
        <time>2025-09-20T12:47:54Z</time>
      </trkpt>
      <trkpt lat="46.22217" lon="4.48088">
        <ele>831.4</ele>
        <time>2025-09-20T12:47:55Z</time>
      </trkpt>
      <trkpt lat="46.22215" lon="4.48088">
        <ele>832.4</ele>
        <time>2025-09-20T12:47:56Z</time>
      </trkpt>
      <trkpt lat="46.22214" lon="4.48088">
        <ele>832.8</ele>
        <time>2025-09-20T12:47:57Z</time>
      </trkpt>
      <trkpt lat="46.22212" lon="4.48088">
        <ele>833</ele>
        <time>2025-09-20T12:47:58Z</time>
      </trkpt>
      <trkpt lat="46.22211" lon="4.48088">
        <ele>833.2</ele>
        <time>2025-09-20T12:47:59Z</time>
      </trkpt>
      <trkpt lat="46.22209" lon="4.48088">
        <ele>833.2</ele>
        <time>2025-09-20T12:48:00Z</time>
      </trkpt>
      <trkpt lat="46.22207" lon="4.48088">
        <ele>833.2</ele>
        <time>2025-09-20T12:48:01Z</time>
      </trkpt>
      <trkpt lat="46.22206" lon="4.48089">
        <ele>833.6</ele>
        <time>2025-09-20T12:48:02Z</time>
      </trkpt>
      <trkpt lat="46.22204" lon="4.48089">
        <ele>834</ele>
        <time>2025-09-20T12:48:03Z</time>
      </trkpt>
      <trkpt lat="46.22203" lon="4.48089">
        <ele>834.2</ele>
        <time>2025-09-20T12:48:04Z</time>
      </trkpt>
      <trkpt lat="46.22201" lon="4.48089">
        <ele>834.4</ele>
        <time>2025-09-20T12:48:05Z</time>
      </trkpt>
      <trkpt lat="46.22199" lon="4.48088">
        <ele>834.4</ele>
        <time>2025-09-20T12:48:06Z</time>
      </trkpt>
      <trkpt lat="46.22198" lon="4.48088">
        <ele>834.8</ele>
        <time>2025-09-20T12:48:07Z</time>
      </trkpt>
      <trkpt lat="46.22196" lon="4.48088">
        <ele>835</ele>
        <time>2025-09-20T12:48:08Z</time>
      </trkpt>
      <trkpt lat="46.22195" lon="4.48089">
        <ele>835.2</ele>
        <time>2025-09-20T12:48:09Z</time>
      </trkpt>
      <trkpt lat="46.22194" lon="4.48089">
        <ele>835.2</ele>
        <time>2025-09-20T12:48:10Z</time>
      </trkpt>
      <trkpt lat="46.22192" lon="4.4809">
        <ele>835.4</ele>
        <time>2025-09-20T12:48:11Z</time>
      </trkpt>
      <trkpt lat="46.2219" lon="4.48091">
        <ele>835.4</ele>
        <time>2025-09-20T12:48:12Z</time>
      </trkpt>
      <trkpt lat="46.22189" lon="4.48091">
        <ele>835.6</ele>
        <time>2025-09-20T12:48:13Z</time>
      </trkpt>
      <trkpt lat="46.22188" lon="4.48091">
        <ele>835.6</ele>
        <time>2025-09-20T12:48:14Z</time>
      </trkpt>
      <trkpt lat="46.22187" lon="4.48092">
        <ele>836</ele>
        <time>2025-09-20T12:48:15Z</time>
      </trkpt>
      <trkpt lat="46.22185" lon="4.48092">
        <ele>836.2</ele>
        <time>2025-09-20T12:48:16Z</time>
      </trkpt>
      <trkpt lat="46.22184" lon="4.48093">
        <ele>836.2</ele>
        <time>2025-09-20T12:48:17Z</time>
      </trkpt>
      <trkpt lat="46.22183" lon="4.48094">
        <ele>836.2</ele>
        <time>2025-09-20T12:48:18Z</time>
      </trkpt>
      <trkpt lat="46.22182" lon="4.48095">
        <ele>836.4</ele>
        <time>2025-09-20T12:48:19Z</time>
      </trkpt>
      <trkpt lat="46.22181" lon="4.48096">
        <ele>836.4</ele>
        <time>2025-09-20T12:48:20Z</time>
      </trkpt>
      <trkpt lat="46.22179" lon="4.48096">
        <ele>836.8</ele>
        <time>2025-09-20T12:48:21Z</time>
      </trkpt>
      <trkpt lat="46.22177" lon="4.48096">
        <ele>837</ele>
        <time>2025-09-20T12:48:22Z</time>
      </trkpt>
      <trkpt lat="46.22176" lon="4.48096">
        <ele>837.2</ele>
        <time>2025-09-20T12:48:23Z</time>
      </trkpt>
      <trkpt lat="46.22175" lon="4.48096">
        <ele>837.2</ele>
        <time>2025-09-20T12:48:24Z</time>
      </trkpt>
      <trkpt lat="46.22174" lon="4.48096">
        <ele>837.6</ele>
        <time>2025-09-20T12:48:25Z</time>
      </trkpt>
      <trkpt lat="46.22173" lon="4.48097">
        <ele>837.6</ele>
        <time>2025-09-20T12:48:26Z</time>
      </trkpt>
      <trkpt lat="46.22171" lon="4.48097">
        <ele>837.6</ele>
        <time>2025-09-20T12:48:27Z</time>
      </trkpt>
      <trkpt lat="46.2217" lon="4.48097">
        <ele>838</ele>
        <time>2025-09-20T12:48:28Z</time>
      </trkpt>
      <trkpt lat="46.22168" lon="4.48097">
        <ele>838</ele>
        <time>2025-09-20T12:48:29Z</time>
      </trkpt>
      <trkpt lat="46.22167" lon="4.48097">
        <ele>838.2</ele>
        <time>2025-09-20T12:48:30Z</time>
      </trkpt>
      <trkpt lat="46.22166" lon="4.48098">
        <ele>838.2</ele>
        <time>2025-09-20T12:48:31Z</time>
      </trkpt>
      <trkpt lat="46.22164" lon="4.48098">
        <ele>838.2</ele>
        <time>2025-09-20T12:48:32Z</time>
      </trkpt>
      <trkpt lat="46.22163" lon="4.48098">
        <ele>838.4</ele>
        <time>2025-09-20T12:48:33Z</time>
      </trkpt>
      <trkpt lat="46.22162" lon="4.48099">
        <ele>838.4</ele>
        <time>2025-09-20T12:48:34Z</time>
      </trkpt>
      <trkpt lat="46.2216" lon="4.48099">
        <ele>838.6</ele>
        <time>2025-09-20T12:48:35Z</time>
      </trkpt>
      <trkpt lat="46.22159" lon="4.48099">
        <ele>838.8</ele>
        <time>2025-09-20T12:48:36Z</time>
      </trkpt>
      <trkpt lat="46.22158" lon="4.48099">
        <ele>838.8</ele>
        <time>2025-09-20T12:48:37Z</time>
      </trkpt>
      <trkpt lat="46.22157" lon="4.48099">
        <ele>838.8</ele>
        <time>2025-09-20T12:48:38Z</time>
      </trkpt>
      <trkpt lat="46.22155" lon="4.481">
        <ele>838.8</ele>
        <time>2025-09-20T12:48:39Z</time>
      </trkpt>
      <trkpt lat="46.22154" lon="4.48101">
        <ele>839.2</ele>
        <time>2025-09-20T12:48:40Z</time>
      </trkpt>
      <trkpt lat="46.22154" lon="4.48102">
        <ele>839.2</ele>
        <time>2025-09-20T12:48:41Z</time>
      </trkpt>
      <trkpt lat="46.22153" lon="4.48103">
        <ele>839.6</ele>
        <time>2025-09-20T12:48:42Z</time>
      </trkpt>
      <trkpt lat="46.22151" lon="4.48103">
        <ele>839.8</ele>
        <time>2025-09-20T12:48:43Z</time>
      </trkpt>
      <trkpt lat="46.2215" lon="4.48103">
        <ele>840.2</ele>
        <time>2025-09-20T12:48:44Z</time>
      </trkpt>
      <trkpt lat="46.22149" lon="4.48103">
        <ele>840.2</ele>
        <time>2025-09-20T12:48:45Z</time>
      </trkpt>
      <trkpt lat="46.22148" lon="4.48103">
        <ele>840.6</ele>
        <time>2025-09-20T12:48:46Z</time>
      </trkpt>
      <trkpt lat="46.22146" lon="4.48104">
        <ele>841</ele>
        <time>2025-09-20T12:48:47Z</time>
      </trkpt>
      <trkpt lat="46.22145" lon="4.48105">
        <ele>841.2</ele>
        <time>2025-09-20T12:48:48Z</time>
      </trkpt>
      <trkpt lat="46.22143" lon="4.48105">
        <ele>841.4</ele>
        <time>2025-09-20T12:48:49Z</time>
      </trkpt>
      <trkpt lat="46.22141" lon="4.48105">
        <ele>841.6</ele>
        <time>2025-09-20T12:48:50Z</time>
      </trkpt>
      <trkpt lat="46.2214" lon="4.48106">
        <ele>841.8</ele>
        <time>2025-09-20T12:48:51Z</time>
      </trkpt>
      <trkpt lat="46.22138" lon="4.48106">
        <ele>841.8</ele>
        <time>2025-09-20T12:48:52Z</time>
      </trkpt>
      <trkpt lat="46.22137" lon="4.48106">
        <ele>841.8</ele>
        <time>2025-09-20T12:48:53Z</time>
      </trkpt>
      <trkpt lat="46.22135" lon="4.48107">
        <ele>842.2</ele>
        <time>2025-09-20T12:48:54Z</time>
      </trkpt>
      <trkpt lat="46.22133" lon="4.48107">
        <ele>842.2</ele>
        <time>2025-09-20T12:48:55Z</time>
      </trkpt>
      <trkpt lat="46.22132" lon="4.48108">
        <ele>842.6</ele>
        <time>2025-09-20T12:48:56Z</time>
      </trkpt>
      <trkpt lat="46.22131" lon="4.48109">
        <ele>842.8</ele>
        <time>2025-09-20T12:48:57Z</time>
      </trkpt>
      <trkpt lat="46.22129" lon="4.48109">
        <ele>842.8</ele>
        <time>2025-09-20T12:48:58Z</time>
      </trkpt>
      <trkpt lat="46.22128" lon="4.4811">
        <ele>843</ele>
        <time>2025-09-20T12:48:59Z</time>
      </trkpt>
      <trkpt lat="46.22126" lon="4.4811">
        <ele>843</ele>
        <time>2025-09-20T12:49:00Z</time>
      </trkpt>
      <trkpt lat="46.22125" lon="4.4811">
        <ele>843.2</ele>
        <time>2025-09-20T12:49:01Z</time>
      </trkpt>
      <trkpt lat="46.22123" lon="4.48111">
        <ele>843.2</ele>
        <time>2025-09-20T12:49:02Z</time>
      </trkpt>
      <trkpt lat="46.22122" lon="4.48111">
        <ele>843.6</ele>
        <time>2025-09-20T12:49:03Z</time>
      </trkpt>
      <trkpt lat="46.2212" lon="4.48111">
        <ele>843.8</ele>
        <time>2025-09-20T12:49:04Z</time>
      </trkpt>
      <trkpt lat="46.22118" lon="4.48111">
        <ele>843.8</ele>
        <time>2025-09-20T12:49:05Z</time>
      </trkpt>
      <trkpt lat="46.22116" lon="4.48111">
        <ele>843.8</ele>
        <time>2025-09-20T12:49:06Z</time>
      </trkpt>
      <trkpt lat="46.22115" lon="4.48111">
        <ele>844.2</ele>
        <time>2025-09-20T12:49:07Z</time>
      </trkpt>
      <trkpt lat="46.22113" lon="4.48111">
        <ele>844.4</ele>
        <time>2025-09-20T12:49:08Z</time>
      </trkpt>
      <trkpt lat="46.22111" lon="4.48111">
        <ele>844.8</ele>
        <time>2025-09-20T12:49:09Z</time>
      </trkpt>
      <trkpt lat="46.22109" lon="4.48112">
        <ele>845</ele>
        <time>2025-09-20T12:49:10Z</time>
      </trkpt>
      <trkpt lat="46.22107" lon="4.48112">
        <ele>845.4</ele>
        <time>2025-09-20T12:49:11Z</time>
      </trkpt>
      <trkpt lat="46.22105" lon="4.48112">
        <ele>845.4</ele>
        <time>2025-09-20T12:49:12Z</time>
      </trkpt>
      <trkpt lat="46.22104" lon="4.48113">
        <ele>845.6</ele>
        <time>2025-09-20T12:49:13Z</time>
      </trkpt>
      <trkpt lat="46.22102" lon="4.48113">
        <ele>845.6</ele>
        <time>2025-09-20T12:49:14Z</time>
      </trkpt>
      <trkpt lat="46.22101" lon="4.48114">
        <ele>846</ele>
        <time>2025-09-20T12:49:15Z</time>
      </trkpt>
      <trkpt lat="46.22099" lon="4.48114">
        <ele>846.2</ele>
        <time>2025-09-20T12:49:16Z</time>
      </trkpt>
      <trkpt lat="46.22098" lon="4.48114">
        <ele>846.4</ele>
        <time>2025-09-20T12:49:17Z</time>
      </trkpt>
      <trkpt lat="46.22096" lon="4.48114">
        <ele>846.4</ele>
        <time>2025-09-20T12:49:18Z</time>
      </trkpt>
      <trkpt lat="46.22094" lon="4.48114">
        <ele>846.4</ele>
        <time>2025-09-20T12:49:19Z</time>
      </trkpt>
      <trkpt lat="46.22092" lon="4.48113">
        <ele>846.6</ele>
        <time>2025-09-20T12:49:20Z</time>
      </trkpt>
      <trkpt lat="46.2209" lon="4.48113">
        <ele>846.6</ele>
        <time>2025-09-20T12:49:21Z</time>
      </trkpt>
      <trkpt lat="46.22088" lon="4.48113">
        <ele>847</ele>
        <time>2025-09-20T12:49:22Z</time>
      </trkpt>
      <trkpt lat="46.22087" lon="4.48113">
        <ele>847</ele>
        <time>2025-09-20T12:49:23Z</time>
      </trkpt>
      <trkpt lat="46.22085" lon="4.48114">
        <ele>847</ele>
        <time>2025-09-20T12:49:24Z</time>
      </trkpt>
      <trkpt lat="46.22084" lon="4.48115">
        <ele>847</ele>
        <time>2025-09-20T12:49:25Z</time>
      </trkpt>
      <trkpt lat="46.22081" lon="4.48115">
        <ele>847</ele>
        <time>2025-09-20T12:49:26Z</time>
      </trkpt>
      <trkpt lat="46.22079" lon="4.48115">
        <ele>847</ele>
        <time>2025-09-20T12:49:27Z</time>
      </trkpt>
      <trkpt lat="46.22078" lon="4.48115">
        <ele>847</ele>
        <time>2025-09-20T12:49:28Z</time>
      </trkpt>
      <trkpt lat="46.22076" lon="4.48115">
        <ele>847.2</ele>
        <time>2025-09-20T12:49:29Z</time>
      </trkpt>
      <trkpt lat="46.22074" lon="4.48115">
        <ele>847.2</ele>
        <time>2025-09-20T12:49:30Z</time>
      </trkpt>
      <trkpt lat="46.22073" lon="4.48115">
        <ele>847.2</ele>
        <time>2025-09-20T12:49:31Z</time>
      </trkpt>
      <trkpt lat="46.22071" lon="4.48116">
        <ele>847.4</ele>
        <time>2025-09-20T12:49:32Z</time>
      </trkpt>
      <trkpt lat="46.2207" lon="4.48116">
        <ele>847.8</ele>
        <time>2025-09-20T12:49:33Z</time>
      </trkpt>
      <trkpt lat="46.22069" lon="4.48117">
        <ele>847.8</ele>
        <time>2025-09-20T12:49:34Z</time>
      </trkpt>
      <trkpt lat="46.22067" lon="4.48117">
        <ele>848</ele>
        <time>2025-09-20T12:49:35Z</time>
      </trkpt>
      <trkpt lat="46.22066" lon="4.48116">
        <ele>848</ele>
        <time>2025-09-20T12:49:36Z</time>
      </trkpt>
      <trkpt lat="46.22064" lon="4.48116">
        <ele>848.4</ele>
        <time>2025-09-20T12:49:37Z</time>
      </trkpt>
      <trkpt lat="46.22063" lon="4.48116">
        <ele>848.6</ele>
        <time>2025-09-20T12:49:38Z</time>
      </trkpt>
      <trkpt lat="46.22061" lon="4.48117">
        <ele>848.8</ele>
        <time>2025-09-20T12:49:39Z</time>
      </trkpt>
      <trkpt lat="46.2206" lon="4.48117">
        <ele>848.8</ele>
        <time>2025-09-20T12:49:40Z</time>
      </trkpt>
      <trkpt lat="46.22058" lon="4.48116">
        <ele>848.8</ele>
        <time>2025-09-20T12:49:41Z</time>
      </trkpt>
      <trkpt lat="46.22056" lon="4.48116">
        <ele>848.8</ele>
        <time>2025-09-20T12:49:42Z</time>
      </trkpt>
      <trkpt lat="46.22055" lon="4.48117">
        <ele>849.2</ele>
        <time>2025-09-20T12:49:43Z</time>
      </trkpt>
      <trkpt lat="46.22053" lon="4.48118">
        <ele>849.2</ele>
        <time>2025-09-20T12:49:44Z</time>
      </trkpt>
      <trkpt lat="46.22051" lon="4.48119">
        <ele>849.4</ele>
        <time>2025-09-20T12:49:45Z</time>
      </trkpt>
      <trkpt lat="46.2205" lon="4.48119">
        <ele>849.4</ele>
        <time>2025-09-20T12:49:46Z</time>
      </trkpt>
      <trkpt lat="46.22049" lon="4.48119">
        <ele>849.4</ele>
        <time>2025-09-20T12:49:47Z</time>
      </trkpt>
      <trkpt lat="46.22047" lon="4.48119">
        <ele>849.8</ele>
        <time>2025-09-20T12:49:48Z</time>
      </trkpt>
      <trkpt lat="46.22046" lon="4.48119">
        <ele>849.8</ele>
        <time>2025-09-20T12:49:49Z</time>
      </trkpt>
      <trkpt lat="46.22045" lon="4.48119">
        <ele>850.2</ele>
        <time>2025-09-20T12:49:50Z</time>
      </trkpt>
      <trkpt lat="46.22043" lon="4.4812">
        <ele>850.4</ele>
        <time>2025-09-20T12:49:51Z</time>
      </trkpt>
      <trkpt lat="46.22042" lon="4.4812">
        <ele>850.6</ele>
        <time>2025-09-20T12:49:52Z</time>
      </trkpt>
      <trkpt lat="46.2204" lon="4.4812">
        <ele>850.6</ele>
        <time>2025-09-20T12:49:53Z</time>
      </trkpt>
      <trkpt lat="46.22039" lon="4.4812">
        <ele>850.6</ele>
        <time>2025-09-20T12:49:54Z</time>
      </trkpt>
      <trkpt lat="46.22038" lon="4.48121">
        <ele>850.6</ele>
        <time>2025-09-20T12:49:55Z</time>
      </trkpt>
      <trkpt lat="46.22036" lon="4.48121">
        <ele>851.2</ele>
        <time>2025-09-20T12:49:56Z</time>
      </trkpt>
      <trkpt lat="46.22035" lon="4.48121">
        <ele>851.4</ele>
        <time>2025-09-20T12:49:57Z</time>
      </trkpt>
      <trkpt lat="46.22034" lon="4.48121">
        <ele>851.4</ele>
        <time>2025-09-20T12:49:58Z</time>
      </trkpt>
      <trkpt lat="46.22032" lon="4.4812">
        <ele>851.8</ele>
        <time>2025-09-20T12:49:59Z</time>
      </trkpt>
      <trkpt lat="46.22031" lon="4.48119">
        <ele>852</ele>
        <time>2025-09-20T12:50:00Z</time>
      </trkpt>
      <trkpt lat="46.22029" lon="4.4812">
        <ele>852.2</ele>
        <time>2025-09-20T12:50:01Z</time>
      </trkpt>
      <trkpt lat="46.22028" lon="4.4812">
        <ele>852.4</ele>
        <time>2025-09-20T12:50:02Z</time>
      </trkpt>
      <trkpt lat="46.22027" lon="4.48122">
        <ele>852.4</ele>
        <time>2025-09-20T12:50:03Z</time>
      </trkpt>
      <trkpt lat="46.22025" lon="4.48122">
        <ele>852.8</ele>
        <time>2025-09-20T12:50:04Z</time>
      </trkpt>
      <trkpt lat="46.22024" lon="4.48123">
        <ele>853</ele>
        <time>2025-09-20T12:50:05Z</time>
      </trkpt>
      <trkpt lat="46.22022" lon="4.48124">
        <ele>853</ele>
        <time>2025-09-20T12:50:06Z</time>
      </trkpt>
      <trkpt lat="46.22021" lon="4.48124">
        <ele>853.2</ele>
        <time>2025-09-20T12:50:07Z</time>
      </trkpt>
      <trkpt lat="46.2202" lon="4.48124">
        <ele>853.2</ele>
        <time>2025-09-20T12:50:08Z</time>
      </trkpt>
      <trkpt lat="46.22018" lon="4.48125">
        <ele>853.4</ele>
        <time>2025-09-20T12:50:09Z</time>
      </trkpt>
      <trkpt lat="46.22017" lon="4.48126">
        <ele>853.8</ele>
        <time>2025-09-20T12:50:10Z</time>
      </trkpt>
      <trkpt lat="46.22016" lon="4.48126">
        <ele>853.8</ele>
        <time>2025-09-20T12:50:11Z</time>
      </trkpt>
      <trkpt lat="46.22014" lon="4.48127">
        <ele>853.8</ele>
        <time>2025-09-20T12:50:12Z</time>
      </trkpt>
      <trkpt lat="46.22012" lon="4.48127">
        <ele>854</ele>
        <time>2025-09-20T12:50:13Z</time>
      </trkpt>
      <trkpt lat="46.22011" lon="4.48128">
        <ele>854.2</ele>
        <time>2025-09-20T12:50:14Z</time>
      </trkpt>
      <trkpt lat="46.22009" lon="4.48128">
        <ele>854.4</ele>
        <time>2025-09-20T12:50:15Z</time>
      </trkpt>
      <trkpt lat="46.22007" lon="4.48129">
        <ele>854.4</ele>
        <time>2025-09-20T12:50:16Z</time>
      </trkpt>
      <trkpt lat="46.22006" lon="4.48129">
        <ele>854.4</ele>
        <time>2025-09-20T12:50:17Z</time>
      </trkpt>
      <trkpt lat="46.22005" lon="4.48129">
        <ele>854.8</ele>
        <time>2025-09-20T12:50:18Z</time>
      </trkpt>
      <trkpt lat="46.22004" lon="4.48129">
        <ele>854.8</ele>
        <time>2025-09-20T12:50:19Z</time>
      </trkpt>
      <trkpt lat="46.22003" lon="4.48129">
        <ele>855</ele>
        <time>2025-09-20T12:50:20Z</time>
      </trkpt>
      <trkpt lat="46.22001" lon="4.48129">
        <ele>855</ele>
        <time>2025-09-20T12:50:21Z</time>
      </trkpt>
      <trkpt lat="46.22" lon="4.48129">
        <ele>855.4</ele>
        <time>2025-09-20T12:50:22Z</time>
      </trkpt>
      <trkpt lat="46.21998" lon="4.48129">
        <ele>855.4</ele>
        <time>2025-09-20T12:50:23Z</time>
      </trkpt>
      <trkpt lat="46.21996" lon="4.48129">
        <ele>855.6</ele>
        <time>2025-09-20T12:50:24Z</time>
      </trkpt>
      <trkpt lat="46.21994" lon="4.48129">
        <ele>855.6</ele>
        <time>2025-09-20T12:50:25Z</time>
      </trkpt>
      <trkpt lat="46.21993" lon="4.48129">
        <ele>856</ele>
        <time>2025-09-20T12:50:26Z</time>
      </trkpt>
      <trkpt lat="46.21992" lon="4.48129">
        <ele>856</ele>
        <time>2025-09-20T12:50:27Z</time>
      </trkpt>
      <trkpt lat="46.2199" lon="4.48129">
        <ele>856.2</ele>
        <time>2025-09-20T12:50:28Z</time>
      </trkpt>
      <trkpt lat="46.21989" lon="4.48129">
        <ele>856.2</ele>
        <time>2025-09-20T12:50:29Z</time>
      </trkpt>
      <trkpt lat="46.21987" lon="4.48129">
        <ele>856.6</ele>
        <time>2025-09-20T12:50:30Z</time>
      </trkpt>
      <trkpt lat="46.21985" lon="4.48128">
        <ele>856.6</ele>
        <time>2025-09-20T12:50:31Z</time>
      </trkpt>
      <trkpt lat="46.21984" lon="4.48127">
        <ele>856.8</ele>
        <time>2025-09-20T12:50:32Z</time>
      </trkpt>
      <trkpt lat="46.21982" lon="4.48126">
        <ele>856.8</ele>
        <time>2025-09-20T12:50:33Z</time>
      </trkpt>
      <trkpt lat="46.2198" lon="4.48124">
        <ele>856.8</ele>
        <time>2025-09-20T12:50:34Z</time>
      </trkpt>
      <trkpt lat="46.21978" lon="4.48123">
        <ele>857.2</ele>
        <time>2025-09-20T12:50:35Z</time>
      </trkpt>
      <trkpt lat="46.21976" lon="4.48122">
        <ele>857.2</ele>
        <time>2025-09-20T12:50:36Z</time>
      </trkpt>
      <trkpt lat="46.21974" lon="4.48121">
        <ele>857.4</ele>
        <time>2025-09-20T12:50:37Z</time>
      </trkpt>
      <trkpt lat="46.21972" lon="4.4812">
        <ele>857.4</ele>
        <time>2025-09-20T12:50:38Z</time>
      </trkpt>
      <trkpt lat="46.2197" lon="4.48119">
        <ele>857.4</ele>
        <time>2025-09-20T12:50:39Z</time>
      </trkpt>
      <trkpt lat="46.21969" lon="4.48118">
        <ele>857.4</ele>
        <time>2025-09-20T12:50:40Z</time>
      </trkpt>
      <trkpt lat="46.21968" lon="4.48118">
        <ele>857.4</ele>
        <time>2025-09-20T12:50:41Z</time>
      </trkpt>
      <trkpt lat="46.21967" lon="4.48118">
        <ele>857.8</ele>
        <time>2025-09-20T12:50:42Z</time>
      </trkpt>
      <trkpt lat="46.21966" lon="4.48118">
        <ele>857.8</ele>
        <time>2025-09-20T12:50:43Z</time>
      </trkpt>
      <trkpt lat="46.21964" lon="4.48119">
        <ele>858</ele>
        <time>2025-09-20T12:50:44Z</time>
      </trkpt>
      <trkpt lat="46.21963" lon="4.48119">
        <ele>858</ele>
        <time>2025-09-20T12:50:45Z</time>
      </trkpt>
      <trkpt lat="46.2196" lon="4.48119">
        <ele>858.2</ele>
        <time>2025-09-20T12:50:46Z</time>
      </trkpt>
      <trkpt lat="46.21958" lon="4.48119">
        <ele>858.2</ele>
        <time>2025-09-20T12:50:47Z</time>
      </trkpt>
      <trkpt lat="46.21956" lon="4.48118">
        <ele>858.2</ele>
        <time>2025-09-20T12:50:48Z</time>
      </trkpt>
      <trkpt lat="46.21954" lon="4.48118">
        <ele>858.6</ele>
        <time>2025-09-20T12:50:49Z</time>
      </trkpt>
      <trkpt lat="46.21952" lon="4.48118">
        <ele>858.8</ele>
        <time>2025-09-20T12:50:50Z</time>
      </trkpt>
      <trkpt lat="46.2195" lon="4.48118">
        <ele>859</ele>
        <time>2025-09-20T12:50:51Z</time>
      </trkpt>
      <trkpt lat="46.21949" lon="4.48118">
        <ele>859</ele>
        <time>2025-09-20T12:50:52Z</time>
      </trkpt>
      <trkpt lat="46.21948" lon="4.48118">
        <ele>859.2</ele>
        <time>2025-09-20T12:50:53Z</time>
      </trkpt>
      <trkpt lat="46.21946" lon="4.48118">
        <ele>859.2</ele>
        <time>2025-09-20T12:50:54Z</time>
      </trkpt>
      <trkpt lat="46.21942" lon="4.48118">
        <ele>859.8</ele>
        <time>2025-09-20T12:50:55Z</time>
      </trkpt>
      <trkpt lat="46.2194" lon="4.48118">
        <ele>860</ele>
        <time>2025-09-20T12:50:56Z</time>
      </trkpt>
      <trkpt lat="46.21938" lon="4.48118">
        <ele>860</ele>
        <time>2025-09-20T12:50:57Z</time>
      </trkpt>
      <trkpt lat="46.21938" lon="4.48117">
        <ele>860.6</ele>
        <time>2025-09-20T12:50:58Z</time>
      </trkpt>
      <trkpt lat="46.21936" lon="4.48117">
        <ele>860.6</ele>
        <time>2025-09-20T12:50:59Z</time>
      </trkpt>
      <trkpt lat="46.21935" lon="4.48116">
        <ele>860.8</ele>
        <time>2025-09-20T12:51:00Z</time>
      </trkpt>
      <trkpt lat="46.21933" lon="4.48115">
        <ele>861.2</ele>
        <time>2025-09-20T12:51:01Z</time>
      </trkpt>
      <trkpt lat="46.21932" lon="4.48116">
        <ele>861.4</ele>
        <time>2025-09-20T12:51:02Z</time>
      </trkpt>
      <trkpt lat="46.21931" lon="4.48116">
        <ele>861.4</ele>
        <time>2025-09-20T12:51:03Z</time>
      </trkpt>
      <trkpt lat="46.2193" lon="4.48117">
        <ele>861.8</ele>
        <time>2025-09-20T12:51:04Z</time>
      </trkpt>
      <trkpt lat="46.21929" lon="4.48117">
        <ele>861.8</ele>
        <time>2025-09-20T12:51:05Z</time>
      </trkpt>
      <trkpt lat="46.21927" lon="4.48116">
        <ele>862.2</ele>
        <time>2025-09-20T12:51:06Z</time>
      </trkpt>
      <trkpt lat="46.21925" lon="4.48116">
        <ele>862.4</ele>
        <time>2025-09-20T12:51:07Z</time>
      </trkpt>
      <trkpt lat="46.21924" lon="4.48115">
        <ele>862.4</ele>
        <time>2025-09-20T12:51:08Z</time>
      </trkpt>
      <trkpt lat="46.21923" lon="4.48115">
        <ele>862.8</ele>
        <time>2025-09-20T12:51:09Z</time>
      </trkpt>
      <trkpt lat="46.21922" lon="4.48115">
        <ele>862.8</ele>
        <time>2025-09-20T12:51:10Z</time>
      </trkpt>
      <trkpt lat="46.21919" lon="4.48114">
        <ele>863</ele>
        <time>2025-09-20T12:51:11Z</time>
      </trkpt>
      <trkpt lat="46.21917" lon="4.48114">
        <ele>863</ele>
        <time>2025-09-20T12:51:12Z</time>
      </trkpt>
      <trkpt lat="46.21915" lon="4.48113">
        <ele>863.4</ele>
        <time>2025-09-20T12:51:13Z</time>
      </trkpt>
      <trkpt lat="46.21913" lon="4.48113">
        <ele>863.4</ele>
        <time>2025-09-20T12:51:14Z</time>
      </trkpt>
      <trkpt lat="46.21911" lon="4.48112">
        <ele>863.4</ele>
        <time>2025-09-20T12:51:15Z</time>
      </trkpt>
      <trkpt lat="46.2191" lon="4.48112">
        <ele>863.6</ele>
        <time>2025-09-20T12:51:16Z</time>
      </trkpt>
      <trkpt lat="46.21908" lon="4.48112">
        <ele>863.6</ele>
        <time>2025-09-20T12:51:17Z</time>
      </trkpt>
      <trkpt lat="46.21906" lon="4.48111">
        <ele>864</ele>
        <time>2025-09-20T12:51:18Z</time>
      </trkpt>
      <trkpt lat="46.21905" lon="4.4811">
        <ele>864</ele>
        <time>2025-09-20T12:51:19Z</time>
      </trkpt>
      <trkpt lat="46.21903" lon="4.48109">
        <ele>864.2</ele>
        <time>2025-09-20T12:51:20Z</time>
      </trkpt>
      <trkpt lat="46.21901" lon="4.48108">
        <ele>864.2</ele>
        <time>2025-09-20T12:51:21Z</time>
      </trkpt>
      <trkpt lat="46.219" lon="4.48107">
        <ele>864.2</ele>
        <time>2025-09-20T12:51:22Z</time>
      </trkpt>
      <trkpt lat="46.21898" lon="4.48106">
        <ele>864.2</ele>
        <time>2025-09-20T12:51:23Z</time>
      </trkpt>
      <trkpt lat="46.21897" lon="4.48106">
        <ele>864.4</ele>
        <time>2025-09-20T12:51:24Z</time>
      </trkpt>
      <trkpt lat="46.21896" lon="4.48106">
        <ele>864.4</ele>
        <time>2025-09-20T12:51:25Z</time>
      </trkpt>
      <trkpt lat="46.21894" lon="4.48106">
        <ele>864.8</ele>
        <time>2025-09-20T12:51:26Z</time>
      </trkpt>
      <trkpt lat="46.21892" lon="4.48106">
        <ele>865.2</ele>
        <time>2025-09-20T12:51:27Z</time>
      </trkpt>
      <trkpt lat="46.2189" lon="4.48106">
        <ele>865.2</ele>
        <time>2025-09-20T12:51:28Z</time>
      </trkpt>
      <trkpt lat="46.21888" lon="4.48105">
        <ele>865.2</ele>
        <time>2025-09-20T12:51:29Z</time>
      </trkpt>
      <trkpt lat="46.21887" lon="4.48104">
        <ele>865.2</ele>
        <time>2025-09-20T12:51:30Z</time>
      </trkpt>
      <trkpt lat="46.21885" lon="4.48104">
        <ele>865.4</ele>
        <time>2025-09-20T12:51:31Z</time>
      </trkpt>
      <trkpt lat="46.21883" lon="4.48104">
        <ele>865.8</ele>
        <time>2025-09-20T12:51:32Z</time>
      </trkpt>
      <trkpt lat="46.21882" lon="4.48104">
        <ele>866</ele>
        <time>2025-09-20T12:51:33Z</time>
      </trkpt>
      <trkpt lat="46.2188" lon="4.48104">
        <ele>866.2</ele>
        <time>2025-09-20T12:51:34Z</time>
      </trkpt>
      <trkpt lat="46.21878" lon="4.48104">
        <ele>866.2</ele>
        <time>2025-09-20T12:51:35Z</time>
      </trkpt>
      <trkpt lat="46.21876" lon="4.48104">
        <ele>866.6</ele>
        <time>2025-09-20T12:51:36Z</time>
      </trkpt>
      <trkpt lat="46.21874" lon="4.48103">
        <ele>866.6</ele>
        <time>2025-09-20T12:51:37Z</time>
      </trkpt>
      <trkpt lat="46.21872" lon="4.48103">
        <ele>867</ele>
        <time>2025-09-20T12:51:38Z</time>
      </trkpt>
      <trkpt lat="46.21871" lon="4.48103">
        <ele>867.2</ele>
        <time>2025-09-20T12:51:39Z</time>
      </trkpt>
      <trkpt lat="46.21869" lon="4.48102">
        <ele>867.2</ele>
        <time>2025-09-20T12:51:40Z</time>
      </trkpt>
      <trkpt lat="46.21867" lon="4.48102">
        <ele>867.6</ele>
        <time>2025-09-20T12:51:41Z</time>
      </trkpt>
      <trkpt lat="46.21866" lon="4.48101">
        <ele>867.6</ele>
        <time>2025-09-20T12:51:42Z</time>
      </trkpt>
      <trkpt lat="46.21864" lon="4.48101">
        <ele>867.8</ele>
        <time>2025-09-20T12:51:43Z</time>
      </trkpt>
      <trkpt lat="46.21862" lon="4.48101">
        <ele>868</ele>
        <time>2025-09-20T12:51:44Z</time>
      </trkpt>
      <trkpt lat="46.2186" lon="4.48101">
        <ele>868</ele>
        <time>2025-09-20T12:51:45Z</time>
      </trkpt>
      <trkpt lat="46.21858" lon="4.48102">
        <ele>868</ele>
        <time>2025-09-20T12:51:46Z</time>
      </trkpt>
      <trkpt lat="46.21857" lon="4.48102">
        <ele>868.4</ele>
        <time>2025-09-20T12:51:47Z</time>
      </trkpt>
      <trkpt lat="46.21855" lon="4.48102">
        <ele>868.6</ele>
        <time>2025-09-20T12:51:48Z</time>
      </trkpt>
      <trkpt lat="46.21853" lon="4.48102">
        <ele>868.6</ele>
        <time>2025-09-20T12:51:49Z</time>
      </trkpt>
      <trkpt lat="46.21852" lon="4.48102">
        <ele>868.6</ele>
        <time>2025-09-20T12:51:50Z</time>
      </trkpt>
      <trkpt lat="46.2185" lon="4.48101">
        <ele>868.6</ele>
        <time>2025-09-20T12:51:51Z</time>
      </trkpt>
      <trkpt lat="46.21849" lon="4.48101">
        <ele>869</ele>
        <time>2025-09-20T12:51:52Z</time>
      </trkpt>
      <trkpt lat="46.21847" lon="4.48101">
        <ele>869</ele>
        <time>2025-09-20T12:51:53Z</time>
      </trkpt>
      <trkpt lat="46.21846" lon="4.48101">
        <ele>869.4</ele>
        <time>2025-09-20T12:51:54Z</time>
      </trkpt>
      <trkpt lat="46.21844" lon="4.481">
        <ele>869.6</ele>
        <time>2025-09-20T12:51:55Z</time>
      </trkpt>
      <trkpt lat="46.21843" lon="4.481">
        <ele>869.6</ele>
        <time>2025-09-20T12:51:56Z</time>
      </trkpt>
      <trkpt lat="46.21842" lon="4.481">
        <ele>870</ele>
        <time>2025-09-20T12:51:57Z</time>
      </trkpt>
      <trkpt lat="46.2184" lon="4.481">
        <ele>870</ele>
        <time>2025-09-20T12:51:58Z</time>
      </trkpt>
      <trkpt lat="46.21839" lon="4.481">
        <ele>870</ele>
        <time>2025-09-20T12:51:59Z</time>
      </trkpt>
      <trkpt lat="46.21837" lon="4.481">
        <ele>870</ele>
        <time>2025-09-20T12:52:00Z</time>
      </trkpt>
      <trkpt lat="46.21836" lon="4.48099">
        <ele>870.4</ele>
        <time>2025-09-20T12:52:01Z</time>
      </trkpt>
      <trkpt lat="46.21834" lon="4.48099">
        <ele>870.6</ele>
        <time>2025-09-20T12:52:02Z</time>
      </trkpt>
      <trkpt lat="46.21833" lon="4.48099">
        <ele>870.6</ele>
        <time>2025-09-20T12:52:03Z</time>
      </trkpt>
      <trkpt lat="46.21832" lon="4.48099">
        <ele>870.8</ele>
        <time>2025-09-20T12:52:04Z</time>
      </trkpt>
      <trkpt lat="46.2183" lon="4.48099">
        <ele>870.8</ele>
        <time>2025-09-20T12:52:05Z</time>
      </trkpt>
      <trkpt lat="46.21829" lon="4.48099">
        <ele>871.2</ele>
        <time>2025-09-20T12:52:06Z</time>
      </trkpt>
      <trkpt lat="46.21827" lon="4.48099">
        <ele>871.2</ele>
        <time>2025-09-20T12:52:07Z</time>
      </trkpt>
      <trkpt lat="46.21825" lon="4.481">
        <ele>871.4</ele>
        <time>2025-09-20T12:52:08Z</time>
      </trkpt>
      <trkpt lat="46.21824" lon="4.481">
        <ele>871.6</ele>
        <time>2025-09-20T12:52:09Z</time>
      </trkpt>
      <trkpt lat="46.21822" lon="4.48099">
        <ele>871.6</ele>
        <time>2025-09-20T12:52:10Z</time>
      </trkpt>
      <trkpt lat="46.2182" lon="4.48099">
        <ele>872</ele>
        <time>2025-09-20T12:52:11Z</time>
      </trkpt>
      <trkpt lat="46.21819" lon="4.48099">
        <ele>872</ele>
        <time>2025-09-20T12:52:12Z</time>
      </trkpt>
      <trkpt lat="46.21817" lon="4.48099">
        <ele>872</ele>
        <time>2025-09-20T12:52:13Z</time>
      </trkpt>
      <trkpt lat="46.21815" lon="4.481">
        <ele>872</ele>
        <time>2025-09-20T12:52:14Z</time>
      </trkpt>
      <trkpt lat="46.21814" lon="4.481">
        <ele>872.2</ele>
        <time>2025-09-20T12:52:15Z</time>
      </trkpt>
      <trkpt lat="46.21812" lon="4.481">
        <ele>872.4</ele>
        <time>2025-09-20T12:52:16Z</time>
      </trkpt>
      <trkpt lat="46.21811" lon="4.481">
        <ele>872.4</ele>
        <time>2025-09-20T12:52:17Z</time>
      </trkpt>
      <trkpt lat="46.21809" lon="4.481">
        <ele>872.4</ele>
        <time>2025-09-20T12:52:18Z</time>
      </trkpt>
      <trkpt lat="46.21807" lon="4.481">
        <ele>872.8</ele>
        <time>2025-09-20T12:52:19Z</time>
      </trkpt>
      <trkpt lat="46.21806" lon="4.481">
        <ele>872.8</ele>
        <time>2025-09-20T12:52:20Z</time>
      </trkpt>
      <trkpt lat="46.21804" lon="4.481">
        <ele>873</ele>
        <time>2025-09-20T12:52:21Z</time>
      </trkpt>
      <trkpt lat="46.21802" lon="4.48098">
        <ele>873.4</ele>
        <time>2025-09-20T12:52:22Z</time>
      </trkpt>
      <trkpt lat="46.218" lon="4.48097">
        <ele>873.6</ele>
        <time>2025-09-20T12:52:23Z</time>
      </trkpt>
      <trkpt lat="46.21799" lon="4.48097">
        <ele>873.6</ele>
        <time>2025-09-20T12:52:24Z</time>
      </trkpt>
      <trkpt lat="46.21797" lon="4.48097">
        <ele>873.6</ele>
        <time>2025-09-20T12:52:25Z</time>
      </trkpt>
      <trkpt lat="46.21797" lon="4.48097">
        <ele>873.8</ele>
        <time>2025-09-20T12:52:26Z</time>
      </trkpt>
      <trkpt lat="46.21795" lon="4.48097">
        <ele>873.8</ele>
        <time>2025-09-20T12:52:27Z</time>
      </trkpt>
      <trkpt lat="46.21793" lon="4.48097">
        <ele>873.8</ele>
        <time>2025-09-20T12:52:28Z</time>
      </trkpt>
      <trkpt lat="46.21791" lon="4.48097">
        <ele>873.8</ele>
        <time>2025-09-20T12:52:29Z</time>
      </trkpt>
      <trkpt lat="46.21789" lon="4.48097">
        <ele>874.2</ele>
        <time>2025-09-20T12:52:30Z</time>
      </trkpt>
      <trkpt lat="46.21787" lon="4.48097">
        <ele>874.2</ele>
        <time>2025-09-20T12:52:31Z</time>
      </trkpt>
      <trkpt lat="46.21786" lon="4.48095">
        <ele>874.4</ele>
        <time>2025-09-20T12:52:32Z</time>
      </trkpt>
      <trkpt lat="46.21785" lon="4.48095">
        <ele>874.4</ele>
        <time>2025-09-20T12:52:33Z</time>
      </trkpt>
      <trkpt lat="46.21784" lon="4.48094">
        <ele>874.8</ele>
        <time>2025-09-20T12:52:34Z</time>
      </trkpt>
      <trkpt lat="46.21782" lon="4.48094">
        <ele>874.8</ele>
        <time>2025-09-20T12:52:35Z</time>
      </trkpt>
      <trkpt lat="46.21781" lon="4.48094">
        <ele>874.8</ele>
        <time>2025-09-20T12:52:36Z</time>
      </trkpt>
      <trkpt lat="46.21779" lon="4.48094">
        <ele>875</ele>
        <time>2025-09-20T12:52:37Z</time>
      </trkpt>
      <trkpt lat="46.21778" lon="4.48094">
        <ele>875</ele>
        <time>2025-09-20T12:52:38Z</time>
      </trkpt>
      <trkpt lat="46.21776" lon="4.48095">
        <ele>875.4</ele>
        <time>2025-09-20T12:52:39Z</time>
      </trkpt>
      <trkpt lat="46.21775" lon="4.48095">
        <ele>875.4</ele>
        <time>2025-09-20T12:52:40Z</time>
      </trkpt>
      <trkpt lat="46.21774" lon="4.48096">
        <ele>875.6</ele>
        <time>2025-09-20T12:52:41Z</time>
      </trkpt>
      <trkpt lat="46.21773" lon="4.48096">
        <ele>875.6</ele>
        <time>2025-09-20T12:52:42Z</time>
      </trkpt>
      <trkpt lat="46.21772" lon="4.48096">
        <ele>875.6</ele>
        <time>2025-09-20T12:52:43Z</time>
      </trkpt>
      <trkpt lat="46.21771" lon="4.48096">
        <ele>876</ele>
        <time>2025-09-20T12:52:44Z</time>
      </trkpt>
      <trkpt lat="46.21769" lon="4.48096">
        <ele>876</ele>
        <time>2025-09-20T12:52:45Z</time>
      </trkpt>
      <trkpt lat="46.21768" lon="4.48096">
        <ele>876.4</ele>
        <time>2025-09-20T12:52:46Z</time>
      </trkpt>
      <trkpt lat="46.21766" lon="4.48095">
        <ele>876.6</ele>
        <time>2025-09-20T12:52:47Z</time>
      </trkpt>
      <trkpt lat="46.21765" lon="4.48095">
        <ele>876.8</ele>
        <time>2025-09-20T12:52:48Z</time>
      </trkpt>
      <trkpt lat="46.21763" lon="4.48096">
        <ele>876.8</ele>
        <time>2025-09-20T12:52:49Z</time>
      </trkpt>
      <trkpt lat="46.21762" lon="4.48096">
        <ele>877.2</ele>
        <time>2025-09-20T12:52:50Z</time>
      </trkpt>
      <trkpt lat="46.21761" lon="4.48096">
        <ele>877.2</ele>
        <time>2025-09-20T12:52:51Z</time>
      </trkpt>
      <trkpt lat="46.21759" lon="4.48096">
        <ele>877.4</ele>
        <time>2025-09-20T12:52:52Z</time>
      </trkpt>
      <trkpt lat="46.21758" lon="4.48096">
        <ele>877.4</ele>
        <time>2025-09-20T12:52:53Z</time>
      </trkpt>
      <trkpt lat="46.21756" lon="4.48096">
        <ele>877.8</ele>
        <time>2025-09-20T12:52:54Z</time>
      </trkpt>
      <trkpt lat="46.21755" lon="4.48095">
        <ele>877.8</ele>
        <time>2025-09-20T12:52:55Z</time>
      </trkpt>
      <trkpt lat="46.21754" lon="4.48095">
        <ele>878.2</ele>
        <time>2025-09-20T12:52:56Z</time>
      </trkpt>
      <trkpt lat="46.21753" lon="4.48095">
        <ele>878.2</ele>
        <time>2025-09-20T12:52:57Z</time>
      </trkpt>
      <trkpt lat="46.21751" lon="4.48095">
        <ele>878.2</ele>
        <time>2025-09-20T12:52:58Z</time>
      </trkpt>
      <trkpt lat="46.2175" lon="4.48094">
        <ele>878.4</ele>
        <time>2025-09-20T12:52:59Z</time>
      </trkpt>
      <trkpt lat="46.21749" lon="4.48094">
        <ele>878.6</ele>
        <time>2025-09-20T12:53:00Z</time>
      </trkpt>
      <trkpt lat="46.21747" lon="4.48093">
        <ele>878.8</ele>
        <time>2025-09-20T12:53:01Z</time>
      </trkpt>
      <trkpt lat="46.21746" lon="4.48093">
        <ele>878.8</ele>
        <time>2025-09-20T12:53:02Z</time>
      </trkpt>
      <trkpt lat="46.21744" lon="4.48094">
        <ele>879.2</ele>
        <time>2025-09-20T12:53:03Z</time>
      </trkpt>
      <trkpt lat="46.21743" lon="4.48094">
        <ele>879.2</ele>
        <time>2025-09-20T12:53:04Z</time>
      </trkpt>
      <trkpt lat="46.21742" lon="4.48094">
        <ele>879.2</ele>
        <time>2025-09-20T12:53:05Z</time>
      </trkpt>
      <trkpt lat="46.2174" lon="4.48094">
        <ele>879.4</ele>
        <time>2025-09-20T12:53:06Z</time>
      </trkpt>
      <trkpt lat="46.21739" lon="4.48094">
        <ele>879.4</ele>
        <time>2025-09-20T12:53:07Z</time>
      </trkpt>
      <trkpt lat="46.21738" lon="4.48094">
        <ele>879.4</ele>
        <time>2025-09-20T12:53:08Z</time>
      </trkpt>
      <trkpt lat="46.21737" lon="4.48094">
        <ele>879.8</ele>
        <time>2025-09-20T12:53:09Z</time>
      </trkpt>
      <trkpt lat="46.21735" lon="4.48093">
        <ele>879.8</ele>
        <time>2025-09-20T12:53:10Z</time>
      </trkpt>
      <trkpt lat="46.21734" lon="4.48093">
        <ele>879.8</ele>
        <time>2025-09-20T12:53:11Z</time>
      </trkpt>
      <trkpt lat="46.21733" lon="4.48092">
        <ele>880.2</ele>
        <time>2025-09-20T12:53:12Z</time>
      </trkpt>
      <trkpt lat="46.21732" lon="4.48092">
        <ele>880.2</ele>
        <time>2025-09-20T12:53:13Z</time>
      </trkpt>
      <trkpt lat="46.2173" lon="4.48092">
        <ele>880.8</ele>
        <time>2025-09-20T12:53:14Z</time>
      </trkpt>
      <trkpt lat="46.21729" lon="4.48092">
        <ele>881</ele>
        <time>2025-09-20T12:53:15Z</time>
      </trkpt>
      <trkpt lat="46.21728" lon="4.48092">
        <ele>881</ele>
        <time>2025-09-20T12:53:16Z</time>
      </trkpt>
      <trkpt lat="46.21726" lon="4.48092">
        <ele>881.4</ele>
        <time>2025-09-20T12:53:17Z</time>
      </trkpt>
      <trkpt lat="46.21725" lon="4.48091">
        <ele>881.4</ele>
        <time>2025-09-20T12:53:18Z</time>
      </trkpt>
      <trkpt lat="46.21724" lon="4.48091">
        <ele>881.6</ele>
        <time>2025-09-20T12:53:19Z</time>
      </trkpt>
      <trkpt lat="46.21722" lon="4.48091">
        <ele>881.6</ele>
        <time>2025-09-20T12:53:20Z</time>
      </trkpt>
      <trkpt lat="46.21721" lon="4.4809">
        <ele>881.8</ele>
        <time>2025-09-20T12:53:21Z</time>
      </trkpt>
      <trkpt lat="46.2172" lon="4.4809">
        <ele>881.8</ele>
        <time>2025-09-20T12:53:22Z</time>
      </trkpt>
      <trkpt lat="46.21718" lon="4.4809">
        <ele>882</ele>
        <time>2025-09-20T12:53:23Z</time>
      </trkpt>
      <trkpt lat="46.21717" lon="4.48091">
        <ele>882.2</ele>
        <time>2025-09-20T12:53:24Z</time>
      </trkpt>
      <trkpt lat="46.21716" lon="4.4809">
        <ele>882.6</ele>
        <time>2025-09-20T12:53:25Z</time>
      </trkpt>
      <trkpt lat="46.21714" lon="4.4809">
        <ele>882.6</ele>
        <time>2025-09-20T12:53:26Z</time>
      </trkpt>
      <trkpt lat="46.21713" lon="4.4809">
        <ele>882.6</ele>
        <time>2025-09-20T12:53:27Z</time>
      </trkpt>
      <trkpt lat="46.21711" lon="4.4809">
        <ele>882.8</ele>
        <time>2025-09-20T12:53:28Z</time>
      </trkpt>
      <trkpt lat="46.2171" lon="4.4809">
        <ele>882.8</ele>
        <time>2025-09-20T12:53:29Z</time>
      </trkpt>
      <trkpt lat="46.21709" lon="4.4809">
        <ele>883.2</ele>
        <time>2025-09-20T12:53:30Z</time>
      </trkpt>
      <trkpt lat="46.21707" lon="4.4809">
        <ele>883.2</ele>
        <time>2025-09-20T12:53:31Z</time>
      </trkpt>
      <trkpt lat="46.21706" lon="4.48089">
        <ele>883.4</ele>
        <time>2025-09-20T12:53:32Z</time>
      </trkpt>
      <trkpt lat="46.21705" lon="4.48089">
        <ele>883.4</ele>
        <time>2025-09-20T12:53:33Z</time>
      </trkpt>
      <trkpt lat="46.21703" lon="4.48089">
        <ele>883.8</ele>
        <time>2025-09-20T12:53:34Z</time>
      </trkpt>
      <trkpt lat="46.21702" lon="4.4809">
        <ele>883.8</ele>
        <time>2025-09-20T12:53:35Z</time>
      </trkpt>
      <trkpt lat="46.217" lon="4.4809">
        <ele>884.2</ele>
        <time>2025-09-20T12:53:36Z</time>
      </trkpt>
      <trkpt lat="46.21698" lon="4.4809">
        <ele>884.4</ele>
        <time>2025-09-20T12:53:37Z</time>
      </trkpt>
      <trkpt lat="46.21697" lon="4.48091">
        <ele>884.6</ele>
        <time>2025-09-20T12:53:38Z</time>
      </trkpt>
      <trkpt lat="46.21696" lon="4.48092">
        <ele>885</ele>
        <time>2025-09-20T12:53:39Z</time>
      </trkpt>
      <trkpt lat="46.21694" lon="4.48092">
        <ele>885</ele>
        <time>2025-09-20T12:53:40Z</time>
      </trkpt>
      <trkpt lat="46.21693" lon="4.48093">
        <ele>885.2</ele>
        <time>2025-09-20T12:53:41Z</time>
      </trkpt>
      <trkpt lat="46.21691" lon="4.48093">
        <ele>885.2</ele>
        <time>2025-09-20T12:53:42Z</time>
      </trkpt>
      <trkpt lat="46.2169" lon="4.48093">
        <ele>885.4</ele>
        <time>2025-09-20T12:53:43Z</time>
      </trkpt>
      <trkpt lat="46.21688" lon="4.48093">
        <ele>885.8</ele>
        <time>2025-09-20T12:53:44Z</time>
      </trkpt>
      <trkpt lat="46.21686" lon="4.48094">
        <ele>885.8</ele>
        <time>2025-09-20T12:53:45Z</time>
      </trkpt>
      <trkpt lat="46.21685" lon="4.48095">
        <ele>886</ele>
        <time>2025-09-20T12:53:46Z</time>
      </trkpt>
      <trkpt lat="46.21683" lon="4.48096">
        <ele>886</ele>
        <time>2025-09-20T12:53:47Z</time>
      </trkpt>
      <trkpt lat="46.21682" lon="4.48096">
        <ele>886.4</ele>
        <time>2025-09-20T12:53:48Z</time>
      </trkpt>
      <trkpt lat="46.2168" lon="4.48097">
        <ele>886.4</ele>
        <time>2025-09-20T12:53:49Z</time>
      </trkpt>
      <trkpt lat="46.21678" lon="4.48097">
        <ele>886.4</ele>
        <time>2025-09-20T12:53:50Z</time>
      </trkpt>
      <trkpt lat="46.21676" lon="4.48098">
        <ele>886.6</ele>
        <time>2025-09-20T12:53:51Z</time>
      </trkpt>
      <trkpt lat="46.21675" lon="4.48098">
        <ele>886.6</ele>
        <time>2025-09-20T12:53:52Z</time>
      </trkpt>
      <trkpt lat="46.21673" lon="4.48098">
        <ele>886.8</ele>
        <time>2025-09-20T12:53:53Z</time>
      </trkpt>
      <trkpt lat="46.21671" lon="4.48098">
        <ele>886.8</ele>
        <time>2025-09-20T12:53:54Z</time>
      </trkpt>
      <trkpt lat="46.21669" lon="4.48098">
        <ele>887.4</ele>
        <time>2025-09-20T12:53:55Z</time>
      </trkpt>
      <trkpt lat="46.21667" lon="4.48098">
        <ele>887.4</ele>
        <time>2025-09-20T12:53:56Z</time>
      </trkpt>
      <trkpt lat="46.21666" lon="4.48099">
        <ele>887.6</ele>
        <time>2025-09-20T12:53:57Z</time>
      </trkpt>
      <trkpt lat="46.21664" lon="4.481">
        <ele>887.6</ele>
        <time>2025-09-20T12:53:58Z</time>
      </trkpt>
      <trkpt lat="46.21663" lon="4.48101">
        <ele>887.6</ele>
        <time>2025-09-20T12:53:59Z</time>
      </trkpt>
      <trkpt lat="46.21661" lon="4.48102">
        <ele>887.6</ele>
        <time>2025-09-20T12:54:00Z</time>
      </trkpt>
      <trkpt lat="46.2166" lon="4.48102">
        <ele>887.8</ele>
        <time>2025-09-20T12:54:01Z</time>
      </trkpt>
      <trkpt lat="46.21658" lon="4.48103">
        <ele>887.8</ele>
        <time>2025-09-20T12:54:02Z</time>
      </trkpt>
      <trkpt lat="46.21656" lon="4.48104">
        <ele>887.8</ele>
        <time>2025-09-20T12:54:03Z</time>
      </trkpt>
      <trkpt lat="46.21653" lon="4.48105">
        <ele>888.2</ele>
        <time>2025-09-20T12:54:04Z</time>
      </trkpt>
      <trkpt lat="46.21651" lon="4.48105">
        <ele>888.2</ele>
        <time>2025-09-20T12:54:05Z</time>
      </trkpt>
      <trkpt lat="46.2165" lon="4.48106">
        <ele>888.6</ele>
        <time>2025-09-20T12:54:06Z</time>
      </trkpt>
      <trkpt lat="46.21649" lon="4.48106">
        <ele>888.6</ele>
        <time>2025-09-20T12:54:07Z</time>
      </trkpt>
      <trkpt lat="46.21648" lon="4.48107">
        <ele>888.8</ele>
        <time>2025-09-20T12:54:08Z</time>
      </trkpt>
      <trkpt lat="46.21646" lon="4.48107">
        <ele>888.8</ele>
        <time>2025-09-20T12:54:09Z</time>
      </trkpt>
      <trkpt lat="46.21645" lon="4.48107">
        <ele>889</ele>
        <time>2025-09-20T12:54:10Z</time>
      </trkpt>
      <trkpt lat="46.21643" lon="4.48107">
        <ele>889</ele>
        <time>2025-09-20T12:54:11Z</time>
      </trkpt>
      <trkpt lat="46.21642" lon="4.48108">
        <ele>889</ele>
        <time>2025-09-20T12:54:12Z</time>
      </trkpt>
      <trkpt lat="46.21642" lon="4.48108">
        <ele>889</ele>
        <time>2025-09-20T12:54:13Z</time>
      </trkpt>
      <trkpt lat="46.21642" lon="4.48108">
        <ele>889</ele>
        <time>2025-09-20T12:54:14Z</time>
      </trkpt>
      <trkpt lat="46.21641" lon="4.4811">
        <ele>890.2</ele>
        <time>2025-09-20T12:56:17Z</time>
      </trkpt>
      <trkpt lat="46.21641" lon="4.4811">
        <ele>890.2</ele>
        <time>2025-09-20T12:56:18Z</time>
      </trkpt>
      <trkpt lat="46.21641" lon="4.4811">
        <ele>889.8</ele>
        <time>2025-09-20T12:56:19Z</time>
      </trkpt>
      <trkpt lat="46.21641" lon="4.4811">
        <ele>889.8</ele>
        <time>2025-09-20T12:56:20Z</time>
      </trkpt>
      <trkpt lat="46.21635" lon="4.48112">
        <ele>889.6</ele>
        <time>2025-09-20T12:56:22Z</time>
      </trkpt>
      <trkpt lat="46.21632" lon="4.48113">
        <ele>889.6</ele>
        <time>2025-09-20T12:56:23Z</time>
      </trkpt>
      <trkpt lat="46.21631" lon="4.48114">
        <ele>889.6</ele>
        <time>2025-09-20T12:56:24Z</time>
      </trkpt>
      <trkpt lat="46.21629" lon="4.48114">
        <ele>889.6</ele>
        <time>2025-09-20T12:56:25Z</time>
      </trkpt>
      <trkpt lat="46.21628" lon="4.48114">
        <ele>889.6</ele>
        <time>2025-09-20T12:56:26Z</time>
      </trkpt>
      <trkpt lat="46.21627" lon="4.48115">
        <ele>889.6</ele>
        <time>2025-09-20T12:56:27Z</time>
      </trkpt>
      <trkpt lat="46.21626" lon="4.48116">
        <ele>889.6</ele>
        <time>2025-09-20T12:56:28Z</time>
      </trkpt>
      <trkpt lat="46.21624" lon="4.48116">
        <ele>889.6</ele>
        <time>2025-09-20T12:56:29Z</time>
      </trkpt>
      <trkpt lat="46.21623" lon="4.48116">
        <ele>889.6</ele>
        <time>2025-09-20T12:56:30Z</time>
      </trkpt>
      <trkpt lat="46.21622" lon="4.48117">
        <ele>890</ele>
        <time>2025-09-20T12:56:31Z</time>
      </trkpt>
      <trkpt lat="46.21621" lon="4.48117">
        <ele>890</ele>
        <time>2025-09-20T12:56:32Z</time>
      </trkpt>
      <trkpt lat="46.21619" lon="4.48117">
        <ele>890</ele>
        <time>2025-09-20T12:56:33Z</time>
      </trkpt>
      <trkpt lat="46.21617" lon="4.48117">
        <ele>890.2</ele>
        <time>2025-09-20T12:56:34Z</time>
      </trkpt>
      <trkpt lat="46.21615" lon="4.48117">
        <ele>890.2</ele>
        <time>2025-09-20T12:56:35Z</time>
      </trkpt>
      <trkpt lat="46.21613" lon="4.48117">
        <ele>890.2</ele>
        <time>2025-09-20T12:56:36Z</time>
      </trkpt>
      <trkpt lat="46.21611" lon="4.48117">
        <ele>890.2</ele>
        <time>2025-09-20T12:56:37Z</time>
      </trkpt>
      <trkpt lat="46.2161" lon="4.48118">
        <ele>890.2</ele>
        <time>2025-09-20T12:56:38Z</time>
      </trkpt>
      <trkpt lat="46.21609" lon="4.48119">
        <ele>890.2</ele>
        <time>2025-09-20T12:56:39Z</time>
      </trkpt>
      <trkpt lat="46.21608" lon="4.4812">
        <ele>890.2</ele>
        <time>2025-09-20T12:56:40Z</time>
      </trkpt>
      <trkpt lat="46.21607" lon="4.4812">
        <ele>890.2</ele>
        <time>2025-09-20T12:56:41Z</time>
      </trkpt>
      <trkpt lat="46.21604" lon="4.4812">
        <ele>890.2</ele>
        <time>2025-09-20T12:56:42Z</time>
      </trkpt>
      <trkpt lat="46.21601" lon="4.4812">
        <ele>890.2</ele>
        <time>2025-09-20T12:56:43Z</time>
      </trkpt>
      <trkpt lat="46.21599" lon="4.48121">
        <ele>890</ele>
        <time>2025-09-20T12:56:44Z</time>
      </trkpt>
      <trkpt lat="46.21596" lon="4.48121">
        <ele>890.2</ele>
        <time>2025-09-20T12:56:45Z</time>
      </trkpt>
      <trkpt lat="46.21593" lon="4.48122">
        <ele>890.2</ele>
        <time>2025-09-20T12:56:46Z</time>
      </trkpt>
      <trkpt lat="46.21589" lon="4.48123">
        <ele>890.2</ele>
        <time>2025-09-20T12:56:47Z</time>
      </trkpt>
      <trkpt lat="46.21585" lon="4.48124">
        <ele>889.8</ele>
        <time>2025-09-20T12:56:48Z</time>
      </trkpt>
      <trkpt lat="46.21578" lon="4.48123">
        <ele>889.8</ele>
        <time>2025-09-20T12:56:49Z</time>
      </trkpt>
      <trkpt lat="46.21574" lon="4.48125">
        <ele>889.2</ele>
        <time>2025-09-20T12:56:50Z</time>
      </trkpt>
      <trkpt lat="46.21569" lon="4.48126">
        <ele>889</ele>
        <time>2025-09-20T12:56:51Z</time>
      </trkpt>
      <trkpt lat="46.21563" lon="4.48126">
        <ele>888.6</ele>
        <time>2025-09-20T12:56:52Z</time>
      </trkpt>
      <trkpt lat="46.21558" lon="4.48127">
        <ele>888.2</ele>
        <time>2025-09-20T12:56:53Z</time>
      </trkpt>
      <trkpt lat="46.21551" lon="4.48126">
        <ele>887.6</ele>
        <time>2025-09-20T12:56:54Z</time>
      </trkpt>
      <trkpt lat="46.21544" lon="4.48127">
        <ele>886.6</ele>
        <time>2025-09-20T12:56:55Z</time>
      </trkpt>
      <trkpt lat="46.21536" lon="4.48127">
        <ele>886.6</ele>
        <time>2025-09-20T12:56:56Z</time>
      </trkpt>
      <trkpt lat="46.21528" lon="4.48129">
        <ele>885.8</ele>
        <time>2025-09-20T12:56:57Z</time>
      </trkpt>
      <trkpt lat="46.21521" lon="4.48128">
        <ele>886.2</ele>
        <time>2025-09-20T12:56:58Z</time>
      </trkpt>
      <trkpt lat="46.21513" lon="4.48128">
        <ele>886.2</ele>
        <time>2025-09-20T12:56:59Z</time>
      </trkpt>
      <trkpt lat="46.21507" lon="4.48131">
        <ele>885.8</ele>
        <time>2025-09-20T12:57:00Z</time>
      </trkpt>
      <trkpt lat="46.21507" lon="4.48131">
        <ele>885.8</ele>
        <time>2025-09-20T12:57:01Z</time>
      </trkpt>
      <trkpt lat="46.21495" lon="4.48136">
        <ele>885.8</ele>
        <time>2025-09-20T12:57:02Z</time>
      </trkpt>
      <trkpt lat="46.2149" lon="4.48138">
        <ele>885.8</ele>
        <time>2025-09-20T12:57:03Z</time>
      </trkpt>
      <trkpt lat="46.21485" lon="4.4814">
        <ele>886.4</ele>
        <time>2025-09-20T12:57:04Z</time>
      </trkpt>
      <trkpt lat="46.21479" lon="4.4814">
        <ele>886.6</ele>
        <time>2025-09-20T12:57:05Z</time>
      </trkpt>
      <trkpt lat="46.21473" lon="4.48141">
        <ele>887</ele>
        <time>2025-09-20T12:57:06Z</time>
      </trkpt>
      <trkpt lat="46.21468" lon="4.48142">
        <ele>887.2</ele>
        <time>2025-09-20T12:57:07Z</time>
      </trkpt>
      <trkpt lat="46.21462" lon="4.48146">
        <ele>887.6</ele>
        <time>2025-09-20T12:57:08Z</time>
      </trkpt>
      <trkpt lat="46.21456" lon="4.48149">
        <ele>888</ele>
        <time>2025-09-20T12:57:09Z</time>
      </trkpt>
      <trkpt lat="46.21452" lon="4.48151">
        <ele>888.4</ele>
        <time>2025-09-20T12:57:10Z</time>
      </trkpt>
      <trkpt lat="46.2145" lon="4.48152">
        <ele>888.6</ele>
        <time>2025-09-20T12:57:11Z</time>
      </trkpt>
      <trkpt lat="46.21446" lon="4.48149">
        <ele>889.2</ele>
        <time>2025-09-20T12:57:12Z</time>
      </trkpt>
      <trkpt lat="46.21445" lon="4.4815">
        <ele>889.2</ele>
        <time>2025-09-20T12:57:13Z</time>
      </trkpt>
      <trkpt lat="46.21442" lon="4.4815">
        <ele>889.4</ele>
        <time>2025-09-20T12:57:14Z</time>
      </trkpt>
      <trkpt lat="46.21441" lon="4.4815">
        <ele>889.8</ele>
        <time>2025-09-20T12:57:15Z</time>
      </trkpt>
      <trkpt lat="46.21438" lon="4.48153">
        <ele>890.2</ele>
        <time>2025-09-20T12:57:16Z</time>
      </trkpt>
      <trkpt lat="46.21438" lon="4.48153">
        <ele>890.4</ele>
        <time>2025-09-20T12:57:17Z</time>
      </trkpt>
      <trkpt lat="46.21436" lon="4.48156">
        <ele>890.6</ele>
        <time>2025-09-20T12:57:18Z</time>
      </trkpt>
      <trkpt lat="46.21434" lon="4.48157">
        <ele>890.6</ele>
        <time>2025-09-20T12:57:19Z</time>
      </trkpt>
      <trkpt lat="46.21431" lon="4.48158">
        <ele>891</ele>
        <time>2025-09-20T12:57:20Z</time>
      </trkpt>
      <trkpt lat="46.21429" lon="4.4816">
        <ele>891.4</ele>
        <time>2025-09-20T12:57:21Z</time>
      </trkpt>
      <trkpt lat="46.21428" lon="4.4816">
        <ele>891.4</ele>
        <time>2025-09-20T12:57:22Z</time>
      </trkpt>
      <trkpt lat="46.21426" lon="4.48162">
        <ele>891.6</ele>
        <time>2025-09-20T12:57:23Z</time>
      </trkpt>
      <trkpt lat="46.21424" lon="4.48163">
        <ele>892</ele>
        <time>2025-09-20T12:57:24Z</time>
      </trkpt>
      <trkpt lat="46.21423" lon="4.48165">
        <ele>892.2</ele>
        <time>2025-09-20T12:57:25Z</time>
      </trkpt>
      <trkpt lat="46.21421" lon="4.48167">
        <ele>892.2</ele>
        <time>2025-09-20T12:57:26Z</time>
      </trkpt>
      <trkpt lat="46.21419" lon="4.48169">
        <ele>892.6</ele>
        <time>2025-09-20T12:57:27Z</time>
      </trkpt>
      <trkpt lat="46.21418" lon="4.4817">
        <ele>892.8</ele>
        <time>2025-09-20T12:57:28Z</time>
      </trkpt>
      <trkpt lat="46.21418" lon="4.4817">
        <ele>893</ele>
        <time>2025-09-20T12:57:29Z</time>
      </trkpt>
      <trkpt lat="46.21417" lon="4.48173">
        <ele>893</ele>
        <time>2025-09-20T12:57:30Z</time>
      </trkpt>
      <trkpt lat="46.21415" lon="4.48176">
        <ele>893.6</ele>
        <time>2025-09-20T12:57:31Z</time>
      </trkpt>
      <trkpt lat="46.21414" lon="4.48177">
        <ele>893.6</ele>
        <time>2025-09-20T12:57:32Z</time>
      </trkpt>
      <trkpt lat="46.21411" lon="4.48179">
        <ele>893.6</ele>
        <time>2025-09-20T12:57:33Z</time>
      </trkpt>
      <trkpt lat="46.21408" lon="4.48181">
        <ele>894</ele>
        <time>2025-09-20T12:57:34Z</time>
      </trkpt>
      <trkpt lat="46.21405" lon="4.48183">
        <ele>894</ele>
        <time>2025-09-20T12:57:35Z</time>
      </trkpt>
      <trkpt lat="46.21404" lon="4.48184">
        <ele>894.4</ele>
        <time>2025-09-20T12:57:36Z</time>
      </trkpt>
      <trkpt lat="46.21403" lon="4.48185">
        <ele>894.6</ele>
        <time>2025-09-20T12:57:37Z</time>
      </trkpt>
      <trkpt lat="46.21402" lon="4.48186">
        <ele>894.6</ele>
        <time>2025-09-20T12:57:38Z</time>
      </trkpt>
      <trkpt lat="46.21401" lon="4.48188">
        <ele>895</ele>
        <time>2025-09-20T12:57:39Z</time>
      </trkpt>
      <trkpt lat="46.214" lon="4.48189">
        <ele>895</ele>
        <time>2025-09-20T12:57:40Z</time>
      </trkpt>
      <trkpt lat="46.21399" lon="4.48191">
        <ele>895.4</ele>
        <time>2025-09-20T12:57:41Z</time>
      </trkpt>
      <trkpt lat="46.21398" lon="4.48193">
        <ele>895.4</ele>
        <time>2025-09-20T12:57:42Z</time>
      </trkpt>
      <trkpt lat="46.21397" lon="4.48194">
        <ele>895.8</ele>
        <time>2025-09-20T12:57:43Z</time>
      </trkpt>
      <trkpt lat="46.21397" lon="4.48196">
        <ele>896.2</ele>
        <time>2025-09-20T12:57:44Z</time>
      </trkpt>
      <trkpt lat="46.21397" lon="4.48198">
        <ele>896.2</ele>
        <time>2025-09-20T12:57:45Z</time>
      </trkpt>
      <trkpt lat="46.21397" lon="4.48199">
        <ele>896.2</ele>
        <time>2025-09-20T12:57:46Z</time>
      </trkpt>
      <trkpt lat="46.21396" lon="4.48201">
        <ele>896.4</ele>
        <time>2025-09-20T12:57:47Z</time>
      </trkpt>
      <trkpt lat="46.21395" lon="4.48203">
        <ele>896.4</ele>
        <time>2025-09-20T12:57:48Z</time>
      </trkpt>
      <trkpt lat="46.21394" lon="4.48205">
        <ele>896.8</ele>
        <time>2025-09-20T12:57:49Z</time>
      </trkpt>
      <trkpt lat="46.21393" lon="4.48206">
        <ele>897.2</ele>
        <time>2025-09-20T12:57:50Z</time>
      </trkpt>
      <trkpt lat="46.21392" lon="4.48208">
        <ele>897.2</ele>
        <time>2025-09-20T12:57:51Z</time>
      </trkpt>
      <trkpt lat="46.21391" lon="4.4821">
        <ele>897.2</ele>
        <time>2025-09-20T12:57:52Z</time>
      </trkpt>
      <trkpt lat="46.2139" lon="4.48212">
        <ele>897.4</ele>
        <time>2025-09-20T12:57:53Z</time>
      </trkpt>
      <trkpt lat="46.21389" lon="4.48215">
        <ele>897.6</ele>
        <time>2025-09-20T12:57:54Z</time>
      </trkpt>
      <trkpt lat="46.21388" lon="4.48217">
        <ele>898</ele>
        <time>2025-09-20T12:57:55Z</time>
      </trkpt>
      <trkpt lat="46.21387" lon="4.48219">
        <ele>898.2</ele>
        <time>2025-09-20T12:57:56Z</time>
      </trkpt>
      <trkpt lat="46.21386" lon="4.4822">
        <ele>898.4</ele>
        <time>2025-09-20T12:57:57Z</time>
      </trkpt>
      <trkpt lat="46.21384" lon="4.48222">
        <ele>898.4</ele>
        <time>2025-09-20T12:57:58Z</time>
      </trkpt>
      <trkpt lat="46.21382" lon="4.48224">
        <ele>898.4</ele>
        <time>2025-09-20T12:57:59Z</time>
      </trkpt>
      <trkpt lat="46.2138" lon="4.48226">
        <ele>898.8</ele>
        <time>2025-09-20T12:58:00Z</time>
      </trkpt>
      <trkpt lat="46.21379" lon="4.48229">
        <ele>898.8</ele>
        <time>2025-09-20T12:58:01Z</time>
      </trkpt>
      <trkpt lat="46.21377" lon="4.48231">
        <ele>898.8</ele>
        <time>2025-09-20T12:58:02Z</time>
      </trkpt>
      <trkpt lat="46.21375" lon="4.48232">
        <ele>898.8</ele>
        <time>2025-09-20T12:58:03Z</time>
      </trkpt>
      <trkpt lat="46.21374" lon="4.48233">
        <ele>899.2</ele>
        <time>2025-09-20T12:58:04Z</time>
      </trkpt>
      <trkpt lat="46.21372" lon="4.48233">
        <ele>899.2</ele>
        <time>2025-09-20T12:58:05Z</time>
      </trkpt>
      <trkpt lat="46.2137" lon="4.48235">
        <ele>899.2</ele>
        <time>2025-09-20T12:58:06Z</time>
      </trkpt>
      <trkpt lat="46.21368" lon="4.48238">
        <ele>899.4</ele>
        <time>2025-09-20T12:58:07Z</time>
      </trkpt>
      <trkpt lat="46.21366" lon="4.4824">
        <ele>899.4</ele>
        <time>2025-09-20T12:58:08Z</time>
      </trkpt>
      <trkpt lat="46.21364" lon="4.48242">
        <ele>899.4</ele>
        <time>2025-09-20T12:58:09Z</time>
      </trkpt>
      <trkpt lat="46.21362" lon="4.48244">
        <ele>899.6</ele>
        <time>2025-09-20T12:58:10Z</time>
      </trkpt>
      <trkpt lat="46.21361" lon="4.48246">
        <ele>900</ele>
        <time>2025-09-20T12:58:11Z</time>
      </trkpt>
      <trkpt lat="46.2136" lon="4.48248">
        <ele>900</ele>
        <time>2025-09-20T12:58:12Z</time>
      </trkpt>
      <trkpt lat="46.21359" lon="4.4825">
        <ele>900.2</ele>
        <time>2025-09-20T12:58:13Z</time>
      </trkpt>
      <trkpt lat="46.21357" lon="4.48252">
        <ele>900.2</ele>
        <time>2025-09-20T12:58:14Z</time>
      </trkpt>
      <trkpt lat="46.21354" lon="4.48254">
        <ele>900.2</ele>
        <time>2025-09-20T12:58:15Z</time>
      </trkpt>
      <trkpt lat="46.21352" lon="4.48256">
        <ele>900.2</ele>
        <time>2025-09-20T12:58:16Z</time>
      </trkpt>
      <trkpt lat="46.21349" lon="4.48259">
        <ele>900.6</ele>
        <time>2025-09-20T12:58:17Z</time>
      </trkpt>
      <trkpt lat="46.21346" lon="4.48262">
        <ele>900.6</ele>
        <time>2025-09-20T12:58:18Z</time>
      </trkpt>
      <trkpt lat="46.21343" lon="4.48265">
        <ele>900.6</ele>
        <time>2025-09-20T12:58:19Z</time>
      </trkpt>
      <trkpt lat="46.21341" lon="4.48267">
        <ele>900.6</ele>
        <time>2025-09-20T12:58:20Z</time>
      </trkpt>
      <trkpt lat="46.21339" lon="4.48269">
        <ele>900.6</ele>
        <time>2025-09-20T12:58:21Z</time>
      </trkpt>
      <trkpt lat="46.21336" lon="4.48271">
        <ele>900.8</ele>
        <time>2025-09-20T12:58:22Z</time>
      </trkpt>
      <trkpt lat="46.21334" lon="4.48272">
        <ele>900.8</ele>
        <time>2025-09-20T12:58:23Z</time>
      </trkpt>
      <trkpt lat="46.21332" lon="4.48273">
        <ele>900.8</ele>
        <time>2025-09-20T12:58:24Z</time>
      </trkpt>
      <trkpt lat="46.21329" lon="4.48275">
        <ele>900.8</ele>
        <time>2025-09-20T12:58:25Z</time>
      </trkpt>
      <trkpt lat="46.21326" lon="4.48279">
        <ele>900.8</ele>
        <time>2025-09-20T12:58:26Z</time>
      </trkpt>
      <trkpt lat="46.21323" lon="4.48284">
        <ele>900.8</ele>
        <time>2025-09-20T12:58:27Z</time>
      </trkpt>
      <trkpt lat="46.2132" lon="4.48288">
        <ele>900.8</ele>
        <time>2025-09-20T12:58:28Z</time>
      </trkpt>
      <trkpt lat="46.21316" lon="4.48292">
        <ele>900.4</ele>
        <time>2025-09-20T12:58:29Z</time>
      </trkpt>
      <trkpt lat="46.21308" lon="4.48295">
        <ele>900.2</ele>
        <time>2025-09-20T12:58:30Z</time>
      </trkpt>
      <trkpt lat="46.21303" lon="4.48298">
        <ele>900.8</ele>
        <time>2025-09-20T12:58:31Z</time>
      </trkpt>
      <trkpt lat="46.21298" lon="4.483">
        <ele>900.8</ele>
        <time>2025-09-20T12:58:32Z</time>
      </trkpt>
      <trkpt lat="46.21291" lon="4.48304">
        <ele>900.2</ele>
        <time>2025-09-20T12:58:33Z</time>
      </trkpt>
      <trkpt lat="46.21285" lon="4.48308">
        <ele>899.6</ele>
        <time>2025-09-20T12:58:34Z</time>
      </trkpt>
      <trkpt lat="46.21282" lon="4.48311">
        <ele>899.2</ele>
        <time>2025-09-20T12:58:35Z</time>
      </trkpt>
      <trkpt lat="46.21277" lon="4.48316">
        <ele>899.2</ele>
        <time>2025-09-20T12:58:36Z</time>
      </trkpt>
      <trkpt lat="46.21273" lon="4.48321">
        <ele>898.8</ele>
        <time>2025-09-20T12:58:37Z</time>
      </trkpt>
      <trkpt lat="46.21268" lon="4.48325">
        <ele>898.8</ele>
        <time>2025-09-20T12:58:38Z</time>
      </trkpt>
      <trkpt lat="46.21263" lon="4.48329">
        <ele>898.8</ele>
        <time>2025-09-20T12:58:39Z</time>
      </trkpt>
      <trkpt lat="46.21257" lon="4.48334">
        <ele>898.4</ele>
        <time>2025-09-20T12:58:40Z</time>
      </trkpt>
      <trkpt lat="46.21251" lon="4.48336">
        <ele>898.4</ele>
        <time>2025-09-20T12:58:41Z</time>
      </trkpt>
      <trkpt lat="46.21245" lon="4.48338">
        <ele>898.4</ele>
        <time>2025-09-20T12:58:42Z</time>
      </trkpt>
      <trkpt lat="46.21238" lon="4.48341">
        <ele>898.6</ele>
        <time>2025-09-20T12:58:43Z</time>
      </trkpt>
      <trkpt lat="46.21232" lon="4.48343">
        <ele>898.6</ele>
        <time>2025-09-20T12:58:44Z</time>
      </trkpt>
      <trkpt lat="46.21226" lon="4.48344">
        <ele>898.4</ele>
        <time>2025-09-20T12:58:45Z</time>
      </trkpt>
      <trkpt lat="46.2122" lon="4.48346">
        <ele>898.4</ele>
        <time>2025-09-20T12:58:46Z</time>
      </trkpt>
      <trkpt lat="46.21214" lon="4.48347">
        <ele>898.4</ele>
        <time>2025-09-20T12:58:47Z</time>
      </trkpt>
      <trkpt lat="46.21208" lon="4.48347">
        <ele>898.4</ele>
        <time>2025-09-20T12:58:48Z</time>
      </trkpt>
      <trkpt lat="46.21202" lon="4.48348">
        <ele>898.6</ele>
        <time>2025-09-20T12:58:49Z</time>
      </trkpt>
      <trkpt lat="46.21196" lon="4.48352">
        <ele>898.6</ele>
        <time>2025-09-20T12:58:50Z</time>
      </trkpt>
      <trkpt lat="46.21192" lon="4.48354">
        <ele>899</ele>
        <time>2025-09-20T12:58:51Z</time>
      </trkpt>
      <trkpt lat="46.21186" lon="4.48358">
        <ele>899</ele>
        <time>2025-09-20T12:58:52Z</time>
      </trkpt>
      <trkpt lat="46.21182" lon="4.48359">
        <ele>899.2</ele>
        <time>2025-09-20T12:58:53Z</time>
      </trkpt>
      <trkpt lat="46.21177" lon="4.48361">
        <ele>899.2</ele>
        <time>2025-09-20T12:58:54Z</time>
      </trkpt>
      <trkpt lat="46.21173" lon="4.48362">
        <ele>899.2</ele>
        <time>2025-09-20T12:58:55Z</time>
      </trkpt>
      <trkpt lat="46.2117" lon="4.48363">
        <ele>899.4</ele>
        <time>2025-09-20T12:58:56Z</time>
      </trkpt>
      <trkpt lat="46.21166" lon="4.48364">
        <ele>899.8</ele>
        <time>2025-09-20T12:58:57Z</time>
      </trkpt>
      <trkpt lat="46.21163" lon="4.48365">
        <ele>899.8</ele>
        <time>2025-09-20T12:58:58Z</time>
      </trkpt>
      <trkpt lat="46.21159" lon="4.48367">
        <ele>900</ele>
        <time>2025-09-20T12:58:59Z</time>
      </trkpt>
      <trkpt lat="46.21157" lon="4.48369">
        <ele>900</ele>
        <time>2025-09-20T12:59:00Z</time>
      </trkpt>
      <trkpt lat="46.21155" lon="4.48369">
        <ele>900.4</ele>
        <time>2025-09-20T12:59:01Z</time>
      </trkpt>
      <trkpt lat="46.21153" lon="4.4837">
        <ele>900.4</ele>
        <time>2025-09-20T12:59:02Z</time>
      </trkpt>
      <trkpt lat="46.2115" lon="4.48371">
        <ele>901</ele>
        <time>2025-09-20T12:59:03Z</time>
      </trkpt>
      <trkpt lat="46.21147" lon="4.48374">
        <ele>901.2</ele>
        <time>2025-09-20T12:59:04Z</time>
      </trkpt>
      <trkpt lat="46.21144" lon="4.48375">
        <ele>901.6</ele>
        <time>2025-09-20T12:59:05Z</time>
      </trkpt>
      <trkpt lat="46.21141" lon="4.48377">
        <ele>901.6</ele>
        <time>2025-09-20T12:59:06Z</time>
      </trkpt>
      <trkpt lat="46.21138" lon="4.48378">
        <ele>902</ele>
        <time>2025-09-20T12:59:07Z</time>
      </trkpt>
      <trkpt lat="46.21135" lon="4.4838">
        <ele>902</ele>
        <time>2025-09-20T12:59:08Z</time>
      </trkpt>
      <trkpt lat="46.21133" lon="4.48382">
        <ele>902.6</ele>
        <time>2025-09-20T12:59:09Z</time>
      </trkpt>
      <trkpt lat="46.2113" lon="4.48383">
        <ele>902.6</ele>
        <time>2025-09-20T12:59:10Z</time>
      </trkpt>
      <trkpt lat="46.21127" lon="4.48385">
        <ele>903</ele>
        <time>2025-09-20T12:59:11Z</time>
      </trkpt>
      <trkpt lat="46.21125" lon="4.48386">
        <ele>903.2</ele>
        <time>2025-09-20T12:59:12Z</time>
      </trkpt>
      <trkpt lat="46.21122" lon="4.48388">
        <ele>903.6</ele>
        <time>2025-09-20T12:59:13Z</time>
      </trkpt>
      <trkpt lat="46.2112" lon="4.48389">
        <ele>903.8</ele>
        <time>2025-09-20T12:59:14Z</time>
      </trkpt>
      <trkpt lat="46.21118" lon="4.4839">
        <ele>904.4</ele>
        <time>2025-09-20T12:59:15Z</time>
      </trkpt>
      <trkpt lat="46.21117" lon="4.48391">
        <ele>904.8</ele>
        <time>2025-09-20T12:59:16Z</time>
      </trkpt>
      <trkpt lat="46.21116" lon="4.48392">
        <ele>904.8</ele>
        <time>2025-09-20T12:59:17Z</time>
      </trkpt>
      <trkpt lat="46.21115" lon="4.48394">
        <ele>904.8</ele>
        <time>2025-09-20T12:59:18Z</time>
      </trkpt>
      <trkpt lat="46.21114" lon="4.48397">
        <ele>905.2</ele>
        <time>2025-09-20T12:59:19Z</time>
      </trkpt>
      <trkpt lat="46.21113" lon="4.48399">
        <ele>905.2</ele>
        <time>2025-09-20T12:59:20Z</time>
      </trkpt>
      <trkpt lat="46.21111" lon="4.48401">
        <ele>905.6</ele>
        <time>2025-09-20T12:59:21Z</time>
      </trkpt>
      <trkpt lat="46.21108" lon="4.48402">
        <ele>905.6</ele>
        <time>2025-09-20T12:59:22Z</time>
      </trkpt>
      <trkpt lat="46.21106" lon="4.48403">
        <ele>906</ele>
        <time>2025-09-20T12:59:23Z</time>
      </trkpt>
      <trkpt lat="46.21105" lon="4.48403">
        <ele>906.2</ele>
        <time>2025-09-20T12:59:24Z</time>
      </trkpt>
      <trkpt lat="46.21103" lon="4.48404">
        <ele>906.4</ele>
        <time>2025-09-20T12:59:25Z</time>
      </trkpt>
      <trkpt lat="46.21102" lon="4.48405">
        <ele>906.6</ele>
        <time>2025-09-20T12:59:26Z</time>
      </trkpt>
      <trkpt lat="46.211" lon="4.48406">
        <ele>906.6</ele>
        <time>2025-09-20T12:59:27Z</time>
      </trkpt>
      <trkpt lat="46.21098" lon="4.48407">
        <ele>906.8</ele>
        <time>2025-09-20T12:59:28Z</time>
      </trkpt>
      <trkpt lat="46.21096" lon="4.48408">
        <ele>907.2</ele>
        <time>2025-09-20T12:59:29Z</time>
      </trkpt>
      <trkpt lat="46.21094" lon="4.48409">
        <ele>907.4</ele>
        <time>2025-09-20T12:59:30Z</time>
      </trkpt>
      <trkpt lat="46.21092" lon="4.4841">
        <ele>907.6</ele>
        <time>2025-09-20T12:59:31Z</time>
      </trkpt>
      <trkpt lat="46.2109" lon="4.4841">
        <ele>907.6</ele>
        <time>2025-09-20T12:59:32Z</time>
      </trkpt>
      <trkpt lat="46.21089" lon="4.48411">
        <ele>908</ele>
        <time>2025-09-20T12:59:33Z</time>
      </trkpt>
      <trkpt lat="46.21087" lon="4.48411">
        <ele>908</ele>
        <time>2025-09-20T12:59:34Z</time>
      </trkpt>
      <trkpt lat="46.21085" lon="4.48411">
        <ele>908.2</ele>
        <time>2025-09-20T12:59:35Z</time>
      </trkpt>
      <trkpt lat="46.21084" lon="4.48411">
        <ele>908.4</ele>
        <time>2025-09-20T12:59:36Z</time>
      </trkpt>
      <trkpt lat="46.21082" lon="4.48411">
        <ele>908.6</ele>
        <time>2025-09-20T12:59:37Z</time>
      </trkpt>
      <trkpt lat="46.21081" lon="4.48411">
        <ele>908.6</ele>
        <time>2025-09-20T12:59:38Z</time>
      </trkpt>
      <trkpt lat="46.21079" lon="4.48411">
        <ele>909</ele>
        <time>2025-09-20T12:59:39Z</time>
      </trkpt>
      <trkpt lat="46.21077" lon="4.48412">
        <ele>909</ele>
        <time>2025-09-20T12:59:40Z</time>
      </trkpt>
      <trkpt lat="46.21076" lon="4.48412">
        <ele>909.4</ele>
        <time>2025-09-20T12:59:41Z</time>
      </trkpt>
      <trkpt lat="46.21074" lon="4.48412">
        <ele>909.4</ele>
        <time>2025-09-20T12:59:42Z</time>
      </trkpt>
      <trkpt lat="46.21072" lon="4.48412">
        <ele>909.4</ele>
        <time>2025-09-20T12:59:43Z</time>
      </trkpt>
      <trkpt lat="46.2107" lon="4.48413">
        <ele>909.8</ele>
        <time>2025-09-20T12:59:44Z</time>
      </trkpt>
      <trkpt lat="46.21068" lon="4.48413">
        <ele>910</ele>
        <time>2025-09-20T12:59:45Z</time>
      </trkpt>
      <trkpt lat="46.21066" lon="4.48414">
        <ele>910.4</ele>
        <time>2025-09-20T12:59:46Z</time>
      </trkpt>
      <trkpt lat="46.21064" lon="4.48414">
        <ele>910.4</ele>
        <time>2025-09-20T12:59:47Z</time>
      </trkpt>
      <trkpt lat="46.21061" lon="4.48415">
        <ele>910.8</ele>
        <time>2025-09-20T12:59:48Z</time>
      </trkpt>
      <trkpt lat="46.2106" lon="4.48414">
        <ele>910.8</ele>
        <time>2025-09-20T12:59:49Z</time>
      </trkpt>
      <trkpt lat="46.21058" lon="4.48413">
        <ele>911.2</ele>
        <time>2025-09-20T12:59:50Z</time>
      </trkpt>
      <trkpt lat="46.21057" lon="4.48413">
        <ele>911.4</ele>
        <time>2025-09-20T12:59:51Z</time>
      </trkpt>
      <trkpt lat="46.21055" lon="4.48413">
        <ele>911.6</ele>
        <time>2025-09-20T12:59:52Z</time>
      </trkpt>
      <trkpt lat="46.21054" lon="4.48414">
        <ele>911.6</ele>
        <time>2025-09-20T12:59:53Z</time>
      </trkpt>
      <trkpt lat="46.21052" lon="4.48414">
        <ele>912</ele>
        <time>2025-09-20T12:59:54Z</time>
      </trkpt>
      <trkpt lat="46.21051" lon="4.48414">
        <ele>912</ele>
        <time>2025-09-20T12:59:55Z</time>
      </trkpt>
      <trkpt lat="46.21049" lon="4.48415">
        <ele>912.4</ele>
        <time>2025-09-20T12:59:56Z</time>
      </trkpt>
      <trkpt lat="46.21048" lon="4.48415">
        <ele>912.6</ele>
        <time>2025-09-20T12:59:57Z</time>
      </trkpt>
      <trkpt lat="46.21046" lon="4.48415">
        <ele>912.6</ele>
        <time>2025-09-20T12:59:58Z</time>
      </trkpt>
      <trkpt lat="46.21045" lon="4.48415">
        <ele>913</ele>
        <time>2025-09-20T12:59:59Z</time>
      </trkpt>
      <trkpt lat="46.21044" lon="4.48415">
        <ele>913</ele>
        <time>2025-09-20T13:00:00Z</time>
      </trkpt>
      <trkpt lat="46.21042" lon="4.48416">
        <ele>913.4</ele>
        <time>2025-09-20T13:00:01Z</time>
      </trkpt>
      <trkpt lat="46.21041" lon="4.48416">
        <ele>913.4</ele>
        <time>2025-09-20T13:00:02Z</time>
      </trkpt>
      <trkpt lat="46.2104" lon="4.48416">
        <ele>913.8</ele>
        <time>2025-09-20T13:00:03Z</time>
      </trkpt>
      <trkpt lat="46.21038" lon="4.48416">
        <ele>914</ele>
        <time>2025-09-20T13:00:04Z</time>
      </trkpt>
      <trkpt lat="46.21037" lon="4.48417">
        <ele>914</ele>
        <time>2025-09-20T13:00:05Z</time>
      </trkpt>
      <trkpt lat="46.21037" lon="4.48416">
        <ele>914.2</ele>
        <time>2025-09-20T13:00:06Z</time>
      </trkpt>
      <trkpt lat="46.21035" lon="4.48416">
        <ele>914.4</ele>
        <time>2025-09-20T13:00:07Z</time>
      </trkpt>
      <trkpt lat="46.21033" lon="4.48416">
        <ele>914.6</ele>
        <time>2025-09-20T13:00:08Z</time>
      </trkpt>
      <trkpt lat="46.21031" lon="4.48416">
        <ele>914.6</ele>
        <time>2025-09-20T13:00:09Z</time>
      </trkpt>
      <trkpt lat="46.2103" lon="4.48416">
        <ele>914.6</ele>
        <time>2025-09-20T13:00:10Z</time>
      </trkpt>
      <trkpt lat="46.21029" lon="4.48416">
        <ele>915</ele>
        <time>2025-09-20T13:00:11Z</time>
      </trkpt>
      <trkpt lat="46.21028" lon="4.48416">
        <ele>915</ele>
        <time>2025-09-20T13:00:12Z</time>
      </trkpt>
      <trkpt lat="46.21027" lon="4.48415">
        <ele>915.4</ele>
        <time>2025-09-20T13:00:13Z</time>
      </trkpt>
      <trkpt lat="46.21025" lon="4.48415">
        <ele>915.6</ele>
        <time>2025-09-20T13:00:14Z</time>
      </trkpt>
      <trkpt lat="46.21024" lon="4.48415">
        <ele>915.6</ele>
        <time>2025-09-20T13:00:15Z</time>
      </trkpt>
      <trkpt lat="46.21022" lon="4.48415">
        <ele>915.6</ele>
        <time>2025-09-20T13:00:16Z</time>
      </trkpt>
      <trkpt lat="46.21021" lon="4.48415">
        <ele>916</ele>
        <time>2025-09-20T13:00:17Z</time>
      </trkpt>
      <trkpt lat="46.2102" lon="4.48414">
        <ele>916.2</ele>
        <time>2025-09-20T13:00:18Z</time>
      </trkpt>
      <trkpt lat="46.21018" lon="4.48413">
        <ele>916.2</ele>
        <time>2025-09-20T13:00:19Z</time>
      </trkpt>
      <trkpt lat="46.21017" lon="4.48413">
        <ele>916.2</ele>
        <time>2025-09-20T13:00:20Z</time>
      </trkpt>
      <trkpt lat="46.21016" lon="4.48413">
        <ele>916.2</ele>
        <time>2025-09-20T13:00:21Z</time>
      </trkpt>
      <trkpt lat="46.21014" lon="4.48412">
        <ele>916.4</ele>
        <time>2025-09-20T13:00:22Z</time>
      </trkpt>
      <trkpt lat="46.21013" lon="4.48411">
        <ele>916.4</ele>
        <time>2025-09-20T13:00:23Z</time>
      </trkpt>
      <trkpt lat="46.21011" lon="4.48411">
        <ele>916.8</ele>
        <time>2025-09-20T13:00:24Z</time>
      </trkpt>
      <trkpt lat="46.2101" lon="4.4841">
        <ele>916.8</ele>
        <time>2025-09-20T13:00:25Z</time>
      </trkpt>
      <trkpt lat="46.21009" lon="4.48409">
        <ele>916.8</ele>
        <time>2025-09-20T13:00:26Z</time>
      </trkpt>
      <trkpt lat="46.21007" lon="4.48409">
        <ele>917</ele>
        <time>2025-09-20T13:00:27Z</time>
      </trkpt>
      <trkpt lat="46.21006" lon="4.48408">
        <ele>917</ele>
        <time>2025-09-20T13:00:28Z</time>
      </trkpt>
      <trkpt lat="46.21004" lon="4.48406">
        <ele>917</ele>
        <time>2025-09-20T13:00:29Z</time>
      </trkpt>
      <trkpt lat="46.21002" lon="4.48402">
        <ele>917.2</ele>
        <time>2025-09-20T13:00:30Z</time>
      </trkpt>
      <trkpt lat="46.21001" lon="4.48399">
        <ele>917.4</ele>
        <time>2025-09-20T13:00:31Z</time>
      </trkpt>
      <trkpt lat="46.20999" lon="4.48397">
        <ele>917.4</ele>
        <time>2025-09-20T13:00:32Z</time>
      </trkpt>
      <trkpt lat="46.20996" lon="4.48395">
        <ele>917.6</ele>
        <time>2025-09-20T13:00:33Z</time>
      </trkpt>
      <trkpt lat="46.20995" lon="4.48393">
        <ele>917.8</ele>
        <time>2025-09-20T13:00:34Z</time>
      </trkpt>
      <trkpt lat="46.20994" lon="4.48393">
        <ele>918.2</ele>
        <time>2025-09-20T13:00:35Z</time>
      </trkpt>
      <trkpt lat="46.20992" lon="4.48393">
        <ele>918.4</ele>
        <time>2025-09-20T13:00:36Z</time>
      </trkpt>
      <trkpt lat="46.2099" lon="4.48393">
        <ele>918.4</ele>
        <time>2025-09-20T13:00:37Z</time>
      </trkpt>
      <trkpt lat="46.20988" lon="4.48393">
        <ele>918.6</ele>
        <time>2025-09-20T13:00:38Z</time>
      </trkpt>
      <trkpt lat="46.20987" lon="4.48392">
        <ele>918.6</ele>
        <time>2025-09-20T13:00:39Z</time>
      </trkpt>
      <trkpt lat="46.20985" lon="4.48391">
        <ele>919</ele>
        <time>2025-09-20T13:00:40Z</time>
      </trkpt>
      <trkpt lat="46.20984" lon="4.48391">
        <ele>919</ele>
        <time>2025-09-20T13:00:41Z</time>
      </trkpt>
      <trkpt lat="46.20982" lon="4.48391">
        <ele>919.2</ele>
        <time>2025-09-20T13:00:42Z</time>
      </trkpt>
      <trkpt lat="46.20981" lon="4.4839">
        <ele>919.4</ele>
        <time>2025-09-20T13:00:43Z</time>
      </trkpt>
      <trkpt lat="46.2098" lon="4.48389">
        <ele>919.4</ele>
        <time>2025-09-20T13:00:44Z</time>
      </trkpt>
      <trkpt lat="46.20979" lon="4.48387">
        <ele>919.8</ele>
        <time>2025-09-20T13:00:45Z</time>
      </trkpt>
      <trkpt lat="46.20978" lon="4.48386">
        <ele>920</ele>
        <time>2025-09-20T13:00:46Z</time>
      </trkpt>
      <trkpt lat="46.20977" lon="4.48385">
        <ele>920</ele>
        <time>2025-09-20T13:00:47Z</time>
      </trkpt>
      <trkpt lat="46.20974" lon="4.48384">
        <ele>920.4</ele>
        <time>2025-09-20T13:00:48Z</time>
      </trkpt>
      <trkpt lat="46.20972" lon="4.48383">
        <ele>920.4</ele>
        <time>2025-09-20T13:00:49Z</time>
      </trkpt>
      <trkpt lat="46.20971" lon="4.48383">
        <ele>920.6</ele>
        <time>2025-09-20T13:00:50Z</time>
      </trkpt>
      <trkpt lat="46.20969" lon="4.48383">
        <ele>920.6</ele>
        <time>2025-09-20T13:00:51Z</time>
      </trkpt>
      <trkpt lat="46.20968" lon="4.48382">
        <ele>920.6</ele>
        <time>2025-09-20T13:00:52Z</time>
      </trkpt>
      <trkpt lat="46.20966" lon="4.48381">
        <ele>921</ele>
        <time>2025-09-20T13:00:53Z</time>
      </trkpt>
      <trkpt lat="46.20965" lon="4.48379">
        <ele>921</ele>
        <time>2025-09-20T13:00:54Z</time>
      </trkpt>
      <trkpt lat="46.20964" lon="4.48378">
        <ele>921</ele>
        <time>2025-09-20T13:00:55Z</time>
      </trkpt>
      <trkpt lat="46.20962" lon="4.48377">
        <ele>921.2</ele>
        <time>2025-09-20T13:00:56Z</time>
      </trkpt>
      <trkpt lat="46.2096" lon="4.48375">
        <ele>921.2</ele>
        <time>2025-09-20T13:00:57Z</time>
      </trkpt>
      <trkpt lat="46.20959" lon="4.48374">
        <ele>921.4</ele>
        <time>2025-09-20T13:00:58Z</time>
      </trkpt>
      <trkpt lat="46.20958" lon="4.48372">
        <ele>921.6</ele>
        <time>2025-09-20T13:00:59Z</time>
      </trkpt>
      <trkpt lat="46.20956" lon="4.48371">
        <ele>921.6</ele>
        <time>2025-09-20T13:01:00Z</time>
      </trkpt>
      <trkpt lat="46.20954" lon="4.48369">
        <ele>922</ele>
        <time>2025-09-20T13:01:01Z</time>
      </trkpt>
      <trkpt lat="46.20952" lon="4.48368">
        <ele>922</ele>
        <time>2025-09-20T13:01:02Z</time>
      </trkpt>
      <trkpt lat="46.2095" lon="4.48366">
        <ele>922.2</ele>
        <time>2025-09-20T13:01:03Z</time>
      </trkpt>
      <trkpt lat="46.20949" lon="4.48365">
        <ele>922.6</ele>
        <time>2025-09-20T13:01:04Z</time>
      </trkpt>
      <trkpt lat="46.20948" lon="4.48364">
        <ele>922.6</ele>
        <time>2025-09-20T13:01:05Z</time>
      </trkpt>
      <trkpt lat="46.20947" lon="4.48363">
        <ele>922.8</ele>
        <time>2025-09-20T13:01:06Z</time>
      </trkpt>
      <trkpt lat="46.20945" lon="4.48362">
        <ele>922.8</ele>
        <time>2025-09-20T13:01:07Z</time>
      </trkpt>
      <trkpt lat="46.20944" lon="4.48361">
        <ele>923</ele>
        <time>2025-09-20T13:01:08Z</time>
      </trkpt>
      <trkpt lat="46.20942" lon="4.48359">
        <ele>923</ele>
        <time>2025-09-20T13:01:09Z</time>
      </trkpt>
      <trkpt lat="46.20941" lon="4.48358">
        <ele>923.2</ele>
        <time>2025-09-20T13:01:10Z</time>
      </trkpt>
      <trkpt lat="46.20939" lon="4.48358">
        <ele>923.2</ele>
        <time>2025-09-20T13:01:11Z</time>
      </trkpt>
      <trkpt lat="46.20938" lon="4.48357">
        <ele>923.2</ele>
        <time>2025-09-20T13:01:12Z</time>
      </trkpt>
      <trkpt lat="46.20938" lon="4.48357">
        <ele>923.4</ele>
        <time>2025-09-20T13:01:13Z</time>
      </trkpt>
      <trkpt lat="46.20936" lon="4.48357">
        <ele>923.4</ele>
        <time>2025-09-20T13:01:14Z</time>
      </trkpt>
      <trkpt lat="46.20935" lon="4.48357">
        <ele>923.8</ele>
        <time>2025-09-20T13:01:15Z</time>
      </trkpt>
      <trkpt lat="46.20933" lon="4.48356">
        <ele>924.2</ele>
        <time>2025-09-20T13:01:16Z</time>
      </trkpt>
      <trkpt lat="46.2093" lon="4.48356">
        <ele>924.2</ele>
        <time>2025-09-20T13:01:17Z</time>
      </trkpt>
      <trkpt lat="46.20928" lon="4.48356">
        <ele>924.2</ele>
        <time>2025-09-20T13:01:18Z</time>
      </trkpt>
      <trkpt lat="46.20926" lon="4.48356">
        <ele>924.6</ele>
        <time>2025-09-20T13:01:19Z</time>
      </trkpt>
      <trkpt lat="46.20924" lon="4.48355">
        <ele>924.6</ele>
        <time>2025-09-20T13:01:20Z</time>
      </trkpt>
      <trkpt lat="46.20923" lon="4.48354">
        <ele>924.6</ele>
        <time>2025-09-20T13:01:21Z</time>
      </trkpt>
      <trkpt lat="46.20921" lon="4.48353">
        <ele>924.8</ele>
        <time>2025-09-20T13:01:22Z</time>
      </trkpt>
      <trkpt lat="46.20919" lon="4.48353">
        <ele>924.8</ele>
        <time>2025-09-20T13:01:23Z</time>
      </trkpt>
      <trkpt lat="46.20917" lon="4.48352">
        <ele>924.8</ele>
        <time>2025-09-20T13:01:24Z</time>
      </trkpt>
      <trkpt lat="46.20916" lon="4.4835">
        <ele>925.2</ele>
        <time>2025-09-20T13:01:25Z</time>
      </trkpt>
      <trkpt lat="46.20914" lon="4.48349">
        <ele>925.2</ele>
        <time>2025-09-20T13:01:26Z</time>
      </trkpt>
      <trkpt lat="46.20912" lon="4.48348">
        <ele>925.4</ele>
        <time>2025-09-20T13:01:27Z</time>
      </trkpt>
      <trkpt lat="46.20911" lon="4.48348">
        <ele>925.4</ele>
        <time>2025-09-20T13:01:28Z</time>
      </trkpt>
      <trkpt lat="46.20909" lon="4.48347">
        <ele>925.8</ele>
        <time>2025-09-20T13:01:29Z</time>
      </trkpt>
      <trkpt lat="46.20908" lon="4.48348">
        <ele>925.8</ele>
        <time>2025-09-20T13:01:30Z</time>
      </trkpt>
      <trkpt lat="46.20906" lon="4.48349">
        <ele>926</ele>
        <time>2025-09-20T13:01:31Z</time>
      </trkpt>
      <trkpt lat="46.20905" lon="4.4835">
        <ele>926.2</ele>
        <time>2025-09-20T13:01:32Z</time>
      </trkpt>
      <trkpt lat="46.20904" lon="4.48352">
        <ele>926.2</ele>
        <time>2025-09-20T13:01:33Z</time>
      </trkpt>
      <trkpt lat="46.20902" lon="4.48353">
        <ele>926.6</ele>
        <time>2025-09-20T13:01:34Z</time>
      </trkpt>
      <trkpt lat="46.20899" lon="4.48353">
        <ele>926.6</ele>
        <time>2025-09-20T13:01:35Z</time>
      </trkpt>
      <trkpt lat="46.20897" lon="4.48352">
        <ele>926.6</ele>
        <time>2025-09-20T13:01:36Z</time>
      </trkpt>
      <trkpt lat="46.20896" lon="4.48351">
        <ele>926.8</ele>
        <time>2025-09-20T13:01:37Z</time>
      </trkpt>
      <trkpt lat="46.20894" lon="4.4835">
        <ele>926.8</ele>
        <time>2025-09-20T13:01:38Z</time>
      </trkpt>
      <trkpt lat="46.20892" lon="4.48349">
        <ele>927</ele>
        <time>2025-09-20T13:01:39Z</time>
      </trkpt>
      <trkpt lat="46.2089" lon="4.48348">
        <ele>927.4</ele>
        <time>2025-09-20T13:01:40Z</time>
      </trkpt>
      <trkpt lat="46.20888" lon="4.48347">
        <ele>927.4</ele>
        <time>2025-09-20T13:01:41Z</time>
      </trkpt>
      <trkpt lat="46.20886" lon="4.48347">
        <ele>927.8</ele>
        <time>2025-09-20T13:01:42Z</time>
      </trkpt>
      <trkpt lat="46.20885" lon="4.48346">
        <ele>927.8</ele>
        <time>2025-09-20T13:01:43Z</time>
      </trkpt>
      <trkpt lat="46.20883" lon="4.48346">
        <ele>927.8</ele>
        <time>2025-09-20T13:01:44Z</time>
      </trkpt>
      <trkpt lat="46.20881" lon="4.48345">
        <ele>927.8</ele>
        <time>2025-09-20T13:01:45Z</time>
      </trkpt>
      <trkpt lat="46.2088" lon="4.48345">
        <ele>928.2</ele>
        <time>2025-09-20T13:01:46Z</time>
      </trkpt>
      <trkpt lat="46.20878" lon="4.48345">
        <ele>928.2</ele>
        <time>2025-09-20T13:01:47Z</time>
      </trkpt>
      <trkpt lat="46.20875" lon="4.48345">
        <ele>928.4</ele>
        <time>2025-09-20T13:01:48Z</time>
      </trkpt>
      <trkpt lat="46.20873" lon="4.48344">
        <ele>928.4</ele>
        <time>2025-09-20T13:01:49Z</time>
      </trkpt>
      <trkpt lat="46.20872" lon="4.48342">
        <ele>928.6</ele>
        <time>2025-09-20T13:01:50Z</time>
      </trkpt>
      <trkpt lat="46.2087" lon="4.48341">
        <ele>928.6</ele>
        <time>2025-09-20T13:01:51Z</time>
      </trkpt>
      <trkpt lat="46.20868" lon="4.48339">
        <ele>928.6</ele>
        <time>2025-09-20T13:01:52Z</time>
      </trkpt>
      <trkpt lat="46.20866" lon="4.48339">
        <ele>928.6</ele>
        <time>2025-09-20T13:01:53Z</time>
      </trkpt>
      <trkpt lat="46.20864" lon="4.48338">
        <ele>929.2</ele>
        <time>2025-09-20T13:01:54Z</time>
      </trkpt>
      <trkpt lat="46.20862" lon="4.48337">
        <ele>929.2</ele>
        <time>2025-09-20T13:01:55Z</time>
      </trkpt>
      <trkpt lat="46.2086" lon="4.48336">
        <ele>929.4</ele>
        <time>2025-09-20T13:01:56Z</time>
      </trkpt>
      <trkpt lat="46.20858" lon="4.48336">
        <ele>929.4</ele>
        <time>2025-09-20T13:01:57Z</time>
      </trkpt>
      <trkpt lat="46.20857" lon="4.48335">
        <ele>929.4</ele>
        <time>2025-09-20T13:01:58Z</time>
      </trkpt>
      <trkpt lat="46.20855" lon="4.48335">
        <ele>929.8</ele>
        <time>2025-09-20T13:01:59Z</time>
      </trkpt>
      <trkpt lat="46.20853" lon="4.48335">
        <ele>929.8</ele>
        <time>2025-09-20T13:02:00Z</time>
      </trkpt>
      <trkpt lat="46.2085" lon="4.48335">
        <ele>929.8</ele>
        <time>2025-09-20T13:02:01Z</time>
      </trkpt>
      <trkpt lat="46.20848" lon="4.48334">
        <ele>929.8</ele>
        <time>2025-09-20T13:02:02Z</time>
      </trkpt>
      <trkpt lat="46.20846" lon="4.48332">
        <ele>929.8</ele>
        <time>2025-09-20T13:02:03Z</time>
      </trkpt>
      <trkpt lat="46.20844" lon="4.4833">
        <ele>930</ele>
        <time>2025-09-20T13:02:04Z</time>
      </trkpt>
      <trkpt lat="46.20842" lon="4.48329">
        <ele>930</ele>
        <time>2025-09-20T13:02:05Z</time>
      </trkpt>
      <trkpt lat="46.20839" lon="4.48327">
        <ele>930</ele>
        <time>2025-09-20T13:02:06Z</time>
      </trkpt>
      <trkpt lat="46.20837" lon="4.48326">
        <ele>930</ele>
        <time>2025-09-20T13:02:07Z</time>
      </trkpt>
      <trkpt lat="46.20834" lon="4.48325">
        <ele>930</ele>
        <time>2025-09-20T13:02:08Z</time>
      </trkpt>
      <trkpt lat="46.20832" lon="4.48323">
        <ele>930.4</ele>
        <time>2025-09-20T13:02:09Z</time>
      </trkpt>
      <trkpt lat="46.20829" lon="4.48322">
        <ele>930.4</ele>
        <time>2025-09-20T13:02:10Z</time>
      </trkpt>
      <trkpt lat="46.20826" lon="4.48322">
        <ele>930.6</ele>
        <time>2025-09-20T13:02:11Z</time>
      </trkpt>
      <trkpt lat="46.20823" lon="4.48321">
        <ele>930.6</ele>
        <time>2025-09-20T13:02:12Z</time>
      </trkpt>
      <trkpt lat="46.2082" lon="4.48321">
        <ele>930.6</ele>
        <time>2025-09-20T13:02:13Z</time>
      </trkpt>
      <trkpt lat="46.20817" lon="4.4832">
        <ele>931</ele>
        <time>2025-09-20T13:02:14Z</time>
      </trkpt>
      <trkpt lat="46.20814" lon="4.48319">
        <ele>931</ele>
        <time>2025-09-20T13:02:15Z</time>
      </trkpt>
      <trkpt lat="46.20812" lon="4.48318">
        <ele>931</ele>
        <time>2025-09-20T13:02:16Z</time>
      </trkpt>
      <trkpt lat="46.2081" lon="4.48316">
        <ele>931.2</ele>
        <time>2025-09-20T13:02:17Z</time>
      </trkpt>
      <trkpt lat="46.20808" lon="4.48316">
        <ele>931.2</ele>
        <time>2025-09-20T13:02:18Z</time>
      </trkpt>
      <trkpt lat="46.20806" lon="4.48316">
        <ele>931.2</ele>
        <time>2025-09-20T13:02:19Z</time>
      </trkpt>
      <trkpt lat="46.20804" lon="4.48316">
        <ele>931.4</ele>
        <time>2025-09-20T13:02:20Z</time>
      </trkpt>
      <trkpt lat="46.20802" lon="4.48316">
        <ele>931.8</ele>
        <time>2025-09-20T13:02:21Z</time>
      </trkpt>
      <trkpt lat="46.208" lon="4.48316">
        <ele>932</ele>
        <time>2025-09-20T13:02:22Z</time>
      </trkpt>
      <trkpt lat="46.20797" lon="4.48315">
        <ele>932</ele>
        <time>2025-09-20T13:02:23Z</time>
      </trkpt>
      <trkpt lat="46.20795" lon="4.48314">
        <ele>932.2</ele>
        <time>2025-09-20T13:02:24Z</time>
      </trkpt>
      <trkpt lat="46.20793" lon="4.48313">
        <ele>932.2</ele>
        <time>2025-09-20T13:02:25Z</time>
      </trkpt>
      <trkpt lat="46.20791" lon="4.48314">
        <ele>932.6</ele>
        <time>2025-09-20T13:02:26Z</time>
      </trkpt>
      <trkpt lat="46.20789" lon="4.48314">
        <ele>932.8</ele>
        <time>2025-09-20T13:02:27Z</time>
      </trkpt>
      <trkpt lat="46.20787" lon="4.48314">
        <ele>932.8</ele>
        <time>2025-09-20T13:02:28Z</time>
      </trkpt>
      <trkpt lat="46.20787" lon="4.48315">
        <ele>933.2</ele>
        <time>2025-09-20T13:02:29Z</time>
      </trkpt>
      <trkpt lat="46.20787" lon="4.48316">
        <ele>933.2</ele>
        <time>2025-09-20T13:02:30Z</time>
      </trkpt>
      <trkpt lat="46.20786" lon="4.48317">
        <ele>933.4</ele>
        <time>2025-09-20T13:02:31Z</time>
      </trkpt>
      <trkpt lat="46.20785" lon="4.48319">
        <ele>933.6</ele>
        <time>2025-09-20T13:02:32Z</time>
      </trkpt>
      <trkpt lat="46.20784" lon="4.48321">
        <ele>933.6</ele>
        <time>2025-09-20T13:02:33Z</time>
      </trkpt>
      <trkpt lat="46.20782" lon="4.48322">
        <ele>934</ele>
        <time>2025-09-20T13:02:34Z</time>
      </trkpt>
      <trkpt lat="46.20782" lon="4.48322">
        <ele>934.2</ele>
        <time>2025-09-20T13:02:35Z</time>
      </trkpt>
      <trkpt lat="46.20782" lon="4.48321">
        <ele>934.2</ele>
        <time>2025-09-20T13:02:36Z</time>
      </trkpt>
      <trkpt lat="46.2078" lon="4.48322">
        <ele>934.6</ele>
        <time>2025-09-20T13:02:37Z</time>
      </trkpt>
      <trkpt lat="46.20779" lon="4.48322">
        <ele>935</ele>
        <time>2025-09-20T13:02:38Z</time>
      </trkpt>
      <trkpt lat="46.20777" lon="4.48323">
        <ele>935</ele>
        <time>2025-09-20T13:02:39Z</time>
      </trkpt>
      <trkpt lat="46.20775" lon="4.48325">
        <ele>935.2</ele>
        <time>2025-09-20T13:02:40Z</time>
      </trkpt>
      <trkpt lat="46.20774" lon="4.48325">
        <ele>935.2</ele>
        <time>2025-09-20T13:02:41Z</time>
      </trkpt>
      <trkpt lat="46.20771" lon="4.48325">
        <ele>935.6</ele>
        <time>2025-09-20T13:02:42Z</time>
      </trkpt>
      <trkpt lat="46.2077" lon="4.48325">
        <ele>936</ele>
        <time>2025-09-20T13:02:43Z</time>
      </trkpt>
      <trkpt lat="46.20769" lon="4.48325">
        <ele>936</ele>
        <time>2025-09-20T13:02:44Z</time>
      </trkpt>
      <trkpt lat="46.20767" lon="4.48325">
        <ele>936.2</ele>
        <time>2025-09-20T13:02:45Z</time>
      </trkpt>
      <trkpt lat="46.20765" lon="4.48326">
        <ele>936.6</ele>
        <time>2025-09-20T13:02:46Z</time>
      </trkpt>
      <trkpt lat="46.20763" lon="4.48328">
        <ele>936.8</ele>
        <time>2025-09-20T13:02:47Z</time>
      </trkpt>
      <trkpt lat="46.20761" lon="4.4833">
        <ele>936.8</ele>
        <time>2025-09-20T13:02:48Z</time>
      </trkpt>
      <trkpt lat="46.2076" lon="4.48331">
        <ele>937.4</ele>
        <time>2025-09-20T13:02:49Z</time>
      </trkpt>
      <trkpt lat="46.20758" lon="4.48332">
        <ele>937.4</ele>
        <time>2025-09-20T13:02:50Z</time>
      </trkpt>
      <trkpt lat="46.20756" lon="4.48333">
        <ele>937.6</ele>
        <time>2025-09-20T13:02:51Z</time>
      </trkpt>
      <trkpt lat="46.20753" lon="4.48334">
        <ele>937.6</ele>
        <time>2025-09-20T13:02:52Z</time>
      </trkpt>
      <trkpt lat="46.20751" lon="4.48334">
        <ele>937.6</ele>
        <time>2025-09-20T13:02:53Z</time>
      </trkpt>
      <trkpt lat="46.20749" lon="4.48335">
        <ele>937.6</ele>
        <time>2025-09-20T13:02:54Z</time>
      </trkpt>
      <trkpt lat="46.20747" lon="4.48337">
        <ele>937.6</ele>
        <time>2025-09-20T13:02:55Z</time>
      </trkpt>
      <trkpt lat="46.20745" lon="4.48339">
        <ele>937.6</ele>
        <time>2025-09-20T13:02:56Z</time>
      </trkpt>
      <trkpt lat="46.20742" lon="4.4834">
        <ele>937.6</ele>
        <time>2025-09-20T13:02:57Z</time>
      </trkpt>
      <trkpt lat="46.2074" lon="4.48341">
        <ele>937.8</ele>
        <time>2025-09-20T13:02:58Z</time>
      </trkpt>
      <trkpt lat="46.20738" lon="4.48341">
        <ele>937.6</ele>
        <time>2025-09-20T13:02:59Z</time>
      </trkpt>
      <trkpt lat="46.20735" lon="4.48341">
        <ele>937.6</ele>
        <time>2025-09-20T13:03:00Z</time>
      </trkpt>
      <trkpt lat="46.20733" lon="4.48342">
        <ele>937.2</ele>
        <time>2025-09-20T13:03:01Z</time>
      </trkpt>
      <trkpt lat="46.2073" lon="4.48344">
        <ele>937.2</ele>
        <time>2025-09-20T13:03:02Z</time>
      </trkpt>
      <trkpt lat="46.20728" lon="4.48348">
        <ele>937.8</ele>
        <time>2025-09-20T13:03:03Z</time>
      </trkpt>
      <trkpt lat="46.20726" lon="4.48351">
        <ele>938</ele>
        <time>2025-09-20T13:03:04Z</time>
      </trkpt>
      <trkpt lat="46.20725" lon="4.48354">
        <ele>938</ele>
        <time>2025-09-20T13:03:05Z</time>
      </trkpt>
      <trkpt lat="46.20723" lon="4.48357">
        <ele>938</ele>
        <time>2025-09-20T13:03:06Z</time>
      </trkpt>
      <trkpt lat="46.20722" lon="4.4836">
        <ele>938</ele>
        <time>2025-09-20T13:03:07Z</time>
      </trkpt>
      <trkpt lat="46.20719" lon="4.48362">
        <ele>937.6</ele>
        <time>2025-09-20T13:03:08Z</time>
      </trkpt>
      <trkpt lat="46.20717" lon="4.48365">
        <ele>937.6</ele>
        <time>2025-09-20T13:03:09Z</time>
      </trkpt>
      <trkpt lat="46.20715" lon="4.48368">
        <ele>938.6</ele>
        <time>2025-09-20T13:03:10Z</time>
      </trkpt>
      <trkpt lat="46.20712" lon="4.4837">
        <ele>938.6</ele>
        <time>2025-09-20T13:03:11Z</time>
      </trkpt>
      <trkpt lat="46.2071" lon="4.48373">
        <ele>938.4</ele>
        <time>2025-09-20T13:03:12Z</time>
      </trkpt>
      <trkpt lat="46.20707" lon="4.48376">
        <ele>938.4</ele>
        <time>2025-09-20T13:03:13Z</time>
      </trkpt>
      <trkpt lat="46.20704" lon="4.48379">
        <ele>938.4</ele>
        <time>2025-09-20T13:03:14Z</time>
      </trkpt>
      <trkpt lat="46.20702" lon="4.48383">
        <ele>938.2</ele>
        <time>2025-09-20T13:03:15Z</time>
      </trkpt>
      <trkpt lat="46.207" lon="4.48386">
        <ele>938</ele>
        <time>2025-09-20T13:03:16Z</time>
      </trkpt>
      <trkpt lat="46.20698" lon="4.48388">
        <ele>938</ele>
        <time>2025-09-20T13:03:17Z</time>
      </trkpt>
      <trkpt lat="46.20695" lon="4.48391">
        <ele>937.6</ele>
        <time>2025-09-20T13:03:18Z</time>
      </trkpt>
      <trkpt lat="46.20692" lon="4.48393">
        <ele>937.6</ele>
        <time>2025-09-20T13:03:19Z</time>
      </trkpt>
      <trkpt lat="46.2069" lon="4.48396">
        <ele>937.6</ele>
        <time>2025-09-20T13:03:20Z</time>
      </trkpt>
      <trkpt lat="46.20688" lon="4.484">
        <ele>937.6</ele>
        <time>2025-09-20T13:03:21Z</time>
      </trkpt>
      <trkpt lat="46.20686" lon="4.48403">
        <ele>937.6</ele>
        <time>2025-09-20T13:03:22Z</time>
      </trkpt>
      <trkpt lat="46.20684" lon="4.48407">
        <ele>937.6</ele>
        <time>2025-09-20T13:03:23Z</time>
      </trkpt>
      <trkpt lat="46.20683" lon="4.48409">
        <ele>937.6</ele>
        <time>2025-09-20T13:03:24Z</time>
      </trkpt>
      <trkpt lat="46.20682" lon="4.48412">
        <ele>937.8</ele>
        <time>2025-09-20T13:03:25Z</time>
      </trkpt>
      <trkpt lat="46.20681" lon="4.48416">
        <ele>937.8</ele>
        <time>2025-09-20T13:03:26Z</time>
      </trkpt>
      <trkpt lat="46.2068" lon="4.4842">
        <ele>938.2</ele>
        <time>2025-09-20T13:03:27Z</time>
      </trkpt>
      <trkpt lat="46.20679" lon="4.48423">
        <ele>938.2</ele>
        <time>2025-09-20T13:03:28Z</time>
      </trkpt>
      <trkpt lat="46.20678" lon="4.48425">
        <ele>938.6</ele>
        <time>2025-09-20T13:03:29Z</time>
      </trkpt>
      <trkpt lat="46.20678" lon="4.48428">
        <ele>938.6</ele>
        <time>2025-09-20T13:03:30Z</time>
      </trkpt>
      <trkpt lat="46.20679" lon="4.48432">
        <ele>938.8</ele>
        <time>2025-09-20T13:03:31Z</time>
      </trkpt>
      <trkpt lat="46.20681" lon="4.48435">
        <ele>939</ele>
        <time>2025-09-20T13:03:32Z</time>
      </trkpt>
      <trkpt lat="46.20683" lon="4.48437">
        <ele>939</ele>
        <time>2025-09-20T13:03:33Z</time>
      </trkpt>
      <trkpt lat="46.20685" lon="4.48438">
        <ele>939.4</ele>
        <time>2025-09-20T13:03:34Z</time>
      </trkpt>
      <trkpt lat="46.20686" lon="4.4844">
        <ele>939.6</ele>
        <time>2025-09-20T13:03:35Z</time>
      </trkpt>
      <trkpt lat="46.20688" lon="4.4844">
        <ele>940</ele>
        <time>2025-09-20T13:03:36Z</time>
      </trkpt>
      <trkpt lat="46.2069" lon="4.48441">
        <ele>940.4</ele>
        <time>2025-09-20T13:03:37Z</time>
      </trkpt>
      <trkpt lat="46.20691" lon="4.48441">
        <ele>940.6</ele>
        <time>2025-09-20T13:03:38Z</time>
      </trkpt>
      <trkpt lat="46.20693" lon="4.48442">
        <ele>941</ele>
        <time>2025-09-20T13:03:39Z</time>
      </trkpt>
      <trkpt lat="46.20695" lon="4.48443">
        <ele>941.2</ele>
        <time>2025-09-20T13:03:40Z</time>
      </trkpt>
      <trkpt lat="46.20696" lon="4.48443">
        <ele>941.2</ele>
        <time>2025-09-20T13:03:41Z</time>
      </trkpt>
      <trkpt lat="46.20697" lon="4.48443">
        <ele>941.8</ele>
        <time>2025-09-20T13:03:42Z</time>
      </trkpt>
      <trkpt lat="46.20698" lon="4.48442">
        <ele>942</ele>
        <time>2025-09-20T13:03:43Z</time>
      </trkpt>
      <trkpt lat="46.207" lon="4.48441">
        <ele>942.2</ele>
        <time>2025-09-20T13:03:44Z</time>
      </trkpt>
      <trkpt lat="46.20702" lon="4.48441">
        <ele>942.6</ele>
        <time>2025-09-20T13:03:45Z</time>
      </trkpt>
      <trkpt lat="46.20703" lon="4.4844">
        <ele>942.6</ele>
        <time>2025-09-20T13:03:46Z</time>
      </trkpt>
      <trkpt lat="46.20704" lon="4.48439">
        <ele>942.8</ele>
        <time>2025-09-20T13:03:47Z</time>
      </trkpt>
      <trkpt lat="46.20705" lon="4.48438">
        <ele>942.8</ele>
        <time>2025-09-20T13:03:48Z</time>
      </trkpt>
      <trkpt lat="46.20706" lon="4.48438">
        <ele>943.2</ele>
        <time>2025-09-20T13:03:49Z</time>
      </trkpt>
      <trkpt lat="46.20707" lon="4.48437">
        <ele>943.6</ele>
        <time>2025-09-20T13:03:50Z</time>
      </trkpt>
      <trkpt lat="46.20709" lon="4.48437">
        <ele>943.6</ele>
        <time>2025-09-20T13:03:51Z</time>
      </trkpt>
      <trkpt lat="46.20711" lon="4.48437">
        <ele>944</ele>
        <time>2025-09-20T13:03:52Z</time>
      </trkpt>
      <trkpt lat="46.20712" lon="4.48437">
        <ele>944</ele>
        <time>2025-09-20T13:03:53Z</time>
      </trkpt>
      <trkpt lat="46.20714" lon="4.48436">
        <ele>944.4</ele>
        <time>2025-09-20T13:03:54Z</time>
      </trkpt>
      <trkpt lat="46.20716" lon="4.48436">
        <ele>944.4</ele>
        <time>2025-09-20T13:03:55Z</time>
      </trkpt>
      <trkpt lat="46.20718" lon="4.48435">
        <ele>944.6</ele>
        <time>2025-09-20T13:03:56Z</time>
      </trkpt>
      <trkpt lat="46.20719" lon="4.48434">
        <ele>944.6</ele>
        <time>2025-09-20T13:03:57Z</time>
      </trkpt>
      <trkpt lat="46.20719" lon="4.48433">
        <ele>945</ele>
        <time>2025-09-20T13:03:58Z</time>
      </trkpt>
      <trkpt lat="46.2072" lon="4.48432">
        <ele>945</ele>
        <time>2025-09-20T13:03:59Z</time>
      </trkpt>
      <trkpt lat="46.20722" lon="4.4843">
        <ele>945.2</ele>
        <time>2025-09-20T13:04:00Z</time>
      </trkpt>
      <trkpt lat="46.20724" lon="4.48429">
        <ele>945.2</ele>
        <time>2025-09-20T13:04:01Z</time>
      </trkpt>
      <trkpt lat="46.20726" lon="4.48429">
        <ele>945.6</ele>
        <time>2025-09-20T13:04:02Z</time>
      </trkpt>
      <trkpt lat="46.20727" lon="4.48428">
        <ele>945.8</ele>
        <time>2025-09-20T13:04:03Z</time>
      </trkpt>
      <trkpt lat="46.20728" lon="4.48428">
        <ele>946</ele>
        <time>2025-09-20T13:04:04Z</time>
      </trkpt>
      <trkpt lat="46.2073" lon="4.48428">
        <ele>946.2</ele>
        <time>2025-09-20T13:04:05Z</time>
      </trkpt>
      <trkpt lat="46.20732" lon="4.48428">
        <ele>946.2</ele>
        <time>2025-09-20T13:04:06Z</time>
      </trkpt>
      <trkpt lat="46.20734" lon="4.48427">
        <ele>946.6</ele>
        <time>2025-09-20T13:04:07Z</time>
      </trkpt>
      <trkpt lat="46.20736" lon="4.48427">
        <ele>946.6</ele>
        <time>2025-09-20T13:04:08Z</time>
      </trkpt>
      <trkpt lat="46.20737" lon="4.48427">
        <ele>946.8</ele>
        <time>2025-09-20T13:04:09Z</time>
      </trkpt>
      <trkpt lat="46.20739" lon="4.48427">
        <ele>947.2</ele>
        <time>2025-09-20T13:04:10Z</time>
      </trkpt>
      <trkpt lat="46.20741" lon="4.48427">
        <ele>947.4</ele>
        <time>2025-09-20T13:04:11Z</time>
      </trkpt>
      <trkpt lat="46.20743" lon="4.48427">
        <ele>947.6</ele>
        <time>2025-09-20T13:04:12Z</time>
      </trkpt>
      <trkpt lat="46.20745" lon="4.48427">
        <ele>948</ele>
        <time>2025-09-20T13:04:13Z</time>
      </trkpt>
      <trkpt lat="46.20746" lon="4.48426">
        <ele>948.4</ele>
        <time>2025-09-20T13:04:14Z</time>
      </trkpt>
      <trkpt lat="46.20747" lon="4.48426">
        <ele>948.8</ele>
        <time>2025-09-20T13:04:15Z</time>
      </trkpt>
      <trkpt lat="46.20748" lon="4.48425">
        <ele>949</ele>
        <time>2025-09-20T13:04:16Z</time>
      </trkpt>
      <trkpt lat="46.20749" lon="4.48424">
        <ele>949</ele>
        <time>2025-09-20T13:04:17Z</time>
      </trkpt>
      <trkpt lat="46.2075" lon="4.48422">
        <ele>949.4</ele>
        <time>2025-09-20T13:04:18Z</time>
      </trkpt>
      <trkpt lat="46.20751" lon="4.48421">
        <ele>949.8</ele>
        <time>2025-09-20T13:04:19Z</time>
      </trkpt>
      <trkpt lat="46.20752" lon="4.4842">
        <ele>950</ele>
        <time>2025-09-20T13:04:20Z</time>
      </trkpt>
      <trkpt lat="46.20753" lon="4.4842">
        <ele>950.2</ele>
        <time>2025-09-20T13:04:21Z</time>
      </trkpt>
      <trkpt lat="46.20755" lon="4.4842">
        <ele>950.6</ele>
        <time>2025-09-20T13:04:22Z</time>
      </trkpt>
      <trkpt lat="46.20757" lon="4.48421">
        <ele>951</ele>
        <time>2025-09-20T13:04:23Z</time>
      </trkpt>
      <trkpt lat="46.20759" lon="4.4842">
        <ele>951.2</ele>
        <time>2025-09-20T13:04:24Z</time>
      </trkpt>
      <trkpt lat="46.2076" lon="4.48421">
        <ele>951.2</ele>
        <time>2025-09-20T13:04:25Z</time>
      </trkpt>
      <trkpt lat="46.20762" lon="4.48421">
        <ele>951.6</ele>
        <time>2025-09-20T13:04:26Z</time>
      </trkpt>
      <trkpt lat="46.20766" lon="4.48422">
        <ele>951.6</ele>
        <time>2025-09-20T13:04:27Z</time>
      </trkpt>
      <trkpt lat="46.20768" lon="4.4842">
        <ele>952</ele>
        <time>2025-09-20T13:04:28Z</time>
      </trkpt>
      <trkpt lat="46.20768" lon="4.48418">
        <ele>952.2</ele>
        <time>2025-09-20T13:04:29Z</time>
      </trkpt>
      <trkpt lat="46.20769" lon="4.48417">
        <ele>952.2</ele>
        <time>2025-09-20T13:04:30Z</time>
      </trkpt>
      <trkpt lat="46.20771" lon="4.48416">
        <ele>952.8</ele>
        <time>2025-09-20T13:04:31Z</time>
      </trkpt>
      <trkpt lat="46.20772" lon="4.48415">
        <ele>953</ele>
        <time>2025-09-20T13:04:32Z</time>
      </trkpt>
      <trkpt lat="46.20774" lon="4.48413">
        <ele>953</ele>
        <time>2025-09-20T13:04:33Z</time>
      </trkpt>
      <trkpt lat="46.20775" lon="4.48412">
        <ele>953.2</ele>
        <time>2025-09-20T13:04:34Z</time>
      </trkpt>
      <trkpt lat="46.20778" lon="4.48411">
        <ele>953.6</ele>
        <time>2025-09-20T13:04:35Z</time>
      </trkpt>
      <trkpt lat="46.20779" lon="4.48411">
        <ele>953.8</ele>
        <time>2025-09-20T13:04:36Z</time>
      </trkpt>
      <trkpt lat="46.20781" lon="4.48411">
        <ele>953.8</ele>
        <time>2025-09-20T13:04:37Z</time>
      </trkpt>
      <trkpt lat="46.20783" lon="4.48411">
        <ele>954</ele>
        <time>2025-09-20T13:04:38Z</time>
      </trkpt>
      <trkpt lat="46.20784" lon="4.48411">
        <ele>954</ele>
        <time>2025-09-20T13:04:39Z</time>
      </trkpt>
      <trkpt lat="46.20785" lon="4.48412">
        <ele>954</ele>
        <time>2025-09-20T13:04:40Z</time>
      </trkpt>
      <trkpt lat="46.20786" lon="4.48411">
        <ele>954</ele>
        <time>2025-09-20T13:04:41Z</time>
      </trkpt>
      <trkpt lat="46.20787" lon="4.4841">
        <ele>954</ele>
        <time>2025-09-20T13:04:42Z</time>
      </trkpt>
      <trkpt lat="46.20789" lon="4.4841">
        <ele>954.2</ele>
        <time>2025-09-20T13:04:43Z</time>
      </trkpt>
      <trkpt lat="46.20791" lon="4.48411">
        <ele>954.2</ele>
        <time>2025-09-20T13:04:44Z</time>
      </trkpt>
      <trkpt lat="46.20792" lon="4.48412">
        <ele>954.2</ele>
        <time>2025-09-20T13:04:45Z</time>
      </trkpt>
      <trkpt lat="46.20793" lon="4.48411">
        <ele>954.2</ele>
        <time>2025-09-20T13:04:46Z</time>
      </trkpt>
      <trkpt lat="46.20794" lon="4.48411">
        <ele>954.4</ele>
        <time>2025-09-20T13:04:47Z</time>
      </trkpt>
      <trkpt lat="46.20796" lon="4.48411">
        <ele>954.4</ele>
        <time>2025-09-20T13:04:48Z</time>
      </trkpt>
      <trkpt lat="46.20798" lon="4.48412">
        <ele>954.4</ele>
        <time>2025-09-20T13:04:49Z</time>
      </trkpt>
      <trkpt lat="46.208" lon="4.48413">
        <ele>954.4</ele>
        <time>2025-09-20T13:04:50Z</time>
      </trkpt>
      <trkpt lat="46.20803" lon="4.48415">
        <ele>954.4</ele>
        <time>2025-09-20T13:04:51Z</time>
      </trkpt>
      <trkpt lat="46.20806" lon="4.48417">
        <ele>954.4</ele>
        <time>2025-09-20T13:04:52Z</time>
      </trkpt>
      <trkpt lat="46.20809" lon="4.48418">
        <ele>954.4</ele>
        <time>2025-09-20T13:04:53Z</time>
      </trkpt>
      <trkpt lat="46.20812" lon="4.48419">
        <ele>954.4</ele>
        <time>2025-09-20T13:04:54Z</time>
      </trkpt>
      <trkpt lat="46.20816" lon="4.48421">
        <ele>954.4</ele>
        <time>2025-09-20T13:04:55Z</time>
      </trkpt>
      <trkpt lat="46.20821" lon="4.48423">
        <ele>954.4</ele>
        <time>2025-09-20T13:04:56Z</time>
      </trkpt>
      <trkpt lat="46.20825" lon="4.48427">
        <ele>954.2</ele>
        <time>2025-09-20T13:04:57Z</time>
      </trkpt>
      <trkpt lat="46.20832" lon="4.4843">
        <ele>954.2</ele>
        <time>2025-09-20T13:04:58Z</time>
      </trkpt>
      <trkpt lat="46.20836" lon="4.48434">
        <ele>951.4</ele>
        <time>2025-09-20T13:04:59Z</time>
      </trkpt>
      <trkpt lat="46.20841" lon="4.48439">
        <ele>951.4</ele>
        <time>2025-09-20T13:05:00Z</time>
      </trkpt>
      <trkpt lat="46.20847" lon="4.48443">
        <ele>951.8</ele>
        <time>2025-09-20T13:05:01Z</time>
      </trkpt>
      <trkpt lat="46.20853" lon="4.48444">
        <ele>951.8</ele>
        <time>2025-09-20T13:05:02Z</time>
      </trkpt>
      <trkpt lat="46.20856" lon="4.48451">
        <ele>951.4</ele>
        <time>2025-09-20T13:05:03Z</time>
      </trkpt>
      <trkpt lat="46.20862" lon="4.4846">
        <ele>951.4</ele>
        <time>2025-09-20T13:05:04Z</time>
      </trkpt>
      <trkpt lat="46.20869" lon="4.48468">
        <ele>951</ele>
        <time>2025-09-20T13:05:05Z</time>
      </trkpt>
      <trkpt lat="46.20873" lon="4.48479">
        <ele>951</ele>
        <time>2025-09-20T13:05:06Z</time>
      </trkpt>
      <trkpt lat="46.20875" lon="4.48485">
        <ele>951.4</ele>
        <time>2025-09-20T13:05:07Z</time>
      </trkpt>
      <trkpt lat="46.20878" lon="4.4849">
        <ele>951.4</ele>
        <time>2025-09-20T13:05:08Z</time>
      </trkpt>
      <trkpt lat="46.20881" lon="4.48495">
        <ele>952</ele>
        <time>2025-09-20T13:05:09Z</time>
      </trkpt>
      <trkpt lat="46.20882" lon="4.48498">
        <ele>951</ele>
        <time>2025-09-20T13:05:10Z</time>
      </trkpt>
      <trkpt lat="46.20885" lon="4.48503">
        <ele>952</ele>
        <time>2025-09-20T13:05:11Z</time>
      </trkpt>
      <trkpt lat="46.20885" lon="4.48506">
        <ele>952.6</ele>
        <time>2025-09-20T13:05:12Z</time>
      </trkpt>
      <trkpt lat="46.2089" lon="4.4851">
        <ele>953.4</ele>
        <time>2025-09-20T13:05:13Z</time>
      </trkpt>
      <trkpt lat="46.20892" lon="4.48515">
        <ele>953.8</ele>
        <time>2025-09-20T13:05:14Z</time>
      </trkpt>
      <trkpt lat="46.20892" lon="4.48518">
        <ele>954.4</ele>
        <time>2025-09-20T13:05:15Z</time>
      </trkpt>
      <trkpt lat="46.20892" lon="4.48519">
        <ele>954.6</ele>
        <time>2025-09-20T13:05:16Z</time>
      </trkpt>
      <trkpt lat="46.20893" lon="4.48521">
        <ele>955</ele>
        <time>2025-09-20T13:05:17Z</time>
      </trkpt>
      <trkpt lat="46.20895" lon="4.48524">
        <ele>955.4</ele>
        <time>2025-09-20T13:05:18Z</time>
      </trkpt>
      <trkpt lat="46.20896" lon="4.48527">
        <ele>955.6</ele>
        <time>2025-09-20T13:05:19Z</time>
      </trkpt>
      <trkpt lat="46.20897" lon="4.48529">
        <ele>956</ele>
        <time>2025-09-20T13:05:20Z</time>
      </trkpt>
      <trkpt lat="46.20897" lon="4.48531">
        <ele>956.2</ele>
        <time>2025-09-20T13:05:21Z</time>
      </trkpt>
      <trkpt lat="46.20897" lon="4.48533">
        <ele>956.4</ele>
        <time>2025-09-20T13:05:22Z</time>
      </trkpt>
      <trkpt lat="46.20897" lon="4.48536">
        <ele>957</ele>
        <time>2025-09-20T13:05:23Z</time>
      </trkpt>
      <trkpt lat="46.20898" lon="4.48538">
        <ele>957.2</ele>
        <time>2025-09-20T13:05:24Z</time>
      </trkpt>
      <trkpt lat="46.20898" lon="4.48539">
        <ele>957.6</ele>
        <time>2025-09-20T13:05:25Z</time>
      </trkpt>
      <trkpt lat="46.20898" lon="4.48542">
        <ele>957.6</ele>
        <time>2025-09-20T13:05:26Z</time>
      </trkpt>
      <trkpt lat="46.20899" lon="4.48545">
        <ele>958</ele>
        <time>2025-09-20T13:05:27Z</time>
      </trkpt>
      <trkpt lat="46.209" lon="4.48547">
        <ele>958.6</ele>
        <time>2025-09-20T13:05:28Z</time>
      </trkpt>
      <trkpt lat="46.209" lon="4.48549">
        <ele>958.8</ele>
        <time>2025-09-20T13:05:29Z</time>
      </trkpt>
      <trkpt lat="46.209" lon="4.4855">
        <ele>959.2</ele>
        <time>2025-09-20T13:05:30Z</time>
      </trkpt>
      <trkpt lat="46.209" lon="4.48553">
        <ele>959.6</ele>
        <time>2025-09-20T13:05:31Z</time>
      </trkpt>
      <trkpt lat="46.209" lon="4.48555">
        <ele>960</ele>
        <time>2025-09-20T13:05:32Z</time>
      </trkpt>
      <trkpt lat="46.20899" lon="4.48556">
        <ele>960.6</ele>
        <time>2025-09-20T13:05:33Z</time>
      </trkpt>
      <trkpt lat="46.20899" lon="4.48558">
        <ele>961</ele>
        <time>2025-09-20T13:05:34Z</time>
      </trkpt>
      <trkpt lat="46.20899" lon="4.4856">
        <ele>961.4</ele>
        <time>2025-09-20T13:05:35Z</time>
      </trkpt>
      <trkpt lat="46.20899" lon="4.48562">
        <ele>961.6</ele>
        <time>2025-09-20T13:05:36Z</time>
      </trkpt>
      <trkpt lat="46.20899" lon="4.48564">
        <ele>962</ele>
        <time>2025-09-20T13:05:37Z</time>
      </trkpt>
      <trkpt lat="46.20899" lon="4.48566">
        <ele>962.4</ele>
        <time>2025-09-20T13:05:38Z</time>
      </trkpt>
      <trkpt lat="46.20899" lon="4.48567">
        <ele>963</ele>
        <time>2025-09-20T13:05:39Z</time>
      </trkpt>
      <trkpt lat="46.209" lon="4.4857">
        <ele>963.2</ele>
        <time>2025-09-20T13:05:40Z</time>
      </trkpt>
      <trkpt lat="46.209" lon="4.48572">
        <ele>963.6</ele>
        <time>2025-09-20T13:05:41Z</time>
      </trkpt>
      <trkpt lat="46.20901" lon="4.48573">
        <ele>963.6</ele>
        <time>2025-09-20T13:05:42Z</time>
      </trkpt>
      <trkpt lat="46.20901" lon="4.48575">
        <ele>963.8</ele>
        <time>2025-09-20T13:05:43Z</time>
      </trkpt>
      <trkpt lat="46.20901" lon="4.48577">
        <ele>964.2</ele>
        <time>2025-09-20T13:05:44Z</time>
      </trkpt>
      <trkpt lat="46.20902" lon="4.48578">
        <ele>964.4</ele>
        <time>2025-09-20T13:05:45Z</time>
      </trkpt>
      <trkpt lat="46.20902" lon="4.4858">
        <ele>964.8</ele>
        <time>2025-09-20T13:05:46Z</time>
      </trkpt>
      <trkpt lat="46.20902" lon="4.48582">
        <ele>965</ele>
        <time>2025-09-20T13:05:47Z</time>
      </trkpt>
      <trkpt lat="46.20901" lon="4.48584">
        <ele>965</ele>
        <time>2025-09-20T13:05:48Z</time>
      </trkpt>
      <trkpt lat="46.20902" lon="4.48586">
        <ele>965.4</ele>
        <time>2025-09-20T13:05:49Z</time>
      </trkpt>
      <trkpt lat="46.20903" lon="4.48588">
        <ele>965.4</ele>
        <time>2025-09-20T13:05:50Z</time>
      </trkpt>
      <trkpt lat="46.20903" lon="4.4859">
        <ele>965.6</ele>
        <time>2025-09-20T13:05:51Z</time>
      </trkpt>
      <trkpt lat="46.20903" lon="4.48592">
        <ele>965.6</ele>
        <time>2025-09-20T13:05:52Z</time>
      </trkpt>
      <trkpt lat="46.20902" lon="4.48594">
        <ele>966</ele>
        <time>2025-09-20T13:05:53Z</time>
      </trkpt>
      <trkpt lat="46.20901" lon="4.48596">
        <ele>966.4</ele>
        <time>2025-09-20T13:05:54Z</time>
      </trkpt>
      <trkpt lat="46.20901" lon="4.48598">
        <ele>966.4</ele>
        <time>2025-09-20T13:05:55Z</time>
      </trkpt>
      <trkpt lat="46.209" lon="4.48599">
        <ele>966.8</ele>
        <time>2025-09-20T13:05:56Z</time>
      </trkpt>
      <trkpt lat="46.20899" lon="4.48601">
        <ele>967</ele>
        <time>2025-09-20T13:05:57Z</time>
      </trkpt>
      <trkpt lat="46.20899" lon="4.48603">
        <ele>967.4</ele>
        <time>2025-09-20T13:05:58Z</time>
      </trkpt>
      <trkpt lat="46.20899" lon="4.48604">
        <ele>967.8</ele>
        <time>2025-09-20T13:05:59Z</time>
      </trkpt>
      <trkpt lat="46.20899" lon="4.48605">
        <ele>968.2</ele>
        <time>2025-09-20T13:06:00Z</time>
      </trkpt>
      <trkpt lat="46.20899" lon="4.48605">
        <ele>968.4</ele>
        <time>2025-09-20T13:06:01Z</time>
      </trkpt>
      <trkpt lat="46.20899" lon="4.48607">
        <ele>968.8</ele>
        <time>2025-09-20T13:06:02Z</time>
      </trkpt>
      <trkpt lat="46.20899" lon="4.48609">
        <ele>969.2</ele>
        <time>2025-09-20T13:06:03Z</time>
      </trkpt>
      <trkpt lat="46.209" lon="4.4861">
        <ele>969.4</ele>
        <time>2025-09-20T13:06:04Z</time>
      </trkpt>
      <trkpt lat="46.20901" lon="4.48613">
        <ele>969.8</ele>
        <time>2025-09-20T13:06:05Z</time>
      </trkpt>
      <trkpt lat="46.20901" lon="4.48616">
        <ele>970</ele>
        <time>2025-09-20T13:06:06Z</time>
      </trkpt>
      <trkpt lat="46.20901" lon="4.48618">
        <ele>970.2</ele>
        <time>2025-09-20T13:06:07Z</time>
      </trkpt>
      <trkpt lat="46.20901" lon="4.48619">
        <ele>970.6</ele>
        <time>2025-09-20T13:06:08Z</time>
      </trkpt>
      <trkpt lat="46.20902" lon="4.4862">
        <ele>970.6</ele>
        <time>2025-09-20T13:06:09Z</time>
      </trkpt>
      <trkpt lat="46.20902" lon="4.48623">
        <ele>971</ele>
        <time>2025-09-20T13:06:10Z</time>
      </trkpt>
      <trkpt lat="46.20903" lon="4.48625">
        <ele>971.2</ele>
        <time>2025-09-20T13:06:11Z</time>
      </trkpt>
      <trkpt lat="46.20903" lon="4.48627">
        <ele>971.6</ele>
        <time>2025-09-20T13:06:12Z</time>
      </trkpt>
      <trkpt lat="46.20903" lon="4.48629">
        <ele>971.8</ele>
        <time>2025-09-20T13:06:13Z</time>
      </trkpt>
      <trkpt lat="46.20904" lon="4.48631">
        <ele>972</ele>
        <time>2025-09-20T13:06:14Z</time>
      </trkpt>
      <trkpt lat="46.20904" lon="4.48633">
        <ele>972</ele>
        <time>2025-09-20T13:06:15Z</time>
      </trkpt>
      <trkpt lat="46.20905" lon="4.48634">
        <ele>972.4</ele>
        <time>2025-09-20T13:06:16Z</time>
      </trkpt>
      <trkpt lat="46.20905" lon="4.48635">
        <ele>972.4</ele>
        <time>2025-09-20T13:06:17Z</time>
      </trkpt>
      <trkpt lat="46.20904" lon="4.48636">
        <ele>972.6</ele>
        <time>2025-09-20T13:06:18Z</time>
      </trkpt>
      <trkpt lat="46.20903" lon="4.48638">
        <ele>972.6</ele>
        <time>2025-09-20T13:06:19Z</time>
      </trkpt>
      <trkpt lat="46.20902" lon="4.4864">
        <ele>972.6</ele>
        <time>2025-09-20T13:06:20Z</time>
      </trkpt>
      <trkpt lat="46.20901" lon="4.48642">
        <ele>973</ele>
        <time>2025-09-20T13:06:21Z</time>
      </trkpt>
      <trkpt lat="46.209" lon="4.48645">
        <ele>973</ele>
        <time>2025-09-20T13:06:22Z</time>
      </trkpt>
      <trkpt lat="46.20899" lon="4.48648">
        <ele>973.4</ele>
        <time>2025-09-20T13:06:23Z</time>
      </trkpt>
      <trkpt lat="46.20899" lon="4.48651">
        <ele>973.8</ele>
        <time>2025-09-20T13:06:24Z</time>
      </trkpt>
      <trkpt lat="46.20899" lon="4.48653">
        <ele>974.2</ele>
        <time>2025-09-20T13:06:25Z</time>
      </trkpt>
      <trkpt lat="46.20899" lon="4.48657">
        <ele>974.6</ele>
        <time>2025-09-20T13:06:26Z</time>
      </trkpt>
      <trkpt lat="46.20899" lon="4.48659">
        <ele>974.6</ele>
        <time>2025-09-20T13:06:27Z</time>
      </trkpt>
      <trkpt lat="46.20899" lon="4.48662">
        <ele>974.6</ele>
        <time>2025-09-20T13:06:28Z</time>
      </trkpt>
      <trkpt lat="46.20898" lon="4.48664">
        <ele>974.6</ele>
        <time>2025-09-20T13:06:29Z</time>
      </trkpt>
      <trkpt lat="46.20898" lon="4.48666">
        <ele>974.6</ele>
        <time>2025-09-20T13:06:30Z</time>
      </trkpt>
      <trkpt lat="46.20898" lon="4.48668">
        <ele>974.6</ele>
        <time>2025-09-20T13:06:31Z</time>
      </trkpt>
      <trkpt lat="46.20898" lon="4.4867">
        <ele>974.8</ele>
        <time>2025-09-20T13:06:32Z</time>
      </trkpt>
      <trkpt lat="46.20898" lon="4.48672">
        <ele>975</ele>
        <time>2025-09-20T13:06:33Z</time>
      </trkpt>
      <trkpt lat="46.20898" lon="4.48675">
        <ele>975.4</ele>
        <time>2025-09-20T13:06:34Z</time>
      </trkpt>
      <trkpt lat="46.20899" lon="4.48677">
        <ele>975.6</ele>
        <time>2025-09-20T13:06:35Z</time>
      </trkpt>
      <trkpt lat="46.20899" lon="4.48679">
        <ele>976</ele>
        <time>2025-09-20T13:06:36Z</time>
      </trkpt>
      <trkpt lat="46.20899" lon="4.48681">
        <ele>976.4</ele>
        <time>2025-09-20T13:06:37Z</time>
      </trkpt>
      <trkpt lat="46.20899" lon="4.48683">
        <ele>976.6</ele>
        <time>2025-09-20T13:06:38Z</time>
      </trkpt>
      <trkpt lat="46.20898" lon="4.48684">
        <ele>976.8</ele>
        <time>2025-09-20T13:06:39Z</time>
      </trkpt>
      <trkpt lat="46.20898" lon="4.48686">
        <ele>976.8</ele>
        <time>2025-09-20T13:06:40Z</time>
      </trkpt>
      <trkpt lat="46.20898" lon="4.48688">
        <ele>977.2</ele>
        <time>2025-09-20T13:06:41Z</time>
      </trkpt>
      <trkpt lat="46.20898" lon="4.4869">
        <ele>977.4</ele>
        <time>2025-09-20T13:06:42Z</time>
      </trkpt>
      <trkpt lat="46.20897" lon="4.48692">
        <ele>977.4</ele>
        <time>2025-09-20T13:06:43Z</time>
      </trkpt>
      <trkpt lat="46.20897" lon="4.48693">
        <ele>977.6</ele>
        <time>2025-09-20T13:06:44Z</time>
      </trkpt>
      <trkpt lat="46.20897" lon="4.48695">
        <ele>977.6</ele>
        <time>2025-09-20T13:06:45Z</time>
      </trkpt>
      <trkpt lat="46.20896" lon="4.48697">
        <ele>977.8</ele>
        <time>2025-09-20T13:06:46Z</time>
      </trkpt>
      <trkpt lat="46.20895" lon="4.48698">
        <ele>978.2</ele>
        <time>2025-09-20T13:06:47Z</time>
      </trkpt>
      <trkpt lat="46.20895" lon="4.48699">
        <ele>978.2</ele>
        <time>2025-09-20T13:06:48Z</time>
      </trkpt>
      <trkpt lat="46.20895" lon="4.48701">
        <ele>978.4</ele>
        <time>2025-09-20T13:06:49Z</time>
      </trkpt>
      <trkpt lat="46.20894" lon="4.48702">
        <ele>978.4</ele>
        <time>2025-09-20T13:06:50Z</time>
      </trkpt>
      <trkpt lat="46.20893" lon="4.48703">
        <ele>978.4</ele>
        <time>2025-09-20T13:06:51Z</time>
      </trkpt>
      <trkpt lat="46.20893" lon="4.48703">
        <ele>978.8</ele>
        <time>2025-09-20T13:06:52Z</time>
      </trkpt>
      <trkpt lat="46.20893" lon="4.48705">
        <ele>978.8</ele>
        <time>2025-09-20T13:06:53Z</time>
      </trkpt>
      <trkpt lat="46.20893" lon="4.48707">
        <ele>979.2</ele>
        <time>2025-09-20T13:06:54Z</time>
      </trkpt>
      <trkpt lat="46.20893" lon="4.48709">
        <ele>979.4</ele>
        <time>2025-09-20T13:06:55Z</time>
      </trkpt>
      <trkpt lat="46.20893" lon="4.48709">
        <ele>980</ele>
        <time>2025-09-20T13:06:56Z</time>
      </trkpt>
      <trkpt lat="46.20895" lon="4.48715">
        <ele>980.8</ele>
        <time>2025-09-20T13:06:59Z</time>
      </trkpt>
      <trkpt lat="46.20895" lon="4.48717">
        <ele>981</ele>
        <time>2025-09-20T13:07:00Z</time>
      </trkpt>
      <trkpt lat="46.20895" lon="4.48718">
        <ele>981.4</ele>
        <time>2025-09-20T13:07:01Z</time>
      </trkpt>
      <trkpt lat="46.20895" lon="4.48719">
        <ele>981.6</ele>
        <time>2025-09-20T13:07:02Z</time>
      </trkpt>
      <trkpt lat="46.20894" lon="4.48719">
        <ele>981.6</ele>
        <time>2025-09-20T13:07:03Z</time>
      </trkpt>
      <trkpt lat="46.20894" lon="4.48721">
        <ele>982</ele>
        <time>2025-09-20T13:07:04Z</time>
      </trkpt>
      <trkpt lat="46.20894" lon="4.48723">
        <ele>982.4</ele>
        <time>2025-09-20T13:07:05Z</time>
      </trkpt>
      <trkpt lat="46.20894" lon="4.48725">
        <ele>982.6</ele>
        <time>2025-09-20T13:07:06Z</time>
      </trkpt>
      <trkpt lat="46.20893" lon="4.48726">
        <ele>983</ele>
        <time>2025-09-20T13:07:07Z</time>
      </trkpt>
      <trkpt lat="46.20891" lon="4.48728">
        <ele>983</ele>
        <time>2025-09-20T13:07:08Z</time>
      </trkpt>
      <trkpt lat="46.2089" lon="4.48729">
        <ele>983.4</ele>
        <time>2025-09-20T13:07:09Z</time>
      </trkpt>
      <trkpt lat="46.20888" lon="4.4873">
        <ele>983.6</ele>
        <time>2025-09-20T13:07:10Z</time>
      </trkpt>
      <trkpt lat="46.20887" lon="4.48732">
        <ele>984</ele>
        <time>2025-09-20T13:07:11Z</time>
      </trkpt>
      <trkpt lat="46.20886" lon="4.48732">
        <ele>984.2</ele>
        <time>2025-09-20T13:07:12Z</time>
      </trkpt>
      <trkpt lat="46.20885" lon="4.48733">
        <ele>984.4</ele>
        <time>2025-09-20T13:07:13Z</time>
      </trkpt>
      <trkpt lat="46.20884" lon="4.48734">
        <ele>984.8</ele>
        <time>2025-09-20T13:07:14Z</time>
      </trkpt>
      <trkpt lat="46.20883" lon="4.48736">
        <ele>985</ele>
        <time>2025-09-20T13:07:15Z</time>
      </trkpt>
      <trkpt lat="46.20881" lon="4.48737">
        <ele>985.2</ele>
        <time>2025-09-20T13:07:16Z</time>
      </trkpt>
      <trkpt lat="46.2088" lon="4.48738">
        <ele>985.2</ele>
        <time>2025-09-20T13:07:17Z</time>
      </trkpt>
      <trkpt lat="46.20879" lon="4.4874">
        <ele>985.6</ele>
        <time>2025-09-20T13:07:18Z</time>
      </trkpt>
      <trkpt lat="46.20877" lon="4.48741">
        <ele>985.6</ele>
        <time>2025-09-20T13:07:19Z</time>
      </trkpt>
      <trkpt lat="46.20876" lon="4.48742">
        <ele>985.8</ele>
        <time>2025-09-20T13:07:20Z</time>
      </trkpt>
      <trkpt lat="46.20876" lon="4.48743">
        <ele>985.8</ele>
        <time>2025-09-20T13:07:21Z</time>
      </trkpt>
      <trkpt lat="46.20875" lon="4.48745">
        <ele>986.2</ele>
        <time>2025-09-20T13:07:22Z</time>
      </trkpt>
      <trkpt lat="46.20874" lon="4.48747">
        <ele>986.4</ele>
        <time>2025-09-20T13:07:23Z</time>
      </trkpt>
      <trkpt lat="46.20873" lon="4.48749">
        <ele>986.4</ele>
        <time>2025-09-20T13:07:24Z</time>
      </trkpt>
      <trkpt lat="46.20873" lon="4.48751">
        <ele>986.8</ele>
        <time>2025-09-20T13:07:25Z</time>
      </trkpt>
      <trkpt lat="46.20871" lon="4.48752">
        <ele>987</ele>
        <time>2025-09-20T13:07:26Z</time>
      </trkpt>
      <trkpt lat="46.2087" lon="4.48753">
        <ele>987</ele>
        <time>2025-09-20T13:07:27Z</time>
      </trkpt>
      <trkpt lat="46.20869" lon="4.48753">
        <ele>987.4</ele>
        <time>2025-09-20T13:07:28Z</time>
      </trkpt>
      <trkpt lat="46.20869" lon="4.48753">
        <ele>987.4</ele>
        <time>2025-09-20T13:07:29Z</time>
      </trkpt>
      <trkpt lat="46.20868" lon="4.48754">
        <ele>987.8</ele>
        <time>2025-09-20T13:07:30Z</time>
      </trkpt>
      <trkpt lat="46.20867" lon="4.48756">
        <ele>987.8</ele>
        <time>2025-09-20T13:07:31Z</time>
      </trkpt>
      <trkpt lat="46.20866" lon="4.48757">
        <ele>988</ele>
        <time>2025-09-20T13:07:32Z</time>
      </trkpt>
      <trkpt lat="46.20866" lon="4.48758">
        <ele>988</ele>
        <time>2025-09-20T13:07:33Z</time>
      </trkpt>
      <trkpt lat="46.20865" lon="4.4876">
        <ele>988.4</ele>
        <time>2025-09-20T13:07:34Z</time>
      </trkpt>
      <trkpt lat="46.20863" lon="4.48763">
        <ele>988.4</ele>
        <time>2025-09-20T13:07:35Z</time>
      </trkpt>
      <trkpt lat="46.20862" lon="4.48765">
        <ele>988.8</ele>
        <time>2025-09-20T13:07:36Z</time>
      </trkpt>
      <trkpt lat="46.2086" lon="4.48766">
        <ele>989</ele>
        <time>2025-09-20T13:07:37Z</time>
      </trkpt>
      <trkpt lat="46.20859" lon="4.48768">
        <ele>989.4</ele>
        <time>2025-09-20T13:07:38Z</time>
      </trkpt>
      <trkpt lat="46.20858" lon="4.48769">
        <ele>989.4</ele>
        <time>2025-09-20T13:07:39Z</time>
      </trkpt>
      <trkpt lat="46.20857" lon="4.4877">
        <ele>989.8</ele>
        <time>2025-09-20T13:07:40Z</time>
      </trkpt>
      <trkpt lat="46.20856" lon="4.48771">
        <ele>989.8</ele>
        <time>2025-09-20T13:07:41Z</time>
      </trkpt>
      <trkpt lat="46.20855" lon="4.48773">
        <ele>990</ele>
        <time>2025-09-20T13:07:42Z</time>
      </trkpt>
      <trkpt lat="46.20854" lon="4.48775">
        <ele>990</ele>
        <time>2025-09-20T13:07:43Z</time>
      </trkpt>
      <trkpt lat="46.20853" lon="4.48776">
        <ele>990.4</ele>
        <time>2025-09-20T13:07:44Z</time>
      </trkpt>
      <trkpt lat="46.20852" lon="4.48777">
        <ele>990.4</ele>
        <time>2025-09-20T13:07:45Z</time>
      </trkpt>
      <trkpt lat="46.20851" lon="4.48778">
        <ele>990.6</ele>
        <time>2025-09-20T13:07:46Z</time>
      </trkpt>
      <trkpt lat="46.2085" lon="4.48778">
        <ele>991</ele>
        <time>2025-09-20T13:07:47Z</time>
      </trkpt>
      <trkpt lat="46.20848" lon="4.48779">
        <ele>991</ele>
        <time>2025-09-20T13:07:48Z</time>
      </trkpt>
      <trkpt lat="46.20847" lon="4.4878">
        <ele>991.2</ele>
        <time>2025-09-20T13:07:49Z</time>
      </trkpt>
      <trkpt lat="46.20846" lon="4.48781">
        <ele>991.6</ele>
        <time>2025-09-20T13:07:50Z</time>
      </trkpt>
      <trkpt lat="46.20845" lon="4.48782">
        <ele>991.6</ele>
        <time>2025-09-20T13:07:51Z</time>
      </trkpt>
      <trkpt lat="46.20844" lon="4.48783">
        <ele>992</ele>
        <time>2025-09-20T13:07:52Z</time>
      </trkpt>
      <trkpt lat="46.20843" lon="4.48784">
        <ele>992.2</ele>
        <time>2025-09-20T13:07:53Z</time>
      </trkpt>
      <trkpt lat="46.20841" lon="4.48785">
        <ele>992.6</ele>
        <time>2025-09-20T13:07:54Z</time>
      </trkpt>
      <trkpt lat="46.20839" lon="4.48785">
        <ele>992.6</ele>
        <time>2025-09-20T13:07:55Z</time>
      </trkpt>
      <trkpt lat="46.20838" lon="4.48785">
        <ele>992.6</ele>
        <time>2025-09-20T13:07:56Z</time>
      </trkpt>
      <trkpt lat="46.20837" lon="4.48785">
        <ele>992.8</ele>
        <time>2025-09-20T13:07:57Z</time>
      </trkpt>
      <trkpt lat="46.20835" lon="4.48786">
        <ele>992.8</ele>
        <time>2025-09-20T13:07:58Z</time>
      </trkpt>
      <trkpt lat="46.20834" lon="4.48786">
        <ele>993</ele>
        <time>2025-09-20T13:07:59Z</time>
      </trkpt>
      <trkpt lat="46.20833" lon="4.48786">
        <ele>993</ele>
        <time>2025-09-20T13:08:00Z</time>
      </trkpt>
      <trkpt lat="46.20831" lon="4.48786">
        <ele>993.4</ele>
        <time>2025-09-20T13:08:01Z</time>
      </trkpt>
      <trkpt lat="46.2083" lon="4.48785">
        <ele>993.4</ele>
        <time>2025-09-20T13:08:02Z</time>
      </trkpt>
      <trkpt lat="46.20829" lon="4.48784">
        <ele>993.6</ele>
        <time>2025-09-20T13:08:03Z</time>
      </trkpt>
      <trkpt lat="46.20828" lon="4.48782">
        <ele>993.6</ele>
        <time>2025-09-20T13:08:04Z</time>
      </trkpt>
      <trkpt lat="46.20827" lon="4.48781">
        <ele>994</ele>
        <time>2025-09-20T13:08:05Z</time>
      </trkpt>
      <trkpt lat="46.20826" lon="4.4878">
        <ele>994.2</ele>
        <time>2025-09-20T13:08:06Z</time>
      </trkpt>
      <trkpt lat="46.20826" lon="4.48779">
        <ele>994.2</ele>
        <time>2025-09-20T13:08:07Z</time>
      </trkpt>
      <trkpt lat="46.20826" lon="4.48776">
        <ele>994.4</ele>
        <time>2025-09-20T13:08:08Z</time>
      </trkpt>
      <trkpt lat="46.20827" lon="4.48774">
        <ele>994.4</ele>
        <time>2025-09-20T13:08:09Z</time>
      </trkpt>
      <trkpt lat="46.20827" lon="4.48772">
        <ele>994.6</ele>
        <time>2025-09-20T13:08:10Z</time>
      </trkpt>
      <trkpt lat="46.20828" lon="4.48769">
        <ele>995</ele>
        <time>2025-09-20T13:08:11Z</time>
      </trkpt>
      <trkpt lat="46.20828" lon="4.48767">
        <ele>995</ele>
        <time>2025-09-20T13:08:12Z</time>
      </trkpt>
      <trkpt lat="46.20828" lon="4.48766">
        <ele>995.4</ele>
        <time>2025-09-20T13:08:13Z</time>
      </trkpt>
      <trkpt lat="46.20828" lon="4.48764">
        <ele>995.4</ele>
        <time>2025-09-20T13:08:14Z</time>
      </trkpt>
      <trkpt lat="46.20828" lon="4.48762">
        <ele>995.8</ele>
        <time>2025-09-20T13:08:15Z</time>
      </trkpt>
      <trkpt lat="46.20829" lon="4.4876">
        <ele>995.8</ele>
        <time>2025-09-20T13:08:16Z</time>
      </trkpt>
      <trkpt lat="46.2083" lon="4.48758">
        <ele>996</ele>
        <time>2025-09-20T13:08:17Z</time>
      </trkpt>
      <trkpt lat="46.2083" lon="4.48757">
        <ele>996</ele>
        <time>2025-09-20T13:08:18Z</time>
      </trkpt>
      <trkpt lat="46.2083" lon="4.48756">
        <ele>996.4</ele>
        <time>2025-09-20T13:08:19Z</time>
      </trkpt>
      <trkpt lat="46.2083" lon="4.48754">
        <ele>996.4</ele>
        <time>2025-09-20T13:08:20Z</time>
      </trkpt>
      <trkpt lat="46.20831" lon="4.48752">
        <ele>996.6</ele>
        <time>2025-09-20T13:08:21Z</time>
      </trkpt>
      <trkpt lat="46.20831" lon="4.4875">
        <ele>996.6</ele>
        <time>2025-09-20T13:08:22Z</time>
      </trkpt>
      <trkpt lat="46.20832" lon="4.48748">
        <ele>996.8</ele>
        <time>2025-09-20T13:08:23Z</time>
      </trkpt>
      <trkpt lat="46.20833" lon="4.48746">
        <ele>996.8</ele>
        <time>2025-09-20T13:08:24Z</time>
      </trkpt>
      <trkpt lat="46.20834" lon="4.48743">
        <ele>997.2</ele>
        <time>2025-09-20T13:08:25Z</time>
      </trkpt>
      <trkpt lat="46.20834" lon="4.48739">
        <ele>997.2</ele>
        <time>2025-09-20T13:08:26Z</time>
      </trkpt>
      <trkpt lat="46.20834" lon="4.48735">
        <ele>997</ele>
        <time>2025-09-20T13:08:27Z</time>
      </trkpt>
      <trkpt lat="46.20834" lon="4.48732">
        <ele>997</ele>
        <time>2025-09-20T13:08:28Z</time>
      </trkpt>
      <trkpt lat="46.20834" lon="4.48728">
        <ele>997</ele>
        <time>2025-09-20T13:08:29Z</time>
      </trkpt>
      <trkpt lat="46.20834" lon="4.48725">
        <ele>997</ele>
        <time>2025-09-20T13:08:30Z</time>
      </trkpt>
      <trkpt lat="46.20834" lon="4.48722">
        <ele>997</ele>
        <time>2025-09-20T13:08:31Z</time>
      </trkpt>
      <trkpt lat="46.20833" lon="4.48719">
        <ele>997</ele>
        <time>2025-09-20T13:08:32Z</time>
      </trkpt>
      <trkpt lat="46.20832" lon="4.48717">
        <ele>997</ele>
        <time>2025-09-20T13:08:33Z</time>
      </trkpt>
      <trkpt lat="46.20832" lon="4.48716">
        <ele>997.4</ele>
        <time>2025-09-20T13:08:34Z</time>
      </trkpt>
      <trkpt lat="46.20832" lon="4.48714">
        <ele>997.4</ele>
        <time>2025-09-20T13:08:35Z</time>
      </trkpt>
      <trkpt lat="46.20831" lon="4.48711">
        <ele>997.4</ele>
        <time>2025-09-20T13:08:36Z</time>
      </trkpt>
      <trkpt lat="46.2083" lon="4.4871">
        <ele>997.4</ele>
        <time>2025-09-20T13:08:37Z</time>
      </trkpt>
      <trkpt lat="46.20829" lon="4.48709">
        <ele>997.4</ele>
        <time>2025-09-20T13:08:38Z</time>
      </trkpt>
      <trkpt lat="46.20827" lon="4.4871">
        <ele>997.6</ele>
        <time>2025-09-20T13:08:39Z</time>
      </trkpt>
      <trkpt lat="46.20824" lon="4.4871">
        <ele>997.6</ele>
        <time>2025-09-20T13:09:22Z</time>
      </trkpt>
      <trkpt lat="46.20822" lon="4.4871">
        <ele>997.6</ele>
        <time>2025-09-20T13:09:23Z</time>
      </trkpt>
      <trkpt lat="46.20822" lon="4.4871">
        <ele>997.6</ele>
        <time>2025-09-20T13:09:24Z</time>
      </trkpt>
      <trkpt lat="46.20822" lon="4.4871">
        <ele>997.6</ele>
        <time>2025-09-20T13:09:25Z</time>
      </trkpt>
      <trkpt lat="46.20821" lon="4.4871">
        <ele>998</ele>
        <time>2025-09-20T13:09:26Z</time>
      </trkpt>
      <trkpt lat="46.2082" lon="4.48711">
        <ele>998.2</ele>
        <time>2025-09-20T13:09:27Z</time>
      </trkpt>
      <trkpt lat="46.2082" lon="4.48711">
        <ele>998.2</ele>
        <time>2025-09-20T13:09:28Z</time>
      </trkpt>
      <trkpt lat="46.20819" lon="4.48711">
        <ele>998.6</ele>
        <time>2025-09-20T13:09:29Z</time>
      </trkpt>
      <trkpt lat="46.20819" lon="4.48711">
        <ele>998.6</ele>
        <time>2025-09-20T13:09:30Z</time>
      </trkpt>
      <trkpt lat="46.20819" lon="4.48711">
        <ele>998.8</ele>
        <time>2025-09-20T13:09:31Z</time>
      </trkpt>
      <trkpt lat="46.20818" lon="4.48711">
        <ele>998.8</ele>
        <time>2025-09-20T13:09:32Z</time>
      </trkpt>
      <trkpt lat="46.20818" lon="4.4871">
        <ele>999.2</ele>
        <time>2025-09-20T13:09:33Z</time>
      </trkpt>
      <trkpt lat="46.20817" lon="4.4871">
        <ele>999.2</ele>
        <time>2025-09-20T13:09:34Z</time>
      </trkpt>
      <trkpt lat="46.20818" lon="4.48709">
        <ele>999.4</ele>
        <time>2025-09-20T13:09:35Z</time>
      </trkpt>
      <trkpt lat="46.20817" lon="4.48709">
        <ele>999.6</ele>
        <time>2025-09-20T13:09:36Z</time>
      </trkpt>
      <trkpt lat="46.20817" lon="4.48709">
        <ele>999.6</ele>
        <time>2025-09-20T13:09:37Z</time>
      </trkpt>
      <trkpt lat="46.20816" lon="4.48707">
        <ele>1000.4</ele>
        <time>2025-09-20T13:11:32Z</time>
      </trkpt>
      <trkpt lat="46.20816" lon="4.48707">
        <ele>1000.6</ele>
        <time>2025-09-20T13:11:33Z</time>
      </trkpt>
      <trkpt lat="46.20816" lon="4.48708">
        <ele>1000.6</ele>
        <time>2025-09-20T13:11:34Z</time>
      </trkpt>
      <trkpt lat="46.20815" lon="4.48708">
        <ele>1000.4</ele>
        <time>2025-09-20T13:11:35Z</time>
      </trkpt>
      <trkpt lat="46.20814" lon="4.4871">
        <ele>1000.4</ele>
        <time>2025-09-20T13:11:36Z</time>
      </trkpt>
      <trkpt lat="46.20813" lon="4.48712">
        <ele>1000.4</ele>
        <time>2025-09-20T13:11:37Z</time>
      </trkpt>
      <trkpt lat="46.20813" lon="4.48713">
        <ele>1000.2</ele>
        <time>2025-09-20T13:11:38Z</time>
      </trkpt>
      <trkpt lat="46.20813" lon="4.48714">
        <ele>1000.2</ele>
        <time>2025-09-20T13:11:39Z</time>
      </trkpt>
      <trkpt lat="46.20814" lon="4.48715">
        <ele>1000.2</ele>
        <time>2025-09-20T13:11:40Z</time>
      </trkpt>
      <trkpt lat="46.20814" lon="4.48716">
        <ele>1000.2</ele>
        <time>2025-09-20T13:11:41Z</time>
      </trkpt>
      <trkpt lat="46.20814" lon="4.48717">
        <ele>1000.2</ele>
        <time>2025-09-20T13:11:42Z</time>
      </trkpt>
      <trkpt lat="46.20814" lon="4.48716">
        <ele>1000.2</ele>
        <time>2025-09-20T13:11:43Z</time>
      </trkpt>
      <trkpt lat="46.20812" lon="4.48716">
        <ele>999.8</ele>
        <time>2025-09-20T13:11:52Z</time>
      </trkpt>
      <trkpt lat="46.20812" lon="4.48718">
        <ele>999.8</ele>
        <time>2025-09-20T13:11:53Z</time>
      </trkpt>
      <trkpt lat="46.20813" lon="4.48719">
        <ele>1000.2</ele>
        <time>2025-09-20T13:11:54Z</time>
      </trkpt>
      <trkpt lat="46.20814" lon="4.4872">
        <ele>1000.2</ele>
        <time>2025-09-20T13:11:55Z</time>
      </trkpt>
      <trkpt lat="46.20814" lon="4.48722">
        <ele>1000.2</ele>
        <time>2025-09-20T13:11:56Z</time>
      </trkpt>
      <trkpt lat="46.20815" lon="4.48723">
        <ele>1000.2</ele>
        <time>2025-09-20T13:11:57Z</time>
      </trkpt>
      <trkpt lat="46.20815" lon="4.48725">
        <ele>1000.2</ele>
        <time>2025-09-20T13:11:58Z</time>
      </trkpt>
      <trkpt lat="46.20815" lon="4.48725">
        <ele>1000.4</ele>
        <time>2025-09-20T13:11:59Z</time>
      </trkpt>
      <trkpt lat="46.20815" lon="4.48726">
        <ele>1000.4</ele>
        <time>2025-09-20T13:12:00Z</time>
      </trkpt>
      <trkpt lat="46.20815" lon="4.48726">
        <ele>1000.4</ele>
        <time>2025-09-20T13:12:01Z</time>
      </trkpt>
      <trkpt lat="46.20814" lon="4.48726">
        <ele>1000.6</ele>
        <time>2025-09-20T13:12:02Z</time>
      </trkpt>
      <trkpt lat="46.20813" lon="4.48722">
        <ele>1002.6</ele>
        <time>2025-09-20T13:20:27Z</time>
      </trkpt>
      <trkpt lat="46.20813" lon="4.48721">
        <ele>1002.6</ele>
        <time>2025-09-20T13:20:28Z</time>
      </trkpt>
      <trkpt lat="46.20813" lon="4.48721">
        <ele>1002.4</ele>
        <time>2025-09-20T13:20:29Z</time>
      </trkpt>
      <trkpt lat="46.20813" lon="4.48721">
        <ele>1002.4</ele>
        <time>2025-09-20T13:20:30Z</time>
      </trkpt>
      <trkpt lat="46.2081" lon="4.48722">
        <ele>1002.4</ele>
        <time>2025-09-20T13:20:47Z</time>
      </trkpt>
      <trkpt lat="46.20809" lon="4.48721">
        <ele>1002.4</ele>
        <time>2025-09-20T13:20:48Z</time>
      </trkpt>
      <trkpt lat="46.20808" lon="4.48719">
        <ele>1002</ele>
        <time>2025-09-20T13:20:49Z</time>
      </trkpt>
      <trkpt lat="46.20807" lon="4.48718">
        <ele>1001.8</ele>
        <time>2025-09-20T13:20:50Z</time>
      </trkpt>
      <trkpt lat="46.20806" lon="4.48716">
        <ele>1001.8</ele>
        <time>2025-09-20T13:20:51Z</time>
      </trkpt>
      <trkpt lat="46.20805" lon="4.48714">
        <ele>1001.8</ele>
        <time>2025-09-20T13:20:52Z</time>
      </trkpt>
      <trkpt lat="46.20805" lon="4.48712">
        <ele>1001.8</ele>
        <time>2025-09-20T13:20:53Z</time>
      </trkpt>
      <trkpt lat="46.20805" lon="4.4871">
        <ele>1001.8</ele>
        <time>2025-09-20T13:20:54Z</time>
      </trkpt>
      <trkpt lat="46.20805" lon="4.48709">
        <ele>1002</ele>
        <time>2025-09-20T13:20:55Z</time>
      </trkpt>
      <trkpt lat="46.20806" lon="4.48708">
        <ele>1001.2</ele>
        <time>2025-09-20T13:20:56Z</time>
      </trkpt>
      <trkpt lat="46.20806" lon="4.48707">
        <ele>1001.2</ele>
        <time>2025-09-20T13:20:57Z</time>
      </trkpt>
      <trkpt lat="46.20807" lon="4.48707">
        <ele>1002.4</ele>
        <time>2025-09-20T13:20:58Z</time>
      </trkpt>
      <trkpt lat="46.20807" lon="4.48707">
        <ele>1002.4</ele>
        <time>2025-09-20T13:20:59Z</time>
      </trkpt>
      <trkpt lat="46.20807" lon="4.48706">
        <ele>1002.4</ele>
        <time>2025-09-20T13:21:00Z</time>
      </trkpt>
      <trkpt lat="46.20807" lon="4.48704">
        <ele>1002</ele>
        <time>2025-09-20T13:21:01Z</time>
      </trkpt>
      <trkpt lat="46.20807" lon="4.48702">
        <ele>1002</ele>
        <time>2025-09-20T13:21:02Z</time>
      </trkpt>
      <trkpt lat="46.20806" lon="4.487">
        <ele>1002</ele>
        <time>2025-09-20T13:21:03Z</time>
      </trkpt>
      <trkpt lat="46.20806" lon="4.48699">
        <ele>1002</ele>
        <time>2025-09-20T13:21:04Z</time>
      </trkpt>
      <trkpt lat="46.20805" lon="4.48697">
        <ele>1002</ele>
        <time>2025-09-20T13:21:05Z</time>
      </trkpt>
      <trkpt lat="46.20805" lon="4.48694">
        <ele>1001.8</ele>
        <time>2025-09-20T13:21:06Z</time>
      </trkpt>
      <trkpt lat="46.20805" lon="4.48691">
        <ele>1001.8</ele>
        <time>2025-09-20T13:21:07Z</time>
      </trkpt>
      <trkpt lat="46.20804" lon="4.48689">
        <ele>1001.8</ele>
        <time>2025-09-20T13:21:08Z</time>
      </trkpt>
      <trkpt lat="46.20804" lon="4.48688">
        <ele>1001.4</ele>
        <time>2025-09-20T13:21:09Z</time>
      </trkpt>
      <trkpt lat="46.20803" lon="4.48685">
        <ele>1001.8</ele>
        <time>2025-09-20T13:21:10Z</time>
      </trkpt>
      <trkpt lat="46.20801" lon="4.48683">
        <ele>1001.6</ele>
        <time>2025-09-20T13:21:11Z</time>
      </trkpt>
      <trkpt lat="46.20799" lon="4.48683">
        <ele>1001.6</ele>
        <time>2025-09-20T13:21:12Z</time>
      </trkpt>
      <trkpt lat="46.20798" lon="4.48683">
        <ele>1001.6</ele>
        <time>2025-09-20T13:21:13Z</time>
      </trkpt>
      <trkpt lat="46.20797" lon="4.48683">
        <ele>1001.8</ele>
        <time>2025-09-20T13:21:14Z</time>
      </trkpt>
      <trkpt lat="46.20796" lon="4.48683">
        <ele>1001</ele>
        <time>2025-09-20T13:21:15Z</time>
      </trkpt>
      <trkpt lat="46.20794" lon="4.48683">
        <ele>1000.8</ele>
        <time>2025-09-20T13:21:16Z</time>
      </trkpt>
      <trkpt lat="46.20793" lon="4.48684">
        <ele>1001.4</ele>
        <time>2025-09-20T13:21:17Z</time>
      </trkpt>
      <trkpt lat="46.20792" lon="4.48685">
        <ele>1001.4</ele>
        <time>2025-09-20T13:21:18Z</time>
      </trkpt>
      <trkpt lat="46.20792" lon="4.48686">
        <ele>1001.4</ele>
        <time>2025-09-20T13:21:19Z</time>
      </trkpt>
      <trkpt lat="46.20791" lon="4.48687">
        <ele>1001.4</ele>
        <time>2025-09-20T13:21:20Z</time>
      </trkpt>
      <trkpt lat="46.2079" lon="4.48687">
        <ele>1001.6</ele>
        <time>2025-09-20T13:21:21Z</time>
      </trkpt>
      <trkpt lat="46.20789" lon="4.48687">
        <ele>1001.6</ele>
        <time>2025-09-20T13:21:22Z</time>
      </trkpt>
      <trkpt lat="46.20788" lon="4.48688">
        <ele>1001.8</ele>
        <time>2025-09-20T13:21:23Z</time>
      </trkpt>
      <trkpt lat="46.20787" lon="4.48689">
        <ele>1001.8</ele>
        <time>2025-09-20T13:21:24Z</time>
      </trkpt>
      <trkpt lat="46.20787" lon="4.48691">
        <ele>1001.8</ele>
        <time>2025-09-20T13:21:25Z</time>
      </trkpt>
      <trkpt lat="46.20786" lon="4.48693">
        <ele>1001.8</ele>
        <time>2025-09-20T13:21:26Z</time>
      </trkpt>
      <trkpt lat="46.20784" lon="4.48695">
        <ele>1001.8</ele>
        <time>2025-09-20T13:21:27Z</time>
      </trkpt>
      <trkpt lat="46.20782" lon="4.48697">
        <ele>1001.8</ele>
        <time>2025-09-20T13:21:28Z</time>
      </trkpt>
      <trkpt lat="46.20781" lon="4.48699">
        <ele>1001.6</ele>
        <time>2025-09-20T13:21:29Z</time>
      </trkpt>
      <trkpt lat="46.20779" lon="4.48701">
        <ele>1001.6</ele>
        <time>2025-09-20T13:21:30Z</time>
      </trkpt>
      <trkpt lat="46.20778" lon="4.48704">
        <ele>1001.2</ele>
        <time>2025-09-20T13:21:31Z</time>
      </trkpt>
      <trkpt lat="46.20777" lon="4.48706">
        <ele>1000.8</ele>
        <time>2025-09-20T13:21:32Z</time>
      </trkpt>
      <trkpt lat="46.20777" lon="4.48709">
        <ele>1000.8</ele>
        <time>2025-09-20T13:21:33Z</time>
      </trkpt>
      <trkpt lat="46.20776" lon="4.48713">
        <ele>1000.6</ele>
        <time>2025-09-20T13:21:34Z</time>
      </trkpt>
      <trkpt lat="46.20776" lon="4.48716">
        <ele>1000.4</ele>
        <time>2025-09-20T13:21:35Z</time>
      </trkpt>
      <trkpt lat="46.20775" lon="4.48719">
        <ele>1000.4</ele>
        <time>2025-09-20T13:21:36Z</time>
      </trkpt>
      <trkpt lat="46.20775" lon="4.48722">
        <ele>999.8</ele>
        <time>2025-09-20T13:21:37Z</time>
      </trkpt>
      <trkpt lat="46.20774" lon="4.48727">
        <ele>999.8</ele>
        <time>2025-09-20T13:21:38Z</time>
      </trkpt>
      <trkpt lat="46.20774" lon="4.48732">
        <ele>999.2</ele>
        <time>2025-09-20T13:21:39Z</time>
      </trkpt>
      <trkpt lat="46.20775" lon="4.48736">
        <ele>999.2</ele>
        <time>2025-09-20T13:21:40Z</time>
      </trkpt>
      <trkpt lat="46.20776" lon="4.4874">
        <ele>999.2</ele>
        <time>2025-09-20T13:21:41Z</time>
      </trkpt>
      <trkpt lat="46.20776" lon="4.48744">
        <ele>999.2</ele>
        <time>2025-09-20T13:21:42Z</time>
      </trkpt>
      <trkpt lat="46.20777" lon="4.48747">
        <ele>998.8</ele>
        <time>2025-09-20T13:21:43Z</time>
      </trkpt>
      <trkpt lat="46.20777" lon="4.48749">
        <ele>998.8</ele>
        <time>2025-09-20T13:21:44Z</time>
      </trkpt>
      <trkpt lat="46.20778" lon="4.48751">
        <ele>998.4</ele>
        <time>2025-09-20T13:21:45Z</time>
      </trkpt>
      <trkpt lat="46.20778" lon="4.48754">
        <ele>998.4</ele>
        <time>2025-09-20T13:21:46Z</time>
      </trkpt>
      <trkpt lat="46.20778" lon="4.48757">
        <ele>998.4</ele>
        <time>2025-09-20T13:21:47Z</time>
      </trkpt>
      <trkpt lat="46.20778" lon="4.48759">
        <ele>998.2</ele>
        <time>2025-09-20T13:21:48Z</time>
      </trkpt>
      <trkpt lat="46.20779" lon="4.48761">
        <ele>997.8</ele>
        <time>2025-09-20T13:21:49Z</time>
      </trkpt>
      <trkpt lat="46.20779" lon="4.48763">
        <ele>997.6</ele>
        <time>2025-09-20T13:21:50Z</time>
      </trkpt>
      <trkpt lat="46.20778" lon="4.48765">
        <ele>997.6</ele>
        <time>2025-09-20T13:21:51Z</time>
      </trkpt>
      <trkpt lat="46.20778" lon="4.48766">
        <ele>997.4</ele>
        <time>2025-09-20T13:21:52Z</time>
      </trkpt>
      <trkpt lat="46.20777" lon="4.48767">
        <ele>997.4</ele>
        <time>2025-09-20T13:21:53Z</time>
      </trkpt>
      <trkpt lat="46.20776" lon="4.48769">
        <ele>997.2</ele>
        <time>2025-09-20T13:21:54Z</time>
      </trkpt>
      <trkpt lat="46.20775" lon="4.48772">
        <ele>997.2</ele>
        <time>2025-09-20T13:21:55Z</time>
      </trkpt>
      <trkpt lat="46.20774" lon="4.48773">
        <ele>997.2</ele>
        <time>2025-09-20T13:21:56Z</time>
      </trkpt>
      <trkpt lat="46.20773" lon="4.48774">
        <ele>997.2</ele>
        <time>2025-09-20T13:21:57Z</time>
      </trkpt>
      <trkpt lat="46.20772" lon="4.48775">
        <ele>997.2</ele>
        <time>2025-09-20T13:21:58Z</time>
      </trkpt>
      <trkpt lat="46.20774" lon="4.48776">
        <ele>996.2</ele>
        <time>2025-09-20T13:22:05Z</time>
      </trkpt>
      <trkpt lat="46.20773" lon="4.48778">
        <ele>995.8</ele>
        <time>2025-09-20T13:22:06Z</time>
      </trkpt>
      <trkpt lat="46.20772" lon="4.4878">
        <ele>995.6</ele>
        <time>2025-09-20T13:22:07Z</time>
      </trkpt>
      <trkpt lat="46.20771" lon="4.4878">
        <ele>995</ele>
        <time>2025-09-20T13:22:08Z</time>
      </trkpt>
      <trkpt lat="46.2077" lon="4.48782">
        <ele>995</ele>
        <time>2025-09-20T13:22:09Z</time>
      </trkpt>
      <trkpt lat="46.20769" lon="4.48784">
        <ele>994.8</ele>
        <time>2025-09-20T13:22:10Z</time>
      </trkpt>
      <trkpt lat="46.20768" lon="4.48786">
        <ele>994.6</ele>
        <time>2025-09-20T13:22:11Z</time>
      </trkpt>
      <trkpt lat="46.20768" lon="4.48787">
        <ele>994.6</ele>
        <time>2025-09-20T13:22:12Z</time>
      </trkpt>
      <trkpt lat="46.20768" lon="4.48788">
        <ele>994.2</ele>
        <time>2025-09-20T13:22:13Z</time>
      </trkpt>
      <trkpt lat="46.20767" lon="4.4879">
        <ele>994.6</ele>
        <time>2025-09-20T13:22:14Z</time>
      </trkpt>
      <trkpt lat="46.20766" lon="4.48794">
        <ele>994.2</ele>
        <time>2025-09-20T13:22:15Z</time>
      </trkpt>
      <trkpt lat="46.20765" lon="4.48796">
        <ele>993.8</ele>
        <time>2025-09-20T13:22:16Z</time>
      </trkpt>
      <trkpt lat="46.20765" lon="4.48799">
        <ele>993.6</ele>
        <time>2025-09-20T13:22:17Z</time>
      </trkpt>
      <trkpt lat="46.20763" lon="4.48801">
        <ele>993.4</ele>
        <time>2025-09-20T13:22:18Z</time>
      </trkpt>
      <trkpt lat="46.2076" lon="4.48802">
        <ele>993.4</ele>
        <time>2025-09-20T13:22:19Z</time>
      </trkpt>
      <trkpt lat="46.20757" lon="4.48801">
        <ele>993.4</ele>
        <time>2025-09-20T13:22:20Z</time>
      </trkpt>
      <trkpt lat="46.20755" lon="4.48801">
        <ele>992.8</ele>
        <time>2025-09-20T13:22:21Z</time>
      </trkpt>
      <trkpt lat="46.20754" lon="4.48802">
        <ele>992.8</ele>
        <time>2025-09-20T13:22:22Z</time>
      </trkpt>
      <trkpt lat="46.20752" lon="4.48803">
        <ele>992.4</ele>
        <time>2025-09-20T13:22:23Z</time>
      </trkpt>
      <trkpt lat="46.20752" lon="4.48803">
        <ele>991.8</ele>
        <time>2025-09-20T13:22:24Z</time>
      </trkpt>
      <trkpt lat="46.20752" lon="4.48804">
        <ele>991.2</ele>
        <time>2025-09-20T13:22:25Z</time>
      </trkpt>
      <trkpt lat="46.20752" lon="4.48805">
        <ele>991</ele>
        <time>2025-09-20T13:22:26Z</time>
      </trkpt>
      <trkpt lat="46.20752" lon="4.48807">
        <ele>990.4</ele>
        <time>2025-09-20T13:22:27Z</time>
      </trkpt>
      <trkpt lat="46.20752" lon="4.48808">
        <ele>990.2</ele>
        <time>2025-09-20T13:22:28Z</time>
      </trkpt>
      <trkpt lat="46.2075" lon="4.4881">
        <ele>989.6</ele>
        <time>2025-09-20T13:22:29Z</time>
      </trkpt>
      <trkpt lat="46.20748" lon="4.48812">
        <ele>989</ele>
        <time>2025-09-20T13:22:30Z</time>
      </trkpt>
      <trkpt lat="46.20745" lon="4.48814">
        <ele>988.4</ele>
        <time>2025-09-20T13:22:31Z</time>
      </trkpt>
      <trkpt lat="46.20742" lon="4.48814">
        <ele>988.4</ele>
        <time>2025-09-20T13:22:32Z</time>
      </trkpt>
      <trkpt lat="46.20739" lon="4.48814">
        <ele>988.2</ele>
        <time>2025-09-20T13:22:33Z</time>
      </trkpt>
      <trkpt lat="46.20738" lon="4.48814">
        <ele>987.8</ele>
        <time>2025-09-20T13:22:34Z</time>
      </trkpt>
      <trkpt lat="46.20737" lon="4.48813">
        <ele>987.4</ele>
        <time>2025-09-20T13:22:35Z</time>
      </trkpt>
      <trkpt lat="46.20735" lon="4.48813">
        <ele>987.4</ele>
        <time>2025-09-20T13:22:36Z</time>
      </trkpt>
      <trkpt lat="46.20731" lon="4.48811">
        <ele>986.4</ele>
        <time>2025-09-20T13:22:46Z</time>
      </trkpt>
      <trkpt lat="46.20729" lon="4.4881">
        <ele>986</ele>
        <time>2025-09-20T13:22:47Z</time>
      </trkpt>
      <trkpt lat="46.20727" lon="4.48809">
        <ele>985.8</ele>
        <time>2025-09-20T13:22:48Z</time>
      </trkpt>
      <trkpt lat="46.20725" lon="4.48807">
        <ele>985.8</ele>
        <time>2025-09-20T13:22:49Z</time>
      </trkpt>
      <trkpt lat="46.20723" lon="4.48806">
        <ele>985.2</ele>
        <time>2025-09-20T13:22:50Z</time>
      </trkpt>
      <trkpt lat="46.20722" lon="4.48805">
        <ele>985.2</ele>
        <time>2025-09-20T13:22:51Z</time>
      </trkpt>
      <trkpt lat="46.20721" lon="4.48802">
        <ele>984.8</ele>
        <time>2025-09-20T13:22:52Z</time>
      </trkpt>
      <trkpt lat="46.2072" lon="4.48799">
        <ele>984.2</ele>
        <time>2025-09-20T13:22:53Z</time>
      </trkpt>
      <trkpt lat="46.2072" lon="4.48797">
        <ele>984</ele>
        <time>2025-09-20T13:22:54Z</time>
      </trkpt>
      <trkpt lat="46.20719" lon="4.48795">
        <ele>983.4</ele>
        <time>2025-09-20T13:22:55Z</time>
      </trkpt>
      <trkpt lat="46.20717" lon="4.48795">
        <ele>983</ele>
        <time>2025-09-20T13:22:56Z</time>
      </trkpt>
      <trkpt lat="46.20716" lon="4.48795">
        <ele>983</ele>
        <time>2025-09-20T13:22:57Z</time>
      </trkpt>
      <trkpt lat="46.20714" lon="4.48795">
        <ele>983</ele>
        <time>2025-09-20T13:22:58Z</time>
      </trkpt>
      <trkpt lat="46.20712" lon="4.48795">
        <ele>982.8</ele>
        <time>2025-09-20T13:22:59Z</time>
      </trkpt>
      <trkpt lat="46.20709" lon="4.48796">
        <ele>982.2</ele>
        <time>2025-09-20T13:23:00Z</time>
      </trkpt>
      <trkpt lat="46.20707" lon="4.48796">
        <ele>981.8</ele>
        <time>2025-09-20T13:23:01Z</time>
      </trkpt>
      <trkpt lat="46.20706" lon="4.48795">
        <ele>981.2</ele>
        <time>2025-09-20T13:23:02Z</time>
      </trkpt>
      <trkpt lat="46.20703" lon="4.48793">
        <ele>980.6</ele>
        <time>2025-09-20T13:23:03Z</time>
      </trkpt>
      <trkpt lat="46.20701" lon="4.48791">
        <ele>980</ele>
        <time>2025-09-20T13:23:04Z</time>
      </trkpt>
      <trkpt lat="46.20698" lon="4.48789">
        <ele>979.2</ele>
        <time>2025-09-20T13:23:05Z</time>
      </trkpt>
      <trkpt lat="46.20696" lon="4.48787">
        <ele>979.2</ele>
        <time>2025-09-20T13:23:06Z</time>
      </trkpt>
      <trkpt lat="46.20695" lon="4.48785">
        <ele>978.6</ele>
        <time>2025-09-20T13:23:07Z</time>
      </trkpt>
      <trkpt lat="46.20694" lon="4.48784">
        <ele>978.6</ele>
        <time>2025-09-20T13:23:08Z</time>
      </trkpt>
      <trkpt lat="46.20693" lon="4.48783">
        <ele>978.2</ele>
        <time>2025-09-20T13:23:09Z</time>
      </trkpt>
      <trkpt lat="46.20692" lon="4.48781">
        <ele>978</ele>
        <time>2025-09-20T13:23:10Z</time>
      </trkpt>
      <trkpt lat="46.20691" lon="4.48779">
        <ele>977.8</ele>
        <time>2025-09-20T13:23:11Z</time>
      </trkpt>
      <trkpt lat="46.2069" lon="4.48777">
        <ele>977.8</ele>
        <time>2025-09-20T13:23:12Z</time>
      </trkpt>
      <trkpt lat="46.2069" lon="4.48773">
        <ele>977.4</ele>
        <time>2025-09-20T13:23:13Z</time>
      </trkpt>
      <trkpt lat="46.20689" lon="4.48772">
        <ele>977</ele>
        <time>2025-09-20T13:23:14Z</time>
      </trkpt>
      <trkpt lat="46.20688" lon="4.48771">
        <ele>976.6</ele>
        <time>2025-09-20T13:23:15Z</time>
      </trkpt>
      <trkpt lat="46.20686" lon="4.4877">
        <ele>976.2</ele>
        <time>2025-09-20T13:23:16Z</time>
      </trkpt>
      <trkpt lat="46.20685" lon="4.4877">
        <ele>975.8</ele>
        <time>2025-09-20T13:23:17Z</time>
      </trkpt>
      <trkpt lat="46.20683" lon="4.48769">
        <ele>975.6</ele>
        <time>2025-09-20T13:23:18Z</time>
      </trkpt>
      <trkpt lat="46.20681" lon="4.48769">
        <ele>974.8</ele>
        <time>2025-09-20T13:23:19Z</time>
      </trkpt>
      <trkpt lat="46.2068" lon="4.48768">
        <ele>974.4</ele>
        <time>2025-09-20T13:23:20Z</time>
      </trkpt>
      <trkpt lat="46.2068" lon="4.48767">
        <ele>974</ele>
        <time>2025-09-20T13:23:21Z</time>
      </trkpt>
      <trkpt lat="46.20678" lon="4.48766">
        <ele>973.8</ele>
        <time>2025-09-20T13:23:22Z</time>
      </trkpt>
      <trkpt lat="46.20677" lon="4.48764">
        <ele>973.4</ele>
        <time>2025-09-20T13:23:23Z</time>
      </trkpt>
      <trkpt lat="46.20676" lon="4.48764">
        <ele>973.4</ele>
        <time>2025-09-20T13:23:24Z</time>
      </trkpt>
      <trkpt lat="46.20675" lon="4.48763">
        <ele>973.2</ele>
        <time>2025-09-20T13:23:25Z</time>
      </trkpt>
      <trkpt lat="46.20674" lon="4.48762">
        <ele>973.2</ele>
        <time>2025-09-20T13:23:26Z</time>
      </trkpt>
      <trkpt lat="46.20673" lon="4.48762">
        <ele>972.8</ele>
        <time>2025-09-20T13:23:27Z</time>
      </trkpt>
      <trkpt lat="46.20673" lon="4.48762">
        <ele>972.4</ele>
        <time>2025-09-20T13:23:28Z</time>
      </trkpt>
      <trkpt lat="46.20672" lon="4.48762">
        <ele>972.4</ele>
        <time>2025-09-20T13:23:29Z</time>
      </trkpt>
      <trkpt lat="46.20672" lon="4.48762">
        <ele>972</ele>
        <time>2025-09-20T13:23:30Z</time>
      </trkpt>
      <trkpt lat="46.20672" lon="4.48761">
        <ele>971.2</ele>
        <time>2025-09-20T13:23:34Z</time>
      </trkpt>
      <trkpt lat="46.20672" lon="4.4876">
        <ele>970.6</ele>
        <time>2025-09-20T13:23:35Z</time>
      </trkpt>
      <trkpt lat="46.20672" lon="4.48757">
        <ele>970.4</ele>
        <time>2025-09-20T13:23:36Z</time>
      </trkpt>
      <trkpt lat="46.20671" lon="4.48754">
        <ele>970</ele>
        <time>2025-09-20T13:23:37Z</time>
      </trkpt>
      <trkpt lat="46.2067" lon="4.48752">
        <ele>969.6</ele>
        <time>2025-09-20T13:23:38Z</time>
      </trkpt>
      <trkpt lat="46.20669" lon="4.48752">
        <ele>969.4</ele>
        <time>2025-09-20T13:23:39Z</time>
      </trkpt>
      <trkpt lat="46.20668" lon="4.4875">
        <ele>969</ele>
        <time>2025-09-20T13:23:40Z</time>
      </trkpt>
      <trkpt lat="46.20667" lon="4.48748">
        <ele>969</ele>
        <time>2025-09-20T13:23:41Z</time>
      </trkpt>
      <trkpt lat="46.20666" lon="4.48747">
        <ele>968.4</ele>
        <time>2025-09-20T13:23:42Z</time>
      </trkpt>
      <trkpt lat="46.20665" lon="4.48745">
        <ele>968.4</ele>
        <time>2025-09-20T13:23:43Z</time>
      </trkpt>
      <trkpt lat="46.20664" lon="4.48743">
        <ele>968</ele>
        <time>2025-09-20T13:23:44Z</time>
      </trkpt>
      <trkpt lat="46.20663" lon="4.48741">
        <ele>967.8</ele>
        <time>2025-09-20T13:23:45Z</time>
      </trkpt>
      <trkpt lat="46.20662" lon="4.48739">
        <ele>967.4</ele>
        <time>2025-09-20T13:23:46Z</time>
      </trkpt>
      <trkpt lat="46.20661" lon="4.48737">
        <ele>967.2</ele>
        <time>2025-09-20T13:23:47Z</time>
      </trkpt>
      <trkpt lat="46.2066" lon="4.48736">
        <ele>966.8</ele>
        <time>2025-09-20T13:23:48Z</time>
      </trkpt>
      <trkpt lat="46.20659" lon="4.48733">
        <ele>966.4</ele>
        <time>2025-09-20T13:23:49Z</time>
      </trkpt>
      <trkpt lat="46.20658" lon="4.48731">
        <ele>966.4</ele>
        <time>2025-09-20T13:23:50Z</time>
      </trkpt>
      <trkpt lat="46.20656" lon="4.48728">
        <ele>966.2</ele>
        <time>2025-09-20T13:23:51Z</time>
      </trkpt>
      <trkpt lat="46.20655" lon="4.48725">
        <ele>965.8</ele>
        <time>2025-09-20T13:23:52Z</time>
      </trkpt>
      <trkpt lat="46.20653" lon="4.48723">
        <ele>965.4</ele>
        <time>2025-09-20T13:23:53Z</time>
      </trkpt>
      <trkpt lat="46.20651" lon="4.48721">
        <ele>965.4</ele>
        <time>2025-09-20T13:23:54Z</time>
      </trkpt>
      <trkpt lat="46.2065" lon="4.48721">
        <ele>965</ele>
        <time>2025-09-20T13:23:55Z</time>
      </trkpt>
      <trkpt lat="46.2065" lon="4.48721">
        <ele>964.6</ele>
        <time>2025-09-20T13:23:56Z</time>
      </trkpt>
      <trkpt lat="46.20649" lon="4.48721">
        <ele>964.2</ele>
        <time>2025-09-20T13:23:57Z</time>
      </trkpt>
      <trkpt lat="46.20648" lon="4.48722">
        <ele>964.2</ele>
        <time>2025-09-20T13:23:58Z</time>
      </trkpt>
      <trkpt lat="46.20648" lon="4.48722">
        <ele>964</ele>
        <time>2025-09-20T13:23:59Z</time>
      </trkpt>
      <trkpt lat="46.20647" lon="4.48721">
        <ele>964</ele>
        <time>2025-09-20T13:24:00Z</time>
      </trkpt>
      <trkpt lat="46.20647" lon="4.4872">
        <ele>964</ele>
        <time>2025-09-20T13:24:01Z</time>
      </trkpt>
      <trkpt lat="46.20645" lon="4.4872">
        <ele>963.6</ele>
        <time>2025-09-20T13:24:02Z</time>
      </trkpt>
      <trkpt lat="46.20644" lon="4.48719">
        <ele>963.4</ele>
        <time>2025-09-20T13:24:03Z</time>
      </trkpt>
      <trkpt lat="46.20642" lon="4.48719">
        <ele>963</ele>
        <time>2025-09-20T13:24:04Z</time>
      </trkpt>
      <trkpt lat="46.2064" lon="4.48718">
        <ele>963</ele>
        <time>2025-09-20T13:24:05Z</time>
      </trkpt>
      <trkpt lat="46.20639" lon="4.48717">
        <ele>962.6</ele>
        <time>2025-09-20T13:24:06Z</time>
      </trkpt>
      <trkpt lat="46.20638" lon="4.48715">
        <ele>962.2</ele>
        <time>2025-09-20T13:24:07Z</time>
      </trkpt>
      <trkpt lat="46.20636" lon="4.48713">
        <ele>962.2</ele>
        <time>2025-09-20T13:24:08Z</time>
      </trkpt>
      <trkpt lat="46.20634" lon="4.48711">
        <ele>961.8</ele>
        <time>2025-09-20T13:24:09Z</time>
      </trkpt>
      <trkpt lat="46.20632" lon="4.4871">
        <ele>961.4</ele>
        <time>2025-09-20T13:24:10Z</time>
      </trkpt>
      <trkpt lat="46.2063" lon="4.48708">
        <ele>961</ele>
        <time>2025-09-20T13:24:11Z</time>
      </trkpt>
      <trkpt lat="46.20628" lon="4.48707">
        <ele>960.6</ele>
        <time>2025-09-20T13:24:12Z</time>
      </trkpt>
      <trkpt lat="46.20627" lon="4.48707">
        <ele>960.4</ele>
        <time>2025-09-20T13:24:13Z</time>
      </trkpt>
      <trkpt lat="46.20626" lon="4.48707">
        <ele>960</ele>
        <time>2025-09-20T13:24:14Z</time>
      </trkpt>
      <trkpt lat="46.20623" lon="4.48706">
        <ele>960</ele>
        <time>2025-09-20T13:24:15Z</time>
      </trkpt>
      <trkpt lat="46.20622" lon="4.48706">
        <ele>959.8</ele>
        <time>2025-09-20T13:24:16Z</time>
      </trkpt>
      <trkpt lat="46.2062" lon="4.48705">
        <ele>959.4</ele>
        <time>2025-09-20T13:24:17Z</time>
      </trkpt>
      <trkpt lat="46.20618" lon="4.48704">
        <ele>959</ele>
        <time>2025-09-20T13:24:18Z</time>
      </trkpt>
      <trkpt lat="46.20617" lon="4.48703">
        <ele>959</ele>
        <time>2025-09-20T13:24:19Z</time>
      </trkpt>
      <trkpt lat="46.20615" lon="4.48702">
        <ele>958.6</ele>
        <time>2025-09-20T13:24:20Z</time>
      </trkpt>
      <trkpt lat="46.20613" lon="4.487">
        <ele>956.4</ele>
        <time>2025-09-20T13:24:21Z</time>
      </trkpt>
      <trkpt lat="46.2061" lon="4.48698">
        <ele>956.4</ele>
        <time>2025-09-20T13:24:22Z</time>
      </trkpt>
      <trkpt lat="46.20608" lon="4.48696">
        <ele>956.4</ele>
        <time>2025-09-20T13:24:23Z</time>
      </trkpt>
      <trkpt lat="46.20607" lon="4.48695">
        <ele>956.6</ele>
        <time>2025-09-20T13:24:24Z</time>
      </trkpt>
      <trkpt lat="46.20605" lon="4.48694">
        <ele>956.6</ele>
        <time>2025-09-20T13:24:25Z</time>
      </trkpt>
      <trkpt lat="46.20603" lon="4.48692">
        <ele>956.2</ele>
        <time>2025-09-20T13:24:26Z</time>
      </trkpt>
      <trkpt lat="46.20602" lon="4.48691">
        <ele>955.6</ele>
        <time>2025-09-20T13:24:27Z</time>
      </trkpt>
      <trkpt lat="46.20599" lon="4.48689">
        <ele>955.4</ele>
        <time>2025-09-20T13:24:28Z</time>
      </trkpt>
      <trkpt lat="46.20597" lon="4.48687">
        <ele>955</ele>
        <time>2025-09-20T13:24:29Z</time>
      </trkpt>
      <trkpt lat="46.20596" lon="4.48686">
        <ele>955</ele>
        <time>2025-09-20T13:24:30Z</time>
      </trkpt>
      <trkpt lat="46.20595" lon="4.48684">
        <ele>955</ele>
        <time>2025-09-20T13:24:31Z</time>
      </trkpt>
      <trkpt lat="46.20595" lon="4.48682">
        <ele>954.6</ele>
        <time>2025-09-20T13:24:32Z</time>
      </trkpt>
      <trkpt lat="46.20594" lon="4.48681">
        <ele>954</ele>
        <time>2025-09-20T13:24:33Z</time>
      </trkpt>
      <trkpt lat="46.20592" lon="4.4868">
        <ele>953.6</ele>
        <time>2025-09-20T13:24:34Z</time>
      </trkpt>
      <trkpt lat="46.20592" lon="4.4868">
        <ele>953.6</ele>
        <time>2025-09-20T13:24:35Z</time>
      </trkpt>
      <trkpt lat="46.20591" lon="4.48678">
        <ele>953.2</ele>
        <time>2025-09-20T13:24:36Z</time>
      </trkpt>
      <trkpt lat="46.20589" lon="4.48677">
        <ele>953.2</ele>
        <time>2025-09-20T13:24:37Z</time>
      </trkpt>
      <trkpt lat="46.20586" lon="4.48675">
        <ele>953.4</ele>
        <time>2025-09-20T13:24:38Z</time>
      </trkpt>
      <trkpt lat="46.20584" lon="4.48673">
        <ele>953.2</ele>
        <time>2025-09-20T13:24:39Z</time>
      </trkpt>
      <trkpt lat="46.20584" lon="4.4867">
        <ele>952.6</ele>
        <time>2025-09-20T13:24:40Z</time>
      </trkpt>
      <trkpt lat="46.20582" lon="4.48667">
        <ele>952.6</ele>
        <time>2025-09-20T13:24:41Z</time>
      </trkpt>
      <trkpt lat="46.20581" lon="4.48663">
        <ele>952.2</ele>
        <time>2025-09-20T13:24:42Z</time>
      </trkpt>
      <trkpt lat="46.20575" lon="4.48659">
        <ele>951.6</ele>
        <time>2025-09-20T13:24:43Z</time>
      </trkpt>
      <trkpt lat="46.20574" lon="4.48658">
        <ele>951.2</ele>
        <time>2025-09-20T13:24:44Z</time>
      </trkpt>
      <trkpt lat="46.20572" lon="4.48657">
        <ele>950.8</ele>
        <time>2025-09-20T13:24:45Z</time>
      </trkpt>
      <trkpt lat="46.20571" lon="4.48655">
        <ele>950.4</ele>
        <time>2025-09-20T13:24:46Z</time>
      </trkpt>
      <trkpt lat="46.2057" lon="4.48654">
        <ele>950.2</ele>
        <time>2025-09-20T13:24:47Z</time>
      </trkpt>
      <trkpt lat="46.20568" lon="4.48653">
        <ele>950.2</ele>
        <time>2025-09-20T13:24:48Z</time>
      </trkpt>
      <trkpt lat="46.20567" lon="4.48653">
        <ele>950.2</ele>
        <time>2025-09-20T13:24:49Z</time>
      </trkpt>
      <trkpt lat="46.20565" lon="4.48651">
        <ele>949.8</ele>
        <time>2025-09-20T13:24:50Z</time>
      </trkpt>
      <trkpt lat="46.20564" lon="4.4865">
        <ele>949.8</ele>
        <time>2025-09-20T13:24:51Z</time>
      </trkpt>
      <trkpt lat="46.20562" lon="4.48649">
        <ele>949.6</ele>
        <time>2025-09-20T13:24:52Z</time>
      </trkpt>
      <trkpt lat="46.20561" lon="4.48647">
        <ele>949.6</ele>
        <time>2025-09-20T13:24:53Z</time>
      </trkpt>
      <trkpt lat="46.2056" lon="4.48647">
        <ele>949.4</ele>
        <time>2025-09-20T13:24:54Z</time>
      </trkpt>
      <trkpt lat="46.20558" lon="4.48646">
        <ele>949</ele>
        <time>2025-09-20T13:24:55Z</time>
      </trkpt>
      <trkpt lat="46.20557" lon="4.48645">
        <ele>949</ele>
        <time>2025-09-20T13:24:56Z</time>
      </trkpt>
      <trkpt lat="46.20556" lon="4.48644">
        <ele>948.8</ele>
        <time>2025-09-20T13:24:57Z</time>
      </trkpt>
      <trkpt lat="46.20554" lon="4.48643">
        <ele>948.8</ele>
        <time>2025-09-20T13:24:58Z</time>
      </trkpt>
      <trkpt lat="46.20552" lon="4.48643">
        <ele>948.8</ele>
        <time>2025-09-20T13:24:59Z</time>
      </trkpt>
      <trkpt lat="46.2055" lon="4.48642">
        <ele>948.4</ele>
        <time>2025-09-20T13:25:00Z</time>
      </trkpt>
      <trkpt lat="46.20548" lon="4.48641">
        <ele>946.2</ele>
        <time>2025-09-20T13:25:01Z</time>
      </trkpt>
      <trkpt lat="46.20546" lon="4.48641">
        <ele>946.2</ele>
        <time>2025-09-20T13:25:02Z</time>
      </trkpt>
      <trkpt lat="46.20543" lon="4.4864">
        <ele>946.2</ele>
        <time>2025-09-20T13:25:03Z</time>
      </trkpt>
      <trkpt lat="46.20539" lon="4.48639">
        <ele>946</ele>
        <time>2025-09-20T13:25:04Z</time>
      </trkpt>
      <trkpt lat="46.20535" lon="4.48637">
        <ele>944</ele>
        <time>2025-09-20T13:25:05Z</time>
      </trkpt>
      <trkpt lat="46.20532" lon="4.48636">
        <ele>945.4</ele>
        <time>2025-09-20T13:25:06Z</time>
      </trkpt>
      <trkpt lat="46.20529" lon="4.48635">
        <ele>944.6</ele>
        <time>2025-09-20T13:25:07Z</time>
      </trkpt>
      <trkpt lat="46.20525" lon="4.48634">
        <ele>944.4</ele>
        <time>2025-09-20T13:25:08Z</time>
      </trkpt>
      <trkpt lat="46.20522" lon="4.48634">
        <ele>944.4</ele>
        <time>2025-09-20T13:25:09Z</time>
      </trkpt>
      <trkpt lat="46.20518" lon="4.48634">
        <ele>944.2</ele>
        <time>2025-09-20T13:25:10Z</time>
      </trkpt>
      <trkpt lat="46.20515" lon="4.48635">
        <ele>944.2</ele>
        <time>2025-09-20T13:25:11Z</time>
      </trkpt>
      <trkpt lat="46.20512" lon="4.48635">
        <ele>942.8</ele>
        <time>2025-09-20T13:25:12Z</time>
      </trkpt>
      <trkpt lat="46.20508" lon="4.48634">
        <ele>942.8</ele>
        <time>2025-09-20T13:25:13Z</time>
      </trkpt>
      <trkpt lat="46.20504" lon="4.48633">
        <ele>943</ele>
        <time>2025-09-20T13:25:14Z</time>
      </trkpt>
      <trkpt lat="46.205" lon="4.48633">
        <ele>943.2</ele>
        <time>2025-09-20T13:25:15Z</time>
      </trkpt>
      <trkpt lat="46.20496" lon="4.48633">
        <ele>943.2</ele>
        <time>2025-09-20T13:25:16Z</time>
      </trkpt>
      <trkpt lat="46.20492" lon="4.48633">
        <ele>943.2</ele>
        <time>2025-09-20T13:25:17Z</time>
      </trkpt>
      <trkpt lat="46.20488" lon="4.48633">
        <ele>943.2</ele>
        <time>2025-09-20T13:25:18Z</time>
      </trkpt>
      <trkpt lat="46.20484" lon="4.48633">
        <ele>943.6</ele>
        <time>2025-09-20T13:25:19Z</time>
      </trkpt>
      <trkpt lat="46.20481" lon="4.48636">
        <ele>943.6</ele>
        <time>2025-09-20T13:25:20Z</time>
      </trkpt>
      <trkpt lat="46.20479" lon="4.48639">
        <ele>943.6</ele>
        <time>2025-09-20T13:25:21Z</time>
      </trkpt>
      <trkpt lat="46.20477" lon="4.48641">
        <ele>943.4</ele>
        <time>2025-09-20T13:25:22Z</time>
      </trkpt>
      <trkpt lat="46.20476" lon="4.48642">
        <ele>943.4</ele>
        <time>2025-09-20T13:25:23Z</time>
      </trkpt>
      <trkpt lat="46.20474" lon="4.48642">
        <ele>943.6</ele>
        <time>2025-09-20T13:25:24Z</time>
      </trkpt>
      <trkpt lat="46.20472" lon="4.48642">
        <ele>943.6</ele>
        <time>2025-09-20T13:25:25Z</time>
      </trkpt>
      <trkpt lat="46.20471" lon="4.48642">
        <ele>943.6</ele>
        <time>2025-09-20T13:25:26Z</time>
      </trkpt>
      <trkpt lat="46.20471" lon="4.48642">
        <ele>943.6</ele>
        <time>2025-09-20T13:25:27Z</time>
      </trkpt>
      <trkpt lat="46.20468" lon="4.48643">
        <ele>943.4</ele>
        <time>2025-09-20T13:25:47Z</time>
      </trkpt>
      <trkpt lat="46.20467" lon="4.48644">
        <ele>943.2</ele>
        <time>2025-09-20T13:25:48Z</time>
      </trkpt>
      <trkpt lat="46.20466" lon="4.48644">
        <ele>943.2</ele>
        <time>2025-09-20T13:25:49Z</time>
      </trkpt>
      <trkpt lat="46.20464" lon="4.48645">
        <ele>943</ele>
        <time>2025-09-20T13:25:50Z</time>
      </trkpt>
      <trkpt lat="46.20462" lon="4.48645">
        <ele>943</ele>
        <time>2025-09-20T13:25:51Z</time>
      </trkpt>
      <trkpt lat="46.2046" lon="4.48644">
        <ele>943</ele>
        <time>2025-09-20T13:25:52Z</time>
      </trkpt>
      <trkpt lat="46.20457" lon="4.48643">
        <ele>942.8</ele>
        <time>2025-09-20T13:25:53Z</time>
      </trkpt>
      <trkpt lat="46.20453" lon="4.48643">
        <ele>942.8</ele>
        <time>2025-09-20T13:25:54Z</time>
      </trkpt>
      <trkpt lat="46.2045" lon="4.48644">
        <ele>942.8</ele>
        <time>2025-09-20T13:25:55Z</time>
      </trkpt>
      <trkpt lat="46.20447" lon="4.48645">
        <ele>942.6</ele>
        <time>2025-09-20T13:25:56Z</time>
      </trkpt>
      <trkpt lat="46.20444" lon="4.48645">
        <ele>942.6</ele>
        <time>2025-09-20T13:25:57Z</time>
      </trkpt>
      <trkpt lat="46.20442" lon="4.48645">
        <ele>942.6</ele>
        <time>2025-09-20T13:25:58Z</time>
      </trkpt>
      <trkpt lat="46.20439" lon="4.48644">
        <ele>942.6</ele>
        <time>2025-09-20T13:25:59Z</time>
      </trkpt>
      <trkpt lat="46.20435" lon="4.48644">
        <ele>942.6</ele>
        <time>2025-09-20T13:26:00Z</time>
      </trkpt>
      <trkpt lat="46.20431" lon="4.48644">
        <ele>943</ele>
        <time>2025-09-20T13:26:01Z</time>
      </trkpt>
      <trkpt lat="46.20428" lon="4.48644">
        <ele>943</ele>
        <time>2025-09-20T13:26:02Z</time>
      </trkpt>
      <trkpt lat="46.20425" lon="4.48643">
        <ele>943.2</ele>
        <time>2025-09-20T13:26:03Z</time>
      </trkpt>
      <trkpt lat="46.20422" lon="4.48643">
        <ele>943.2</ele>
        <time>2025-09-20T13:26:04Z</time>
      </trkpt>
      <trkpt lat="46.20419" lon="4.48642">
        <ele>943.2</ele>
        <time>2025-09-20T13:26:05Z</time>
      </trkpt>
      <trkpt lat="46.20416" lon="4.48641">
        <ele>943.2</ele>
        <time>2025-09-20T13:26:06Z</time>
      </trkpt>
      <trkpt lat="46.20412" lon="4.48639">
        <ele>943.6</ele>
        <time>2025-09-20T13:26:07Z</time>
      </trkpt>
      <trkpt lat="46.20408" lon="4.48638">
        <ele>943.6</ele>
        <time>2025-09-20T13:26:08Z</time>
      </trkpt>
      <trkpt lat="46.20405" lon="4.48637">
        <ele>943.8</ele>
        <time>2025-09-20T13:26:09Z</time>
      </trkpt>
      <trkpt lat="46.20403" lon="4.48636">
        <ele>943.8</ele>
        <time>2025-09-20T13:26:10Z</time>
      </trkpt>
      <trkpt lat="46.20401" lon="4.48635">
        <ele>944.2</ele>
        <time>2025-09-20T13:26:11Z</time>
      </trkpt>
      <trkpt lat="46.20399" lon="4.48635">
        <ele>944.2</ele>
        <time>2025-09-20T13:26:12Z</time>
      </trkpt>
      <trkpt lat="46.20396" lon="4.48635">
        <ele>944.6</ele>
        <time>2025-09-20T13:26:13Z</time>
      </trkpt>
      <trkpt lat="46.20393" lon="4.48633">
        <ele>944.6</ele>
        <time>2025-09-20T13:26:14Z</time>
      </trkpt>
      <trkpt lat="46.2039" lon="4.48632">
        <ele>945.4</ele>
        <time>2025-09-20T13:26:15Z</time>
      </trkpt>
      <trkpt lat="46.20387" lon="4.4863">
        <ele>945.4</ele>
        <time>2025-09-20T13:26:16Z</time>
      </trkpt>
      <trkpt lat="46.20384" lon="4.48629">
        <ele>945.6</ele>
        <time>2025-09-20T13:26:17Z</time>
      </trkpt>
      <trkpt lat="46.20381" lon="4.48628">
        <ele>946</ele>
        <time>2025-09-20T13:26:18Z</time>
      </trkpt>
      <trkpt lat="46.20379" lon="4.48627">
        <ele>946.2</ele>
        <time>2025-09-20T13:26:19Z</time>
      </trkpt>
      <trkpt lat="46.20376" lon="4.48626">
        <ele>946.2</ele>
        <time>2025-09-20T13:26:20Z</time>
      </trkpt>
      <trkpt lat="46.20374" lon="4.48625">
        <ele>946.2</ele>
        <time>2025-09-20T13:26:21Z</time>
      </trkpt>
      <trkpt lat="46.20371" lon="4.48624">
        <ele>946.6</ele>
        <time>2025-09-20T13:26:22Z</time>
      </trkpt>
      <trkpt lat="46.20369" lon="4.48623">
        <ele>947</ele>
        <time>2025-09-20T13:26:23Z</time>
      </trkpt>
      <trkpt lat="46.20367" lon="4.48621">
        <ele>947.2</ele>
        <time>2025-09-20T13:26:24Z</time>
      </trkpt>
      <trkpt lat="46.20365" lon="4.4862">
        <ele>947.6</ele>
        <time>2025-09-20T13:26:25Z</time>
      </trkpt>
      <trkpt lat="46.20364" lon="4.48619">
        <ele>948</ele>
        <time>2025-09-20T13:26:26Z</time>
      </trkpt>
      <trkpt lat="46.20362" lon="4.48618">
        <ele>948.2</ele>
        <time>2025-09-20T13:26:27Z</time>
      </trkpt>
      <trkpt lat="46.2036" lon="4.48617">
        <ele>948.6</ele>
        <time>2025-09-20T13:26:28Z</time>
      </trkpt>
      <trkpt lat="46.20358" lon="4.48616">
        <ele>949</ele>
        <time>2025-09-20T13:26:29Z</time>
      </trkpt>
      <trkpt lat="46.20356" lon="4.48615">
        <ele>949.2</ele>
        <time>2025-09-20T13:26:30Z</time>
      </trkpt>
      <trkpt lat="46.20354" lon="4.48613">
        <ele>949.4</ele>
        <time>2025-09-20T13:26:31Z</time>
      </trkpt>
      <trkpt lat="46.20352" lon="4.48612">
        <ele>949.4</ele>
        <time>2025-09-20T13:26:32Z</time>
      </trkpt>
      <trkpt lat="46.20351" lon="4.48611">
        <ele>950</ele>
        <time>2025-09-20T13:26:33Z</time>
      </trkpt>
      <trkpt lat="46.20349" lon="4.48611">
        <ele>950</ele>
        <time>2025-09-20T13:26:34Z</time>
      </trkpt>
      <trkpt lat="46.20347" lon="4.4861">
        <ele>950.2</ele>
        <time>2025-09-20T13:26:35Z</time>
      </trkpt>
      <trkpt lat="46.20345" lon="4.48609">
        <ele>950.2</ele>
        <time>2025-09-20T13:26:36Z</time>
      </trkpt>
      <trkpt lat="46.20343" lon="4.48609">
        <ele>950.8</ele>
        <time>2025-09-20T13:26:37Z</time>
      </trkpt>
      <trkpt lat="46.20341" lon="4.48609">
        <ele>950.8</ele>
        <time>2025-09-20T13:26:38Z</time>
      </trkpt>
      <trkpt lat="46.20339" lon="4.48608">
        <ele>951.2</ele>
        <time>2025-09-20T13:26:39Z</time>
      </trkpt>
      <trkpt lat="46.20338" lon="4.48607">
        <ele>951.2</ele>
        <time>2025-09-20T13:26:40Z</time>
      </trkpt>
      <trkpt lat="46.20337" lon="4.48606">
        <ele>951.6</ele>
        <time>2025-09-20T13:26:41Z</time>
      </trkpt>
      <trkpt lat="46.20335" lon="4.48605">
        <ele>951.6</ele>
        <time>2025-09-20T13:26:42Z</time>
      </trkpt>
      <trkpt lat="46.20334" lon="4.48604">
        <ele>951.6</ele>
        <time>2025-09-20T13:26:43Z</time>
      </trkpt>
      <trkpt lat="46.20332" lon="4.48603">
        <ele>951.8</ele>
        <time>2025-09-20T13:26:44Z</time>
      </trkpt>
      <trkpt lat="46.20331" lon="4.48602">
        <ele>952</ele>
        <time>2025-09-20T13:26:45Z</time>
      </trkpt>
      <trkpt lat="46.2033" lon="4.48601">
        <ele>952</ele>
        <time>2025-09-20T13:26:46Z</time>
      </trkpt>
      <trkpt lat="46.20328" lon="4.48601">
        <ele>952</ele>
        <time>2025-09-20T13:26:47Z</time>
      </trkpt>
      <trkpt lat="46.20326" lon="4.486">
        <ele>952.4</ele>
        <time>2025-09-20T13:26:48Z</time>
      </trkpt>
      <trkpt lat="46.20324" lon="4.48599">
        <ele>952.4</ele>
        <time>2025-09-20T13:26:49Z</time>
      </trkpt>
      <trkpt lat="46.20322" lon="4.48599">
        <ele>952.8</ele>
        <time>2025-09-20T13:26:50Z</time>
      </trkpt>
      <trkpt lat="46.2032" lon="4.48599">
        <ele>952.8</ele>
        <time>2025-09-20T13:26:51Z</time>
      </trkpt>
      <trkpt lat="46.20318" lon="4.48598">
        <ele>953.2</ele>
        <time>2025-09-20T13:26:52Z</time>
      </trkpt>
      <trkpt lat="46.20316" lon="4.48597">
        <ele>953.2</ele>
        <time>2025-09-20T13:26:53Z</time>
      </trkpt>
      <trkpt lat="46.20314" lon="4.48596">
        <ele>953.2</ele>
        <time>2025-09-20T13:26:54Z</time>
      </trkpt>
      <trkpt lat="46.20312" lon="4.48595">
        <ele>953.4</ele>
        <time>2025-09-20T13:26:55Z</time>
      </trkpt>
      <trkpt lat="46.2031" lon="4.48594">
        <ele>953.4</ele>
        <time>2025-09-20T13:26:56Z</time>
      </trkpt>
      <trkpt lat="46.20308" lon="4.48594">
        <ele>953.8</ele>
        <time>2025-09-20T13:26:57Z</time>
      </trkpt>
      <trkpt lat="46.20305" lon="4.48593">
        <ele>953.8</ele>
        <time>2025-09-20T13:26:58Z</time>
      </trkpt>
      <trkpt lat="46.20304" lon="4.48592">
        <ele>953.8</ele>
        <time>2025-09-20T13:26:59Z</time>
      </trkpt>
      <trkpt lat="46.20302" lon="4.48591">
        <ele>954</ele>
        <time>2025-09-20T13:27:00Z</time>
      </trkpt>
      <trkpt lat="46.203" lon="4.4859">
        <ele>954</ele>
        <time>2025-09-20T13:27:01Z</time>
      </trkpt>
      <trkpt lat="46.20298" lon="4.48589">
        <ele>954</ele>
        <time>2025-09-20T13:27:02Z</time>
      </trkpt>
      <trkpt lat="46.20296" lon="4.48588">
        <ele>954.2</ele>
        <time>2025-09-20T13:27:03Z</time>
      </trkpt>
      <trkpt lat="46.20295" lon="4.48587">
        <ele>954.2</ele>
        <time>2025-09-20T13:27:04Z</time>
      </trkpt>
      <trkpt lat="46.20293" lon="4.48587">
        <ele>954.6</ele>
        <time>2025-09-20T13:27:05Z</time>
      </trkpt>
      <trkpt lat="46.2029" lon="4.48586">
        <ele>954.6</ele>
        <time>2025-09-20T13:27:06Z</time>
      </trkpt>
      <trkpt lat="46.20288" lon="4.48584">
        <ele>954.8</ele>
        <time>2025-09-20T13:27:07Z</time>
      </trkpt>
      <trkpt lat="46.20285" lon="4.48582">
        <ele>954.8</ele>
        <time>2025-09-20T13:27:08Z</time>
      </trkpt>
      <trkpt lat="46.20283" lon="4.48581">
        <ele>954.8</ele>
        <time>2025-09-20T13:27:09Z</time>
      </trkpt>
      <trkpt lat="46.20281" lon="4.48579">
        <ele>954.8</ele>
        <time>2025-09-20T13:27:10Z</time>
      </trkpt>
      <trkpt lat="46.20278" lon="4.48579">
        <ele>954.8</ele>
        <time>2025-09-20T13:27:11Z</time>
      </trkpt>
      <trkpt lat="46.20276" lon="4.48578">
        <ele>955</ele>
        <time>2025-09-20T13:27:12Z</time>
      </trkpt>
      <trkpt lat="46.20274" lon="4.48576">
        <ele>955</ele>
        <time>2025-09-20T13:27:13Z</time>
      </trkpt>
      <trkpt lat="46.20272" lon="4.48575">
        <ele>955</ele>
        <time>2025-09-20T13:27:14Z</time>
      </trkpt>
      <trkpt lat="46.2027" lon="4.48574">
        <ele>955</ele>
        <time>2025-09-20T13:27:15Z</time>
      </trkpt>
      <trkpt lat="46.20268" lon="4.48573">
        <ele>955.4</ele>
        <time>2025-09-20T13:27:16Z</time>
      </trkpt>
      <trkpt lat="46.20264" lon="4.48571">
        <ele>955.4</ele>
        <time>2025-09-20T13:27:17Z</time>
      </trkpt>
      <trkpt lat="46.20261" lon="4.48569">
        <ele>955.6</ele>
        <time>2025-09-20T13:27:18Z</time>
      </trkpt>
      <trkpt lat="46.20259" lon="4.48568">
        <ele>956</ele>
        <time>2025-09-20T13:27:19Z</time>
      </trkpt>
      <trkpt lat="46.20257" lon="4.48568">
        <ele>956</ele>
        <time>2025-09-20T13:27:20Z</time>
      </trkpt>
      <trkpt lat="46.20255" lon="4.48568">
        <ele>956.2</ele>
        <time>2025-09-20T13:27:21Z</time>
      </trkpt>
      <trkpt lat="46.20252" lon="4.48567">
        <ele>956.2</ele>
        <time>2025-09-20T13:27:22Z</time>
      </trkpt>
      <trkpt lat="46.20249" lon="4.48566">
        <ele>956.6</ele>
        <time>2025-09-20T13:27:23Z</time>
      </trkpt>
      <trkpt lat="46.20247" lon="4.48565">
        <ele>956.6</ele>
        <time>2025-09-20T13:27:24Z</time>
      </trkpt>
      <trkpt lat="46.20244" lon="4.48564">
        <ele>956.6</ele>
        <time>2025-09-20T13:27:25Z</time>
      </trkpt>
      <trkpt lat="46.20241" lon="4.48563">
        <ele>957</ele>
        <time>2025-09-20T13:27:26Z</time>
      </trkpt>
      <trkpt lat="46.20239" lon="4.48562">
        <ele>957</ele>
        <time>2025-09-20T13:27:27Z</time>
      </trkpt>
      <trkpt lat="46.20237" lon="4.48561">
        <ele>957.4</ele>
        <time>2025-09-20T13:27:28Z</time>
      </trkpt>
      <trkpt lat="46.20236" lon="4.4856">
        <ele>957.4</ele>
        <time>2025-09-20T13:27:29Z</time>
      </trkpt>
      <trkpt lat="46.20234" lon="4.48561">
        <ele>957.4</ele>
        <time>2025-09-20T13:27:30Z</time>
      </trkpt>
      <trkpt lat="46.20232" lon="4.48562">
        <ele>957.6</ele>
        <time>2025-09-20T13:27:31Z</time>
      </trkpt>
      <trkpt lat="46.2023" lon="4.48563">
        <ele>957.8</ele>
        <time>2025-09-20T13:27:32Z</time>
      </trkpt>
      <trkpt lat="46.20227" lon="4.48563">
        <ele>957.8</ele>
        <time>2025-09-20T13:27:33Z</time>
      </trkpt>
      <trkpt lat="46.20224" lon="4.48563">
        <ele>958.2</ele>
        <time>2025-09-20T13:27:34Z</time>
      </trkpt>
      <trkpt lat="46.20221" lon="4.48562">
        <ele>958.4</ele>
        <time>2025-09-20T13:27:35Z</time>
      </trkpt>
      <trkpt lat="46.20218" lon="4.48561">
        <ele>958.8</ele>
        <time>2025-09-20T13:27:36Z</time>
      </trkpt>
      <trkpt lat="46.20216" lon="4.48561">
        <ele>958.8</ele>
        <time>2025-09-20T13:27:37Z</time>
      </trkpt>
      <trkpt lat="46.20212" lon="4.48561">
        <ele>959</ele>
        <time>2025-09-20T13:27:38Z</time>
      </trkpt>
      <trkpt lat="46.2021" lon="4.4856">
        <ele>959.2</ele>
        <time>2025-09-20T13:27:39Z</time>
      </trkpt>
      <trkpt lat="46.20209" lon="4.4856">
        <ele>959.2</ele>
        <time>2025-09-20T13:27:40Z</time>
      </trkpt>
      <trkpt lat="46.20207" lon="4.48561">
        <ele>959.6</ele>
        <time>2025-09-20T13:27:41Z</time>
      </trkpt>
      <trkpt lat="46.20205" lon="4.48562">
        <ele>959.6</ele>
        <time>2025-09-20T13:27:42Z</time>
      </trkpt>
      <trkpt lat="46.20203" lon="4.48562">
        <ele>959.6</ele>
        <time>2025-09-20T13:27:43Z</time>
      </trkpt>
      <trkpt lat="46.20201" lon="4.48562">
        <ele>960</ele>
        <time>2025-09-20T13:27:44Z</time>
      </trkpt>
      <trkpt lat="46.20199" lon="4.48563">
        <ele>960</ele>
        <time>2025-09-20T13:27:45Z</time>
      </trkpt>
      <trkpt lat="46.20197" lon="4.48563">
        <ele>960</ele>
        <time>2025-09-20T13:27:46Z</time>
      </trkpt>
      <trkpt lat="46.20194" lon="4.48564">
        <ele>960</ele>
        <time>2025-09-20T13:27:47Z</time>
      </trkpt>
      <trkpt lat="46.20192" lon="4.48564">
        <ele>960.2</ele>
        <time>2025-09-20T13:27:48Z</time>
      </trkpt>
      <trkpt lat="46.20189" lon="4.48564">
        <ele>960.4</ele>
        <time>2025-09-20T13:27:49Z</time>
      </trkpt>
      <trkpt lat="46.20186" lon="4.48564">
        <ele>960.4</ele>
        <time>2025-09-20T13:27:50Z</time>
      </trkpt>
      <trkpt lat="46.20183" lon="4.48564">
        <ele>960.6</ele>
        <time>2025-09-20T13:27:51Z</time>
      </trkpt>
      <trkpt lat="46.20181" lon="4.48565">
        <ele>960.6</ele>
        <time>2025-09-20T13:27:52Z</time>
      </trkpt>
      <trkpt lat="46.20178" lon="4.48567">
        <ele>960.6</ele>
        <time>2025-09-20T13:27:53Z</time>
      </trkpt>
      <trkpt lat="46.20176" lon="4.48568">
        <ele>960.6</ele>
        <time>2025-09-20T13:27:54Z</time>
      </trkpt>
      <trkpt lat="46.20173" lon="4.48568">
        <ele>961</ele>
        <time>2025-09-20T13:27:55Z</time>
      </trkpt>
      <trkpt lat="46.2017" lon="4.48569">
        <ele>961</ele>
        <time>2025-09-20T13:27:56Z</time>
      </trkpt>
      <trkpt lat="46.20166" lon="4.48569">
        <ele>961</ele>
        <time>2025-09-20T13:27:57Z</time>
      </trkpt>
      <trkpt lat="46.20164" lon="4.48571">
        <ele>961</ele>
        <time>2025-09-20T13:27:58Z</time>
      </trkpt>
      <trkpt lat="46.20161" lon="4.48573">
        <ele>961</ele>
        <time>2025-09-20T13:27:59Z</time>
      </trkpt>
      <trkpt lat="46.20156" lon="4.48576">
        <ele>960.4</ele>
        <time>2025-09-20T13:28:00Z</time>
      </trkpt>
      <trkpt lat="46.20153" lon="4.48577">
        <ele>960.4</ele>
        <time>2025-09-20T13:28:01Z</time>
      </trkpt>
      <trkpt lat="46.20147" lon="4.4858">
        <ele>960.4</ele>
        <time>2025-09-20T13:28:02Z</time>
      </trkpt>
      <trkpt lat="46.20143" lon="4.48582">
        <ele>960.4</ele>
        <time>2025-09-20T13:28:03Z</time>
      </trkpt>
      <trkpt lat="46.20138" lon="4.48586">
        <ele>959.8</ele>
        <time>2025-09-20T13:28:04Z</time>
      </trkpt>
      <trkpt lat="46.20133" lon="4.48591">
        <ele>959.6</ele>
        <time>2025-09-20T13:28:05Z</time>
      </trkpt>
      <trkpt lat="46.20128" lon="4.48596">
        <ele>958.8</ele>
        <time>2025-09-20T13:28:06Z</time>
      </trkpt>
      <trkpt lat="46.20122" lon="4.48599">
        <ele>958.2</ele>
        <time>2025-09-20T13:28:07Z</time>
      </trkpt>
      <trkpt lat="46.20116" lon="4.48605">
        <ele>957.6</ele>
        <time>2025-09-20T13:28:08Z</time>
      </trkpt>
      <trkpt lat="46.2011" lon="4.48611">
        <ele>957</ele>
        <time>2025-09-20T13:28:09Z</time>
      </trkpt>
      <trkpt lat="46.20104" lon="4.48616">
        <ele>956.8</ele>
        <time>2025-09-20T13:28:10Z</time>
      </trkpt>
      <trkpt lat="46.20097" lon="4.4862">
        <ele>956.2</ele>
        <time>2025-09-20T13:28:11Z</time>
      </trkpt>
      <trkpt lat="46.20089" lon="4.48621">
        <ele>955.6</ele>
        <time>2025-09-20T13:28:12Z</time>
      </trkpt>
      <trkpt lat="46.20082" lon="4.48621">
        <ele>954.8</ele>
        <time>2025-09-20T13:28:13Z</time>
      </trkpt>
      <trkpt lat="46.20075" lon="4.48618">
        <ele>954.2</ele>
        <time>2025-09-20T13:28:14Z</time>
      </trkpt>
      <trkpt lat="46.20069" lon="4.48616">
        <ele>954</ele>
        <time>2025-09-20T13:28:15Z</time>
      </trkpt>
      <trkpt lat="46.20069" lon="4.48616">
        <ele>952.6</ele>
        <time>2025-09-20T13:28:16Z</time>
      </trkpt>
      <trkpt lat="46.20069" lon="4.48616">
        <ele>952.6</ele>
        <time>2025-09-20T13:28:17Z</time>
      </trkpt>
      <trkpt lat="46.20046" lon="4.48596">
        <ele>953.2</ele>
        <time>2025-09-20T13:28:20Z</time>
      </trkpt>
      <trkpt lat="46.2004" lon="4.48591">
        <ele>953.6</ele>
        <time>2025-09-20T13:28:21Z</time>
      </trkpt>
      <trkpt lat="46.20037" lon="4.48585">
        <ele>954</ele>
        <time>2025-09-20T13:28:22Z</time>
      </trkpt>
      <trkpt lat="46.2003" lon="4.48579">
        <ele>954.4</ele>
        <time>2025-09-20T13:28:23Z</time>
      </trkpt>
      <trkpt lat="46.20027" lon="4.48573">
        <ele>954.4</ele>
        <time>2025-09-20T13:28:24Z</time>
      </trkpt>
      <trkpt lat="46.20025" lon="4.48569">
        <ele>954.2</ele>
        <time>2025-09-20T13:28:25Z</time>
      </trkpt>
      <trkpt lat="46.20022" lon="4.48562">
        <ele>954.6</ele>
        <time>2025-09-20T13:28:26Z</time>
      </trkpt>
      <trkpt lat="46.20017" lon="4.48556">
        <ele>955</ele>
        <time>2025-09-20T13:28:27Z</time>
      </trkpt>
      <trkpt lat="46.20007" lon="4.48544">
        <ele>954.2</ele>
        <time>2025-09-20T13:28:28Z</time>
      </trkpt>
      <trkpt lat="46.20005" lon="4.4854">
        <ele>954.2</ele>
        <time>2025-09-20T13:28:29Z</time>
      </trkpt>
      <trkpt lat="46.20002" lon="4.48534">
        <ele>953.8</ele>
        <time>2025-09-20T13:28:30Z</time>
      </trkpt>
      <trkpt lat="46.19996" lon="4.48527">
        <ele>953.8</ele>
        <time>2025-09-20T13:28:31Z</time>
      </trkpt>
      <trkpt lat="46.19997" lon="4.48518">
        <ele>953.4</ele>
        <time>2025-09-20T13:28:32Z</time>
      </trkpt>
      <trkpt lat="46.19993" lon="4.48512">
        <ele>952.8</ele>
        <time>2025-09-20T13:28:33Z</time>
      </trkpt>
      <trkpt lat="46.19991" lon="4.48503">
        <ele>952</ele>
        <time>2025-09-20T13:28:34Z</time>
      </trkpt>
      <trkpt lat="46.19988" lon="4.48495">
        <ele>952</ele>
        <time>2025-09-20T13:28:35Z</time>
      </trkpt>
      <trkpt lat="46.19988" lon="4.48486">
        <ele>951.6</ele>
        <time>2025-09-20T13:28:36Z</time>
      </trkpt>
      <trkpt lat="46.19984" lon="4.48479">
        <ele>951</ele>
        <time>2025-09-20T13:28:37Z</time>
      </trkpt>
      <trkpt lat="46.19984" lon="4.4847">
        <ele>950</ele>
        <time>2025-09-20T13:28:38Z</time>
      </trkpt>
      <trkpt lat="46.19977" lon="4.48455">
        <ele>948.8</ele>
        <time>2025-09-20T13:28:39Z</time>
      </trkpt>
      <trkpt lat="46.19976" lon="4.4844">
        <ele>947.6</ele>
        <time>2025-09-20T13:28:40Z</time>
      </trkpt>
      <trkpt lat="46.19972" lon="4.48425">
        <ele>946.4</ele>
        <time>2025-09-20T13:28:41Z</time>
      </trkpt>
      <trkpt lat="46.19966" lon="4.48407">
        <ele>945.6</ele>
        <time>2025-09-20T13:28:42Z</time>
      </trkpt>
      <trkpt lat="46.19958" lon="4.48391">
        <ele>944.4</ele>
        <time>2025-09-20T13:28:43Z</time>
      </trkpt>
      <trkpt lat="46.19952" lon="4.48377">
        <ele>943.6</ele>
        <time>2025-09-20T13:28:44Z</time>
      </trkpt>
      <trkpt lat="46.19945" lon="4.48361">
        <ele>943.6</ele>
        <time>2025-09-20T13:28:45Z</time>
      </trkpt>
      <trkpt lat="46.19937" lon="4.48345">
        <ele>942.2</ele>
        <time>2025-09-20T13:28:46Z</time>
      </trkpt>
      <trkpt lat="46.1993" lon="4.48332">
        <ele>941.4</ele>
        <time>2025-09-20T13:28:47Z</time>
      </trkpt>
      <trkpt lat="46.19924" lon="4.4832">
        <ele>940.4</ele>
        <time>2025-09-20T13:28:48Z</time>
      </trkpt>
      <trkpt lat="46.19918" lon="4.48306">
        <ele>939.6</ele>
        <time>2025-09-20T13:28:49Z</time>
      </trkpt>
      <trkpt lat="46.19912" lon="4.48294">
        <ele>938.6</ele>
        <time>2025-09-20T13:28:50Z</time>
      </trkpt>
      <trkpt lat="46.19906" lon="4.48283">
        <ele>937.4</ele>
        <time>2025-09-20T13:28:51Z</time>
      </trkpt>
      <trkpt lat="46.19906" lon="4.4828">
        <ele>936.2</ele>
        <time>2025-09-20T13:28:52Z</time>
      </trkpt>
      <trkpt lat="46.19902" lon="4.48272">
        <ele>935.2</ele>
        <time>2025-09-20T13:28:53Z</time>
      </trkpt>
      <trkpt lat="46.19896" lon="4.48264">
        <ele>934</ele>
        <time>2025-09-20T13:28:54Z</time>
      </trkpt>
      <trkpt lat="46.19887" lon="4.48256">
        <ele>933</ele>
        <time>2025-09-20T13:28:55Z</time>
      </trkpt>
      <trkpt lat="46.1988" lon="4.48248">
        <ele>931.8</ele>
        <time>2025-09-20T13:28:56Z</time>
      </trkpt>
      <trkpt lat="46.1988" lon="4.48248">
        <ele>931</ele>
        <time>2025-09-20T13:28:57Z</time>
      </trkpt>
      <trkpt lat="46.1988" lon="4.48248">
        <ele>929.8</ele>
        <time>2025-09-20T13:28:58Z</time>
      </trkpt>
      <trkpt lat="46.19865" lon="4.48238">
        <ele>928.8</ele>
        <time>2025-09-20T13:28:59Z</time>
      </trkpt>
      <trkpt lat="46.19856" lon="4.48231">
        <ele>927.6</ele>
        <time>2025-09-20T13:29:00Z</time>
      </trkpt>
      <trkpt lat="46.1985" lon="4.48226">
        <ele>926.2</ele>
        <time>2025-09-20T13:29:01Z</time>
      </trkpt>
      <trkpt lat="46.19843" lon="4.48221">
        <ele>925.4</ele>
        <time>2025-09-20T13:29:02Z</time>
      </trkpt>
      <trkpt lat="46.19836" lon="4.48215">
        <ele>924</ele>
        <time>2025-09-20T13:29:03Z</time>
      </trkpt>
      <trkpt lat="46.19828" lon="4.48211">
        <ele>922.4</ele>
        <time>2025-09-20T13:29:04Z</time>
      </trkpt>
      <trkpt lat="46.19822" lon="4.48207">
        <ele>921.2</ele>
        <time>2025-09-20T13:29:05Z</time>
      </trkpt>
      <trkpt lat="46.19816" lon="4.48203">
        <ele>920.2</ele>
        <time>2025-09-20T13:29:06Z</time>
      </trkpt>
      <trkpt lat="46.19809" lon="4.48198">
        <ele>919</ele>
        <time>2025-09-20T13:29:07Z</time>
      </trkpt>
      <trkpt lat="46.19804" lon="4.48194">
        <ele>917.2</ele>
        <time>2025-09-20T13:29:08Z</time>
      </trkpt>
      <trkpt lat="46.19799" lon="4.4819">
        <ele>916.8</ele>
        <time>2025-09-20T13:29:09Z</time>
      </trkpt>
      <trkpt lat="46.19794" lon="4.48185">
        <ele>916.4</ele>
        <time>2025-09-20T13:29:10Z</time>
      </trkpt>
      <trkpt lat="46.1979" lon="4.4818">
        <ele>915.6</ele>
        <time>2025-09-20T13:29:11Z</time>
      </trkpt>
      <trkpt lat="46.19787" lon="4.48174">
        <ele>915</ele>
        <time>2025-09-20T13:29:12Z</time>
      </trkpt>
      <trkpt lat="46.19783" lon="4.48166">
        <ele>914.4</ele>
        <time>2025-09-20T13:29:13Z</time>
      </trkpt>
      <trkpt lat="46.19779" lon="4.4816">
        <ele>913.8</ele>
        <time>2025-09-20T13:29:14Z</time>
      </trkpt>
      <trkpt lat="46.19776" lon="4.48154">
        <ele>913.6</ele>
        <time>2025-09-20T13:29:15Z</time>
      </trkpt>
      <trkpt lat="46.19773" lon="4.48148">
        <ele>913.2</ele>
        <time>2025-09-20T13:29:16Z</time>
      </trkpt>
      <trkpt lat="46.19771" lon="4.48144">
        <ele>912.8</ele>
        <time>2025-09-20T13:29:17Z</time>
      </trkpt>
      <trkpt lat="46.19771" lon="4.48143">
        <ele>912.6</ele>
        <time>2025-09-20T13:29:18Z</time>
      </trkpt>
      <trkpt lat="46.1977" lon="4.48141">
        <ele>912</ele>
        <time>2025-09-20T13:29:19Z</time>
      </trkpt>
      <trkpt lat="46.1977" lon="4.4814">
        <ele>911.6</ele>
        <time>2025-09-20T13:29:20Z</time>
      </trkpt>
      <trkpt lat="46.19769" lon="4.48139">
        <ele>911.2</ele>
        <time>2025-09-20T13:29:21Z</time>
      </trkpt>
      <trkpt lat="46.19768" lon="4.48138">
        <ele>911</ele>
        <time>2025-09-20T13:29:22Z</time>
      </trkpt>
      <trkpt lat="46.19768" lon="4.48138">
        <ele>911</ele>
        <time>2025-09-20T13:29:23Z</time>
      </trkpt>
      <trkpt lat="46.19768" lon="4.48138">
        <ele>910.8</ele>
        <time>2025-09-20T13:29:24Z</time>
      </trkpt>
      <trkpt lat="46.19768" lon="4.48138">
        <ele>910.8</ele>
        <time>2025-09-20T13:29:25Z</time>
      </trkpt>
      <trkpt lat="46.19765" lon="4.48136">
        <ele>910.4</ele>
        <time>2025-09-20T13:30:32Z</time>
      </trkpt>
      <trkpt lat="46.19764" lon="4.48133">
        <ele>910.4</ele>
        <time>2025-09-20T13:30:33Z</time>
      </trkpt>
      <trkpt lat="46.19762" lon="4.4813">
        <ele>910.4</ele>
        <time>2025-09-20T13:30:34Z</time>
      </trkpt>
      <trkpt lat="46.19761" lon="4.48127">
        <ele>910.4</ele>
        <time>2025-09-20T13:30:35Z</time>
      </trkpt>
      <trkpt lat="46.19761" lon="4.48126">
        <ele>910.4</ele>
        <time>2025-09-20T13:30:36Z</time>
      </trkpt>
      <trkpt lat="46.19759" lon="4.48126">
        <ele>910.4</ele>
        <time>2025-09-20T13:30:37Z</time>
      </trkpt>
      <trkpt lat="46.19756" lon="4.48127">
        <ele>910</ele>
        <time>2025-09-20T13:30:38Z</time>
      </trkpt>
      <trkpt lat="46.19753" lon="4.48129">
        <ele>909.8</ele>
        <time>2025-09-20T13:30:39Z</time>
      </trkpt>
      <trkpt lat="46.1975" lon="4.48138">
        <ele>909.6</ele>
        <time>2025-09-20T13:30:40Z</time>
      </trkpt>
      <trkpt lat="46.19746" lon="4.48141">
        <ele>909</ele>
        <time>2025-09-20T13:30:41Z</time>
      </trkpt>
      <trkpt lat="46.19743" lon="4.48145">
        <ele>908.8</ele>
        <time>2025-09-20T13:30:42Z</time>
      </trkpt>
      <trkpt lat="46.19738" lon="4.48148">
        <ele>908.8</ele>
        <time>2025-09-20T13:30:43Z</time>
      </trkpt>
      <trkpt lat="46.19731" lon="4.48154">
        <ele>908</ele>
        <time>2025-09-20T13:30:44Z</time>
      </trkpt>
      <trkpt lat="46.19725" lon="4.48157">
        <ele>907.2</ele>
        <time>2025-09-20T13:30:45Z</time>
      </trkpt>
      <trkpt lat="46.19718" lon="4.48161">
        <ele>906.6</ele>
        <time>2025-09-20T13:30:46Z</time>
      </trkpt>
      <trkpt lat="46.19713" lon="4.48163">
        <ele>905.8</ele>
        <time>2025-09-20T13:30:47Z</time>
      </trkpt>
      <trkpt lat="46.19709" lon="4.48168">
        <ele>905.2</ele>
        <time>2025-09-20T13:30:48Z</time>
      </trkpt>
      <trkpt lat="46.19701" lon="4.48172">
        <ele>904.4</ele>
        <time>2025-09-20T13:30:49Z</time>
      </trkpt>
      <trkpt lat="46.19693" lon="4.48177">
        <ele>903.8</ele>
        <time>2025-09-20T13:30:50Z</time>
      </trkpt>
      <trkpt lat="46.19684" lon="4.48184">
        <ele>903.2</ele>
        <time>2025-09-20T13:30:51Z</time>
      </trkpt>
      <trkpt lat="46.19676" lon="4.48191">
        <ele>902.6</ele>
        <time>2025-09-20T13:30:52Z</time>
      </trkpt>
      <trkpt lat="46.19669" lon="4.48199">
        <ele>901.8</ele>
        <time>2025-09-20T13:30:53Z</time>
      </trkpt>
      <trkpt lat="46.19661" lon="4.48206">
        <ele>900.8</ele>
        <time>2025-09-20T13:30:54Z</time>
      </trkpt>
      <trkpt lat="46.19652" lon="4.48212">
        <ele>900.2</ele>
        <time>2025-09-20T13:30:55Z</time>
      </trkpt>
      <trkpt lat="46.19644" lon="4.48218">
        <ele>899.6</ele>
        <time>2025-09-20T13:30:56Z</time>
      </trkpt>
      <trkpt lat="46.19634" lon="4.48224">
        <ele>898.8</ele>
        <time>2025-09-20T13:30:57Z</time>
      </trkpt>
      <trkpt lat="46.19626" lon="4.48228">
        <ele>898.2</ele>
        <time>2025-09-20T13:30:58Z</time>
      </trkpt>
      <trkpt lat="46.19617" lon="4.48233">
        <ele>897.8</ele>
        <time>2025-09-20T13:30:59Z</time>
      </trkpt>
      <trkpt lat="46.19609" lon="4.48235">
        <ele>897.6</ele>
        <time>2025-09-20T13:31:00Z</time>
      </trkpt>
      <trkpt lat="46.196" lon="4.48237">
        <ele>897.2</ele>
        <time>2025-09-20T13:31:01Z</time>
      </trkpt>
      <trkpt lat="46.19591" lon="4.4824">
        <ele>897.2</ele>
        <time>2025-09-20T13:31:02Z</time>
      </trkpt>
      <trkpt lat="46.19581" lon="4.48241">
        <ele>896.6</ele>
        <time>2025-09-20T13:31:03Z</time>
      </trkpt>
      <trkpt lat="46.19573" lon="4.48242">
        <ele>896.2</ele>
        <time>2025-09-20T13:31:04Z</time>
      </trkpt>
      <trkpt lat="46.19565" lon="4.48243">
        <ele>895.8</ele>
        <time>2025-09-20T13:31:05Z</time>
      </trkpt>
      <trkpt lat="46.19558" lon="4.48243">
        <ele>895.4</ele>
        <time>2025-09-20T13:31:06Z</time>
      </trkpt>
      <trkpt lat="46.19551" lon="4.48243">
        <ele>895.4</ele>
        <time>2025-09-20T13:31:07Z</time>
      </trkpt>
      <trkpt lat="46.19543" lon="4.48242">
        <ele>895</ele>
        <time>2025-09-20T13:31:08Z</time>
      </trkpt>
      <trkpt lat="46.19536" lon="4.48244">
        <ele>894.4</ele>
        <time>2025-09-20T13:31:09Z</time>
      </trkpt>
      <trkpt lat="46.19529" lon="4.48244">
        <ele>893.8</ele>
        <time>2025-09-20T13:31:10Z</time>
      </trkpt>
      <trkpt lat="46.19521" lon="4.48245">
        <ele>893.2</ele>
        <time>2025-09-20T13:31:11Z</time>
      </trkpt>
      <trkpt lat="46.19514" lon="4.48246">
        <ele>892.8</ele>
        <time>2025-09-20T13:31:12Z</time>
      </trkpt>
      <trkpt lat="46.19506" lon="4.48247">
        <ele>892.6</ele>
        <time>2025-09-20T13:31:13Z</time>
      </trkpt>
      <trkpt lat="46.19499" lon="4.48249">
        <ele>892.4</ele>
        <time>2025-09-20T13:31:14Z</time>
      </trkpt>
      <trkpt lat="46.19492" lon="4.48249">
        <ele>892.4</ele>
        <time>2025-09-20T13:31:15Z</time>
      </trkpt>
      <trkpt lat="46.19487" lon="4.4825">
        <ele>892</ele>
        <time>2025-09-20T13:31:16Z</time>
      </trkpt>
      <trkpt lat="46.19484" lon="4.48252">
        <ele>892</ele>
        <time>2025-09-20T13:31:17Z</time>
      </trkpt>
      <trkpt lat="46.19481" lon="4.48254">
        <ele>891.8</ele>
        <time>2025-09-20T13:31:18Z</time>
      </trkpt>
      <trkpt lat="46.19479" lon="4.48259">
        <ele>891.8</ele>
        <time>2025-09-20T13:31:19Z</time>
      </trkpt>
      <trkpt lat="46.19478" lon="4.48262">
        <ele>892</ele>
        <time>2025-09-20T13:31:20Z</time>
      </trkpt>
      <trkpt lat="46.19479" lon="4.48267">
        <ele>892.2</ele>
        <time>2025-09-20T13:31:21Z</time>
      </trkpt>
      <trkpt lat="46.1948" lon="4.4827">
        <ele>892.4</ele>
        <time>2025-09-20T13:31:22Z</time>
      </trkpt>
      <trkpt lat="46.19482" lon="4.48272">
        <ele>892.4</ele>
        <time>2025-09-20T13:31:23Z</time>
      </trkpt>
      <trkpt lat="46.19483" lon="4.48274">
        <ele>892.8</ele>
        <time>2025-09-20T13:31:24Z</time>
      </trkpt>
      <trkpt lat="46.19485" lon="4.48276">
        <ele>892.8</ele>
        <time>2025-09-20T13:31:25Z</time>
      </trkpt>
      <trkpt lat="46.19486" lon="4.48278">
        <ele>893.4</ele>
        <time>2025-09-20T13:31:26Z</time>
      </trkpt>
      <trkpt lat="46.19488" lon="4.4828">
        <ele>893.6</ele>
        <time>2025-09-20T13:31:27Z</time>
      </trkpt>
      <trkpt lat="46.1949" lon="4.48281">
        <ele>893.8</ele>
        <time>2025-09-20T13:31:28Z</time>
      </trkpt>
      <trkpt lat="46.19492" lon="4.48283">
        <ele>894.2</ele>
        <time>2025-09-20T13:31:29Z</time>
      </trkpt>
      <trkpt lat="46.19493" lon="4.48285">
        <ele>894.2</ele>
        <time>2025-09-20T13:31:30Z</time>
      </trkpt>
      <trkpt lat="46.19494" lon="4.48287">
        <ele>894.8</ele>
        <time>2025-09-20T13:31:31Z</time>
      </trkpt>
      <trkpt lat="46.19496" lon="4.48289">
        <ele>895.2</ele>
        <time>2025-09-20T13:31:32Z</time>
      </trkpt>
      <trkpt lat="46.19497" lon="4.4829">
        <ele>895.4</ele>
        <time>2025-09-20T13:31:33Z</time>
      </trkpt>
      <trkpt lat="46.19498" lon="4.48292">
        <ele>895.4</ele>
        <time>2025-09-20T13:31:34Z</time>
      </trkpt>
      <trkpt lat="46.19499" lon="4.48293">
        <ele>895.8</ele>
        <time>2025-09-20T13:31:35Z</time>
      </trkpt>
      <trkpt lat="46.19499" lon="4.48295">
        <ele>895.8</ele>
        <time>2025-09-20T13:31:36Z</time>
      </trkpt>
      <trkpt lat="46.195" lon="4.48297">
        <ele>896</ele>
        <time>2025-09-20T13:31:37Z</time>
      </trkpt>
      <trkpt lat="46.19501" lon="4.48299">
        <ele>896</ele>
        <time>2025-09-20T13:31:38Z</time>
      </trkpt>
      <trkpt lat="46.19502" lon="4.48301">
        <ele>896.2</ele>
        <time>2025-09-20T13:31:39Z</time>
      </trkpt>
      <trkpt lat="46.19503" lon="4.48303">
        <ele>896.2</ele>
        <time>2025-09-20T13:31:40Z</time>
      </trkpt>
      <trkpt lat="46.19504" lon="4.48305">
        <ele>895.8</ele>
        <time>2025-09-20T13:31:41Z</time>
      </trkpt>
      <trkpt lat="46.19506" lon="4.48308">
        <ele>896.8</ele>
        <time>2025-09-20T13:31:42Z</time>
      </trkpt>
      <trkpt lat="46.19507" lon="4.4831">
        <ele>897.2</ele>
        <time>2025-09-20T13:31:43Z</time>
      </trkpt>
      <trkpt lat="46.19509" lon="4.48313">
        <ele>897.2</ele>
        <time>2025-09-20T13:31:44Z</time>
      </trkpt>
      <trkpt lat="46.1951" lon="4.48315">
        <ele>897.4</ele>
        <time>2025-09-20T13:31:45Z</time>
      </trkpt>
      <trkpt lat="46.19511" lon="4.48317">
        <ele>897.6</ele>
        <time>2025-09-20T13:31:46Z</time>
      </trkpt>
      <trkpt lat="46.19512" lon="4.48319">
        <ele>897.6</ele>
        <time>2025-09-20T13:31:47Z</time>
      </trkpt>
      <trkpt lat="46.19513" lon="4.4832">
        <ele>898</ele>
        <time>2025-09-20T13:31:48Z</time>
      </trkpt>
      <trkpt lat="46.19513" lon="4.48322">
        <ele>898</ele>
        <time>2025-09-20T13:31:49Z</time>
      </trkpt>
      <trkpt lat="46.19515" lon="4.48326">
        <ele>898</ele>
        <time>2025-09-20T13:31:50Z</time>
      </trkpt>
      <trkpt lat="46.19516" lon="4.48329">
        <ele>898</ele>
        <time>2025-09-20T13:31:51Z</time>
      </trkpt>
      <trkpt lat="46.19517" lon="4.48332">
        <ele>898.2</ele>
        <time>2025-09-20T13:31:52Z</time>
      </trkpt>
      <trkpt lat="46.19518" lon="4.48334">
        <ele>898.2</ele>
        <time>2025-09-20T13:31:53Z</time>
      </trkpt>
      <trkpt lat="46.19518" lon="4.48336">
        <ele>898.8</ele>
        <time>2025-09-20T13:31:54Z</time>
      </trkpt>
      <trkpt lat="46.19519" lon="4.48339">
        <ele>898.8</ele>
        <time>2025-09-20T13:31:55Z</time>
      </trkpt>
      <trkpt lat="46.19519" lon="4.48341">
        <ele>899</ele>
        <time>2025-09-20T13:31:56Z</time>
      </trkpt>
      <trkpt lat="46.1952" lon="4.48344">
        <ele>899</ele>
        <time>2025-09-20T13:31:57Z</time>
      </trkpt>
      <trkpt lat="46.19521" lon="4.48346">
        <ele>899</ele>
        <time>2025-09-20T13:31:58Z</time>
      </trkpt>
      <trkpt lat="46.19522" lon="4.48349">
        <ele>899</ele>
        <time>2025-09-20T13:31:59Z</time>
      </trkpt>
      <trkpt lat="46.19522" lon="4.48351">
        <ele>899</ele>
        <time>2025-09-20T13:32:00Z</time>
      </trkpt>
      <trkpt lat="46.19523" lon="4.48354">
        <ele>899</ele>
        <time>2025-09-20T13:32:01Z</time>
      </trkpt>
      <trkpt lat="46.19524" lon="4.48358">
        <ele>899</ele>
        <time>2025-09-20T13:32:02Z</time>
      </trkpt>
      <trkpt lat="46.19525" lon="4.4836">
        <ele>899.2</ele>
        <time>2025-09-20T13:32:03Z</time>
      </trkpt>
      <trkpt lat="46.19526" lon="4.48363">
        <ele>899.2</ele>
        <time>2025-09-20T13:32:04Z</time>
      </trkpt>
      <trkpt lat="46.19526" lon="4.48365">
        <ele>899.2</ele>
        <time>2025-09-20T13:32:05Z</time>
      </trkpt>
      <trkpt lat="46.19527" lon="4.48368">
        <ele>899.6</ele>
        <time>2025-09-20T13:32:06Z</time>
      </trkpt>
      <trkpt lat="46.19527" lon="4.48371">
        <ele>899.6</ele>
        <time>2025-09-20T13:32:07Z</time>
      </trkpt>
      <trkpt lat="46.19528" lon="4.48374">
        <ele>899.6</ele>
        <time>2025-09-20T13:32:08Z</time>
      </trkpt>
      <trkpt lat="46.19528" lon="4.48376">
        <ele>899.8</ele>
        <time>2025-09-20T13:32:09Z</time>
      </trkpt>
      <trkpt lat="46.19528" lon="4.48379">
        <ele>899.8</ele>
        <time>2025-09-20T13:32:10Z</time>
      </trkpt>
      <trkpt lat="46.19528" lon="4.48382">
        <ele>899.8</ele>
        <time>2025-09-20T13:32:11Z</time>
      </trkpt>
      <trkpt lat="46.19528" lon="4.48382">
        <ele>900</ele>
        <time>2025-09-20T13:32:12Z</time>
      </trkpt>
      <trkpt lat="46.19529" lon="4.48382">
        <ele>900</ele>
        <time>2025-09-20T13:32:13Z</time>
      </trkpt>
      <trkpt lat="46.19534" lon="4.48384">
        <ele>900.6</ele>
        <time>2025-09-20T13:32:32Z</time>
      </trkpt>
      <trkpt lat="46.19535" lon="4.48388">
        <ele>900.6</ele>
        <time>2025-09-20T13:32:33Z</time>
      </trkpt>
      <trkpt lat="46.19534" lon="4.48392">
        <ele>900.6</ele>
        <time>2025-09-20T13:32:34Z</time>
      </trkpt>
      <trkpt lat="46.19534" lon="4.48396">
        <ele>900.6</ele>
        <time>2025-09-20T13:32:35Z</time>
      </trkpt>
      <trkpt lat="46.19533" lon="4.484">
        <ele>900.4</ele>
        <time>2025-09-20T13:32:36Z</time>
      </trkpt>
      <trkpt lat="46.19533" lon="4.48405">
        <ele>900.4</ele>
        <time>2025-09-20T13:32:37Z</time>
      </trkpt>
      <trkpt lat="46.19533" lon="4.48408">
        <ele>900.4</ele>
        <time>2025-09-20T13:32:38Z</time>
      </trkpt>
      <trkpt lat="46.19532" lon="4.48413">
        <ele>900.4</ele>
        <time>2025-09-20T13:32:39Z</time>
      </trkpt>
      <trkpt lat="46.19531" lon="4.48418">
        <ele>900</ele>
        <time>2025-09-20T13:32:40Z</time>
      </trkpt>
      <trkpt lat="46.19531" lon="4.48422">
        <ele>900</ele>
        <time>2025-09-20T13:32:41Z</time>
      </trkpt>
      <trkpt lat="46.1953" lon="4.48428">
        <ele>900</ele>
        <time>2025-09-20T13:32:42Z</time>
      </trkpt>
      <trkpt lat="46.19529" lon="4.48434">
        <ele>899.6</ele>
        <time>2025-09-20T13:32:43Z</time>
      </trkpt>
      <trkpt lat="46.19527" lon="4.48445">
        <ele>899.2</ele>
        <time>2025-09-20T13:32:44Z</time>
      </trkpt>
      <trkpt lat="46.19525" lon="4.48453">
        <ele>898.8</ele>
        <time>2025-09-20T13:32:45Z</time>
      </trkpt>
      <trkpt lat="46.19527" lon="4.48461">
        <ele>898.6</ele>
        <time>2025-09-20T13:32:46Z</time>
      </trkpt>
      <trkpt lat="46.19531" lon="4.48473">
        <ele>898.2</ele>
        <time>2025-09-20T13:32:47Z</time>
      </trkpt>
      <trkpt lat="46.19532" lon="4.48483">
        <ele>897.2</ele>
        <time>2025-09-20T13:32:48Z</time>
      </trkpt>
      <trkpt lat="46.19533" lon="4.48494">
        <ele>896.8</ele>
        <time>2025-09-20T13:32:49Z</time>
      </trkpt>
      <trkpt lat="46.19534" lon="4.4851">
        <ele>895.8</ele>
        <time>2025-09-20T13:32:50Z</time>
      </trkpt>
      <trkpt lat="46.19535" lon="4.48522">
        <ele>894.6</ele>
        <time>2025-09-20T13:32:51Z</time>
      </trkpt>
      <trkpt lat="46.19537" lon="4.48536">
        <ele>894.6</ele>
        <time>2025-09-20T13:32:52Z</time>
      </trkpt>
      <trkpt lat="46.19538" lon="4.48549">
        <ele>893.8</ele>
        <time>2025-09-20T13:32:53Z</time>
      </trkpt>
      <trkpt lat="46.1954" lon="4.48562">
        <ele>893.2</ele>
        <time>2025-09-20T13:32:54Z</time>
      </trkpt>
      <trkpt lat="46.19542" lon="4.48574">
        <ele>892.8</ele>
        <time>2025-09-20T13:32:55Z</time>
      </trkpt>
      <trkpt lat="46.19543" lon="4.48586">
        <ele>892.4</ele>
        <time>2025-09-20T13:32:56Z</time>
      </trkpt>
      <trkpt lat="46.19546" lon="4.48599">
        <ele>892.2</ele>
        <time>2025-09-20T13:32:57Z</time>
      </trkpt>
      <trkpt lat="46.19548" lon="4.48612">
        <ele>892.2</ele>
        <time>2025-09-20T13:32:58Z</time>
      </trkpt>
      <trkpt lat="46.19549" lon="4.48625">
        <ele>891.4</ele>
        <time>2025-09-20T13:32:59Z</time>
      </trkpt>
      <trkpt lat="46.19551" lon="4.48638">
        <ele>891.2</ele>
        <time>2025-09-20T13:33:00Z</time>
      </trkpt>
      <trkpt lat="46.19554" lon="4.48649">
        <ele>890.6</ele>
        <time>2025-09-20T13:33:01Z</time>
      </trkpt>
      <trkpt lat="46.19556" lon="4.48661">
        <ele>890.2</ele>
        <time>2025-09-20T13:33:02Z</time>
      </trkpt>
      <trkpt lat="46.19558" lon="4.48671">
        <ele>890</ele>
        <time>2025-09-20T13:33:03Z</time>
      </trkpt>
      <trkpt lat="46.1956" lon="4.48681">
        <ele>889.6</ele>
        <time>2025-09-20T13:33:04Z</time>
      </trkpt>
      <trkpt lat="46.19562" lon="4.48691">
        <ele>889.6</ele>
        <time>2025-09-20T13:33:05Z</time>
      </trkpt>
      <trkpt lat="46.19564" lon="4.48702">
        <ele>889.6</ele>
        <time>2025-09-20T13:33:06Z</time>
      </trkpt>
      <trkpt lat="46.19565" lon="4.48714">
        <ele>889.4</ele>
        <time>2025-09-20T13:33:07Z</time>
      </trkpt>
      <trkpt lat="46.19567" lon="4.48724">
        <ele>889.4</ele>
        <time>2025-09-20T13:33:08Z</time>
      </trkpt>
      <trkpt lat="46.19568" lon="4.48736">
        <ele>888.8</ele>
        <time>2025-09-20T13:33:09Z</time>
      </trkpt>
      <trkpt lat="46.19567" lon="4.48748">
        <ele>888.8</ele>
        <time>2025-09-20T13:33:10Z</time>
      </trkpt>
      <trkpt lat="46.19566" lon="4.48759">
        <ele>889.8</ele>
        <time>2025-09-20T13:33:11Z</time>
      </trkpt>
      <trkpt lat="46.19566" lon="4.48772">
        <ele>889.2</ele>
        <time>2025-09-20T13:33:12Z</time>
      </trkpt>
      <trkpt lat="46.19564" lon="4.48783">
        <ele>888.8</ele>
        <time>2025-09-20T13:33:13Z</time>
      </trkpt>
      <trkpt lat="46.19564" lon="4.48796">
        <ele>888.2</ele>
        <time>2025-09-20T13:33:14Z</time>
      </trkpt>
      <trkpt lat="46.19562" lon="4.48807">
        <ele>887.8</ele>
        <time>2025-09-20T13:33:15Z</time>
      </trkpt>
      <trkpt lat="46.19562" lon="4.4882">
        <ele>887.4</ele>
        <time>2025-09-20T13:33:16Z</time>
      </trkpt>
      <trkpt lat="46.19561" lon="4.48833">
        <ele>886.4</ele>
        <time>2025-09-20T13:33:17Z</time>
      </trkpt>
      <trkpt lat="46.19561" lon="4.48845">
        <ele>885.2</ele>
        <time>2025-09-20T13:33:18Z</time>
      </trkpt>
      <trkpt lat="46.19562" lon="4.48858">
        <ele>884.4</ele>
        <time>2025-09-20T13:33:19Z</time>
      </trkpt>
      <trkpt lat="46.19564" lon="4.4887">
        <ele>883.6</ele>
        <time>2025-09-20T13:33:20Z</time>
      </trkpt>
      <trkpt lat="46.19569" lon="4.48884">
        <ele>882.8</ele>
        <time>2025-09-20T13:33:21Z</time>
      </trkpt>
      <trkpt lat="46.19569" lon="4.48884">
        <ele>882.4</ele>
        <time>2025-09-20T13:33:22Z</time>
      </trkpt>
      <trkpt lat="46.19573" lon="4.48895">
        <ele>881.6</ele>
        <time>2025-09-20T13:33:23Z</time>
      </trkpt>
      <trkpt lat="46.19577" lon="4.48907">
        <ele>880.8</ele>
        <time>2025-09-20T13:33:24Z</time>
      </trkpt>
      <trkpt lat="46.19581" lon="4.48919">
        <ele>880.6</ele>
        <time>2025-09-20T13:33:25Z</time>
      </trkpt>
      <trkpt lat="46.19585" lon="4.4893">
        <ele>880.6</ele>
        <time>2025-09-20T13:33:26Z</time>
      </trkpt>
      <trkpt lat="46.19588" lon="4.48941">
        <ele>880.6</ele>
        <time>2025-09-20T13:33:27Z</time>
      </trkpt>
      <trkpt lat="46.19591" lon="4.48951">
        <ele>880.6</ele>
        <time>2025-09-20T13:33:28Z</time>
      </trkpt>
      <trkpt lat="46.19594" lon="4.4896">
        <ele>881.2</ele>
        <time>2025-09-20T13:33:29Z</time>
      </trkpt>
      <trkpt lat="46.19598" lon="4.48968">
        <ele>881.4</ele>
        <time>2025-09-20T13:33:30Z</time>
      </trkpt>
      <trkpt lat="46.196" lon="4.48974">
        <ele>881.4</ele>
        <time>2025-09-20T13:33:31Z</time>
      </trkpt>
      <trkpt lat="46.19601" lon="4.48979">
        <ele>881.4</ele>
        <time>2025-09-20T13:33:32Z</time>
      </trkpt>
      <trkpt lat="46.19602" lon="4.48984">
        <ele>881.4</ele>
        <time>2025-09-20T13:33:33Z</time>
      </trkpt>
      <trkpt lat="46.19604" lon="4.48988">
        <ele>881.6</ele>
        <time>2025-09-20T13:33:34Z</time>
      </trkpt>
      <trkpt lat="46.19605" lon="4.48992">
        <ele>882.2</ele>
        <time>2025-09-20T13:33:35Z</time>
      </trkpt>
      <trkpt lat="46.19606" lon="4.48997">
        <ele>882.2</ele>
        <time>2025-09-20T13:33:36Z</time>
      </trkpt>
      <trkpt lat="46.19607" lon="4.49001">
        <ele>882.2</ele>
        <time>2025-09-20T13:33:37Z</time>
      </trkpt>
      <trkpt lat="46.19608" lon="4.49005">
        <ele>882.2</ele>
        <time>2025-09-20T13:33:38Z</time>
      </trkpt>
      <trkpt lat="46.19608" lon="4.49008">
        <ele>882.4</ele>
        <time>2025-09-20T13:33:39Z</time>
      </trkpt>
      <trkpt lat="46.19608" lon="4.49012">
        <ele>882.6</ele>
        <time>2025-09-20T13:33:40Z</time>
      </trkpt>
      <trkpt lat="46.19608" lon="4.49016">
        <ele>882.6</ele>
        <time>2025-09-20T13:33:41Z</time>
      </trkpt>
      <trkpt lat="46.19608" lon="4.4902">
        <ele>882.6</ele>
        <time>2025-09-20T13:33:42Z</time>
      </trkpt>
      <trkpt lat="46.19609" lon="4.49023">
        <ele>883</ele>
        <time>2025-09-20T13:33:43Z</time>
      </trkpt>
      <trkpt lat="46.1961" lon="4.49026">
        <ele>883</ele>
        <time>2025-09-20T13:33:44Z</time>
      </trkpt>
      <trkpt lat="46.19611" lon="4.49029">
        <ele>883.6</ele>
        <time>2025-09-20T13:33:45Z</time>
      </trkpt>
      <trkpt lat="46.19612" lon="4.49032">
        <ele>883.6</ele>
        <time>2025-09-20T13:33:46Z</time>
      </trkpt>
      <trkpt lat="46.19613" lon="4.49036">
        <ele>884</ele>
        <time>2025-09-20T13:33:47Z</time>
      </trkpt>
      <trkpt lat="46.19612" lon="4.49039">
        <ele>884</ele>
        <time>2025-09-20T13:33:48Z</time>
      </trkpt>
      <trkpt lat="46.19612" lon="4.49042">
        <ele>884.4</ele>
        <time>2025-09-20T13:33:49Z</time>
      </trkpt>
      <trkpt lat="46.19612" lon="4.49045">
        <ele>884.4</ele>
        <time>2025-09-20T13:33:50Z</time>
      </trkpt>
      <trkpt lat="46.19613" lon="4.49048">
        <ele>884.4</ele>
        <time>2025-09-20T13:33:51Z</time>
      </trkpt>
      <trkpt lat="46.19614" lon="4.49052">
        <ele>885</ele>
        <time>2025-09-20T13:33:52Z</time>
      </trkpt>
      <trkpt lat="46.19614" lon="4.49055">
        <ele>885.6</ele>
        <time>2025-09-20T13:33:53Z</time>
      </trkpt>
      <trkpt lat="46.19615" lon="4.49058">
        <ele>886</ele>
        <time>2025-09-20T13:33:54Z</time>
      </trkpt>
      <trkpt lat="46.19615" lon="4.49063">
        <ele>886.2</ele>
        <time>2025-09-20T13:33:55Z</time>
      </trkpt>
      <trkpt lat="46.19615" lon="4.49067">
        <ele>886.8</ele>
        <time>2025-09-20T13:33:56Z</time>
      </trkpt>
      <trkpt lat="46.19616" lon="4.49071">
        <ele>887</ele>
        <time>2025-09-20T13:33:57Z</time>
      </trkpt>
      <trkpt lat="46.19617" lon="4.49075">
        <ele>887.2</ele>
        <time>2025-09-20T13:33:58Z</time>
      </trkpt>
      <trkpt lat="46.19618" lon="4.49079">
        <ele>887.2</ele>
        <time>2025-09-20T13:33:59Z</time>
      </trkpt>
      <trkpt lat="46.19619" lon="4.49083">
        <ele>887.8</ele>
        <time>2025-09-20T13:34:00Z</time>
      </trkpt>
      <trkpt lat="46.1962" lon="4.49087">
        <ele>888</ele>
        <time>2025-09-20T13:34:01Z</time>
      </trkpt>
      <trkpt lat="46.19622" lon="4.49091">
        <ele>888</ele>
        <time>2025-09-20T13:34:02Z</time>
      </trkpt>
      <trkpt lat="46.19623" lon="4.49094">
        <ele>888.4</ele>
        <time>2025-09-20T13:34:03Z</time>
      </trkpt>
      <trkpt lat="46.19625" lon="4.49097">
        <ele>888.8</ele>
        <time>2025-09-20T13:34:04Z</time>
      </trkpt>
      <trkpt lat="46.19627" lon="4.49099">
        <ele>888.8</ele>
        <time>2025-09-20T13:34:05Z</time>
      </trkpt>
      <trkpt lat="46.19629" lon="4.49103">
        <ele>888.8</ele>
        <time>2025-09-20T13:34:06Z</time>
      </trkpt>
      <trkpt lat="46.1963" lon="4.49106">
        <ele>889</ele>
        <time>2025-09-20T13:34:07Z</time>
      </trkpt>
      <trkpt lat="46.19632" lon="4.4911">
        <ele>889.4</ele>
        <time>2025-09-20T13:34:08Z</time>
      </trkpt>
      <trkpt lat="46.19633" lon="4.49113">
        <ele>889.4</ele>
        <time>2025-09-20T13:34:09Z</time>
      </trkpt>
      <trkpt lat="46.19634" lon="4.49116">
        <ele>889.6</ele>
        <time>2025-09-20T13:34:10Z</time>
      </trkpt>
      <trkpt lat="46.19636" lon="4.49118">
        <ele>890</ele>
        <time>2025-09-20T13:34:11Z</time>
      </trkpt>
      <trkpt lat="46.19638" lon="4.49121">
        <ele>890.4</ele>
        <time>2025-09-20T13:34:12Z</time>
      </trkpt>
      <trkpt lat="46.19639" lon="4.49125">
        <ele>890.8</ele>
        <time>2025-09-20T13:34:13Z</time>
      </trkpt>
      <trkpt lat="46.19641" lon="4.49128">
        <ele>891.2</ele>
        <time>2025-09-20T13:34:14Z</time>
      </trkpt>
      <trkpt lat="46.19642" lon="4.49131">
        <ele>891.4</ele>
        <time>2025-09-20T13:34:15Z</time>
      </trkpt>
      <trkpt lat="46.19643" lon="4.49134">
        <ele>891.4</ele>
        <time>2025-09-20T13:34:16Z</time>
      </trkpt>
      <trkpt lat="46.19645" lon="4.49138">
        <ele>891.8</ele>
        <time>2025-09-20T13:34:17Z</time>
      </trkpt>
      <trkpt lat="46.19647" lon="4.49141">
        <ele>892.2</ele>
        <time>2025-09-20T13:34:18Z</time>
      </trkpt>
      <trkpt lat="46.19648" lon="4.49144">
        <ele>892.2</ele>
        <time>2025-09-20T13:34:19Z</time>
      </trkpt>
      <trkpt lat="46.1965" lon="4.49148">
        <ele>892.4</ele>
        <time>2025-09-20T13:34:20Z</time>
      </trkpt>
      <trkpt lat="46.19651" lon="4.49151">
        <ele>892.8</ele>
        <time>2025-09-20T13:34:21Z</time>
      </trkpt>
      <trkpt lat="46.19653" lon="4.49154">
        <ele>893.2</ele>
        <time>2025-09-20T13:34:22Z</time>
      </trkpt>
      <trkpt lat="46.19654" lon="4.49158">
        <ele>893.2</ele>
        <time>2025-09-20T13:34:23Z</time>
      </trkpt>
      <trkpt lat="46.19655" lon="4.49161">
        <ele>893.2</ele>
        <time>2025-09-20T13:34:24Z</time>
      </trkpt>
      <trkpt lat="46.19656" lon="4.49164">
        <ele>893.8</ele>
        <time>2025-09-20T13:34:25Z</time>
      </trkpt>
      <trkpt lat="46.19657" lon="4.49167">
        <ele>894.2</ele>
        <time>2025-09-20T13:34:26Z</time>
      </trkpt>
      <trkpt lat="46.19659" lon="4.49171">
        <ele>894.2</ele>
        <time>2025-09-20T13:34:27Z</time>
      </trkpt>
      <trkpt lat="46.19661" lon="4.49174">
        <ele>894.4</ele>
        <time>2025-09-20T13:34:28Z</time>
      </trkpt>
      <trkpt lat="46.19662" lon="4.49177">
        <ele>894.6</ele>
        <time>2025-09-20T13:34:29Z</time>
      </trkpt>
      <trkpt lat="46.19663" lon="4.4918">
        <ele>895</ele>
        <time>2025-09-20T13:34:30Z</time>
      </trkpt>
      <trkpt lat="46.19664" lon="4.49184">
        <ele>895</ele>
        <time>2025-09-20T13:34:31Z</time>
      </trkpt>
      <trkpt lat="46.19666" lon="4.49188">
        <ele>895.2</ele>
        <time>2025-09-20T13:34:32Z</time>
      </trkpt>
      <trkpt lat="46.19667" lon="4.49192">
        <ele>895.2</ele>
        <time>2025-09-20T13:34:33Z</time>
      </trkpt>
      <trkpt lat="46.19668" lon="4.49196">
        <ele>895.6</ele>
        <time>2025-09-20T13:34:34Z</time>
      </trkpt>
      <trkpt lat="46.19669" lon="4.492">
        <ele>895.8</ele>
        <time>2025-09-20T13:34:35Z</time>
      </trkpt>
      <trkpt lat="46.19671" lon="4.49204">
        <ele>895.8</ele>
        <time>2025-09-20T13:34:36Z</time>
      </trkpt>
      <trkpt lat="46.19673" lon="4.49208">
        <ele>896</ele>
        <time>2025-09-20T13:34:37Z</time>
      </trkpt>
      <trkpt lat="46.19675" lon="4.49213">
        <ele>896.4</ele>
        <time>2025-09-20T13:34:38Z</time>
      </trkpt>
      <trkpt lat="46.19676" lon="4.49217">
        <ele>896.4</ele>
        <time>2025-09-20T13:34:39Z</time>
      </trkpt>
      <trkpt lat="46.19677" lon="4.49221">
        <ele>896.4</ele>
        <time>2025-09-20T13:34:40Z</time>
      </trkpt>
      <trkpt lat="46.19679" lon="4.49226">
        <ele>896.4</ele>
        <time>2025-09-20T13:34:41Z</time>
      </trkpt>
      <trkpt lat="46.19681" lon="4.4923">
        <ele>896.4</ele>
        <time>2025-09-20T13:34:42Z</time>
      </trkpt>
      <trkpt lat="46.19684" lon="4.49234">
        <ele>896.8</ele>
        <time>2025-09-20T13:34:43Z</time>
      </trkpt>
      <trkpt lat="46.19686" lon="4.49238">
        <ele>896.8</ele>
        <time>2025-09-20T13:34:44Z</time>
      </trkpt>
      <trkpt lat="46.19688" lon="4.49243">
        <ele>896.8</ele>
        <time>2025-09-20T13:34:45Z</time>
      </trkpt>
      <trkpt lat="46.1969" lon="4.49247">
        <ele>897</ele>
        <time>2025-09-20T13:34:46Z</time>
      </trkpt>
      <trkpt lat="46.19692" lon="4.49252">
        <ele>896.6</ele>
        <time>2025-09-20T13:34:47Z</time>
      </trkpt>
      <trkpt lat="46.19694" lon="4.49257">
        <ele>896.4</ele>
        <time>2025-09-20T13:34:48Z</time>
      </trkpt>
      <trkpt lat="46.19695" lon="4.49262">
        <ele>896.6</ele>
        <time>2025-09-20T13:34:49Z</time>
      </trkpt>
      <trkpt lat="46.19698" lon="4.49267">
        <ele>896.6</ele>
        <time>2025-09-20T13:34:50Z</time>
      </trkpt>
      <trkpt lat="46.197" lon="4.49272">
        <ele>896.2</ele>
        <time>2025-09-20T13:34:51Z</time>
      </trkpt>
      <trkpt lat="46.19702" lon="4.49277">
        <ele>896.4</ele>
        <time>2025-09-20T13:34:52Z</time>
      </trkpt>
      <trkpt lat="46.19704" lon="4.49283">
        <ele>896.6</ele>
        <time>2025-09-20T13:34:53Z</time>
      </trkpt>
      <trkpt lat="46.19706" lon="4.49288">
        <ele>897</ele>
        <time>2025-09-20T13:34:54Z</time>
      </trkpt>
      <trkpt lat="46.19708" lon="4.49293">
        <ele>897.2</ele>
        <time>2025-09-20T13:34:55Z</time>
      </trkpt>
      <trkpt lat="46.1971" lon="4.49298">
        <ele>896.8</ele>
        <time>2025-09-20T13:34:56Z</time>
      </trkpt>
      <trkpt lat="46.19712" lon="4.49304">
        <ele>895.6</ele>
        <time>2025-09-20T13:34:57Z</time>
      </trkpt>
      <trkpt lat="46.19714" lon="4.4931">
        <ele>895.6</ele>
        <time>2025-09-20T13:34:58Z</time>
      </trkpt>
      <trkpt lat="46.19716" lon="4.49315">
        <ele>895.6</ele>
        <time>2025-09-20T13:34:59Z</time>
      </trkpt>
      <trkpt lat="46.19718" lon="4.49323">
        <ele>895</ele>
        <time>2025-09-20T13:35:00Z</time>
      </trkpt>
      <trkpt lat="46.19721" lon="4.4933">
        <ele>895.2</ele>
        <time>2025-09-20T13:35:01Z</time>
      </trkpt>
      <trkpt lat="46.19723" lon="4.49338">
        <ele>895</ele>
        <time>2025-09-20T13:35:02Z</time>
      </trkpt>
      <trkpt lat="46.19725" lon="4.49346">
        <ele>895</ele>
        <time>2025-09-20T13:35:03Z</time>
      </trkpt>
      <trkpt lat="46.19728" lon="4.49355">
        <ele>894.4</ele>
        <time>2025-09-20T13:35:04Z</time>
      </trkpt>
      <trkpt lat="46.19731" lon="4.49362">
        <ele>894.2</ele>
        <time>2025-09-20T13:35:05Z</time>
      </trkpt>
      <trkpt lat="46.19735" lon="4.49369">
        <ele>893.8</ele>
        <time>2025-09-20T13:35:06Z</time>
      </trkpt>
      <trkpt lat="46.19738" lon="4.49378">
        <ele>894.2</ele>
        <time>2025-09-20T13:35:07Z</time>
      </trkpt>
      <trkpt lat="46.19741" lon="4.49386">
        <ele>893.6</ele>
        <time>2025-09-20T13:35:08Z</time>
      </trkpt>
      <trkpt lat="46.19744" lon="4.49394">
        <ele>893.6</ele>
        <time>2025-09-20T13:35:09Z</time>
      </trkpt>
      <trkpt lat="46.19747" lon="4.49401">
        <ele>893.6</ele>
        <time>2025-09-20T13:35:10Z</time>
      </trkpt>
      <trkpt lat="46.1975" lon="4.49408">
        <ele>893.4</ele>
        <time>2025-09-20T13:35:11Z</time>
      </trkpt>
      <trkpt lat="46.19753" lon="4.49414">
        <ele>892.8</ele>
        <time>2025-09-20T13:35:12Z</time>
      </trkpt>
      <trkpt lat="46.19756" lon="4.49421">
        <ele>892.8</ele>
        <time>2025-09-20T13:35:13Z</time>
      </trkpt>
      <trkpt lat="46.1976" lon="4.49428">
        <ele>893.2</ele>
        <time>2025-09-20T13:35:14Z</time>
      </trkpt>
      <trkpt lat="46.19763" lon="4.49434">
        <ele>893.2</ele>
        <time>2025-09-20T13:35:15Z</time>
      </trkpt>
      <trkpt lat="46.19768" lon="4.49441">
        <ele>893.6</ele>
        <time>2025-09-20T13:35:16Z</time>
      </trkpt>
      <trkpt lat="46.19771" lon="4.49448">
        <ele>893.6</ele>
        <time>2025-09-20T13:35:17Z</time>
      </trkpt>
      <trkpt lat="46.19776" lon="4.49457">
        <ele>893.8</ele>
        <time>2025-09-20T13:35:18Z</time>
      </trkpt>
      <trkpt lat="46.1978" lon="4.49462">
        <ele>894</ele>
        <time>2025-09-20T13:35:19Z</time>
      </trkpt>
      <trkpt lat="46.19784" lon="4.49467">
        <ele>894</ele>
        <time>2025-09-20T13:35:20Z</time>
      </trkpt>
      <trkpt lat="46.19787" lon="4.49471">
        <ele>894</ele>
        <time>2025-09-20T13:35:21Z</time>
      </trkpt>
      <trkpt lat="46.1979" lon="4.49479">
        <ele>894.4</ele>
        <time>2025-09-20T13:35:22Z</time>
      </trkpt>
      <trkpt lat="46.19793" lon="4.49483">
        <ele>894.6</ele>
        <time>2025-09-20T13:35:23Z</time>
      </trkpt>
      <trkpt lat="46.19797" lon="4.49489">
        <ele>894.8</ele>
        <time>2025-09-20T13:35:24Z</time>
      </trkpt>
      <trkpt lat="46.198" lon="4.49495">
        <ele>895.2</ele>
        <time>2025-09-20T13:35:25Z</time>
      </trkpt>
      <trkpt lat="46.19804" lon="4.495">
        <ele>895.2</ele>
        <time>2025-09-20T13:35:26Z</time>
      </trkpt>
      <trkpt lat="46.19807" lon="4.49505">
        <ele>895.6</ele>
        <time>2025-09-20T13:35:27Z</time>
      </trkpt>
      <trkpt lat="46.1981" lon="4.49511">
        <ele>895.6</ele>
        <time>2025-09-20T13:35:28Z</time>
      </trkpt>
      <trkpt lat="46.19813" lon="4.49515">
        <ele>895.6</ele>
        <time>2025-09-20T13:35:29Z</time>
      </trkpt>
      <trkpt lat="46.19816" lon="4.49519">
        <ele>895.6</ele>
        <time>2025-09-20T13:35:30Z</time>
      </trkpt>
      <trkpt lat="46.19819" lon="4.49524">
        <ele>895.6</ele>
        <time>2025-09-20T13:35:31Z</time>
      </trkpt>
      <trkpt lat="46.19822" lon="4.49529">
        <ele>895.6</ele>
        <time>2025-09-20T13:35:32Z</time>
      </trkpt>
      <trkpt lat="46.19824" lon="4.49533">
        <ele>895.6</ele>
        <time>2025-09-20T13:35:33Z</time>
      </trkpt>
      <trkpt lat="46.19828" lon="4.49537">
        <ele>895.8</ele>
        <time>2025-09-20T13:35:34Z</time>
      </trkpt>
      <trkpt lat="46.1983" lon="4.49542">
        <ele>895.8</ele>
        <time>2025-09-20T13:35:35Z</time>
      </trkpt>
      <trkpt lat="46.19832" lon="4.49546">
        <ele>895.8</ele>
        <time>2025-09-20T13:35:36Z</time>
      </trkpt>
      <trkpt lat="46.19835" lon="4.49551">
        <ele>895.8</ele>
        <time>2025-09-20T13:35:37Z</time>
      </trkpt>
      <trkpt lat="46.19838" lon="4.49555">
        <ele>896.2</ele>
        <time>2025-09-20T13:35:38Z</time>
      </trkpt>
      <trkpt lat="46.19842" lon="4.4956">
        <ele>896.2</ele>
        <time>2025-09-20T13:35:39Z</time>
      </trkpt>
      <trkpt lat="46.19845" lon="4.49567">
        <ele>895.8</ele>
        <time>2025-09-20T13:35:40Z</time>
      </trkpt>
      <trkpt lat="46.19849" lon="4.49574">
        <ele>895.6</ele>
        <time>2025-09-20T13:35:41Z</time>
      </trkpt>
      <trkpt lat="46.19852" lon="4.49581">
        <ele>895.2</ele>
        <time>2025-09-20T13:35:42Z</time>
      </trkpt>
      <trkpt lat="46.19856" lon="4.49589">
        <ele>895.2</ele>
        <time>2025-09-20T13:35:43Z</time>
      </trkpt>
      <trkpt lat="46.1986" lon="4.49597">
        <ele>894.2</ele>
        <time>2025-09-20T13:35:44Z</time>
      </trkpt>
      <trkpt lat="46.19865" lon="4.49606">
        <ele>893.2</ele>
        <time>2025-09-20T13:35:45Z</time>
      </trkpt>
      <trkpt lat="46.1987" lon="4.49615">
        <ele>892.6</ele>
        <time>2025-09-20T13:35:46Z</time>
      </trkpt>
      <trkpt lat="46.19875" lon="4.49626">
        <ele>891.6</ele>
        <time>2025-09-20T13:35:47Z</time>
      </trkpt>
      <trkpt lat="46.19881" lon="4.49636">
        <ele>890.6</ele>
        <time>2025-09-20T13:35:48Z</time>
      </trkpt>
      <trkpt lat="46.19887" lon="4.49647">
        <ele>889.6</ele>
        <time>2025-09-20T13:35:49Z</time>
      </trkpt>
      <trkpt lat="46.19893" lon="4.49658">
        <ele>888.6</ele>
        <time>2025-09-20T13:35:50Z</time>
      </trkpt>
      <trkpt lat="46.19899" lon="4.49668">
        <ele>888</ele>
        <time>2025-09-20T13:35:51Z</time>
      </trkpt>
      <trkpt lat="46.19903" lon="4.49681">
        <ele>887.6</ele>
        <time>2025-09-20T13:35:52Z</time>
      </trkpt>
      <trkpt lat="46.19909" lon="4.49692">
        <ele>887</ele>
        <time>2025-09-20T13:35:53Z</time>
      </trkpt>
      <trkpt lat="46.19915" lon="4.49704">
        <ele>885.8</ele>
        <time>2025-09-20T13:35:54Z</time>
      </trkpt>
      <trkpt lat="46.19921" lon="4.49714">
        <ele>885</ele>
        <time>2025-09-20T13:35:55Z</time>
      </trkpt>
      <trkpt lat="46.19927" lon="4.49725">
        <ele>884</ele>
        <time>2025-09-20T13:35:56Z</time>
      </trkpt>
      <trkpt lat="46.19933" lon="4.49734">
        <ele>883.4</ele>
        <time>2025-09-20T13:35:57Z</time>
      </trkpt>
      <trkpt lat="46.19939" lon="4.49745">
        <ele>883.4</ele>
        <time>2025-09-20T13:35:58Z</time>
      </trkpt>
      <trkpt lat="46.19946" lon="4.49755">
        <ele>882.2</ele>
        <time>2025-09-20T13:35:59Z</time>
      </trkpt>
      <trkpt lat="46.19953" lon="4.49764">
        <ele>881.6</ele>
        <time>2025-09-20T13:36:00Z</time>
      </trkpt>
      <trkpt lat="46.1996" lon="4.49773">
        <ele>881</ele>
        <time>2025-09-20T13:36:01Z</time>
      </trkpt>
      <trkpt lat="46.19967" lon="4.49781">
        <ele>880.4</ele>
        <time>2025-09-20T13:36:02Z</time>
      </trkpt>
      <trkpt lat="46.19973" lon="4.4979">
        <ele>879.8</ele>
        <time>2025-09-20T13:36:03Z</time>
      </trkpt>
      <trkpt lat="46.19978" lon="4.49799">
        <ele>879.2</ele>
        <time>2025-09-20T13:36:04Z</time>
      </trkpt>
      <trkpt lat="46.19984" lon="4.4981">
        <ele>878.4</ele>
        <time>2025-09-20T13:36:05Z</time>
      </trkpt>
      <trkpt lat="46.1999" lon="4.4982">
        <ele>877.6</ele>
        <time>2025-09-20T13:36:06Z</time>
      </trkpt>
      <trkpt lat="46.19996" lon="4.4983">
        <ele>876.6</ele>
        <time>2025-09-20T13:36:07Z</time>
      </trkpt>
      <trkpt lat="46.19999" lon="4.49842">
        <ele>875.6</ele>
        <time>2025-09-20T13:36:08Z</time>
      </trkpt>
      <trkpt lat="46.20002" lon="4.4985">
        <ele>874.8</ele>
        <time>2025-09-20T13:36:09Z</time>
      </trkpt>
      <trkpt lat="46.20005" lon="4.49859">
        <ele>874.2</ele>
        <time>2025-09-20T13:36:10Z</time>
      </trkpt>
      <trkpt lat="46.20008" lon="4.49867">
        <ele>873.6</ele>
        <time>2025-09-20T13:36:11Z</time>
      </trkpt>
      <trkpt lat="46.20009" lon="4.49874">
        <ele>873</ele>
        <time>2025-09-20T13:36:12Z</time>
      </trkpt>
      <trkpt lat="46.20012" lon="4.49881">
        <ele>872.4</ele>
        <time>2025-09-20T13:36:13Z</time>
      </trkpt>
      <trkpt lat="46.20014" lon="4.49887">
        <ele>871.6</ele>
        <time>2025-09-20T13:36:14Z</time>
      </trkpt>
      <trkpt lat="46.20017" lon="4.49895">
        <ele>871</ele>
        <time>2025-09-20T13:36:15Z</time>
      </trkpt>
      <trkpt lat="46.20021" lon="4.49906">
        <ele>870</ele>
        <time>2025-09-20T13:36:16Z</time>
      </trkpt>
      <trkpt lat="46.20023" lon="4.49913">
        <ele>869.4</ele>
        <time>2025-09-20T13:36:17Z</time>
      </trkpt>
      <trkpt lat="46.20027" lon="4.49925">
        <ele>868.6</ele>
        <time>2025-09-20T13:36:18Z</time>
      </trkpt>
      <trkpt lat="46.2003" lon="4.49938">
        <ele>867.6</ele>
        <time>2025-09-20T13:36:19Z</time>
      </trkpt>
      <trkpt lat="46.20032" lon="4.49951">
        <ele>866.4</ele>
        <time>2025-09-20T13:36:20Z</time>
      </trkpt>
      <trkpt lat="46.20035" lon="4.49963">
        <ele>865.6</ele>
        <time>2025-09-20T13:36:21Z</time>
      </trkpt>
      <trkpt lat="46.20037" lon="4.49978">
        <ele>864.4</ele>
        <time>2025-09-20T13:36:22Z</time>
      </trkpt>
      <trkpt lat="46.20038" lon="4.49992">
        <ele>863</ele>
        <time>2025-09-20T13:36:23Z</time>
      </trkpt>
      <trkpt lat="46.2004" lon="4.50005">
        <ele>861.2</ele>
        <time>2025-09-20T13:36:24Z</time>
      </trkpt>
      <trkpt lat="46.20042" lon="4.50019">
        <ele>861.2</ele>
        <time>2025-09-20T13:36:25Z</time>
      </trkpt>
      <trkpt lat="46.20044" lon="4.50056">
        <ele>860</ele>
        <time>2025-09-20T13:36:26Z</time>
      </trkpt>
      <trkpt lat="46.20047" lon="4.50072">
        <ele>858.6</ele>
        <time>2025-09-20T13:36:27Z</time>
      </trkpt>
      <trkpt lat="46.20048" lon="4.50087">
        <ele>857.8</ele>
        <time>2025-09-20T13:36:28Z</time>
      </trkpt>
      <trkpt lat="46.20049" lon="4.50099">
        <ele>856.6</ele>
        <time>2025-09-20T13:36:29Z</time>
      </trkpt>
      <trkpt lat="46.20051" lon="4.50109">
        <ele>855.6</ele>
        <time>2025-09-20T13:36:30Z</time>
      </trkpt>
      <trkpt lat="46.20053" lon="4.50119">
        <ele>854.6</ele>
        <time>2025-09-20T13:36:31Z</time>
      </trkpt>
      <trkpt lat="46.20055" lon="4.50125">
        <ele>853.6</ele>
        <time>2025-09-20T13:36:32Z</time>
      </trkpt>
      <trkpt lat="46.20057" lon="4.50134">
        <ele>852.8</ele>
        <time>2025-09-20T13:36:33Z</time>
      </trkpt>
      <trkpt lat="46.20058" lon="4.50142">
        <ele>852.2</ele>
        <time>2025-09-20T13:36:34Z</time>
      </trkpt>
      <trkpt lat="46.20058" lon="4.50148">
        <ele>851.6</ele>
        <time>2025-09-20T13:36:35Z</time>
      </trkpt>
      <trkpt lat="46.20058" lon="4.50156">
        <ele>851.2</ele>
        <time>2025-09-20T13:36:36Z</time>
      </trkpt>
      <trkpt lat="46.20058" lon="4.50165">
        <ele>851</ele>
        <time>2025-09-20T13:36:37Z</time>
      </trkpt>
      <trkpt lat="46.20058" lon="4.50172">
        <ele>850.6</ele>
        <time>2025-09-20T13:36:38Z</time>
      </trkpt>
      <trkpt lat="46.20059" lon="4.50178">
        <ele>850.4</ele>
        <time>2025-09-20T13:36:39Z</time>
      </trkpt>
      <trkpt lat="46.20058" lon="4.50177">
        <ele>850</ele>
        <time>2025-09-20T13:36:40Z</time>
      </trkpt>
      <trkpt lat="46.20058" lon="4.50179">
        <ele>850</ele>
        <time>2025-09-20T13:36:41Z</time>
      </trkpt>
      <trkpt lat="46.20058" lon="4.50178">
        <ele>850</ele>
        <time>2025-09-20T13:36:42Z</time>
      </trkpt>
      <trkpt lat="46.20058" lon="4.50177">
        <ele>850</ele>
        <time>2025-09-20T13:36:43Z</time>
      </trkpt>
      <trkpt lat="46.20058" lon="4.50177">
        <ele>849.6</ele>
        <time>2025-09-20T13:36:44Z</time>
      </trkpt>
      <trkpt lat="46.2006" lon="4.50183">
        <ele>849.4</ele>
        <time>2025-09-20T13:36:56Z</time>
      </trkpt>
      <trkpt lat="46.2006" lon="4.50186">
        <ele>849.4</ele>
        <time>2025-09-20T13:36:57Z</time>
      </trkpt>
      <trkpt lat="46.2006" lon="4.50189">
        <ele>849</ele>
        <time>2025-09-20T13:36:58Z</time>
      </trkpt>
      <trkpt lat="46.2006" lon="4.50191">
        <ele>848.4</ele>
        <time>2025-09-20T13:36:59Z</time>
      </trkpt>
      <trkpt lat="46.20059" lon="4.50195">
        <ele>849</ele>
        <time>2025-09-20T13:37:00Z</time>
      </trkpt>
      <trkpt lat="46.20059" lon="4.50199">
        <ele>849</ele>
        <time>2025-09-20T13:37:01Z</time>
      </trkpt>
      <trkpt lat="46.20059" lon="4.50203">
        <ele>849</ele>
        <time>2025-09-20T13:37:02Z</time>
      </trkpt>
      <trkpt lat="46.20058" lon="4.50208">
        <ele>848.6</ele>
        <time>2025-09-20T13:37:03Z</time>
      </trkpt>
      <trkpt lat="46.20057" lon="4.50214">
        <ele>848.4</ele>
        <time>2025-09-20T13:37:04Z</time>
      </trkpt>
      <trkpt lat="46.20055" lon="4.50219">
        <ele>848</ele>
        <time>2025-09-20T13:37:05Z</time>
      </trkpt>
      <trkpt lat="46.20053" lon="4.50226">
        <ele>847.6</ele>
        <time>2025-09-20T13:37:06Z</time>
      </trkpt>
      <trkpt lat="46.20051" lon="4.50233">
        <ele>847.6</ele>
        <time>2025-09-20T13:37:07Z</time>
      </trkpt>
      <trkpt lat="46.20049" lon="4.50241">
        <ele>847.2</ele>
        <time>2025-09-20T13:37:08Z</time>
      </trkpt>
      <trkpt lat="46.20046" lon="4.50247">
        <ele>847</ele>
        <time>2025-09-20T13:37:09Z</time>
      </trkpt>
      <trkpt lat="46.20044" lon="4.50254">
        <ele>846.4</ele>
        <time>2025-09-20T13:37:10Z</time>
      </trkpt>
      <trkpt lat="46.20041" lon="4.50261">
        <ele>846.4</ele>
        <time>2025-09-20T13:37:11Z</time>
      </trkpt>
      <trkpt lat="46.20039" lon="4.50268">
        <ele>846.4</ele>
        <time>2025-09-20T13:37:12Z</time>
      </trkpt>
      <trkpt lat="46.20036" lon="4.50276">
        <ele>845.8</ele>
        <time>2025-09-20T13:37:13Z</time>
      </trkpt>
      <trkpt lat="46.20034" lon="4.50285">
        <ele>845.4</ele>
        <time>2025-09-20T13:37:14Z</time>
      </trkpt>
      <trkpt lat="46.2003" lon="4.50292">
        <ele>845.2</ele>
        <time>2025-09-20T13:37:15Z</time>
      </trkpt>
      <trkpt lat="46.20027" lon="4.50302">
        <ele>844.8</ele>
        <time>2025-09-20T13:37:16Z</time>
      </trkpt>
      <trkpt lat="46.20023" lon="4.5031">
        <ele>844.8</ele>
        <time>2025-09-20T13:37:17Z</time>
      </trkpt>
      <trkpt lat="46.20021" lon="4.50317">
        <ele>844.8</ele>
        <time>2025-09-20T13:37:18Z</time>
      </trkpt>
      <trkpt lat="46.20017" lon="4.50326">
        <ele>844.8</ele>
        <time>2025-09-20T13:37:19Z</time>
      </trkpt>
      <trkpt lat="46.20012" lon="4.50335">
        <ele>844.4</ele>
        <time>2025-09-20T13:37:20Z</time>
      </trkpt>
      <trkpt lat="46.20007" lon="4.50342">
        <ele>844.2</ele>
        <time>2025-09-20T13:37:21Z</time>
      </trkpt>
      <trkpt lat="46.20004" lon="4.5035">
        <ele>843.8</ele>
        <time>2025-09-20T13:37:22Z</time>
      </trkpt>
      <trkpt lat="46.2" lon="4.50357">
        <ele>843</ele>
        <time>2025-09-20T13:37:23Z</time>
      </trkpt>
      <trkpt lat="46.19997" lon="4.50367">
        <ele>842.4</ele>
        <time>2025-09-20T13:37:24Z</time>
      </trkpt>
      <trkpt lat="46.19996" lon="4.50375">
        <ele>841.6</ele>
        <time>2025-09-20T13:37:25Z</time>
      </trkpt>
      <trkpt lat="46.1999" lon="4.5039">
        <ele>840.8</ele>
        <time>2025-09-20T13:37:26Z</time>
      </trkpt>
      <trkpt lat="46.19987" lon="4.504">
        <ele>840</ele>
        <time>2025-09-20T13:37:27Z</time>
      </trkpt>
      <trkpt lat="46.19981" lon="4.50416">
        <ele>839.4</ele>
        <time>2025-09-20T13:37:28Z</time>
      </trkpt>
      <trkpt lat="46.19973" lon="4.50427">
        <ele>838.6</ele>
        <time>2025-09-20T13:37:29Z</time>
      </trkpt>
      <trkpt lat="46.1997" lon="4.5044">
        <ele>837.6</ele>
        <time>2025-09-20T13:37:30Z</time>
      </trkpt>
      <trkpt lat="46.19965" lon="4.50453">
        <ele>836.4</ele>
        <time>2025-09-20T13:37:31Z</time>
      </trkpt>
      <trkpt lat="46.19961" lon="4.50469">
        <ele>835.2</ele>
        <time>2025-09-20T13:37:32Z</time>
      </trkpt>
      <trkpt lat="46.19958" lon="4.50484">
        <ele>834.2</ele>
        <time>2025-09-20T13:37:33Z</time>
      </trkpt>
      <trkpt lat="46.19955" lon="4.50498">
        <ele>833.2</ele>
        <time>2025-09-20T13:37:34Z</time>
      </trkpt>
      <trkpt lat="46.19951" lon="4.50512">
        <ele>831.6</ele>
        <time>2025-09-20T13:37:35Z</time>
      </trkpt>
      <trkpt lat="46.19948" lon="4.50525">
        <ele>830.6</ele>
        <time>2025-09-20T13:37:36Z</time>
      </trkpt>
      <trkpt lat="46.19944" lon="4.50538">
        <ele>829.8</ele>
        <time>2025-09-20T13:37:37Z</time>
      </trkpt>
      <trkpt lat="46.19939" lon="4.5055">
        <ele>829</ele>
        <time>2025-09-20T13:37:38Z</time>
      </trkpt>
      <trkpt lat="46.19934" lon="4.5056">
        <ele>827.8</ele>
        <time>2025-09-20T13:37:39Z</time>
      </trkpt>
      <trkpt lat="46.19928" lon="4.50569">
        <ele>827.4</ele>
        <time>2025-09-20T13:37:40Z</time>
      </trkpt>
      <trkpt lat="46.19928" lon="4.50569">
        <ele>826</ele>
        <time>2025-09-20T13:37:41Z</time>
      </trkpt>
      <trkpt lat="46.1992" lon="4.50578">
        <ele>825</ele>
        <time>2025-09-20T13:37:42Z</time>
      </trkpt>
      <trkpt lat="46.19915" lon="4.50584">
        <ele>824.2</ele>
        <time>2025-09-20T13:37:43Z</time>
      </trkpt>
      <trkpt lat="46.1991" lon="4.50589">
        <ele>823.2</ele>
        <time>2025-09-20T13:37:44Z</time>
      </trkpt>
      <trkpt lat="46.19906" lon="4.50591">
        <ele>822.2</ele>
        <time>2025-09-20T13:37:45Z</time>
      </trkpt>
      <trkpt lat="46.19902" lon="4.50591">
        <ele>821.6</ele>
        <time>2025-09-20T13:37:46Z</time>
      </trkpt>
      <trkpt lat="46.19898" lon="4.50593">
        <ele>820.8</ele>
        <time>2025-09-20T13:37:47Z</time>
      </trkpt>
      <trkpt lat="46.19893" lon="4.50594">
        <ele>820.2</ele>
        <time>2025-09-20T13:37:48Z</time>
      </trkpt>
      <trkpt lat="46.1989" lon="4.50595">
        <ele>819.6</ele>
        <time>2025-09-20T13:37:49Z</time>
      </trkpt>
      <trkpt lat="46.19886" lon="4.50595">
        <ele>819.2</ele>
        <time>2025-09-20T13:37:50Z</time>
      </trkpt>
      <trkpt lat="46.19884" lon="4.50598">
        <ele>818.8</ele>
        <time>2025-09-20T13:37:51Z</time>
      </trkpt>
      <trkpt lat="46.19882" lon="4.50598">
        <ele>818.4</ele>
        <time>2025-09-20T13:37:52Z</time>
      </trkpt>
      <trkpt lat="46.1988" lon="4.50598">
        <ele>817.8</ele>
        <time>2025-09-20T13:37:53Z</time>
      </trkpt>
      <trkpt lat="46.19878" lon="4.50598">
        <ele>817.6</ele>
        <time>2025-09-20T13:37:54Z</time>
      </trkpt>
      <trkpt lat="46.19875" lon="4.50598">
        <ele>817.4</ele>
        <time>2025-09-20T13:37:55Z</time>
      </trkpt>
      <trkpt lat="46.19872" lon="4.50598">
        <ele>817.4</ele>
        <time>2025-09-20T13:37:56Z</time>
      </trkpt>
      <trkpt lat="46.1987" lon="4.50597">
        <ele>817.4</ele>
        <time>2025-09-20T13:37:57Z</time>
      </trkpt>
      <trkpt lat="46.19868" lon="4.50596">
        <ele>817</ele>
        <time>2025-09-20T13:37:58Z</time>
      </trkpt>
      <trkpt lat="46.19865" lon="4.50595">
        <ele>817</ele>
        <time>2025-09-20T13:37:59Z</time>
      </trkpt>
      <trkpt lat="46.19861" lon="4.50595">
        <ele>816.6</ele>
        <time>2025-09-20T13:38:00Z</time>
      </trkpt>
      <trkpt lat="46.19857" lon="4.50594">
        <ele>816.6</ele>
        <time>2025-09-20T13:38:01Z</time>
      </trkpt>
      <trkpt lat="46.19851" lon="4.50588">
        <ele>816</ele>
        <time>2025-09-20T13:38:02Z</time>
      </trkpt>
      <trkpt lat="46.19846" lon="4.50586">
        <ele>815.6</ele>
        <time>2025-09-20T13:38:03Z</time>
      </trkpt>
      <trkpt lat="46.19841" lon="4.50583">
        <ele>814.8</ele>
        <time>2025-09-20T13:38:04Z</time>
      </trkpt>
      <trkpt lat="46.19836" lon="4.50579">
        <ele>814.4</ele>
        <time>2025-09-20T13:38:05Z</time>
      </trkpt>
      <trkpt lat="46.19829" lon="4.50579">
        <ele>813.6</ele>
        <time>2025-09-20T13:38:06Z</time>
      </trkpt>
      <trkpt lat="46.19823" lon="4.50584">
        <ele>813.2</ele>
        <time>2025-09-20T13:38:07Z</time>
      </trkpt>
      <trkpt lat="46.19823" lon="4.50586">
        <ele>813.2</ele>
        <time>2025-09-20T13:38:08Z</time>
      </trkpt>
      <trkpt lat="46.19819" lon="4.50587">
        <ele>813</ele>
        <time>2025-09-20T13:38:09Z</time>
      </trkpt>
      <trkpt lat="46.1982" lon="4.5059">
        <ele>812.8</ele>
        <time>2025-09-20T13:38:10Z</time>
      </trkpt>
      <trkpt lat="46.19819" lon="4.50593">
        <ele>812.8</ele>
        <time>2025-09-20T13:38:11Z</time>
      </trkpt>
      <trkpt lat="46.19819" lon="4.50596">
        <ele>812.4</ele>
        <time>2025-09-20T13:38:12Z</time>
      </trkpt>
      <trkpt lat="46.19818" lon="4.50599">
        <ele>812.4</ele>
        <time>2025-09-20T13:38:13Z</time>
      </trkpt>
      <trkpt lat="46.19818" lon="4.50601">
        <ele>812.4</ele>
        <time>2025-09-20T13:38:14Z</time>
      </trkpt>
      <trkpt lat="46.19818" lon="4.50603">
        <ele>812.2</ele>
        <time>2025-09-20T13:38:15Z</time>
      </trkpt>
      <trkpt lat="46.19819" lon="4.50605">
        <ele>812</ele>
        <time>2025-09-20T13:38:16Z</time>
      </trkpt>
      <trkpt lat="46.1982" lon="4.50606">
        <ele>812</ele>
        <time>2025-09-20T13:38:17Z</time>
      </trkpt>
      <trkpt lat="46.1982" lon="4.50607">
        <ele>812</ele>
        <time>2025-09-20T13:38:18Z</time>
      </trkpt>
      <trkpt lat="46.1982" lon="4.50608">
        <ele>811.8</ele>
        <time>2025-09-20T13:38:19Z</time>
      </trkpt>
      <trkpt lat="46.1982" lon="4.50608">
        <ele>811.8</ele>
        <time>2025-09-20T13:38:20Z</time>
      </trkpt>
      <trkpt lat="46.19818" lon="4.50609">
        <ele>811.6</ele>
        <time>2025-09-20T13:39:02Z</time>
      </trkpt>
      <trkpt lat="46.19818" lon="4.50609">
        <ele>811.6</ele>
        <time>2025-09-20T13:39:03Z</time>
      </trkpt>
      <trkpt lat="46.19817" lon="4.50608">
        <ele>811.6</ele>
        <time>2025-09-20T13:39:04Z</time>
      </trkpt>
      <trkpt lat="46.19817" lon="4.50608">
        <ele>811.6</ele>
        <time>2025-09-20T13:39:05Z</time>
      </trkpt>
      <trkpt lat="46.19816" lon="4.50608">
        <ele>811.6</ele>
        <time>2025-09-20T13:39:06Z</time>
      </trkpt>
      <trkpt lat="46.19817" lon="4.50608">
        <ele>811.6</ele>
        <time>2025-09-20T13:39:07Z</time>
      </trkpt>
      <trkpt lat="46.19817" lon="4.50605">
        <ele>811.8</ele>
        <time>2025-09-20T13:40:48Z</time>
      </trkpt>
      <trkpt lat="46.19819" lon="4.50605">
        <ele>812</ele>
        <time>2025-09-20T13:40:49Z</time>
      </trkpt>
      <trkpt lat="46.19819" lon="4.50604">
        <ele>812</ele>
        <time>2025-09-20T13:40:50Z</time>
      </trkpt>
      <trkpt lat="46.1982" lon="4.50603">
        <ele>812</ele>
        <time>2025-09-20T13:40:51Z</time>
      </trkpt>
      <trkpt lat="46.19819" lon="4.50601">
        <ele>812</ele>
        <time>2025-09-20T13:40:52Z</time>
      </trkpt>
      <trkpt lat="46.19819" lon="4.50599">
        <ele>812</ele>
        <time>2025-09-20T13:40:53Z</time>
      </trkpt>
      <trkpt lat="46.19818" lon="4.50597">
        <ele>812</ele>
        <time>2025-09-20T13:40:54Z</time>
      </trkpt>
      <trkpt lat="46.19818" lon="4.50595">
        <ele>812</ele>
        <time>2025-09-20T13:40:55Z</time>
      </trkpt>
      <trkpt lat="46.19818" lon="4.50594">
        <ele>812.2</ele>
        <time>2025-09-20T13:40:56Z</time>
      </trkpt>
      <trkpt lat="46.19818" lon="4.50592">
        <ele>812.2</ele>
        <time>2025-09-20T13:40:57Z</time>
      </trkpt>
      <trkpt lat="46.19818" lon="4.5059">
        <ele>812.6</ele>
        <time>2025-09-20T13:40:58Z</time>
      </trkpt>
      <trkpt lat="46.19817" lon="4.50588">
        <ele>812.6</ele>
        <time>2025-09-20T13:40:59Z</time>
      </trkpt>
      <trkpt lat="46.19817" lon="4.50586">
        <ele>812.6</ele>
        <time>2025-09-20T13:41:00Z</time>
      </trkpt>
      <trkpt lat="46.19816" lon="4.50586">
        <ele>812.6</ele>
        <time>2025-09-20T13:41:01Z</time>
      </trkpt>
      <trkpt lat="46.19815" lon="4.50585">
        <ele>812.6</ele>
        <time>2025-09-20T13:41:02Z</time>
      </trkpt>
      <trkpt lat="46.19814" lon="4.50586">
        <ele>812.6</ele>
        <time>2025-09-20T13:41:03Z</time>
      </trkpt>
      <trkpt lat="46.19814" lon="4.50586">
        <ele>812.2</ele>
        <time>2025-09-20T13:41:04Z</time>
      </trkpt>
      <trkpt lat="46.19814" lon="4.50587">
        <ele>812.2</ele>
        <time>2025-09-20T13:41:05Z</time>
      </trkpt>
      <trkpt lat="46.19813" lon="4.50588">
        <ele>812.2</ele>
        <time>2025-09-20T13:41:06Z</time>
      </trkpt>
      <trkpt lat="46.19813" lon="4.50588">
        <ele>812.2</ele>
        <time>2025-09-20T13:41:07Z</time>
      </trkpt>
      <trkpt lat="46.19812" lon="4.50588">
        <ele>812.2</ele>
        <time>2025-09-20T13:41:08Z</time>
      </trkpt>
      <trkpt lat="46.19812" lon="4.50594">
        <ele>812.8</ele>
        <time>2025-09-20T13:41:15Z</time>
      </trkpt>
      <trkpt lat="46.19811" lon="4.50595">
        <ele>812.8</ele>
        <time>2025-09-20T13:41:16Z</time>
      </trkpt>
      <trkpt lat="46.19811" lon="4.50596">
        <ele>812.8</ele>
        <time>2025-09-20T13:41:17Z</time>
      </trkpt>
      <trkpt lat="46.19812" lon="4.50597">
        <ele>812.8</ele>
        <time>2025-09-20T13:41:18Z</time>
      </trkpt>
      <trkpt lat="46.19812" lon="4.50597">
        <ele>812.8</ele>
        <time>2025-09-20T13:41:19Z</time>
      </trkpt>
      <trkpt lat="46.19813" lon="4.50596">
        <ele>812.8</ele>
        <time>2025-09-20T13:41:20Z</time>
      </trkpt>
      <trkpt lat="46.19813" lon="4.50595">
        <ele>812.8</ele>
        <time>2025-09-20T13:41:21Z</time>
      </trkpt>
      <trkpt lat="46.19817" lon="4.50594">
        <ele>812.8</ele>
        <time>2025-09-20T13:43:30Z</time>
      </trkpt>
      <trkpt lat="46.19818" lon="4.50594">
        <ele>812.8</ele>
        <time>2025-09-20T13:43:31Z</time>
      </trkpt>
      <trkpt lat="46.19818" lon="4.50595">
        <ele>812.8</ele>
        <time>2025-09-20T13:43:44Z</time>
      </trkpt>
      <trkpt lat="46.19818" lon="4.50596">
        <ele>812.8</ele>
        <time>2025-09-20T13:43:45Z</time>
      </trkpt>
      <trkpt lat="46.19818" lon="4.50597">
        <ele>812.8</ele>
        <time>2025-09-20T13:43:46Z</time>
      </trkpt>
      <trkpt lat="46.19819" lon="4.50598">
        <ele>812.4</ele>
        <time>2025-09-20T13:43:47Z</time>
      </trkpt>
      <trkpt lat="46.1982" lon="4.50602">
        <ele>812.4</ele>
        <time>2025-09-20T13:43:48Z</time>
      </trkpt>
      <trkpt lat="46.19822" lon="4.50606">
        <ele>812.4</ele>
        <time>2025-09-20T13:43:49Z</time>
      </trkpt>
      <trkpt lat="46.19824" lon="4.5061">
        <ele>812</ele>
        <time>2025-09-20T13:43:50Z</time>
      </trkpt>
      <trkpt lat="46.19827" lon="4.50614">
        <ele>812</ele>
        <time>2025-09-20T13:43:51Z</time>
      </trkpt>
      <trkpt lat="46.19831" lon="4.50618">
        <ele>812</ele>
        <time>2025-09-20T13:43:52Z</time>
      </trkpt>
      <trkpt lat="46.19835" lon="4.50621">
        <ele>811.8</ele>
        <time>2025-09-20T13:43:53Z</time>
      </trkpt>
      <trkpt lat="46.19838" lon="4.50624">
        <ele>811.4</ele>
        <time>2025-09-20T13:43:54Z</time>
      </trkpt>
      <trkpt lat="46.19842" lon="4.50626">
        <ele>811.2</ele>
        <time>2025-09-20T13:43:55Z</time>
      </trkpt>
      <trkpt lat="46.19847" lon="4.50628">
        <ele>810.8</ele>
        <time>2025-09-20T13:43:56Z</time>
      </trkpt>
      <trkpt lat="46.19851" lon="4.5063">
        <ele>810.2</ele>
        <time>2025-09-20T13:43:57Z</time>
      </trkpt>
      <trkpt lat="46.19855" lon="4.50628">
        <ele>810.4</ele>
        <time>2025-09-20T13:43:58Z</time>
      </trkpt>
      <trkpt lat="46.1986" lon="4.50629">
        <ele>810.4</ele>
        <time>2025-09-20T13:43:59Z</time>
      </trkpt>
      <trkpt lat="46.19873" lon="4.50636">
        <ele>810</ele>
        <time>2025-09-20T13:44:00Z</time>
      </trkpt>
      <trkpt lat="46.1988" lon="4.50638">
        <ele>809.8</ele>
        <time>2025-09-20T13:44:01Z</time>
      </trkpt>
      <trkpt lat="46.19888" lon="4.50639">
        <ele>809.8</ele>
        <time>2025-09-20T13:44:02Z</time>
      </trkpt>
      <trkpt lat="46.19892" lon="4.5064">
        <ele>809.2</ele>
        <time>2025-09-20T13:44:03Z</time>
      </trkpt>
      <trkpt lat="46.19897" lon="4.50644">
        <ele>809.2</ele>
        <time>2025-09-20T13:44:04Z</time>
      </trkpt>
      <trkpt lat="46.19905" lon="4.50645">
        <ele>809.4</ele>
        <time>2025-09-20T13:44:05Z</time>
      </trkpt>
      <trkpt lat="46.19911" lon="4.50645">
        <ele>809.4</ele>
        <time>2025-09-20T13:44:06Z</time>
      </trkpt>
      <trkpt lat="46.19918" lon="4.50646">
        <ele>809.2</ele>
        <time>2025-09-20T13:44:07Z</time>
      </trkpt>
      <trkpt lat="46.19926" lon="4.50646">
        <ele>808.6</ele>
        <time>2025-09-20T13:44:08Z</time>
      </trkpt>
      <trkpt lat="46.19934" lon="4.50647">
        <ele>808.6</ele>
        <time>2025-09-20T13:44:09Z</time>
      </trkpt>
      <trkpt lat="46.19941" lon="4.50648">
        <ele>809</ele>
        <time>2025-09-20T13:44:10Z</time>
      </trkpt>
      <trkpt lat="46.19949" lon="4.50648">
        <ele>808.4</ele>
        <time>2025-09-20T13:44:11Z</time>
      </trkpt>
      <trkpt lat="46.19954" lon="4.50647">
        <ele>808.4</ele>
        <time>2025-09-20T13:44:12Z</time>
      </trkpt>
      <trkpt lat="46.19961" lon="4.50647">
        <ele>807.8</ele>
        <time>2025-09-20T13:44:13Z</time>
      </trkpt>
      <trkpt lat="46.19971" lon="4.50644">
        <ele>807.2</ele>
        <time>2025-09-20T13:44:14Z</time>
      </trkpt>
      <trkpt lat="46.19979" lon="4.50644">
        <ele>806.8</ele>
        <time>2025-09-20T13:44:15Z</time>
      </trkpt>
      <trkpt lat="46.19989" lon="4.50643">
        <ele>805.6</ele>
        <time>2025-09-20T13:44:16Z</time>
      </trkpt>
      <trkpt lat="46.19998" lon="4.50641">
        <ele>805.2</ele>
        <time>2025-09-20T13:44:17Z</time>
      </trkpt>
      <trkpt lat="46.20006" lon="4.50641">
        <ele>805.2</ele>
        <time>2025-09-20T13:44:18Z</time>
      </trkpt>
      <trkpt lat="46.20016" lon="4.5064">
        <ele>803.8</ele>
        <time>2025-09-20T13:44:19Z</time>
      </trkpt>
      <trkpt lat="46.20025" lon="4.50639">
        <ele>802.6</ele>
        <time>2025-09-20T13:44:20Z</time>
      </trkpt>
      <trkpt lat="46.20033" lon="4.50637">
        <ele>802</ele>
        <time>2025-09-20T13:44:21Z</time>
      </trkpt>
      <trkpt lat="46.20044" lon="4.50637">
        <ele>801.4</ele>
        <time>2025-09-20T13:44:22Z</time>
      </trkpt>
      <trkpt lat="46.20054" lon="4.50639">
        <ele>800.4</ele>
        <time>2025-09-20T13:44:23Z</time>
      </trkpt>
      <trkpt lat="46.20061" lon="4.50641">
        <ele>799.4</ele>
        <time>2025-09-20T13:44:24Z</time>
      </trkpt>
      <trkpt lat="46.20069" lon="4.50641">
        <ele>798.8</ele>
        <time>2025-09-20T13:44:25Z</time>
      </trkpt>
      <trkpt lat="46.20078" lon="4.50644">
        <ele>798.6</ele>
        <time>2025-09-20T13:44:26Z</time>
      </trkpt>
      <trkpt lat="46.20086" lon="4.50648">
        <ele>798</ele>
        <time>2025-09-20T13:44:27Z</time>
      </trkpt>
      <trkpt lat="46.20093" lon="4.50652">
        <ele>797.2</ele>
        <time>2025-09-20T13:44:28Z</time>
      </trkpt>
      <trkpt lat="46.20099" lon="4.50656">
        <ele>796.8</ele>
        <time>2025-09-20T13:44:29Z</time>
      </trkpt>
      <trkpt lat="46.20106" lon="4.50662">
        <ele>796.8</ele>
        <time>2025-09-20T13:44:30Z</time>
      </trkpt>
      <trkpt lat="46.20112" lon="4.5067">
        <ele>795.8</ele>
        <time>2025-09-20T13:44:31Z</time>
      </trkpt>
      <trkpt lat="46.20121" lon="4.50677">
        <ele>794.6</ele>
        <time>2025-09-20T13:44:32Z</time>
      </trkpt>
      <trkpt lat="46.20125" lon="4.50689">
        <ele>793.6</ele>
        <time>2025-09-20T13:44:33Z</time>
      </trkpt>
      <trkpt lat="46.2013" lon="4.50696">
        <ele>793.6</ele>
        <time>2025-09-20T13:44:34Z</time>
      </trkpt>
      <trkpt lat="46.20136" lon="4.50705">
        <ele>792.4</ele>
        <time>2025-09-20T13:44:35Z</time>
      </trkpt>
      <trkpt lat="46.20145" lon="4.50717">
        <ele>791.8</ele>
        <time>2025-09-20T13:44:36Z</time>
      </trkpt>
      <trkpt lat="46.20152" lon="4.50727">
        <ele>790.4</ele>
        <time>2025-09-20T13:44:37Z</time>
      </trkpt>
      <trkpt lat="46.20161" lon="4.50737">
        <ele>789.2</ele>
        <time>2025-09-20T13:44:38Z</time>
      </trkpt>
      <trkpt lat="46.20168" lon="4.5075">
        <ele>787.6</ele>
        <time>2025-09-20T13:44:39Z</time>
      </trkpt>
      <trkpt lat="46.20176" lon="4.50761">
        <ele>786.8</ele>
        <time>2025-09-20T13:44:40Z</time>
      </trkpt>
      <trkpt lat="46.2018" lon="4.50775">
        <ele>786.2</ele>
        <time>2025-09-20T13:44:41Z</time>
      </trkpt>
      <trkpt lat="46.20185" lon="4.50787">
        <ele>785.2</ele>
        <time>2025-09-20T13:44:42Z</time>
      </trkpt>
      <trkpt lat="46.20191" lon="4.508">
        <ele>784.8</ele>
        <time>2025-09-20T13:44:43Z</time>
      </trkpt>
      <trkpt lat="46.20197" lon="4.50812">
        <ele>784</ele>
        <time>2025-09-20T13:44:44Z</time>
      </trkpt>
      <trkpt lat="46.20201" lon="4.50825">
        <ele>783.6</ele>
        <time>2025-09-20T13:44:45Z</time>
      </trkpt>
      <trkpt lat="46.20204" lon="4.50837">
        <ele>783.2</ele>
        <time>2025-09-20T13:44:46Z</time>
      </trkpt>
      <trkpt lat="46.20209" lon="4.50849">
        <ele>782.8</ele>
        <time>2025-09-20T13:44:47Z</time>
      </trkpt>
      <trkpt lat="46.20217" lon="4.50854">
        <ele>782.2</ele>
        <time>2025-09-20T13:44:48Z</time>
      </trkpt>
      <trkpt lat="46.20223" lon="4.50866">
        <ele>781.4</ele>
        <time>2025-09-20T13:44:49Z</time>
      </trkpt>
      <trkpt lat="46.20231" lon="4.50877">
        <ele>780.4</ele>
        <time>2025-09-20T13:44:50Z</time>
      </trkpt>
      <trkpt lat="46.20237" lon="4.50886">
        <ele>779.6</ele>
        <time>2025-09-20T13:44:51Z</time>
      </trkpt>
      <trkpt lat="46.20244" lon="4.50896">
        <ele>778.6</ele>
        <time>2025-09-20T13:44:52Z</time>
      </trkpt>
      <trkpt lat="46.20248" lon="4.50907">
        <ele>777.8</ele>
        <time>2025-09-20T13:44:53Z</time>
      </trkpt>
      <trkpt lat="46.20253" lon="4.50919">
        <ele>777.4</ele>
        <time>2025-09-20T13:44:54Z</time>
      </trkpt>
      <trkpt lat="46.20257" lon="4.50932">
        <ele>776.4</ele>
        <time>2025-09-20T13:44:55Z</time>
      </trkpt>
      <trkpt lat="46.20261" lon="4.50944">
        <ele>775.6</ele>
        <time>2025-09-20T13:44:56Z</time>
      </trkpt>
      <trkpt lat="46.20265" lon="4.50956">
        <ele>774.4</ele>
        <time>2025-09-20T13:44:57Z</time>
      </trkpt>
      <trkpt lat="46.20268" lon="4.50969">
        <ele>773</ele>
        <time>2025-09-20T13:44:58Z</time>
      </trkpt>
      <trkpt lat="46.20271" lon="4.5098">
        <ele>771.8</ele>
        <time>2025-09-20T13:44:59Z</time>
      </trkpt>
      <trkpt lat="46.20276" lon="4.50989">
        <ele>770.8</ele>
        <time>2025-09-20T13:45:00Z</time>
      </trkpt>
      <trkpt lat="46.2028" lon="4.50997">
        <ele>769.4</ele>
        <time>2025-09-20T13:45:01Z</time>
      </trkpt>
      <trkpt lat="46.20286" lon="4.51007">
        <ele>768.6</ele>
        <time>2025-09-20T13:45:02Z</time>
      </trkpt>
      <trkpt lat="46.20291" lon="4.51018">
        <ele>767.2</ele>
        <time>2025-09-20T13:45:03Z</time>
      </trkpt>
      <trkpt lat="46.20296" lon="4.51028">
        <ele>766.2</ele>
        <time>2025-09-20T13:45:04Z</time>
      </trkpt>
      <trkpt lat="46.20302" lon="4.5104">
        <ele>765.2</ele>
        <time>2025-09-20T13:45:05Z</time>
      </trkpt>
      <trkpt lat="46.20306" lon="4.51053">
        <ele>764</ele>
        <time>2025-09-20T13:45:06Z</time>
      </trkpt>
      <trkpt lat="46.20311" lon="4.51071">
        <ele>762.2</ele>
        <time>2025-09-20T13:45:07Z</time>
      </trkpt>
      <trkpt lat="46.20313" lon="4.51087">
        <ele>760.2</ele>
        <time>2025-09-20T13:45:08Z</time>
      </trkpt>
      <trkpt lat="46.20312" lon="4.51101">
        <ele>758.8</ele>
        <time>2025-09-20T13:45:09Z</time>
      </trkpt>
      <trkpt lat="46.20315" lon="4.51114">
        <ele>757.6</ele>
        <time>2025-09-20T13:45:10Z</time>
      </trkpt>
      <trkpt lat="46.20319" lon="4.51129">
        <ele>756.8</ele>
        <time>2025-09-20T13:45:11Z</time>
      </trkpt>
      <trkpt lat="46.20322" lon="4.51142">
        <ele>755.8</ele>
        <time>2025-09-20T13:45:12Z</time>
      </trkpt>
      <trkpt lat="46.20325" lon="4.51154">
        <ele>755</ele>
        <time>2025-09-20T13:45:13Z</time>
      </trkpt>
      <trkpt lat="46.20327" lon="4.51166">
        <ele>754.4</ele>
        <time>2025-09-20T13:45:14Z</time>
      </trkpt>
      <trkpt lat="46.2033" lon="4.51178">
        <ele>753.6</ele>
        <time>2025-09-20T13:45:15Z</time>
      </trkpt>
      <trkpt lat="46.20329" lon="4.51189">
        <ele>753.4</ele>
        <time>2025-09-20T13:45:16Z</time>
      </trkpt>
      <trkpt lat="46.20329" lon="4.512">
        <ele>752.8</ele>
        <time>2025-09-20T13:45:17Z</time>
      </trkpt>
      <trkpt lat="46.20329" lon="4.51212">
        <ele>752.2</ele>
        <time>2025-09-20T13:45:18Z</time>
      </trkpt>
      <trkpt lat="46.20328" lon="4.51225">
        <ele>751.6</ele>
        <time>2025-09-20T13:45:19Z</time>
      </trkpt>
      <trkpt lat="46.20328" lon="4.51238">
        <ele>751</ele>
        <time>2025-09-20T13:45:20Z</time>
      </trkpt>
      <trkpt lat="46.20327" lon="4.51251">
        <ele>750.8</ele>
        <time>2025-09-20T13:45:21Z</time>
      </trkpt>
      <trkpt lat="46.20327" lon="4.51265">
        <ele>750.4</ele>
        <time>2025-09-20T13:45:22Z</time>
      </trkpt>
      <trkpt lat="46.20328" lon="4.51278">
        <ele>749</ele>
        <time>2025-09-20T13:45:23Z</time>
      </trkpt>
      <trkpt lat="46.2033" lon="4.5129">
        <ele>748.2</ele>
        <time>2025-09-20T13:45:24Z</time>
      </trkpt>
      <trkpt lat="46.20331" lon="4.51303">
        <ele>747.4</ele>
        <time>2025-09-20T13:45:25Z</time>
      </trkpt>
      <trkpt lat="46.20328" lon="4.51315">
        <ele>746.2</ele>
        <time>2025-09-20T13:45:26Z</time>
      </trkpt>
      <trkpt lat="46.20326" lon="4.51327">
        <ele>745.4</ele>
        <time>2025-09-20T13:45:27Z</time>
      </trkpt>
      <trkpt lat="46.20326" lon="4.51341">
        <ele>744.2</ele>
        <time>2025-09-20T13:45:28Z</time>
      </trkpt>
      <trkpt lat="46.20326" lon="4.51355">
        <ele>743</ele>
        <time>2025-09-20T13:45:29Z</time>
      </trkpt>
      <trkpt lat="46.20328" lon="4.51372">
        <ele>741.2</ele>
        <time>2025-09-20T13:45:30Z</time>
      </trkpt>
      <trkpt lat="46.20329" lon="4.51385">
        <ele>739.8</ele>
        <time>2025-09-20T13:45:31Z</time>
      </trkpt>
      <trkpt lat="46.20332" lon="4.51399">
        <ele>738.6</ele>
        <time>2025-09-20T13:45:32Z</time>
      </trkpt>
      <trkpt lat="46.20337" lon="4.51411">
        <ele>737.6</ele>
        <time>2025-09-20T13:45:33Z</time>
      </trkpt>
      <trkpt lat="46.20342" lon="4.51424">
        <ele>736.4</ele>
        <time>2025-09-20T13:45:34Z</time>
      </trkpt>
      <trkpt lat="46.20347" lon="4.51437">
        <ele>735.6</ele>
        <time>2025-09-20T13:45:35Z</time>
      </trkpt>
      <trkpt lat="46.20352" lon="4.5145">
        <ele>734</ele>
        <time>2025-09-20T13:45:36Z</time>
      </trkpt>
      <trkpt lat="46.20358" lon="4.51463">
        <ele>732.6</ele>
        <time>2025-09-20T13:45:37Z</time>
      </trkpt>
      <trkpt lat="46.20363" lon="4.5147">
        <ele>730.8</ele>
        <time>2025-09-20T13:45:38Z</time>
      </trkpt>
      <trkpt lat="46.2037" lon="4.51482">
        <ele>729.4</ele>
        <time>2025-09-20T13:45:39Z</time>
      </trkpt>
      <trkpt lat="46.20376" lon="4.51494">
        <ele>728</ele>
        <time>2025-09-20T13:45:40Z</time>
      </trkpt>
      <trkpt lat="46.20382" lon="4.51504">
        <ele>727.2</ele>
        <time>2025-09-20T13:45:41Z</time>
      </trkpt>
      <trkpt lat="46.20387" lon="4.51516">
        <ele>726.6</ele>
        <time>2025-09-20T13:45:42Z</time>
      </trkpt>
      <trkpt lat="46.20391" lon="4.51525">
        <ele>725.2</ele>
        <time>2025-09-20T13:45:43Z</time>
      </trkpt>
      <trkpt lat="46.20398" lon="4.51538">
        <ele>723.8</ele>
        <time>2025-09-20T13:45:44Z</time>
      </trkpt>
      <trkpt lat="46.20403" lon="4.51549">
        <ele>722.6</ele>
        <time>2025-09-20T13:45:45Z</time>
      </trkpt>
      <trkpt lat="46.20408" lon="4.51562">
        <ele>721.4</ele>
        <time>2025-09-20T13:45:46Z</time>
      </trkpt>
      <trkpt lat="46.20412" lon="4.51575">
        <ele>720.2</ele>
        <time>2025-09-20T13:45:47Z</time>
      </trkpt>
      <trkpt lat="46.20417" lon="4.51588">
        <ele>718.8</ele>
        <time>2025-09-20T13:45:48Z</time>
      </trkpt>
      <trkpt lat="46.20418" lon="4.51601">
        <ele>717.4</ele>
        <time>2025-09-20T13:45:49Z</time>
      </trkpt>
      <trkpt lat="46.20423" lon="4.51612">
        <ele>716.4</ele>
        <time>2025-09-20T13:45:50Z</time>
      </trkpt>
      <trkpt lat="46.20425" lon="4.51622">
        <ele>715.2</ele>
        <time>2025-09-20T13:45:51Z</time>
      </trkpt>
      <trkpt lat="46.2043" lon="4.51632">
        <ele>714.2</ele>
        <time>2025-09-20T13:45:52Z</time>
      </trkpt>
      <trkpt lat="46.20438" lon="4.5164">
        <ele>713.4</ele>
        <time>2025-09-20T13:45:53Z</time>
      </trkpt>
      <trkpt lat="46.20445" lon="4.51647">
        <ele>713</ele>
        <time>2025-09-20T13:45:54Z</time>
      </trkpt>
      <trkpt lat="46.20449" lon="4.51654">
        <ele>712.4</ele>
        <time>2025-09-20T13:45:55Z</time>
      </trkpt>
      <trkpt lat="46.20453" lon="4.51657">
        <ele>712</ele>
        <time>2025-09-20T13:45:56Z</time>
      </trkpt>
      <trkpt lat="46.20459" lon="4.51663">
        <ele>712</ele>
        <time>2025-09-20T13:45:57Z</time>
      </trkpt>
      <trkpt lat="46.20464" lon="4.51668">
        <ele>711.8</ele>
        <time>2025-09-20T13:45:58Z</time>
      </trkpt>
      <trkpt lat="46.20464" lon="4.51668">
        <ele>711.8</ele>
        <time>2025-09-20T13:45:59Z</time>
      </trkpt>
      <trkpt lat="46.2047" lon="4.51677">
        <ele>712.2</ele>
        <time>2025-09-20T13:46:00Z</time>
      </trkpt>
      <trkpt lat="46.20476" lon="4.51683">
        <ele>711.8</ele>
        <time>2025-09-20T13:46:01Z</time>
      </trkpt>
      <trkpt lat="46.20481" lon="4.51689">
        <ele>711.8</ele>
        <time>2025-09-20T13:46:02Z</time>
      </trkpt>
      <trkpt lat="46.20489" lon="4.51698">
        <ele>711.8</ele>
        <time>2025-09-20T13:46:03Z</time>
      </trkpt>
      <trkpt lat="46.20494" lon="4.51706">
        <ele>711.8</ele>
        <time>2025-09-20T13:46:04Z</time>
      </trkpt>
      <trkpt lat="46.20501" lon="4.51713">
        <ele>712.2</ele>
        <time>2025-09-20T13:46:05Z</time>
      </trkpt>
      <trkpt lat="46.20504" lon="4.51719">
        <ele>712.6</ele>
        <time>2025-09-20T13:46:06Z</time>
      </trkpt>
      <trkpt lat="46.2051" lon="4.51727">
        <ele>712.6</ele>
        <time>2025-09-20T13:46:07Z</time>
      </trkpt>
      <trkpt lat="46.20515" lon="4.51734">
        <ele>712.2</ele>
        <time>2025-09-20T13:46:08Z</time>
      </trkpt>
      <trkpt lat="46.20519" lon="4.51744">
        <ele>712.4</ele>
        <time>2025-09-20T13:46:09Z</time>
      </trkpt>
      <trkpt lat="46.20523" lon="4.51753">
        <ele>712.4</ele>
        <time>2025-09-20T13:46:10Z</time>
      </trkpt>
      <trkpt lat="46.20527" lon="4.51758">
        <ele>712.4</ele>
        <time>2025-09-20T13:46:11Z</time>
      </trkpt>
      <trkpt lat="46.20532" lon="4.51767">
        <ele>712.4</ele>
        <time>2025-09-20T13:46:12Z</time>
      </trkpt>
      <trkpt lat="46.20536" lon="4.51775">
        <ele>712.4</ele>
        <time>2025-09-20T13:46:13Z</time>
      </trkpt>
      <trkpt lat="46.20539" lon="4.5178">
        <ele>712.4</ele>
        <time>2025-09-20T13:46:14Z</time>
      </trkpt>
      <trkpt lat="46.20542" lon="4.51789">
        <ele>712.4</ele>
        <time>2025-09-20T13:46:15Z</time>
      </trkpt>
      <trkpt lat="46.20545" lon="4.51794">
        <ele>712.4</ele>
        <time>2025-09-20T13:46:16Z</time>
      </trkpt>
      <trkpt lat="46.20549" lon="4.51801">
        <ele>712.4</ele>
        <time>2025-09-20T13:46:17Z</time>
      </trkpt>
      <trkpt lat="46.20553" lon="4.51808">
        <ele>712.4</ele>
        <time>2025-09-20T13:46:18Z</time>
      </trkpt>
      <trkpt lat="46.20556" lon="4.51816">
        <ele>712.4</ele>
        <time>2025-09-20T13:46:19Z</time>
      </trkpt>
      <trkpt lat="46.2056" lon="4.51822">
        <ele>712.4</ele>
        <time>2025-09-20T13:46:20Z</time>
      </trkpt>
      <trkpt lat="46.20565" lon="4.51829">
        <ele>712.4</ele>
        <time>2025-09-20T13:46:21Z</time>
      </trkpt>
      <trkpt lat="46.2057" lon="4.51835">
        <ele>712.4</ele>
        <time>2025-09-20T13:46:22Z</time>
      </trkpt>
      <trkpt lat="46.20574" lon="4.51841">
        <ele>712.6</ele>
        <time>2025-09-20T13:46:23Z</time>
      </trkpt>
      <trkpt lat="46.20578" lon="4.51847">
        <ele>712.6</ele>
        <time>2025-09-20T13:46:24Z</time>
      </trkpt>
      <trkpt lat="46.20582" lon="4.51852">
        <ele>712.6</ele>
        <time>2025-09-20T13:46:25Z</time>
      </trkpt>
      <trkpt lat="46.20586" lon="4.51857">
        <ele>712.6</ele>
        <time>2025-09-20T13:46:26Z</time>
      </trkpt>
      <trkpt lat="46.20591" lon="4.51862">
        <ele>713</ele>
        <time>2025-09-20T13:46:27Z</time>
      </trkpt>
      <trkpt lat="46.20596" lon="4.51868">
        <ele>713</ele>
        <time>2025-09-20T13:46:28Z</time>
      </trkpt>
      <trkpt lat="46.206" lon="4.51872">
        <ele>713</ele>
        <time>2025-09-20T13:46:29Z</time>
      </trkpt>
      <trkpt lat="46.20605" lon="4.51877">
        <ele>713</ele>
        <time>2025-09-20T13:46:30Z</time>
      </trkpt>
      <trkpt lat="46.20609" lon="4.51882">
        <ele>713.2</ele>
        <time>2025-09-20T13:46:31Z</time>
      </trkpt>
      <trkpt lat="46.20613" lon="4.51887">
        <ele>713.2</ele>
        <time>2025-09-20T13:46:32Z</time>
      </trkpt>
      <trkpt lat="46.20618" lon="4.51893">
        <ele>713.2</ele>
        <time>2025-09-20T13:46:33Z</time>
      </trkpt>
      <trkpt lat="46.20621" lon="4.519">
        <ele>713.2</ele>
        <time>2025-09-20T13:46:34Z</time>
      </trkpt>
      <trkpt lat="46.20626" lon="4.51904">
        <ele>713.2</ele>
        <time>2025-09-20T13:46:35Z</time>
      </trkpt>
      <trkpt lat="46.20631" lon="4.51909">
        <ele>713.2</ele>
        <time>2025-09-20T13:46:36Z</time>
      </trkpt>
      <trkpt lat="46.20636" lon="4.51913">
        <ele>713.2</ele>
        <time>2025-09-20T13:46:37Z</time>
      </trkpt>
      <trkpt lat="46.20641" lon="4.51918">
        <ele>713.2</ele>
        <time>2025-09-20T13:46:38Z</time>
      </trkpt>
      <trkpt lat="46.20646" lon="4.51922">
        <ele>713.2</ele>
        <time>2025-09-20T13:46:39Z</time>
      </trkpt>
      <trkpt lat="46.2065" lon="4.51928">
        <ele>713.2</ele>
        <time>2025-09-20T13:46:40Z</time>
      </trkpt>
      <trkpt lat="46.20655" lon="4.51931">
        <ele>712.8</ele>
        <time>2025-09-20T13:46:41Z</time>
      </trkpt>
      <trkpt lat="46.20659" lon="4.51936">
        <ele>713</ele>
        <time>2025-09-20T13:46:42Z</time>
      </trkpt>
      <trkpt lat="46.20662" lon="4.5194">
        <ele>713</ele>
        <time>2025-09-20T13:46:43Z</time>
      </trkpt>
      <trkpt lat="46.20664" lon="4.51943">
        <ele>712.6</ele>
        <time>2025-09-20T13:46:44Z</time>
      </trkpt>
      <trkpt lat="46.20665" lon="4.51949">
        <ele>712.6</ele>
        <time>2025-09-20T13:46:45Z</time>
      </trkpt>
      <trkpt lat="46.2067" lon="4.51955">
        <ele>712.8</ele>
        <time>2025-09-20T13:46:46Z</time>
      </trkpt>
      <trkpt lat="46.20674" lon="4.51956">
        <ele>712.8</ele>
        <time>2025-09-20T13:46:47Z</time>
      </trkpt>
      <trkpt lat="46.20677" lon="4.5196">
        <ele>713.2</ele>
        <time>2025-09-20T13:46:48Z</time>
      </trkpt>
      <trkpt lat="46.20681" lon="4.51964">
        <ele>713.2</ele>
        <time>2025-09-20T13:46:49Z</time>
      </trkpt>
      <trkpt lat="46.20686" lon="4.51969">
        <ele>713.4</ele>
        <time>2025-09-20T13:46:50Z</time>
      </trkpt>
      <trkpt lat="46.20691" lon="4.51977">
        <ele>713.6</ele>
        <time>2025-09-20T13:46:51Z</time>
      </trkpt>
      <trkpt lat="46.20694" lon="4.51981">
        <ele>713.8</ele>
        <time>2025-09-20T13:46:52Z</time>
      </trkpt>
      <trkpt lat="46.20698" lon="4.51986">
        <ele>713.6</ele>
        <time>2025-09-20T13:46:53Z</time>
      </trkpt>
      <trkpt lat="46.20701" lon="4.5199">
        <ele>713.2</ele>
        <time>2025-09-20T13:46:54Z</time>
      </trkpt>
      <trkpt lat="46.20706" lon="4.51996">
        <ele>713.8</ele>
        <time>2025-09-20T13:46:55Z</time>
      </trkpt>
      <trkpt lat="46.20709" lon="4.52001">
        <ele>714.4</ele>
        <time>2025-09-20T13:46:56Z</time>
      </trkpt>
      <trkpt lat="46.20713" lon="4.52004">
        <ele>714.6</ele>
        <time>2025-09-20T13:46:57Z</time>
      </trkpt>
      <trkpt lat="46.20715" lon="4.52007">
        <ele>714.6</ele>
        <time>2025-09-20T13:46:58Z</time>
      </trkpt>
      <trkpt lat="46.20719" lon="4.5201">
        <ele>714.4</ele>
        <time>2025-09-20T13:46:59Z</time>
      </trkpt>
      <trkpt lat="46.20723" lon="4.52014">
        <ele>714.4</ele>
        <time>2025-09-20T13:47:00Z</time>
      </trkpt>
      <trkpt lat="46.20727" lon="4.52019">
        <ele>714.4</ele>
        <time>2025-09-20T13:47:01Z</time>
      </trkpt>
      <trkpt lat="46.2073" lon="4.52024">
        <ele>714.6</ele>
        <time>2025-09-20T13:47:02Z</time>
      </trkpt>
      <trkpt lat="46.20734" lon="4.52031">
        <ele>714.6</ele>
        <time>2025-09-20T13:47:03Z</time>
      </trkpt>
      <trkpt lat="46.20737" lon="4.52035">
        <ele>715.2</ele>
        <time>2025-09-20T13:47:04Z</time>
      </trkpt>
      <trkpt lat="46.2074" lon="4.5204">
        <ele>715.4</ele>
        <time>2025-09-20T13:47:05Z</time>
      </trkpt>
      <trkpt lat="46.20744" lon="4.52045">
        <ele>715</ele>
        <time>2025-09-20T13:47:06Z</time>
      </trkpt>
      <trkpt lat="46.20746" lon="4.52048">
        <ele>715</ele>
        <time>2025-09-20T13:47:07Z</time>
      </trkpt>
      <trkpt lat="46.20749" lon="4.52051">
        <ele>714.8</ele>
        <time>2025-09-20T13:47:08Z</time>
      </trkpt>
      <trkpt lat="46.20752" lon="4.52055">
        <ele>714.6</ele>
        <time>2025-09-20T13:47:09Z</time>
      </trkpt>
      <trkpt lat="46.20754" lon="4.5206">
        <ele>715</ele>
        <time>2025-09-20T13:47:10Z</time>
      </trkpt>
      <trkpt lat="46.20758" lon="4.52069">
        <ele>714.8</ele>
        <time>2025-09-20T13:47:11Z</time>
      </trkpt>
      <trkpt lat="46.20761" lon="4.52076">
        <ele>714.8</ele>
        <time>2025-09-20T13:47:12Z</time>
      </trkpt>
      <trkpt lat="46.20765" lon="4.52083">
        <ele>714.8</ele>
        <time>2025-09-20T13:47:13Z</time>
      </trkpt>
      <trkpt lat="46.20767" lon="4.52091">
        <ele>714.8</ele>
        <time>2025-09-20T13:47:14Z</time>
      </trkpt>
      <trkpt lat="46.20771" lon="4.52098">
        <ele>714.6</ele>
        <time>2025-09-20T13:47:15Z</time>
      </trkpt>
      <trkpt lat="46.20774" lon="4.52105">
        <ele>714.6</ele>
        <time>2025-09-20T13:47:16Z</time>
      </trkpt>
      <trkpt lat="46.20777" lon="4.52111">
        <ele>714.4</ele>
        <time>2025-09-20T13:47:17Z</time>
      </trkpt>
      <trkpt lat="46.2078" lon="4.52118">
        <ele>713.8</ele>
        <time>2025-09-20T13:47:18Z</time>
      </trkpt>
      <trkpt lat="46.20784" lon="4.52125">
        <ele>713.8</ele>
        <time>2025-09-20T13:47:19Z</time>
      </trkpt>
      <trkpt lat="46.20787" lon="4.5213">
        <ele>713.8</ele>
        <time>2025-09-20T13:47:20Z</time>
      </trkpt>
      <trkpt lat="46.2079" lon="4.52136">
        <ele>714.2</ele>
        <time>2025-09-20T13:47:21Z</time>
      </trkpt>
      <trkpt lat="46.20792" lon="4.52142">
        <ele>714</ele>
        <time>2025-09-20T13:47:22Z</time>
      </trkpt>
      <trkpt lat="46.20794" lon="4.52148">
        <ele>714</ele>
        <time>2025-09-20T13:47:23Z</time>
      </trkpt>
      <trkpt lat="46.20798" lon="4.52153">
        <ele>714</ele>
        <time>2025-09-20T13:47:24Z</time>
      </trkpt>
      <trkpt lat="46.20799" lon="4.52158">
        <ele>714</ele>
        <time>2025-09-20T13:47:25Z</time>
      </trkpt>
      <trkpt lat="46.20803" lon="4.52164">
        <ele>714</ele>
        <time>2025-09-20T13:47:26Z</time>
      </trkpt>
      <trkpt lat="46.20805" lon="4.52167">
        <ele>713.6</ele>
        <time>2025-09-20T13:47:27Z</time>
      </trkpt>
      <trkpt lat="46.20809" lon="4.52172">
        <ele>713.6</ele>
        <time>2025-09-20T13:47:28Z</time>
      </trkpt>
      <trkpt lat="46.20811" lon="4.52177">
        <ele>713.6</ele>
        <time>2025-09-20T13:47:29Z</time>
      </trkpt>
      <trkpt lat="46.20812" lon="4.52184">
        <ele>713.6</ele>
        <time>2025-09-20T13:47:30Z</time>
      </trkpt>
      <trkpt lat="46.20815" lon="4.52189">
        <ele>713.8</ele>
        <time>2025-09-20T13:47:31Z</time>
      </trkpt>
      <trkpt lat="46.20818" lon="4.52195">
        <ele>713.8</ele>
        <time>2025-09-20T13:47:32Z</time>
      </trkpt>
      <trkpt lat="46.20821" lon="4.52201">
        <ele>713.8</ele>
        <time>2025-09-20T13:47:33Z</time>
      </trkpt>
      <trkpt lat="46.20824" lon="4.52205">
        <ele>714</ele>
        <time>2025-09-20T13:47:34Z</time>
      </trkpt>
      <trkpt lat="46.20827" lon="4.5221">
        <ele>713.8</ele>
        <time>2025-09-20T13:47:35Z</time>
      </trkpt>
      <trkpt lat="46.2083" lon="4.52216">
        <ele>713.8</ele>
        <time>2025-09-20T13:47:36Z</time>
      </trkpt>
      <trkpt lat="46.20833" lon="4.52222">
        <ele>714</ele>
        <time>2025-09-20T13:47:37Z</time>
      </trkpt>
      <trkpt lat="46.20835" lon="4.52227">
        <ele>714</ele>
        <time>2025-09-20T13:47:38Z</time>
      </trkpt>
      <trkpt lat="46.20838" lon="4.52232">
        <ele>714</ele>
        <time>2025-09-20T13:47:39Z</time>
      </trkpt>
      <trkpt lat="46.2084" lon="4.52238">
        <ele>714</ele>
        <time>2025-09-20T13:47:40Z</time>
      </trkpt>
      <trkpt lat="46.20842" lon="4.52244">
        <ele>714.4</ele>
        <time>2025-09-20T13:47:41Z</time>
      </trkpt>
      <trkpt lat="46.20843" lon="4.52248">
        <ele>714.4</ele>
        <time>2025-09-20T13:47:42Z</time>
      </trkpt>
      <trkpt lat="46.20845" lon="4.52254">
        <ele>714.4</ele>
        <time>2025-09-20T13:47:43Z</time>
      </trkpt>
      <trkpt lat="46.20846" lon="4.52259">
        <ele>714.4</ele>
        <time>2025-09-20T13:47:44Z</time>
      </trkpt>
      <trkpt lat="46.20848" lon="4.52265">
        <ele>714.4</ele>
        <time>2025-09-20T13:47:45Z</time>
      </trkpt>
      <trkpt lat="46.20849" lon="4.52271">
        <ele>714.6</ele>
        <time>2025-09-20T13:47:46Z</time>
      </trkpt>
      <trkpt lat="46.2085" lon="4.52276">
        <ele>714.4</ele>
        <time>2025-09-20T13:47:47Z</time>
      </trkpt>
      <trkpt lat="46.20852" lon="4.52282">
        <ele>714.4</ele>
        <time>2025-09-20T13:47:48Z</time>
      </trkpt>
      <trkpt lat="46.20853" lon="4.52288">
        <ele>714</ele>
        <time>2025-09-20T13:47:49Z</time>
      </trkpt>
      <trkpt lat="46.20855" lon="4.52294">
        <ele>714</ele>
        <time>2025-09-20T13:47:50Z</time>
      </trkpt>
      <trkpt lat="46.20857" lon="4.52301">
        <ele>714</ele>
        <time>2025-09-20T13:47:51Z</time>
      </trkpt>
      <trkpt lat="46.20858" lon="4.52308">
        <ele>714</ele>
        <time>2025-09-20T13:47:52Z</time>
      </trkpt>
      <trkpt lat="46.20859" lon="4.52316">
        <ele>714</ele>
        <time>2025-09-20T13:47:53Z</time>
      </trkpt>
      <trkpt lat="46.2086" lon="4.52324">
        <ele>713.8</ele>
        <time>2025-09-20T13:47:54Z</time>
      </trkpt>
      <trkpt lat="46.20861" lon="4.52332">
        <ele>713.8</ele>
        <time>2025-09-20T13:47:55Z</time>
      </trkpt>
      <trkpt lat="46.20863" lon="4.52341">
        <ele>713.4</ele>
        <time>2025-09-20T13:47:56Z</time>
      </trkpt>
      <trkpt lat="46.20863" lon="4.5235">
        <ele>713.4</ele>
        <time>2025-09-20T13:47:57Z</time>
      </trkpt>
      <trkpt lat="46.20864" lon="4.52359">
        <ele>713</ele>
        <time>2025-09-20T13:47:58Z</time>
      </trkpt>
      <trkpt lat="46.20865" lon="4.52367">
        <ele>712.6</ele>
        <time>2025-09-20T13:47:59Z</time>
      </trkpt>
      <trkpt lat="46.20865" lon="4.52375">
        <ele>712.6</ele>
        <time>2025-09-20T13:48:00Z</time>
      </trkpt>
      <trkpt lat="46.20866" lon="4.52384">
        <ele>712.2</ele>
        <time>2025-09-20T13:48:01Z</time>
      </trkpt>
      <trkpt lat="46.20867" lon="4.52394">
        <ele>712</ele>
        <time>2025-09-20T13:48:02Z</time>
      </trkpt>
      <trkpt lat="46.20868" lon="4.52404">
        <ele>712</ele>
        <time>2025-09-20T13:48:03Z</time>
      </trkpt>
      <trkpt lat="46.20867" lon="4.52415">
        <ele>711.6</ele>
        <time>2025-09-20T13:48:04Z</time>
      </trkpt>
      <trkpt lat="46.20867" lon="4.52425">
        <ele>711.4</ele>
        <time>2025-09-20T13:48:05Z</time>
      </trkpt>
      <trkpt lat="46.20867" lon="4.52436">
        <ele>711</ele>
        <time>2025-09-20T13:48:06Z</time>
      </trkpt>
      <trkpt lat="46.20869" lon="4.52445">
        <ele>710.6</ele>
        <time>2025-09-20T13:48:07Z</time>
      </trkpt>
      <trkpt lat="46.2087" lon="4.52457">
        <ele>709.8</ele>
        <time>2025-09-20T13:48:08Z</time>
      </trkpt>
      <trkpt lat="46.20871" lon="4.52469">
        <ele>709.8</ele>
        <time>2025-09-20T13:48:09Z</time>
      </trkpt>
      <trkpt lat="46.20874" lon="4.52483">
        <ele>709.2</ele>
        <time>2025-09-20T13:48:10Z</time>
      </trkpt>
      <trkpt lat="46.20877" lon="4.52497">
        <ele>708.4</ele>
        <time>2025-09-20T13:48:11Z</time>
      </trkpt>
      <trkpt lat="46.20879" lon="4.52511">
        <ele>707.6</ele>
        <time>2025-09-20T13:48:12Z</time>
      </trkpt>
      <trkpt lat="46.20882" lon="4.52526">
        <ele>706.8</ele>
        <time>2025-09-20T13:48:13Z</time>
      </trkpt>
      <trkpt lat="46.20883" lon="4.52541">
        <ele>705.4</ele>
        <time>2025-09-20T13:48:14Z</time>
      </trkpt>
      <trkpt lat="46.20885" lon="4.52557">
        <ele>704.8</ele>
        <time>2025-09-20T13:48:15Z</time>
      </trkpt>
      <trkpt lat="46.20884" lon="4.52573">
        <ele>704.4</ele>
        <time>2025-09-20T13:48:16Z</time>
      </trkpt>
      <trkpt lat="46.20883" lon="4.52589">
        <ele>703.4</ele>
        <time>2025-09-20T13:48:17Z</time>
      </trkpt>
      <trkpt lat="46.20881" lon="4.52604">
        <ele>703.2</ele>
        <time>2025-09-20T13:48:18Z</time>
      </trkpt>
      <trkpt lat="46.20881" lon="4.52621">
        <ele>702.6</ele>
        <time>2025-09-20T13:48:19Z</time>
      </trkpt>
      <trkpt lat="46.20882" lon="4.52635">
        <ele>701.8</ele>
        <time>2025-09-20T13:48:20Z</time>
      </trkpt>
      <trkpt lat="46.20881" lon="4.5265">
        <ele>701.2</ele>
        <time>2025-09-20T13:48:21Z</time>
      </trkpt>
      <trkpt lat="46.20881" lon="4.52665">
        <ele>700.4</ele>
        <time>2025-09-20T13:48:22Z</time>
      </trkpt>
      <trkpt lat="46.2088" lon="4.52679">
        <ele>699.6</ele>
        <time>2025-09-20T13:48:23Z</time>
      </trkpt>
      <trkpt lat="46.20879" lon="4.52694">
        <ele>698.6</ele>
        <time>2025-09-20T13:48:24Z</time>
      </trkpt>
      <trkpt lat="46.20881" lon="4.52709">
        <ele>698</ele>
        <time>2025-09-20T13:48:25Z</time>
      </trkpt>
      <trkpt lat="46.20884" lon="4.52723">
        <ele>697.4</ele>
        <time>2025-09-20T13:48:26Z</time>
      </trkpt>
      <trkpt lat="46.20886" lon="4.52738">
        <ele>696.6</ele>
        <time>2025-09-20T13:48:27Z</time>
      </trkpt>
      <trkpt lat="46.20885" lon="4.52752">
        <ele>695.8</ele>
        <time>2025-09-20T13:48:28Z</time>
      </trkpt>
      <trkpt lat="46.20887" lon="4.52766">
        <ele>695.2</ele>
        <time>2025-09-20T13:48:29Z</time>
      </trkpt>
      <trkpt lat="46.20884" lon="4.52782">
        <ele>694.2</ele>
        <time>2025-09-20T13:48:30Z</time>
      </trkpt>
      <trkpt lat="46.20882" lon="4.52797">
        <ele>693</ele>
        <time>2025-09-20T13:48:31Z</time>
      </trkpt>
      <trkpt lat="46.2088" lon="4.52812">
        <ele>692</ele>
        <time>2025-09-20T13:48:32Z</time>
      </trkpt>
      <trkpt lat="46.20877" lon="4.52827">
        <ele>691.4</ele>
        <time>2025-09-20T13:48:33Z</time>
      </trkpt>
      <trkpt lat="46.20873" lon="4.52841">
        <ele>690.6</ele>
        <time>2025-09-20T13:48:34Z</time>
      </trkpt>
      <trkpt lat="46.20869" lon="4.52854">
        <ele>689.6</ele>
        <time>2025-09-20T13:48:35Z</time>
      </trkpt>
      <trkpt lat="46.20865" lon="4.52868">
        <ele>688.8</ele>
        <time>2025-09-20T13:48:36Z</time>
      </trkpt>
      <trkpt lat="46.20861" lon="4.52881">
        <ele>687.8</ele>
        <time>2025-09-20T13:48:37Z</time>
      </trkpt>
      <trkpt lat="46.20856" lon="4.52894">
        <ele>687</ele>
        <time>2025-09-20T13:48:38Z</time>
      </trkpt>
      <trkpt lat="46.2085" lon="4.52907">
        <ele>686.4</ele>
        <time>2025-09-20T13:48:39Z</time>
      </trkpt>
      <trkpt lat="46.20843" lon="4.5292">
        <ele>685.6</ele>
        <time>2025-09-20T13:48:40Z</time>
      </trkpt>
      <trkpt lat="46.20836" lon="4.52931">
        <ele>684.8</ele>
        <time>2025-09-20T13:48:41Z</time>
      </trkpt>
      <trkpt lat="46.20827" lon="4.52942">
        <ele>684.4</ele>
        <time>2025-09-20T13:48:42Z</time>
      </trkpt>
      <trkpt lat="46.20819" lon="4.52952">
        <ele>683.4</ele>
        <time>2025-09-20T13:48:43Z</time>
      </trkpt>
      <trkpt lat="46.20811" lon="4.52963">
        <ele>682.2</ele>
        <time>2025-09-20T13:48:44Z</time>
      </trkpt>
      <trkpt lat="46.20801" lon="4.52971">
        <ele>682.2</ele>
        <time>2025-09-20T13:48:45Z</time>
      </trkpt>
      <trkpt lat="46.20791" lon="4.5298">
        <ele>681.2</ele>
        <time>2025-09-20T13:48:46Z</time>
      </trkpt>
      <trkpt lat="46.20781" lon="4.52986">
        <ele>680.2</ele>
        <time>2025-09-20T13:48:47Z</time>
      </trkpt>
      <trkpt lat="46.20771" lon="4.52994">
        <ele>679.6</ele>
        <time>2025-09-20T13:48:48Z</time>
      </trkpt>
      <trkpt lat="46.20761" lon="4.53002">
        <ele>678</ele>
        <time>2025-09-20T13:48:49Z</time>
      </trkpt>
      <trkpt lat="46.20753" lon="4.53014">
        <ele>677</ele>
        <time>2025-09-20T13:48:50Z</time>
      </trkpt>
      <trkpt lat="46.20745" lon="4.53025">
        <ele>677</ele>
        <time>2025-09-20T13:48:51Z</time>
      </trkpt>
      <trkpt lat="46.20738" lon="4.53035">
        <ele>676.2</ele>
        <time>2025-09-20T13:48:52Z</time>
      </trkpt>
      <trkpt lat="46.2073" lon="4.53047">
        <ele>675.6</ele>
        <time>2025-09-20T13:48:53Z</time>
      </trkpt>
      <trkpt lat="46.20722" lon="4.53059">
        <ele>675</ele>
        <time>2025-09-20T13:48:54Z</time>
      </trkpt>
      <trkpt lat="46.20714" lon="4.53071">
        <ele>674.4</ele>
        <time>2025-09-20T13:48:55Z</time>
      </trkpt>
      <trkpt lat="46.20706" lon="4.53082">
        <ele>673.6</ele>
        <time>2025-09-20T13:48:56Z</time>
      </trkpt>
      <trkpt lat="46.20698" lon="4.53095">
        <ele>673</ele>
        <time>2025-09-20T13:48:57Z</time>
      </trkpt>
      <trkpt lat="46.2069" lon="4.5311">
        <ele>671.6</ele>
        <time>2025-09-20T13:48:58Z</time>
      </trkpt>
      <trkpt lat="46.20683" lon="4.53122">
        <ele>671</ele>
        <time>2025-09-20T13:48:59Z</time>
      </trkpt>
      <trkpt lat="46.20675" lon="4.53136">
        <ele>670</ele>
        <time>2025-09-20T13:49:00Z</time>
      </trkpt>
      <trkpt lat="46.20667" lon="4.53151">
        <ele>669</ele>
        <time>2025-09-20T13:49:01Z</time>
      </trkpt>
      <trkpt lat="46.20661" lon="4.53165">
        <ele>668.4</ele>
        <time>2025-09-20T13:49:02Z</time>
      </trkpt>
      <trkpt lat="46.20655" lon="4.53178">
        <ele>667.6</ele>
        <time>2025-09-20T13:49:03Z</time>
      </trkpt>
      <trkpt lat="46.20647" lon="4.53192">
        <ele>667.2</ele>
        <time>2025-09-20T13:49:04Z</time>
      </trkpt>
      <trkpt lat="46.20644" lon="4.53205">
        <ele>666.8</ele>
        <time>2025-09-20T13:49:05Z</time>
      </trkpt>
      <trkpt lat="46.20641" lon="4.53219">
        <ele>666</ele>
        <time>2025-09-20T13:49:06Z</time>
      </trkpt>
      <trkpt lat="46.20638" lon="4.53233">
        <ele>665.8</ele>
        <time>2025-09-20T13:49:07Z</time>
      </trkpt>
      <trkpt lat="46.20636" lon="4.53245">
        <ele>664.4</ele>
        <time>2025-09-20T13:49:08Z</time>
      </trkpt>
      <trkpt lat="46.20631" lon="4.53261">
        <ele>665</ele>
        <time>2025-09-20T13:49:09Z</time>
      </trkpt>
      <trkpt lat="46.20627" lon="4.53275">
        <ele>664</ele>
        <time>2025-09-20T13:49:10Z</time>
      </trkpt>
      <trkpt lat="46.20623" lon="4.5329">
        <ele>663</ele>
        <time>2025-09-20T13:49:11Z</time>
      </trkpt>
      <trkpt lat="46.2062" lon="4.53304">
        <ele>662</ele>
        <time>2025-09-20T13:49:12Z</time>
      </trkpt>
      <trkpt lat="46.20616" lon="4.53319">
        <ele>661.4</ele>
        <time>2025-09-20T13:49:13Z</time>
      </trkpt>
      <trkpt lat="46.20611" lon="4.53333">
        <ele>660.2</ele>
        <time>2025-09-20T13:49:14Z</time>
      </trkpt>
      <trkpt lat="46.20608" lon="4.53347">
        <ele>659.6</ele>
        <time>2025-09-20T13:49:15Z</time>
      </trkpt>
      <trkpt lat="46.20608" lon="4.53361">
        <ele>659</ele>
        <time>2025-09-20T13:49:16Z</time>
      </trkpt>
      <trkpt lat="46.20609" lon="4.53376">
        <ele>658.2</ele>
        <time>2025-09-20T13:49:17Z</time>
      </trkpt>
      <trkpt lat="46.2061" lon="4.53392">
        <ele>657.4</ele>
        <time>2025-09-20T13:49:18Z</time>
      </trkpt>
      <trkpt lat="46.20612" lon="4.53408">
        <ele>656.2</ele>
        <time>2025-09-20T13:49:19Z</time>
      </trkpt>
      <trkpt lat="46.20612" lon="4.53424">
        <ele>655.2</ele>
        <time>2025-09-20T13:49:20Z</time>
      </trkpt>
      <trkpt lat="46.20614" lon="4.53441">
        <ele>653.8</ele>
        <time>2025-09-20T13:49:21Z</time>
      </trkpt>
      <trkpt lat="46.20614" lon="4.53458">
        <ele>652.2</ele>
        <time>2025-09-20T13:49:22Z</time>
      </trkpt>
      <trkpt lat="46.20616" lon="4.53476">
        <ele>651</ele>
        <time>2025-09-20T13:49:23Z</time>
      </trkpt>
      <trkpt lat="46.20618" lon="4.53493">
        <ele>650</ele>
        <time>2025-09-20T13:49:24Z</time>
      </trkpt>
      <trkpt lat="46.2062" lon="4.5351">
        <ele>649</ele>
        <time>2025-09-20T13:49:25Z</time>
      </trkpt>
      <trkpt lat="46.20623" lon="4.53526">
        <ele>648</ele>
        <time>2025-09-20T13:49:26Z</time>
      </trkpt>
      <trkpt lat="46.20625" lon="4.53541">
        <ele>647.4</ele>
        <time>2025-09-20T13:49:27Z</time>
      </trkpt>
      <trkpt lat="46.20626" lon="4.53556">
        <ele>646.4</ele>
        <time>2025-09-20T13:49:28Z</time>
      </trkpt>
      <trkpt lat="46.20627" lon="4.5357">
        <ele>645.6</ele>
        <time>2025-09-20T13:49:29Z</time>
      </trkpt>
      <trkpt lat="46.20627" lon="4.53584">
        <ele>645</ele>
        <time>2025-09-20T13:49:30Z</time>
      </trkpt>
      <trkpt lat="46.20628" lon="4.53598">
        <ele>644.4</ele>
        <time>2025-09-20T13:49:31Z</time>
      </trkpt>
      <trkpt lat="46.20629" lon="4.53612">
        <ele>643.8</ele>
        <time>2025-09-20T13:49:32Z</time>
      </trkpt>
      <trkpt lat="46.20628" lon="4.53623">
        <ele>642.8</ele>
        <time>2025-09-20T13:49:33Z</time>
      </trkpt>
      <trkpt lat="46.2063" lon="4.53633">
        <ele>641.8</ele>
        <time>2025-09-20T13:49:34Z</time>
      </trkpt>
      <trkpt lat="46.2063" lon="4.53643">
        <ele>641.4</ele>
        <time>2025-09-20T13:49:35Z</time>
      </trkpt>
      <trkpt lat="46.20632" lon="4.53651">
        <ele>641</ele>
        <time>2025-09-20T13:49:36Z</time>
      </trkpt>
      <trkpt lat="46.20634" lon="4.53659">
        <ele>640.8</ele>
        <time>2025-09-20T13:49:37Z</time>
      </trkpt>
      <trkpt lat="46.20633" lon="4.53665">
        <ele>640.6</ele>
        <time>2025-09-20T13:49:38Z</time>
      </trkpt>
      <trkpt lat="46.20633" lon="4.5367">
        <ele>640.4</ele>
        <time>2025-09-20T13:49:39Z</time>
      </trkpt>
      <trkpt lat="46.20631" lon="4.53674">
        <ele>640.4</ele>
        <time>2025-09-20T13:49:40Z</time>
      </trkpt>
      <trkpt lat="46.20631" lon="4.53676">
        <ele>640.4</ele>
        <time>2025-09-20T13:49:41Z</time>
      </trkpt>
      <trkpt lat="46.20629" lon="4.53678">
        <ele>640.2</ele>
        <time>2025-09-20T13:49:42Z</time>
      </trkpt>
      <trkpt lat="46.20629" lon="4.5368">
        <ele>640.2</ele>
        <time>2025-09-20T13:49:43Z</time>
      </trkpt>
      <trkpt lat="46.2063" lon="4.53682">
        <ele>640.2</ele>
        <time>2025-09-20T13:49:44Z</time>
      </trkpt>
      <trkpt lat="46.20635" lon="4.53684">
        <ele>639.6</ele>
        <time>2025-09-20T13:49:45Z</time>
      </trkpt>
      <trkpt lat="46.20637" lon="4.53684">
        <ele>639.6</ele>
        <time>2025-09-20T13:49:46Z</time>
      </trkpt>
      <trkpt lat="46.2064" lon="4.53684">
        <ele>638.6</ele>
        <time>2025-09-20T13:49:47Z</time>
      </trkpt>
      <trkpt lat="46.20642" lon="4.53684">
        <ele>638.6</ele>
        <time>2025-09-20T13:49:48Z</time>
      </trkpt>
      <trkpt lat="46.20645" lon="4.53683">
        <ele>640.2</ele>
        <time>2025-09-20T13:49:49Z</time>
      </trkpt>
      <trkpt lat="46.20647" lon="4.53682">
        <ele>640.4</ele>
        <time>2025-09-20T13:49:50Z</time>
      </trkpt>
      <trkpt lat="46.2065" lon="4.53681">
        <ele>640.2</ele>
        <time>2025-09-20T13:49:51Z</time>
      </trkpt>
      <trkpt lat="46.20652" lon="4.53679">
        <ele>640</ele>
        <time>2025-09-20T13:49:52Z</time>
      </trkpt>
      <trkpt lat="46.20655" lon="4.53676">
        <ele>639.6</ele>
        <time>2025-09-20T13:49:53Z</time>
      </trkpt>
      <trkpt lat="46.20657" lon="4.53674">
        <ele>639.4</ele>
        <time>2025-09-20T13:49:54Z</time>
      </trkpt>
      <trkpt lat="46.20659" lon="4.53672">
        <ele>639.4</ele>
        <time>2025-09-20T13:49:55Z</time>
      </trkpt>
      <trkpt lat="46.20661" lon="4.53671">
        <ele>639.4</ele>
        <time>2025-09-20T13:49:56Z</time>
      </trkpt>
      <trkpt lat="46.20661" lon="4.53671">
        <ele>639.2</ele>
        <time>2025-09-20T13:49:57Z</time>
      </trkpt>
      <trkpt lat="46.20662" lon="4.5367">
        <ele>639.2</ele>
        <time>2025-09-20T13:49:58Z</time>
      </trkpt>
      <trkpt lat="46.20663" lon="4.53668">
        <ele>639.2</ele>
        <time>2025-09-20T13:49:59Z</time>
      </trkpt>
      <trkpt lat="46.20664" lon="4.53666">
        <ele>639.2</ele>
        <time>2025-09-20T13:50:00Z</time>
      </trkpt>
      <trkpt lat="46.20666" lon="4.53663">
        <ele>639.2</ele>
        <time>2025-09-20T13:50:01Z</time>
      </trkpt>
      <trkpt lat="46.20667" lon="4.53661">
        <ele>639.2</ele>
        <time>2025-09-20T13:50:02Z</time>
      </trkpt>
      <trkpt lat="46.20669" lon="4.53659">
        <ele>639.2</ele>
        <time>2025-09-20T13:50:03Z</time>
      </trkpt>
      <trkpt lat="46.20671" lon="4.53658">
        <ele>639.2</ele>
        <time>2025-09-20T13:50:04Z</time>
      </trkpt>
      <trkpt lat="46.20672" lon="4.53656">
        <ele>639.2</ele>
        <time>2025-09-20T13:50:05Z</time>
      </trkpt>
      <trkpt lat="46.20674" lon="4.53654">
        <ele>639</ele>
        <time>2025-09-20T13:50:06Z</time>
      </trkpt>
      <trkpt lat="46.20675" lon="4.53652">
        <ele>639</ele>
        <time>2025-09-20T13:50:07Z</time>
      </trkpt>
      <trkpt lat="46.20677" lon="4.5365">
        <ele>639</ele>
        <time>2025-09-20T13:50:08Z</time>
      </trkpt>
      <trkpt lat="46.20679" lon="4.53648">
        <ele>639</ele>
        <time>2025-09-20T13:50:09Z</time>
      </trkpt>
      <trkpt lat="46.20681" lon="4.53646">
        <ele>639</ele>
        <time>2025-09-20T13:50:10Z</time>
      </trkpt>
      <trkpt lat="46.20683" lon="4.53644">
        <ele>639</ele>
        <time>2025-09-20T13:50:11Z</time>
      </trkpt>
      <trkpt lat="46.20685" lon="4.53643">
        <ele>639</ele>
        <time>2025-09-20T13:50:12Z</time>
      </trkpt>
      <trkpt lat="46.20686" lon="4.53643">
        <ele>639</ele>
        <time>2025-09-20T13:50:13Z</time>
      </trkpt>
      <trkpt lat="46.20687" lon="4.53643">
        <ele>639</ele>
        <time>2025-09-20T13:50:14Z</time>
      </trkpt>
      <trkpt lat="46.20688" lon="4.53644">
        <ele>639</ele>
        <time>2025-09-20T13:50:15Z</time>
      </trkpt>
      <trkpt lat="46.2069" lon="4.53644">
        <ele>639</ele>
        <time>2025-09-20T13:50:16Z</time>
      </trkpt>
      <trkpt lat="46.20691" lon="4.53642">
        <ele>639.2</ele>
        <time>2025-09-20T13:50:17Z</time>
      </trkpt>
      <trkpt lat="46.20693" lon="4.5364">
        <ele>639.2</ele>
        <time>2025-09-20T13:50:18Z</time>
      </trkpt>
      <trkpt lat="46.20695" lon="4.53637">
        <ele>639.2</ele>
        <time>2025-09-20T13:50:19Z</time>
      </trkpt>
      <trkpt lat="46.20697" lon="4.53635">
        <ele>639.2</ele>
        <time>2025-09-20T13:50:20Z</time>
      </trkpt>
      <trkpt lat="46.207" lon="4.53634">
        <ele>639.2</ele>
        <time>2025-09-20T13:50:21Z</time>
      </trkpt>
      <trkpt lat="46.20702" lon="4.53633">
        <ele>639.2</ele>
        <time>2025-09-20T13:50:22Z</time>
      </trkpt>
      <trkpt lat="46.20704" lon="4.53631">
        <ele>639.4</ele>
        <time>2025-09-20T13:50:23Z</time>
      </trkpt>
      <trkpt lat="46.20705" lon="4.53629">
        <ele>639.4</ele>
        <time>2025-09-20T13:50:24Z</time>
      </trkpt>
      <trkpt lat="46.20707" lon="4.53625">
        <ele>639.4</ele>
        <time>2025-09-20T13:50:25Z</time>
      </trkpt>
      <trkpt lat="46.20709" lon="4.53622">
        <ele>639.4</ele>
        <time>2025-09-20T13:50:26Z</time>
      </trkpt>
      <trkpt lat="46.20711" lon="4.53618">
        <ele>639.4</ele>
        <time>2025-09-20T13:50:27Z</time>
      </trkpt>
      <trkpt lat="46.20712" lon="4.53614">
        <ele>639</ele>
        <time>2025-09-20T13:50:28Z</time>
      </trkpt>
      <trkpt lat="46.20714" lon="4.53609">
        <ele>639</ele>
        <time>2025-09-20T13:50:29Z</time>
      </trkpt>
      <trkpt lat="46.20715" lon="4.53604">
        <ele>638.8</ele>
        <time>2025-09-20T13:50:30Z</time>
      </trkpt>
      <trkpt lat="46.20717" lon="4.53599">
        <ele>638.8</ele>
        <time>2025-09-20T13:50:31Z</time>
      </trkpt>
      <trkpt lat="46.20718" lon="4.53595">
        <ele>638.8</ele>
        <time>2025-09-20T13:50:32Z</time>
      </trkpt>
      <trkpt lat="46.2072" lon="4.53591">
        <ele>638.6</ele>
        <time>2025-09-20T13:50:33Z</time>
      </trkpt>
      <trkpt lat="46.20721" lon="4.53587">
        <ele>639</ele>
        <time>2025-09-20T13:50:34Z</time>
      </trkpt>
      <trkpt lat="46.20723" lon="4.53585">
        <ele>638</ele>
        <time>2025-09-20T13:50:35Z</time>
      </trkpt>
    </trkseg>
  </trk>
</gpx>